<?xml version="1.0" encoding="UTF-8" standalone="no" ?>
<gpx xmlns="http://www.topografix.com/GPX/1/1" xmlns:xsi="http://www.w3.org/2001/XMLSchema-instance" xsi:schemaLocation="http://www.topografix.com/GPX/1/1 http://www.topografix.com/GPX/1/1/gpx.xsd" version="1.1" creator="VisuGPX - https://www.visugpx.com">
  <metadata>
    <name>Monts du Lyonnais 900m</name>
  </metadata>
  <trk>
    <name><![CDATA[Sortie à vélo l'après-midi sortie de récup avec retraités Au mollet | Vélo | Strava]]></name>
    <extensions>
      <line xmlns="http://www.topografix.com/GPX/gpx_style/0/2">
        <color>0000FF</color>
        <width>4</width>
      </line>
    </extensions>
    <trkseg>
      <trkpt lat="45.7673" lon="4.6517">
        <ele>496.2</ele>
        <time>2021-09-27T11:27:00.000Z</time>
      </trkpt>
      <trkpt lat="45.76725" lon="4.65171">
        <ele>482.6</ele>
        <time>2021-09-27T11:27:07.000Z</time>
      </trkpt>
      <trkpt lat="45.76723" lon="4.65173">
        <ele>482.6</ele>
        <time>2021-09-27T11:27:08.000Z</time>
      </trkpt>
      <trkpt lat="45.76722" lon="4.65174">
        <ele>483</ele>
        <time>2021-09-27T11:27:09.000Z</time>
      </trkpt>
      <trkpt lat="45.7672" lon="4.65175">
        <ele>482.8</ele>
        <time>2021-09-27T11:27:10.000Z</time>
      </trkpt>
      <trkpt lat="45.76712" lon="4.65179">
        <ele>482.6</ele>
        <time>2021-09-27T11:27:14.000Z</time>
      </trkpt>
      <trkpt lat="45.7671" lon="4.65178">
        <ele>482.6</ele>
        <time>2021-09-27T11:27:15.000Z</time>
      </trkpt>
      <trkpt lat="45.76705" lon="4.65171">
        <ele>482.4</ele>
        <time>2021-09-27T11:27:18.000Z</time>
      </trkpt>
      <trkpt lat="45.76704" lon="4.65169">
        <ele>482.8</ele>
        <time>2021-09-27T11:27:19.000Z</time>
      </trkpt>
      <trkpt lat="45.76699" lon="4.65165">
        <ele>482.8</ele>
        <time>2021-09-27T11:27:22.000Z</time>
      </trkpt>
      <trkpt lat="45.76696" lon="4.65162">
        <ele>482.6</ele>
        <time>2021-09-27T11:27:24.000Z</time>
      </trkpt>
      <trkpt lat="45.76695" lon="4.6516">
        <ele>482.6</ele>
        <time>2021-09-27T11:27:25.000Z</time>
      </trkpt>
      <trkpt lat="45.76695" lon="4.65158">
        <ele>482.6</ele>
        <time>2021-09-27T11:27:26.000Z</time>
      </trkpt>
      <trkpt lat="45.76694" lon="4.65155">
        <ele>482.6</ele>
        <time>2021-09-27T11:27:27.000Z</time>
      </trkpt>
      <trkpt lat="45.76692" lon="4.65153">
        <ele>482.6</ele>
        <time>2021-09-27T11:27:28.000Z</time>
      </trkpt>
      <trkpt lat="45.76687" lon="4.65142">
        <ele>482.4</ele>
        <time>2021-09-27T11:27:31.000Z</time>
      </trkpt>
      <trkpt lat="45.76687" lon="4.65138">
        <ele>482.4</ele>
        <time>2021-09-27T11:27:32.000Z</time>
      </trkpt>
      <trkpt lat="45.76688" lon="4.65133">
        <ele>482.4</ele>
        <time>2021-09-27T11:27:33.000Z</time>
      </trkpt>
      <trkpt lat="45.76689" lon="4.65129">
        <ele>482.4</ele>
        <time>2021-09-27T11:27:34.000Z</time>
      </trkpt>
      <trkpt lat="45.76691" lon="4.65127">
        <ele>482.6</ele>
        <time>2021-09-27T11:27:35.000Z</time>
      </trkpt>
      <trkpt lat="45.76692" lon="4.65124">
        <ele>482.6</ele>
        <time>2021-09-27T11:27:36.000Z</time>
      </trkpt>
      <trkpt lat="45.76694" lon="4.65122">
        <ele>482.6</ele>
        <time>2021-09-27T11:27:37.000Z</time>
      </trkpt>
      <trkpt lat="45.76695" lon="4.65119">
        <ele>482.6</ele>
        <time>2021-09-27T11:27:38.000Z</time>
      </trkpt>
      <trkpt lat="45.76697" lon="4.65117">
        <ele>482.6</ele>
        <time>2021-09-27T11:27:39.000Z</time>
      </trkpt>
      <trkpt lat="45.76698" lon="4.65114">
        <ele>482.4</ele>
        <time>2021-09-27T11:27:40.000Z</time>
      </trkpt>
      <trkpt lat="45.76698" lon="4.65111">
        <ele>482.4</ele>
        <time>2021-09-27T11:27:41.000Z</time>
      </trkpt>
      <trkpt lat="45.76699" lon="4.65108">
        <ele>482.4</ele>
        <time>2021-09-27T11:27:42.000Z</time>
      </trkpt>
      <trkpt lat="45.767" lon="4.65105">
        <ele>482.4</ele>
        <time>2021-09-27T11:27:43.000Z</time>
      </trkpt>
      <trkpt lat="45.76705" lon="4.65091">
        <ele>482.4</ele>
        <time>2021-09-27T11:27:46.000Z</time>
      </trkpt>
      <trkpt lat="45.76706" lon="4.65084">
        <ele>482.4</ele>
        <time>2021-09-27T11:27:47.000Z</time>
      </trkpt>
      <trkpt lat="45.76713" lon="4.65051">
        <ele>482.4</ele>
        <time>2021-09-27T11:27:51.000Z</time>
      </trkpt>
      <trkpt lat="45.76716" lon="4.65045">
        <ele>482.2</ele>
        <time>2021-09-27T11:27:52.000Z</time>
      </trkpt>
      <trkpt lat="45.7672" lon="4.6504">
        <ele>482.2</ele>
        <time>2021-09-27T11:27:53.000Z</time>
      </trkpt>
      <trkpt lat="45.76725" lon="4.65038">
        <ele>482</ele>
        <time>2021-09-27T11:27:54.000Z</time>
      </trkpt>
      <trkpt lat="45.76729" lon="4.65039">
        <ele>481.2</ele>
        <time>2021-09-27T11:27:55.000Z</time>
      </trkpt>
      <trkpt lat="45.76734" lon="4.65041">
        <ele>480.8</ele>
        <time>2021-09-27T11:27:56.000Z</time>
      </trkpt>
      <trkpt lat="45.76738" lon="4.65042">
        <ele>480</ele>
        <time>2021-09-27T11:27:57.000Z</time>
      </trkpt>
      <trkpt lat="45.76743" lon="4.65044">
        <ele>479.2</ele>
        <time>2021-09-27T11:27:58.000Z</time>
      </trkpt>
      <trkpt lat="45.76747" lon="4.65045">
        <ele>478.6</ele>
        <time>2021-09-27T11:27:59.000Z</time>
      </trkpt>
      <trkpt lat="45.7675" lon="4.65046">
        <ele>478.4</ele>
        <time>2021-09-27T11:28:00.000Z</time>
      </trkpt>
      <trkpt lat="45.76753" lon="4.65047">
        <ele>478.2</ele>
        <time>2021-09-27T11:28:01.000Z</time>
      </trkpt>
      <trkpt lat="45.76756" lon="4.65048">
        <ele>478.2</ele>
        <time>2021-09-27T11:28:02.000Z</time>
      </trkpt>
      <trkpt lat="45.76758" lon="4.65049">
        <ele>478.2</ele>
        <time>2021-09-27T11:28:03.000Z</time>
      </trkpt>
      <trkpt lat="45.76761" lon="4.65049">
        <ele>478.2</ele>
        <time>2021-09-27T11:28:04.000Z</time>
      </trkpt>
      <trkpt lat="45.76764" lon="4.6505">
        <ele>478.2</ele>
        <time>2021-09-27T11:28:05.000Z</time>
      </trkpt>
      <trkpt lat="45.76767" lon="4.65051">
        <ele>478.2</ele>
        <time>2021-09-27T11:28:06.000Z</time>
      </trkpt>
      <trkpt lat="45.76771" lon="4.65052">
        <ele>478</ele>
        <time>2021-09-27T11:28:08.000Z</time>
      </trkpt>
      <trkpt lat="45.76772" lon="4.65053">
        <ele>478</ele>
        <time>2021-09-27T11:28:09.000Z</time>
      </trkpt>
      <trkpt lat="45.76775" lon="4.65054">
        <ele>478.2</ele>
        <time>2021-09-27T11:28:10.000Z</time>
      </trkpt>
      <trkpt lat="45.7678" lon="4.65055">
        <ele>478.2</ele>
        <time>2021-09-27T11:28:12.000Z</time>
      </trkpt>
      <trkpt lat="45.76793" lon="4.65058">
        <ele>478.8</ele>
        <time>2021-09-27T11:28:17.000Z</time>
      </trkpt>
      <trkpt lat="45.76797" lon="4.65059">
        <ele>478.8</ele>
        <time>2021-09-27T11:28:19.000Z</time>
      </trkpt>
      <trkpt lat="45.76808" lon="4.65058">
        <ele>479.2</ele>
        <time>2021-09-27T11:28:23.000Z</time>
      </trkpt>
      <trkpt lat="45.76812" lon="4.65056">
        <ele>479.4</ele>
        <time>2021-09-27T11:28:25.000Z</time>
      </trkpt>
      <trkpt lat="45.76814" lon="4.65056">
        <ele>479.4</ele>
        <time>2021-09-27T11:28:26.000Z</time>
      </trkpt>
      <trkpt lat="45.76817" lon="4.65056">
        <ele>479.4</ele>
        <time>2021-09-27T11:28:27.000Z</time>
      </trkpt>
      <trkpt lat="45.76819" lon="4.65055">
        <ele>479.4</ele>
        <time>2021-09-27T11:28:28.000Z</time>
      </trkpt>
      <trkpt lat="45.76823" lon="4.65053">
        <ele>479.6</ele>
        <time>2021-09-27T11:28:29.000Z</time>
      </trkpt>
      <trkpt lat="45.76825" lon="4.65052">
        <ele>479.6</ele>
        <time>2021-09-27T11:28:30.000Z</time>
      </trkpt>
      <trkpt lat="45.76827" lon="4.65052">
        <ele>479.6</ele>
        <time>2021-09-27T11:28:31.000Z</time>
      </trkpt>
      <trkpt lat="45.76829" lon="4.65049">
        <ele>479.8</ele>
        <time>2021-09-27T11:28:32.000Z</time>
      </trkpt>
      <trkpt lat="45.7683" lon="4.65048">
        <ele>480</ele>
        <time>2021-09-27T11:28:33.000Z</time>
      </trkpt>
      <trkpt lat="45.76832" lon="4.65046">
        <ele>480.2</ele>
        <time>2021-09-27T11:28:34.000Z</time>
      </trkpt>
      <trkpt lat="45.76841" lon="4.65035">
        <ele>480.6</ele>
        <time>2021-09-27T11:28:39.000Z</time>
      </trkpt>
      <trkpt lat="45.76846" lon="4.65031">
        <ele>480.8</ele>
        <time>2021-09-27T11:28:42.000Z</time>
      </trkpt>
      <trkpt lat="45.76848" lon="4.65029">
        <ele>480.8</ele>
        <time>2021-09-27T11:28:43.000Z</time>
      </trkpt>
      <trkpt lat="45.76852" lon="4.65024">
        <ele>481</ele>
        <time>2021-09-27T11:28:46.000Z</time>
      </trkpt>
      <trkpt lat="45.76854" lon="4.65023">
        <ele>481.2</ele>
        <time>2021-09-27T11:28:47.000Z</time>
      </trkpt>
      <trkpt lat="45.76855" lon="4.65021">
        <ele>481.4</ele>
        <time>2021-09-27T11:28:48.000Z</time>
      </trkpt>
      <trkpt lat="45.76856" lon="4.6502">
        <ele>481.6</ele>
        <time>2021-09-27T11:28:49.000Z</time>
      </trkpt>
      <trkpt lat="45.76858" lon="4.65018">
        <ele>481.6</ele>
        <time>2021-09-27T11:28:50.000Z</time>
      </trkpt>
      <trkpt lat="45.76859" lon="4.65017">
        <ele>481.8</ele>
        <time>2021-09-27T11:28:51.000Z</time>
      </trkpt>
      <trkpt lat="45.7686" lon="4.65015">
        <ele>481.8</ele>
        <time>2021-09-27T11:28:52.000Z</time>
      </trkpt>
      <trkpt lat="45.76861" lon="4.65014">
        <ele>481.8</ele>
        <time>2021-09-27T11:28:53.000Z</time>
      </trkpt>
      <trkpt lat="45.76863" lon="4.6501">
        <ele>482.2</ele>
        <time>2021-09-27T11:28:55.000Z</time>
      </trkpt>
      <trkpt lat="45.76865" lon="4.65009">
        <ele>482.2</ele>
        <time>2021-09-27T11:28:56.000Z</time>
      </trkpt>
      <trkpt lat="45.76866" lon="4.65007">
        <ele>482.6</ele>
        <time>2021-09-27T11:28:57.000Z</time>
      </trkpt>
      <trkpt lat="45.76867" lon="4.65006">
        <ele>482.6</ele>
        <time>2021-09-27T11:28:58.000Z</time>
      </trkpt>
      <trkpt lat="45.76868" lon="4.65004">
        <ele>482.8</ele>
        <time>2021-09-27T11:28:59.000Z</time>
      </trkpt>
      <trkpt lat="45.76869" lon="4.65002">
        <ele>482.8</ele>
        <time>2021-09-27T11:29:00.000Z</time>
      </trkpt>
      <trkpt lat="45.76869" lon="4.65001">
        <ele>482.8</ele>
        <time>2021-09-27T11:29:01.000Z</time>
      </trkpt>
      <trkpt lat="45.7687" lon="4.65">
        <ele>482.8</ele>
        <time>2021-09-27T11:29:02.000Z</time>
      </trkpt>
      <trkpt lat="45.76871" lon="4.64998">
        <ele>483</ele>
        <time>2021-09-27T11:29:03.000Z</time>
      </trkpt>
      <trkpt lat="45.76872" lon="4.64997">
        <ele>483.4</ele>
        <time>2021-09-27T11:29:04.000Z</time>
      </trkpt>
      <trkpt lat="45.76872" lon="4.64996">
        <ele>483.4</ele>
        <time>2021-09-27T11:29:05.000Z</time>
      </trkpt>
      <trkpt lat="45.76873" lon="4.64994">
        <ele>483.6</ele>
        <time>2021-09-27T11:29:06.000Z</time>
      </trkpt>
      <trkpt lat="45.76874" lon="4.64993">
        <ele>483.8</ele>
        <time>2021-09-27T11:29:07.000Z</time>
      </trkpt>
      <trkpt lat="45.76874" lon="4.64991">
        <ele>484</ele>
        <time>2021-09-27T11:29:08.000Z</time>
      </trkpt>
      <trkpt lat="45.76875" lon="4.64991">
        <ele>484.2</ele>
        <time>2021-09-27T11:29:09.000Z</time>
      </trkpt>
      <trkpt lat="45.76876" lon="4.64989">
        <ele>484.6</ele>
        <time>2021-09-27T11:29:10.000Z</time>
      </trkpt>
      <trkpt lat="45.76877" lon="4.64988">
        <ele>485</ele>
        <time>2021-09-27T11:29:11.000Z</time>
      </trkpt>
      <trkpt lat="45.76878" lon="4.64987">
        <ele>485.2</ele>
        <time>2021-09-27T11:29:12.000Z</time>
      </trkpt>
      <trkpt lat="45.76879" lon="4.64986">
        <ele>485.6</ele>
        <time>2021-09-27T11:29:13.000Z</time>
      </trkpt>
      <trkpt lat="45.7688" lon="4.64985">
        <ele>486</ele>
        <time>2021-09-27T11:29:14.000Z</time>
      </trkpt>
      <trkpt lat="45.76881" lon="4.64984">
        <ele>486.2</ele>
        <time>2021-09-27T11:29:15.000Z</time>
      </trkpt>
      <trkpt lat="45.76882" lon="4.64983">
        <ele>486.2</ele>
        <time>2021-09-27T11:29:16.000Z</time>
      </trkpt>
      <trkpt lat="45.76883" lon="4.64982">
        <ele>486.6</ele>
        <time>2021-09-27T11:29:17.000Z</time>
      </trkpt>
      <trkpt lat="45.76884" lon="4.64982">
        <ele>486.8</ele>
        <time>2021-09-27T11:29:18.000Z</time>
      </trkpt>
      <trkpt lat="45.76885" lon="4.64982">
        <ele>486.8</ele>
        <time>2021-09-27T11:29:19.000Z</time>
      </trkpt>
      <trkpt lat="45.76886" lon="4.64981">
        <ele>487</ele>
        <time>2021-09-27T11:29:20.000Z</time>
      </trkpt>
      <trkpt lat="45.76887" lon="4.6498">
        <ele>487.4</ele>
        <time>2021-09-27T11:29:21.000Z</time>
      </trkpt>
      <trkpt lat="45.76888" lon="4.6498">
        <ele>487.4</ele>
        <time>2021-09-27T11:29:22.000Z</time>
      </trkpt>
      <trkpt lat="45.76889" lon="4.64979">
        <ele>487.6</ele>
        <time>2021-09-27T11:29:23.000Z</time>
      </trkpt>
      <trkpt lat="45.76891" lon="4.64978">
        <ele>487.8</ele>
        <time>2021-09-27T11:29:24.000Z</time>
      </trkpt>
      <trkpt lat="45.76892" lon="4.64977">
        <ele>488</ele>
        <time>2021-09-27T11:29:25.000Z</time>
      </trkpt>
      <trkpt lat="45.76894" lon="4.64977">
        <ele>488.2</ele>
        <time>2021-09-27T11:29:26.000Z</time>
      </trkpt>
      <trkpt lat="45.76895" lon="4.64977">
        <ele>488.6</ele>
        <time>2021-09-27T11:29:28.000Z</time>
      </trkpt>
      <trkpt lat="45.76897" lon="4.64977">
        <ele>488.8</ele>
        <time>2021-09-27T11:29:29.000Z</time>
      </trkpt>
      <trkpt lat="45.76898" lon="4.64976">
        <ele>489</ele>
        <time>2021-09-27T11:29:30.000Z</time>
      </trkpt>
      <trkpt lat="45.76899" lon="4.64976">
        <ele>488.8</ele>
        <time>2021-09-27T11:29:31.000Z</time>
      </trkpt>
      <trkpt lat="45.769" lon="4.64975">
        <ele>489</ele>
        <time>2021-09-27T11:29:32.000Z</time>
      </trkpt>
      <trkpt lat="45.76901" lon="4.64975">
        <ele>489.4</ele>
        <time>2021-09-27T11:29:33.000Z</time>
      </trkpt>
      <trkpt lat="45.76902" lon="4.64974">
        <ele>489.6</ele>
        <time>2021-09-27T11:29:34.000Z</time>
      </trkpt>
      <trkpt lat="45.76903" lon="4.64974">
        <ele>489.8</ele>
        <time>2021-09-27T11:29:35.000Z</time>
      </trkpt>
      <trkpt lat="45.76904" lon="4.64974">
        <ele>490.2</ele>
        <time>2021-09-27T11:29:36.000Z</time>
      </trkpt>
      <trkpt lat="45.76906" lon="4.64974">
        <ele>490.4</ele>
        <time>2021-09-27T11:29:37.000Z</time>
      </trkpt>
      <trkpt lat="45.76907" lon="4.64973">
        <ele>490.6</ele>
        <time>2021-09-27T11:29:38.000Z</time>
      </trkpt>
      <trkpt lat="45.76908" lon="4.64973">
        <ele>490.8</ele>
        <time>2021-09-27T11:29:39.000Z</time>
      </trkpt>
      <trkpt lat="45.76909" lon="4.64973">
        <ele>490.8</ele>
        <time>2021-09-27T11:29:40.000Z</time>
      </trkpt>
      <trkpt lat="45.7691" lon="4.64974">
        <ele>491</ele>
        <time>2021-09-27T11:29:41.000Z</time>
      </trkpt>
      <trkpt lat="45.76912" lon="4.64974">
        <ele>491</ele>
        <time>2021-09-27T11:29:42.000Z</time>
      </trkpt>
      <trkpt lat="45.76913" lon="4.64974">
        <ele>491.4</ele>
        <time>2021-09-27T11:29:43.000Z</time>
      </trkpt>
      <trkpt lat="45.76914" lon="4.64974">
        <ele>491.6</ele>
        <time>2021-09-27T11:29:44.000Z</time>
      </trkpt>
      <trkpt lat="45.76915" lon="4.64975">
        <ele>491.8</ele>
        <time>2021-09-27T11:29:45.000Z</time>
      </trkpt>
      <trkpt lat="45.76916" lon="4.64975">
        <ele>492</ele>
        <time>2021-09-27T11:29:46.000Z</time>
      </trkpt>
      <trkpt lat="45.76917" lon="4.64976">
        <ele>492.2</ele>
        <time>2021-09-27T11:29:47.000Z</time>
      </trkpt>
      <trkpt lat="45.76918" lon="4.64976">
        <ele>492.4</ele>
        <time>2021-09-27T11:29:48.000Z</time>
      </trkpt>
      <trkpt lat="45.7692" lon="4.64977">
        <ele>492.6</ele>
        <time>2021-09-27T11:29:49.000Z</time>
      </trkpt>
      <trkpt lat="45.76921" lon="4.64977">
        <ele>493</ele>
        <time>2021-09-27T11:29:50.000Z</time>
      </trkpt>
      <trkpt lat="45.76922" lon="4.64977">
        <ele>493.2</ele>
        <time>2021-09-27T11:29:51.000Z</time>
      </trkpt>
      <trkpt lat="45.76923" lon="4.64978">
        <ele>493.4</ele>
        <time>2021-09-27T11:29:52.000Z</time>
      </trkpt>
      <trkpt lat="45.76924" lon="4.64978">
        <ele>493.6</ele>
        <time>2021-09-27T11:29:53.000Z</time>
      </trkpt>
      <trkpt lat="45.76925" lon="4.64979">
        <ele>493.8</ele>
        <time>2021-09-27T11:29:54.000Z</time>
      </trkpt>
      <trkpt lat="45.76926" lon="4.64979">
        <ele>494</ele>
        <time>2021-09-27T11:29:55.000Z</time>
      </trkpt>
      <trkpt lat="45.76927" lon="4.64979">
        <ele>494.2</ele>
        <time>2021-09-27T11:29:56.000Z</time>
      </trkpt>
      <trkpt lat="45.76928" lon="4.6498">
        <ele>494.6</ele>
        <time>2021-09-27T11:29:57.000Z</time>
      </trkpt>
      <trkpt lat="45.76929" lon="4.6498">
        <ele>494.8</ele>
        <time>2021-09-27T11:29:58.000Z</time>
      </trkpt>
      <trkpt lat="45.7693" lon="4.6498">
        <ele>495</ele>
        <time>2021-09-27T11:29:59.000Z</time>
      </trkpt>
      <trkpt lat="45.76931" lon="4.6498">
        <ele>495.2</ele>
        <time>2021-09-27T11:30:00.000Z</time>
      </trkpt>
      <trkpt lat="45.76932" lon="4.64981">
        <ele>495.4</ele>
        <time>2021-09-27T11:30:01.000Z</time>
      </trkpt>
      <trkpt lat="45.76933" lon="4.64981">
        <ele>495.8</ele>
        <time>2021-09-27T11:30:02.000Z</time>
      </trkpt>
      <trkpt lat="45.76934" lon="4.64981">
        <ele>496.2</ele>
        <time>2021-09-27T11:30:03.000Z</time>
      </trkpt>
      <trkpt lat="45.76936" lon="4.64982">
        <ele>496.2</ele>
        <time>2021-09-27T11:30:04.000Z</time>
      </trkpt>
      <trkpt lat="45.76937" lon="4.64982">
        <ele>496.4</ele>
        <time>2021-09-27T11:30:05.000Z</time>
      </trkpt>
      <trkpt lat="45.76938" lon="4.64983">
        <ele>496.8</ele>
        <time>2021-09-27T11:30:06.000Z</time>
      </trkpt>
      <trkpt lat="45.7694" lon="4.64984">
        <ele>497</ele>
        <time>2021-09-27T11:30:07.000Z</time>
      </trkpt>
      <trkpt lat="45.76941" lon="4.64986">
        <ele>497.2</ele>
        <time>2021-09-27T11:30:08.000Z</time>
      </trkpt>
      <trkpt lat="45.76942" lon="4.64986">
        <ele>497.4</ele>
        <time>2021-09-27T11:30:09.000Z</time>
      </trkpt>
      <trkpt lat="45.76943" lon="4.64987">
        <ele>497.8</ele>
        <time>2021-09-27T11:30:10.000Z</time>
      </trkpt>
      <trkpt lat="45.76945" lon="4.64988">
        <ele>497.8</ele>
        <time>2021-09-27T11:30:11.000Z</time>
      </trkpt>
      <trkpt lat="45.76945" lon="4.64989">
        <ele>498</ele>
        <time>2021-09-27T11:30:12.000Z</time>
      </trkpt>
      <trkpt lat="45.76946" lon="4.6499">
        <ele>498.2</ele>
        <time>2021-09-27T11:30:13.000Z</time>
      </trkpt>
      <trkpt lat="45.76947" lon="4.64992">
        <ele>498.4</ele>
        <time>2021-09-27T11:30:14.000Z</time>
      </trkpt>
      <trkpt lat="45.76948" lon="4.64993">
        <ele>498.8</ele>
        <time>2021-09-27T11:30:15.000Z</time>
      </trkpt>
      <trkpt lat="45.76949" lon="4.64994">
        <ele>499</ele>
        <time>2021-09-27T11:30:16.000Z</time>
      </trkpt>
      <trkpt lat="45.7695" lon="4.64996">
        <ele>499.2</ele>
        <time>2021-09-27T11:30:17.000Z</time>
      </trkpt>
      <trkpt lat="45.76951" lon="4.64997">
        <ele>499.6</ele>
        <time>2021-09-27T11:30:18.000Z</time>
      </trkpt>
      <trkpt lat="45.76953" lon="4.64998">
        <ele>499.8</ele>
        <time>2021-09-27T11:30:19.000Z</time>
      </trkpt>
      <trkpt lat="45.76954" lon="4.64998">
        <ele>500.2</ele>
        <time>2021-09-27T11:30:20.000Z</time>
      </trkpt>
      <trkpt lat="45.76955" lon="4.64999">
        <ele>500.4</ele>
        <time>2021-09-27T11:30:21.000Z</time>
      </trkpt>
      <trkpt lat="45.76957" lon="4.64999">
        <ele>500.6</ele>
        <time>2021-09-27T11:30:22.000Z</time>
      </trkpt>
      <trkpt lat="45.76959" lon="4.64999">
        <ele>500.6</ele>
        <time>2021-09-27T11:30:23.000Z</time>
      </trkpt>
      <trkpt lat="45.7696" lon="4.65">
        <ele>500.8</ele>
        <time>2021-09-27T11:30:24.000Z</time>
      </trkpt>
      <trkpt lat="45.76961" lon="4.65">
        <ele>501</ele>
        <time>2021-09-27T11:30:25.000Z</time>
      </trkpt>
      <trkpt lat="45.76963" lon="4.65">
        <ele>501</ele>
        <time>2021-09-27T11:30:26.000Z</time>
      </trkpt>
      <trkpt lat="45.76964" lon="4.65">
        <ele>501.2</ele>
        <time>2021-09-27T11:30:27.000Z</time>
      </trkpt>
      <trkpt lat="45.76966" lon="4.65001">
        <ele>501.2</ele>
        <time>2021-09-27T11:30:28.000Z</time>
      </trkpt>
      <trkpt lat="45.76967" lon="4.65001">
        <ele>501.2</ele>
        <time>2021-09-27T11:30:29.000Z</time>
      </trkpt>
      <trkpt lat="45.76969" lon="4.65002">
        <ele>501.4</ele>
        <time>2021-09-27T11:30:30.000Z</time>
      </trkpt>
      <trkpt lat="45.7697" lon="4.65002">
        <ele>501.4</ele>
        <time>2021-09-27T11:30:31.000Z</time>
      </trkpt>
      <trkpt lat="45.76971" lon="4.65002">
        <ele>501.4</ele>
        <time>2021-09-27T11:30:32.000Z</time>
      </trkpt>
      <trkpt lat="45.76972" lon="4.65002">
        <ele>501.6</ele>
        <time>2021-09-27T11:30:33.000Z</time>
      </trkpt>
      <trkpt lat="45.76974" lon="4.65002">
        <ele>501.6</ele>
        <time>2021-09-27T11:30:34.000Z</time>
      </trkpt>
      <trkpt lat="45.76975" lon="4.65002">
        <ele>501.6</ele>
        <time>2021-09-27T11:30:35.000Z</time>
      </trkpt>
      <trkpt lat="45.76976" lon="4.65002">
        <ele>501.8</ele>
        <time>2021-09-27T11:30:36.000Z</time>
      </trkpt>
      <trkpt lat="45.76978" lon="4.65002">
        <ele>501.8</ele>
        <time>2021-09-27T11:30:37.000Z</time>
      </trkpt>
      <trkpt lat="45.7698" lon="4.65002">
        <ele>502.2</ele>
        <time>2021-09-27T11:30:39.000Z</time>
      </trkpt>
      <trkpt lat="45.76981" lon="4.65002">
        <ele>502.4</ele>
        <time>2021-09-27T11:30:40.000Z</time>
      </trkpt>
      <trkpt lat="45.76982" lon="4.65002">
        <ele>502.4</ele>
        <time>2021-09-27T11:30:41.000Z</time>
      </trkpt>
      <trkpt lat="45.76983" lon="4.65">
        <ele>502.6</ele>
        <time>2021-09-27T11:30:42.000Z</time>
      </trkpt>
      <trkpt lat="45.76983" lon="4.64998">
        <ele>503</ele>
        <time>2021-09-27T11:30:43.000Z</time>
      </trkpt>
      <trkpt lat="45.76983" lon="4.64997">
        <ele>503.2</ele>
        <time>2021-09-27T11:30:44.000Z</time>
      </trkpt>
      <trkpt lat="45.76983" lon="4.64995">
        <ele>503.4</ele>
        <time>2021-09-27T11:30:45.000Z</time>
      </trkpt>
      <trkpt lat="45.76982" lon="4.64993">
        <ele>503.4</ele>
        <time>2021-09-27T11:30:46.000Z</time>
      </trkpt>
      <trkpt lat="45.76982" lon="4.64992">
        <ele>503.6</ele>
        <time>2021-09-27T11:30:47.000Z</time>
      </trkpt>
      <trkpt lat="45.76981" lon="4.6499">
        <ele>503.8</ele>
        <time>2021-09-27T11:30:48.000Z</time>
      </trkpt>
      <trkpt lat="45.76982" lon="4.64988">
        <ele>504</ele>
        <time>2021-09-27T11:30:49.000Z</time>
      </trkpt>
      <trkpt lat="45.76982" lon="4.64987">
        <ele>504</ele>
        <time>2021-09-27T11:30:50.000Z</time>
      </trkpt>
      <trkpt lat="45.76982" lon="4.64985">
        <ele>504.2</ele>
        <time>2021-09-27T11:30:51.000Z</time>
      </trkpt>
      <trkpt lat="45.76982" lon="4.64983">
        <ele>504.2</ele>
        <time>2021-09-27T11:30:52.000Z</time>
      </trkpt>
      <trkpt lat="45.76981" lon="4.64982">
        <ele>504.4</ele>
        <time>2021-09-27T11:30:53.000Z</time>
      </trkpt>
      <trkpt lat="45.76981" lon="4.6498">
        <ele>504.6</ele>
        <time>2021-09-27T11:30:54.000Z</time>
      </trkpt>
      <trkpt lat="45.7698" lon="4.64978">
        <ele>504.8</ele>
        <time>2021-09-27T11:30:55.000Z</time>
      </trkpt>
      <trkpt lat="45.7698" lon="4.64977">
        <ele>505.2</ele>
        <time>2021-09-27T11:30:56.000Z</time>
      </trkpt>
      <trkpt lat="45.7698" lon="4.64975">
        <ele>505.4</ele>
        <time>2021-09-27T11:30:57.000Z</time>
      </trkpt>
      <trkpt lat="45.7698" lon="4.64973">
        <ele>505.6</ele>
        <time>2021-09-27T11:30:58.000Z</time>
      </trkpt>
      <trkpt lat="45.7698" lon="4.64972">
        <ele>505.8</ele>
        <time>2021-09-27T11:30:59.000Z</time>
      </trkpt>
      <trkpt lat="45.7698" lon="4.6497">
        <ele>506</ele>
        <time>2021-09-27T11:31:00.000Z</time>
      </trkpt>
      <trkpt lat="45.7698" lon="4.64968">
        <ele>506.4</ele>
        <time>2021-09-27T11:31:01.000Z</time>
      </trkpt>
      <trkpt lat="45.76979" lon="4.64967">
        <ele>506.6</ele>
        <time>2021-09-27T11:31:02.000Z</time>
      </trkpt>
      <trkpt lat="45.76978" lon="4.64966">
        <ele>506.8</ele>
        <time>2021-09-27T11:31:03.000Z</time>
      </trkpt>
      <trkpt lat="45.76978" lon="4.64964">
        <ele>507</ele>
        <time>2021-09-27T11:31:04.000Z</time>
      </trkpt>
      <trkpt lat="45.76977" lon="4.64962">
        <ele>507.2</ele>
        <time>2021-09-27T11:31:05.000Z</time>
      </trkpt>
      <trkpt lat="45.76977" lon="4.6496">
        <ele>507.4</ele>
        <time>2021-09-27T11:31:06.000Z</time>
      </trkpt>
      <trkpt lat="45.76978" lon="4.64958">
        <ele>507.6</ele>
        <time>2021-09-27T11:31:07.000Z</time>
      </trkpt>
      <trkpt lat="45.76979" lon="4.64957">
        <ele>507.8</ele>
        <time>2021-09-27T11:31:08.000Z</time>
      </trkpt>
      <trkpt lat="45.76979" lon="4.64955">
        <ele>508</ele>
        <time>2021-09-27T11:31:09.000Z</time>
      </trkpt>
      <trkpt lat="45.7698" lon="4.64953">
        <ele>508.4</ele>
        <time>2021-09-27T11:31:10.000Z</time>
      </trkpt>
      <trkpt lat="45.7698" lon="4.64952">
        <ele>508.4</ele>
        <time>2021-09-27T11:31:11.000Z</time>
      </trkpt>
      <trkpt lat="45.76981" lon="4.64951">
        <ele>508.6</ele>
        <time>2021-09-27T11:31:12.000Z</time>
      </trkpt>
      <trkpt lat="45.76981" lon="4.64949">
        <ele>508.6</ele>
        <time>2021-09-27T11:31:13.000Z</time>
      </trkpt>
      <trkpt lat="45.76982" lon="4.64947">
        <ele>508.8</ele>
        <time>2021-09-27T11:31:14.000Z</time>
      </trkpt>
      <trkpt lat="45.76982" lon="4.64945">
        <ele>508.8</ele>
        <time>2021-09-27T11:31:15.000Z</time>
      </trkpt>
      <trkpt lat="45.76983" lon="4.64943">
        <ele>508.8</ele>
        <time>2021-09-27T11:31:16.000Z</time>
      </trkpt>
      <trkpt lat="45.76984" lon="4.64942">
        <ele>509</ele>
        <time>2021-09-27T11:31:17.000Z</time>
      </trkpt>
      <trkpt lat="45.76984" lon="4.6494">
        <ele>509.2</ele>
        <time>2021-09-27T11:31:18.000Z</time>
      </trkpt>
      <trkpt lat="45.76984" lon="4.64938">
        <ele>509.4</ele>
        <time>2021-09-27T11:31:19.000Z</time>
      </trkpt>
      <trkpt lat="45.76984" lon="4.64937">
        <ele>509.6</ele>
        <time>2021-09-27T11:31:20.000Z</time>
      </trkpt>
      <trkpt lat="45.76984" lon="4.64935">
        <ele>509.8</ele>
        <time>2021-09-27T11:31:21.000Z</time>
      </trkpt>
      <trkpt lat="45.76984" lon="4.64934">
        <ele>510</ele>
        <time>2021-09-27T11:31:22.000Z</time>
      </trkpt>
      <trkpt lat="45.76985" lon="4.64932">
        <ele>510.2</ele>
        <time>2021-09-27T11:31:23.000Z</time>
      </trkpt>
      <trkpt lat="45.76985" lon="4.64931">
        <ele>510.4</ele>
        <time>2021-09-27T11:31:24.000Z</time>
      </trkpt>
      <trkpt lat="45.76984" lon="4.64929">
        <ele>510.6</ele>
        <time>2021-09-27T11:31:25.000Z</time>
      </trkpt>
      <trkpt lat="45.76984" lon="4.64928">
        <ele>510.8</ele>
        <time>2021-09-27T11:31:26.000Z</time>
      </trkpt>
      <trkpt lat="45.76984" lon="4.64927">
        <ele>511</ele>
        <time>2021-09-27T11:31:27.000Z</time>
      </trkpt>
      <trkpt lat="45.76984" lon="4.64926">
        <ele>511.2</ele>
        <time>2021-09-27T11:31:28.000Z</time>
      </trkpt>
      <trkpt lat="45.76983" lon="4.64924">
        <ele>511.2</ele>
        <time>2021-09-27T11:31:29.000Z</time>
      </trkpt>
      <trkpt lat="45.76983" lon="4.64923">
        <ele>511.4</ele>
        <time>2021-09-27T11:31:30.000Z</time>
      </trkpt>
      <trkpt lat="45.76982" lon="4.64922">
        <ele>511.8</ele>
        <time>2021-09-27T11:31:31.000Z</time>
      </trkpt>
      <trkpt lat="45.76982" lon="4.64921">
        <ele>512</ele>
        <time>2021-09-27T11:31:32.000Z</time>
      </trkpt>
      <trkpt lat="45.76982" lon="4.6492">
        <ele>512.2</ele>
        <time>2021-09-27T11:31:33.000Z</time>
      </trkpt>
      <trkpt lat="45.76982" lon="4.64919">
        <ele>512</ele>
        <time>2021-09-27T11:31:34.000Z</time>
      </trkpt>
      <trkpt lat="45.76982" lon="4.64917">
        <ele>512.4</ele>
        <time>2021-09-27T11:31:35.000Z</time>
      </trkpt>
      <trkpt lat="45.76981" lon="4.64916">
        <ele>512.4</ele>
        <time>2021-09-27T11:31:36.000Z</time>
      </trkpt>
      <trkpt lat="45.76981" lon="4.64915">
        <ele>512.4</ele>
        <time>2021-09-27T11:31:37.000Z</time>
      </trkpt>
      <trkpt lat="45.7698" lon="4.64914">
        <ele>512.6</ele>
        <time>2021-09-27T11:31:38.000Z</time>
      </trkpt>
      <trkpt lat="45.7698" lon="4.64913">
        <ele>512.6</ele>
        <time>2021-09-27T11:31:39.000Z</time>
      </trkpt>
      <trkpt lat="45.7698" lon="4.64912">
        <ele>512.6</ele>
        <time>2021-09-27T11:31:40.000Z</time>
      </trkpt>
      <trkpt lat="45.76979" lon="4.64911">
        <ele>512.8</ele>
        <time>2021-09-27T11:31:41.000Z</time>
      </trkpt>
      <trkpt lat="45.76979" lon="4.6491">
        <ele>513</ele>
        <time>2021-09-27T11:31:42.000Z</time>
      </trkpt>
      <trkpt lat="45.76978" lon="4.64908">
        <ele>513</ele>
        <time>2021-09-27T11:31:43.000Z</time>
      </trkpt>
      <trkpt lat="45.76978" lon="4.64907">
        <ele>513.2</ele>
        <time>2021-09-27T11:31:44.000Z</time>
      </trkpt>
      <trkpt lat="45.76978" lon="4.64906">
        <ele>513.4</ele>
        <time>2021-09-27T11:31:45.000Z</time>
      </trkpt>
      <trkpt lat="45.76978" lon="4.64904">
        <ele>513.6</ele>
        <time>2021-09-27T11:31:46.000Z</time>
      </trkpt>
      <trkpt lat="45.76978" lon="4.64903">
        <ele>513.8</ele>
        <time>2021-09-27T11:31:47.000Z</time>
      </trkpt>
      <trkpt lat="45.76977" lon="4.64901">
        <ele>514</ele>
        <time>2021-09-27T11:31:48.000Z</time>
      </trkpt>
      <trkpt lat="45.76976" lon="4.649">
        <ele>514</ele>
        <time>2021-09-27T11:31:49.000Z</time>
      </trkpt>
      <trkpt lat="45.76975" lon="4.64899">
        <ele>514.2</ele>
        <time>2021-09-27T11:31:50.000Z</time>
      </trkpt>
      <trkpt lat="45.76975" lon="4.64897">
        <ele>514.2</ele>
        <time>2021-09-27T11:31:51.000Z</time>
      </trkpt>
      <trkpt lat="45.76974" lon="4.64896">
        <ele>514.4</ele>
        <time>2021-09-27T11:31:52.000Z</time>
      </trkpt>
      <trkpt lat="45.76974" lon="4.64895">
        <ele>514.6</ele>
        <time>2021-09-27T11:31:53.000Z</time>
      </trkpt>
      <trkpt lat="45.76974" lon="4.64894">
        <ele>514.8</ele>
        <time>2021-09-27T11:31:54.000Z</time>
      </trkpt>
      <trkpt lat="45.76974" lon="4.64892">
        <ele>515</ele>
        <time>2021-09-27T11:31:55.000Z</time>
      </trkpt>
      <trkpt lat="45.76973" lon="4.64891">
        <ele>515.2</ele>
        <time>2021-09-27T11:31:56.000Z</time>
      </trkpt>
      <trkpt lat="45.76974" lon="4.6489">
        <ele>515.4</ele>
        <time>2021-09-27T11:31:57.000Z</time>
      </trkpt>
      <trkpt lat="45.76974" lon="4.64889">
        <ele>515.6</ele>
        <time>2021-09-27T11:31:58.000Z</time>
      </trkpt>
      <trkpt lat="45.76974" lon="4.64887">
        <ele>515.8</ele>
        <time>2021-09-27T11:31:59.000Z</time>
      </trkpt>
      <trkpt lat="45.76975" lon="4.64887">
        <ele>516</ele>
        <time>2021-09-27T11:32:00.000Z</time>
      </trkpt>
      <trkpt lat="45.76976" lon="4.64887">
        <ele>516.2</ele>
        <time>2021-09-27T11:32:01.000Z</time>
      </trkpt>
      <trkpt lat="45.76977" lon="4.64887">
        <ele>516.6</ele>
        <time>2021-09-27T11:32:03.000Z</time>
      </trkpt>
      <trkpt lat="45.76977" lon="4.64886">
        <ele>516.6</ele>
        <time>2021-09-27T11:32:04.000Z</time>
      </trkpt>
      <trkpt lat="45.76978" lon="4.64885">
        <ele>516.8</ele>
        <time>2021-09-27T11:32:05.000Z</time>
      </trkpt>
      <trkpt lat="45.76978" lon="4.64883">
        <ele>517</ele>
        <time>2021-09-27T11:32:06.000Z</time>
      </trkpt>
      <trkpt lat="45.76977" lon="4.64882">
        <ele>517.2</ele>
        <time>2021-09-27T11:32:07.000Z</time>
      </trkpt>
      <trkpt lat="45.76976" lon="4.64882">
        <ele>517.2</ele>
        <time>2021-09-27T11:32:08.000Z</time>
      </trkpt>
      <trkpt lat="45.76975" lon="4.64881">
        <ele>517.4</ele>
        <time>2021-09-27T11:32:09.000Z</time>
      </trkpt>
      <trkpt lat="45.76973" lon="4.64879">
        <ele>517.4</ele>
        <time>2021-09-27T11:32:10.000Z</time>
      </trkpt>
      <trkpt lat="45.76973" lon="4.64877">
        <ele>517.4</ele>
        <time>2021-09-27T11:32:11.000Z</time>
      </trkpt>
      <trkpt lat="45.76972" lon="4.64875">
        <ele>517.6</ele>
        <time>2021-09-27T11:32:12.000Z</time>
      </trkpt>
      <trkpt lat="45.76972" lon="4.64873">
        <ele>517.6</ele>
        <time>2021-09-27T11:32:13.000Z</time>
      </trkpt>
      <trkpt lat="45.76972" lon="4.64871">
        <ele>517.6</ele>
        <time>2021-09-27T11:32:14.000Z</time>
      </trkpt>
      <trkpt lat="45.76972" lon="4.6487">
        <ele>517.6</ele>
        <time>2021-09-27T11:32:15.000Z</time>
      </trkpt>
      <trkpt lat="45.76972" lon="4.64869">
        <ele>517.6</ele>
        <time>2021-09-27T11:32:16.000Z</time>
      </trkpt>
      <trkpt lat="45.76971" lon="4.64867">
        <ele>517.6</ele>
        <time>2021-09-27T11:32:17.000Z</time>
      </trkpt>
      <trkpt lat="45.76971" lon="4.64866">
        <ele>517.8</ele>
        <time>2021-09-27T11:32:18.000Z</time>
      </trkpt>
      <trkpt lat="45.7697" lon="4.64864">
        <ele>517.8</ele>
        <time>2021-09-27T11:32:19.000Z</time>
      </trkpt>
      <trkpt lat="45.7697" lon="4.64863">
        <ele>517.8</ele>
        <time>2021-09-27T11:32:20.000Z</time>
      </trkpt>
      <trkpt lat="45.7697" lon="4.64861">
        <ele>518</ele>
        <time>2021-09-27T11:32:21.000Z</time>
      </trkpt>
      <trkpt lat="45.7697" lon="4.6486">
        <ele>518.2</ele>
        <time>2021-09-27T11:32:22.000Z</time>
      </trkpt>
      <trkpt lat="45.7697" lon="4.64859">
        <ele>518.4</ele>
        <time>2021-09-27T11:32:23.000Z</time>
      </trkpt>
      <trkpt lat="45.7697" lon="4.64857">
        <ele>518.4</ele>
        <time>2021-09-27T11:32:24.000Z</time>
      </trkpt>
      <trkpt lat="45.76969" lon="4.64855">
        <ele>518.6</ele>
        <time>2021-09-27T11:32:25.000Z</time>
      </trkpt>
      <trkpt lat="45.76969" lon="4.64853">
        <ele>518.8</ele>
        <time>2021-09-27T11:32:26.000Z</time>
      </trkpt>
      <trkpt lat="45.76969" lon="4.64852">
        <ele>519</ele>
        <time>2021-09-27T11:32:27.000Z</time>
      </trkpt>
      <trkpt lat="45.76969" lon="4.6485">
        <ele>519</ele>
        <time>2021-09-27T11:32:28.000Z</time>
      </trkpt>
      <trkpt lat="45.76968" lon="4.64849">
        <ele>519.2</ele>
        <time>2021-09-27T11:32:29.000Z</time>
      </trkpt>
      <trkpt lat="45.76968" lon="4.64847">
        <ele>519.4</ele>
        <time>2021-09-27T11:32:30.000Z</time>
      </trkpt>
      <trkpt lat="45.76968" lon="4.64846">
        <ele>519.6</ele>
        <time>2021-09-27T11:32:31.000Z</time>
      </trkpt>
      <trkpt lat="45.76967" lon="4.64844">
        <ele>520</ele>
        <time>2021-09-27T11:32:32.000Z</time>
      </trkpt>
      <trkpt lat="45.76966" lon="4.64842">
        <ele>520</ele>
        <time>2021-09-27T11:32:33.000Z</time>
      </trkpt>
      <trkpt lat="45.76966" lon="4.64841">
        <ele>520.4</ele>
        <time>2021-09-27T11:32:34.000Z</time>
      </trkpt>
      <trkpt lat="45.76965" lon="4.64839">
        <ele>520.6</ele>
        <time>2021-09-27T11:32:35.000Z</time>
      </trkpt>
      <trkpt lat="45.76965" lon="4.64837">
        <ele>520.8</ele>
        <time>2021-09-27T11:32:36.000Z</time>
      </trkpt>
      <trkpt lat="45.76965" lon="4.64835">
        <ele>521</ele>
        <time>2021-09-27T11:32:37.000Z</time>
      </trkpt>
      <trkpt lat="45.76964" lon="4.64834">
        <ele>521.2</ele>
        <time>2021-09-27T11:32:38.000Z</time>
      </trkpt>
      <trkpt lat="45.76964" lon="4.64833">
        <ele>521.4</ele>
        <time>2021-09-27T11:32:39.000Z</time>
      </trkpt>
      <trkpt lat="45.76963" lon="4.64831">
        <ele>521.8</ele>
        <time>2021-09-27T11:32:40.000Z</time>
      </trkpt>
      <trkpt lat="45.76963" lon="4.64829">
        <ele>522.2</ele>
        <time>2021-09-27T11:32:41.000Z</time>
      </trkpt>
      <trkpt lat="45.76962" lon="4.64828">
        <ele>522.4</ele>
        <time>2021-09-27T11:32:42.000Z</time>
      </trkpt>
      <trkpt lat="45.76961" lon="4.64826">
        <ele>522.8</ele>
        <time>2021-09-27T11:32:43.000Z</time>
      </trkpt>
      <trkpt lat="45.7696" lon="4.64824">
        <ele>523</ele>
        <time>2021-09-27T11:32:44.000Z</time>
      </trkpt>
      <trkpt lat="45.76959" lon="4.64823">
        <ele>523.4</ele>
        <time>2021-09-27T11:32:45.000Z</time>
      </trkpt>
      <trkpt lat="45.76959" lon="4.64821">
        <ele>523.8</ele>
        <time>2021-09-27T11:32:46.000Z</time>
      </trkpt>
      <trkpt lat="45.76958" lon="4.6482">
        <ele>524</ele>
        <time>2021-09-27T11:32:47.000Z</time>
      </trkpt>
      <trkpt lat="45.76957" lon="4.64818">
        <ele>524.2</ele>
        <time>2021-09-27T11:32:48.000Z</time>
      </trkpt>
      <trkpt lat="45.76957" lon="4.64817">
        <ele>524.6</ele>
        <time>2021-09-27T11:32:49.000Z</time>
      </trkpt>
      <trkpt lat="45.76956" lon="4.64815">
        <ele>524.8</ele>
        <time>2021-09-27T11:32:50.000Z</time>
      </trkpt>
      <trkpt lat="45.76955" lon="4.64814">
        <ele>525</ele>
        <time>2021-09-27T11:32:51.000Z</time>
      </trkpt>
      <trkpt lat="45.76954" lon="4.64812">
        <ele>525</ele>
        <time>2021-09-27T11:32:52.000Z</time>
      </trkpt>
      <trkpt lat="45.76954" lon="4.6481">
        <ele>525.2</ele>
        <time>2021-09-27T11:32:53.000Z</time>
      </trkpt>
      <trkpt lat="45.76953" lon="4.64809">
        <ele>525.4</ele>
        <time>2021-09-27T11:32:54.000Z</time>
      </trkpt>
      <trkpt lat="45.76952" lon="4.64807">
        <ele>525.6</ele>
        <time>2021-09-27T11:32:55.000Z</time>
      </trkpt>
      <trkpt lat="45.76952" lon="4.64805">
        <ele>525.8</ele>
        <time>2021-09-27T11:32:56.000Z</time>
      </trkpt>
      <trkpt lat="45.76951" lon="4.64804">
        <ele>526</ele>
        <time>2021-09-27T11:32:57.000Z</time>
      </trkpt>
      <trkpt lat="45.7695" lon="4.64802">
        <ele>526.4</ele>
        <time>2021-09-27T11:32:58.000Z</time>
      </trkpt>
      <trkpt lat="45.7695" lon="4.648">
        <ele>526.2</ele>
        <time>2021-09-27T11:32:59.000Z</time>
      </trkpt>
      <trkpt lat="45.76949" lon="4.64798">
        <ele>526.6</ele>
        <time>2021-09-27T11:33:00.000Z</time>
      </trkpt>
      <trkpt lat="45.76948" lon="4.64797">
        <ele>526.8</ele>
        <time>2021-09-27T11:33:01.000Z</time>
      </trkpt>
      <trkpt lat="45.76947" lon="4.64795">
        <ele>527</ele>
        <time>2021-09-27T11:33:02.000Z</time>
      </trkpt>
      <trkpt lat="45.76946" lon="4.64794">
        <ele>527.4</ele>
        <time>2021-09-27T11:33:03.000Z</time>
      </trkpt>
      <trkpt lat="45.76945" lon="4.64792">
        <ele>527.8</ele>
        <time>2021-09-27T11:33:04.000Z</time>
      </trkpt>
      <trkpt lat="45.76945" lon="4.64791">
        <ele>527.8</ele>
        <time>2021-09-27T11:33:05.000Z</time>
      </trkpt>
      <trkpt lat="45.76944" lon="4.64789">
        <ele>528</ele>
        <time>2021-09-27T11:33:06.000Z</time>
      </trkpt>
      <trkpt lat="45.76943" lon="4.64787">
        <ele>528.4</ele>
        <time>2021-09-27T11:33:07.000Z</time>
      </trkpt>
      <trkpt lat="45.76942" lon="4.64785">
        <ele>528.6</ele>
        <time>2021-09-27T11:33:08.000Z</time>
      </trkpt>
      <trkpt lat="45.76942" lon="4.64784">
        <ele>529</ele>
        <time>2021-09-27T11:33:09.000Z</time>
      </trkpt>
      <trkpt lat="45.76941" lon="4.64782">
        <ele>529.2</ele>
        <time>2021-09-27T11:33:10.000Z</time>
      </trkpt>
      <trkpt lat="45.76941" lon="4.64781">
        <ele>529.4</ele>
        <time>2021-09-27T11:33:11.000Z</time>
      </trkpt>
      <trkpt lat="45.7694" lon="4.64779">
        <ele>529.6</ele>
        <time>2021-09-27T11:33:12.000Z</time>
      </trkpt>
      <trkpt lat="45.7694" lon="4.64778">
        <ele>529.8</ele>
        <time>2021-09-27T11:33:13.000Z</time>
      </trkpt>
      <trkpt lat="45.76939" lon="4.64776">
        <ele>530.2</ele>
        <time>2021-09-27T11:33:14.000Z</time>
      </trkpt>
      <trkpt lat="45.76939" lon="4.64773">
        <ele>530.4</ele>
        <time>2021-09-27T11:33:15.000Z</time>
      </trkpt>
      <trkpt lat="45.76939" lon="4.64772">
        <ele>530.4</ele>
        <time>2021-09-27T11:33:16.000Z</time>
      </trkpt>
      <trkpt lat="45.76939" lon="4.6477">
        <ele>530.6</ele>
        <time>2021-09-27T11:33:17.000Z</time>
      </trkpt>
      <trkpt lat="45.76939" lon="4.64768">
        <ele>530.8</ele>
        <time>2021-09-27T11:33:18.000Z</time>
      </trkpt>
      <trkpt lat="45.7694" lon="4.64766">
        <ele>531</ele>
        <time>2021-09-27T11:33:19.000Z</time>
      </trkpt>
      <trkpt lat="45.7694" lon="4.64764">
        <ele>531.2</ele>
        <time>2021-09-27T11:33:20.000Z</time>
      </trkpt>
      <trkpt lat="45.76941" lon="4.64762">
        <ele>531.4</ele>
        <time>2021-09-27T11:33:21.000Z</time>
      </trkpt>
      <trkpt lat="45.76941" lon="4.64761">
        <ele>531.8</ele>
        <time>2021-09-27T11:33:22.000Z</time>
      </trkpt>
      <trkpt lat="45.76943" lon="4.64759">
        <ele>532</ele>
        <time>2021-09-27T11:33:23.000Z</time>
      </trkpt>
      <trkpt lat="45.76944" lon="4.64757">
        <ele>532.2</ele>
        <time>2021-09-27T11:33:24.000Z</time>
      </trkpt>
      <trkpt lat="45.76944" lon="4.64756">
        <ele>532.6</ele>
        <time>2021-09-27T11:33:25.000Z</time>
      </trkpt>
      <trkpt lat="45.76945" lon="4.64755">
        <ele>532.8</ele>
        <time>2021-09-27T11:33:26.000Z</time>
      </trkpt>
      <trkpt lat="45.76946" lon="4.64753">
        <ele>533.2</ele>
        <time>2021-09-27T11:33:27.000Z</time>
      </trkpt>
      <trkpt lat="45.76947" lon="4.64751">
        <ele>533.4</ele>
        <time>2021-09-27T11:33:28.000Z</time>
      </trkpt>
      <trkpt lat="45.76948" lon="4.6475">
        <ele>533.6</ele>
        <time>2021-09-27T11:33:29.000Z</time>
      </trkpt>
      <trkpt lat="45.76948" lon="4.64749">
        <ele>533.6</ele>
        <time>2021-09-27T11:33:30.000Z</time>
      </trkpt>
      <trkpt lat="45.76949" lon="4.64747">
        <ele>534</ele>
        <time>2021-09-27T11:33:31.000Z</time>
      </trkpt>
      <trkpt lat="45.7695" lon="4.64745">
        <ele>534</ele>
        <time>2021-09-27T11:33:32.000Z</time>
      </trkpt>
      <trkpt lat="45.76951" lon="4.64743">
        <ele>534.2</ele>
        <time>2021-09-27T11:33:33.000Z</time>
      </trkpt>
      <trkpt lat="45.76952" lon="4.64742">
        <ele>534.4</ele>
        <time>2021-09-27T11:33:34.000Z</time>
      </trkpt>
      <trkpt lat="45.76953" lon="4.64739">
        <ele>534.6</ele>
        <time>2021-09-27T11:33:35.000Z</time>
      </trkpt>
      <trkpt lat="45.76953" lon="4.64738">
        <ele>534.8</ele>
        <time>2021-09-27T11:33:36.000Z</time>
      </trkpt>
      <trkpt lat="45.76954" lon="4.64736">
        <ele>535</ele>
        <time>2021-09-27T11:33:37.000Z</time>
      </trkpt>
      <trkpt lat="45.76955" lon="4.64735">
        <ele>535.2</ele>
        <time>2021-09-27T11:33:38.000Z</time>
      </trkpt>
      <trkpt lat="45.76956" lon="4.64733">
        <ele>535.2</ele>
        <time>2021-09-27T11:33:39.000Z</time>
      </trkpt>
      <trkpt lat="45.76957" lon="4.64731">
        <ele>535.2</ele>
        <time>2021-09-27T11:33:40.000Z</time>
      </trkpt>
      <trkpt lat="45.76957" lon="4.6473">
        <ele>535.4</ele>
        <time>2021-09-27T11:33:41.000Z</time>
      </trkpt>
      <trkpt lat="45.76958" lon="4.64728">
        <ele>535.4</ele>
        <time>2021-09-27T11:33:42.000Z</time>
      </trkpt>
      <trkpt lat="45.76959" lon="4.64726">
        <ele>535.6</ele>
        <time>2021-09-27T11:33:43.000Z</time>
      </trkpt>
      <trkpt lat="45.7696" lon="4.64725">
        <ele>535.8</ele>
        <time>2021-09-27T11:33:44.000Z</time>
      </trkpt>
      <trkpt lat="45.7696" lon="4.64723">
        <ele>535.8</ele>
        <time>2021-09-27T11:33:45.000Z</time>
      </trkpt>
      <trkpt lat="45.76961" lon="4.64722">
        <ele>536</ele>
        <time>2021-09-27T11:33:46.000Z</time>
      </trkpt>
      <trkpt lat="45.76962" lon="4.6472">
        <ele>536.2</ele>
        <time>2021-09-27T11:33:47.000Z</time>
      </trkpt>
      <trkpt lat="45.76963" lon="4.64718">
        <ele>536.4</ele>
        <time>2021-09-27T11:33:48.000Z</time>
      </trkpt>
      <trkpt lat="45.76964" lon="4.64717">
        <ele>536.6</ele>
        <time>2021-09-27T11:33:49.000Z</time>
      </trkpt>
      <trkpt lat="45.76964" lon="4.64715">
        <ele>536.8</ele>
        <time>2021-09-27T11:33:50.000Z</time>
      </trkpt>
      <trkpt lat="45.76965" lon="4.64713">
        <ele>537</ele>
        <time>2021-09-27T11:33:51.000Z</time>
      </trkpt>
      <trkpt lat="45.76966" lon="4.64711">
        <ele>537.2</ele>
        <time>2021-09-27T11:33:52.000Z</time>
      </trkpt>
      <trkpt lat="45.76967" lon="4.6471">
        <ele>537.2</ele>
        <time>2021-09-27T11:33:53.000Z</time>
      </trkpt>
      <trkpt lat="45.76967" lon="4.64708">
        <ele>537.4</ele>
        <time>2021-09-27T11:33:54.000Z</time>
      </trkpt>
      <trkpt lat="45.76967" lon="4.64707">
        <ele>537.6</ele>
        <time>2021-09-27T11:33:55.000Z</time>
      </trkpt>
      <trkpt lat="45.76968" lon="4.64706">
        <ele>537.8</ele>
        <time>2021-09-27T11:33:56.000Z</time>
      </trkpt>
      <trkpt lat="45.76968" lon="4.64704">
        <ele>538</ele>
        <time>2021-09-27T11:33:57.000Z</time>
      </trkpt>
      <trkpt lat="45.76969" lon="4.64702">
        <ele>538</ele>
        <time>2021-09-27T11:33:58.000Z</time>
      </trkpt>
      <trkpt lat="45.7697" lon="4.647">
        <ele>538.2</ele>
        <time>2021-09-27T11:33:59.000Z</time>
      </trkpt>
      <trkpt lat="45.76971" lon="4.64698">
        <ele>538.4</ele>
        <time>2021-09-27T11:34:00.000Z</time>
      </trkpt>
      <trkpt lat="45.76972" lon="4.64696">
        <ele>538.6</ele>
        <time>2021-09-27T11:34:01.000Z</time>
      </trkpt>
      <trkpt lat="45.76973" lon="4.64693">
        <ele>538.8</ele>
        <time>2021-09-27T11:34:02.000Z</time>
      </trkpt>
      <trkpt lat="45.76974" lon="4.64691">
        <ele>539</ele>
        <time>2021-09-27T11:34:03.000Z</time>
      </trkpt>
      <trkpt lat="45.76974" lon="4.64689">
        <ele>539</ele>
        <time>2021-09-27T11:34:04.000Z</time>
      </trkpt>
      <trkpt lat="45.76975" lon="4.64688">
        <ele>539</ele>
        <time>2021-09-27T11:34:05.000Z</time>
      </trkpt>
      <trkpt lat="45.76976" lon="4.64687">
        <ele>539.2</ele>
        <time>2021-09-27T11:34:06.000Z</time>
      </trkpt>
      <trkpt lat="45.76976" lon="4.64685">
        <ele>539.4</ele>
        <time>2021-09-27T11:34:07.000Z</time>
      </trkpt>
      <trkpt lat="45.76977" lon="4.64683">
        <ele>539.4</ele>
        <time>2021-09-27T11:34:08.000Z</time>
      </trkpt>
      <trkpt lat="45.76977" lon="4.64681">
        <ele>539.6</ele>
        <time>2021-09-27T11:34:09.000Z</time>
      </trkpt>
      <trkpt lat="45.76978" lon="4.6468">
        <ele>539.6</ele>
        <time>2021-09-27T11:34:10.000Z</time>
      </trkpt>
      <trkpt lat="45.76979" lon="4.64677">
        <ele>539.8</ele>
        <time>2021-09-27T11:34:11.000Z</time>
      </trkpt>
      <trkpt lat="45.7698" lon="4.64676">
        <ele>540</ele>
        <time>2021-09-27T11:34:12.000Z</time>
      </trkpt>
      <trkpt lat="45.76982" lon="4.64674">
        <ele>540.2</ele>
        <time>2021-09-27T11:34:13.000Z</time>
      </trkpt>
      <trkpt lat="45.76983" lon="4.64672">
        <ele>540.4</ele>
        <time>2021-09-27T11:34:14.000Z</time>
      </trkpt>
      <trkpt lat="45.76984" lon="4.6467">
        <ele>540.6</ele>
        <time>2021-09-27T11:34:15.000Z</time>
      </trkpt>
      <trkpt lat="45.76985" lon="4.64668">
        <ele>540.8</ele>
        <time>2021-09-27T11:34:16.000Z</time>
      </trkpt>
      <trkpt lat="45.76986" lon="4.64666">
        <ele>541</ele>
        <time>2021-09-27T11:34:17.000Z</time>
      </trkpt>
      <trkpt lat="45.76987" lon="4.64664">
        <ele>541.2</ele>
        <time>2021-09-27T11:34:18.000Z</time>
      </trkpt>
      <trkpt lat="45.76988" lon="4.64662">
        <ele>541.2</ele>
        <time>2021-09-27T11:34:19.000Z</time>
      </trkpt>
      <trkpt lat="45.76989" lon="4.6466">
        <ele>541.4</ele>
        <time>2021-09-27T11:34:20.000Z</time>
      </trkpt>
      <trkpt lat="45.7699" lon="4.64658">
        <ele>541.6</ele>
        <time>2021-09-27T11:34:21.000Z</time>
      </trkpt>
      <trkpt lat="45.76992" lon="4.64655">
        <ele>541.8</ele>
        <time>2021-09-27T11:34:22.000Z</time>
      </trkpt>
      <trkpt lat="45.76993" lon="4.64653">
        <ele>541.8</ele>
        <time>2021-09-27T11:34:23.000Z</time>
      </trkpt>
      <trkpt lat="45.76994" lon="4.64651">
        <ele>542</ele>
        <time>2021-09-27T11:34:24.000Z</time>
      </trkpt>
      <trkpt lat="45.76995" lon="4.6465">
        <ele>542.2</ele>
        <time>2021-09-27T11:34:25.000Z</time>
      </trkpt>
      <trkpt lat="45.76997" lon="4.64648">
        <ele>542</ele>
        <time>2021-09-27T11:34:26.000Z</time>
      </trkpt>
      <trkpt lat="45.76998" lon="4.64647">
        <ele>542.2</ele>
        <time>2021-09-27T11:34:27.000Z</time>
      </trkpt>
      <trkpt lat="45.76999" lon="4.64646">
        <ele>542.2</ele>
        <time>2021-09-27T11:34:28.000Z</time>
      </trkpt>
      <trkpt lat="45.77" lon="4.64644">
        <ele>542.4</ele>
        <time>2021-09-27T11:34:29.000Z</time>
      </trkpt>
      <trkpt lat="45.77001" lon="4.64643">
        <ele>542.6</ele>
        <time>2021-09-27T11:34:30.000Z</time>
      </trkpt>
      <trkpt lat="45.77002" lon="4.64642">
        <ele>542.8</ele>
        <time>2021-09-27T11:34:31.000Z</time>
      </trkpt>
      <trkpt lat="45.77003" lon="4.6464">
        <ele>542.8</ele>
        <time>2021-09-27T11:34:32.000Z</time>
      </trkpt>
      <trkpt lat="45.77004" lon="4.64638">
        <ele>543</ele>
        <time>2021-09-27T11:34:33.000Z</time>
      </trkpt>
      <trkpt lat="45.77004" lon="4.64637">
        <ele>543.2</ele>
        <time>2021-09-27T11:34:34.000Z</time>
      </trkpt>
      <trkpt lat="45.77005" lon="4.64634">
        <ele>543.6</ele>
        <time>2021-09-27T11:34:35.000Z</time>
      </trkpt>
      <trkpt lat="45.77005" lon="4.64633">
        <ele>543.6</ele>
        <time>2021-09-27T11:34:36.000Z</time>
      </trkpt>
      <trkpt lat="45.77006" lon="4.64631">
        <ele>544</ele>
        <time>2021-09-27T11:34:37.000Z</time>
      </trkpt>
      <trkpt lat="45.77006" lon="4.6463">
        <ele>544.2</ele>
        <time>2021-09-27T11:34:38.000Z</time>
      </trkpt>
      <trkpt lat="45.77007" lon="4.64629">
        <ele>544.4</ele>
        <time>2021-09-27T11:34:39.000Z</time>
      </trkpt>
      <trkpt lat="45.77008" lon="4.64627">
        <ele>544.6</ele>
        <time>2021-09-27T11:34:40.000Z</time>
      </trkpt>
      <trkpt lat="45.77009" lon="4.64626">
        <ele>544.8</ele>
        <time>2021-09-27T11:34:41.000Z</time>
      </trkpt>
      <trkpt lat="45.7701" lon="4.64624">
        <ele>545</ele>
        <time>2021-09-27T11:34:42.000Z</time>
      </trkpt>
      <trkpt lat="45.77011" lon="4.64623">
        <ele>545.4</ele>
        <time>2021-09-27T11:34:43.000Z</time>
      </trkpt>
      <trkpt lat="45.77012" lon="4.64622">
        <ele>545.6</ele>
        <time>2021-09-27T11:34:44.000Z</time>
      </trkpt>
      <trkpt lat="45.77012" lon="4.6462">
        <ele>545.8</ele>
        <time>2021-09-27T11:34:45.000Z</time>
      </trkpt>
      <trkpt lat="45.77013" lon="4.64619">
        <ele>545.8</ele>
        <time>2021-09-27T11:34:46.000Z</time>
      </trkpt>
      <trkpt lat="45.77014" lon="4.64617">
        <ele>546</ele>
        <time>2021-09-27T11:34:47.000Z</time>
      </trkpt>
      <trkpt lat="45.77014" lon="4.64616">
        <ele>546.2</ele>
        <time>2021-09-27T11:34:48.000Z</time>
      </trkpt>
      <trkpt lat="45.77015" lon="4.64615">
        <ele>546.4</ele>
        <time>2021-09-27T11:34:49.000Z</time>
      </trkpt>
      <trkpt lat="45.77016" lon="4.64613">
        <ele>546.6</ele>
        <time>2021-09-27T11:34:50.000Z</time>
      </trkpt>
      <trkpt lat="45.77017" lon="4.64612">
        <ele>546.8</ele>
        <time>2021-09-27T11:34:51.000Z</time>
      </trkpt>
      <trkpt lat="45.77017" lon="4.6461">
        <ele>546.8</ele>
        <time>2021-09-27T11:34:52.000Z</time>
      </trkpt>
      <trkpt lat="45.77018" lon="4.64609">
        <ele>547</ele>
        <time>2021-09-27T11:34:53.000Z</time>
      </trkpt>
      <trkpt lat="45.77019" lon="4.64608">
        <ele>547.4</ele>
        <time>2021-09-27T11:34:54.000Z</time>
      </trkpt>
      <trkpt lat="45.77019" lon="4.64606">
        <ele>547.6</ele>
        <time>2021-09-27T11:34:55.000Z</time>
      </trkpt>
      <trkpt lat="45.7702" lon="4.64605">
        <ele>547.8</ele>
        <time>2021-09-27T11:34:56.000Z</time>
      </trkpt>
      <trkpt lat="45.77021" lon="4.64604">
        <ele>548</ele>
        <time>2021-09-27T11:34:57.000Z</time>
      </trkpt>
      <trkpt lat="45.77022" lon="4.64603">
        <ele>548.2</ele>
        <time>2021-09-27T11:34:58.000Z</time>
      </trkpt>
      <trkpt lat="45.77023" lon="4.64601">
        <ele>548.2</ele>
        <time>2021-09-27T11:34:59.000Z</time>
      </trkpt>
      <trkpt lat="45.77024" lon="4.646">
        <ele>548.6</ele>
        <time>2021-09-27T11:35:00.000Z</time>
      </trkpt>
      <trkpt lat="45.77024" lon="4.64598">
        <ele>548.6</ele>
        <time>2021-09-27T11:35:01.000Z</time>
      </trkpt>
      <trkpt lat="45.77025" lon="4.64597">
        <ele>548.8</ele>
        <time>2021-09-27T11:35:02.000Z</time>
      </trkpt>
      <trkpt lat="45.77026" lon="4.64596">
        <ele>549</ele>
        <time>2021-09-27T11:35:03.000Z</time>
      </trkpt>
      <trkpt lat="45.77027" lon="4.64594">
        <ele>549.2</ele>
        <time>2021-09-27T11:35:04.000Z</time>
      </trkpt>
      <trkpt lat="45.77028" lon="4.64593">
        <ele>549.4</ele>
        <time>2021-09-27T11:35:05.000Z</time>
      </trkpt>
      <trkpt lat="45.77028" lon="4.64592">
        <ele>549.6</ele>
        <time>2021-09-27T11:35:06.000Z</time>
      </trkpt>
      <trkpt lat="45.77029" lon="4.64591">
        <ele>549.8</ele>
        <time>2021-09-27T11:35:07.000Z</time>
      </trkpt>
      <trkpt lat="45.7703" lon="4.6459">
        <ele>550</ele>
        <time>2021-09-27T11:35:08.000Z</time>
      </trkpt>
      <trkpt lat="45.77031" lon="4.64588">
        <ele>550.2</ele>
        <time>2021-09-27T11:35:09.000Z</time>
      </trkpt>
      <trkpt lat="45.77031" lon="4.64587">
        <ele>550.4</ele>
        <time>2021-09-27T11:35:10.000Z</time>
      </trkpt>
      <trkpt lat="45.77032" lon="4.64585">
        <ele>550.6</ele>
        <time>2021-09-27T11:35:11.000Z</time>
      </trkpt>
      <trkpt lat="45.77033" lon="4.64583">
        <ele>550.8</ele>
        <time>2021-09-27T11:35:12.000Z</time>
      </trkpt>
      <trkpt lat="45.77034" lon="4.64582">
        <ele>551</ele>
        <time>2021-09-27T11:35:13.000Z</time>
      </trkpt>
      <trkpt lat="45.77034" lon="4.6458">
        <ele>551.2</ele>
        <time>2021-09-27T11:35:14.000Z</time>
      </trkpt>
      <trkpt lat="45.77035" lon="4.64579">
        <ele>551.2</ele>
        <time>2021-09-27T11:35:15.000Z</time>
      </trkpt>
      <trkpt lat="45.77036" lon="4.64578">
        <ele>551.6</ele>
        <time>2021-09-27T11:35:16.000Z</time>
      </trkpt>
      <trkpt lat="45.77037" lon="4.64577">
        <ele>551.6</ele>
        <time>2021-09-27T11:35:17.000Z</time>
      </trkpt>
      <trkpt lat="45.77037" lon="4.64575">
        <ele>551.8</ele>
        <time>2021-09-27T11:35:18.000Z</time>
      </trkpt>
      <trkpt lat="45.77038" lon="4.64574">
        <ele>552.2</ele>
        <time>2021-09-27T11:35:19.000Z</time>
      </trkpt>
      <trkpt lat="45.77039" lon="4.64572">
        <ele>552.4</ele>
        <time>2021-09-27T11:35:20.000Z</time>
      </trkpt>
      <trkpt lat="45.77039" lon="4.64571">
        <ele>552.4</ele>
        <time>2021-09-27T11:35:21.000Z</time>
      </trkpt>
      <trkpt lat="45.7704" lon="4.6457">
        <ele>552.6</ele>
        <time>2021-09-27T11:35:22.000Z</time>
      </trkpt>
      <trkpt lat="45.7704" lon="4.64569">
        <ele>553</ele>
        <time>2021-09-27T11:35:23.000Z</time>
      </trkpt>
      <trkpt lat="45.77041" lon="4.64567">
        <ele>553</ele>
        <time>2021-09-27T11:35:24.000Z</time>
      </trkpt>
      <trkpt lat="45.77041" lon="4.64565">
        <ele>553.4</ele>
        <time>2021-09-27T11:35:25.000Z</time>
      </trkpt>
      <trkpt lat="45.77042" lon="4.64564">
        <ele>553.6</ele>
        <time>2021-09-27T11:35:26.000Z</time>
      </trkpt>
      <trkpt lat="45.77042" lon="4.64562">
        <ele>554</ele>
        <time>2021-09-27T11:35:27.000Z</time>
      </trkpt>
      <trkpt lat="45.77043" lon="4.64561">
        <ele>554.2</ele>
        <time>2021-09-27T11:35:28.000Z</time>
      </trkpt>
      <trkpt lat="45.77044" lon="4.64559">
        <ele>554.4</ele>
        <time>2021-09-27T11:35:29.000Z</time>
      </trkpt>
      <trkpt lat="45.77045" lon="4.64558">
        <ele>554.6</ele>
        <time>2021-09-27T11:35:30.000Z</time>
      </trkpt>
      <trkpt lat="45.77046" lon="4.64557">
        <ele>554.8</ele>
        <time>2021-09-27T11:35:31.000Z</time>
      </trkpt>
      <trkpt lat="45.77047" lon="4.64555">
        <ele>555</ele>
        <time>2021-09-27T11:35:32.000Z</time>
      </trkpt>
      <trkpt lat="45.77048" lon="4.64554">
        <ele>555.2</ele>
        <time>2021-09-27T11:35:33.000Z</time>
      </trkpt>
      <trkpt lat="45.77049" lon="4.64552">
        <ele>555.4</ele>
        <time>2021-09-27T11:35:34.000Z</time>
      </trkpt>
      <trkpt lat="45.77049" lon="4.6455">
        <ele>555.6</ele>
        <time>2021-09-27T11:35:35.000Z</time>
      </trkpt>
      <trkpt lat="45.7705" lon="4.64549">
        <ele>555.6</ele>
        <time>2021-09-27T11:35:36.000Z</time>
      </trkpt>
      <trkpt lat="45.77051" lon="4.64547">
        <ele>556</ele>
        <time>2021-09-27T11:35:37.000Z</time>
      </trkpt>
      <trkpt lat="45.77052" lon="4.64546">
        <ele>556.2</ele>
        <time>2021-09-27T11:35:38.000Z</time>
      </trkpt>
      <trkpt lat="45.77053" lon="4.64544">
        <ele>556.2</ele>
        <time>2021-09-27T11:35:39.000Z</time>
      </trkpt>
      <trkpt lat="45.77054" lon="4.64543">
        <ele>556.4</ele>
        <time>2021-09-27T11:35:40.000Z</time>
      </trkpt>
      <trkpt lat="45.77056" lon="4.64541">
        <ele>556.8</ele>
        <time>2021-09-27T11:35:41.000Z</time>
      </trkpt>
      <trkpt lat="45.77057" lon="4.64539">
        <ele>557</ele>
        <time>2021-09-27T11:35:42.000Z</time>
      </trkpt>
      <trkpt lat="45.77058" lon="4.64537">
        <ele>557.2</ele>
        <time>2021-09-27T11:35:43.000Z</time>
      </trkpt>
      <trkpt lat="45.77058" lon="4.64536">
        <ele>557.6</ele>
        <time>2021-09-27T11:35:44.000Z</time>
      </trkpt>
      <trkpt lat="45.77059" lon="4.64534">
        <ele>557.8</ele>
        <time>2021-09-27T11:35:45.000Z</time>
      </trkpt>
      <trkpt lat="45.7706" lon="4.64533">
        <ele>558.2</ele>
        <time>2021-09-27T11:35:46.000Z</time>
      </trkpt>
      <trkpt lat="45.7706" lon="4.64531">
        <ele>558.4</ele>
        <time>2021-09-27T11:35:47.000Z</time>
      </trkpt>
      <trkpt lat="45.77061" lon="4.64529">
        <ele>558.8</ele>
        <time>2021-09-27T11:35:48.000Z</time>
      </trkpt>
      <trkpt lat="45.77062" lon="4.64528">
        <ele>559</ele>
        <time>2021-09-27T11:35:49.000Z</time>
      </trkpt>
      <trkpt lat="45.77063" lon="4.64527">
        <ele>559.4</ele>
        <time>2021-09-27T11:35:50.000Z</time>
      </trkpt>
      <trkpt lat="45.77064" lon="4.64525">
        <ele>559.6</ele>
        <time>2021-09-27T11:35:51.000Z</time>
      </trkpt>
      <trkpt lat="45.77065" lon="4.64524">
        <ele>560</ele>
        <time>2021-09-27T11:35:52.000Z</time>
      </trkpt>
      <trkpt lat="45.77065" lon="4.64523">
        <ele>560.2</ele>
        <time>2021-09-27T11:35:53.000Z</time>
      </trkpt>
      <trkpt lat="45.77066" lon="4.64522">
        <ele>560.6</ele>
        <time>2021-09-27T11:35:54.000Z</time>
      </trkpt>
      <trkpt lat="45.77067" lon="4.64521">
        <ele>561</ele>
        <time>2021-09-27T11:35:55.000Z</time>
      </trkpt>
      <trkpt lat="45.77068" lon="4.6452">
        <ele>561.4</ele>
        <time>2021-09-27T11:35:56.000Z</time>
      </trkpt>
      <trkpt lat="45.77069" lon="4.64519">
        <ele>561.8</ele>
        <time>2021-09-27T11:35:57.000Z</time>
      </trkpt>
      <trkpt lat="45.77069" lon="4.64518">
        <ele>562</ele>
        <time>2021-09-27T11:35:58.000Z</time>
      </trkpt>
      <trkpt lat="45.7707" lon="4.64517">
        <ele>562.4</ele>
        <time>2021-09-27T11:35:59.000Z</time>
      </trkpt>
      <trkpt lat="45.77071" lon="4.64516">
        <ele>562.8</ele>
        <time>2021-09-27T11:36:00.000Z</time>
      </trkpt>
      <trkpt lat="45.77072" lon="4.64515">
        <ele>563</ele>
        <time>2021-09-27T11:36:01.000Z</time>
      </trkpt>
      <trkpt lat="45.77072" lon="4.64514">
        <ele>563.4</ele>
        <time>2021-09-27T11:36:02.000Z</time>
      </trkpt>
      <trkpt lat="45.77073" lon="4.64512">
        <ele>563.4</ele>
        <time>2021-09-27T11:36:03.000Z</time>
      </trkpt>
      <trkpt lat="45.77074" lon="4.64511">
        <ele>563.6</ele>
        <time>2021-09-27T11:36:04.000Z</time>
      </trkpt>
      <trkpt lat="45.77076" lon="4.6451">
        <ele>564</ele>
        <time>2021-09-27T11:36:05.000Z</time>
      </trkpt>
      <trkpt lat="45.77077" lon="4.64508">
        <ele>564.2</ele>
        <time>2021-09-27T11:36:06.000Z</time>
      </trkpt>
      <trkpt lat="45.77078" lon="4.64507">
        <ele>564.4</ele>
        <time>2021-09-27T11:36:07.000Z</time>
      </trkpt>
      <trkpt lat="45.77079" lon="4.64506">
        <ele>564.6</ele>
        <time>2021-09-27T11:36:08.000Z</time>
      </trkpt>
      <trkpt lat="45.77079" lon="4.64504">
        <ele>564.8</ele>
        <time>2021-09-27T11:36:09.000Z</time>
      </trkpt>
      <trkpt lat="45.7708" lon="4.64503">
        <ele>565</ele>
        <time>2021-09-27T11:36:10.000Z</time>
      </trkpt>
      <trkpt lat="45.77081" lon="4.64501">
        <ele>565.2</ele>
        <time>2021-09-27T11:36:11.000Z</time>
      </trkpt>
      <trkpt lat="45.77082" lon="4.645">
        <ele>565.4</ele>
        <time>2021-09-27T11:36:12.000Z</time>
      </trkpt>
      <trkpt lat="45.77083" lon="4.64499">
        <ele>565.6</ele>
        <time>2021-09-27T11:36:13.000Z</time>
      </trkpt>
      <trkpt lat="45.77084" lon="4.64498">
        <ele>565.8</ele>
        <time>2021-09-27T11:36:14.000Z</time>
      </trkpt>
      <trkpt lat="45.77085" lon="4.64496">
        <ele>566</ele>
        <time>2021-09-27T11:36:15.000Z</time>
      </trkpt>
      <trkpt lat="45.77085" lon="4.64495">
        <ele>566.2</ele>
        <time>2021-09-27T11:36:16.000Z</time>
      </trkpt>
      <trkpt lat="45.77086" lon="4.64494">
        <ele>566.4</ele>
        <time>2021-09-27T11:36:17.000Z</time>
      </trkpt>
      <trkpt lat="45.77087" lon="4.64493">
        <ele>566.6</ele>
        <time>2021-09-27T11:36:18.000Z</time>
      </trkpt>
      <trkpt lat="45.77088" lon="4.64491">
        <ele>566.8</ele>
        <time>2021-09-27T11:36:19.000Z</time>
      </trkpt>
      <trkpt lat="45.77088" lon="4.6449">
        <ele>567</ele>
        <time>2021-09-27T11:36:20.000Z</time>
      </trkpt>
      <trkpt lat="45.77089" lon="4.64489">
        <ele>567.2</ele>
        <time>2021-09-27T11:36:21.000Z</time>
      </trkpt>
      <trkpt lat="45.7709" lon="4.64487">
        <ele>567.4</ele>
        <time>2021-09-27T11:36:22.000Z</time>
      </trkpt>
      <trkpt lat="45.7709" lon="4.64486">
        <ele>567.6</ele>
        <time>2021-09-27T11:36:23.000Z</time>
      </trkpt>
      <trkpt lat="45.77091" lon="4.64484">
        <ele>568</ele>
        <time>2021-09-27T11:36:24.000Z</time>
      </trkpt>
      <trkpt lat="45.77092" lon="4.64483">
        <ele>568</ele>
        <time>2021-09-27T11:36:25.000Z</time>
      </trkpt>
      <trkpt lat="45.77093" lon="4.64481">
        <ele>568.4</ele>
        <time>2021-09-27T11:36:26.000Z</time>
      </trkpt>
      <trkpt lat="45.77094" lon="4.64478">
        <ele>568.4</ele>
        <time>2021-09-27T11:36:27.000Z</time>
      </trkpt>
      <trkpt lat="45.77094" lon="4.64475">
        <ele>568.6</ele>
        <time>2021-09-27T11:36:28.000Z</time>
      </trkpt>
      <trkpt lat="45.77094" lon="4.64473">
        <ele>568.6</ele>
        <time>2021-09-27T11:36:29.000Z</time>
      </trkpt>
      <trkpt lat="45.77095" lon="4.64471">
        <ele>568.8</ele>
        <time>2021-09-27T11:36:30.000Z</time>
      </trkpt>
      <trkpt lat="45.77096" lon="4.64469">
        <ele>569.2</ele>
        <time>2021-09-27T11:36:31.000Z</time>
      </trkpt>
      <trkpt lat="45.77096" lon="4.64467">
        <ele>569.2</ele>
        <time>2021-09-27T11:36:32.000Z</time>
      </trkpt>
      <trkpt lat="45.77096" lon="4.64464">
        <ele>569.4</ele>
        <time>2021-09-27T11:36:33.000Z</time>
      </trkpt>
      <trkpt lat="45.77096" lon="4.64462">
        <ele>569.6</ele>
        <time>2021-09-27T11:36:34.000Z</time>
      </trkpt>
      <trkpt lat="45.77096" lon="4.6446">
        <ele>569.8</ele>
        <time>2021-09-27T11:36:35.000Z</time>
      </trkpt>
      <trkpt lat="45.77097" lon="4.64458">
        <ele>570</ele>
        <time>2021-09-27T11:36:36.000Z</time>
      </trkpt>
      <trkpt lat="45.77097" lon="4.64456">
        <ele>570.2</ele>
        <time>2021-09-27T11:36:37.000Z</time>
      </trkpt>
      <trkpt lat="45.77098" lon="4.64454">
        <ele>570.4</ele>
        <time>2021-09-27T11:36:38.000Z</time>
      </trkpt>
      <trkpt lat="45.77098" lon="4.64452">
        <ele>570.4</ele>
        <time>2021-09-27T11:36:39.000Z</time>
      </trkpt>
      <trkpt lat="45.77098" lon="4.64451">
        <ele>570.6</ele>
        <time>2021-09-27T11:36:40.000Z</time>
      </trkpt>
      <trkpt lat="45.77098" lon="4.64448">
        <ele>570.8</ele>
        <time>2021-09-27T11:36:41.000Z</time>
      </trkpt>
      <trkpt lat="45.77099" lon="4.64446">
        <ele>570.8</ele>
        <time>2021-09-27T11:36:42.000Z</time>
      </trkpt>
      <trkpt lat="45.77099" lon="4.64444">
        <ele>571</ele>
        <time>2021-09-27T11:36:43.000Z</time>
      </trkpt>
      <trkpt lat="45.77099" lon="4.64442">
        <ele>571.2</ele>
        <time>2021-09-27T11:36:44.000Z</time>
      </trkpt>
      <trkpt lat="45.77098" lon="4.64441">
        <ele>571.4</ele>
        <time>2021-09-27T11:36:45.000Z</time>
      </trkpt>
      <trkpt lat="45.77098" lon="4.64439">
        <ele>571.4</ele>
        <time>2021-09-27T11:36:46.000Z</time>
      </trkpt>
      <trkpt lat="45.77098" lon="4.64437">
        <ele>571.6</ele>
        <time>2021-09-27T11:36:47.000Z</time>
      </trkpt>
      <trkpt lat="45.77098" lon="4.64435">
        <ele>571.8</ele>
        <time>2021-09-27T11:36:48.000Z</time>
      </trkpt>
      <trkpt lat="45.77099" lon="4.64432">
        <ele>572</ele>
        <time>2021-09-27T11:36:49.000Z</time>
      </trkpt>
      <trkpt lat="45.77099" lon="4.6443">
        <ele>572.2</ele>
        <time>2021-09-27T11:36:50.000Z</time>
      </trkpt>
      <trkpt lat="45.77099" lon="4.64428">
        <ele>572.2</ele>
        <time>2021-09-27T11:36:51.000Z</time>
      </trkpt>
      <trkpt lat="45.771" lon="4.64426">
        <ele>572.4</ele>
        <time>2021-09-27T11:36:52.000Z</time>
      </trkpt>
      <trkpt lat="45.771" lon="4.64424">
        <ele>572.6</ele>
        <time>2021-09-27T11:36:53.000Z</time>
      </trkpt>
      <trkpt lat="45.771" lon="4.64422">
        <ele>573</ele>
        <time>2021-09-27T11:36:54.000Z</time>
      </trkpt>
      <trkpt lat="45.771" lon="4.6442">
        <ele>573.2</ele>
        <time>2021-09-27T11:36:55.000Z</time>
      </trkpt>
      <trkpt lat="45.771" lon="4.64418">
        <ele>573.2</ele>
        <time>2021-09-27T11:36:56.000Z</time>
      </trkpt>
      <trkpt lat="45.77101" lon="4.64416">
        <ele>573.4</ele>
        <time>2021-09-27T11:36:57.000Z</time>
      </trkpt>
      <trkpt lat="45.77101" lon="4.64414">
        <ele>573.8</ele>
        <time>2021-09-27T11:36:58.000Z</time>
      </trkpt>
      <trkpt lat="45.77101" lon="4.64412">
        <ele>573.8</ele>
        <time>2021-09-27T11:36:59.000Z</time>
      </trkpt>
      <trkpt lat="45.771" lon="4.64411">
        <ele>574</ele>
        <time>2021-09-27T11:37:00.000Z</time>
      </trkpt>
      <trkpt lat="45.771" lon="4.64408">
        <ele>574.2</ele>
        <time>2021-09-27T11:37:01.000Z</time>
      </trkpt>
      <trkpt lat="45.771" lon="4.64406">
        <ele>574.4</ele>
        <time>2021-09-27T11:37:02.000Z</time>
      </trkpt>
      <trkpt lat="45.771" lon="4.64404">
        <ele>574.6</ele>
        <time>2021-09-27T11:37:03.000Z</time>
      </trkpt>
      <trkpt lat="45.771" lon="4.64402">
        <ele>574.8</ele>
        <time>2021-09-27T11:37:04.000Z</time>
      </trkpt>
      <trkpt lat="45.771" lon="4.644">
        <ele>574.8</ele>
        <time>2021-09-27T11:37:05.000Z</time>
      </trkpt>
      <trkpt lat="45.771" lon="4.64399">
        <ele>575</ele>
        <time>2021-09-27T11:37:06.000Z</time>
      </trkpt>
      <trkpt lat="45.771" lon="4.64397">
        <ele>575.2</ele>
        <time>2021-09-27T11:37:07.000Z</time>
      </trkpt>
      <trkpt lat="45.771" lon="4.64395">
        <ele>575.2</ele>
        <time>2021-09-27T11:37:08.000Z</time>
      </trkpt>
      <trkpt lat="45.771" lon="4.64394">
        <ele>575.2</ele>
        <time>2021-09-27T11:37:09.000Z</time>
      </trkpt>
      <trkpt lat="45.771" lon="4.64392">
        <ele>575.4</ele>
        <time>2021-09-27T11:37:10.000Z</time>
      </trkpt>
      <trkpt lat="45.771" lon="4.6439">
        <ele>575.4</ele>
        <time>2021-09-27T11:37:11.000Z</time>
      </trkpt>
      <trkpt lat="45.771" lon="4.64388">
        <ele>575.4</ele>
        <time>2021-09-27T11:37:12.000Z</time>
      </trkpt>
      <trkpt lat="45.771" lon="4.64386">
        <ele>575.4</ele>
        <time>2021-09-27T11:37:13.000Z</time>
      </trkpt>
      <trkpt lat="45.771" lon="4.64384">
        <ele>575.6</ele>
        <time>2021-09-27T11:37:14.000Z</time>
      </trkpt>
      <trkpt lat="45.771" lon="4.64383">
        <ele>575.6</ele>
        <time>2021-09-27T11:37:15.000Z</time>
      </trkpt>
      <trkpt lat="45.771" lon="4.64381">
        <ele>575.6</ele>
        <time>2021-09-27T11:37:16.000Z</time>
      </trkpt>
      <trkpt lat="45.771" lon="4.64379">
        <ele>575.8</ele>
        <time>2021-09-27T11:37:17.000Z</time>
      </trkpt>
      <trkpt lat="45.771" lon="4.64377">
        <ele>575.8</ele>
        <time>2021-09-27T11:37:18.000Z</time>
      </trkpt>
      <trkpt lat="45.77099" lon="4.64374">
        <ele>575.8</ele>
        <time>2021-09-27T11:37:19.000Z</time>
      </trkpt>
      <trkpt lat="45.77099" lon="4.64372">
        <ele>576</ele>
        <time>2021-09-27T11:37:20.000Z</time>
      </trkpt>
      <trkpt lat="45.77098" lon="4.6437">
        <ele>576</ele>
        <time>2021-09-27T11:37:21.000Z</time>
      </trkpt>
      <trkpt lat="45.77098" lon="4.64367">
        <ele>576</ele>
        <time>2021-09-27T11:37:22.000Z</time>
      </trkpt>
      <trkpt lat="45.77098" lon="4.64364">
        <ele>576</ele>
        <time>2021-09-27T11:37:23.000Z</time>
      </trkpt>
      <trkpt lat="45.77098" lon="4.64361">
        <ele>576.4</ele>
        <time>2021-09-27T11:37:24.000Z</time>
      </trkpt>
      <trkpt lat="45.77097" lon="4.64359">
        <ele>576.4</ele>
        <time>2021-09-27T11:37:25.000Z</time>
      </trkpt>
      <trkpt lat="45.77097" lon="4.64357">
        <ele>576.6</ele>
        <time>2021-09-27T11:37:26.000Z</time>
      </trkpt>
      <trkpt lat="45.77097" lon="4.64354">
        <ele>576.6</ele>
        <time>2021-09-27T11:37:27.000Z</time>
      </trkpt>
      <trkpt lat="45.77097" lon="4.64352">
        <ele>576.6</ele>
        <time>2021-09-27T11:37:28.000Z</time>
      </trkpt>
      <trkpt lat="45.77097" lon="4.64349">
        <ele>577</ele>
        <time>2021-09-27T11:37:29.000Z</time>
      </trkpt>
      <trkpt lat="45.77097" lon="4.64347">
        <ele>577.2</ele>
        <time>2021-09-27T11:37:30.000Z</time>
      </trkpt>
      <trkpt lat="45.77097" lon="4.64345">
        <ele>577.2</ele>
        <time>2021-09-27T11:37:31.000Z</time>
      </trkpt>
      <trkpt lat="45.77097" lon="4.64342">
        <ele>577.2</ele>
        <time>2021-09-27T11:37:32.000Z</time>
      </trkpt>
      <trkpt lat="45.77097" lon="4.6434">
        <ele>577.6</ele>
        <time>2021-09-27T11:37:33.000Z</time>
      </trkpt>
      <trkpt lat="45.77097" lon="4.64338">
        <ele>577.6</ele>
        <time>2021-09-27T11:37:34.000Z</time>
      </trkpt>
      <trkpt lat="45.77097" lon="4.64335">
        <ele>577.8</ele>
        <time>2021-09-27T11:37:35.000Z</time>
      </trkpt>
      <trkpt lat="45.77097" lon="4.64333">
        <ele>577.8</ele>
        <time>2021-09-27T11:37:36.000Z</time>
      </trkpt>
      <trkpt lat="45.77097" lon="4.6433">
        <ele>578</ele>
        <time>2021-09-27T11:37:37.000Z</time>
      </trkpt>
      <trkpt lat="45.77097" lon="4.64328">
        <ele>578.2</ele>
        <time>2021-09-27T11:37:38.000Z</time>
      </trkpt>
      <trkpt lat="45.77097" lon="4.64326">
        <ele>578.2</ele>
        <time>2021-09-27T11:37:39.000Z</time>
      </trkpt>
      <trkpt lat="45.77097" lon="4.64324">
        <ele>578.2</ele>
        <time>2021-09-27T11:37:40.000Z</time>
      </trkpt>
      <trkpt lat="45.77096" lon="4.64323">
        <ele>578.4</ele>
        <time>2021-09-27T11:37:41.000Z</time>
      </trkpt>
      <trkpt lat="45.77096" lon="4.6432">
        <ele>578.6</ele>
        <time>2021-09-27T11:37:42.000Z</time>
      </trkpt>
      <trkpt lat="45.77096" lon="4.64318">
        <ele>578.8</ele>
        <time>2021-09-27T11:37:43.000Z</time>
      </trkpt>
      <trkpt lat="45.77096" lon="4.64317">
        <ele>579</ele>
        <time>2021-09-27T11:37:44.000Z</time>
      </trkpt>
      <trkpt lat="45.77096" lon="4.64314">
        <ele>579.2</ele>
        <time>2021-09-27T11:37:45.000Z</time>
      </trkpt>
      <trkpt lat="45.77096" lon="4.64311">
        <ele>579.4</ele>
        <time>2021-09-27T11:37:46.000Z</time>
      </trkpt>
      <trkpt lat="45.77096" lon="4.64309">
        <ele>579.6</ele>
        <time>2021-09-27T11:37:47.000Z</time>
      </trkpt>
      <trkpt lat="45.77096" lon="4.64307">
        <ele>579.8</ele>
        <time>2021-09-27T11:37:48.000Z</time>
      </trkpt>
      <trkpt lat="45.77095" lon="4.64306">
        <ele>580.2</ele>
        <time>2021-09-27T11:37:49.000Z</time>
      </trkpt>
      <trkpt lat="45.77095" lon="4.64304">
        <ele>580.4</ele>
        <time>2021-09-27T11:37:50.000Z</time>
      </trkpt>
      <trkpt lat="45.77095" lon="4.64301">
        <ele>580.4</ele>
        <time>2021-09-27T11:37:51.000Z</time>
      </trkpt>
      <trkpt lat="45.77095" lon="4.64299">
        <ele>580.6</ele>
        <time>2021-09-27T11:37:52.000Z</time>
      </trkpt>
      <trkpt lat="45.77094" lon="4.64297">
        <ele>580.6</ele>
        <time>2021-09-27T11:37:53.000Z</time>
      </trkpt>
      <trkpt lat="45.77095" lon="4.64295">
        <ele>580.8</ele>
        <time>2021-09-27T11:37:54.000Z</time>
      </trkpt>
      <trkpt lat="45.77095" lon="4.64293">
        <ele>581</ele>
        <time>2021-09-27T11:37:55.000Z</time>
      </trkpt>
      <trkpt lat="45.77095" lon="4.6429">
        <ele>581.2</ele>
        <time>2021-09-27T11:37:56.000Z</time>
      </trkpt>
      <trkpt lat="45.77096" lon="4.64288">
        <ele>581.4</ele>
        <time>2021-09-27T11:37:57.000Z</time>
      </trkpt>
      <trkpt lat="45.77096" lon="4.64286">
        <ele>581.6</ele>
        <time>2021-09-27T11:37:58.000Z</time>
      </trkpt>
      <trkpt lat="45.77096" lon="4.64283">
        <ele>582</ele>
        <time>2021-09-27T11:37:59.000Z</time>
      </trkpt>
      <trkpt lat="45.77096" lon="4.64281">
        <ele>582</ele>
        <time>2021-09-27T11:38:00.000Z</time>
      </trkpt>
      <trkpt lat="45.77096" lon="4.64279">
        <ele>582.2</ele>
        <time>2021-09-27T11:38:01.000Z</time>
      </trkpt>
      <trkpt lat="45.77096" lon="4.64277">
        <ele>582.2</ele>
        <time>2021-09-27T11:38:02.000Z</time>
      </trkpt>
      <trkpt lat="45.77096" lon="4.64275">
        <ele>582.4</ele>
        <time>2021-09-27T11:38:03.000Z</time>
      </trkpt>
      <trkpt lat="45.77096" lon="4.64272">
        <ele>582.8</ele>
        <time>2021-09-27T11:38:04.000Z</time>
      </trkpt>
      <trkpt lat="45.77096" lon="4.6427">
        <ele>583</ele>
        <time>2021-09-27T11:38:05.000Z</time>
      </trkpt>
      <trkpt lat="45.77097" lon="4.64267">
        <ele>583.2</ele>
        <time>2021-09-27T11:38:06.000Z</time>
      </trkpt>
      <trkpt lat="45.77097" lon="4.64264">
        <ele>583.4</ele>
        <time>2021-09-27T11:38:07.000Z</time>
      </trkpt>
      <trkpt lat="45.77097" lon="4.64262">
        <ele>583.8</ele>
        <time>2021-09-27T11:38:08.000Z</time>
      </trkpt>
      <trkpt lat="45.77097" lon="4.64259">
        <ele>584</ele>
        <time>2021-09-27T11:38:09.000Z</time>
      </trkpt>
      <trkpt lat="45.77098" lon="4.64257">
        <ele>584.2</ele>
        <time>2021-09-27T11:38:10.000Z</time>
      </trkpt>
      <trkpt lat="45.77098" lon="4.64255">
        <ele>584.4</ele>
        <time>2021-09-27T11:38:11.000Z</time>
      </trkpt>
      <trkpt lat="45.77098" lon="4.64251">
        <ele>584.8</ele>
        <time>2021-09-27T11:38:12.000Z</time>
      </trkpt>
      <trkpt lat="45.771" lon="4.6425">
        <ele>585</ele>
        <time>2021-09-27T11:38:13.000Z</time>
      </trkpt>
      <trkpt lat="45.771" lon="4.64248">
        <ele>585.2</ele>
        <time>2021-09-27T11:38:14.000Z</time>
      </trkpt>
      <trkpt lat="45.771" lon="4.64246">
        <ele>585.4</ele>
        <time>2021-09-27T11:38:15.000Z</time>
      </trkpt>
      <trkpt lat="45.771" lon="4.64244">
        <ele>585.6</ele>
        <time>2021-09-27T11:38:16.000Z</time>
      </trkpt>
      <trkpt lat="45.771" lon="4.64241">
        <ele>585.8</ele>
        <time>2021-09-27T11:38:17.000Z</time>
      </trkpt>
      <trkpt lat="45.77102" lon="4.64238">
        <ele>586</ele>
        <time>2021-09-27T11:38:18.000Z</time>
      </trkpt>
      <trkpt lat="45.77102" lon="4.64236">
        <ele>586.2</ele>
        <time>2021-09-27T11:38:19.000Z</time>
      </trkpt>
      <trkpt lat="45.77102" lon="4.64234">
        <ele>586.4</ele>
        <time>2021-09-27T11:38:20.000Z</time>
      </trkpt>
      <trkpt lat="45.77102" lon="4.64232">
        <ele>586.2</ele>
        <time>2021-09-27T11:38:21.000Z</time>
      </trkpt>
      <trkpt lat="45.77102" lon="4.64231">
        <ele>586.6</ele>
        <time>2021-09-27T11:38:22.000Z</time>
      </trkpt>
      <trkpt lat="45.77102" lon="4.64229">
        <ele>586.6</ele>
        <time>2021-09-27T11:38:23.000Z</time>
      </trkpt>
      <trkpt lat="45.77102" lon="4.64228">
        <ele>586.8</ele>
        <time>2021-09-27T11:38:24.000Z</time>
      </trkpt>
      <trkpt lat="45.77102" lon="4.64226">
        <ele>587</ele>
        <time>2021-09-27T11:38:25.000Z</time>
      </trkpt>
      <trkpt lat="45.77103" lon="4.64224">
        <ele>587</ele>
        <time>2021-09-27T11:38:26.000Z</time>
      </trkpt>
      <trkpt lat="45.77103" lon="4.64222">
        <ele>587.4</ele>
        <time>2021-09-27T11:38:27.000Z</time>
      </trkpt>
      <trkpt lat="45.77103" lon="4.6422">
        <ele>587.6</ele>
        <time>2021-09-27T11:38:28.000Z</time>
      </trkpt>
      <trkpt lat="45.77104" lon="4.64217">
        <ele>587.6</ele>
        <time>2021-09-27T11:38:29.000Z</time>
      </trkpt>
      <trkpt lat="45.77104" lon="4.64216">
        <ele>587.8</ele>
        <time>2021-09-27T11:38:30.000Z</time>
      </trkpt>
      <trkpt lat="45.77104" lon="4.64214">
        <ele>588</ele>
        <time>2021-09-27T11:38:31.000Z</time>
      </trkpt>
      <trkpt lat="45.77105" lon="4.64212">
        <ele>588.2</ele>
        <time>2021-09-27T11:38:32.000Z</time>
      </trkpt>
      <trkpt lat="45.77106" lon="4.6421">
        <ele>588.2</ele>
        <time>2021-09-27T11:38:33.000Z</time>
      </trkpt>
      <trkpt lat="45.77106" lon="4.64209">
        <ele>588.4</ele>
        <time>2021-09-27T11:38:34.000Z</time>
      </trkpt>
      <trkpt lat="45.77107" lon="4.64207">
        <ele>588.6</ele>
        <time>2021-09-27T11:38:35.000Z</time>
      </trkpt>
      <trkpt lat="45.77108" lon="4.64206">
        <ele>588.6</ele>
        <time>2021-09-27T11:38:36.000Z</time>
      </trkpt>
      <trkpt lat="45.77108" lon="4.64204">
        <ele>588.8</ele>
        <time>2021-09-27T11:38:37.000Z</time>
      </trkpt>
      <trkpt lat="45.77108" lon="4.64202">
        <ele>588.8</ele>
        <time>2021-09-27T11:38:38.000Z</time>
      </trkpt>
      <trkpt lat="45.77109" lon="4.642">
        <ele>589</ele>
        <time>2021-09-27T11:38:39.000Z</time>
      </trkpt>
      <trkpt lat="45.7711" lon="4.64198">
        <ele>589.2</ele>
        <time>2021-09-27T11:38:40.000Z</time>
      </trkpt>
      <trkpt lat="45.77111" lon="4.64197">
        <ele>589.2</ele>
        <time>2021-09-27T11:38:41.000Z</time>
      </trkpt>
      <trkpt lat="45.77111" lon="4.64194">
        <ele>589.4</ele>
        <time>2021-09-27T11:38:42.000Z</time>
      </trkpt>
      <trkpt lat="45.77111" lon="4.64192">
        <ele>589.6</ele>
        <time>2021-09-27T11:38:43.000Z</time>
      </trkpt>
      <trkpt lat="45.77112" lon="4.6419">
        <ele>589.6</ele>
        <time>2021-09-27T11:38:44.000Z</time>
      </trkpt>
      <trkpt lat="45.77112" lon="4.64187">
        <ele>589.8</ele>
        <time>2021-09-27T11:38:45.000Z</time>
      </trkpt>
      <trkpt lat="45.77113" lon="4.64185">
        <ele>589.8</ele>
        <time>2021-09-27T11:38:46.000Z</time>
      </trkpt>
      <trkpt lat="45.77114" lon="4.64183">
        <ele>589.8</ele>
        <time>2021-09-27T11:38:47.000Z</time>
      </trkpt>
      <trkpt lat="45.77114" lon="4.64181">
        <ele>589.6</ele>
        <time>2021-09-27T11:38:48.000Z</time>
      </trkpt>
      <trkpt lat="45.77115" lon="4.64179">
        <ele>589.8</ele>
        <time>2021-09-27T11:38:49.000Z</time>
      </trkpt>
      <trkpt lat="45.77116" lon="4.64177">
        <ele>589.8</ele>
        <time>2021-09-27T11:38:50.000Z</time>
      </trkpt>
      <trkpt lat="45.77117" lon="4.64175">
        <ele>589.8</ele>
        <time>2021-09-27T11:38:51.000Z</time>
      </trkpt>
      <trkpt lat="45.77118" lon="4.64173">
        <ele>589.8</ele>
        <time>2021-09-27T11:38:52.000Z</time>
      </trkpt>
      <trkpt lat="45.77119" lon="4.64171">
        <ele>589.8</ele>
        <time>2021-09-27T11:38:53.000Z</time>
      </trkpt>
      <trkpt lat="45.7712" lon="4.64169">
        <ele>589.8</ele>
        <time>2021-09-27T11:38:54.000Z</time>
      </trkpt>
      <trkpt lat="45.77121" lon="4.64166">
        <ele>589.8</ele>
        <time>2021-09-27T11:38:55.000Z</time>
      </trkpt>
      <trkpt lat="45.77122" lon="4.64164">
        <ele>589.8</ele>
        <time>2021-09-27T11:38:56.000Z</time>
      </trkpt>
      <trkpt lat="45.77122" lon="4.64162">
        <ele>590</ele>
        <time>2021-09-27T11:38:57.000Z</time>
      </trkpt>
      <trkpt lat="45.77123" lon="4.6416">
        <ele>590</ele>
        <time>2021-09-27T11:38:58.000Z</time>
      </trkpt>
      <trkpt lat="45.77124" lon="4.64159">
        <ele>590</ele>
        <time>2021-09-27T11:38:59.000Z</time>
      </trkpt>
      <trkpt lat="45.77125" lon="4.64158">
        <ele>590</ele>
        <time>2021-09-27T11:39:00.000Z</time>
      </trkpt>
      <trkpt lat="45.77126" lon="4.64157">
        <ele>590</ele>
        <time>2021-09-27T11:39:01.000Z</time>
      </trkpt>
      <trkpt lat="45.77126" lon="4.64156">
        <ele>590.2</ele>
        <time>2021-09-27T11:39:02.000Z</time>
      </trkpt>
      <trkpt lat="45.77127" lon="4.64156">
        <ele>590.2</ele>
        <time>2021-09-27T11:39:03.000Z</time>
      </trkpt>
      <trkpt lat="45.77132" lon="4.64155">
        <ele>590.6</ele>
        <time>2021-09-27T11:41:08.000Z</time>
      </trkpt>
      <trkpt lat="45.77133" lon="4.64155">
        <ele>590.6</ele>
        <time>2021-09-27T11:41:09.000Z</time>
      </trkpt>
      <trkpt lat="45.77135" lon="4.64156">
        <ele>590.6</ele>
        <time>2021-09-27T11:41:10.000Z</time>
      </trkpt>
      <trkpt lat="45.77136" lon="4.64157">
        <ele>590.6</ele>
        <time>2021-09-27T11:41:12.000Z</time>
      </trkpt>
      <trkpt lat="45.77138" lon="4.64158">
        <ele>590.6</ele>
        <time>2021-09-27T11:41:14.000Z</time>
      </trkpt>
      <trkpt lat="45.77141" lon="4.64162">
        <ele>590.8</ele>
        <time>2021-09-27T11:41:17.000Z</time>
      </trkpt>
      <trkpt lat="45.77143" lon="4.64164">
        <ele>591</ele>
        <time>2021-09-27T11:41:19.000Z</time>
      </trkpt>
      <trkpt lat="45.77144" lon="4.64165">
        <ele>591.2</ele>
        <time>2021-09-27T11:41:20.000Z</time>
      </trkpt>
      <trkpt lat="45.77145" lon="4.64166">
        <ele>591.4</ele>
        <time>2021-09-27T11:41:21.000Z</time>
      </trkpt>
      <trkpt lat="45.77147" lon="4.64167">
        <ele>591.6</ele>
        <time>2021-09-27T11:41:22.000Z</time>
      </trkpt>
      <trkpt lat="45.77148" lon="4.64167">
        <ele>591.8</ele>
        <time>2021-09-27T11:41:23.000Z</time>
      </trkpt>
      <trkpt lat="45.77149" lon="4.64168">
        <ele>592</ele>
        <time>2021-09-27T11:41:24.000Z</time>
      </trkpt>
      <trkpt lat="45.77151" lon="4.64169">
        <ele>592.2</ele>
        <time>2021-09-27T11:41:25.000Z</time>
      </trkpt>
      <trkpt lat="45.77152" lon="4.64169">
        <ele>592.2</ele>
        <time>2021-09-27T11:41:26.000Z</time>
      </trkpt>
      <trkpt lat="45.77154" lon="4.6417">
        <ele>592.6</ele>
        <time>2021-09-27T11:41:27.000Z</time>
      </trkpt>
      <trkpt lat="45.77157" lon="4.64171">
        <ele>593</ele>
        <time>2021-09-27T11:41:29.000Z</time>
      </trkpt>
      <trkpt lat="45.77161" lon="4.64172">
        <ele>593.4</ele>
        <time>2021-09-27T11:41:32.000Z</time>
      </trkpt>
      <trkpt lat="45.77163" lon="4.64172">
        <ele>593.6</ele>
        <time>2021-09-27T11:41:33.000Z</time>
      </trkpt>
      <trkpt lat="45.77164" lon="4.64173">
        <ele>593.8</ele>
        <time>2021-09-27T11:41:34.000Z</time>
      </trkpt>
      <trkpt lat="45.77165" lon="4.64173">
        <ele>593.8</ele>
        <time>2021-09-27T11:41:35.000Z</time>
      </trkpt>
      <trkpt lat="45.77167" lon="4.64174">
        <ele>594</ele>
        <time>2021-09-27T11:41:36.000Z</time>
      </trkpt>
      <trkpt lat="45.77168" lon="4.64175">
        <ele>594.2</ele>
        <time>2021-09-27T11:41:37.000Z</time>
      </trkpt>
      <trkpt lat="45.7717" lon="4.64175">
        <ele>594.2</ele>
        <time>2021-09-27T11:41:38.000Z</time>
      </trkpt>
      <trkpt lat="45.77171" lon="4.64176">
        <ele>594.4</ele>
        <time>2021-09-27T11:41:39.000Z</time>
      </trkpt>
      <trkpt lat="45.77173" lon="4.64176">
        <ele>594.6</ele>
        <time>2021-09-27T11:41:40.000Z</time>
      </trkpt>
      <trkpt lat="45.77174" lon="4.64177">
        <ele>594.8</ele>
        <time>2021-09-27T11:41:41.000Z</time>
      </trkpt>
      <trkpt lat="45.77175" lon="4.64178">
        <ele>595</ele>
        <time>2021-09-27T11:41:42.000Z</time>
      </trkpt>
      <trkpt lat="45.77177" lon="4.64178">
        <ele>595.2</ele>
        <time>2021-09-27T11:41:43.000Z</time>
      </trkpt>
      <trkpt lat="45.77179" lon="4.64179">
        <ele>595.2</ele>
        <time>2021-09-27T11:41:44.000Z</time>
      </trkpt>
      <trkpt lat="45.7718" lon="4.6418">
        <ele>595.4</ele>
        <time>2021-09-27T11:41:45.000Z</time>
      </trkpt>
      <trkpt lat="45.77182" lon="4.6418">
        <ele>595.4</ele>
        <time>2021-09-27T11:41:46.000Z</time>
      </trkpt>
      <trkpt lat="45.77183" lon="4.64181">
        <ele>595.6</ele>
        <time>2021-09-27T11:41:47.000Z</time>
      </trkpt>
      <trkpt lat="45.77185" lon="4.64181">
        <ele>596</ele>
        <time>2021-09-27T11:41:48.000Z</time>
      </trkpt>
      <trkpt lat="45.77186" lon="4.64181">
        <ele>596.2</ele>
        <time>2021-09-27T11:41:49.000Z</time>
      </trkpt>
      <trkpt lat="45.77188" lon="4.64182">
        <ele>596.4</ele>
        <time>2021-09-27T11:41:50.000Z</time>
      </trkpt>
      <trkpt lat="45.77189" lon="4.64182">
        <ele>596.6</ele>
        <time>2021-09-27T11:41:51.000Z</time>
      </trkpt>
      <trkpt lat="45.77191" lon="4.64182">
        <ele>596.8</ele>
        <time>2021-09-27T11:41:52.000Z</time>
      </trkpt>
      <trkpt lat="45.77192" lon="4.64182">
        <ele>597</ele>
        <time>2021-09-27T11:41:53.000Z</time>
      </trkpt>
      <trkpt lat="45.77194" lon="4.64183">
        <ele>597.2</ele>
        <time>2021-09-27T11:41:54.000Z</time>
      </trkpt>
      <trkpt lat="45.77196" lon="4.64183">
        <ele>597.4</ele>
        <time>2021-09-27T11:41:55.000Z</time>
      </trkpt>
      <trkpt lat="45.77199" lon="4.64183">
        <ele>597.6</ele>
        <time>2021-09-27T11:41:56.000Z</time>
      </trkpt>
      <trkpt lat="45.772" lon="4.64183">
        <ele>597.6</ele>
        <time>2021-09-27T11:41:57.000Z</time>
      </trkpt>
      <trkpt lat="45.77202" lon="4.64182">
        <ele>597.8</ele>
        <time>2021-09-27T11:41:58.000Z</time>
      </trkpt>
      <trkpt lat="45.77204" lon="4.64182">
        <ele>597.8</ele>
        <time>2021-09-27T11:41:59.000Z</time>
      </trkpt>
      <trkpt lat="45.77206" lon="4.64183">
        <ele>597.8</ele>
        <time>2021-09-27T11:42:00.000Z</time>
      </trkpt>
      <trkpt lat="45.77207" lon="4.64183">
        <ele>598</ele>
        <time>2021-09-27T11:42:01.000Z</time>
      </trkpt>
      <trkpt lat="45.77209" lon="4.64183">
        <ele>597.8</ele>
        <time>2021-09-27T11:42:02.000Z</time>
      </trkpt>
      <trkpt lat="45.77211" lon="4.64183">
        <ele>598</ele>
        <time>2021-09-27T11:42:03.000Z</time>
      </trkpt>
      <trkpt lat="45.77213" lon="4.64183">
        <ele>598</ele>
        <time>2021-09-27T11:42:04.000Z</time>
      </trkpt>
      <trkpt lat="45.77215" lon="4.64184">
        <ele>598</ele>
        <time>2021-09-27T11:42:05.000Z</time>
      </trkpt>
      <trkpt lat="45.77216" lon="4.64184">
        <ele>598.2</ele>
        <time>2021-09-27T11:42:06.000Z</time>
      </trkpt>
      <trkpt lat="45.77218" lon="4.64184">
        <ele>598.4</ele>
        <time>2021-09-27T11:42:07.000Z</time>
      </trkpt>
      <trkpt lat="45.7722" lon="4.64184">
        <ele>598.4</ele>
        <time>2021-09-27T11:42:08.000Z</time>
      </trkpt>
      <trkpt lat="45.77222" lon="4.64185">
        <ele>598.6</ele>
        <time>2021-09-27T11:42:09.000Z</time>
      </trkpt>
      <trkpt lat="45.77224" lon="4.64185">
        <ele>598.8</ele>
        <time>2021-09-27T11:42:10.000Z</time>
      </trkpt>
      <trkpt lat="45.77226" lon="4.64186">
        <ele>599</ele>
        <time>2021-09-27T11:42:11.000Z</time>
      </trkpt>
      <trkpt lat="45.77227" lon="4.64186">
        <ele>599</ele>
        <time>2021-09-27T11:42:12.000Z</time>
      </trkpt>
      <trkpt lat="45.77229" lon="4.64186">
        <ele>599.2</ele>
        <time>2021-09-27T11:42:13.000Z</time>
      </trkpt>
      <trkpt lat="45.77231" lon="4.64187">
        <ele>599.4</ele>
        <time>2021-09-27T11:42:14.000Z</time>
      </trkpt>
      <trkpt lat="45.77232" lon="4.64187">
        <ele>599.6</ele>
        <time>2021-09-27T11:42:15.000Z</time>
      </trkpt>
      <trkpt lat="45.77234" lon="4.64187">
        <ele>599.8</ele>
        <time>2021-09-27T11:42:16.000Z</time>
      </trkpt>
      <trkpt lat="45.77236" lon="4.64188">
        <ele>600</ele>
        <time>2021-09-27T11:42:17.000Z</time>
      </trkpt>
      <trkpt lat="45.77238" lon="4.64189">
        <ele>600.2</ele>
        <time>2021-09-27T11:42:18.000Z</time>
      </trkpt>
      <trkpt lat="45.77241" lon="4.64189">
        <ele>600.2</ele>
        <time>2021-09-27T11:42:19.000Z</time>
      </trkpt>
      <trkpt lat="45.77243" lon="4.6419">
        <ele>600.2</ele>
        <time>2021-09-27T11:42:20.000Z</time>
      </trkpt>
      <trkpt lat="45.77246" lon="4.6419">
        <ele>600.4</ele>
        <time>2021-09-27T11:42:21.000Z</time>
      </trkpt>
      <trkpt lat="45.77248" lon="4.64191">
        <ele>600.4</ele>
        <time>2021-09-27T11:42:22.000Z</time>
      </trkpt>
      <trkpt lat="45.77251" lon="4.64192">
        <ele>600.4</ele>
        <time>2021-09-27T11:42:23.000Z</time>
      </trkpt>
      <trkpt lat="45.77254" lon="4.64193">
        <ele>600.4</ele>
        <time>2021-09-27T11:42:24.000Z</time>
      </trkpt>
      <trkpt lat="45.77257" lon="4.64195">
        <ele>600.4</ele>
        <time>2021-09-27T11:42:25.000Z</time>
      </trkpt>
      <trkpt lat="45.7726" lon="4.64197">
        <ele>600.4</ele>
        <time>2021-09-27T11:42:26.000Z</time>
      </trkpt>
      <trkpt lat="45.77263" lon="4.64199">
        <ele>600.4</ele>
        <time>2021-09-27T11:42:27.000Z</time>
      </trkpt>
      <trkpt lat="45.77266" lon="4.64201">
        <ele>600.4</ele>
        <time>2021-09-27T11:42:28.000Z</time>
      </trkpt>
      <trkpt lat="45.77269" lon="4.64203">
        <ele>600.4</ele>
        <time>2021-09-27T11:42:29.000Z</time>
      </trkpt>
      <trkpt lat="45.77272" lon="4.64205">
        <ele>600.4</ele>
        <time>2021-09-27T11:42:30.000Z</time>
      </trkpt>
      <trkpt lat="45.77275" lon="4.64206">
        <ele>600.4</ele>
        <time>2021-09-27T11:42:31.000Z</time>
      </trkpt>
      <trkpt lat="45.77278" lon="4.64207">
        <ele>600.2</ele>
        <time>2021-09-27T11:42:32.000Z</time>
      </trkpt>
      <trkpt lat="45.77284" lon="4.64209">
        <ele>600.2</ele>
        <time>2021-09-27T11:42:34.000Z</time>
      </trkpt>
      <trkpt lat="45.77287" lon="4.6421">
        <ele>600.2</ele>
        <time>2021-09-27T11:42:35.000Z</time>
      </trkpt>
      <trkpt lat="45.7729" lon="4.64209">
        <ele>600</ele>
        <time>2021-09-27T11:42:36.000Z</time>
      </trkpt>
      <trkpt lat="45.77299" lon="4.64208">
        <ele>600</ele>
        <time>2021-09-27T11:42:39.000Z</time>
      </trkpt>
      <trkpt lat="45.77302" lon="4.64207">
        <ele>600</ele>
        <time>2021-09-27T11:42:40.000Z</time>
      </trkpt>
      <trkpt lat="45.77306" lon="4.64205">
        <ele>600</ele>
        <time>2021-09-27T11:42:41.000Z</time>
      </trkpt>
      <trkpt lat="45.77309" lon="4.64203">
        <ele>600</ele>
        <time>2021-09-27T11:42:42.000Z</time>
      </trkpt>
      <trkpt lat="45.77321" lon="4.64194">
        <ele>600</ele>
        <time>2021-09-27T11:42:46.000Z</time>
      </trkpt>
      <trkpt lat="45.77324" lon="4.64192">
        <ele>600</ele>
        <time>2021-09-27T11:42:47.000Z</time>
      </trkpt>
      <trkpt lat="45.77335" lon="4.6418">
        <ele>599.8</ele>
        <time>2021-09-27T11:42:50.000Z</time>
      </trkpt>
      <trkpt lat="45.77338" lon="4.64176">
        <ele>599.6</ele>
        <time>2021-09-27T11:42:51.000Z</time>
      </trkpt>
      <trkpt lat="45.77341" lon="4.64173">
        <ele>599.6</ele>
        <time>2021-09-27T11:42:52.000Z</time>
      </trkpt>
      <trkpt lat="45.77345" lon="4.6417">
        <ele>599.4</ele>
        <time>2021-09-27T11:42:53.000Z</time>
      </trkpt>
      <trkpt lat="45.77348" lon="4.64166">
        <ele>599.2</ele>
        <time>2021-09-27T11:42:54.000Z</time>
      </trkpt>
      <trkpt lat="45.7735" lon="4.64164">
        <ele>599.2</ele>
        <time>2021-09-27T11:42:55.000Z</time>
      </trkpt>
      <trkpt lat="45.77352" lon="4.64161">
        <ele>599</ele>
        <time>2021-09-27T11:42:56.000Z</time>
      </trkpt>
      <trkpt lat="45.77354" lon="4.64159">
        <ele>599</ele>
        <time>2021-09-27T11:42:57.000Z</time>
      </trkpt>
      <trkpt lat="45.77356" lon="4.64155">
        <ele>599</ele>
        <time>2021-09-27T11:42:58.000Z</time>
      </trkpt>
      <trkpt lat="45.77358" lon="4.64152">
        <ele>599</ele>
        <time>2021-09-27T11:42:59.000Z</time>
      </trkpt>
      <trkpt lat="45.77363" lon="4.64147">
        <ele>599</ele>
        <time>2021-09-27T11:43:01.000Z</time>
      </trkpt>
      <trkpt lat="45.77364" lon="4.64144">
        <ele>599</ele>
        <time>2021-09-27T11:43:02.000Z</time>
      </trkpt>
      <trkpt lat="45.77366" lon="4.6414">
        <ele>599</ele>
        <time>2021-09-27T11:43:03.000Z</time>
      </trkpt>
      <trkpt lat="45.77366" lon="4.64137">
        <ele>599</ele>
        <time>2021-09-27T11:43:04.000Z</time>
      </trkpt>
      <trkpt lat="45.77368" lon="4.64133">
        <ele>599</ele>
        <time>2021-09-27T11:43:05.000Z</time>
      </trkpt>
      <trkpt lat="45.77373" lon="4.64126">
        <ele>599.2</ele>
        <time>2021-09-27T11:43:07.000Z</time>
      </trkpt>
      <trkpt lat="45.77379" lon="4.64113">
        <ele>599.2</ele>
        <time>2021-09-27T11:43:11.000Z</time>
      </trkpt>
      <trkpt lat="45.77381" lon="4.6411">
        <ele>599.4</ele>
        <time>2021-09-27T11:43:12.000Z</time>
      </trkpt>
      <trkpt lat="45.77392" lon="4.64088">
        <ele>599.6</ele>
        <time>2021-09-27T11:43:18.000Z</time>
      </trkpt>
      <trkpt lat="45.77395" lon="4.64081">
        <ele>599.6</ele>
        <time>2021-09-27T11:43:20.000Z</time>
      </trkpt>
      <trkpt lat="45.77396" lon="4.64078">
        <ele>599.6</ele>
        <time>2021-09-27T11:43:21.000Z</time>
      </trkpt>
      <trkpt lat="45.77398" lon="4.64075">
        <ele>599.6</ele>
        <time>2021-09-27T11:43:22.000Z</time>
      </trkpt>
      <trkpt lat="45.77399" lon="4.64072">
        <ele>599.6</ele>
        <time>2021-09-27T11:43:23.000Z</time>
      </trkpt>
      <trkpt lat="45.774" lon="4.64069">
        <ele>599.6</ele>
        <time>2021-09-27T11:43:24.000Z</time>
      </trkpt>
      <trkpt lat="45.77401" lon="4.64066">
        <ele>599.6</ele>
        <time>2021-09-27T11:43:25.000Z</time>
      </trkpt>
      <trkpt lat="45.77412" lon="4.64046">
        <ele>599.6</ele>
        <time>2021-09-27T11:43:30.000Z</time>
      </trkpt>
      <trkpt lat="45.77421" lon="4.64031">
        <ele>599.6</ele>
        <time>2021-09-27T11:43:33.000Z</time>
      </trkpt>
      <trkpt lat="45.77423" lon="4.64026">
        <ele>599.6</ele>
        <time>2021-09-27T11:43:34.000Z</time>
      </trkpt>
      <trkpt lat="45.77428" lon="4.64015">
        <ele>599.6</ele>
        <time>2021-09-27T11:43:36.000Z</time>
      </trkpt>
      <trkpt lat="45.77444" lon="4.63989">
        <ele>598.6</ele>
        <time>2021-09-27T11:43:42.000Z</time>
      </trkpt>
      <trkpt lat="45.7745" lon="4.63984">
        <ele>598.6</ele>
        <time>2021-09-27T11:43:43.000Z</time>
      </trkpt>
      <trkpt lat="45.77455" lon="4.63982">
        <ele>598.6</ele>
        <time>2021-09-27T11:43:44.000Z</time>
      </trkpt>
      <trkpt lat="45.77461" lon="4.6398">
        <ele>598.6</ele>
        <time>2021-09-27T11:43:45.000Z</time>
      </trkpt>
      <trkpt lat="45.77466" lon="4.63977">
        <ele>598.4</ele>
        <time>2021-09-27T11:43:46.000Z</time>
      </trkpt>
      <trkpt lat="45.77471" lon="4.63976">
        <ele>598.4</ele>
        <time>2021-09-27T11:43:47.000Z</time>
      </trkpt>
      <trkpt lat="45.77482" lon="4.63973">
        <ele>597.4</ele>
        <time>2021-09-27T11:43:49.000Z</time>
      </trkpt>
      <trkpt lat="45.77488" lon="4.63972">
        <ele>597</ele>
        <time>2021-09-27T11:43:50.000Z</time>
      </trkpt>
      <trkpt lat="45.77495" lon="4.6397">
        <ele>596.6</ele>
        <time>2021-09-27T11:43:51.000Z</time>
      </trkpt>
      <trkpt lat="45.77499" lon="4.63969">
        <ele>596.2</ele>
        <time>2021-09-27T11:43:52.000Z</time>
      </trkpt>
      <trkpt lat="45.77506" lon="4.63966">
        <ele>596</ele>
        <time>2021-09-27T11:43:53.000Z</time>
      </trkpt>
      <trkpt lat="45.77515" lon="4.63961">
        <ele>595.6</ele>
        <time>2021-09-27T11:43:55.000Z</time>
      </trkpt>
      <trkpt lat="45.77519" lon="4.63957">
        <ele>595.4</ele>
        <time>2021-09-27T11:43:56.000Z</time>
      </trkpt>
      <trkpt lat="45.77522" lon="4.63955">
        <ele>595.4</ele>
        <time>2021-09-27T11:43:57.000Z</time>
      </trkpt>
      <trkpt lat="45.77525" lon="4.63953">
        <ele>595.4</ele>
        <time>2021-09-27T11:43:58.000Z</time>
      </trkpt>
      <trkpt lat="45.77527" lon="4.63951">
        <ele>595.4</ele>
        <time>2021-09-27T11:43:59.000Z</time>
      </trkpt>
      <trkpt lat="45.7753" lon="4.6395">
        <ele>595.4</ele>
        <time>2021-09-27T11:44:00.000Z</time>
      </trkpt>
      <trkpt lat="45.77532" lon="4.63948">
        <ele>595.4</ele>
        <time>2021-09-27T11:44:01.000Z</time>
      </trkpt>
      <trkpt lat="45.77534" lon="4.63946">
        <ele>595.4</ele>
        <time>2021-09-27T11:44:02.000Z</time>
      </trkpt>
      <trkpt lat="45.77536" lon="4.63944">
        <ele>595.4</ele>
        <time>2021-09-27T11:44:03.000Z</time>
      </trkpt>
      <trkpt lat="45.77538" lon="4.63942">
        <ele>595.6</ele>
        <time>2021-09-27T11:44:04.000Z</time>
      </trkpt>
      <trkpt lat="45.77539" lon="4.6394">
        <ele>595.6</ele>
        <time>2021-09-27T11:44:05.000Z</time>
      </trkpt>
      <trkpt lat="45.77542" lon="4.63938">
        <ele>595.8</ele>
        <time>2021-09-27T11:44:06.000Z</time>
      </trkpt>
      <trkpt lat="45.77544" lon="4.63936">
        <ele>596</ele>
        <time>2021-09-27T11:44:07.000Z</time>
      </trkpt>
      <trkpt lat="45.77546" lon="4.63934">
        <ele>596.4</ele>
        <time>2021-09-27T11:44:08.000Z</time>
      </trkpt>
      <trkpt lat="45.77547" lon="4.63932">
        <ele>596.6</ele>
        <time>2021-09-27T11:44:09.000Z</time>
      </trkpt>
      <trkpt lat="45.77548" lon="4.6393">
        <ele>596.6</ele>
        <time>2021-09-27T11:44:10.000Z</time>
      </trkpt>
      <trkpt lat="45.7755" lon="4.63928">
        <ele>596.8</ele>
        <time>2021-09-27T11:44:11.000Z</time>
      </trkpt>
      <trkpt lat="45.77552" lon="4.63926">
        <ele>597</ele>
        <time>2021-09-27T11:44:12.000Z</time>
      </trkpt>
      <trkpt lat="45.77553" lon="4.63924">
        <ele>597</ele>
        <time>2021-09-27T11:44:13.000Z</time>
      </trkpt>
      <trkpt lat="45.77555" lon="4.63922">
        <ele>597.2</ele>
        <time>2021-09-27T11:44:14.000Z</time>
      </trkpt>
      <trkpt lat="45.77557" lon="4.6392">
        <ele>597.2</ele>
        <time>2021-09-27T11:44:15.000Z</time>
      </trkpt>
      <trkpt lat="45.77558" lon="4.63918">
        <ele>597.2</ele>
        <time>2021-09-27T11:44:16.000Z</time>
      </trkpt>
      <trkpt lat="45.7756" lon="4.63915">
        <ele>597.4</ele>
        <time>2021-09-27T11:44:17.000Z</time>
      </trkpt>
      <trkpt lat="45.77561" lon="4.63913">
        <ele>597.6</ele>
        <time>2021-09-27T11:44:18.000Z</time>
      </trkpt>
      <trkpt lat="45.77563" lon="4.63911">
        <ele>597.8</ele>
        <time>2021-09-27T11:44:19.000Z</time>
      </trkpt>
      <trkpt lat="45.77572" lon="4.63898">
        <ele>598.2</ele>
        <time>2021-09-27T11:44:25.000Z</time>
      </trkpt>
      <trkpt lat="45.77575" lon="4.63893">
        <ele>598.6</ele>
        <time>2021-09-27T11:44:27.000Z</time>
      </trkpt>
      <trkpt lat="45.77581" lon="4.63882">
        <ele>599.2</ele>
        <time>2021-09-27T11:44:31.000Z</time>
      </trkpt>
      <trkpt lat="45.77582" lon="4.6388">
        <ele>599.2</ele>
        <time>2021-09-27T11:44:32.000Z</time>
      </trkpt>
      <trkpt lat="45.77583" lon="4.63877">
        <ele>599.4</ele>
        <time>2021-09-27T11:44:33.000Z</time>
      </trkpt>
      <trkpt lat="45.77584" lon="4.63874">
        <ele>599.4</ele>
        <time>2021-09-27T11:44:34.000Z</time>
      </trkpt>
      <trkpt lat="45.77585" lon="4.63871">
        <ele>599.6</ele>
        <time>2021-09-27T11:44:35.000Z</time>
      </trkpt>
      <trkpt lat="45.77586" lon="4.63868">
        <ele>599.6</ele>
        <time>2021-09-27T11:44:36.000Z</time>
      </trkpt>
      <trkpt lat="45.77587" lon="4.63865">
        <ele>599.8</ele>
        <time>2021-09-27T11:44:37.000Z</time>
      </trkpt>
      <trkpt lat="45.77588" lon="4.63861">
        <ele>599.8</ele>
        <time>2021-09-27T11:44:38.000Z</time>
      </trkpt>
      <trkpt lat="45.77588" lon="4.63858">
        <ele>600</ele>
        <time>2021-09-27T11:44:39.000Z</time>
      </trkpt>
      <trkpt lat="45.77587" lon="4.63854">
        <ele>600.2</ele>
        <time>2021-09-27T11:44:40.000Z</time>
      </trkpt>
      <trkpt lat="45.77586" lon="4.63852">
        <ele>600.2</ele>
        <time>2021-09-27T11:44:41.000Z</time>
      </trkpt>
      <trkpt lat="45.77585" lon="4.63851">
        <ele>600.4</ele>
        <time>2021-09-27T11:44:42.000Z</time>
      </trkpt>
      <trkpt lat="45.77584" lon="4.6385">
        <ele>600.4</ele>
        <time>2021-09-27T11:44:43.000Z</time>
      </trkpt>
      <trkpt lat="45.77582" lon="4.63849">
        <ele>600.6</ele>
        <time>2021-09-27T11:44:44.000Z</time>
      </trkpt>
      <trkpt lat="45.77581" lon="4.63848">
        <ele>600.6</ele>
        <time>2021-09-27T11:44:45.000Z</time>
      </trkpt>
      <trkpt lat="45.77579" lon="4.63847">
        <ele>600.8</ele>
        <time>2021-09-27T11:44:46.000Z</time>
      </trkpt>
      <trkpt lat="45.77577" lon="4.63847">
        <ele>601</ele>
        <time>2021-09-27T11:44:47.000Z</time>
      </trkpt>
      <trkpt lat="45.77576" lon="4.63846">
        <ele>601</ele>
        <time>2021-09-27T11:44:48.000Z</time>
      </trkpt>
      <trkpt lat="45.77575" lon="4.63844">
        <ele>601</ele>
        <time>2021-09-27T11:44:49.000Z</time>
      </trkpt>
      <trkpt lat="45.77574" lon="4.63843">
        <ele>601.4</ele>
        <time>2021-09-27T11:44:50.000Z</time>
      </trkpt>
      <trkpt lat="45.77572" lon="4.63842">
        <ele>601.6</ele>
        <time>2021-09-27T11:44:51.000Z</time>
      </trkpt>
      <trkpt lat="45.77572" lon="4.63841">
        <ele>601.8</ele>
        <time>2021-09-27T11:44:52.000Z</time>
      </trkpt>
      <trkpt lat="45.77571" lon="4.63839">
        <ele>602</ele>
        <time>2021-09-27T11:44:53.000Z</time>
      </trkpt>
      <trkpt lat="45.7757" lon="4.63838">
        <ele>602.2</ele>
        <time>2021-09-27T11:44:54.000Z</time>
      </trkpt>
      <trkpt lat="45.77568" lon="4.63837">
        <ele>602.4</ele>
        <time>2021-09-27T11:44:55.000Z</time>
      </trkpt>
      <trkpt lat="45.77567" lon="4.63835">
        <ele>602.6</ele>
        <time>2021-09-27T11:44:56.000Z</time>
      </trkpt>
      <trkpt lat="45.77566" lon="4.63834">
        <ele>602.8</ele>
        <time>2021-09-27T11:44:57.000Z</time>
      </trkpt>
      <trkpt lat="45.77565" lon="4.63832">
        <ele>603</ele>
        <time>2021-09-27T11:44:58.000Z</time>
      </trkpt>
      <trkpt lat="45.77565" lon="4.63831">
        <ele>603.2</ele>
        <time>2021-09-27T11:44:59.000Z</time>
      </trkpt>
      <trkpt lat="45.77563" lon="4.6383">
        <ele>603.4</ele>
        <time>2021-09-27T11:45:00.000Z</time>
      </trkpt>
      <trkpt lat="45.77562" lon="4.63829">
        <ele>603.6</ele>
        <time>2021-09-27T11:45:01.000Z</time>
      </trkpt>
      <trkpt lat="45.77561" lon="4.63827">
        <ele>604</ele>
        <time>2021-09-27T11:45:02.000Z</time>
      </trkpt>
      <trkpt lat="45.7756" lon="4.63826">
        <ele>604</ele>
        <time>2021-09-27T11:45:03.000Z</time>
      </trkpt>
      <trkpt lat="45.77559" lon="4.63824">
        <ele>604.4</ele>
        <time>2021-09-27T11:45:04.000Z</time>
      </trkpt>
      <trkpt lat="45.77559" lon="4.63823">
        <ele>604.8</ele>
        <time>2021-09-27T11:45:05.000Z</time>
      </trkpt>
      <trkpt lat="45.77558" lon="4.63821">
        <ele>605</ele>
        <time>2021-09-27T11:45:06.000Z</time>
      </trkpt>
      <trkpt lat="45.77557" lon="4.6382">
        <ele>605.2</ele>
        <time>2021-09-27T11:45:07.000Z</time>
      </trkpt>
      <trkpt lat="45.77556" lon="4.63819">
        <ele>605.4</ele>
        <time>2021-09-27T11:45:08.000Z</time>
      </trkpt>
      <trkpt lat="45.77555" lon="4.63818">
        <ele>605.4</ele>
        <time>2021-09-27T11:45:09.000Z</time>
      </trkpt>
      <trkpt lat="45.77554" lon="4.63816">
        <ele>605.6</ele>
        <time>2021-09-27T11:45:10.000Z</time>
      </trkpt>
      <trkpt lat="45.77553" lon="4.63815">
        <ele>605.8</ele>
        <time>2021-09-27T11:45:11.000Z</time>
      </trkpt>
      <trkpt lat="45.77552" lon="4.63814">
        <ele>606</ele>
        <time>2021-09-27T11:45:12.000Z</time>
      </trkpt>
      <trkpt lat="45.77551" lon="4.63812">
        <ele>606.2</ele>
        <time>2021-09-27T11:45:13.000Z</time>
      </trkpt>
      <trkpt lat="45.7755" lon="4.63811">
        <ele>606.4</ele>
        <time>2021-09-27T11:45:14.000Z</time>
      </trkpt>
      <trkpt lat="45.77549" lon="4.6381">
        <ele>606.6</ele>
        <time>2021-09-27T11:45:15.000Z</time>
      </trkpt>
      <trkpt lat="45.77548" lon="4.63809">
        <ele>607</ele>
        <time>2021-09-27T11:45:16.000Z</time>
      </trkpt>
      <trkpt lat="45.77547" lon="4.63808">
        <ele>607.2</ele>
        <time>2021-09-27T11:45:17.000Z</time>
      </trkpt>
      <trkpt lat="45.77546" lon="4.63807">
        <ele>607.2</ele>
        <time>2021-09-27T11:45:18.000Z</time>
      </trkpt>
      <trkpt lat="45.77545" lon="4.63807">
        <ele>607.2</ele>
        <time>2021-09-27T11:45:19.000Z</time>
      </trkpt>
      <trkpt lat="45.77544" lon="4.63806">
        <ele>607.4</ele>
        <time>2021-09-27T11:45:20.000Z</time>
      </trkpt>
      <trkpt lat="45.77543" lon="4.63805">
        <ele>607.4</ele>
        <time>2021-09-27T11:45:21.000Z</time>
      </trkpt>
      <trkpt lat="45.77542" lon="4.63804">
        <ele>607.8</ele>
        <time>2021-09-27T11:45:22.000Z</time>
      </trkpt>
      <trkpt lat="45.77541" lon="4.63802">
        <ele>608</ele>
        <time>2021-09-27T11:45:23.000Z</time>
      </trkpt>
      <trkpt lat="45.7754" lon="4.63802">
        <ele>608.2</ele>
        <time>2021-09-27T11:45:24.000Z</time>
      </trkpt>
      <trkpt lat="45.77539" lon="4.63801">
        <ele>608.6</ele>
        <time>2021-09-27T11:45:25.000Z</time>
      </trkpt>
      <trkpt lat="45.77538" lon="4.638">
        <ele>608.8</ele>
        <time>2021-09-27T11:45:26.000Z</time>
      </trkpt>
      <trkpt lat="45.77537" lon="4.63799">
        <ele>609.2</ele>
        <time>2021-09-27T11:45:27.000Z</time>
      </trkpt>
      <trkpt lat="45.77536" lon="4.63798">
        <ele>609.6</ele>
        <time>2021-09-27T11:45:28.000Z</time>
      </trkpt>
      <trkpt lat="45.77535" lon="4.63797">
        <ele>609.8</ele>
        <time>2021-09-27T11:45:29.000Z</time>
      </trkpt>
      <trkpt lat="45.77534" lon="4.63796">
        <ele>610.2</ele>
        <time>2021-09-27T11:45:30.000Z</time>
      </trkpt>
      <trkpt lat="45.77533" lon="4.63795">
        <ele>610.4</ele>
        <time>2021-09-27T11:45:31.000Z</time>
      </trkpt>
      <trkpt lat="45.77532" lon="4.63794">
        <ele>610.8</ele>
        <time>2021-09-27T11:45:32.000Z</time>
      </trkpt>
      <trkpt lat="45.77531" lon="4.63792">
        <ele>610.8</ele>
        <time>2021-09-27T11:45:33.000Z</time>
      </trkpt>
      <trkpt lat="45.7753" lon="4.63791">
        <ele>611</ele>
        <time>2021-09-27T11:45:34.000Z</time>
      </trkpt>
      <trkpt lat="45.77529" lon="4.63791">
        <ele>611.4</ele>
        <time>2021-09-27T11:45:35.000Z</time>
      </trkpt>
      <trkpt lat="45.77528" lon="4.6379">
        <ele>611.6</ele>
        <time>2021-09-27T11:45:36.000Z</time>
      </trkpt>
      <trkpt lat="45.77527" lon="4.63789">
        <ele>611.8</ele>
        <time>2021-09-27T11:45:37.000Z</time>
      </trkpt>
      <trkpt lat="45.77527" lon="4.63788">
        <ele>612.2</ele>
        <time>2021-09-27T11:45:38.000Z</time>
      </trkpt>
      <trkpt lat="45.77526" lon="4.63787">
        <ele>612.4</ele>
        <time>2021-09-27T11:45:39.000Z</time>
      </trkpt>
      <trkpt lat="45.77525" lon="4.63786">
        <ele>612.6</ele>
        <time>2021-09-27T11:45:40.000Z</time>
      </trkpt>
      <trkpt lat="45.77524" lon="4.63785">
        <ele>612.8</ele>
        <time>2021-09-27T11:45:41.000Z</time>
      </trkpt>
      <trkpt lat="45.77523" lon="4.63784">
        <ele>613</ele>
        <time>2021-09-27T11:45:42.000Z</time>
      </trkpt>
      <trkpt lat="45.77522" lon="4.63783">
        <ele>613.2</ele>
        <time>2021-09-27T11:45:43.000Z</time>
      </trkpt>
      <trkpt lat="45.77521" lon="4.63782">
        <ele>613.6</ele>
        <time>2021-09-27T11:45:44.000Z</time>
      </trkpt>
      <trkpt lat="45.77521" lon="4.63781">
        <ele>613.8</ele>
        <time>2021-09-27T11:45:45.000Z</time>
      </trkpt>
      <trkpt lat="45.77519" lon="4.6378">
        <ele>614.2</ele>
        <time>2021-09-27T11:45:46.000Z</time>
      </trkpt>
      <trkpt lat="45.77518" lon="4.6378">
        <ele>614.4</ele>
        <time>2021-09-27T11:45:47.000Z</time>
      </trkpt>
      <trkpt lat="45.77517" lon="4.63779">
        <ele>614.8</ele>
        <time>2021-09-27T11:45:48.000Z</time>
      </trkpt>
      <trkpt lat="45.77516" lon="4.63778">
        <ele>615</ele>
        <time>2021-09-27T11:45:49.000Z</time>
      </trkpt>
      <trkpt lat="45.77515" lon="4.63777">
        <ele>615.2</ele>
        <time>2021-09-27T11:45:50.000Z</time>
      </trkpt>
      <trkpt lat="45.77514" lon="4.63777">
        <ele>615.4</ele>
        <time>2021-09-27T11:45:51.000Z</time>
      </trkpt>
      <trkpt lat="45.77513" lon="4.63776">
        <ele>615.6</ele>
        <time>2021-09-27T11:45:52.000Z</time>
      </trkpt>
      <trkpt lat="45.77512" lon="4.63775">
        <ele>616</ele>
        <time>2021-09-27T11:45:53.000Z</time>
      </trkpt>
      <trkpt lat="45.77511" lon="4.63774">
        <ele>616.2</ele>
        <time>2021-09-27T11:45:54.000Z</time>
      </trkpt>
      <trkpt lat="45.7751" lon="4.63773">
        <ele>616.4</ele>
        <time>2021-09-27T11:45:55.000Z</time>
      </trkpt>
      <trkpt lat="45.77509" lon="4.63773">
        <ele>616.6</ele>
        <time>2021-09-27T11:45:56.000Z</time>
      </trkpt>
      <trkpt lat="45.77508" lon="4.63771">
        <ele>616.6</ele>
        <time>2021-09-27T11:45:57.000Z</time>
      </trkpt>
      <trkpt lat="45.77507" lon="4.6377">
        <ele>617.2</ele>
        <time>2021-09-27T11:45:59.000Z</time>
      </trkpt>
      <trkpt lat="45.77506" lon="4.63769">
        <ele>617.4</ele>
        <time>2021-09-27T11:46:00.000Z</time>
      </trkpt>
      <trkpt lat="45.77505" lon="4.63768">
        <ele>617.6</ele>
        <time>2021-09-27T11:46:01.000Z</time>
      </trkpt>
      <trkpt lat="45.77504" lon="4.63767">
        <ele>618</ele>
        <time>2021-09-27T11:46:02.000Z</time>
      </trkpt>
      <trkpt lat="45.77504" lon="4.63766">
        <ele>618.2</ele>
        <time>2021-09-27T11:46:03.000Z</time>
      </trkpt>
      <trkpt lat="45.77503" lon="4.63765">
        <ele>618.4</ele>
        <time>2021-09-27T11:46:04.000Z</time>
      </trkpt>
      <trkpt lat="45.77502" lon="4.63764">
        <ele>618.6</ele>
        <time>2021-09-27T11:46:05.000Z</time>
      </trkpt>
      <trkpt lat="45.77501" lon="4.63763">
        <ele>618.8</ele>
        <time>2021-09-27T11:46:06.000Z</time>
      </trkpt>
      <trkpt lat="45.775" lon="4.63762">
        <ele>619</ele>
        <time>2021-09-27T11:46:07.000Z</time>
      </trkpt>
      <trkpt lat="45.77499" lon="4.63761">
        <ele>619.2</ele>
        <time>2021-09-27T11:46:08.000Z</time>
      </trkpt>
      <trkpt lat="45.77498" lon="4.63761">
        <ele>619.4</ele>
        <time>2021-09-27T11:46:09.000Z</time>
      </trkpt>
      <trkpt lat="45.77497" lon="4.63759">
        <ele>619.6</ele>
        <time>2021-09-27T11:46:10.000Z</time>
      </trkpt>
      <trkpt lat="45.77496" lon="4.63758">
        <ele>619.8</ele>
        <time>2021-09-27T11:46:11.000Z</time>
      </trkpt>
      <trkpt lat="45.77495" lon="4.63758">
        <ele>620</ele>
        <time>2021-09-27T11:46:12.000Z</time>
      </trkpt>
      <trkpt lat="45.77495" lon="4.63757">
        <ele>620.2</ele>
        <time>2021-09-27T11:46:13.000Z</time>
      </trkpt>
      <trkpt lat="45.77494" lon="4.63755">
        <ele>620.4</ele>
        <time>2021-09-27T11:46:14.000Z</time>
      </trkpt>
      <trkpt lat="45.77493" lon="4.63754">
        <ele>620.6</ele>
        <time>2021-09-27T11:46:15.000Z</time>
      </trkpt>
      <trkpt lat="45.77492" lon="4.63754">
        <ele>620.8</ele>
        <time>2021-09-27T11:46:16.000Z</time>
      </trkpt>
      <trkpt lat="45.77491" lon="4.63753">
        <ele>621</ele>
        <time>2021-09-27T11:46:17.000Z</time>
      </trkpt>
      <trkpt lat="45.7749" lon="4.63753">
        <ele>621</ele>
        <time>2021-09-27T11:46:18.000Z</time>
      </trkpt>
      <trkpt lat="45.77489" lon="4.63753">
        <ele>621.2</ele>
        <time>2021-09-27T11:46:19.000Z</time>
      </trkpt>
      <trkpt lat="45.77488" lon="4.63752">
        <ele>621.4</ele>
        <time>2021-09-27T11:46:20.000Z</time>
      </trkpt>
      <trkpt lat="45.77487" lon="4.63751">
        <ele>621.4</ele>
        <time>2021-09-27T11:46:21.000Z</time>
      </trkpt>
      <trkpt lat="45.77486" lon="4.63751">
        <ele>621.6</ele>
        <time>2021-09-27T11:46:22.000Z</time>
      </trkpt>
      <trkpt lat="45.77485" lon="4.6375">
        <ele>621.8</ele>
        <time>2021-09-27T11:46:23.000Z</time>
      </trkpt>
      <trkpt lat="45.77484" lon="4.63749">
        <ele>622</ele>
        <time>2021-09-27T11:46:24.000Z</time>
      </trkpt>
      <trkpt lat="45.77483" lon="4.63748">
        <ele>622.2</ele>
        <time>2021-09-27T11:46:25.000Z</time>
      </trkpt>
      <trkpt lat="45.77482" lon="4.63747">
        <ele>622.4</ele>
        <time>2021-09-27T11:46:26.000Z</time>
      </trkpt>
      <trkpt lat="45.77481" lon="4.63746">
        <ele>622.8</ele>
        <time>2021-09-27T11:46:27.000Z</time>
      </trkpt>
      <trkpt lat="45.77479" lon="4.63746">
        <ele>623</ele>
        <time>2021-09-27T11:46:28.000Z</time>
      </trkpt>
      <trkpt lat="45.77478" lon="4.63746">
        <ele>623.2</ele>
        <time>2021-09-27T11:46:29.000Z</time>
      </trkpt>
      <trkpt lat="45.77477" lon="4.63746">
        <ele>623.4</ele>
        <time>2021-09-27T11:46:30.000Z</time>
      </trkpt>
      <trkpt lat="45.77476" lon="4.63745">
        <ele>623.4</ele>
        <time>2021-09-27T11:46:31.000Z</time>
      </trkpt>
      <trkpt lat="45.77475" lon="4.63745">
        <ele>623.8</ele>
        <time>2021-09-27T11:46:32.000Z</time>
      </trkpt>
      <trkpt lat="45.77474" lon="4.63745">
        <ele>624</ele>
        <time>2021-09-27T11:46:33.000Z</time>
      </trkpt>
      <trkpt lat="45.77473" lon="4.63745">
        <ele>624.2</ele>
        <time>2021-09-27T11:46:34.000Z</time>
      </trkpt>
      <trkpt lat="45.77472" lon="4.63745">
        <ele>624.4</ele>
        <time>2021-09-27T11:46:35.000Z</time>
      </trkpt>
      <trkpt lat="45.7747" lon="4.63745">
        <ele>624.6</ele>
        <time>2021-09-27T11:46:36.000Z</time>
      </trkpt>
      <trkpt lat="45.77469" lon="4.63745">
        <ele>624.8</ele>
        <time>2021-09-27T11:46:37.000Z</time>
      </trkpt>
      <trkpt lat="45.77468" lon="4.63745">
        <ele>625</ele>
        <time>2021-09-27T11:46:38.000Z</time>
      </trkpt>
      <trkpt lat="45.77467" lon="4.63744">
        <ele>625.2</ele>
        <time>2021-09-27T11:46:39.000Z</time>
      </trkpt>
      <trkpt lat="45.77466" lon="4.63745">
        <ele>625.4</ele>
        <time>2021-09-27T11:46:40.000Z</time>
      </trkpt>
      <trkpt lat="45.77465" lon="4.63745">
        <ele>625.6</ele>
        <time>2021-09-27T11:46:41.000Z</time>
      </trkpt>
      <trkpt lat="45.77464" lon="4.63745">
        <ele>626</ele>
        <time>2021-09-27T11:46:42.000Z</time>
      </trkpt>
      <trkpt lat="45.77463" lon="4.63746">
        <ele>626.2</ele>
        <time>2021-09-27T11:46:43.000Z</time>
      </trkpt>
      <trkpt lat="45.77462" lon="4.63746">
        <ele>626.4</ele>
        <time>2021-09-27T11:46:44.000Z</time>
      </trkpt>
      <trkpt lat="45.7746" lon="4.63746">
        <ele>626.4</ele>
        <time>2021-09-27T11:46:45.000Z</time>
      </trkpt>
      <trkpt lat="45.77459" lon="4.63746">
        <ele>626.6</ele>
        <time>2021-09-27T11:46:46.000Z</time>
      </trkpt>
      <trkpt lat="45.77457" lon="4.63746">
        <ele>626.8</ele>
        <time>2021-09-27T11:46:47.000Z</time>
      </trkpt>
      <trkpt lat="45.77456" lon="4.63747">
        <ele>626.8</ele>
        <time>2021-09-27T11:46:48.000Z</time>
      </trkpt>
      <trkpt lat="45.77455" lon="4.63747">
        <ele>626.8</ele>
        <time>2021-09-27T11:46:49.000Z</time>
      </trkpt>
      <trkpt lat="45.77454" lon="4.63748">
        <ele>627</ele>
        <time>2021-09-27T11:46:50.000Z</time>
      </trkpt>
      <trkpt lat="45.77453" lon="4.63748">
        <ele>627.2</ele>
        <time>2021-09-27T11:46:51.000Z</time>
      </trkpt>
      <trkpt lat="45.77452" lon="4.63749">
        <ele>627.2</ele>
        <time>2021-09-27T11:46:52.000Z</time>
      </trkpt>
      <trkpt lat="45.77451" lon="4.6375">
        <ele>627.4</ele>
        <time>2021-09-27T11:46:53.000Z</time>
      </trkpt>
      <trkpt lat="45.7745" lon="4.63751">
        <ele>627.4</ele>
        <time>2021-09-27T11:46:54.000Z</time>
      </trkpt>
      <trkpt lat="45.77449" lon="4.63753">
        <ele>627.6</ele>
        <time>2021-09-27T11:46:55.000Z</time>
      </trkpt>
      <trkpt lat="45.77448" lon="4.63755">
        <ele>627.8</ele>
        <time>2021-09-27T11:46:56.000Z</time>
      </trkpt>
      <trkpt lat="45.77448" lon="4.63756">
        <ele>628</ele>
        <time>2021-09-27T11:46:57.000Z</time>
      </trkpt>
      <trkpt lat="45.77447" lon="4.63757">
        <ele>628.2</ele>
        <time>2021-09-27T11:46:58.000Z</time>
      </trkpt>
      <trkpt lat="45.77446" lon="4.63759">
        <ele>628.4</ele>
        <time>2021-09-27T11:46:59.000Z</time>
      </trkpt>
      <trkpt lat="45.77445" lon="4.6376">
        <ele>628.6</ele>
        <time>2021-09-27T11:47:00.000Z</time>
      </trkpt>
      <trkpt lat="45.77444" lon="4.63761">
        <ele>628.8</ele>
        <time>2021-09-27T11:47:01.000Z</time>
      </trkpt>
      <trkpt lat="45.77443" lon="4.63763">
        <ele>629</ele>
        <time>2021-09-27T11:47:02.000Z</time>
      </trkpt>
      <trkpt lat="45.77442" lon="4.63764">
        <ele>629.2</ele>
        <time>2021-09-27T11:47:03.000Z</time>
      </trkpt>
      <trkpt lat="45.77441" lon="4.63765">
        <ele>629.4</ele>
        <time>2021-09-27T11:47:04.000Z</time>
      </trkpt>
      <trkpt lat="45.7744" lon="4.63767">
        <ele>629.6</ele>
        <time>2021-09-27T11:47:05.000Z</time>
      </trkpt>
      <trkpt lat="45.77438" lon="4.63769">
        <ele>629.8</ele>
        <time>2021-09-27T11:47:06.000Z</time>
      </trkpt>
      <trkpt lat="45.77437" lon="4.6377">
        <ele>630</ele>
        <time>2021-09-27T11:47:07.000Z</time>
      </trkpt>
      <trkpt lat="45.77436" lon="4.6377">
        <ele>630.2</ele>
        <time>2021-09-27T11:47:08.000Z</time>
      </trkpt>
      <trkpt lat="45.77435" lon="4.63772">
        <ele>630.2</ele>
        <time>2021-09-27T11:47:09.000Z</time>
      </trkpt>
      <trkpt lat="45.77434" lon="4.63772">
        <ele>630.4</ele>
        <time>2021-09-27T11:47:10.000Z</time>
      </trkpt>
      <trkpt lat="45.77432" lon="4.63773">
        <ele>630.8</ele>
        <time>2021-09-27T11:47:11.000Z</time>
      </trkpt>
      <trkpt lat="45.77431" lon="4.63775">
        <ele>631</ele>
        <time>2021-09-27T11:47:12.000Z</time>
      </trkpt>
      <trkpt lat="45.7743" lon="4.63776">
        <ele>631.2</ele>
        <time>2021-09-27T11:47:13.000Z</time>
      </trkpt>
      <trkpt lat="45.77429" lon="4.63777">
        <ele>631.6</ele>
        <time>2021-09-27T11:47:14.000Z</time>
      </trkpt>
      <trkpt lat="45.77427" lon="4.63778">
        <ele>631.8</ele>
        <time>2021-09-27T11:47:15.000Z</time>
      </trkpt>
      <trkpt lat="45.77426" lon="4.63777">
        <ele>632</ele>
        <time>2021-09-27T11:47:16.000Z</time>
      </trkpt>
      <trkpt lat="45.77425" lon="4.63777">
        <ele>632.4</ele>
        <time>2021-09-27T11:47:17.000Z</time>
      </trkpt>
      <trkpt lat="45.77424" lon="4.63777">
        <ele>632.6</ele>
        <time>2021-09-27T11:47:18.000Z</time>
      </trkpt>
      <trkpt lat="45.77423" lon="4.63777">
        <ele>632.8</ele>
        <time>2021-09-27T11:47:19.000Z</time>
      </trkpt>
      <trkpt lat="45.77422" lon="4.63777">
        <ele>633</ele>
        <time>2021-09-27T11:47:20.000Z</time>
      </trkpt>
      <trkpt lat="45.77421" lon="4.63778">
        <ele>633.2</ele>
        <time>2021-09-27T11:47:21.000Z</time>
      </trkpt>
      <trkpt lat="45.77419" lon="4.63778">
        <ele>633.6</ele>
        <time>2021-09-27T11:47:22.000Z</time>
      </trkpt>
      <trkpt lat="45.77418" lon="4.63779">
        <ele>633.8</ele>
        <time>2021-09-27T11:47:23.000Z</time>
      </trkpt>
      <trkpt lat="45.77417" lon="4.6378">
        <ele>634</ele>
        <time>2021-09-27T11:47:24.000Z</time>
      </trkpt>
      <trkpt lat="45.77416" lon="4.63781">
        <ele>634</ele>
        <time>2021-09-27T11:47:25.000Z</time>
      </trkpt>
      <trkpt lat="45.77415" lon="4.63781">
        <ele>634.2</ele>
        <time>2021-09-27T11:47:26.000Z</time>
      </trkpt>
      <trkpt lat="45.77414" lon="4.63782">
        <ele>634.4</ele>
        <time>2021-09-27T11:47:27.000Z</time>
      </trkpt>
      <trkpt lat="45.77413" lon="4.63782">
        <ele>634.6</ele>
        <time>2021-09-27T11:47:28.000Z</time>
      </trkpt>
      <trkpt lat="45.77412" lon="4.63783">
        <ele>635</ele>
        <time>2021-09-27T11:47:29.000Z</time>
      </trkpt>
      <trkpt lat="45.7741" lon="4.63784">
        <ele>635.2</ele>
        <time>2021-09-27T11:47:30.000Z</time>
      </trkpt>
      <trkpt lat="45.77409" lon="4.63784">
        <ele>635.4</ele>
        <time>2021-09-27T11:47:31.000Z</time>
      </trkpt>
      <trkpt lat="45.77408" lon="4.63785">
        <ele>635.6</ele>
        <time>2021-09-27T11:47:32.000Z</time>
      </trkpt>
      <trkpt lat="45.77407" lon="4.63785">
        <ele>635.6</ele>
        <time>2021-09-27T11:47:33.000Z</time>
      </trkpt>
      <trkpt lat="45.77405" lon="4.63786">
        <ele>635.8</ele>
        <time>2021-09-27T11:47:34.000Z</time>
      </trkpt>
      <trkpt lat="45.77404" lon="4.63787">
        <ele>636</ele>
        <time>2021-09-27T11:47:35.000Z</time>
      </trkpt>
      <trkpt lat="45.77403" lon="4.63787">
        <ele>636.2</ele>
        <time>2021-09-27T11:47:36.000Z</time>
      </trkpt>
      <trkpt lat="45.77402" lon="4.63788">
        <ele>636.2</ele>
        <time>2021-09-27T11:47:37.000Z</time>
      </trkpt>
      <trkpt lat="45.774" lon="4.6379">
        <ele>636.6</ele>
        <time>2021-09-27T11:47:38.000Z</time>
      </trkpt>
      <trkpt lat="45.77399" lon="4.63791">
        <ele>636.8</ele>
        <time>2021-09-27T11:47:39.000Z</time>
      </trkpt>
      <trkpt lat="45.77397" lon="4.63793">
        <ele>636.8</ele>
        <time>2021-09-27T11:47:40.000Z</time>
      </trkpt>
      <trkpt lat="45.77396" lon="4.63794">
        <ele>637</ele>
        <time>2021-09-27T11:47:41.000Z</time>
      </trkpt>
      <trkpt lat="45.77394" lon="4.63795">
        <ele>637.2</ele>
        <time>2021-09-27T11:47:42.000Z</time>
      </trkpt>
      <trkpt lat="45.77393" lon="4.63796">
        <ele>637.2</ele>
        <time>2021-09-27T11:47:43.000Z</time>
      </trkpt>
      <trkpt lat="45.77392" lon="4.63798">
        <ele>637.6</ele>
        <time>2021-09-27T11:47:44.000Z</time>
      </trkpt>
      <trkpt lat="45.7739" lon="4.63799">
        <ele>637.8</ele>
        <time>2021-09-27T11:47:45.000Z</time>
      </trkpt>
      <trkpt lat="45.77389" lon="4.638">
        <ele>638</ele>
        <time>2021-09-27T11:47:46.000Z</time>
      </trkpt>
      <trkpt lat="45.77387" lon="4.63801">
        <ele>638.2</ele>
        <time>2021-09-27T11:47:47.000Z</time>
      </trkpt>
      <trkpt lat="45.77385" lon="4.63802">
        <ele>638.6</ele>
        <time>2021-09-27T11:47:48.000Z</time>
      </trkpt>
      <trkpt lat="45.77384" lon="4.63804">
        <ele>638.8</ele>
        <time>2021-09-27T11:47:49.000Z</time>
      </trkpt>
      <trkpt lat="45.77383" lon="4.63806">
        <ele>639</ele>
        <time>2021-09-27T11:47:50.000Z</time>
      </trkpt>
      <trkpt lat="45.77382" lon="4.63807">
        <ele>639.2</ele>
        <time>2021-09-27T11:47:51.000Z</time>
      </trkpt>
      <trkpt lat="45.7738" lon="4.63807">
        <ele>639.4</ele>
        <time>2021-09-27T11:47:52.000Z</time>
      </trkpt>
      <trkpt lat="45.7738" lon="4.63808">
        <ele>639.6</ele>
        <time>2021-09-27T11:47:53.000Z</time>
      </trkpt>
      <trkpt lat="45.77378" lon="4.63808">
        <ele>639.8</ele>
        <time>2021-09-27T11:47:54.000Z</time>
      </trkpt>
      <trkpt lat="45.77377" lon="4.63809">
        <ele>640</ele>
        <time>2021-09-27T11:47:55.000Z</time>
      </trkpt>
      <trkpt lat="45.77376" lon="4.63811">
        <ele>640.2</ele>
        <time>2021-09-27T11:47:56.000Z</time>
      </trkpt>
      <trkpt lat="45.77375" lon="4.63813">
        <ele>640.2</ele>
        <time>2021-09-27T11:47:57.000Z</time>
      </trkpt>
      <trkpt lat="45.77374" lon="4.63814">
        <ele>640.4</ele>
        <time>2021-09-27T11:47:58.000Z</time>
      </trkpt>
      <trkpt lat="45.77373" lon="4.63815">
        <ele>640.4</ele>
        <time>2021-09-27T11:47:59.000Z</time>
      </trkpt>
      <trkpt lat="45.77372" lon="4.63816">
        <ele>640.4</ele>
        <time>2021-09-27T11:48:00.000Z</time>
      </trkpt>
      <trkpt lat="45.77371" lon="4.63817">
        <ele>640.6</ele>
        <time>2021-09-27T11:48:01.000Z</time>
      </trkpt>
      <trkpt lat="45.7737" lon="4.63818">
        <ele>640.8</ele>
        <time>2021-09-27T11:48:02.000Z</time>
      </trkpt>
      <trkpt lat="45.77369" lon="4.63819">
        <ele>641</ele>
        <time>2021-09-27T11:48:03.000Z</time>
      </trkpt>
      <trkpt lat="45.77368" lon="4.63821">
        <ele>641.2</ele>
        <time>2021-09-27T11:48:04.000Z</time>
      </trkpt>
      <trkpt lat="45.77367" lon="4.63821">
        <ele>641.2</ele>
        <time>2021-09-27T11:48:05.000Z</time>
      </trkpt>
      <trkpt lat="45.77366" lon="4.63822">
        <ele>641.4</ele>
        <time>2021-09-27T11:48:06.000Z</time>
      </trkpt>
      <trkpt lat="45.77363" lon="4.63823">
        <ele>641.6</ele>
        <time>2021-09-27T11:48:07.000Z</time>
      </trkpt>
      <trkpt lat="45.77361" lon="4.63825">
        <ele>641.8</ele>
        <time>2021-09-27T11:48:08.000Z</time>
      </trkpt>
      <trkpt lat="45.77359" lon="4.63826">
        <ele>642</ele>
        <time>2021-09-27T11:48:09.000Z</time>
      </trkpt>
      <trkpt lat="45.77358" lon="4.63828">
        <ele>642.2</ele>
        <time>2021-09-27T11:48:10.000Z</time>
      </trkpt>
      <trkpt lat="45.77356" lon="4.63829">
        <ele>642.4</ele>
        <time>2021-09-27T11:48:11.000Z</time>
      </trkpt>
      <trkpt lat="45.77354" lon="4.63831">
        <ele>642.6</ele>
        <time>2021-09-27T11:48:12.000Z</time>
      </trkpt>
      <trkpt lat="45.77352" lon="4.63832">
        <ele>642.6</ele>
        <time>2021-09-27T11:48:13.000Z</time>
      </trkpt>
      <trkpt lat="45.77351" lon="4.63833">
        <ele>642.8</ele>
        <time>2021-09-27T11:48:14.000Z</time>
      </trkpt>
      <trkpt lat="45.7735" lon="4.63834">
        <ele>643</ele>
        <time>2021-09-27T11:48:15.000Z</time>
      </trkpt>
      <trkpt lat="45.77349" lon="4.63835">
        <ele>643</ele>
        <time>2021-09-27T11:48:16.000Z</time>
      </trkpt>
      <trkpt lat="45.77348" lon="4.63836">
        <ele>643.2</ele>
        <time>2021-09-27T11:48:17.000Z</time>
      </trkpt>
      <trkpt lat="45.77346" lon="4.63836">
        <ele>643.4</ele>
        <time>2021-09-27T11:48:18.000Z</time>
      </trkpt>
      <trkpt lat="45.77344" lon="4.63835">
        <ele>643.6</ele>
        <time>2021-09-27T11:48:19.000Z</time>
      </trkpt>
      <trkpt lat="45.77343" lon="4.63835">
        <ele>643.6</ele>
        <time>2021-09-27T11:48:20.000Z</time>
      </trkpt>
      <trkpt lat="45.77341" lon="4.63835">
        <ele>643.6</ele>
        <time>2021-09-27T11:48:21.000Z</time>
      </trkpt>
      <trkpt lat="45.77339" lon="4.63836">
        <ele>643.6</ele>
        <time>2021-09-27T11:48:22.000Z</time>
      </trkpt>
      <trkpt lat="45.77337" lon="4.63836">
        <ele>643.8</ele>
        <time>2021-09-27T11:48:23.000Z</time>
      </trkpt>
      <trkpt lat="45.77335" lon="4.63837">
        <ele>644.2</ele>
        <time>2021-09-27T11:48:24.000Z</time>
      </trkpt>
      <trkpt lat="45.77333" lon="4.63839">
        <ele>644.4</ele>
        <time>2021-09-27T11:48:25.000Z</time>
      </trkpt>
      <trkpt lat="45.77331" lon="4.63839">
        <ele>644.8</ele>
        <time>2021-09-27T11:48:26.000Z</time>
      </trkpt>
      <trkpt lat="45.77329" lon="4.63839">
        <ele>645</ele>
        <time>2021-09-27T11:48:27.000Z</time>
      </trkpt>
      <trkpt lat="45.77327" lon="4.6384">
        <ele>645.4</ele>
        <time>2021-09-27T11:48:28.000Z</time>
      </trkpt>
      <trkpt lat="45.77326" lon="4.6384">
        <ele>645.4</ele>
        <time>2021-09-27T11:48:29.000Z</time>
      </trkpt>
      <trkpt lat="45.77325" lon="4.6384">
        <ele>645.6</ele>
        <time>2021-09-27T11:48:30.000Z</time>
      </trkpt>
      <trkpt lat="45.77324" lon="4.6384">
        <ele>645.8</ele>
        <time>2021-09-27T11:48:31.000Z</time>
      </trkpt>
      <trkpt lat="45.77323" lon="4.63839">
        <ele>646</ele>
        <time>2021-09-27T11:48:32.000Z</time>
      </trkpt>
      <trkpt lat="45.77321" lon="4.63839">
        <ele>646.2</ele>
        <time>2021-09-27T11:48:33.000Z</time>
      </trkpt>
      <trkpt lat="45.77319" lon="4.63838">
        <ele>646.4</ele>
        <time>2021-09-27T11:48:34.000Z</time>
      </trkpt>
      <trkpt lat="45.77318" lon="4.63837">
        <ele>646.6</ele>
        <time>2021-09-27T11:48:35.000Z</time>
      </trkpt>
      <trkpt lat="45.77316" lon="4.63837">
        <ele>646.8</ele>
        <time>2021-09-27T11:48:36.000Z</time>
      </trkpt>
      <trkpt lat="45.77315" lon="4.63835">
        <ele>647</ele>
        <time>2021-09-27T11:48:37.000Z</time>
      </trkpt>
      <trkpt lat="45.77313" lon="4.63834">
        <ele>647.2</ele>
        <time>2021-09-27T11:48:38.000Z</time>
      </trkpt>
      <trkpt lat="45.77311" lon="4.63834">
        <ele>647.4</ele>
        <time>2021-09-27T11:48:39.000Z</time>
      </trkpt>
      <trkpt lat="45.7731" lon="4.63833">
        <ele>647.8</ele>
        <time>2021-09-27T11:48:40.000Z</time>
      </trkpt>
      <trkpt lat="45.77308" lon="4.63832">
        <ele>648</ele>
        <time>2021-09-27T11:48:41.000Z</time>
      </trkpt>
      <trkpt lat="45.77307" lon="4.6383">
        <ele>648.2</ele>
        <time>2021-09-27T11:48:42.000Z</time>
      </trkpt>
      <trkpt lat="45.77306" lon="4.63829">
        <ele>648.4</ele>
        <time>2021-09-27T11:48:43.000Z</time>
      </trkpt>
      <trkpt lat="45.77304" lon="4.63828">
        <ele>648.6</ele>
        <time>2021-09-27T11:48:44.000Z</time>
      </trkpt>
      <trkpt lat="45.77303" lon="4.63826">
        <ele>648.6</ele>
        <time>2021-09-27T11:48:45.000Z</time>
      </trkpt>
      <trkpt lat="45.77301" lon="4.63825">
        <ele>649</ele>
        <time>2021-09-27T11:48:46.000Z</time>
      </trkpt>
      <trkpt lat="45.773" lon="4.63823">
        <ele>649.2</ele>
        <time>2021-09-27T11:48:47.000Z</time>
      </trkpt>
      <trkpt lat="45.77298" lon="4.63822">
        <ele>649.4</ele>
        <time>2021-09-27T11:48:48.000Z</time>
      </trkpt>
      <trkpt lat="45.77296" lon="4.63821">
        <ele>649.6</ele>
        <time>2021-09-27T11:48:49.000Z</time>
      </trkpt>
      <trkpt lat="45.77294" lon="4.6382">
        <ele>649.8</ele>
        <time>2021-09-27T11:48:50.000Z</time>
      </trkpt>
      <trkpt lat="45.77293" lon="4.63819">
        <ele>650</ele>
        <time>2021-09-27T11:48:51.000Z</time>
      </trkpt>
      <trkpt lat="45.77292" lon="4.63818">
        <ele>650.6</ele>
        <time>2021-09-27T11:48:52.000Z</time>
      </trkpt>
      <trkpt lat="45.7729" lon="4.63817">
        <ele>650.8</ele>
        <time>2021-09-27T11:48:53.000Z</time>
      </trkpt>
      <trkpt lat="45.77289" lon="4.63817">
        <ele>651</ele>
        <time>2021-09-27T11:48:54.000Z</time>
      </trkpt>
      <trkpt lat="45.77288" lon="4.63816">
        <ele>651.2</ele>
        <time>2021-09-27T11:48:55.000Z</time>
      </trkpt>
      <trkpt lat="45.77286" lon="4.63815">
        <ele>651.4</ele>
        <time>2021-09-27T11:48:56.000Z</time>
      </trkpt>
      <trkpt lat="45.77285" lon="4.63815">
        <ele>651.8</ele>
        <time>2021-09-27T11:48:57.000Z</time>
      </trkpt>
      <trkpt lat="45.77283" lon="4.63814">
        <ele>652</ele>
        <time>2021-09-27T11:48:58.000Z</time>
      </trkpt>
      <trkpt lat="45.77282" lon="4.63813">
        <ele>652.4</ele>
        <time>2021-09-27T11:48:59.000Z</time>
      </trkpt>
      <trkpt lat="45.7728" lon="4.63812">
        <ele>652.6</ele>
        <time>2021-09-27T11:49:00.000Z</time>
      </trkpt>
      <trkpt lat="45.77279" lon="4.63811">
        <ele>652.6</ele>
        <time>2021-09-27T11:49:01.000Z</time>
      </trkpt>
      <trkpt lat="45.77277" lon="4.63811">
        <ele>653</ele>
        <time>2021-09-27T11:49:02.000Z</time>
      </trkpt>
      <trkpt lat="45.77276" lon="4.6381">
        <ele>653.2</ele>
        <time>2021-09-27T11:49:03.000Z</time>
      </trkpt>
      <trkpt lat="45.77274" lon="4.63809">
        <ele>653.4</ele>
        <time>2021-09-27T11:49:04.000Z</time>
      </trkpt>
      <trkpt lat="45.77272" lon="4.63809">
        <ele>653.6</ele>
        <time>2021-09-27T11:49:05.000Z</time>
      </trkpt>
      <trkpt lat="45.7727" lon="4.63808">
        <ele>653.8</ele>
        <time>2021-09-27T11:49:06.000Z</time>
      </trkpt>
      <trkpt lat="45.77269" lon="4.63807">
        <ele>654</ele>
        <time>2021-09-27T11:49:07.000Z</time>
      </trkpt>
      <trkpt lat="45.77267" lon="4.63806">
        <ele>654.2</ele>
        <time>2021-09-27T11:49:08.000Z</time>
      </trkpt>
      <trkpt lat="45.77265" lon="4.63805">
        <ele>654.2</ele>
        <time>2021-09-27T11:49:09.000Z</time>
      </trkpt>
      <trkpt lat="45.77263" lon="4.63804">
        <ele>654.2</ele>
        <time>2021-09-27T11:49:10.000Z</time>
      </trkpt>
      <trkpt lat="45.77262" lon="4.63803">
        <ele>654.4</ele>
        <time>2021-09-27T11:49:11.000Z</time>
      </trkpt>
      <trkpt lat="45.7726" lon="4.63801">
        <ele>654.6</ele>
        <time>2021-09-27T11:49:12.000Z</time>
      </trkpt>
      <trkpt lat="45.77259" lon="4.638">
        <ele>654.6</ele>
        <time>2021-09-27T11:49:13.000Z</time>
      </trkpt>
      <trkpt lat="45.77258" lon="4.63799">
        <ele>654.8</ele>
        <time>2021-09-27T11:49:14.000Z</time>
      </trkpt>
      <trkpt lat="45.77256" lon="4.63797">
        <ele>654.8</ele>
        <time>2021-09-27T11:49:15.000Z</time>
      </trkpt>
      <trkpt lat="45.77254" lon="4.63796">
        <ele>654.8</ele>
        <time>2021-09-27T11:49:16.000Z</time>
      </trkpt>
      <trkpt lat="45.77253" lon="4.63794">
        <ele>655</ele>
        <time>2021-09-27T11:49:17.000Z</time>
      </trkpt>
      <trkpt lat="45.77253" lon="4.63792">
        <ele>655.2</ele>
        <time>2021-09-27T11:49:18.000Z</time>
      </trkpt>
      <trkpt lat="45.77252" lon="4.63791">
        <ele>655.4</ele>
        <time>2021-09-27T11:49:19.000Z</time>
      </trkpt>
      <trkpt lat="45.7725" lon="4.63789">
        <ele>655.6</ele>
        <time>2021-09-27T11:49:20.000Z</time>
      </trkpt>
      <trkpt lat="45.77249" lon="4.63787">
        <ele>655.8</ele>
        <time>2021-09-27T11:49:21.000Z</time>
      </trkpt>
      <trkpt lat="45.77248" lon="4.63785">
        <ele>655.8</ele>
        <time>2021-09-27T11:49:22.000Z</time>
      </trkpt>
      <trkpt lat="45.77248" lon="4.63783">
        <ele>656</ele>
        <time>2021-09-27T11:49:23.000Z</time>
      </trkpt>
      <trkpt lat="45.77248" lon="4.6378">
        <ele>656.2</ele>
        <time>2021-09-27T11:49:24.000Z</time>
      </trkpt>
      <trkpt lat="45.77247" lon="4.63778">
        <ele>656.2</ele>
        <time>2021-09-27T11:49:25.000Z</time>
      </trkpt>
      <trkpt lat="45.77246" lon="4.63776">
        <ele>656.4</ele>
        <time>2021-09-27T11:49:26.000Z</time>
      </trkpt>
      <trkpt lat="45.77246" lon="4.63774">
        <ele>656.6</ele>
        <time>2021-09-27T11:49:27.000Z</time>
      </trkpt>
      <trkpt lat="45.77245" lon="4.63772">
        <ele>657</ele>
        <time>2021-09-27T11:49:28.000Z</time>
      </trkpt>
      <trkpt lat="45.77244" lon="4.6377">
        <ele>657.2</ele>
        <time>2021-09-27T11:49:29.000Z</time>
      </trkpt>
      <trkpt lat="45.77243" lon="4.63767">
        <ele>657.4</ele>
        <time>2021-09-27T11:49:30.000Z</time>
      </trkpt>
      <trkpt lat="45.77243" lon="4.63764">
        <ele>657.6</ele>
        <time>2021-09-27T11:49:31.000Z</time>
      </trkpt>
      <trkpt lat="45.77241" lon="4.63762">
        <ele>657.8</ele>
        <time>2021-09-27T11:49:32.000Z</time>
      </trkpt>
      <trkpt lat="45.7724" lon="4.6376">
        <ele>657.8</ele>
        <time>2021-09-27T11:49:33.000Z</time>
      </trkpt>
      <trkpt lat="45.77239" lon="4.63758">
        <ele>658.2</ele>
        <time>2021-09-27T11:49:34.000Z</time>
      </trkpt>
      <trkpt lat="45.77239" lon="4.63755">
        <ele>658.4</ele>
        <time>2021-09-27T11:49:35.000Z</time>
      </trkpt>
      <trkpt lat="45.77238" lon="4.63753">
        <ele>658.6</ele>
        <time>2021-09-27T11:49:36.000Z</time>
      </trkpt>
      <trkpt lat="45.77237" lon="4.63751">
        <ele>658.8</ele>
        <time>2021-09-27T11:49:37.000Z</time>
      </trkpt>
      <trkpt lat="45.77236" lon="4.63749">
        <ele>659</ele>
        <time>2021-09-27T11:49:38.000Z</time>
      </trkpt>
      <trkpt lat="45.77235" lon="4.63747">
        <ele>659.2</ele>
        <time>2021-09-27T11:49:39.000Z</time>
      </trkpt>
      <trkpt lat="45.77234" lon="4.63745">
        <ele>659.4</ele>
        <time>2021-09-27T11:49:40.000Z</time>
      </trkpt>
      <trkpt lat="45.77233" lon="4.63744">
        <ele>659.6</ele>
        <time>2021-09-27T11:49:41.000Z</time>
      </trkpt>
      <trkpt lat="45.77232" lon="4.63742">
        <ele>660</ele>
        <time>2021-09-27T11:49:42.000Z</time>
      </trkpt>
      <trkpt lat="45.7723" lon="4.63739">
        <ele>660.4</ele>
        <time>2021-09-27T11:49:43.000Z</time>
      </trkpt>
      <trkpt lat="45.77229" lon="4.63737">
        <ele>660.4</ele>
        <time>2021-09-27T11:49:44.000Z</time>
      </trkpt>
      <trkpt lat="45.77228" lon="4.63735">
        <ele>660.8</ele>
        <time>2021-09-27T11:49:45.000Z</time>
      </trkpt>
      <trkpt lat="45.77227" lon="4.63733">
        <ele>661.2</ele>
        <time>2021-09-27T11:49:46.000Z</time>
      </trkpt>
      <trkpt lat="45.77226" lon="4.63731">
        <ele>661.4</ele>
        <time>2021-09-27T11:49:47.000Z</time>
      </trkpt>
      <trkpt lat="45.77226" lon="4.6373">
        <ele>661.8</ele>
        <time>2021-09-27T11:49:48.000Z</time>
      </trkpt>
      <trkpt lat="45.77224" lon="4.63729">
        <ele>661.8</ele>
        <time>2021-09-27T11:49:49.000Z</time>
      </trkpt>
      <trkpt lat="45.77223" lon="4.63728">
        <ele>662.2</ele>
        <time>2021-09-27T11:49:50.000Z</time>
      </trkpt>
      <trkpt lat="45.77222" lon="4.63727">
        <ele>662.6</ele>
        <time>2021-09-27T11:49:51.000Z</time>
      </trkpt>
      <trkpt lat="45.77221" lon="4.63726">
        <ele>663</ele>
        <time>2021-09-27T11:49:52.000Z</time>
      </trkpt>
      <trkpt lat="45.77219" lon="4.63726">
        <ele>663.4</ele>
        <time>2021-09-27T11:49:53.000Z</time>
      </trkpt>
      <trkpt lat="45.77217" lon="4.63726">
        <ele>663.6</ele>
        <time>2021-09-27T11:49:54.000Z</time>
      </trkpt>
      <trkpt lat="45.77216" lon="4.63726">
        <ele>664</ele>
        <time>2021-09-27T11:49:55.000Z</time>
      </trkpt>
      <trkpt lat="45.77214" lon="4.63726">
        <ele>664.4</ele>
        <time>2021-09-27T11:49:56.000Z</time>
      </trkpt>
      <trkpt lat="45.77212" lon="4.63725">
        <ele>664.4</ele>
        <time>2021-09-27T11:49:57.000Z</time>
      </trkpt>
      <trkpt lat="45.7721" lon="4.63724">
        <ele>664.6</ele>
        <time>2021-09-27T11:49:58.000Z</time>
      </trkpt>
      <trkpt lat="45.77209" lon="4.63723">
        <ele>664.6</ele>
        <time>2021-09-27T11:49:59.000Z</time>
      </trkpt>
      <trkpt lat="45.77208" lon="4.63722">
        <ele>665</ele>
        <time>2021-09-27T11:50:00.000Z</time>
      </trkpt>
      <trkpt lat="45.77206" lon="4.63722">
        <ele>665</ele>
        <time>2021-09-27T11:50:01.000Z</time>
      </trkpt>
      <trkpt lat="45.77205" lon="4.63723">
        <ele>665.2</ele>
        <time>2021-09-27T11:50:02.000Z</time>
      </trkpt>
      <trkpt lat="45.77203" lon="4.63723">
        <ele>665.4</ele>
        <time>2021-09-27T11:50:03.000Z</time>
      </trkpt>
      <trkpt lat="45.77202" lon="4.63723">
        <ele>665.6</ele>
        <time>2021-09-27T11:50:04.000Z</time>
      </trkpt>
      <trkpt lat="45.772" lon="4.63724">
        <ele>666</ele>
        <time>2021-09-27T11:50:05.000Z</time>
      </trkpt>
      <trkpt lat="45.77199" lon="4.63723">
        <ele>666.2</ele>
        <time>2021-09-27T11:50:06.000Z</time>
      </trkpt>
      <trkpt lat="45.77197" lon="4.63722">
        <ele>666.4</ele>
        <time>2021-09-27T11:50:07.000Z</time>
      </trkpt>
      <trkpt lat="45.77196" lon="4.63722">
        <ele>666.8</ele>
        <time>2021-09-27T11:50:08.000Z</time>
      </trkpt>
      <trkpt lat="45.77195" lon="4.63721">
        <ele>667</ele>
        <time>2021-09-27T11:50:09.000Z</time>
      </trkpt>
      <trkpt lat="45.77194" lon="4.63721">
        <ele>667.2</ele>
        <time>2021-09-27T11:50:10.000Z</time>
      </trkpt>
      <trkpt lat="45.77193" lon="4.6372">
        <ele>667.6</ele>
        <time>2021-09-27T11:50:11.000Z</time>
      </trkpt>
      <trkpt lat="45.77192" lon="4.63719">
        <ele>667.8</ele>
        <time>2021-09-27T11:50:12.000Z</time>
      </trkpt>
      <trkpt lat="45.7719" lon="4.63718">
        <ele>668</ele>
        <time>2021-09-27T11:50:13.000Z</time>
      </trkpt>
      <trkpt lat="45.77188" lon="4.63717">
        <ele>668.4</ele>
        <time>2021-09-27T11:50:14.000Z</time>
      </trkpt>
      <trkpt lat="45.77186" lon="4.63716">
        <ele>668.6</ele>
        <time>2021-09-27T11:50:15.000Z</time>
      </trkpt>
      <trkpt lat="45.77185" lon="4.63715">
        <ele>668.8</ele>
        <time>2021-09-27T11:50:16.000Z</time>
      </trkpt>
      <trkpt lat="45.77183" lon="4.63714">
        <ele>669.2</ele>
        <time>2021-09-27T11:50:17.000Z</time>
      </trkpt>
      <trkpt lat="45.77181" lon="4.63713">
        <ele>669.4</ele>
        <time>2021-09-27T11:50:18.000Z</time>
      </trkpt>
      <trkpt lat="45.7718" lon="4.63712">
        <ele>669.6</ele>
        <time>2021-09-27T11:50:19.000Z</time>
      </trkpt>
      <trkpt lat="45.77178" lon="4.63712">
        <ele>670</ele>
        <time>2021-09-27T11:50:20.000Z</time>
      </trkpt>
      <trkpt lat="45.77177" lon="4.63711">
        <ele>670</ele>
        <time>2021-09-27T11:50:21.000Z</time>
      </trkpt>
      <trkpt lat="45.77176" lon="4.63711">
        <ele>670.2</ele>
        <time>2021-09-27T11:50:22.000Z</time>
      </trkpt>
      <trkpt lat="45.77175" lon="4.6371">
        <ele>670.6</ele>
        <time>2021-09-27T11:50:23.000Z</time>
      </trkpt>
      <trkpt lat="45.77174" lon="4.6371">
        <ele>670.8</ele>
        <time>2021-09-27T11:50:24.000Z</time>
      </trkpt>
      <trkpt lat="45.77173" lon="4.63709">
        <ele>671.2</ele>
        <time>2021-09-27T11:50:25.000Z</time>
      </trkpt>
      <trkpt lat="45.77171" lon="4.63709">
        <ele>671.4</ele>
        <time>2021-09-27T11:50:26.000Z</time>
      </trkpt>
      <trkpt lat="45.7717" lon="4.63707">
        <ele>671.8</ele>
        <time>2021-09-27T11:50:27.000Z</time>
      </trkpt>
      <trkpt lat="45.77168" lon="4.63707">
        <ele>672.2</ele>
        <time>2021-09-27T11:50:28.000Z</time>
      </trkpt>
      <trkpt lat="45.77167" lon="4.63706">
        <ele>672.4</ele>
        <time>2021-09-27T11:50:29.000Z</time>
      </trkpt>
      <trkpt lat="45.77166" lon="4.63705">
        <ele>672.8</ele>
        <time>2021-09-27T11:50:30.000Z</time>
      </trkpt>
      <trkpt lat="45.77165" lon="4.63704">
        <ele>673</ele>
        <time>2021-09-27T11:50:31.000Z</time>
      </trkpt>
      <trkpt lat="45.77165" lon="4.63703">
        <ele>673.4</ele>
        <time>2021-09-27T11:50:32.000Z</time>
      </trkpt>
      <trkpt lat="45.77163" lon="4.63702">
        <ele>673.6</ele>
        <time>2021-09-27T11:50:33.000Z</time>
      </trkpt>
      <trkpt lat="45.77162" lon="4.63701">
        <ele>673.8</ele>
        <time>2021-09-27T11:50:34.000Z</time>
      </trkpt>
      <trkpt lat="45.77161" lon="4.63701">
        <ele>674.2</ele>
        <time>2021-09-27T11:50:35.000Z</time>
      </trkpt>
      <trkpt lat="45.7716" lon="4.63701">
        <ele>674.4</ele>
        <time>2021-09-27T11:50:36.000Z</time>
      </trkpt>
      <trkpt lat="45.77159" lon="4.63701">
        <ele>674.6</ele>
        <time>2021-09-27T11:50:37.000Z</time>
      </trkpt>
      <trkpt lat="45.77158" lon="4.63701">
        <ele>674.8</ele>
        <time>2021-09-27T11:50:38.000Z</time>
      </trkpt>
      <trkpt lat="45.77157" lon="4.63701">
        <ele>675</ele>
        <time>2021-09-27T11:50:39.000Z</time>
      </trkpt>
      <trkpt lat="45.77155" lon="4.637">
        <ele>675.4</ele>
        <time>2021-09-27T11:50:40.000Z</time>
      </trkpt>
      <trkpt lat="45.77154" lon="4.637">
        <ele>675.6</ele>
        <time>2021-09-27T11:50:41.000Z</time>
      </trkpt>
      <trkpt lat="45.77153" lon="4.637">
        <ele>675.8</ele>
        <time>2021-09-27T11:50:42.000Z</time>
      </trkpt>
      <trkpt lat="45.77151" lon="4.637">
        <ele>676.2</ele>
        <time>2021-09-27T11:50:43.000Z</time>
      </trkpt>
      <trkpt lat="45.7715" lon="4.637">
        <ele>676.4</ele>
        <time>2021-09-27T11:50:44.000Z</time>
      </trkpt>
      <trkpt lat="45.77149" lon="4.63699">
        <ele>676.4</ele>
        <time>2021-09-27T11:50:45.000Z</time>
      </trkpt>
      <trkpt lat="45.77147" lon="4.63699">
        <ele>676.6</ele>
        <time>2021-09-27T11:50:46.000Z</time>
      </trkpt>
      <trkpt lat="45.77145" lon="4.63699">
        <ele>676.8</ele>
        <time>2021-09-27T11:50:47.000Z</time>
      </trkpt>
      <trkpt lat="45.77143" lon="4.63699">
        <ele>677</ele>
        <time>2021-09-27T11:50:48.000Z</time>
      </trkpt>
      <trkpt lat="45.77142" lon="4.637">
        <ele>677.4</ele>
        <time>2021-09-27T11:50:49.000Z</time>
      </trkpt>
      <trkpt lat="45.77141" lon="4.63701">
        <ele>677.6</ele>
        <time>2021-09-27T11:50:50.000Z</time>
      </trkpt>
      <trkpt lat="45.77139" lon="4.63701">
        <ele>677.8</ele>
        <time>2021-09-27T11:50:51.000Z</time>
      </trkpt>
      <trkpt lat="45.77138" lon="4.63701">
        <ele>678</ele>
        <time>2021-09-27T11:50:52.000Z</time>
      </trkpt>
      <trkpt lat="45.77135" lon="4.63701">
        <ele>678.4</ele>
        <time>2021-09-27T11:50:53.000Z</time>
      </trkpt>
      <trkpt lat="45.77133" lon="4.63701">
        <ele>678.6</ele>
        <time>2021-09-27T11:50:54.000Z</time>
      </trkpt>
      <trkpt lat="45.77132" lon="4.63701">
        <ele>679</ele>
        <time>2021-09-27T11:50:55.000Z</time>
      </trkpt>
      <trkpt lat="45.77131" lon="4.63701">
        <ele>679.2</ele>
        <time>2021-09-27T11:50:56.000Z</time>
      </trkpt>
      <trkpt lat="45.77129" lon="4.63701">
        <ele>679.4</ele>
        <time>2021-09-27T11:50:57.000Z</time>
      </trkpt>
      <trkpt lat="45.77127" lon="4.63702">
        <ele>679.6</ele>
        <time>2021-09-27T11:50:58.000Z</time>
      </trkpt>
      <trkpt lat="45.77125" lon="4.63703">
        <ele>679.8</ele>
        <time>2021-09-27T11:50:59.000Z</time>
      </trkpt>
      <trkpt lat="45.77124" lon="4.63702">
        <ele>680</ele>
        <time>2021-09-27T11:51:00.000Z</time>
      </trkpt>
      <trkpt lat="45.77122" lon="4.63702">
        <ele>680.2</ele>
        <time>2021-09-27T11:51:01.000Z</time>
      </trkpt>
      <trkpt lat="45.7712" lon="4.63702">
        <ele>680.4</ele>
        <time>2021-09-27T11:51:02.000Z</time>
      </trkpt>
      <trkpt lat="45.77118" lon="4.63702">
        <ele>680.6</ele>
        <time>2021-09-27T11:51:03.000Z</time>
      </trkpt>
      <trkpt lat="45.77116" lon="4.63702">
        <ele>681</ele>
        <time>2021-09-27T11:51:04.000Z</time>
      </trkpt>
      <trkpt lat="45.77114" lon="4.63701">
        <ele>681.2</ele>
        <time>2021-09-27T11:51:05.000Z</time>
      </trkpt>
      <trkpt lat="45.77112" lon="4.637">
        <ele>681.6</ele>
        <time>2021-09-27T11:51:07.000Z</time>
      </trkpt>
      <trkpt lat="45.77111" lon="4.637">
        <ele>681.8</ele>
        <time>2021-09-27T11:51:08.000Z</time>
      </trkpt>
      <trkpt lat="45.7711" lon="4.63699">
        <ele>681.8</ele>
        <time>2021-09-27T11:51:09.000Z</time>
      </trkpt>
      <trkpt lat="45.77108" lon="4.63699">
        <ele>682.2</ele>
        <time>2021-09-27T11:51:10.000Z</time>
      </trkpt>
      <trkpt lat="45.77106" lon="4.63698">
        <ele>682.2</ele>
        <time>2021-09-27T11:51:11.000Z</time>
      </trkpt>
      <trkpt lat="45.77105" lon="4.63697">
        <ele>682.6</ele>
        <time>2021-09-27T11:51:12.000Z</time>
      </trkpt>
      <trkpt lat="45.77104" lon="4.63697">
        <ele>682.8</ele>
        <time>2021-09-27T11:51:13.000Z</time>
      </trkpt>
      <trkpt lat="45.77103" lon="4.63697">
        <ele>682.8</ele>
        <time>2021-09-27T11:51:14.000Z</time>
      </trkpt>
      <trkpt lat="45.77102" lon="4.63696">
        <ele>683</ele>
        <time>2021-09-27T11:51:15.000Z</time>
      </trkpt>
      <trkpt lat="45.771" lon="4.63696">
        <ele>683.2</ele>
        <time>2021-09-27T11:51:16.000Z</time>
      </trkpt>
      <trkpt lat="45.77099" lon="4.63696">
        <ele>683.4</ele>
        <time>2021-09-27T11:51:17.000Z</time>
      </trkpt>
      <trkpt lat="45.77098" lon="4.63696">
        <ele>683.6</ele>
        <time>2021-09-27T11:51:18.000Z</time>
      </trkpt>
      <trkpt lat="45.77098" lon="4.63695">
        <ele>683.6</ele>
        <time>2021-09-27T11:51:19.000Z</time>
      </trkpt>
      <trkpt lat="45.77097" lon="4.63694">
        <ele>683.8</ele>
        <time>2021-09-27T11:51:20.000Z</time>
      </trkpt>
      <trkpt lat="45.77096" lon="4.63692">
        <ele>684</ele>
        <time>2021-09-27T11:51:21.000Z</time>
      </trkpt>
      <trkpt lat="45.77094" lon="4.63692">
        <ele>684.2</ele>
        <time>2021-09-27T11:51:22.000Z</time>
      </trkpt>
      <trkpt lat="45.77092" lon="4.63691">
        <ele>684.4</ele>
        <time>2021-09-27T11:51:23.000Z</time>
      </trkpt>
      <trkpt lat="45.77089" lon="4.63692">
        <ele>684.6</ele>
        <time>2021-09-27T11:51:24.000Z</time>
      </trkpt>
      <trkpt lat="45.77087" lon="4.63691">
        <ele>684.8</ele>
        <time>2021-09-27T11:51:25.000Z</time>
      </trkpt>
      <trkpt lat="45.77085" lon="4.63691">
        <ele>684.8</ele>
        <time>2021-09-27T11:51:26.000Z</time>
      </trkpt>
      <trkpt lat="45.77083" lon="4.63691">
        <ele>685</ele>
        <time>2021-09-27T11:51:27.000Z</time>
      </trkpt>
      <trkpt lat="45.77082" lon="4.63691">
        <ele>685</ele>
        <time>2021-09-27T11:51:28.000Z</time>
      </trkpt>
      <trkpt lat="45.7708" lon="4.63692">
        <ele>685.2</ele>
        <time>2021-09-27T11:51:29.000Z</time>
      </trkpt>
      <trkpt lat="45.77079" lon="4.63691">
        <ele>685.6</ele>
        <time>2021-09-27T11:51:30.000Z</time>
      </trkpt>
      <trkpt lat="45.77078" lon="4.63689">
        <ele>685.8</ele>
        <time>2021-09-27T11:51:31.000Z</time>
      </trkpt>
      <trkpt lat="45.77077" lon="4.63689">
        <ele>685.8</ele>
        <time>2021-09-27T11:51:32.000Z</time>
      </trkpt>
      <trkpt lat="45.77076" lon="4.63689">
        <ele>685.8</ele>
        <time>2021-09-27T11:51:33.000Z</time>
      </trkpt>
      <trkpt lat="45.77074" lon="4.63689">
        <ele>686.2</ele>
        <time>2021-09-27T11:51:34.000Z</time>
      </trkpt>
      <trkpt lat="45.77073" lon="4.63689">
        <ele>686.2</ele>
        <time>2021-09-27T11:51:35.000Z</time>
      </trkpt>
      <trkpt lat="45.77072" lon="4.63688">
        <ele>686.6</ele>
        <time>2021-09-27T11:51:36.000Z</time>
      </trkpt>
      <trkpt lat="45.77071" lon="4.63687">
        <ele>686.6</ele>
        <time>2021-09-27T11:51:37.000Z</time>
      </trkpt>
      <trkpt lat="45.7707" lon="4.63687">
        <ele>687</ele>
        <time>2021-09-27T11:51:38.000Z</time>
      </trkpt>
      <trkpt lat="45.77068" lon="4.63687">
        <ele>687.2</ele>
        <time>2021-09-27T11:51:39.000Z</time>
      </trkpt>
      <trkpt lat="45.77066" lon="4.63686">
        <ele>687.2</ele>
        <time>2021-09-27T11:51:40.000Z</time>
      </trkpt>
      <trkpt lat="45.77064" lon="4.63687">
        <ele>687.4</ele>
        <time>2021-09-27T11:51:41.000Z</time>
      </trkpt>
      <trkpt lat="45.77063" lon="4.63687">
        <ele>687.6</ele>
        <time>2021-09-27T11:51:42.000Z</time>
      </trkpt>
      <trkpt lat="45.77062" lon="4.63687">
        <ele>687.8</ele>
        <time>2021-09-27T11:51:43.000Z</time>
      </trkpt>
      <trkpt lat="45.77061" lon="4.63688">
        <ele>688</ele>
        <time>2021-09-27T11:51:44.000Z</time>
      </trkpt>
      <trkpt lat="45.7706" lon="4.63688">
        <ele>688.4</ele>
        <time>2021-09-27T11:51:45.000Z</time>
      </trkpt>
      <trkpt lat="45.77058" lon="4.63688">
        <ele>688.4</ele>
        <time>2021-09-27T11:51:46.000Z</time>
      </trkpt>
      <trkpt lat="45.77057" lon="4.63688">
        <ele>688.8</ele>
        <time>2021-09-27T11:51:47.000Z</time>
      </trkpt>
      <trkpt lat="45.77055" lon="4.63688">
        <ele>689</ele>
        <time>2021-09-27T11:51:48.000Z</time>
      </trkpt>
      <trkpt lat="45.77054" lon="4.63688">
        <ele>689.2</ele>
        <time>2021-09-27T11:51:49.000Z</time>
      </trkpt>
      <trkpt lat="45.77053" lon="4.63687">
        <ele>689.2</ele>
        <time>2021-09-27T11:51:50.000Z</time>
      </trkpt>
      <trkpt lat="45.77052" lon="4.63687">
        <ele>689.6</ele>
        <time>2021-09-27T11:51:51.000Z</time>
      </trkpt>
      <trkpt lat="45.7705" lon="4.63688">
        <ele>689.8</ele>
        <time>2021-09-27T11:51:52.000Z</time>
      </trkpt>
      <trkpt lat="45.77049" lon="4.63688">
        <ele>690</ele>
        <time>2021-09-27T11:51:53.000Z</time>
      </trkpt>
      <trkpt lat="45.77047" lon="4.63687">
        <ele>690</ele>
        <time>2021-09-27T11:51:54.000Z</time>
      </trkpt>
      <trkpt lat="45.77046" lon="4.63688">
        <ele>690.4</ele>
        <time>2021-09-27T11:51:55.000Z</time>
      </trkpt>
      <trkpt lat="45.77044" lon="4.63687">
        <ele>690.6</ele>
        <time>2021-09-27T11:51:56.000Z</time>
      </trkpt>
      <trkpt lat="45.77043" lon="4.63687">
        <ele>690.6</ele>
        <time>2021-09-27T11:51:57.000Z</time>
      </trkpt>
      <trkpt lat="45.77042" lon="4.63686">
        <ele>690.6</ele>
        <time>2021-09-27T11:51:58.000Z</time>
      </trkpt>
      <trkpt lat="45.7704" lon="4.63686">
        <ele>691</ele>
        <time>2021-09-27T11:51:59.000Z</time>
      </trkpt>
      <trkpt lat="45.77038" lon="4.63686">
        <ele>691.2</ele>
        <time>2021-09-27T11:52:00.000Z</time>
      </trkpt>
      <trkpt lat="45.77036" lon="4.63686">
        <ele>691.2</ele>
        <time>2021-09-27T11:52:01.000Z</time>
      </trkpt>
      <trkpt lat="45.77033" lon="4.63686">
        <ele>691.2</ele>
        <time>2021-09-27T11:52:02.000Z</time>
      </trkpt>
      <trkpt lat="45.7703" lon="4.63686">
        <ele>691.8</ele>
        <time>2021-09-27T11:52:03.000Z</time>
      </trkpt>
      <trkpt lat="45.77027" lon="4.63686">
        <ele>692</ele>
        <time>2021-09-27T11:52:04.000Z</time>
      </trkpt>
      <trkpt lat="45.77025" lon="4.63687">
        <ele>692.2</ele>
        <time>2021-09-27T11:52:05.000Z</time>
      </trkpt>
      <trkpt lat="45.77023" lon="4.63686">
        <ele>692.2</ele>
        <time>2021-09-27T11:52:06.000Z</time>
      </trkpt>
      <trkpt lat="45.77021" lon="4.63685">
        <ele>692.4</ele>
        <time>2021-09-27T11:52:07.000Z</time>
      </trkpt>
      <trkpt lat="45.77019" lon="4.63685">
        <ele>692.8</ele>
        <time>2021-09-27T11:52:08.000Z</time>
      </trkpt>
      <trkpt lat="45.77017" lon="4.63685">
        <ele>693.2</ele>
        <time>2021-09-27T11:52:09.000Z</time>
      </trkpt>
      <trkpt lat="45.77015" lon="4.63685">
        <ele>693.2</ele>
        <time>2021-09-27T11:52:10.000Z</time>
      </trkpt>
      <trkpt lat="45.77014" lon="4.63685">
        <ele>693.6</ele>
        <time>2021-09-27T11:52:11.000Z</time>
      </trkpt>
      <trkpt lat="45.77013" lon="4.63685">
        <ele>694</ele>
        <time>2021-09-27T11:52:12.000Z</time>
      </trkpt>
      <trkpt lat="45.77012" lon="4.63685">
        <ele>694.2</ele>
        <time>2021-09-27T11:52:13.000Z</time>
      </trkpt>
      <trkpt lat="45.77009" lon="4.63686">
        <ele>694.6</ele>
        <time>2021-09-27T11:52:14.000Z</time>
      </trkpt>
      <trkpt lat="45.77007" lon="4.63686">
        <ele>695</ele>
        <time>2021-09-27T11:52:15.000Z</time>
      </trkpt>
      <trkpt lat="45.77005" lon="4.63685">
        <ele>695.4</ele>
        <time>2021-09-27T11:52:16.000Z</time>
      </trkpt>
      <trkpt lat="45.77004" lon="4.63685">
        <ele>695.6</ele>
        <time>2021-09-27T11:52:17.000Z</time>
      </trkpt>
      <trkpt lat="45.77003" lon="4.63683">
        <ele>696.2</ele>
        <time>2021-09-27T11:52:18.000Z</time>
      </trkpt>
      <trkpt lat="45.77002" lon="4.63682">
        <ele>696.4</ele>
        <time>2021-09-27T11:52:19.000Z</time>
      </trkpt>
      <trkpt lat="45.77001" lon="4.63681">
        <ele>696.4</ele>
        <time>2021-09-27T11:52:20.000Z</time>
      </trkpt>
      <trkpt lat="45.77" lon="4.63679">
        <ele>696.4</ele>
        <time>2021-09-27T11:52:21.000Z</time>
      </trkpt>
      <trkpt lat="45.76999" lon="4.63678">
        <ele>696.6</ele>
        <time>2021-09-27T11:52:22.000Z</time>
      </trkpt>
      <trkpt lat="45.76998" lon="4.63678">
        <ele>696.8</ele>
        <time>2021-09-27T11:52:23.000Z</time>
      </trkpt>
      <trkpt lat="45.76996" lon="4.63677">
        <ele>697</ele>
        <time>2021-09-27T11:52:24.000Z</time>
      </trkpt>
      <trkpt lat="45.76995" lon="4.63678">
        <ele>697.2</ele>
        <time>2021-09-27T11:52:25.000Z</time>
      </trkpt>
      <trkpt lat="45.76993" lon="4.63677">
        <ele>697.2</ele>
        <time>2021-09-27T11:52:26.000Z</time>
      </trkpt>
      <trkpt lat="45.76992" lon="4.63676">
        <ele>697.6</ele>
        <time>2021-09-27T11:52:27.000Z</time>
      </trkpt>
      <trkpt lat="45.7699" lon="4.63676">
        <ele>697.8</ele>
        <time>2021-09-27T11:52:28.000Z</time>
      </trkpt>
      <trkpt lat="45.7699" lon="4.63675">
        <ele>698.2</ele>
        <time>2021-09-27T11:52:29.000Z</time>
      </trkpt>
      <trkpt lat="45.76988" lon="4.63674">
        <ele>698.4</ele>
        <time>2021-09-27T11:52:30.000Z</time>
      </trkpt>
      <trkpt lat="45.76986" lon="4.63673">
        <ele>698.6</ele>
        <time>2021-09-27T11:52:31.000Z</time>
      </trkpt>
      <trkpt lat="45.76984" lon="4.63672">
        <ele>698.8</ele>
        <time>2021-09-27T11:52:32.000Z</time>
      </trkpt>
      <trkpt lat="45.76983" lon="4.63671">
        <ele>698.8</ele>
        <time>2021-09-27T11:52:33.000Z</time>
      </trkpt>
      <trkpt lat="45.76982" lon="4.6367">
        <ele>699</ele>
        <time>2021-09-27T11:52:34.000Z</time>
      </trkpt>
      <trkpt lat="45.76981" lon="4.63669">
        <ele>699.2</ele>
        <time>2021-09-27T11:52:35.000Z</time>
      </trkpt>
      <trkpt lat="45.7698" lon="4.63667">
        <ele>699.6</ele>
        <time>2021-09-27T11:52:36.000Z</time>
      </trkpt>
      <trkpt lat="45.76979" lon="4.63666">
        <ele>699.8</ele>
        <time>2021-09-27T11:52:37.000Z</time>
      </trkpt>
      <trkpt lat="45.76977" lon="4.63665">
        <ele>699.8</ele>
        <time>2021-09-27T11:52:38.000Z</time>
      </trkpt>
      <trkpt lat="45.76976" lon="4.63664">
        <ele>700</ele>
        <time>2021-09-27T11:52:39.000Z</time>
      </trkpt>
      <trkpt lat="45.76974" lon="4.63663">
        <ele>700.2</ele>
        <time>2021-09-27T11:52:40.000Z</time>
      </trkpt>
      <trkpt lat="45.76973" lon="4.63662">
        <ele>700.4</ele>
        <time>2021-09-27T11:52:41.000Z</time>
      </trkpt>
      <trkpt lat="45.76971" lon="4.63661">
        <ele>700.6</ele>
        <time>2021-09-27T11:52:42.000Z</time>
      </trkpt>
      <trkpt lat="45.7697" lon="4.6366">
        <ele>700.8</ele>
        <time>2021-09-27T11:52:43.000Z</time>
      </trkpt>
      <trkpt lat="45.76969" lon="4.63659">
        <ele>701</ele>
        <time>2021-09-27T11:52:44.000Z</time>
      </trkpt>
      <trkpt lat="45.76968" lon="4.63658">
        <ele>701</ele>
        <time>2021-09-27T11:52:45.000Z</time>
      </trkpt>
      <trkpt lat="45.76966" lon="4.63657">
        <ele>701</ele>
        <time>2021-09-27T11:52:46.000Z</time>
      </trkpt>
      <trkpt lat="45.76965" lon="4.63656">
        <ele>701.2</ele>
        <time>2021-09-27T11:52:47.000Z</time>
      </trkpt>
      <trkpt lat="45.76963" lon="4.63655">
        <ele>701.4</ele>
        <time>2021-09-27T11:52:48.000Z</time>
      </trkpt>
      <trkpt lat="45.76962" lon="4.63654">
        <ele>701.4</ele>
        <time>2021-09-27T11:52:49.000Z</time>
      </trkpt>
      <trkpt lat="45.7696" lon="4.63653">
        <ele>701.6</ele>
        <time>2021-09-27T11:52:50.000Z</time>
      </trkpt>
      <trkpt lat="45.76959" lon="4.63652">
        <ele>701.6</ele>
        <time>2021-09-27T11:52:51.000Z</time>
      </trkpt>
      <trkpt lat="45.76958" lon="4.63651">
        <ele>701.8</ele>
        <time>2021-09-27T11:52:52.000Z</time>
      </trkpt>
      <trkpt lat="45.76957" lon="4.63649">
        <ele>702</ele>
        <time>2021-09-27T11:52:53.000Z</time>
      </trkpt>
      <trkpt lat="45.76955" lon="4.63648">
        <ele>702.2</ele>
        <time>2021-09-27T11:52:54.000Z</time>
      </trkpt>
      <trkpt lat="45.76954" lon="4.63645">
        <ele>702.2</ele>
        <time>2021-09-27T11:52:55.000Z</time>
      </trkpt>
      <trkpt lat="45.76953" lon="4.63644">
        <ele>702.4</ele>
        <time>2021-09-27T11:52:56.000Z</time>
      </trkpt>
      <trkpt lat="45.76951" lon="4.63642">
        <ele>702.4</ele>
        <time>2021-09-27T11:52:57.000Z</time>
      </trkpt>
      <trkpt lat="45.7695" lon="4.6364">
        <ele>702.6</ele>
        <time>2021-09-27T11:52:58.000Z</time>
      </trkpt>
      <trkpt lat="45.76949" lon="4.63639">
        <ele>702.6</ele>
        <time>2021-09-27T11:52:59.000Z</time>
      </trkpt>
      <trkpt lat="45.76948" lon="4.63637">
        <ele>702.8</ele>
        <time>2021-09-27T11:53:00.000Z</time>
      </trkpt>
      <trkpt lat="45.76947" lon="4.63634">
        <ele>702.8</ele>
        <time>2021-09-27T11:53:01.000Z</time>
      </trkpt>
      <trkpt lat="45.76946" lon="4.63632">
        <ele>703</ele>
        <time>2021-09-27T11:53:02.000Z</time>
      </trkpt>
      <trkpt lat="45.76945" lon="4.6363">
        <ele>703</ele>
        <time>2021-09-27T11:53:03.000Z</time>
      </trkpt>
      <trkpt lat="45.76944" lon="4.63628">
        <ele>703.2</ele>
        <time>2021-09-27T11:53:04.000Z</time>
      </trkpt>
      <trkpt lat="45.76943" lon="4.63626">
        <ele>703.2</ele>
        <time>2021-09-27T11:53:05.000Z</time>
      </trkpt>
      <trkpt lat="45.76942" lon="4.63624">
        <ele>703.4</ele>
        <time>2021-09-27T11:53:06.000Z</time>
      </trkpt>
      <trkpt lat="45.7694" lon="4.63623">
        <ele>703.6</ele>
        <time>2021-09-27T11:53:07.000Z</time>
      </trkpt>
      <trkpt lat="45.76939" lon="4.63621">
        <ele>703.8</ele>
        <time>2021-09-27T11:53:08.000Z</time>
      </trkpt>
      <trkpt lat="45.76938" lon="4.63619">
        <ele>704</ele>
        <time>2021-09-27T11:53:09.000Z</time>
      </trkpt>
      <trkpt lat="45.76937" lon="4.63617">
        <ele>704</ele>
        <time>2021-09-27T11:53:10.000Z</time>
      </trkpt>
      <trkpt lat="45.76936" lon="4.63616">
        <ele>704</ele>
        <time>2021-09-27T11:53:11.000Z</time>
      </trkpt>
      <trkpt lat="45.76935" lon="4.63614">
        <ele>704.2</ele>
        <time>2021-09-27T11:53:12.000Z</time>
      </trkpt>
      <trkpt lat="45.76934" lon="4.63614">
        <ele>704.4</ele>
        <time>2021-09-27T11:53:13.000Z</time>
      </trkpt>
      <trkpt lat="45.76932" lon="4.63612">
        <ele>704.4</ele>
        <time>2021-09-27T11:53:14.000Z</time>
      </trkpt>
      <trkpt lat="45.7693" lon="4.6361">
        <ele>704.6</ele>
        <time>2021-09-27T11:53:15.000Z</time>
      </trkpt>
      <trkpt lat="45.76929" lon="4.63608">
        <ele>704.8</ele>
        <time>2021-09-27T11:53:16.000Z</time>
      </trkpt>
      <trkpt lat="45.76929" lon="4.63606">
        <ele>704.8</ele>
        <time>2021-09-27T11:53:17.000Z</time>
      </trkpt>
      <trkpt lat="45.76928" lon="4.63604">
        <ele>705</ele>
        <time>2021-09-27T11:53:18.000Z</time>
      </trkpt>
      <trkpt lat="45.76928" lon="4.63603">
        <ele>705</ele>
        <time>2021-09-27T11:53:19.000Z</time>
      </trkpt>
      <trkpt lat="45.76937" lon="4.63502">
        <ele>721.2</ele>
        <time>2021-09-27T11:57:34.000Z</time>
      </trkpt>
      <trkpt lat="45.76935" lon="4.63499">
        <ele>714.4</ele>
        <time>2021-09-27T11:57:35.000Z</time>
      </trkpt>
      <trkpt lat="45.76934" lon="4.63496">
        <ele>714.4</ele>
        <time>2021-09-27T11:57:36.000Z</time>
      </trkpt>
      <trkpt lat="45.76934" lon="4.63494">
        <ele>714.4</ele>
        <time>2021-09-27T11:57:37.000Z</time>
      </trkpt>
      <trkpt lat="45.76934" lon="4.63492">
        <ele>714.4</ele>
        <time>2021-09-27T11:57:38.000Z</time>
      </trkpt>
      <trkpt lat="45.76933" lon="4.6349">
        <ele>714.4</ele>
        <time>2021-09-27T11:57:39.000Z</time>
      </trkpt>
      <trkpt lat="45.76933" lon="4.63487">
        <ele>714.6</ele>
        <time>2021-09-27T11:57:40.000Z</time>
      </trkpt>
      <trkpt lat="45.76932" lon="4.63485">
        <ele>714.6</ele>
        <time>2021-09-27T11:57:41.000Z</time>
      </trkpt>
      <trkpt lat="45.76931" lon="4.63482">
        <ele>714.8</ele>
        <time>2021-09-27T11:57:42.000Z</time>
      </trkpt>
      <trkpt lat="45.76931" lon="4.6348">
        <ele>714.8</ele>
        <time>2021-09-27T11:57:43.000Z</time>
      </trkpt>
      <trkpt lat="45.7693" lon="4.63478">
        <ele>714.8</ele>
        <time>2021-09-27T11:57:44.000Z</time>
      </trkpt>
      <trkpt lat="45.7693" lon="4.63474">
        <ele>715</ele>
        <time>2021-09-27T11:57:45.000Z</time>
      </trkpt>
      <trkpt lat="45.76929" lon="4.63471">
        <ele>715</ele>
        <time>2021-09-27T11:57:46.000Z</time>
      </trkpt>
      <trkpt lat="45.76928" lon="4.63468">
        <ele>715.2</ele>
        <time>2021-09-27T11:57:47.000Z</time>
      </trkpt>
      <trkpt lat="45.76928" lon="4.63465">
        <ele>715.4</ele>
        <time>2021-09-27T11:57:48.000Z</time>
      </trkpt>
      <trkpt lat="45.76928" lon="4.63461">
        <ele>715.4</ele>
        <time>2021-09-27T11:57:49.000Z</time>
      </trkpt>
      <trkpt lat="45.76927" lon="4.63459">
        <ele>715.6</ele>
        <time>2021-09-27T11:57:50.000Z</time>
      </trkpt>
      <trkpt lat="45.76927" lon="4.63457">
        <ele>715.8</ele>
        <time>2021-09-27T11:57:51.000Z</time>
      </trkpt>
      <trkpt lat="45.76928" lon="4.63454">
        <ele>716</ele>
        <time>2021-09-27T11:57:52.000Z</time>
      </trkpt>
      <trkpt lat="45.76929" lon="4.63453">
        <ele>716.2</ele>
        <time>2021-09-27T11:57:53.000Z</time>
      </trkpt>
      <trkpt lat="45.7693" lon="4.6345">
        <ele>716.2</ele>
        <time>2021-09-27T11:57:54.000Z</time>
      </trkpt>
      <trkpt lat="45.76932" lon="4.63447">
        <ele>716.4</ele>
        <time>2021-09-27T11:57:55.000Z</time>
      </trkpt>
      <trkpt lat="45.76932" lon="4.63444">
        <ele>716.6</ele>
        <time>2021-09-27T11:57:56.000Z</time>
      </trkpt>
      <trkpt lat="45.76933" lon="4.63441">
        <ele>716.6</ele>
        <time>2021-09-27T11:57:57.000Z</time>
      </trkpt>
      <trkpt lat="45.76933" lon="4.63437">
        <ele>716.8</ele>
        <time>2021-09-27T11:57:58.000Z</time>
      </trkpt>
      <trkpt lat="45.76933" lon="4.63432">
        <ele>716.8</ele>
        <time>2021-09-27T11:57:59.000Z</time>
      </trkpt>
      <trkpt lat="45.76932" lon="4.6343">
        <ele>717</ele>
        <time>2021-09-27T11:58:00.000Z</time>
      </trkpt>
      <trkpt lat="45.76931" lon="4.63426">
        <ele>717.4</ele>
        <time>2021-09-27T11:58:01.000Z</time>
      </trkpt>
      <trkpt lat="45.76932" lon="4.63424">
        <ele>717.4</ele>
        <time>2021-09-27T11:58:02.000Z</time>
      </trkpt>
      <trkpt lat="45.76931" lon="4.63421">
        <ele>717.6</ele>
        <time>2021-09-27T11:58:03.000Z</time>
      </trkpt>
      <trkpt lat="45.76932" lon="4.63418">
        <ele>717.8</ele>
        <time>2021-09-27T11:58:04.000Z</time>
      </trkpt>
      <trkpt lat="45.76932" lon="4.63415">
        <ele>718.2</ele>
        <time>2021-09-27T11:58:05.000Z</time>
      </trkpt>
      <trkpt lat="45.76931" lon="4.63414">
        <ele>718.4</ele>
        <time>2021-09-27T11:58:06.000Z</time>
      </trkpt>
      <trkpt lat="45.76931" lon="4.63412">
        <ele>718.6</ele>
        <time>2021-09-27T11:58:07.000Z</time>
      </trkpt>
      <trkpt lat="45.76931" lon="4.6341">
        <ele>718.8</ele>
        <time>2021-09-27T11:58:08.000Z</time>
      </trkpt>
      <trkpt lat="45.76931" lon="4.63409">
        <ele>719</ele>
        <time>2021-09-27T11:58:09.000Z</time>
      </trkpt>
      <trkpt lat="45.76932" lon="4.63407">
        <ele>719</ele>
        <time>2021-09-27T11:58:10.000Z</time>
      </trkpt>
      <trkpt lat="45.76932" lon="4.63406">
        <ele>719.2</ele>
        <time>2021-09-27T11:58:11.000Z</time>
      </trkpt>
      <trkpt lat="45.76933" lon="4.63405">
        <ele>719.4</ele>
        <time>2021-09-27T11:58:12.000Z</time>
      </trkpt>
      <trkpt lat="45.76934" lon="4.63404">
        <ele>719.4</ele>
        <time>2021-09-27T11:58:13.000Z</time>
      </trkpt>
      <trkpt lat="45.76935" lon="4.63403">
        <ele>719.6</ele>
        <time>2021-09-27T11:58:14.000Z</time>
      </trkpt>
      <trkpt lat="45.76936" lon="4.63402">
        <ele>719.8</ele>
        <time>2021-09-27T11:58:15.000Z</time>
      </trkpt>
      <trkpt lat="45.76937" lon="4.634">
        <ele>719.8</ele>
        <time>2021-09-27T11:58:16.000Z</time>
      </trkpt>
      <trkpt lat="45.76939" lon="4.63399">
        <ele>720</ele>
        <time>2021-09-27T11:58:17.000Z</time>
      </trkpt>
      <trkpt lat="45.76939" lon="4.63397">
        <ele>720.2</ele>
        <time>2021-09-27T11:58:18.000Z</time>
      </trkpt>
      <trkpt lat="45.7694" lon="4.63396">
        <ele>720.8</ele>
        <time>2021-09-27T11:58:19.000Z</time>
      </trkpt>
      <trkpt lat="45.7694" lon="4.63394">
        <ele>721</ele>
        <time>2021-09-27T11:58:20.000Z</time>
      </trkpt>
      <trkpt lat="45.7694" lon="4.63392">
        <ele>721.4</ele>
        <time>2021-09-27T11:58:21.000Z</time>
      </trkpt>
      <trkpt lat="45.7694" lon="4.6339">
        <ele>722</ele>
        <time>2021-09-27T11:58:22.000Z</time>
      </trkpt>
      <trkpt lat="45.7694" lon="4.63388">
        <ele>722.2</ele>
        <time>2021-09-27T11:58:23.000Z</time>
      </trkpt>
      <trkpt lat="45.7694" lon="4.63386">
        <ele>722.6</ele>
        <time>2021-09-27T11:58:24.000Z</time>
      </trkpt>
      <trkpt lat="45.76939" lon="4.63383">
        <ele>723</ele>
        <time>2021-09-27T11:58:25.000Z</time>
      </trkpt>
      <trkpt lat="45.76939" lon="4.63381">
        <ele>723</ele>
        <time>2021-09-27T11:58:26.000Z</time>
      </trkpt>
      <trkpt lat="45.76939" lon="4.63379">
        <ele>723.2</ele>
        <time>2021-09-27T11:58:27.000Z</time>
      </trkpt>
      <trkpt lat="45.76938" lon="4.63376">
        <ele>723.4</ele>
        <time>2021-09-27T11:58:28.000Z</time>
      </trkpt>
      <trkpt lat="45.76937" lon="4.63373">
        <ele>723.8</ele>
        <time>2021-09-27T11:58:29.000Z</time>
      </trkpt>
      <trkpt lat="45.76936" lon="4.63369">
        <ele>723.8</ele>
        <time>2021-09-27T11:58:30.000Z</time>
      </trkpt>
      <trkpt lat="45.76936" lon="4.63367">
        <ele>724</ele>
        <time>2021-09-27T11:58:31.000Z</time>
      </trkpt>
      <trkpt lat="45.76935" lon="4.63364">
        <ele>724</ele>
        <time>2021-09-27T11:58:32.000Z</time>
      </trkpt>
      <trkpt lat="45.76935" lon="4.63362">
        <ele>724</ele>
        <time>2021-09-27T11:58:33.000Z</time>
      </trkpt>
      <trkpt lat="45.76933" lon="4.6336">
        <ele>724</ele>
        <time>2021-09-27T11:58:34.000Z</time>
      </trkpt>
      <trkpt lat="45.76933" lon="4.63357">
        <ele>724</ele>
        <time>2021-09-27T11:58:35.000Z</time>
      </trkpt>
      <trkpt lat="45.76933" lon="4.63354">
        <ele>724</ele>
        <time>2021-09-27T11:58:36.000Z</time>
      </trkpt>
      <trkpt lat="45.76933" lon="4.63351">
        <ele>724</ele>
        <time>2021-09-27T11:58:37.000Z</time>
      </trkpt>
      <trkpt lat="45.76933" lon="4.63348">
        <ele>724</ele>
        <time>2021-09-27T11:58:38.000Z</time>
      </trkpt>
      <trkpt lat="45.76934" lon="4.63346">
        <ele>724</ele>
        <time>2021-09-27T11:58:39.000Z</time>
      </trkpt>
      <trkpt lat="45.76934" lon="4.63344">
        <ele>724</ele>
        <time>2021-09-27T11:58:40.000Z</time>
      </trkpt>
      <trkpt lat="45.76935" lon="4.63342">
        <ele>724</ele>
        <time>2021-09-27T11:58:41.000Z</time>
      </trkpt>
      <trkpt lat="45.76936" lon="4.6334">
        <ele>724</ele>
        <time>2021-09-27T11:58:42.000Z</time>
      </trkpt>
      <trkpt lat="45.76936" lon="4.63338">
        <ele>724</ele>
        <time>2021-09-27T11:58:43.000Z</time>
      </trkpt>
      <trkpt lat="45.76937" lon="4.63336">
        <ele>724</ele>
        <time>2021-09-27T11:58:44.000Z</time>
      </trkpt>
      <trkpt lat="45.76938" lon="4.63334">
        <ele>724</ele>
        <time>2021-09-27T11:58:45.000Z</time>
      </trkpt>
      <trkpt lat="45.76939" lon="4.63332">
        <ele>724</ele>
        <time>2021-09-27T11:58:46.000Z</time>
      </trkpt>
      <trkpt lat="45.7694" lon="4.63329">
        <ele>724</ele>
        <time>2021-09-27T11:58:47.000Z</time>
      </trkpt>
      <trkpt lat="45.76939" lon="4.63326">
        <ele>724</ele>
        <time>2021-09-27T11:58:48.000Z</time>
      </trkpt>
      <trkpt lat="45.76939" lon="4.63324">
        <ele>724</ele>
        <time>2021-09-27T11:58:49.000Z</time>
      </trkpt>
      <trkpt lat="45.76939" lon="4.63323">
        <ele>724</ele>
        <time>2021-09-27T11:58:50.000Z</time>
      </trkpt>
      <trkpt lat="45.7694" lon="4.63322">
        <ele>724</ele>
        <time>2021-09-27T11:58:51.000Z</time>
      </trkpt>
      <trkpt lat="45.7694" lon="4.6332">
        <ele>724.2</ele>
        <time>2021-09-27T11:58:52.000Z</time>
      </trkpt>
      <trkpt lat="45.7694" lon="4.63318">
        <ele>724.2</ele>
        <time>2021-09-27T11:58:54.000Z</time>
      </trkpt>
      <trkpt lat="45.7694" lon="4.63316">
        <ele>724.2</ele>
        <time>2021-09-27T11:58:55.000Z</time>
      </trkpt>
      <trkpt lat="45.76941" lon="4.63314">
        <ele>724.2</ele>
        <time>2021-09-27T11:58:56.000Z</time>
      </trkpt>
      <trkpt lat="45.76941" lon="4.63313">
        <ele>724.2</ele>
        <time>2021-09-27T11:58:57.000Z</time>
      </trkpt>
      <trkpt lat="45.76942" lon="4.63312">
        <ele>724.2</ele>
        <time>2021-09-27T11:58:58.000Z</time>
      </trkpt>
      <trkpt lat="45.76943" lon="4.63311">
        <ele>724.2</ele>
        <time>2021-09-27T11:58:59.000Z</time>
      </trkpt>
      <trkpt lat="45.76944" lon="4.6331">
        <ele>724.2</ele>
        <time>2021-09-27T11:59:00.000Z</time>
      </trkpt>
      <trkpt lat="45.76944" lon="4.63309">
        <ele>724.2</ele>
        <time>2021-09-27T11:59:01.000Z</time>
      </trkpt>
      <trkpt lat="45.76945" lon="4.63309">
        <ele>724.2</ele>
        <time>2021-09-27T11:59:02.000Z</time>
      </trkpt>
      <trkpt lat="45.76946" lon="4.6331">
        <ele>724.4</ele>
        <time>2021-09-27T11:59:03.000Z</time>
      </trkpt>
      <trkpt lat="45.76946" lon="4.63311">
        <ele>724.4</ele>
        <time>2021-09-27T11:59:04.000Z</time>
      </trkpt>
      <trkpt lat="45.76947" lon="4.63314">
        <ele>724.4</ele>
        <time>2021-09-27T11:59:06.000Z</time>
      </trkpt>
      <trkpt lat="45.76948" lon="4.63315">
        <ele>724.4</ele>
        <time>2021-09-27T11:59:07.000Z</time>
      </trkpt>
      <trkpt lat="45.76949" lon="4.63316">
        <ele>724.4</ele>
        <time>2021-09-27T11:59:08.000Z</time>
      </trkpt>
      <trkpt lat="45.7695" lon="4.63318">
        <ele>724.4</ele>
        <time>2021-09-27T11:59:10.000Z</time>
      </trkpt>
      <trkpt lat="45.76951" lon="4.63318">
        <ele>724.4</ele>
        <time>2021-09-27T11:59:11.000Z</time>
      </trkpt>
      <trkpt lat="45.76951" lon="4.63319">
        <ele>724.4</ele>
        <time>2021-09-27T11:59:12.000Z</time>
      </trkpt>
      <trkpt lat="45.76952" lon="4.63319">
        <ele>724.4</ele>
        <time>2021-09-27T11:59:13.000Z</time>
      </trkpt>
      <trkpt lat="45.76955" lon="4.63321">
        <ele>724.6</ele>
        <time>2021-09-27T11:59:16.000Z</time>
      </trkpt>
      <trkpt lat="45.76955" lon="4.63322">
        <ele>724.8</ele>
        <time>2021-09-27T11:59:17.000Z</time>
      </trkpt>
      <trkpt lat="45.76956" lon="4.63323">
        <ele>725</ele>
        <time>2021-09-27T11:59:19.000Z</time>
      </trkpt>
      <trkpt lat="45.76957" lon="4.63324">
        <ele>725.2</ele>
        <time>2021-09-27T11:59:20.000Z</time>
      </trkpt>
      <trkpt lat="45.76958" lon="4.63326">
        <ele>725</ele>
        <time>2021-09-27T11:59:22.000Z</time>
      </trkpt>
      <trkpt lat="45.76959" lon="4.63326">
        <ele>725</ele>
        <time>2021-09-27T11:59:23.000Z</time>
      </trkpt>
      <trkpt lat="45.76961" lon="4.63326">
        <ele>725.4</ele>
        <time>2021-09-27T11:59:25.000Z</time>
      </trkpt>
      <trkpt lat="45.76964" lon="4.63325">
        <ele>725.6</ele>
        <time>2021-09-27T11:59:28.000Z</time>
      </trkpt>
      <trkpt lat="45.76966" lon="4.63325">
        <ele>725.8</ele>
        <time>2021-09-27T11:59:30.000Z</time>
      </trkpt>
      <trkpt lat="45.76968" lon="4.63323">
        <ele>726</ele>
        <time>2021-09-27T11:59:32.000Z</time>
      </trkpt>
      <trkpt lat="45.7697" lon="4.63322">
        <ele>726</ele>
        <time>2021-09-27T11:59:33.000Z</time>
      </trkpt>
      <trkpt lat="45.76973" lon="4.63322">
        <ele>726.2</ele>
        <time>2021-09-27T11:59:35.000Z</time>
      </trkpt>
      <trkpt lat="45.76974" lon="4.63322">
        <ele>726.2</ele>
        <time>2021-09-27T11:59:36.000Z</time>
      </trkpt>
      <trkpt lat="45.76975" lon="4.63323">
        <ele>726.2</ele>
        <time>2021-09-27T11:59:37.000Z</time>
      </trkpt>
      <trkpt lat="45.76976" lon="4.63324">
        <ele>726.2</ele>
        <time>2021-09-27T11:59:38.000Z</time>
      </trkpt>
      <trkpt lat="45.76976" lon="4.63325">
        <ele>726.2</ele>
        <time>2021-09-27T11:59:39.000Z</time>
      </trkpt>
      <trkpt lat="45.76977" lon="4.63327">
        <ele>726.2</ele>
        <time>2021-09-27T11:59:40.000Z</time>
      </trkpt>
      <trkpt lat="45.76978" lon="4.63328">
        <ele>726.2</ele>
        <time>2021-09-27T11:59:41.000Z</time>
      </trkpt>
      <trkpt lat="45.76979" lon="4.63329">
        <ele>726.4</ele>
        <time>2021-09-27T11:59:43.000Z</time>
      </trkpt>
      <trkpt lat="45.7698" lon="4.6333">
        <ele>726.4</ele>
        <time>2021-09-27T11:59:44.000Z</time>
      </trkpt>
      <trkpt lat="45.76981" lon="4.63331">
        <ele>726.4</ele>
        <time>2021-09-27T11:59:45.000Z</time>
      </trkpt>
      <trkpt lat="45.76982" lon="4.63332">
        <ele>726.4</ele>
        <time>2021-09-27T11:59:46.000Z</time>
      </trkpt>
      <trkpt lat="45.76983" lon="4.63333">
        <ele>726.4</ele>
        <time>2021-09-27T11:59:47.000Z</time>
      </trkpt>
      <trkpt lat="45.76985" lon="4.63335">
        <ele>726.6</ele>
        <time>2021-09-27T11:59:49.000Z</time>
      </trkpt>
      <trkpt lat="45.76994" lon="4.63345">
        <ele>727.2</ele>
        <time>2021-09-27T11:59:57.000Z</time>
      </trkpt>
      <trkpt lat="45.76996" lon="4.63349">
        <ele>727.4</ele>
        <time>2021-09-27T11:59:59.000Z</time>
      </trkpt>
      <trkpt lat="45.76996" lon="4.63351">
        <ele>727.4</ele>
        <time>2021-09-27T12:00:00.000Z</time>
      </trkpt>
      <trkpt lat="45.76995" lon="4.63353">
        <ele>727.4</ele>
        <time>2021-09-27T12:00:01.000Z</time>
      </trkpt>
      <trkpt lat="45.76996" lon="4.63355">
        <ele>727.6</ele>
        <time>2021-09-27T12:00:02.000Z</time>
      </trkpt>
      <trkpt lat="45.76996" lon="4.63357">
        <ele>727.6</ele>
        <time>2021-09-27T12:00:03.000Z</time>
      </trkpt>
      <trkpt lat="45.76997" lon="4.63359">
        <ele>727.6</ele>
        <time>2021-09-27T12:00:04.000Z</time>
      </trkpt>
      <trkpt lat="45.76998" lon="4.63361">
        <ele>727.6</ele>
        <time>2021-09-27T12:00:05.000Z</time>
      </trkpt>
      <trkpt lat="45.76999" lon="4.63361">
        <ele>727.8</ele>
        <time>2021-09-27T12:00:06.000Z</time>
      </trkpt>
      <trkpt lat="45.77" lon="4.63362">
        <ele>727.8</ele>
        <time>2021-09-27T12:00:07.000Z</time>
      </trkpt>
      <trkpt lat="45.77001" lon="4.63364">
        <ele>728</ele>
        <time>2021-09-27T12:00:08.000Z</time>
      </trkpt>
      <trkpt lat="45.77004" lon="4.63369">
        <ele>728.4</ele>
        <time>2021-09-27T12:00:11.000Z</time>
      </trkpt>
      <trkpt lat="45.77007" lon="4.63376">
        <ele>728.8</ele>
        <time>2021-09-27T12:00:15.000Z</time>
      </trkpt>
      <trkpt lat="45.7701" lon="4.63384">
        <ele>729</ele>
        <time>2021-09-27T12:00:19.000Z</time>
      </trkpt>
      <trkpt lat="45.77012" lon="4.63387">
        <ele>729</ele>
        <time>2021-09-27T12:00:21.000Z</time>
      </trkpt>
      <trkpt lat="45.77014" lon="4.6339">
        <ele>729.2</ele>
        <time>2021-09-27T12:00:23.000Z</time>
      </trkpt>
      <trkpt lat="45.77015" lon="4.63391">
        <ele>729.2</ele>
        <time>2021-09-27T12:00:24.000Z</time>
      </trkpt>
      <trkpt lat="45.77017" lon="4.63393">
        <ele>729.4</ele>
        <time>2021-09-27T12:00:25.000Z</time>
      </trkpt>
      <trkpt lat="45.77018" lon="4.63394">
        <ele>729.6</ele>
        <time>2021-09-27T12:00:26.000Z</time>
      </trkpt>
      <trkpt lat="45.7702" lon="4.63398">
        <ele>729.8</ele>
        <time>2021-09-27T12:00:28.000Z</time>
      </trkpt>
      <trkpt lat="45.77022" lon="4.63402">
        <ele>729.8</ele>
        <time>2021-09-27T12:00:30.000Z</time>
      </trkpt>
      <trkpt lat="45.77026" lon="4.63412">
        <ele>730.2</ele>
        <time>2021-09-27T12:00:35.000Z</time>
      </trkpt>
      <trkpt lat="45.77027" lon="4.63414">
        <ele>730.2</ele>
        <time>2021-09-27T12:00:36.000Z</time>
      </trkpt>
      <trkpt lat="45.77029" lon="4.63421">
        <ele>730.4</ele>
        <time>2021-09-27T12:00:39.000Z</time>
      </trkpt>
      <trkpt lat="45.77029" lon="4.63423">
        <ele>730.6</ele>
        <time>2021-09-27T12:00:40.000Z</time>
      </trkpt>
      <trkpt lat="45.77029" lon="4.63426">
        <ele>730.8</ele>
        <time>2021-09-27T12:00:41.000Z</time>
      </trkpt>
      <trkpt lat="45.7703" lon="4.63428">
        <ele>731</ele>
        <time>2021-09-27T12:00:42.000Z</time>
      </trkpt>
      <trkpt lat="45.77032" lon="4.63432">
        <ele>731.4</ele>
        <time>2021-09-27T12:00:44.000Z</time>
      </trkpt>
      <trkpt lat="45.77033" lon="4.63434">
        <ele>731.6</ele>
        <time>2021-09-27T12:00:45.000Z</time>
      </trkpt>
      <trkpt lat="45.77035" lon="4.63436">
        <ele>731.8</ele>
        <time>2021-09-27T12:00:46.000Z</time>
      </trkpt>
      <trkpt lat="45.7704" lon="4.63446">
        <ele>732.2</ele>
        <time>2021-09-27T12:00:49.000Z</time>
      </trkpt>
      <trkpt lat="45.77042" lon="4.63448">
        <ele>732.2</ele>
        <time>2021-09-27T12:00:50.000Z</time>
      </trkpt>
      <trkpt lat="45.77044" lon="4.6345">
        <ele>732.2</ele>
        <time>2021-09-27T12:00:51.000Z</time>
      </trkpt>
      <trkpt lat="45.77046" lon="4.63454">
        <ele>732.2</ele>
        <time>2021-09-27T12:00:52.000Z</time>
      </trkpt>
      <trkpt lat="45.77047" lon="4.63456">
        <ele>732.2</ele>
        <time>2021-09-27T12:00:53.000Z</time>
      </trkpt>
      <trkpt lat="45.77048" lon="4.63457">
        <ele>732.2</ele>
        <time>2021-09-27T12:00:54.000Z</time>
      </trkpt>
      <trkpt lat="45.77049" lon="4.63458">
        <ele>732.2</ele>
        <time>2021-09-27T12:00:55.000Z</time>
      </trkpt>
      <trkpt lat="45.77051" lon="4.63457">
        <ele>732.2</ele>
        <time>2021-09-27T12:00:56.000Z</time>
      </trkpt>
      <trkpt lat="45.77053" lon="4.63456">
        <ele>732.2</ele>
        <time>2021-09-27T12:00:57.000Z</time>
      </trkpt>
      <trkpt lat="45.77055" lon="4.63455">
        <ele>732.2</ele>
        <time>2021-09-27T12:00:58.000Z</time>
      </trkpt>
      <trkpt lat="45.77058" lon="4.6345">
        <ele>729.8</ele>
        <time>2021-09-27T12:01:22.000Z</time>
      </trkpt>
      <trkpt lat="45.77068" lon="4.63433">
        <ele>729.6</ele>
        <time>2021-09-27T12:01:26.000Z</time>
      </trkpt>
      <trkpt lat="45.77073" lon="4.63424">
        <ele>729.6</ele>
        <time>2021-09-27T12:01:28.000Z</time>
      </trkpt>
      <trkpt lat="45.77076" lon="4.6342">
        <ele>729.4</ele>
        <time>2021-09-27T12:01:29.000Z</time>
      </trkpt>
      <trkpt lat="45.77079" lon="4.63418">
        <ele>729.2</ele>
        <time>2021-09-27T12:01:30.000Z</time>
      </trkpt>
      <trkpt lat="45.77082" lon="4.63414">
        <ele>729</ele>
        <time>2021-09-27T12:01:31.000Z</time>
      </trkpt>
      <trkpt lat="45.77082" lon="4.63408">
        <ele>728.6</ele>
        <time>2021-09-27T12:01:32.000Z</time>
      </trkpt>
      <trkpt lat="45.77083" lon="4.63403">
        <ele>728</ele>
        <time>2021-09-27T12:01:33.000Z</time>
      </trkpt>
      <trkpt lat="45.77084" lon="4.63398">
        <ele>727.4</ele>
        <time>2021-09-27T12:01:34.000Z</time>
      </trkpt>
      <trkpt lat="45.77088" lon="4.63395">
        <ele>726.8</ele>
        <time>2021-09-27T12:01:35.000Z</time>
      </trkpt>
      <trkpt lat="45.77092" lon="4.63395">
        <ele>726.2</ele>
        <time>2021-09-27T12:01:36.000Z</time>
      </trkpt>
      <trkpt lat="45.77097" lon="4.63396">
        <ele>725.6</ele>
        <time>2021-09-27T12:01:37.000Z</time>
      </trkpt>
      <trkpt lat="45.77102" lon="4.63397">
        <ele>724.8</ele>
        <time>2021-09-27T12:01:38.000Z</time>
      </trkpt>
      <trkpt lat="45.77107" lon="4.63398">
        <ele>724.8</ele>
        <time>2021-09-27T12:01:39.000Z</time>
      </trkpt>
      <trkpt lat="45.77112" lon="4.63399">
        <ele>724.2</ele>
        <time>2021-09-27T12:01:40.000Z</time>
      </trkpt>
      <trkpt lat="45.77117" lon="4.63397">
        <ele>723.4</ele>
        <time>2021-09-27T12:01:41.000Z</time>
      </trkpt>
      <trkpt lat="45.77118" lon="4.63393">
        <ele>723</ele>
        <time>2021-09-27T12:01:42.000Z</time>
      </trkpt>
      <trkpt lat="45.77118" lon="4.63388">
        <ele>722.4</ele>
        <time>2021-09-27T12:01:43.000Z</time>
      </trkpt>
      <trkpt lat="45.77116" lon="4.63383">
        <ele>721.6</ele>
        <time>2021-09-27T12:01:44.000Z</time>
      </trkpt>
      <trkpt lat="45.77112" lon="4.63378">
        <ele>720.8</ele>
        <time>2021-09-27T12:01:45.000Z</time>
      </trkpt>
      <trkpt lat="45.77107" lon="4.6337">
        <ele>720</ele>
        <time>2021-09-27T12:01:47.000Z</time>
      </trkpt>
      <trkpt lat="45.77107" lon="4.63366">
        <ele>720</ele>
        <time>2021-09-27T12:01:48.000Z</time>
      </trkpt>
      <trkpt lat="45.7711" lon="4.63362">
        <ele>719.6</ele>
        <time>2021-09-27T12:01:49.000Z</time>
      </trkpt>
      <trkpt lat="45.77113" lon="4.63357">
        <ele>719.4</ele>
        <time>2021-09-27T12:01:50.000Z</time>
      </trkpt>
      <trkpt lat="45.77113" lon="4.63351">
        <ele>719.4</ele>
        <time>2021-09-27T12:01:51.000Z</time>
      </trkpt>
      <trkpt lat="45.77111" lon="4.63346">
        <ele>719</ele>
        <time>2021-09-27T12:01:52.000Z</time>
      </trkpt>
      <trkpt lat="45.77112" lon="4.63341">
        <ele>718.4</ele>
        <time>2021-09-27T12:01:53.000Z</time>
      </trkpt>
      <trkpt lat="45.77114" lon="4.63339">
        <ele>718</ele>
        <time>2021-09-27T12:01:54.000Z</time>
      </trkpt>
      <trkpt lat="45.77116" lon="4.63338">
        <ele>717.6</ele>
        <time>2021-09-27T12:01:55.000Z</time>
      </trkpt>
      <trkpt lat="45.77124" lon="4.63341">
        <ele>717.4</ele>
        <time>2021-09-27T12:01:57.000Z</time>
      </trkpt>
      <trkpt lat="45.77128" lon="4.63341">
        <ele>717</ele>
        <time>2021-09-27T12:01:58.000Z</time>
      </trkpt>
      <trkpt lat="45.77129" lon="4.63339">
        <ele>716.6</ele>
        <time>2021-09-27T12:01:59.000Z</time>
      </trkpt>
      <trkpt lat="45.77131" lon="4.63335">
        <ele>716.2</ele>
        <time>2021-09-27T12:02:00.000Z</time>
      </trkpt>
      <trkpt lat="45.77135" lon="4.6333">
        <ele>715.6</ele>
        <time>2021-09-27T12:02:02.000Z</time>
      </trkpt>
      <trkpt lat="45.77138" lon="4.6333">
        <ele>715.6</ele>
        <time>2021-09-27T12:02:03.000Z</time>
      </trkpt>
      <trkpt lat="45.7714" lon="4.6333">
        <ele>715.4</ele>
        <time>2021-09-27T12:02:04.000Z</time>
      </trkpt>
      <trkpt lat="45.77142" lon="4.63331">
        <ele>715.2</ele>
        <time>2021-09-27T12:02:05.000Z</time>
      </trkpt>
      <trkpt lat="45.77148" lon="4.63329">
        <ele>714.8</ele>
        <time>2021-09-27T12:02:07.000Z</time>
      </trkpt>
      <trkpt lat="45.77151" lon="4.63326">
        <ele>714.6</ele>
        <time>2021-09-27T12:02:08.000Z</time>
      </trkpt>
      <trkpt lat="45.77155" lon="4.63324">
        <ele>714</ele>
        <time>2021-09-27T12:02:09.000Z</time>
      </trkpt>
      <trkpt lat="45.77163" lon="4.63318">
        <ele>713.4</ele>
        <time>2021-09-27T12:02:11.000Z</time>
      </trkpt>
      <trkpt lat="45.77164" lon="4.63316">
        <ele>713</ele>
        <time>2021-09-27T12:02:12.000Z</time>
      </trkpt>
      <trkpt lat="45.77165" lon="4.63313">
        <ele>713</ele>
        <time>2021-09-27T12:02:13.000Z</time>
      </trkpt>
      <trkpt lat="45.77166" lon="4.63311">
        <ele>712.8</ele>
        <time>2021-09-27T12:02:14.000Z</time>
      </trkpt>
      <trkpt lat="45.77167" lon="4.63308">
        <ele>712.8</ele>
        <time>2021-09-27T12:02:15.000Z</time>
      </trkpt>
      <trkpt lat="45.77168" lon="4.63303">
        <ele>712.6</ele>
        <time>2021-09-27T12:02:16.000Z</time>
      </trkpt>
      <trkpt lat="45.77167" lon="4.63299">
        <ele>712.4</ele>
        <time>2021-09-27T12:02:17.000Z</time>
      </trkpt>
      <trkpt lat="45.77166" lon="4.63295">
        <ele>712</ele>
        <time>2021-09-27T12:02:18.000Z</time>
      </trkpt>
      <trkpt lat="45.77165" lon="4.63292">
        <ele>711.8</ele>
        <time>2021-09-27T12:02:19.000Z</time>
      </trkpt>
      <trkpt lat="45.77166" lon="4.63289">
        <ele>711.4</ele>
        <time>2021-09-27T12:02:20.000Z</time>
      </trkpt>
      <trkpt lat="45.7717" lon="4.63285">
        <ele>711</ele>
        <time>2021-09-27T12:02:21.000Z</time>
      </trkpt>
      <trkpt lat="45.77175" lon="4.63281">
        <ele>710.6</ele>
        <time>2021-09-27T12:02:22.000Z</time>
      </trkpt>
      <trkpt lat="45.77188" lon="4.63271">
        <ele>709.4</ele>
        <time>2021-09-27T12:02:24.000Z</time>
      </trkpt>
      <trkpt lat="45.77198" lon="4.6326">
        <ele>708</ele>
        <time>2021-09-27T12:02:26.000Z</time>
      </trkpt>
      <trkpt lat="45.772" lon="4.63252">
        <ele>707.8</ele>
        <time>2021-09-27T12:02:27.000Z</time>
      </trkpt>
      <trkpt lat="45.772" lon="4.63244">
        <ele>707.8</ele>
        <time>2021-09-27T12:02:28.000Z</time>
      </trkpt>
      <trkpt lat="45.77199" lon="4.63239">
        <ele>707.4</ele>
        <time>2021-09-27T12:02:29.000Z</time>
      </trkpt>
      <trkpt lat="45.77197" lon="4.63234">
        <ele>707</ele>
        <time>2021-09-27T12:02:30.000Z</time>
      </trkpt>
      <trkpt lat="45.77195" lon="4.63229">
        <ele>705.8</ele>
        <time>2021-09-27T12:02:31.000Z</time>
      </trkpt>
      <trkpt lat="45.77196" lon="4.63224">
        <ele>704.6</ele>
        <time>2021-09-27T12:02:32.000Z</time>
      </trkpt>
      <trkpt lat="45.77198" lon="4.6322">
        <ele>703.8</ele>
        <time>2021-09-27T12:02:33.000Z</time>
      </trkpt>
      <trkpt lat="45.77201" lon="4.63218">
        <ele>703</ele>
        <time>2021-09-27T12:02:34.000Z</time>
      </trkpt>
      <trkpt lat="45.77209" lon="4.63215">
        <ele>702</ele>
        <time>2021-09-27T12:02:36.000Z</time>
      </trkpt>
      <trkpt lat="45.77215" lon="4.63212">
        <ele>701.4</ele>
        <time>2021-09-27T12:02:37.000Z</time>
      </trkpt>
      <trkpt lat="45.77227" lon="4.63207">
        <ele>701</ele>
        <time>2021-09-27T12:02:39.000Z</time>
      </trkpt>
      <trkpt lat="45.77238" lon="4.63205">
        <ele>700.8</ele>
        <time>2021-09-27T12:02:41.000Z</time>
      </trkpt>
      <trkpt lat="45.77243" lon="4.63205">
        <ele>700.8</ele>
        <time>2021-09-27T12:02:42.000Z</time>
      </trkpt>
      <trkpt lat="45.77247" lon="4.63204">
        <ele>700.8</ele>
        <time>2021-09-27T12:02:43.000Z</time>
      </trkpt>
      <trkpt lat="45.7725" lon="4.63202">
        <ele>700.4</ele>
        <time>2021-09-27T12:02:44.000Z</time>
      </trkpt>
      <trkpt lat="45.7725" lon="4.63199">
        <ele>699.8</ele>
        <time>2021-09-27T12:02:45.000Z</time>
      </trkpt>
      <trkpt lat="45.7725" lon="4.63196">
        <ele>699.4</ele>
        <time>2021-09-27T12:02:46.000Z</time>
      </trkpt>
      <trkpt lat="45.7725" lon="4.63192">
        <ele>698.4</ele>
        <time>2021-09-27T12:02:47.000Z</time>
      </trkpt>
      <trkpt lat="45.7725" lon="4.63183">
        <ele>697</ele>
        <time>2021-09-27T12:02:49.000Z</time>
      </trkpt>
      <trkpt lat="45.77249" lon="4.63173">
        <ele>694.8</ele>
        <time>2021-09-27T12:02:51.000Z</time>
      </trkpt>
      <trkpt lat="45.77248" lon="4.63169">
        <ele>694.8</ele>
        <time>2021-09-27T12:02:52.000Z</time>
      </trkpt>
      <trkpt lat="45.77246" lon="4.63158">
        <ele>693.6</ele>
        <time>2021-09-27T12:02:54.000Z</time>
      </trkpt>
      <trkpt lat="45.7724" lon="4.63144">
        <ele>692.8</ele>
        <time>2021-09-27T12:02:57.000Z</time>
      </trkpt>
      <trkpt lat="45.77238" lon="4.63139">
        <ele>692.6</ele>
        <time>2021-09-27T12:02:58.000Z</time>
      </trkpt>
      <trkpt lat="45.77234" lon="4.6313">
        <ele>692.4</ele>
        <time>2021-09-27T12:03:00.000Z</time>
      </trkpt>
      <trkpt lat="45.7723" lon="4.6312">
        <ele>692.2</ele>
        <time>2021-09-27T12:03:02.000Z</time>
      </trkpt>
      <trkpt lat="45.77224" lon="4.63107">
        <ele>692</ele>
        <time>2021-09-27T12:03:05.000Z</time>
      </trkpt>
      <trkpt lat="45.77211" lon="4.63074">
        <ele>691.6</ele>
        <time>2021-09-27T12:03:11.000Z</time>
      </trkpt>
      <trkpt lat="45.7721" lon="4.63069">
        <ele>691.6</ele>
        <time>2021-09-27T12:03:12.000Z</time>
      </trkpt>
      <trkpt lat="45.77209" lon="4.63064">
        <ele>691.6</ele>
        <time>2021-09-27T12:03:13.000Z</time>
      </trkpt>
      <trkpt lat="45.77208" lon="4.63059">
        <ele>691.6</ele>
        <time>2021-09-27T12:03:14.000Z</time>
      </trkpt>
      <trkpt lat="45.77207" lon="4.63055">
        <ele>691.6</ele>
        <time>2021-09-27T12:03:15.000Z</time>
      </trkpt>
      <trkpt lat="45.77208" lon="4.63049">
        <ele>691.6</ele>
        <time>2021-09-27T12:03:16.000Z</time>
      </trkpt>
      <trkpt lat="45.77211" lon="4.63045">
        <ele>691.6</ele>
        <time>2021-09-27T12:03:17.000Z</time>
      </trkpt>
      <trkpt lat="45.77214" lon="4.63039">
        <ele>691.6</ele>
        <time>2021-09-27T12:03:18.000Z</time>
      </trkpt>
      <trkpt lat="45.77216" lon="4.63035">
        <ele>691.6</ele>
        <time>2021-09-27T12:03:19.000Z</time>
      </trkpt>
      <trkpt lat="45.77217" lon="4.63029">
        <ele>691.6</ele>
        <time>2021-09-27T12:03:20.000Z</time>
      </trkpt>
      <trkpt lat="45.77218" lon="4.63025">
        <ele>691.6</ele>
        <time>2021-09-27T12:03:21.000Z</time>
      </trkpt>
      <trkpt lat="45.7722" lon="4.63016">
        <ele>691.6</ele>
        <time>2021-09-27T12:03:23.000Z</time>
      </trkpt>
      <trkpt lat="45.77232" lon="4.62983">
        <ele>691.6</ele>
        <time>2021-09-27T12:03:30.000Z</time>
      </trkpt>
      <trkpt lat="45.77233" lon="4.6298">
        <ele>691.6</ele>
        <time>2021-09-27T12:03:31.000Z</time>
      </trkpt>
      <trkpt lat="45.77234" lon="4.62975">
        <ele>691.6</ele>
        <time>2021-09-27T12:03:32.000Z</time>
      </trkpt>
      <trkpt lat="45.77241" lon="4.62958">
        <ele>691.6</ele>
        <time>2021-09-27T12:03:36.000Z</time>
      </trkpt>
      <trkpt lat="45.7724" lon="4.62951">
        <ele>691.6</ele>
        <time>2021-09-27T12:03:37.000Z</time>
      </trkpt>
      <trkpt lat="45.7724" lon="4.62944">
        <ele>691.4</ele>
        <time>2021-09-27T12:03:38.000Z</time>
      </trkpt>
      <trkpt lat="45.7724" lon="4.62937">
        <ele>691.4</ele>
        <time>2021-09-27T12:03:39.000Z</time>
      </trkpt>
      <trkpt lat="45.77239" lon="4.62931">
        <ele>691.4</ele>
        <time>2021-09-27T12:03:40.000Z</time>
      </trkpt>
      <trkpt lat="45.77238" lon="4.62924">
        <ele>691.2</ele>
        <time>2021-09-27T12:03:41.000Z</time>
      </trkpt>
      <trkpt lat="45.77236" lon="4.62909">
        <ele>691.2</ele>
        <time>2021-09-27T12:03:43.000Z</time>
      </trkpt>
      <trkpt lat="45.77234" lon="4.62905">
        <ele>691.2</ele>
        <time>2021-09-27T12:03:44.000Z</time>
      </trkpt>
      <trkpt lat="45.77233" lon="4.62904">
        <ele>691</ele>
        <time>2021-09-27T12:03:45.000Z</time>
      </trkpt>
      <trkpt lat="45.7723" lon="4.62897">
        <ele>690.4</ele>
        <time>2021-09-27T12:05:53.000Z</time>
      </trkpt>
      <trkpt lat="45.77228" lon="4.62894">
        <ele>690.4</ele>
        <time>2021-09-27T12:05:54.000Z</time>
      </trkpt>
      <trkpt lat="45.77226" lon="4.62892">
        <ele>690.4</ele>
        <time>2021-09-27T12:05:55.000Z</time>
      </trkpt>
      <trkpt lat="45.77211" lon="4.62877">
        <ele>690.2</ele>
        <time>2021-09-27T12:06:00.000Z</time>
      </trkpt>
      <trkpt lat="45.77208" lon="4.62873">
        <ele>690</ele>
        <time>2021-09-27T12:06:01.000Z</time>
      </trkpt>
      <trkpt lat="45.77206" lon="4.62868">
        <ele>690</ele>
        <time>2021-09-27T12:06:02.000Z</time>
      </trkpt>
      <trkpt lat="45.77204" lon="4.62863">
        <ele>689.8</ele>
        <time>2021-09-27T12:06:03.000Z</time>
      </trkpt>
      <trkpt lat="45.77201" lon="4.62859">
        <ele>689.8</ele>
        <time>2021-09-27T12:06:04.000Z</time>
      </trkpt>
      <trkpt lat="45.77197" lon="4.62849">
        <ele>689.2</ele>
        <time>2021-09-27T12:06:06.000Z</time>
      </trkpt>
      <trkpt lat="45.77195" lon="4.62844">
        <ele>689</ele>
        <time>2021-09-27T12:06:07.000Z</time>
      </trkpt>
      <trkpt lat="45.77193" lon="4.62841">
        <ele>688.4</ele>
        <time>2021-09-27T12:06:08.000Z</time>
      </trkpt>
      <trkpt lat="45.7719" lon="4.62841">
        <ele>688</ele>
        <time>2021-09-27T12:06:09.000Z</time>
      </trkpt>
      <trkpt lat="45.77187" lon="4.62841">
        <ele>687.2</ele>
        <time>2021-09-27T12:06:10.000Z</time>
      </trkpt>
      <trkpt lat="45.77183" lon="4.62841">
        <ele>686.2</ele>
        <time>2021-09-27T12:06:11.000Z</time>
      </trkpt>
      <trkpt lat="45.77181" lon="4.62839">
        <ele>685.4</ele>
        <time>2021-09-27T12:06:12.000Z</time>
      </trkpt>
      <trkpt lat="45.77178" lon="4.62833">
        <ele>684.4</ele>
        <time>2021-09-27T12:06:13.000Z</time>
      </trkpt>
      <trkpt lat="45.77179" lon="4.62829">
        <ele>683.4</ele>
        <time>2021-09-27T12:06:14.000Z</time>
      </trkpt>
      <trkpt lat="45.7718" lon="4.62825">
        <ele>682.6</ele>
        <time>2021-09-27T12:06:15.000Z</time>
      </trkpt>
      <trkpt lat="45.7718" lon="4.62821">
        <ele>681.8</ele>
        <time>2021-09-27T12:06:16.000Z</time>
      </trkpt>
      <trkpt lat="45.77179" lon="4.62818">
        <ele>681.2</ele>
        <time>2021-09-27T12:06:17.000Z</time>
      </trkpt>
      <trkpt lat="45.77178" lon="4.62815">
        <ele>680.8</ele>
        <time>2021-09-27T12:06:18.000Z</time>
      </trkpt>
      <trkpt lat="45.77177" lon="4.62811">
        <ele>680.4</ele>
        <time>2021-09-27T12:06:19.000Z</time>
      </trkpt>
      <trkpt lat="45.77177" lon="4.62808">
        <ele>680.4</ele>
        <time>2021-09-27T12:06:20.000Z</time>
      </trkpt>
      <trkpt lat="45.77179" lon="4.62804">
        <ele>680.2</ele>
        <time>2021-09-27T12:06:21.000Z</time>
      </trkpt>
      <trkpt lat="45.77181" lon="4.62799">
        <ele>680</ele>
        <time>2021-09-27T12:06:22.000Z</time>
      </trkpt>
      <trkpt lat="45.77181" lon="4.62791">
        <ele>679.6</ele>
        <time>2021-09-27T12:06:24.000Z</time>
      </trkpt>
      <trkpt lat="45.77177" lon="4.62788">
        <ele>679.2</ele>
        <time>2021-09-27T12:06:25.000Z</time>
      </trkpt>
      <trkpt lat="45.77173" lon="4.62786">
        <ele>679.2</ele>
        <time>2021-09-27T12:06:26.000Z</time>
      </trkpt>
      <trkpt lat="45.7717" lon="4.62783">
        <ele>679</ele>
        <time>2021-09-27T12:06:27.000Z</time>
      </trkpt>
      <trkpt lat="45.77167" lon="4.6278">
        <ele>678.8</ele>
        <time>2021-09-27T12:06:28.000Z</time>
      </trkpt>
      <trkpt lat="45.77165" lon="4.62773">
        <ele>678.2</ele>
        <time>2021-09-27T12:06:29.000Z</time>
      </trkpt>
      <trkpt lat="45.77165" lon="4.62766">
        <ele>677.6</ele>
        <time>2021-09-27T12:06:30.000Z</time>
      </trkpt>
      <trkpt lat="45.77165" lon="4.62759">
        <ele>677</ele>
        <time>2021-09-27T12:06:31.000Z</time>
      </trkpt>
      <trkpt lat="45.77165" lon="4.62753">
        <ele>676.6</ele>
        <time>2021-09-27T12:06:32.000Z</time>
      </trkpt>
      <trkpt lat="45.77164" lon="4.62749">
        <ele>676.2</ele>
        <time>2021-09-27T12:06:33.000Z</time>
      </trkpt>
      <trkpt lat="45.77165" lon="4.62745">
        <ele>675.6</ele>
        <time>2021-09-27T12:06:34.000Z</time>
      </trkpt>
      <trkpt lat="45.77165" lon="4.62742">
        <ele>675.2</ele>
        <time>2021-09-27T12:06:35.000Z</time>
      </trkpt>
      <trkpt lat="45.77165" lon="4.62739">
        <ele>674.8</ele>
        <time>2021-09-27T12:06:36.000Z</time>
      </trkpt>
      <trkpt lat="45.77164" lon="4.62736">
        <ele>674.8</ele>
        <time>2021-09-27T12:06:37.000Z</time>
      </trkpt>
      <trkpt lat="45.77164" lon="4.62733">
        <ele>674.2</ele>
        <time>2021-09-27T12:06:38.000Z</time>
      </trkpt>
      <trkpt lat="45.77162" lon="4.6273">
        <ele>673.8</ele>
        <time>2021-09-27T12:06:39.000Z</time>
      </trkpt>
      <trkpt lat="45.7716" lon="4.62726">
        <ele>673.6</ele>
        <time>2021-09-27T12:06:40.000Z</time>
      </trkpt>
      <trkpt lat="45.77158" lon="4.62721">
        <ele>673.6</ele>
        <time>2021-09-27T12:06:41.000Z</time>
      </trkpt>
      <trkpt lat="45.77154" lon="4.62709">
        <ele>673.2</ele>
        <time>2021-09-27T12:06:43.000Z</time>
      </trkpt>
      <trkpt lat="45.77151" lon="4.62704">
        <ele>673.2</ele>
        <time>2021-09-27T12:06:44.000Z</time>
      </trkpt>
      <trkpt lat="45.77149" lon="4.62698">
        <ele>673</ele>
        <time>2021-09-27T12:06:45.000Z</time>
      </trkpt>
      <trkpt lat="45.7715" lon="4.62693">
        <ele>672.6</ele>
        <time>2021-09-27T12:06:46.000Z</time>
      </trkpt>
      <trkpt lat="45.77151" lon="4.62689">
        <ele>672.4</ele>
        <time>2021-09-27T12:06:47.000Z</time>
      </trkpt>
      <trkpt lat="45.77154" lon="4.62684">
        <ele>672.2</ele>
        <time>2021-09-27T12:06:48.000Z</time>
      </trkpt>
      <trkpt lat="45.77154" lon="4.62679">
        <ele>671.8</ele>
        <time>2021-09-27T12:06:49.000Z</time>
      </trkpt>
      <trkpt lat="45.77152" lon="4.62676">
        <ele>671.8</ele>
        <time>2021-09-27T12:06:50.000Z</time>
      </trkpt>
      <trkpt lat="45.7715" lon="4.62672">
        <ele>671.4</ele>
        <time>2021-09-27T12:06:51.000Z</time>
      </trkpt>
      <trkpt lat="45.77148" lon="4.62669">
        <ele>671.2</ele>
        <time>2021-09-27T12:06:52.000Z</time>
      </trkpt>
      <trkpt lat="45.77146" lon="4.62661">
        <ele>670.8</ele>
        <time>2021-09-27T12:06:54.000Z</time>
      </trkpt>
      <trkpt lat="45.77145" lon="4.62656">
        <ele>670.8</ele>
        <time>2021-09-27T12:06:55.000Z</time>
      </trkpt>
      <trkpt lat="45.77146" lon="4.62651">
        <ele>670.6</ele>
        <time>2021-09-27T12:06:56.000Z</time>
      </trkpt>
      <trkpt lat="45.77146" lon="4.62644">
        <ele>670.6</ele>
        <time>2021-09-27T12:06:57.000Z</time>
      </trkpt>
      <trkpt lat="45.77146" lon="4.62636">
        <ele>670.4</ele>
        <time>2021-09-27T12:06:58.000Z</time>
      </trkpt>
      <trkpt lat="45.77143" lon="4.62623">
        <ele>670.2</ele>
        <time>2021-09-27T12:07:00.000Z</time>
      </trkpt>
      <trkpt lat="45.77143" lon="4.62617">
        <ele>670.2</ele>
        <time>2021-09-27T12:07:01.000Z</time>
      </trkpt>
      <trkpt lat="45.77144" lon="4.62612">
        <ele>670</ele>
        <time>2021-09-27T12:07:02.000Z</time>
      </trkpt>
      <trkpt lat="45.77146" lon="4.62608">
        <ele>669.8</ele>
        <time>2021-09-27T12:07:03.000Z</time>
      </trkpt>
      <trkpt lat="45.77147" lon="4.62604">
        <ele>669.6</ele>
        <time>2021-09-27T12:07:04.000Z</time>
      </trkpt>
      <trkpt lat="45.77147" lon="4.62603">
        <ele>669.2</ele>
        <time>2021-09-27T12:07:05.000Z</time>
      </trkpt>
      <trkpt lat="45.77149" lon="4.62599">
        <ele>668.6</ele>
        <time>2021-09-27T12:07:22.000Z</time>
      </trkpt>
      <trkpt lat="45.77152" lon="4.62597">
        <ele>668.6</ele>
        <time>2021-09-27T12:07:24.000Z</time>
      </trkpt>
      <trkpt lat="45.77154" lon="4.62596">
        <ele>668.6</ele>
        <time>2021-09-27T12:07:25.000Z</time>
      </trkpt>
      <trkpt lat="45.77155" lon="4.62594">
        <ele>668.6</ele>
        <time>2021-09-27T12:07:26.000Z</time>
      </trkpt>
      <trkpt lat="45.77162" lon="4.6259">
        <ele>668.6</ele>
        <time>2021-09-27T12:07:29.000Z</time>
      </trkpt>
      <trkpt lat="45.77164" lon="4.62588">
        <ele>668.6</ele>
        <time>2021-09-27T12:07:30.000Z</time>
      </trkpt>
      <trkpt lat="45.77166" lon="4.62587">
        <ele>668.8</ele>
        <time>2021-09-27T12:07:31.000Z</time>
      </trkpt>
      <trkpt lat="45.77167" lon="4.62585">
        <ele>668.8</ele>
        <time>2021-09-27T12:07:32.000Z</time>
      </trkpt>
      <trkpt lat="45.77173" lon="4.62578">
        <ele>669</ele>
        <time>2021-09-27T12:07:36.000Z</time>
      </trkpt>
      <trkpt lat="45.77175" lon="4.6257">
        <ele>669</ele>
        <time>2021-09-27T12:07:38.000Z</time>
      </trkpt>
      <trkpt lat="45.77176" lon="4.62567">
        <ele>669</ele>
        <time>2021-09-27T12:07:39.000Z</time>
      </trkpt>
      <trkpt lat="45.77177" lon="4.62563">
        <ele>669</ele>
        <time>2021-09-27T12:07:40.000Z</time>
      </trkpt>
      <trkpt lat="45.77179" lon="4.62554">
        <ele>669</ele>
        <time>2021-09-27T12:07:42.000Z</time>
      </trkpt>
      <trkpt lat="45.77178" lon="4.62549">
        <ele>668.4</ele>
        <time>2021-09-27T12:07:43.000Z</time>
      </trkpt>
      <trkpt lat="45.77177" lon="4.62545">
        <ele>668</ele>
        <time>2021-09-27T12:07:44.000Z</time>
      </trkpt>
      <trkpt lat="45.77177" lon="4.62541">
        <ele>667.4</ele>
        <time>2021-09-27T12:07:45.000Z</time>
      </trkpt>
      <trkpt lat="45.77176" lon="4.62538">
        <ele>666.8</ele>
        <time>2021-09-27T12:07:46.000Z</time>
      </trkpt>
      <trkpt lat="45.77175" lon="4.62534">
        <ele>666.2</ele>
        <time>2021-09-27T12:07:47.000Z</time>
      </trkpt>
      <trkpt lat="45.77171" lon="4.62524">
        <ele>665</ele>
        <time>2021-09-27T12:07:49.000Z</time>
      </trkpt>
      <trkpt lat="45.77166" lon="4.62514">
        <ele>663.8</ele>
        <time>2021-09-27T12:07:51.000Z</time>
      </trkpt>
      <trkpt lat="45.7716" lon="4.62506">
        <ele>663.4</ele>
        <time>2021-09-27T12:07:53.000Z</time>
      </trkpt>
      <trkpt lat="45.77156" lon="4.62502">
        <ele>663.2</ele>
        <time>2021-09-27T12:07:54.000Z</time>
      </trkpt>
      <trkpt lat="45.77155" lon="4.625">
        <ele>663</ele>
        <time>2021-09-27T12:07:55.000Z</time>
      </trkpt>
      <trkpt lat="45.77153" lon="4.62497">
        <ele>662.2</ele>
        <time>2021-09-27T12:07:56.000Z</time>
      </trkpt>
      <trkpt lat="45.77152" lon="4.62495">
        <ele>661.4</ele>
        <time>2021-09-27T12:07:57.000Z</time>
      </trkpt>
      <trkpt lat="45.77152" lon="4.62493">
        <ele>660.8</ele>
        <time>2021-09-27T12:07:58.000Z</time>
      </trkpt>
      <trkpt lat="45.77153" lon="4.6249">
        <ele>660</ele>
        <time>2021-09-27T12:07:59.000Z</time>
      </trkpt>
      <trkpt lat="45.77154" lon="4.62488">
        <ele>659.4</ele>
        <time>2021-09-27T12:08:00.000Z</time>
      </trkpt>
      <trkpt lat="45.77154" lon="4.62487">
        <ele>659.4</ele>
        <time>2021-09-27T12:08:01.000Z</time>
      </trkpt>
      <trkpt lat="45.77159" lon="4.62477">
        <ele>656</ele>
        <time>2021-09-27T12:08:08.000Z</time>
      </trkpt>
      <trkpt lat="45.77164" lon="4.62466">
        <ele>655.6</ele>
        <time>2021-09-27T12:08:10.000Z</time>
      </trkpt>
      <trkpt lat="45.77171" lon="4.6245">
        <ele>655.6</ele>
        <time>2021-09-27T12:08:13.000Z</time>
      </trkpt>
      <trkpt lat="45.77177" lon="4.62441">
        <ele>655.4</ele>
        <time>2021-09-27T12:08:15.000Z</time>
      </trkpt>
      <trkpt lat="45.7718" lon="4.62437">
        <ele>655.2</ele>
        <time>2021-09-27T12:08:16.000Z</time>
      </trkpt>
      <trkpt lat="45.77183" lon="4.62434">
        <ele>654.8</ele>
        <time>2021-09-27T12:08:17.000Z</time>
      </trkpt>
      <trkpt lat="45.77186" lon="4.6243">
        <ele>654.4</ele>
        <time>2021-09-27T12:08:18.000Z</time>
      </trkpt>
      <trkpt lat="45.77188" lon="4.62425">
        <ele>654.2</ele>
        <time>2021-09-27T12:08:19.000Z</time>
      </trkpt>
      <trkpt lat="45.77188" lon="4.62421">
        <ele>653.6</ele>
        <time>2021-09-27T12:08:20.000Z</time>
      </trkpt>
      <trkpt lat="45.77188" lon="4.62416">
        <ele>653.4</ele>
        <time>2021-09-27T12:08:21.000Z</time>
      </trkpt>
      <trkpt lat="45.77187" lon="4.6241">
        <ele>653</ele>
        <time>2021-09-27T12:08:22.000Z</time>
      </trkpt>
      <trkpt lat="45.77187" lon="4.62405">
        <ele>653</ele>
        <time>2021-09-27T12:08:23.000Z</time>
      </trkpt>
      <trkpt lat="45.77186" lon="4.62395">
        <ele>652.8</ele>
        <time>2021-09-27T12:08:25.000Z</time>
      </trkpt>
      <trkpt lat="45.77185" lon="4.6239">
        <ele>652.8</ele>
        <time>2021-09-27T12:08:26.000Z</time>
      </trkpt>
      <trkpt lat="45.77184" lon="4.62385">
        <ele>652.8</ele>
        <time>2021-09-27T12:08:27.000Z</time>
      </trkpt>
      <trkpt lat="45.77182" lon="4.62382">
        <ele>652.6</ele>
        <time>2021-09-27T12:08:28.000Z</time>
      </trkpt>
      <trkpt lat="45.77182" lon="4.62379">
        <ele>652.6</ele>
        <time>2021-09-27T12:08:29.000Z</time>
      </trkpt>
      <trkpt lat="45.7718" lon="4.62376">
        <ele>652.6</ele>
        <time>2021-09-27T12:08:30.000Z</time>
      </trkpt>
      <trkpt lat="45.77178" lon="4.62374">
        <ele>652.6</ele>
        <time>2021-09-27T12:08:31.000Z</time>
      </trkpt>
      <trkpt lat="45.77176" lon="4.62372">
        <ele>652.4</ele>
        <time>2021-09-27T12:08:32.000Z</time>
      </trkpt>
      <trkpt lat="45.77169" lon="4.62371">
        <ele>652.4</ele>
        <time>2021-09-27T12:08:34.000Z</time>
      </trkpt>
      <trkpt lat="45.77166" lon="4.6237">
        <ele>652.4</ele>
        <time>2021-09-27T12:08:35.000Z</time>
      </trkpt>
      <trkpt lat="45.77165" lon="4.62368">
        <ele>652.2</ele>
        <time>2021-09-27T12:08:36.000Z</time>
      </trkpt>
      <trkpt lat="45.77162" lon="4.62364">
        <ele>652.2</ele>
        <time>2021-09-27T12:08:37.000Z</time>
      </trkpt>
      <trkpt lat="45.7716" lon="4.62362">
        <ele>652</ele>
        <time>2021-09-27T12:08:38.000Z</time>
      </trkpt>
      <trkpt lat="45.77155" lon="4.62356">
        <ele>652</ele>
        <time>2021-09-27T12:08:40.000Z</time>
      </trkpt>
      <trkpt lat="45.77152" lon="4.62348">
        <ele>651.6</ele>
        <time>2021-09-27T12:08:42.000Z</time>
      </trkpt>
      <trkpt lat="45.77146" lon="4.62335">
        <ele>650.2</ele>
        <time>2021-09-27T12:08:45.000Z</time>
      </trkpt>
      <trkpt lat="45.77146" lon="4.6233">
        <ele>649.8</ele>
        <time>2021-09-27T12:08:46.000Z</time>
      </trkpt>
      <trkpt lat="45.77145" lon="4.62326">
        <ele>649.2</ele>
        <time>2021-09-27T12:08:47.000Z</time>
      </trkpt>
      <trkpt lat="45.77139" lon="4.62321">
        <ele>648.6</ele>
        <time>2021-09-27T12:08:49.000Z</time>
      </trkpt>
      <trkpt lat="45.77136" lon="4.62318">
        <ele>648.2</ele>
        <time>2021-09-27T12:08:50.000Z</time>
      </trkpt>
      <trkpt lat="45.77132" lon="4.62315">
        <ele>647.8</ele>
        <time>2021-09-27T12:08:51.000Z</time>
      </trkpt>
      <trkpt lat="45.77129" lon="4.62314">
        <ele>647.2</ele>
        <time>2021-09-27T12:08:52.000Z</time>
      </trkpt>
      <trkpt lat="45.77126" lon="4.62315">
        <ele>646.8</ele>
        <time>2021-09-27T12:08:53.000Z</time>
      </trkpt>
      <trkpt lat="45.77123" lon="4.62317">
        <ele>646.4</ele>
        <time>2021-09-27T12:08:54.000Z</time>
      </trkpt>
      <trkpt lat="45.7712" lon="4.62318">
        <ele>646.2</ele>
        <time>2021-09-27T12:08:55.000Z</time>
      </trkpt>
      <trkpt lat="45.77117" lon="4.62316">
        <ele>645.8</ele>
        <time>2021-09-27T12:08:56.000Z</time>
      </trkpt>
      <trkpt lat="45.77115" lon="4.62312">
        <ele>645</ele>
        <time>2021-09-27T12:08:57.000Z</time>
      </trkpt>
      <trkpt lat="45.77115" lon="4.623">
        <ele>643.8</ele>
        <time>2021-09-27T12:08:59.000Z</time>
      </trkpt>
      <trkpt lat="45.77117" lon="4.62293">
        <ele>643.4</ele>
        <time>2021-09-27T12:09:00.000Z</time>
      </trkpt>
      <trkpt lat="45.77123" lon="4.62282">
        <ele>642.6</ele>
        <time>2021-09-27T12:09:02.000Z</time>
      </trkpt>
      <trkpt lat="45.77127" lon="4.62279">
        <ele>642.2</ele>
        <time>2021-09-27T12:09:03.000Z</time>
      </trkpt>
      <trkpt lat="45.7713" lon="4.62275">
        <ele>641.8</ele>
        <time>2021-09-27T12:09:04.000Z</time>
      </trkpt>
      <trkpt lat="45.77132" lon="4.62271">
        <ele>641.6</ele>
        <time>2021-09-27T12:09:05.000Z</time>
      </trkpt>
      <trkpt lat="45.77133" lon="4.62268">
        <ele>641.2</ele>
        <time>2021-09-27T12:09:06.000Z</time>
      </trkpt>
      <trkpt lat="45.77135" lon="4.62264">
        <ele>641</ele>
        <time>2021-09-27T12:09:07.000Z</time>
      </trkpt>
      <trkpt lat="45.77135" lon="4.6226">
        <ele>640.8</ele>
        <time>2021-09-27T12:09:08.000Z</time>
      </trkpt>
      <trkpt lat="45.77135" lon="4.62256">
        <ele>640.6</ele>
        <time>2021-09-27T12:09:09.000Z</time>
      </trkpt>
      <trkpt lat="45.77133" lon="4.62255">
        <ele>640.6</ele>
        <time>2021-09-27T12:09:10.000Z</time>
      </trkpt>
      <trkpt lat="45.77131" lon="4.62255">
        <ele>640.4</ele>
        <time>2021-09-27T12:09:11.000Z</time>
      </trkpt>
      <trkpt lat="45.77129" lon="4.62256">
        <ele>640.4</ele>
        <time>2021-09-27T12:09:12.000Z</time>
      </trkpt>
      <trkpt lat="45.77125" lon="4.62255">
        <ele>640.4</ele>
        <time>2021-09-27T12:09:13.000Z</time>
      </trkpt>
      <trkpt lat="45.77117" lon="4.62252">
        <ele>640</ele>
        <time>2021-09-27T12:09:15.000Z</time>
      </trkpt>
      <trkpt lat="45.77109" lon="4.62256">
        <ele>639.8</ele>
        <time>2021-09-27T12:09:17.000Z</time>
      </trkpt>
      <trkpt lat="45.77105" lon="4.62258">
        <ele>639.6</ele>
        <time>2021-09-27T12:09:18.000Z</time>
      </trkpt>
      <trkpt lat="45.77101" lon="4.6226">
        <ele>639.2</ele>
        <time>2021-09-27T12:09:19.000Z</time>
      </trkpt>
      <trkpt lat="45.77097" lon="4.62258">
        <ele>639</ele>
        <time>2021-09-27T12:09:20.000Z</time>
      </trkpt>
      <trkpt lat="45.77095" lon="4.62256">
        <ele>639</ele>
        <time>2021-09-27T12:09:21.000Z</time>
      </trkpt>
      <trkpt lat="45.77092" lon="4.62254">
        <ele>638.6</ele>
        <time>2021-09-27T12:09:22.000Z</time>
      </trkpt>
      <trkpt lat="45.7709" lon="4.62252">
        <ele>637.4</ele>
        <time>2021-09-27T12:09:23.000Z</time>
      </trkpt>
      <trkpt lat="45.77088" lon="4.62248">
        <ele>636.6</ele>
        <time>2021-09-27T12:09:24.000Z</time>
      </trkpt>
      <trkpt lat="45.77088" lon="4.62243">
        <ele>636</ele>
        <time>2021-09-27T12:09:25.000Z</time>
      </trkpt>
      <trkpt lat="45.77092" lon="4.62235">
        <ele>635</ele>
        <time>2021-09-27T12:09:27.000Z</time>
      </trkpt>
      <trkpt lat="45.77095" lon="4.62232">
        <ele>634.6</ele>
        <time>2021-09-27T12:09:28.000Z</time>
      </trkpt>
      <trkpt lat="45.77098" lon="4.62231">
        <ele>634.2</ele>
        <time>2021-09-27T12:09:29.000Z</time>
      </trkpt>
      <trkpt lat="45.771" lon="4.62231">
        <ele>633.6</ele>
        <time>2021-09-27T12:09:30.000Z</time>
      </trkpt>
      <trkpt lat="45.77103" lon="4.62231">
        <ele>633</ele>
        <time>2021-09-27T12:09:31.000Z</time>
      </trkpt>
      <trkpt lat="45.77105" lon="4.62232">
        <ele>632.8</ele>
        <time>2021-09-27T12:09:32.000Z</time>
      </trkpt>
      <trkpt lat="45.77108" lon="4.62231">
        <ele>632.6</ele>
        <time>2021-09-27T12:09:33.000Z</time>
      </trkpt>
      <trkpt lat="45.77109" lon="4.6223">
        <ele>632.4</ele>
        <time>2021-09-27T12:09:34.000Z</time>
      </trkpt>
      <trkpt lat="45.77109" lon="4.62228">
        <ele>632.2</ele>
        <time>2021-09-27T12:09:35.000Z</time>
      </trkpt>
      <trkpt lat="45.77107" lon="4.62226">
        <ele>632.2</ele>
        <time>2021-09-27T12:09:36.000Z</time>
      </trkpt>
      <trkpt lat="45.77105" lon="4.62226">
        <ele>632.2</ele>
        <time>2021-09-27T12:09:37.000Z</time>
      </trkpt>
      <trkpt lat="45.771" lon="4.62224">
        <ele>631.6</ele>
        <time>2021-09-27T12:09:39.000Z</time>
      </trkpt>
      <trkpt lat="45.77099" lon="4.62221">
        <ele>631.4</ele>
        <time>2021-09-27T12:09:40.000Z</time>
      </trkpt>
      <trkpt lat="45.771" lon="4.62218">
        <ele>631.2</ele>
        <time>2021-09-27T12:09:41.000Z</time>
      </trkpt>
      <trkpt lat="45.77101" lon="4.62214">
        <ele>631</ele>
        <time>2021-09-27T12:09:42.000Z</time>
      </trkpt>
      <trkpt lat="45.77108" lon="4.62207">
        <ele>630.8</ele>
        <time>2021-09-27T12:09:44.000Z</time>
      </trkpt>
      <trkpt lat="45.77111" lon="4.62205">
        <ele>630.8</ele>
        <time>2021-09-27T12:09:45.000Z</time>
      </trkpt>
      <trkpt lat="45.77115" lon="4.62203">
        <ele>630.8</ele>
        <time>2021-09-27T12:09:46.000Z</time>
      </trkpt>
      <trkpt lat="45.77118" lon="4.62202">
        <ele>630.6</ele>
        <time>2021-09-27T12:09:47.000Z</time>
      </trkpt>
      <trkpt lat="45.77121" lon="4.62198">
        <ele>630.4</ele>
        <time>2021-09-27T12:09:48.000Z</time>
      </trkpt>
      <trkpt lat="45.77121" lon="4.62195">
        <ele>630.2</ele>
        <time>2021-09-27T12:09:49.000Z</time>
      </trkpt>
      <trkpt lat="45.77121" lon="4.62192">
        <ele>629.4</ele>
        <time>2021-09-27T12:09:50.000Z</time>
      </trkpt>
      <trkpt lat="45.77119" lon="4.62189">
        <ele>628.6</ele>
        <time>2021-09-27T12:09:51.000Z</time>
      </trkpt>
      <trkpt lat="45.77116" lon="4.62187">
        <ele>628.2</ele>
        <time>2021-09-27T12:09:52.000Z</time>
      </trkpt>
      <trkpt lat="45.77114" lon="4.62183">
        <ele>627.8</ele>
        <time>2021-09-27T12:09:53.000Z</time>
      </trkpt>
      <trkpt lat="45.77113" lon="4.6218">
        <ele>627.6</ele>
        <time>2021-09-27T12:09:54.000Z</time>
      </trkpt>
      <trkpt lat="45.77113" lon="4.62176">
        <ele>627.4</ele>
        <time>2021-09-27T12:09:55.000Z</time>
      </trkpt>
      <trkpt lat="45.77126" lon="4.62159">
        <ele>626.6</ele>
        <time>2021-09-27T12:09:58.000Z</time>
      </trkpt>
      <trkpt lat="45.77129" lon="4.62155">
        <ele>625.8</ele>
        <time>2021-09-27T12:09:59.000Z</time>
      </trkpt>
      <trkpt lat="45.77133" lon="4.62151">
        <ele>625.8</ele>
        <time>2021-09-27T12:10:00.000Z</time>
      </trkpt>
      <trkpt lat="45.77136" lon="4.62148">
        <ele>624.8</ele>
        <time>2021-09-27T12:10:01.000Z</time>
      </trkpt>
      <trkpt lat="45.7714" lon="4.62146">
        <ele>624</ele>
        <time>2021-09-27T12:10:02.000Z</time>
      </trkpt>
      <trkpt lat="45.77144" lon="4.62146">
        <ele>623.2</ele>
        <time>2021-09-27T12:10:03.000Z</time>
      </trkpt>
      <trkpt lat="45.77148" lon="4.62145">
        <ele>622.2</ele>
        <time>2021-09-27T12:10:04.000Z</time>
      </trkpt>
      <trkpt lat="45.77151" lon="4.62145">
        <ele>621</ele>
        <time>2021-09-27T12:10:05.000Z</time>
      </trkpt>
      <trkpt lat="45.77154" lon="4.62145">
        <ele>620.4</ele>
        <time>2021-09-27T12:10:06.000Z</time>
      </trkpt>
      <trkpt lat="45.77156" lon="4.62145">
        <ele>620.2</ele>
        <time>2021-09-27T12:10:07.000Z</time>
      </trkpt>
      <trkpt lat="45.77158" lon="4.62147">
        <ele>620</ele>
        <time>2021-09-27T12:10:08.000Z</time>
      </trkpt>
      <trkpt lat="45.7716" lon="4.62149">
        <ele>620</ele>
        <time>2021-09-27T12:10:09.000Z</time>
      </trkpt>
      <trkpt lat="45.77163" lon="4.6215">
        <ele>620</ele>
        <time>2021-09-27T12:10:10.000Z</time>
      </trkpt>
      <trkpt lat="45.77165" lon="4.62152">
        <ele>619.8</ele>
        <time>2021-09-27T12:10:11.000Z</time>
      </trkpt>
      <trkpt lat="45.77167" lon="4.62153">
        <ele>619.8</ele>
        <time>2021-09-27T12:10:12.000Z</time>
      </trkpt>
      <trkpt lat="45.77171" lon="4.62154">
        <ele>619.8</ele>
        <time>2021-09-27T12:10:13.000Z</time>
      </trkpt>
      <trkpt lat="45.77173" lon="4.62154">
        <ele>619.8</ele>
        <time>2021-09-27T12:10:14.000Z</time>
      </trkpt>
      <trkpt lat="45.77174" lon="4.62155">
        <ele>620</ele>
        <time>2021-09-27T12:10:15.000Z</time>
      </trkpt>
      <trkpt lat="45.77177" lon="4.62155">
        <ele>620.2</ele>
        <time>2021-09-27T12:10:16.000Z</time>
      </trkpt>
      <trkpt lat="45.7718" lon="4.62155">
        <ele>620.8</ele>
        <time>2021-09-27T12:10:17.000Z</time>
      </trkpt>
      <trkpt lat="45.77183" lon="4.62155">
        <ele>621.6</ele>
        <time>2021-09-27T12:10:18.000Z</time>
      </trkpt>
      <trkpt lat="45.77194" lon="4.62151">
        <ele>622.4</ele>
        <time>2021-09-27T12:10:22.000Z</time>
      </trkpt>
      <trkpt lat="45.77197" lon="4.62149">
        <ele>622.4</ele>
        <time>2021-09-27T12:10:23.000Z</time>
      </trkpt>
      <trkpt lat="45.77205" lon="4.62145">
        <ele>622.6</ele>
        <time>2021-09-27T12:10:25.000Z</time>
      </trkpt>
      <trkpt lat="45.7721" lon="4.62145">
        <ele>622.6</ele>
        <time>2021-09-27T12:10:26.000Z</time>
      </trkpt>
      <trkpt lat="45.77214" lon="4.62145">
        <ele>622.6</ele>
        <time>2021-09-27T12:10:27.000Z</time>
      </trkpt>
      <trkpt lat="45.77217" lon="4.62146">
        <ele>622.6</ele>
        <time>2021-09-27T12:10:28.000Z</time>
      </trkpt>
      <trkpt lat="45.77219" lon="4.62145">
        <ele>622.6</ele>
        <time>2021-09-27T12:10:29.000Z</time>
      </trkpt>
      <trkpt lat="45.77221" lon="4.62144">
        <ele>622.6</ele>
        <time>2021-09-27T12:10:30.000Z</time>
      </trkpt>
      <trkpt lat="45.77224" lon="4.62144">
        <ele>621.8</ele>
        <time>2021-09-27T12:10:31.000Z</time>
      </trkpt>
      <trkpt lat="45.77227" lon="4.62144">
        <ele>621</ele>
        <time>2021-09-27T12:10:32.000Z</time>
      </trkpt>
      <trkpt lat="45.77229" lon="4.62145">
        <ele>619.6</ele>
        <time>2021-09-27T12:10:33.000Z</time>
      </trkpt>
      <trkpt lat="45.77232" lon="4.62148">
        <ele>619</ele>
        <time>2021-09-27T12:10:34.000Z</time>
      </trkpt>
      <trkpt lat="45.77235" lon="4.6215">
        <ele>618.6</ele>
        <time>2021-09-27T12:10:35.000Z</time>
      </trkpt>
      <trkpt lat="45.77237" lon="4.62151">
        <ele>617.6</ele>
        <time>2021-09-27T12:10:37.000Z</time>
      </trkpt>
      <trkpt lat="45.77239" lon="4.62153">
        <ele>616.2</ele>
        <time>2021-09-27T12:10:49.000Z</time>
      </trkpt>
      <trkpt lat="45.77241" lon="4.62154">
        <ele>616.2</ele>
        <time>2021-09-27T12:10:50.000Z</time>
      </trkpt>
      <trkpt lat="45.77255" lon="4.62165">
        <ele>616.2</ele>
        <time>2021-09-27T12:10:54.000Z</time>
      </trkpt>
      <trkpt lat="45.77261" lon="4.62171">
        <ele>616</ele>
        <time>2021-09-27T12:10:56.000Z</time>
      </trkpt>
      <trkpt lat="45.77264" lon="4.6217">
        <ele>616</ele>
        <time>2021-09-27T12:10:57.000Z</time>
      </trkpt>
      <trkpt lat="45.77266" lon="4.62167">
        <ele>615.8</ele>
        <time>2021-09-27T12:10:58.000Z</time>
      </trkpt>
      <trkpt lat="45.77269" lon="4.62162">
        <ele>615.8</ele>
        <time>2021-09-27T12:10:59.000Z</time>
      </trkpt>
      <trkpt lat="45.7728" lon="4.62149">
        <ele>615.6</ele>
        <time>2021-09-27T12:11:02.000Z</time>
      </trkpt>
      <trkpt lat="45.77281" lon="4.62146">
        <ele>615.6</ele>
        <time>2021-09-27T12:11:03.000Z</time>
      </trkpt>
      <trkpt lat="45.77281" lon="4.62142">
        <ele>615.6</ele>
        <time>2021-09-27T12:11:04.000Z</time>
      </trkpt>
      <trkpt lat="45.77279" lon="4.62138">
        <ele>615.4</ele>
        <time>2021-09-27T12:11:05.000Z</time>
      </trkpt>
      <trkpt lat="45.77277" lon="4.62135">
        <ele>615.2</ele>
        <time>2021-09-27T12:11:06.000Z</time>
      </trkpt>
      <trkpt lat="45.77274" lon="4.6213">
        <ele>614.6</ele>
        <time>2021-09-27T12:11:07.000Z</time>
      </trkpt>
      <trkpt lat="45.77272" lon="4.62127">
        <ele>613.4</ele>
        <time>2021-09-27T12:11:08.000Z</time>
      </trkpt>
      <trkpt lat="45.77269" lon="4.62124">
        <ele>613</ele>
        <time>2021-09-27T12:11:09.000Z</time>
      </trkpt>
      <trkpt lat="45.77267" lon="4.62121">
        <ele>612.6</ele>
        <time>2021-09-27T12:11:10.000Z</time>
      </trkpt>
      <trkpt lat="45.77266" lon="4.62117">
        <ele>612.6</ele>
        <time>2021-09-27T12:11:11.000Z</time>
      </trkpt>
      <trkpt lat="45.77264" lon="4.62111">
        <ele>611.6</ele>
        <time>2021-09-27T12:11:12.000Z</time>
      </trkpt>
      <trkpt lat="45.77261" lon="4.62105">
        <ele>610.8</ele>
        <time>2021-09-27T12:11:13.000Z</time>
      </trkpt>
      <trkpt lat="45.77257" lon="4.621">
        <ele>610</ele>
        <time>2021-09-27T12:11:14.000Z</time>
      </trkpt>
      <trkpt lat="45.77254" lon="4.62095">
        <ele>609.2</ele>
        <time>2021-09-27T12:11:15.000Z</time>
      </trkpt>
      <trkpt lat="45.77252" lon="4.62091">
        <ele>608.6</ele>
        <time>2021-09-27T12:11:16.000Z</time>
      </trkpt>
      <trkpt lat="45.77252" lon="4.62086">
        <ele>608.2</ele>
        <time>2021-09-27T12:11:17.000Z</time>
      </trkpt>
      <trkpt lat="45.77254" lon="4.62084">
        <ele>608</ele>
        <time>2021-09-27T12:11:18.000Z</time>
      </trkpt>
      <trkpt lat="45.77257" lon="4.62083">
        <ele>607.8</ele>
        <time>2021-09-27T12:11:19.000Z</time>
      </trkpt>
      <trkpt lat="45.7726" lon="4.62084">
        <ele>607</ele>
        <time>2021-09-27T12:11:20.000Z</time>
      </trkpt>
      <trkpt lat="45.77263" lon="4.62086">
        <ele>606.2</ele>
        <time>2021-09-27T12:11:21.000Z</time>
      </trkpt>
      <trkpt lat="45.77266" lon="4.62088">
        <ele>605.6</ele>
        <time>2021-09-27T12:11:22.000Z</time>
      </trkpt>
      <trkpt lat="45.7727" lon="4.62091">
        <ele>605.2</ele>
        <time>2021-09-27T12:11:23.000Z</time>
      </trkpt>
      <trkpt lat="45.77276" lon="4.62097">
        <ele>604.8</ele>
        <time>2021-09-27T12:11:25.000Z</time>
      </trkpt>
      <trkpt lat="45.77279" lon="4.62099">
        <ele>604.6</ele>
        <time>2021-09-27T12:11:26.000Z</time>
      </trkpt>
      <trkpt lat="45.77281" lon="4.621">
        <ele>604</ele>
        <time>2021-09-27T12:11:27.000Z</time>
      </trkpt>
      <trkpt lat="45.77283" lon="4.62099">
        <ele>603.8</ele>
        <time>2021-09-27T12:11:28.000Z</time>
      </trkpt>
      <trkpt lat="45.77286" lon="4.62098">
        <ele>603.6</ele>
        <time>2021-09-27T12:11:29.000Z</time>
      </trkpt>
      <trkpt lat="45.77288" lon="4.62096">
        <ele>602.4</ele>
        <time>2021-09-27T12:11:30.000Z</time>
      </trkpt>
      <trkpt lat="45.7729" lon="4.62095">
        <ele>601.4</ele>
        <time>2021-09-27T12:11:31.000Z</time>
      </trkpt>
      <trkpt lat="45.77292" lon="4.62095">
        <ele>601</ele>
        <time>2021-09-27T12:11:32.000Z</time>
      </trkpt>
      <trkpt lat="45.77293" lon="4.62096">
        <ele>600.6</ele>
        <time>2021-09-27T12:11:33.000Z</time>
      </trkpt>
      <trkpt lat="45.77295" lon="4.62097">
        <ele>600</ele>
        <time>2021-09-27T12:11:34.000Z</time>
      </trkpt>
      <trkpt lat="45.77297" lon="4.621">
        <ele>600</ele>
        <time>2021-09-27T12:11:35.000Z</time>
      </trkpt>
      <trkpt lat="45.773" lon="4.62102">
        <ele>599.2</ele>
        <time>2021-09-27T12:11:36.000Z</time>
      </trkpt>
      <trkpt lat="45.77303" lon="4.62104">
        <ele>598</ele>
        <time>2021-09-27T12:11:37.000Z</time>
      </trkpt>
      <trkpt lat="45.77307" lon="4.62105">
        <ele>597</ele>
        <time>2021-09-27T12:11:38.000Z</time>
      </trkpt>
      <trkpt lat="45.7731" lon="4.62104">
        <ele>595.6</ele>
        <time>2021-09-27T12:11:39.000Z</time>
      </trkpt>
      <trkpt lat="45.77312" lon="4.62102">
        <ele>594.6</ele>
        <time>2021-09-27T12:11:40.000Z</time>
      </trkpt>
      <trkpt lat="45.77315" lon="4.62101">
        <ele>594</ele>
        <time>2021-09-27T12:11:41.000Z</time>
      </trkpt>
      <trkpt lat="45.77317" lon="4.621">
        <ele>593.6</ele>
        <time>2021-09-27T12:11:42.000Z</time>
      </trkpt>
      <trkpt lat="45.77319" lon="4.621">
        <ele>593</ele>
        <time>2021-09-27T12:11:43.000Z</time>
      </trkpt>
      <trkpt lat="45.77321" lon="4.62099">
        <ele>592.6</ele>
        <time>2021-09-27T12:11:44.000Z</time>
      </trkpt>
      <trkpt lat="45.77323" lon="4.62098">
        <ele>592</ele>
        <time>2021-09-27T12:11:45.000Z</time>
      </trkpt>
      <trkpt lat="45.77324" lon="4.62095">
        <ele>591.6</ele>
        <time>2021-09-27T12:11:46.000Z</time>
      </trkpt>
      <trkpt lat="45.77324" lon="4.62091">
        <ele>591</ele>
        <time>2021-09-27T12:11:47.000Z</time>
      </trkpt>
      <trkpt lat="45.77323" lon="4.62088">
        <ele>590</ele>
        <time>2021-09-27T12:11:48.000Z</time>
      </trkpt>
      <trkpt lat="45.77323" lon="4.62085">
        <ele>589.2</ele>
        <time>2021-09-27T12:11:49.000Z</time>
      </trkpt>
      <trkpt lat="45.77324" lon="4.62084">
        <ele>588.2</ele>
        <time>2021-09-27T12:11:50.000Z</time>
      </trkpt>
      <trkpt lat="45.77326" lon="4.62086">
        <ele>587.2</ele>
        <time>2021-09-27T12:11:51.000Z</time>
      </trkpt>
      <trkpt lat="45.77333" lon="4.62083">
        <ele>585.6</ele>
        <time>2021-09-27T12:11:53.000Z</time>
      </trkpt>
      <trkpt lat="45.77341" lon="4.62082">
        <ele>583.8</ele>
        <time>2021-09-27T12:11:55.000Z</time>
      </trkpt>
      <trkpt lat="45.7735" lon="4.62085">
        <ele>582.4</ele>
        <time>2021-09-27T12:11:57.000Z</time>
      </trkpt>
      <trkpt lat="45.77354" lon="4.62086">
        <ele>582.4</ele>
        <time>2021-09-27T12:11:58.000Z</time>
      </trkpt>
      <trkpt lat="45.77357" lon="4.62087">
        <ele>581.6</ele>
        <time>2021-09-27T12:11:59.000Z</time>
      </trkpt>
      <trkpt lat="45.77359" lon="4.62089">
        <ele>580.8</ele>
        <time>2021-09-27T12:12:00.000Z</time>
      </trkpt>
      <trkpt lat="45.77361" lon="4.62092">
        <ele>580.2</ele>
        <time>2021-09-27T12:12:01.000Z</time>
      </trkpt>
      <trkpt lat="45.77363" lon="4.62094">
        <ele>578.8</ele>
        <time>2021-09-27T12:12:02.000Z</time>
      </trkpt>
      <trkpt lat="45.77365" lon="4.62093">
        <ele>577.6</ele>
        <time>2021-09-27T12:12:03.000Z</time>
      </trkpt>
      <trkpt lat="45.77367" lon="4.62091">
        <ele>576.8</ele>
        <time>2021-09-27T12:12:04.000Z</time>
      </trkpt>
      <trkpt lat="45.77368" lon="4.62089">
        <ele>576.2</ele>
        <time>2021-09-27T12:12:05.000Z</time>
      </trkpt>
      <trkpt lat="45.77366" lon="4.62084">
        <ele>575</ele>
        <time>2021-09-27T12:12:07.000Z</time>
      </trkpt>
      <trkpt lat="45.77367" lon="4.62082">
        <ele>574.6</ele>
        <time>2021-09-27T12:12:08.000Z</time>
      </trkpt>
      <trkpt lat="45.77368" lon="4.6208">
        <ele>574.2</ele>
        <time>2021-09-27T12:12:09.000Z</time>
      </trkpt>
      <trkpt lat="45.77369" lon="4.6208">
        <ele>574</ele>
        <time>2021-09-27T12:12:10.000Z</time>
      </trkpt>
      <trkpt lat="45.7737" lon="4.6208">
        <ele>573.8</ele>
        <time>2021-09-27T12:12:11.000Z</time>
      </trkpt>
      <trkpt lat="45.77373" lon="4.62081">
        <ele>573.4</ele>
        <time>2021-09-27T12:12:12.000Z</time>
      </trkpt>
      <trkpt lat="45.77375" lon="4.62081">
        <ele>572.8</ele>
        <time>2021-09-27T12:12:13.000Z</time>
      </trkpt>
      <trkpt lat="45.77377" lon="4.62082">
        <ele>572.2</ele>
        <time>2021-09-27T12:12:14.000Z</time>
      </trkpt>
      <trkpt lat="45.77382" lon="4.6208">
        <ele>571.2</ele>
        <time>2021-09-27T12:12:16.000Z</time>
      </trkpt>
      <trkpt lat="45.77383" lon="4.6208">
        <ele>570.6</ele>
        <time>2021-09-27T12:12:17.000Z</time>
      </trkpt>
      <trkpt lat="45.77384" lon="4.62079">
        <ele>569.8</ele>
        <time>2021-09-27T12:12:18.000Z</time>
      </trkpt>
      <trkpt lat="45.77394" lon="4.62076">
        <ele>562</ele>
        <time>2021-09-27T12:12:31.000Z</time>
      </trkpt>
      <trkpt lat="45.77394" lon="4.62074">
        <ele>562</ele>
        <time>2021-09-27T12:12:32.000Z</time>
      </trkpt>
      <trkpt lat="45.77394" lon="4.62071">
        <ele>561.8</ele>
        <time>2021-09-27T12:12:33.000Z</time>
      </trkpt>
      <trkpt lat="45.77395" lon="4.6207">
        <ele>561.6</ele>
        <time>2021-09-27T12:12:34.000Z</time>
      </trkpt>
      <trkpt lat="45.77397" lon="4.62069">
        <ele>561.2</ele>
        <time>2021-09-27T12:12:35.000Z</time>
      </trkpt>
      <trkpt lat="45.77401" lon="4.62068">
        <ele>560.8</ele>
        <time>2021-09-27T12:12:36.000Z</time>
      </trkpt>
      <trkpt lat="45.77407" lon="4.62067">
        <ele>559.8</ele>
        <time>2021-09-27T12:12:38.000Z</time>
      </trkpt>
      <trkpt lat="45.77409" lon="4.62066">
        <ele>559.2</ele>
        <time>2021-09-27T12:12:39.000Z</time>
      </trkpt>
      <trkpt lat="45.7741" lon="4.62063">
        <ele>558.4</ele>
        <time>2021-09-27T12:12:40.000Z</time>
      </trkpt>
      <trkpt lat="45.77412" lon="4.6206">
        <ele>557.6</ele>
        <time>2021-09-27T12:12:41.000Z</time>
      </trkpt>
      <trkpt lat="45.77413" lon="4.62058">
        <ele>556.6</ele>
        <time>2021-09-27T12:12:42.000Z</time>
      </trkpt>
      <trkpt lat="45.77421" lon="4.62054">
        <ele>555</ele>
        <time>2021-09-27T12:12:44.000Z</time>
      </trkpt>
      <trkpt lat="45.77424" lon="4.62052">
        <ele>554</ele>
        <time>2021-09-27T12:12:45.000Z</time>
      </trkpt>
      <trkpt lat="45.77426" lon="4.62052">
        <ele>554</ele>
        <time>2021-09-27T12:12:46.000Z</time>
      </trkpt>
      <trkpt lat="45.7743" lon="4.62053">
        <ele>553.2</ele>
        <time>2021-09-27T12:12:47.000Z</time>
      </trkpt>
      <trkpt lat="45.77433" lon="4.62056">
        <ele>552.4</ele>
        <time>2021-09-27T12:12:48.000Z</time>
      </trkpt>
      <trkpt lat="45.77436" lon="4.62057">
        <ele>551.6</ele>
        <time>2021-09-27T12:12:49.000Z</time>
      </trkpt>
      <trkpt lat="45.77438" lon="4.62056">
        <ele>550.6</ele>
        <time>2021-09-27T12:12:50.000Z</time>
      </trkpt>
      <trkpt lat="45.7744" lon="4.62055">
        <ele>549.6</ele>
        <time>2021-09-27T12:12:51.000Z</time>
      </trkpt>
      <trkpt lat="45.77442" lon="4.62054">
        <ele>548.6</ele>
        <time>2021-09-27T12:12:52.000Z</time>
      </trkpt>
      <trkpt lat="45.77443" lon="4.62052">
        <ele>547.6</ele>
        <time>2021-09-27T12:12:53.000Z</time>
      </trkpt>
      <trkpt lat="45.77442" lon="4.62049">
        <ele>541.6</ele>
        <time>2021-09-27T12:13:35.000Z</time>
      </trkpt>
      <trkpt lat="45.77436" lon="4.6204">
        <ele>541.6</ele>
        <time>2021-09-27T12:13:38.000Z</time>
      </trkpt>
      <trkpt lat="45.77435" lon="4.62036">
        <ele>541.6</ele>
        <time>2021-09-27T12:13:39.000Z</time>
      </trkpt>
      <trkpt lat="45.77435" lon="4.62033">
        <ele>541.4</ele>
        <time>2021-09-27T12:13:40.000Z</time>
      </trkpt>
      <trkpt lat="45.77437" lon="4.6203">
        <ele>541.4</ele>
        <time>2021-09-27T12:13:41.000Z</time>
      </trkpt>
      <trkpt lat="45.77441" lon="4.62026">
        <ele>541.2</ele>
        <time>2021-09-27T12:13:43.000Z</time>
      </trkpt>
      <trkpt lat="45.77448" lon="4.62028">
        <ele>540.2</ele>
        <time>2021-09-27T12:13:45.000Z</time>
      </trkpt>
      <trkpt lat="45.77455" lon="4.62032">
        <ele>539.4</ele>
        <time>2021-09-27T12:13:47.000Z</time>
      </trkpt>
      <trkpt lat="45.77459" lon="4.62036">
        <ele>538.6</ele>
        <time>2021-09-27T12:13:48.000Z</time>
      </trkpt>
      <trkpt lat="45.77466" lon="4.62043">
        <ele>536.8</ele>
        <time>2021-09-27T12:13:50.000Z</time>
      </trkpt>
      <trkpt lat="45.7747" lon="4.62045">
        <ele>535.4</ele>
        <time>2021-09-27T12:13:51.000Z</time>
      </trkpt>
      <trkpt lat="45.77473" lon="4.62046">
        <ele>534.2</ele>
        <time>2021-09-27T12:13:52.000Z</time>
      </trkpt>
      <trkpt lat="45.77475" lon="4.62047">
        <ele>533.2</ele>
        <time>2021-09-27T12:13:53.000Z</time>
      </trkpt>
      <trkpt lat="45.77477" lon="4.62049">
        <ele>532.6</ele>
        <time>2021-09-27T12:13:54.000Z</time>
      </trkpt>
      <trkpt lat="45.7748" lon="4.62054">
        <ele>532.2</ele>
        <time>2021-09-27T12:13:55.000Z</time>
      </trkpt>
      <trkpt lat="45.77483" lon="4.62057">
        <ele>531.8</ele>
        <time>2021-09-27T12:13:56.000Z</time>
      </trkpt>
      <trkpt lat="45.77492" lon="4.62069">
        <ele>531.4</ele>
        <time>2021-09-27T12:13:59.000Z</time>
      </trkpt>
      <trkpt lat="45.77495" lon="4.62076">
        <ele>531</ele>
        <time>2021-09-27T12:14:00.000Z</time>
      </trkpt>
      <trkpt lat="45.77497" lon="4.62081">
        <ele>530.4</ele>
        <time>2021-09-27T12:14:01.000Z</time>
      </trkpt>
      <trkpt lat="45.775" lon="4.62086">
        <ele>529.6</ele>
        <time>2021-09-27T12:14:02.000Z</time>
      </trkpt>
      <trkpt lat="45.77505" lon="4.62094">
        <ele>528.6</ele>
        <time>2021-09-27T12:14:04.000Z</time>
      </trkpt>
      <trkpt lat="45.77507" lon="4.62096">
        <ele>527.4</ele>
        <time>2021-09-27T12:14:05.000Z</time>
      </trkpt>
      <trkpt lat="45.7751" lon="4.62097">
        <ele>526.4</ele>
        <time>2021-09-27T12:14:06.000Z</time>
      </trkpt>
      <trkpt lat="45.77513" lon="4.62097">
        <ele>525.6</ele>
        <time>2021-09-27T12:14:07.000Z</time>
      </trkpt>
      <trkpt lat="45.77516" lon="4.62097">
        <ele>525.4</ele>
        <time>2021-09-27T12:14:08.000Z</time>
      </trkpt>
      <trkpt lat="45.77518" lon="4.62098">
        <ele>525.2</ele>
        <time>2021-09-27T12:14:09.000Z</time>
      </trkpt>
      <trkpt lat="45.77519" lon="4.62099">
        <ele>525</ele>
        <time>2021-09-27T12:14:10.000Z</time>
      </trkpt>
      <trkpt lat="45.77521" lon="4.62108">
        <ele>519.4</ele>
        <time>2021-09-27T12:15:26.000Z</time>
      </trkpt>
      <trkpt lat="45.77521" lon="4.62111">
        <ele>519.4</ele>
        <time>2021-09-27T12:15:27.000Z</time>
      </trkpt>
      <trkpt lat="45.77521" lon="4.62112">
        <ele>519.4</ele>
        <time>2021-09-27T12:15:28.000Z</time>
      </trkpt>
      <trkpt lat="45.77526" lon="4.62117">
        <ele>513.2</ele>
        <time>2021-09-27T12:15:52.000Z</time>
      </trkpt>
      <trkpt lat="45.77528" lon="4.62118">
        <ele>512.8</ele>
        <time>2021-09-27T12:15:53.000Z</time>
      </trkpt>
      <trkpt lat="45.77529" lon="4.62119">
        <ele>512.4</ele>
        <time>2021-09-27T12:15:54.000Z</time>
      </trkpt>
      <trkpt lat="45.7753" lon="4.62119">
        <ele>512.2</ele>
        <time>2021-09-27T12:15:55.000Z</time>
      </trkpt>
      <trkpt lat="45.77531" lon="4.6212">
        <ele>512</ele>
        <time>2021-09-27T12:15:57.000Z</time>
      </trkpt>
      <trkpt lat="45.77535" lon="4.62117">
        <ele>507.4</ele>
        <time>2021-09-27T12:16:32.000Z</time>
      </trkpt>
      <trkpt lat="45.77536" lon="4.62115">
        <ele>507.4</ele>
        <time>2021-09-27T12:16:33.000Z</time>
      </trkpt>
      <trkpt lat="45.77538" lon="4.62114">
        <ele>507.4</ele>
        <time>2021-09-27T12:16:34.000Z</time>
      </trkpt>
      <trkpt lat="45.77551" lon="4.62102">
        <ele>507.2</ele>
        <time>2021-09-27T12:16:39.000Z</time>
      </trkpt>
      <trkpt lat="45.77553" lon="4.62099">
        <ele>507.2</ele>
        <time>2021-09-27T12:16:40.000Z</time>
      </trkpt>
      <trkpt lat="45.77569" lon="4.62076">
        <ele>506.8</ele>
        <time>2021-09-27T12:16:46.000Z</time>
      </trkpt>
      <trkpt lat="45.7757" lon="4.62072">
        <ele>506.8</ele>
        <time>2021-09-27T12:16:47.000Z</time>
      </trkpt>
      <trkpt lat="45.77572" lon="4.62068">
        <ele>506.6</ele>
        <time>2021-09-27T12:16:48.000Z</time>
      </trkpt>
      <trkpt lat="45.77573" lon="4.62065">
        <ele>506.6</ele>
        <time>2021-09-27T12:16:49.000Z</time>
      </trkpt>
      <trkpt lat="45.77574" lon="4.62063">
        <ele>506.6</ele>
        <time>2021-09-27T12:16:50.000Z</time>
      </trkpt>
      <trkpt lat="45.77574" lon="4.62061">
        <ele>506.6</ele>
        <time>2021-09-27T12:16:51.000Z</time>
      </trkpt>
      <trkpt lat="45.77575" lon="4.62059">
        <ele>506.6</ele>
        <time>2021-09-27T12:16:52.000Z</time>
      </trkpt>
      <trkpt lat="45.77576" lon="4.62057">
        <ele>506.6</ele>
        <time>2021-09-27T12:16:53.000Z</time>
      </trkpt>
      <trkpt lat="45.77576" lon="4.62055">
        <ele>506.6</ele>
        <time>2021-09-27T12:16:54.000Z</time>
      </trkpt>
      <trkpt lat="45.77577" lon="4.62052">
        <ele>506.4</ele>
        <time>2021-09-27T12:16:55.000Z</time>
      </trkpt>
      <trkpt lat="45.77578" lon="4.6205">
        <ele>506.4</ele>
        <time>2021-09-27T12:16:56.000Z</time>
      </trkpt>
      <trkpt lat="45.77578" lon="4.62034">
        <ele>506.2</ele>
        <time>2021-09-27T12:16:59.000Z</time>
      </trkpt>
      <trkpt lat="45.77577" lon="4.6203">
        <ele>506.2</ele>
        <time>2021-09-27T12:17:00.000Z</time>
      </trkpt>
      <trkpt lat="45.77575" lon="4.62023">
        <ele>506.2</ele>
        <time>2021-09-27T12:17:01.000Z</time>
      </trkpt>
      <trkpt lat="45.77573" lon="4.62019">
        <ele>506.2</ele>
        <time>2021-09-27T12:17:02.000Z</time>
      </trkpt>
      <trkpt lat="45.7757" lon="4.62013">
        <ele>506.2</ele>
        <time>2021-09-27T12:17:03.000Z</time>
      </trkpt>
      <trkpt lat="45.77568" lon="4.62009">
        <ele>506</ele>
        <time>2021-09-27T12:17:04.000Z</time>
      </trkpt>
      <trkpt lat="45.77565" lon="4.62004">
        <ele>505.8</ele>
        <time>2021-09-27T12:17:05.000Z</time>
      </trkpt>
      <trkpt lat="45.77563" lon="4.62002">
        <ele>505.8</ele>
        <time>2021-09-27T12:17:06.000Z</time>
      </trkpt>
      <trkpt lat="45.7756" lon="4.61999">
        <ele>505.4</ele>
        <time>2021-09-27T12:17:07.000Z</time>
      </trkpt>
      <trkpt lat="45.77557" lon="4.61996">
        <ele>505</ele>
        <time>2021-09-27T12:17:08.000Z</time>
      </trkpt>
      <trkpt lat="45.77554" lon="4.61994">
        <ele>504.4</ele>
        <time>2021-09-27T12:17:09.000Z</time>
      </trkpt>
      <trkpt lat="45.77552" lon="4.61993">
        <ele>503.6</ele>
        <time>2021-09-27T12:17:10.000Z</time>
      </trkpt>
      <trkpt lat="45.7755" lon="4.61993">
        <ele>503.2</ele>
        <time>2021-09-27T12:17:11.000Z</time>
      </trkpt>
      <trkpt lat="45.77548" lon="4.61994">
        <ele>502.8</ele>
        <time>2021-09-27T12:17:12.000Z</time>
      </trkpt>
      <trkpt lat="45.77546" lon="4.61995">
        <ele>502.4</ele>
        <time>2021-09-27T12:17:13.000Z</time>
      </trkpt>
      <trkpt lat="45.77545" lon="4.61996">
        <ele>502</ele>
        <time>2021-09-27T12:17:14.000Z</time>
      </trkpt>
      <trkpt lat="45.77542" lon="4.61996">
        <ele>501.8</ele>
        <time>2021-09-27T12:17:16.000Z</time>
      </trkpt>
      <trkpt lat="45.7754" lon="4.61996">
        <ele>501.6</ele>
        <time>2021-09-27T12:17:17.000Z</time>
      </trkpt>
      <trkpt lat="45.77538" lon="4.61996">
        <ele>501.8</ele>
        <time>2021-09-27T12:17:18.000Z</time>
      </trkpt>
      <trkpt lat="45.77536" lon="4.61996">
        <ele>501.8</ele>
        <time>2021-09-27T12:17:19.000Z</time>
      </trkpt>
      <trkpt lat="45.77534" lon="4.61996">
        <ele>501.8</ele>
        <time>2021-09-27T12:17:20.000Z</time>
      </trkpt>
      <trkpt lat="45.77533" lon="4.61996">
        <ele>501.8</ele>
        <time>2021-09-27T12:17:21.000Z</time>
      </trkpt>
      <trkpt lat="45.77531" lon="4.61997">
        <ele>501.8</ele>
        <time>2021-09-27T12:17:22.000Z</time>
      </trkpt>
      <trkpt lat="45.7753" lon="4.61997">
        <ele>501.6</ele>
        <time>2021-09-27T12:17:23.000Z</time>
      </trkpt>
      <trkpt lat="45.77528" lon="4.61997">
        <ele>501.6</ele>
        <time>2021-09-27T12:17:24.000Z</time>
      </trkpt>
      <trkpt lat="45.77527" lon="4.61997">
        <ele>501.8</ele>
        <time>2021-09-27T12:17:25.000Z</time>
      </trkpt>
      <trkpt lat="45.77524" lon="4.61997">
        <ele>502.2</ele>
        <time>2021-09-27T12:17:27.000Z</time>
      </trkpt>
      <trkpt lat="45.77522" lon="4.61997">
        <ele>502.4</ele>
        <time>2021-09-27T12:17:28.000Z</time>
      </trkpt>
      <trkpt lat="45.77521" lon="4.61996">
        <ele>502.6</ele>
        <time>2021-09-27T12:17:29.000Z</time>
      </trkpt>
      <trkpt lat="45.77519" lon="4.61996">
        <ele>502.6</ele>
        <time>2021-09-27T12:17:30.000Z</time>
      </trkpt>
      <trkpt lat="45.77518" lon="4.61995">
        <ele>502.8</ele>
        <time>2021-09-27T12:17:31.000Z</time>
      </trkpt>
      <trkpt lat="45.77517" lon="4.61995">
        <ele>503</ele>
        <time>2021-09-27T12:17:32.000Z</time>
      </trkpt>
      <trkpt lat="45.77516" lon="4.61995">
        <ele>503.2</ele>
        <time>2021-09-27T12:17:33.000Z</time>
      </trkpt>
      <trkpt lat="45.77515" lon="4.61995">
        <ele>503.6</ele>
        <time>2021-09-27T12:17:34.000Z</time>
      </trkpt>
      <trkpt lat="45.77511" lon="4.61994">
        <ele>504.2</ele>
        <time>2021-09-27T12:17:36.000Z</time>
      </trkpt>
      <trkpt lat="45.7751" lon="4.61994">
        <ele>504.6</ele>
        <time>2021-09-27T12:17:37.000Z</time>
      </trkpt>
      <trkpt lat="45.77509" lon="4.61993">
        <ele>504.8</ele>
        <time>2021-09-27T12:17:38.000Z</time>
      </trkpt>
      <trkpt lat="45.77507" lon="4.61992">
        <ele>505.2</ele>
        <time>2021-09-27T12:17:39.000Z</time>
      </trkpt>
      <trkpt lat="45.77505" lon="4.61991">
        <ele>505.4</ele>
        <time>2021-09-27T12:17:41.000Z</time>
      </trkpt>
      <trkpt lat="45.77502" lon="4.6199">
        <ele>506</ele>
        <time>2021-09-27T12:17:43.000Z</time>
      </trkpt>
      <trkpt lat="45.77501" lon="4.61989">
        <ele>506.4</ele>
        <time>2021-09-27T12:17:44.000Z</time>
      </trkpt>
      <trkpt lat="45.775" lon="4.61989">
        <ele>506.4</ele>
        <time>2021-09-27T12:17:45.000Z</time>
      </trkpt>
      <trkpt lat="45.77499" lon="4.61988">
        <ele>506.8</ele>
        <time>2021-09-27T12:17:46.000Z</time>
      </trkpt>
      <trkpt lat="45.77498" lon="4.61987">
        <ele>507</ele>
        <time>2021-09-27T12:17:47.000Z</time>
      </trkpt>
      <trkpt lat="45.77497" lon="4.61986">
        <ele>507.2</ele>
        <time>2021-09-27T12:17:48.000Z</time>
      </trkpt>
      <trkpt lat="45.77496" lon="4.61986">
        <ele>507.6</ele>
        <time>2021-09-27T12:17:49.000Z</time>
      </trkpt>
      <trkpt lat="45.77495" lon="4.61985">
        <ele>507.8</ele>
        <time>2021-09-27T12:17:50.000Z</time>
      </trkpt>
      <trkpt lat="45.77494" lon="4.61985">
        <ele>508.2</ele>
        <time>2021-09-27T12:17:51.000Z</time>
      </trkpt>
      <trkpt lat="45.77493" lon="4.61985">
        <ele>508.6</ele>
        <time>2021-09-27T12:17:52.000Z</time>
      </trkpt>
      <trkpt lat="45.77493" lon="4.61984">
        <ele>508.8</ele>
        <time>2021-09-27T12:17:53.000Z</time>
      </trkpt>
      <trkpt lat="45.77492" lon="4.61984">
        <ele>508.8</ele>
        <time>2021-09-27T12:17:54.000Z</time>
      </trkpt>
      <trkpt lat="45.77491" lon="4.61983">
        <ele>509</ele>
        <time>2021-09-27T12:17:55.000Z</time>
      </trkpt>
      <trkpt lat="45.7749" lon="4.61983">
        <ele>509.2</ele>
        <time>2021-09-27T12:17:56.000Z</time>
      </trkpt>
      <trkpt lat="45.77489" lon="4.61982">
        <ele>509.6</ele>
        <time>2021-09-27T12:17:57.000Z</time>
      </trkpt>
      <trkpt lat="45.77488" lon="4.61982">
        <ele>509.8</ele>
        <time>2021-09-27T12:17:58.000Z</time>
      </trkpt>
      <trkpt lat="45.77486" lon="4.61981">
        <ele>510</ele>
        <time>2021-09-27T12:17:59.000Z</time>
      </trkpt>
      <trkpt lat="45.77485" lon="4.61981">
        <ele>510.4</ele>
        <time>2021-09-27T12:18:00.000Z</time>
      </trkpt>
      <trkpt lat="45.77484" lon="4.6198">
        <ele>510.6</ele>
        <time>2021-09-27T12:18:01.000Z</time>
      </trkpt>
      <trkpt lat="45.77482" lon="4.6198">
        <ele>510.8</ele>
        <time>2021-09-27T12:18:02.000Z</time>
      </trkpt>
      <trkpt lat="45.77481" lon="4.6198">
        <ele>511</ele>
        <time>2021-09-27T12:18:03.000Z</time>
      </trkpt>
      <trkpt lat="45.7748" lon="4.6198">
        <ele>511.2</ele>
        <time>2021-09-27T12:18:04.000Z</time>
      </trkpt>
      <trkpt lat="45.77479" lon="4.6198">
        <ele>511.6</ele>
        <time>2021-09-27T12:18:05.000Z</time>
      </trkpt>
      <trkpt lat="45.77477" lon="4.6198">
        <ele>511.8</ele>
        <time>2021-09-27T12:18:06.000Z</time>
      </trkpt>
      <trkpt lat="45.77475" lon="4.6198">
        <ele>512</ele>
        <time>2021-09-27T12:18:07.000Z</time>
      </trkpt>
      <trkpt lat="45.77474" lon="4.6198">
        <ele>512.2</ele>
        <time>2021-09-27T12:18:08.000Z</time>
      </trkpt>
      <trkpt lat="45.77473" lon="4.6198">
        <ele>512.4</ele>
        <time>2021-09-27T12:18:09.000Z</time>
      </trkpt>
      <trkpt lat="45.77472" lon="4.6198">
        <ele>512.6</ele>
        <time>2021-09-27T12:18:10.000Z</time>
      </trkpt>
      <trkpt lat="45.7747" lon="4.61979">
        <ele>512.8</ele>
        <time>2021-09-27T12:18:11.000Z</time>
      </trkpt>
      <trkpt lat="45.77469" lon="4.61979">
        <ele>513</ele>
        <time>2021-09-27T12:18:12.000Z</time>
      </trkpt>
      <trkpt lat="45.77468" lon="4.61979">
        <ele>513.2</ele>
        <time>2021-09-27T12:18:13.000Z</time>
      </trkpt>
      <trkpt lat="45.77467" lon="4.6198">
        <ele>513.4</ele>
        <time>2021-09-27T12:18:14.000Z</time>
      </trkpt>
      <trkpt lat="45.77466" lon="4.6198">
        <ele>513.8</ele>
        <time>2021-09-27T12:18:15.000Z</time>
      </trkpt>
      <trkpt lat="45.77465" lon="4.6198">
        <ele>514</ele>
        <time>2021-09-27T12:18:16.000Z</time>
      </trkpt>
      <trkpt lat="45.77464" lon="4.6198">
        <ele>514</ele>
        <time>2021-09-27T12:18:17.000Z</time>
      </trkpt>
      <trkpt lat="45.77463" lon="4.6198">
        <ele>514.2</ele>
        <time>2021-09-27T12:18:18.000Z</time>
      </trkpt>
      <trkpt lat="45.77462" lon="4.6198">
        <ele>514.2</ele>
        <time>2021-09-27T12:18:19.000Z</time>
      </trkpt>
      <trkpt lat="45.7746" lon="4.61981">
        <ele>514.6</ele>
        <time>2021-09-27T12:18:20.000Z</time>
      </trkpt>
      <trkpt lat="45.77459" lon="4.61981">
        <ele>514.8</ele>
        <time>2021-09-27T12:18:21.000Z</time>
      </trkpt>
      <trkpt lat="45.77457" lon="4.61981">
        <ele>515</ele>
        <time>2021-09-27T12:18:22.000Z</time>
      </trkpt>
      <trkpt lat="45.77456" lon="4.61981">
        <ele>515.6</ele>
        <time>2021-09-27T12:18:24.000Z</time>
      </trkpt>
      <trkpt lat="45.77455" lon="4.61981">
        <ele>515.8</ele>
        <time>2021-09-27T12:18:25.000Z</time>
      </trkpt>
      <trkpt lat="45.77454" lon="4.61981">
        <ele>516</ele>
        <time>2021-09-27T12:18:26.000Z</time>
      </trkpt>
      <trkpt lat="45.77452" lon="4.61981">
        <ele>516.4</ele>
        <time>2021-09-27T12:18:27.000Z</time>
      </trkpt>
      <trkpt lat="45.77451" lon="4.61981">
        <ele>516.6</ele>
        <time>2021-09-27T12:18:28.000Z</time>
      </trkpt>
      <trkpt lat="45.7745" lon="4.61981">
        <ele>516.8</ele>
        <time>2021-09-27T12:18:29.000Z</time>
      </trkpt>
      <trkpt lat="45.77449" lon="4.61981">
        <ele>517</ele>
        <time>2021-09-27T12:18:30.000Z</time>
      </trkpt>
      <trkpt lat="45.77448" lon="4.61982">
        <ele>517.2</ele>
        <time>2021-09-27T12:18:31.000Z</time>
      </trkpt>
      <trkpt lat="45.77446" lon="4.61982">
        <ele>517.6</ele>
        <time>2021-09-27T12:18:32.000Z</time>
      </trkpt>
      <trkpt lat="45.77445" lon="4.61981">
        <ele>517.8</ele>
        <time>2021-09-27T12:18:33.000Z</time>
      </trkpt>
      <trkpt lat="45.77444" lon="4.61982">
        <ele>518.2</ele>
        <time>2021-09-27T12:18:34.000Z</time>
      </trkpt>
      <trkpt lat="45.77443" lon="4.61982">
        <ele>518.4</ele>
        <time>2021-09-27T12:18:35.000Z</time>
      </trkpt>
      <trkpt lat="45.77442" lon="4.61982">
        <ele>518.8</ele>
        <time>2021-09-27T12:18:36.000Z</time>
      </trkpt>
      <trkpt lat="45.77441" lon="4.61982">
        <ele>519.2</ele>
        <time>2021-09-27T12:18:37.000Z</time>
      </trkpt>
      <trkpt lat="45.7744" lon="4.61982">
        <ele>519.4</ele>
        <time>2021-09-27T12:18:38.000Z</time>
      </trkpt>
      <trkpt lat="45.77439" lon="4.61982">
        <ele>519.8</ele>
        <time>2021-09-27T12:18:39.000Z</time>
      </trkpt>
      <trkpt lat="45.77438" lon="4.61983">
        <ele>520</ele>
        <time>2021-09-27T12:18:40.000Z</time>
      </trkpt>
      <trkpt lat="45.77437" lon="4.61983">
        <ele>520</ele>
        <time>2021-09-27T12:18:41.000Z</time>
      </trkpt>
      <trkpt lat="45.77436" lon="4.61983">
        <ele>520.4</ele>
        <time>2021-09-27T12:18:42.000Z</time>
      </trkpt>
      <trkpt lat="45.77434" lon="4.61983">
        <ele>520.6</ele>
        <time>2021-09-27T12:18:43.000Z</time>
      </trkpt>
      <trkpt lat="45.77433" lon="4.61984">
        <ele>521</ele>
        <time>2021-09-27T12:18:44.000Z</time>
      </trkpt>
      <trkpt lat="45.77431" lon="4.61985">
        <ele>521.2</ele>
        <time>2021-09-27T12:18:45.000Z</time>
      </trkpt>
      <trkpt lat="45.77429" lon="4.61985">
        <ele>521.6</ele>
        <time>2021-09-27T12:18:46.000Z</time>
      </trkpt>
      <trkpt lat="45.77428" lon="4.61986">
        <ele>521.8</ele>
        <time>2021-09-27T12:18:47.000Z</time>
      </trkpt>
      <trkpt lat="45.77427" lon="4.61985">
        <ele>522.4</ele>
        <time>2021-09-27T12:18:49.000Z</time>
      </trkpt>
      <trkpt lat="45.77426" lon="4.61985">
        <ele>522.8</ele>
        <time>2021-09-27T12:18:50.000Z</time>
      </trkpt>
      <trkpt lat="45.77424" lon="4.61985">
        <ele>523</ele>
        <time>2021-09-27T12:18:51.000Z</time>
      </trkpt>
      <trkpt lat="45.77423" lon="4.61985">
        <ele>523.4</ele>
        <time>2021-09-27T12:18:52.000Z</time>
      </trkpt>
      <trkpt lat="45.77422" lon="4.61985">
        <ele>523.8</ele>
        <time>2021-09-27T12:18:53.000Z</time>
      </trkpt>
      <trkpt lat="45.77422" lon="4.61984">
        <ele>524</ele>
        <time>2021-09-27T12:18:54.000Z</time>
      </trkpt>
      <trkpt lat="45.77421" lon="4.61984">
        <ele>524.4</ele>
        <time>2021-09-27T12:18:55.000Z</time>
      </trkpt>
      <trkpt lat="45.7742" lon="4.61983">
        <ele>524.8</ele>
        <time>2021-09-27T12:18:56.000Z</time>
      </trkpt>
      <trkpt lat="45.77419" lon="4.61983">
        <ele>525.2</ele>
        <time>2021-09-27T12:18:57.000Z</time>
      </trkpt>
      <trkpt lat="45.77418" lon="4.61983">
        <ele>525.4</ele>
        <time>2021-09-27T12:18:58.000Z</time>
      </trkpt>
      <trkpt lat="45.77417" lon="4.61983">
        <ele>525.6</ele>
        <time>2021-09-27T12:18:59.000Z</time>
      </trkpt>
      <trkpt lat="45.77416" lon="4.61983">
        <ele>525.8</ele>
        <time>2021-09-27T12:19:00.000Z</time>
      </trkpt>
      <trkpt lat="45.77415" lon="4.61983">
        <ele>526</ele>
        <time>2021-09-27T12:19:01.000Z</time>
      </trkpt>
      <trkpt lat="45.77414" lon="4.61982">
        <ele>526.4</ele>
        <time>2021-09-27T12:19:02.000Z</time>
      </trkpt>
      <trkpt lat="45.77413" lon="4.61983">
        <ele>526.6</ele>
        <time>2021-09-27T12:19:03.000Z</time>
      </trkpt>
      <trkpt lat="45.77413" lon="4.61982">
        <ele>526.6</ele>
        <time>2021-09-27T12:19:04.000Z</time>
      </trkpt>
      <trkpt lat="45.77412" lon="4.61982">
        <ele>526.8</ele>
        <time>2021-09-27T12:19:05.000Z</time>
      </trkpt>
      <trkpt lat="45.77411" lon="4.61982">
        <ele>527</ele>
        <time>2021-09-27T12:19:06.000Z</time>
      </trkpt>
      <trkpt lat="45.7741" lon="4.61982">
        <ele>527.2</ele>
        <time>2021-09-27T12:19:07.000Z</time>
      </trkpt>
      <trkpt lat="45.7741" lon="4.61981">
        <ele>527.6</ele>
        <time>2021-09-27T12:19:08.000Z</time>
      </trkpt>
      <trkpt lat="45.77409" lon="4.6198">
        <ele>527.8</ele>
        <time>2021-09-27T12:19:09.000Z</time>
      </trkpt>
      <trkpt lat="45.77408" lon="4.6198">
        <ele>527.8</ele>
        <time>2021-09-27T12:19:10.000Z</time>
      </trkpt>
      <trkpt lat="45.77406" lon="4.61979">
        <ele>528.2</ele>
        <time>2021-09-27T12:19:11.000Z</time>
      </trkpt>
      <trkpt lat="45.77404" lon="4.61979">
        <ele>528.2</ele>
        <time>2021-09-27T12:19:12.000Z</time>
      </trkpt>
      <trkpt lat="45.77403" lon="4.61978">
        <ele>528.4</ele>
        <time>2021-09-27T12:19:13.000Z</time>
      </trkpt>
      <trkpt lat="45.77401" lon="4.61978">
        <ele>528.8</ele>
        <time>2021-09-27T12:19:14.000Z</time>
      </trkpt>
      <trkpt lat="45.774" lon="4.61977">
        <ele>528.8</ele>
        <time>2021-09-27T12:19:15.000Z</time>
      </trkpt>
      <trkpt lat="45.77399" lon="4.61977">
        <ele>529</ele>
        <time>2021-09-27T12:19:16.000Z</time>
      </trkpt>
      <trkpt lat="45.77398" lon="4.61977">
        <ele>529.2</ele>
        <time>2021-09-27T12:19:17.000Z</time>
      </trkpt>
      <trkpt lat="45.77397" lon="4.61976">
        <ele>529.4</ele>
        <time>2021-09-27T12:19:18.000Z</time>
      </trkpt>
      <trkpt lat="45.77396" lon="4.61976">
        <ele>529.6</ele>
        <time>2021-09-27T12:19:19.000Z</time>
      </trkpt>
      <trkpt lat="45.77396" lon="4.61975">
        <ele>530</ele>
        <time>2021-09-27T12:19:20.000Z</time>
      </trkpt>
      <trkpt lat="45.77395" lon="4.61974">
        <ele>530.2</ele>
        <time>2021-09-27T12:19:21.000Z</time>
      </trkpt>
      <trkpt lat="45.77394" lon="4.61974">
        <ele>530.4</ele>
        <time>2021-09-27T12:19:22.000Z</time>
      </trkpt>
      <trkpt lat="45.77393" lon="4.61973">
        <ele>530.6</ele>
        <time>2021-09-27T12:19:23.000Z</time>
      </trkpt>
      <trkpt lat="45.77391" lon="4.61973">
        <ele>530.8</ele>
        <time>2021-09-27T12:19:24.000Z</time>
      </trkpt>
      <trkpt lat="45.7739" lon="4.61973">
        <ele>531</ele>
        <time>2021-09-27T12:19:25.000Z</time>
      </trkpt>
      <trkpt lat="45.7739" lon="4.61972">
        <ele>531.2</ele>
        <time>2021-09-27T12:19:26.000Z</time>
      </trkpt>
      <trkpt lat="45.77389" lon="4.61972">
        <ele>531.4</ele>
        <time>2021-09-27T12:19:27.000Z</time>
      </trkpt>
      <trkpt lat="45.77387" lon="4.61971">
        <ele>531.4</ele>
        <time>2021-09-27T12:19:28.000Z</time>
      </trkpt>
      <trkpt lat="45.77386" lon="4.6197">
        <ele>531.8</ele>
        <time>2021-09-27T12:19:29.000Z</time>
      </trkpt>
      <trkpt lat="45.77384" lon="4.6197">
        <ele>531.8</ele>
        <time>2021-09-27T12:19:30.000Z</time>
      </trkpt>
      <trkpt lat="45.77384" lon="4.61969">
        <ele>532.2</ele>
        <time>2021-09-27T12:19:31.000Z</time>
      </trkpt>
      <trkpt lat="45.77383" lon="4.61969">
        <ele>532.4</ele>
        <time>2021-09-27T12:19:32.000Z</time>
      </trkpt>
      <trkpt lat="45.77382" lon="4.61968">
        <ele>532.8</ele>
        <time>2021-09-27T12:19:33.000Z</time>
      </trkpt>
      <trkpt lat="45.7738" lon="4.61967">
        <ele>532.8</ele>
        <time>2021-09-27T12:19:34.000Z</time>
      </trkpt>
      <trkpt lat="45.77379" lon="4.61966">
        <ele>533</ele>
        <time>2021-09-27T12:19:35.000Z</time>
      </trkpt>
      <trkpt lat="45.77378" lon="4.61965">
        <ele>533.2</ele>
        <time>2021-09-27T12:19:36.000Z</time>
      </trkpt>
      <trkpt lat="45.77377" lon="4.61964">
        <ele>533.4</ele>
        <time>2021-09-27T12:19:37.000Z</time>
      </trkpt>
      <trkpt lat="45.77376" lon="4.61964">
        <ele>533.6</ele>
        <time>2021-09-27T12:19:38.000Z</time>
      </trkpt>
      <trkpt lat="45.77375" lon="4.61962">
        <ele>533.8</ele>
        <time>2021-09-27T12:19:39.000Z</time>
      </trkpt>
      <trkpt lat="45.77374" lon="4.61962">
        <ele>534</ele>
        <time>2021-09-27T12:19:40.000Z</time>
      </trkpt>
      <trkpt lat="45.77374" lon="4.61961">
        <ele>534.4</ele>
        <time>2021-09-27T12:19:41.000Z</time>
      </trkpt>
      <trkpt lat="45.77373" lon="4.6196">
        <ele>534.6</ele>
        <time>2021-09-27T12:19:42.000Z</time>
      </trkpt>
      <trkpt lat="45.77372" lon="4.61959">
        <ele>534.8</ele>
        <time>2021-09-27T12:19:43.000Z</time>
      </trkpt>
      <trkpt lat="45.77371" lon="4.61958">
        <ele>535</ele>
        <time>2021-09-27T12:19:44.000Z</time>
      </trkpt>
      <trkpt lat="45.7737" lon="4.61957">
        <ele>535.2</ele>
        <time>2021-09-27T12:19:45.000Z</time>
      </trkpt>
      <trkpt lat="45.77368" lon="4.61957">
        <ele>535.4</ele>
        <time>2021-09-27T12:19:46.000Z</time>
      </trkpt>
      <trkpt lat="45.77366" lon="4.61956">
        <ele>535.4</ele>
        <time>2021-09-27T12:19:47.000Z</time>
      </trkpt>
      <trkpt lat="45.77365" lon="4.61956">
        <ele>535.8</ele>
        <time>2021-09-27T12:19:48.000Z</time>
      </trkpt>
      <trkpt lat="45.77363" lon="4.61955">
        <ele>536</ele>
        <time>2021-09-27T12:19:49.000Z</time>
      </trkpt>
      <trkpt lat="45.77362" lon="4.61954">
        <ele>536.2</ele>
        <time>2021-09-27T12:19:50.000Z</time>
      </trkpt>
      <trkpt lat="45.77362" lon="4.61953">
        <ele>536.4</ele>
        <time>2021-09-27T12:19:51.000Z</time>
      </trkpt>
      <trkpt lat="45.77361" lon="4.61951">
        <ele>536.4</ele>
        <time>2021-09-27T12:19:52.000Z</time>
      </trkpt>
      <trkpt lat="45.7736" lon="4.6195">
        <ele>536.8</ele>
        <time>2021-09-27T12:19:53.000Z</time>
      </trkpt>
      <trkpt lat="45.7736" lon="4.61949">
        <ele>536.8</ele>
        <time>2021-09-27T12:19:54.000Z</time>
      </trkpt>
      <trkpt lat="45.77359" lon="4.61948">
        <ele>537</ele>
        <time>2021-09-27T12:19:55.000Z</time>
      </trkpt>
      <trkpt lat="45.77358" lon="4.61946">
        <ele>537.2</ele>
        <time>2021-09-27T12:19:56.000Z</time>
      </trkpt>
      <trkpt lat="45.77357" lon="4.61946">
        <ele>537.2</ele>
        <time>2021-09-27T12:19:57.000Z</time>
      </trkpt>
      <trkpt lat="45.77356" lon="4.61945">
        <ele>537.4</ele>
        <time>2021-09-27T12:19:58.000Z</time>
      </trkpt>
      <trkpt lat="45.77355" lon="4.61943">
        <ele>537.6</ele>
        <time>2021-09-27T12:19:59.000Z</time>
      </trkpt>
      <trkpt lat="45.77354" lon="4.61942">
        <ele>537.8</ele>
        <time>2021-09-27T12:20:00.000Z</time>
      </trkpt>
      <trkpt lat="45.77353" lon="4.61941">
        <ele>538.4</ele>
        <time>2021-09-27T12:20:01.000Z</time>
      </trkpt>
      <trkpt lat="45.77352" lon="4.61941">
        <ele>538.4</ele>
        <time>2021-09-27T12:20:02.000Z</time>
      </trkpt>
      <trkpt lat="45.77351" lon="4.6194">
        <ele>538.6</ele>
        <time>2021-09-27T12:20:03.000Z</time>
      </trkpt>
      <trkpt lat="45.77349" lon="4.61939">
        <ele>538.8</ele>
        <time>2021-09-27T12:20:04.000Z</time>
      </trkpt>
      <trkpt lat="45.77348" lon="4.61938">
        <ele>539.2</ele>
        <time>2021-09-27T12:20:05.000Z</time>
      </trkpt>
      <trkpt lat="45.77347" lon="4.61937">
        <ele>539.4</ele>
        <time>2021-09-27T12:20:06.000Z</time>
      </trkpt>
      <trkpt lat="45.77346" lon="4.61936">
        <ele>539.6</ele>
        <time>2021-09-27T12:20:07.000Z</time>
      </trkpt>
      <trkpt lat="45.77345" lon="4.61936">
        <ele>539.8</ele>
        <time>2021-09-27T12:20:08.000Z</time>
      </trkpt>
      <trkpt lat="45.77344" lon="4.61935">
        <ele>540.2</ele>
        <time>2021-09-27T12:20:09.000Z</time>
      </trkpt>
      <trkpt lat="45.77343" lon="4.61934">
        <ele>540.4</ele>
        <time>2021-09-27T12:20:10.000Z</time>
      </trkpt>
      <trkpt lat="45.77342" lon="4.61932">
        <ele>540.4</ele>
        <time>2021-09-27T12:20:11.000Z</time>
      </trkpt>
      <trkpt lat="45.77341" lon="4.6193">
        <ele>540.8</ele>
        <time>2021-09-27T12:20:12.000Z</time>
      </trkpt>
      <trkpt lat="45.7734" lon="4.61929">
        <ele>541</ele>
        <time>2021-09-27T12:20:13.000Z</time>
      </trkpt>
      <trkpt lat="45.77339" lon="4.61928">
        <ele>541.2</ele>
        <time>2021-09-27T12:20:14.000Z</time>
      </trkpt>
      <trkpt lat="45.77338" lon="4.61927">
        <ele>541.2</ele>
        <time>2021-09-27T12:20:15.000Z</time>
      </trkpt>
      <trkpt lat="45.77338" lon="4.61925">
        <ele>541.4</ele>
        <time>2021-09-27T12:20:16.000Z</time>
      </trkpt>
      <trkpt lat="45.77336" lon="4.61923">
        <ele>541.6</ele>
        <time>2021-09-27T12:20:17.000Z</time>
      </trkpt>
      <trkpt lat="45.77335" lon="4.61921">
        <ele>541.8</ele>
        <time>2021-09-27T12:20:18.000Z</time>
      </trkpt>
      <trkpt lat="45.77335" lon="4.6192">
        <ele>542</ele>
        <time>2021-09-27T12:20:19.000Z</time>
      </trkpt>
      <trkpt lat="45.77334" lon="4.61919">
        <ele>542.4</ele>
        <time>2021-09-27T12:20:20.000Z</time>
      </trkpt>
      <trkpt lat="45.77333" lon="4.61917">
        <ele>542.4</ele>
        <time>2021-09-27T12:20:21.000Z</time>
      </trkpt>
      <trkpt lat="45.77332" lon="4.61915">
        <ele>542.6</ele>
        <time>2021-09-27T12:20:22.000Z</time>
      </trkpt>
      <trkpt lat="45.7733" lon="4.61914">
        <ele>542.8</ele>
        <time>2021-09-27T12:20:23.000Z</time>
      </trkpt>
      <trkpt lat="45.77329" lon="4.61912">
        <ele>543</ele>
        <time>2021-09-27T12:20:24.000Z</time>
      </trkpt>
      <trkpt lat="45.77329" lon="4.6191">
        <ele>543.2</ele>
        <time>2021-09-27T12:20:25.000Z</time>
      </trkpt>
      <trkpt lat="45.77328" lon="4.61909">
        <ele>543.2</ele>
        <time>2021-09-27T12:20:26.000Z</time>
      </trkpt>
      <trkpt lat="45.77327" lon="4.61907">
        <ele>543.4</ele>
        <time>2021-09-27T12:20:27.000Z</time>
      </trkpt>
      <trkpt lat="45.77326" lon="4.61906">
        <ele>543.6</ele>
        <time>2021-09-27T12:20:28.000Z</time>
      </trkpt>
      <trkpt lat="45.77325" lon="4.61905">
        <ele>543.6</ele>
        <time>2021-09-27T12:20:29.000Z</time>
      </trkpt>
      <trkpt lat="45.77324" lon="4.61904">
        <ele>543.8</ele>
        <time>2021-09-27T12:20:30.000Z</time>
      </trkpt>
      <trkpt lat="45.77323" lon="4.61903">
        <ele>543.8</ele>
        <time>2021-09-27T12:20:31.000Z</time>
      </trkpt>
      <trkpt lat="45.77322" lon="4.61903">
        <ele>544</ele>
        <time>2021-09-27T12:20:32.000Z</time>
      </trkpt>
      <trkpt lat="45.77322" lon="4.61902">
        <ele>544</ele>
        <time>2021-09-27T12:20:33.000Z</time>
      </trkpt>
      <trkpt lat="45.77321" lon="4.61901">
        <ele>544.2</ele>
        <time>2021-09-27T12:20:34.000Z</time>
      </trkpt>
      <trkpt lat="45.7732" lon="4.619">
        <ele>544.4</ele>
        <time>2021-09-27T12:20:35.000Z</time>
      </trkpt>
      <trkpt lat="45.77319" lon="4.619">
        <ele>544.6</ele>
        <time>2021-09-27T12:20:36.000Z</time>
      </trkpt>
      <trkpt lat="45.77318" lon="4.61899">
        <ele>544.8</ele>
        <time>2021-09-27T12:20:37.000Z</time>
      </trkpt>
      <trkpt lat="45.77316" lon="4.61899">
        <ele>545</ele>
        <time>2021-09-27T12:20:38.000Z</time>
      </trkpt>
      <trkpt lat="45.77315" lon="4.61898">
        <ele>545</ele>
        <time>2021-09-27T12:20:39.000Z</time>
      </trkpt>
      <trkpt lat="45.77314" lon="4.61897">
        <ele>545.4</ele>
        <time>2021-09-27T12:20:40.000Z</time>
      </trkpt>
      <trkpt lat="45.77313" lon="4.61896">
        <ele>545.4</ele>
        <time>2021-09-27T12:20:41.000Z</time>
      </trkpt>
      <trkpt lat="45.77312" lon="4.61895">
        <ele>545.8</ele>
        <time>2021-09-27T12:20:42.000Z</time>
      </trkpt>
      <trkpt lat="45.77311" lon="4.61893">
        <ele>546</ele>
        <time>2021-09-27T12:20:43.000Z</time>
      </trkpt>
      <trkpt lat="45.7731" lon="4.61892">
        <ele>546.2</ele>
        <time>2021-09-27T12:20:44.000Z</time>
      </trkpt>
      <trkpt lat="45.77309" lon="4.6189">
        <ele>546.4</ele>
        <time>2021-09-27T12:20:45.000Z</time>
      </trkpt>
      <trkpt lat="45.77308" lon="4.61889">
        <ele>546.6</ele>
        <time>2021-09-27T12:20:46.000Z</time>
      </trkpt>
      <trkpt lat="45.77306" lon="4.61887">
        <ele>546.8</ele>
        <time>2021-09-27T12:20:47.000Z</time>
      </trkpt>
      <trkpt lat="45.77305" lon="4.61885">
        <ele>547</ele>
        <time>2021-09-27T12:20:48.000Z</time>
      </trkpt>
      <trkpt lat="45.77303" lon="4.61883">
        <ele>547.2</ele>
        <time>2021-09-27T12:20:49.000Z</time>
      </trkpt>
      <trkpt lat="45.77302" lon="4.6188">
        <ele>547.4</ele>
        <time>2021-09-27T12:20:50.000Z</time>
      </trkpt>
      <trkpt lat="45.77301" lon="4.61879">
        <ele>547.4</ele>
        <time>2021-09-27T12:20:51.000Z</time>
      </trkpt>
      <trkpt lat="45.773" lon="4.61877">
        <ele>547.6</ele>
        <time>2021-09-27T12:20:52.000Z</time>
      </trkpt>
      <trkpt lat="45.773" lon="4.61876">
        <ele>547.8</ele>
        <time>2021-09-27T12:20:53.000Z</time>
      </trkpt>
      <trkpt lat="45.77299" lon="4.61874">
        <ele>548</ele>
        <time>2021-09-27T12:20:54.000Z</time>
      </trkpt>
      <trkpt lat="45.77299" lon="4.61872">
        <ele>548.2</ele>
        <time>2021-09-27T12:20:55.000Z</time>
      </trkpt>
      <trkpt lat="45.77298" lon="4.61871">
        <ele>548.4</ele>
        <time>2021-09-27T12:20:56.000Z</time>
      </trkpt>
      <trkpt lat="45.77298" lon="4.61869">
        <ele>548.8</ele>
        <time>2021-09-27T12:20:57.000Z</time>
      </trkpt>
      <trkpt lat="45.77297" lon="4.61867">
        <ele>549.2</ele>
        <time>2021-09-27T12:20:58.000Z</time>
      </trkpt>
      <trkpt lat="45.77296" lon="4.61865">
        <ele>549.8</ele>
        <time>2021-09-27T12:20:59.000Z</time>
      </trkpt>
      <trkpt lat="45.77296" lon="4.61863">
        <ele>550</ele>
        <time>2021-09-27T12:21:00.000Z</time>
      </trkpt>
      <trkpt lat="45.77295" lon="4.61862">
        <ele>550.4</ele>
        <time>2021-09-27T12:21:01.000Z</time>
      </trkpt>
      <trkpt lat="45.77295" lon="4.6186">
        <ele>550.4</ele>
        <time>2021-09-27T12:21:02.000Z</time>
      </trkpt>
      <trkpt lat="45.77295" lon="4.61858">
        <ele>550.8</ele>
        <time>2021-09-27T12:21:03.000Z</time>
      </trkpt>
      <trkpt lat="45.77294" lon="4.61856">
        <ele>551</ele>
        <time>2021-09-27T12:21:04.000Z</time>
      </trkpt>
      <trkpt lat="45.77293" lon="4.61854">
        <ele>551.2</ele>
        <time>2021-09-27T12:21:05.000Z</time>
      </trkpt>
      <trkpt lat="45.77293" lon="4.61853">
        <ele>551.4</ele>
        <time>2021-09-27T12:21:06.000Z</time>
      </trkpt>
      <trkpt lat="45.77292" lon="4.61851">
        <ele>551.6</ele>
        <time>2021-09-27T12:21:07.000Z</time>
      </trkpt>
      <trkpt lat="45.77291" lon="4.61849">
        <ele>552</ele>
        <time>2021-09-27T12:21:08.000Z</time>
      </trkpt>
      <trkpt lat="45.7729" lon="4.61847">
        <ele>552.2</ele>
        <time>2021-09-27T12:21:09.000Z</time>
      </trkpt>
      <trkpt lat="45.77289" lon="4.61846">
        <ele>552.2</ele>
        <time>2021-09-27T12:21:10.000Z</time>
      </trkpt>
      <trkpt lat="45.77289" lon="4.61844">
        <ele>552.4</ele>
        <time>2021-09-27T12:21:11.000Z</time>
      </trkpt>
      <trkpt lat="45.77288" lon="4.61843">
        <ele>552.6</ele>
        <time>2021-09-27T12:21:12.000Z</time>
      </trkpt>
      <trkpt lat="45.77287" lon="4.61841">
        <ele>552.8</ele>
        <time>2021-09-27T12:21:13.000Z</time>
      </trkpt>
      <trkpt lat="45.77286" lon="4.61839">
        <ele>552.8</ele>
        <time>2021-09-27T12:21:14.000Z</time>
      </trkpt>
      <trkpt lat="45.77285" lon="4.61837">
        <ele>553</ele>
        <time>2021-09-27T12:21:15.000Z</time>
      </trkpt>
      <trkpt lat="45.77284" lon="4.61835">
        <ele>553</ele>
        <time>2021-09-27T12:21:16.000Z</time>
      </trkpt>
      <trkpt lat="45.77284" lon="4.61833">
        <ele>553</ele>
        <time>2021-09-27T12:21:17.000Z</time>
      </trkpt>
      <trkpt lat="45.77282" lon="4.61831">
        <ele>553</ele>
        <time>2021-09-27T12:21:18.000Z</time>
      </trkpt>
      <trkpt lat="45.77281" lon="4.61828">
        <ele>553.2</ele>
        <time>2021-09-27T12:21:19.000Z</time>
      </trkpt>
      <trkpt lat="45.7728" lon="4.61826">
        <ele>553.2</ele>
        <time>2021-09-27T12:21:20.000Z</time>
      </trkpt>
      <trkpt lat="45.77279" lon="4.61824">
        <ele>553.2</ele>
        <time>2021-09-27T12:21:21.000Z</time>
      </trkpt>
      <trkpt lat="45.77278" lon="4.61821">
        <ele>553.2</ele>
        <time>2021-09-27T12:21:22.000Z</time>
      </trkpt>
      <trkpt lat="45.77277" lon="4.6182">
        <ele>553.2</ele>
        <time>2021-09-27T12:21:23.000Z</time>
      </trkpt>
      <trkpt lat="45.77276" lon="4.61818">
        <ele>553.4</ele>
        <time>2021-09-27T12:21:24.000Z</time>
      </trkpt>
      <trkpt lat="45.77274" lon="4.61816">
        <ele>553.4</ele>
        <time>2021-09-27T12:21:25.000Z</time>
      </trkpt>
      <trkpt lat="45.77273" lon="4.61815">
        <ele>553.4</ele>
        <time>2021-09-27T12:21:26.000Z</time>
      </trkpt>
      <trkpt lat="45.77272" lon="4.61813">
        <ele>553.4</ele>
        <time>2021-09-27T12:21:27.000Z</time>
      </trkpt>
      <trkpt lat="45.7727" lon="4.61811">
        <ele>553.4</ele>
        <time>2021-09-27T12:21:28.000Z</time>
      </trkpt>
      <trkpt lat="45.77269" lon="4.61809">
        <ele>553.4</ele>
        <time>2021-09-27T12:21:29.000Z</time>
      </trkpt>
      <trkpt lat="45.77268" lon="4.61807">
        <ele>553.4</ele>
        <time>2021-09-27T12:21:30.000Z</time>
      </trkpt>
      <trkpt lat="45.77267" lon="4.61806">
        <ele>553.4</ele>
        <time>2021-09-27T12:21:31.000Z</time>
      </trkpt>
      <trkpt lat="45.77265" lon="4.61804">
        <ele>553.6</ele>
        <time>2021-09-27T12:21:32.000Z</time>
      </trkpt>
      <trkpt lat="45.77264" lon="4.61803">
        <ele>553.6</ele>
        <time>2021-09-27T12:21:33.000Z</time>
      </trkpt>
      <trkpt lat="45.77262" lon="4.61801">
        <ele>553.8</ele>
        <time>2021-09-27T12:21:34.000Z</time>
      </trkpt>
      <trkpt lat="45.77251" lon="4.61793">
        <ele>554.4</ele>
        <time>2021-09-27T12:21:41.000Z</time>
      </trkpt>
      <trkpt lat="45.77249" lon="4.61792">
        <ele>554.4</ele>
        <time>2021-09-27T12:21:42.000Z</time>
      </trkpt>
      <trkpt lat="45.77247" lon="4.61791">
        <ele>554.6</ele>
        <time>2021-09-27T12:21:43.000Z</time>
      </trkpt>
      <trkpt lat="45.77245" lon="4.6179">
        <ele>554.6</ele>
        <time>2021-09-27T12:21:44.000Z</time>
      </trkpt>
      <trkpt lat="45.77233" lon="4.61789">
        <ele>555.4</ele>
        <time>2021-09-27T12:21:51.000Z</time>
      </trkpt>
      <trkpt lat="45.77231" lon="4.61789">
        <ele>555.4</ele>
        <time>2021-09-27T12:21:52.000Z</time>
      </trkpt>
      <trkpt lat="45.77222" lon="4.61791">
        <ele>555.8</ele>
        <time>2021-09-27T12:21:57.000Z</time>
      </trkpt>
      <trkpt lat="45.7722" lon="4.61792">
        <ele>555.8</ele>
        <time>2021-09-27T12:21:58.000Z</time>
      </trkpt>
      <trkpt lat="45.77219" lon="4.61793">
        <ele>556</ele>
        <time>2021-09-27T12:21:59.000Z</time>
      </trkpt>
      <trkpt lat="45.77217" lon="4.61794">
        <ele>556</ele>
        <time>2021-09-27T12:22:00.000Z</time>
      </trkpt>
      <trkpt lat="45.77215" lon="4.61795">
        <ele>556.2</ele>
        <time>2021-09-27T12:22:01.000Z</time>
      </trkpt>
      <trkpt lat="45.77214" lon="4.61796">
        <ele>556.2</ele>
        <time>2021-09-27T12:22:02.000Z</time>
      </trkpt>
      <trkpt lat="45.77212" lon="4.61796">
        <ele>556.4</ele>
        <time>2021-09-27T12:22:03.000Z</time>
      </trkpt>
      <trkpt lat="45.77211" lon="4.61796">
        <ele>556.4</ele>
        <time>2021-09-27T12:22:04.000Z</time>
      </trkpt>
      <trkpt lat="45.77207" lon="4.61796">
        <ele>556.6</ele>
        <time>2021-09-27T12:22:06.000Z</time>
      </trkpt>
      <trkpt lat="45.77206" lon="4.61795">
        <ele>556.6</ele>
        <time>2021-09-27T12:22:07.000Z</time>
      </trkpt>
      <trkpt lat="45.77205" lon="4.61795">
        <ele>556.8</ele>
        <time>2021-09-27T12:22:08.000Z</time>
      </trkpt>
      <trkpt lat="45.77203" lon="4.61795">
        <ele>557</ele>
        <time>2021-09-27T12:22:09.000Z</time>
      </trkpt>
      <trkpt lat="45.77202" lon="4.61794">
        <ele>557.2</ele>
        <time>2021-09-27T12:22:10.000Z</time>
      </trkpt>
      <trkpt lat="45.772" lon="4.61794">
        <ele>557.4</ele>
        <time>2021-09-27T12:22:11.000Z</time>
      </trkpt>
      <trkpt lat="45.77199" lon="4.61795">
        <ele>557.6</ele>
        <time>2021-09-27T12:22:12.000Z</time>
      </trkpt>
      <trkpt lat="45.77198" lon="4.61796">
        <ele>557.6</ele>
        <time>2021-09-27T12:22:13.000Z</time>
      </trkpt>
      <trkpt lat="45.77197" lon="4.61797">
        <ele>557.8</ele>
        <time>2021-09-27T12:22:14.000Z</time>
      </trkpt>
      <trkpt lat="45.77196" lon="4.61798">
        <ele>558</ele>
        <time>2021-09-27T12:22:15.000Z</time>
      </trkpt>
      <trkpt lat="45.77195" lon="4.61798">
        <ele>558.2</ele>
        <time>2021-09-27T12:22:16.000Z</time>
      </trkpt>
      <trkpt lat="45.77193" lon="4.61799">
        <ele>558.4</ele>
        <time>2021-09-27T12:22:17.000Z</time>
      </trkpt>
      <trkpt lat="45.77192" lon="4.618">
        <ele>558.4</ele>
        <time>2021-09-27T12:22:18.000Z</time>
      </trkpt>
      <trkpt lat="45.77191" lon="4.618">
        <ele>558.6</ele>
        <time>2021-09-27T12:22:19.000Z</time>
      </trkpt>
      <trkpt lat="45.77189" lon="4.61802">
        <ele>558.6</ele>
        <time>2021-09-27T12:22:20.000Z</time>
      </trkpt>
      <trkpt lat="45.77188" lon="4.61803">
        <ele>558.8</ele>
        <time>2021-09-27T12:22:21.000Z</time>
      </trkpt>
      <trkpt lat="45.77187" lon="4.61804">
        <ele>558.8</ele>
        <time>2021-09-27T12:22:22.000Z</time>
      </trkpt>
      <trkpt lat="45.77186" lon="4.61806">
        <ele>558.8</ele>
        <time>2021-09-27T12:22:23.000Z</time>
      </trkpt>
      <trkpt lat="45.77185" lon="4.61808">
        <ele>558.8</ele>
        <time>2021-09-27T12:22:24.000Z</time>
      </trkpt>
      <trkpt lat="45.77184" lon="4.6181">
        <ele>558.8</ele>
        <time>2021-09-27T12:22:25.000Z</time>
      </trkpt>
      <trkpt lat="45.77182" lon="4.61811">
        <ele>559</ele>
        <time>2021-09-27T12:22:26.000Z</time>
      </trkpt>
      <trkpt lat="45.77181" lon="4.61813">
        <ele>559.2</ele>
        <time>2021-09-27T12:22:27.000Z</time>
      </trkpt>
      <trkpt lat="45.77179" lon="4.61815">
        <ele>559.2</ele>
        <time>2021-09-27T12:22:28.000Z</time>
      </trkpt>
      <trkpt lat="45.77178" lon="4.61817">
        <ele>559.2</ele>
        <time>2021-09-27T12:22:29.000Z</time>
      </trkpt>
      <trkpt lat="45.77177" lon="4.61819">
        <ele>559.2</ele>
        <time>2021-09-27T12:22:30.000Z</time>
      </trkpt>
      <trkpt lat="45.77176" lon="4.61821">
        <ele>559.2</ele>
        <time>2021-09-27T12:22:31.000Z</time>
      </trkpt>
      <trkpt lat="45.77175" lon="4.61823">
        <ele>559.4</ele>
        <time>2021-09-27T12:22:32.000Z</time>
      </trkpt>
      <trkpt lat="45.77169" lon="4.61836">
        <ele>559.6</ele>
        <time>2021-09-27T12:22:38.000Z</time>
      </trkpt>
      <trkpt lat="45.77168" lon="4.6184">
        <ele>559.6</ele>
        <time>2021-09-27T12:22:39.000Z</time>
      </trkpt>
      <trkpt lat="45.77163" lon="4.61851">
        <ele>559.8</ele>
        <time>2021-09-27T12:22:44.000Z</time>
      </trkpt>
      <trkpt lat="45.77161" lon="4.61854">
        <ele>560</ele>
        <time>2021-09-27T12:22:45.000Z</time>
      </trkpt>
      <trkpt lat="45.77161" lon="4.61856">
        <ele>560</ele>
        <time>2021-09-27T12:22:46.000Z</time>
      </trkpt>
      <trkpt lat="45.77161" lon="4.61858">
        <ele>560</ele>
        <time>2021-09-27T12:22:47.000Z</time>
      </trkpt>
      <trkpt lat="45.7716" lon="4.6186">
        <ele>560</ele>
        <time>2021-09-27T12:22:48.000Z</time>
      </trkpt>
      <trkpt lat="45.77159" lon="4.61862">
        <ele>560</ele>
        <time>2021-09-27T12:22:49.000Z</time>
      </trkpt>
      <trkpt lat="45.77158" lon="4.61864">
        <ele>560.2</ele>
        <time>2021-09-27T12:22:50.000Z</time>
      </trkpt>
      <trkpt lat="45.77158" lon="4.61867">
        <ele>560.2</ele>
        <time>2021-09-27T12:22:51.000Z</time>
      </trkpt>
      <trkpt lat="45.77157" lon="4.6187">
        <ele>560.2</ele>
        <time>2021-09-27T12:22:52.000Z</time>
      </trkpt>
      <trkpt lat="45.77157" lon="4.61872">
        <ele>560.4</ele>
        <time>2021-09-27T12:22:53.000Z</time>
      </trkpt>
      <trkpt lat="45.77157" lon="4.61875">
        <ele>560.4</ele>
        <time>2021-09-27T12:22:54.000Z</time>
      </trkpt>
      <trkpt lat="45.77156" lon="4.61877">
        <ele>560.4</ele>
        <time>2021-09-27T12:22:55.000Z</time>
      </trkpt>
      <trkpt lat="45.77154" lon="4.61883">
        <ele>560.6</ele>
        <time>2021-09-27T12:22:58.000Z</time>
      </trkpt>
      <trkpt lat="45.77153" lon="4.6189">
        <ele>560.6</ele>
        <time>2021-09-27T12:23:01.000Z</time>
      </trkpt>
      <trkpt lat="45.77153" lon="4.61892">
        <ele>560.6</ele>
        <time>2021-09-27T12:23:02.000Z</time>
      </trkpt>
      <trkpt lat="45.77153" lon="4.61894">
        <ele>560.6</ele>
        <time>2021-09-27T12:23:03.000Z</time>
      </trkpt>
      <trkpt lat="45.77153" lon="4.61896">
        <ele>560.6</ele>
        <time>2021-09-27T12:23:04.000Z</time>
      </trkpt>
      <trkpt lat="45.77152" lon="4.61898">
        <ele>560.8</ele>
        <time>2021-09-27T12:23:05.000Z</time>
      </trkpt>
      <trkpt lat="45.77152" lon="4.61901">
        <ele>561</ele>
        <time>2021-09-27T12:23:06.000Z</time>
      </trkpt>
      <trkpt lat="45.77151" lon="4.61903">
        <ele>561</ele>
        <time>2021-09-27T12:23:07.000Z</time>
      </trkpt>
      <trkpt lat="45.77151" lon="4.61905">
        <ele>561.2</ele>
        <time>2021-09-27T12:23:08.000Z</time>
      </trkpt>
      <trkpt lat="45.77151" lon="4.61908">
        <ele>561.4</ele>
        <time>2021-09-27T12:23:09.000Z</time>
      </trkpt>
      <trkpt lat="45.7715" lon="4.61912">
        <ele>561.8</ele>
        <time>2021-09-27T12:23:11.000Z</time>
      </trkpt>
      <trkpt lat="45.77149" lon="4.61915">
        <ele>562.2</ele>
        <time>2021-09-27T12:23:13.000Z</time>
      </trkpt>
      <trkpt lat="45.77147" lon="4.61921">
        <ele>562.6</ele>
        <time>2021-09-27T12:23:16.000Z</time>
      </trkpt>
      <trkpt lat="45.77145" lon="4.61926">
        <ele>563</ele>
        <time>2021-09-27T12:23:18.000Z</time>
      </trkpt>
      <trkpt lat="45.77143" lon="4.61929">
        <ele>563.2</ele>
        <time>2021-09-27T12:23:20.000Z</time>
      </trkpt>
      <trkpt lat="45.77141" lon="4.6193">
        <ele>563.4</ele>
        <time>2021-09-27T12:23:21.000Z</time>
      </trkpt>
      <trkpt lat="45.7714" lon="4.61932">
        <ele>563.4</ele>
        <time>2021-09-27T12:23:22.000Z</time>
      </trkpt>
      <trkpt lat="45.77138" lon="4.61934">
        <ele>563.6</ele>
        <time>2021-09-27T12:23:23.000Z</time>
      </trkpt>
      <trkpt lat="45.77137" lon="4.61935">
        <ele>563.8</ele>
        <time>2021-09-27T12:23:24.000Z</time>
      </trkpt>
      <trkpt lat="45.77136" lon="4.61937">
        <ele>563.8</ele>
        <time>2021-09-27T12:23:25.000Z</time>
      </trkpt>
      <trkpt lat="45.77135" lon="4.61938">
        <ele>564</ele>
        <time>2021-09-27T12:23:26.000Z</time>
      </trkpt>
      <trkpt lat="45.77133" lon="4.6194">
        <ele>564</ele>
        <time>2021-09-27T12:23:27.000Z</time>
      </trkpt>
      <trkpt lat="45.77132" lon="4.61942">
        <ele>564.2</ele>
        <time>2021-09-27T12:23:28.000Z</time>
      </trkpt>
      <trkpt lat="45.77131" lon="4.61943">
        <ele>564.4</ele>
        <time>2021-09-27T12:23:29.000Z</time>
      </trkpt>
      <trkpt lat="45.7713" lon="4.61944">
        <ele>564.4</ele>
        <time>2021-09-27T12:23:30.000Z</time>
      </trkpt>
      <trkpt lat="45.77129" lon="4.61946">
        <ele>564.8</ele>
        <time>2021-09-27T12:23:31.000Z</time>
      </trkpt>
      <trkpt lat="45.77127" lon="4.61948">
        <ele>564.8</ele>
        <time>2021-09-27T12:23:32.000Z</time>
      </trkpt>
      <trkpt lat="45.77126" lon="4.61949">
        <ele>565</ele>
        <time>2021-09-27T12:23:33.000Z</time>
      </trkpt>
      <trkpt lat="45.77124" lon="4.6195">
        <ele>565.2</ele>
        <time>2021-09-27T12:23:34.000Z</time>
      </trkpt>
      <trkpt lat="45.77124" lon="4.61951">
        <ele>565.4</ele>
        <time>2021-09-27T12:23:35.000Z</time>
      </trkpt>
      <trkpt lat="45.77122" lon="4.61952">
        <ele>565.6</ele>
        <time>2021-09-27T12:23:36.000Z</time>
      </trkpt>
      <trkpt lat="45.77121" lon="4.61954">
        <ele>565.6</ele>
        <time>2021-09-27T12:23:37.000Z</time>
      </trkpt>
      <trkpt lat="45.77119" lon="4.61955">
        <ele>565.8</ele>
        <time>2021-09-27T12:23:38.000Z</time>
      </trkpt>
      <trkpt lat="45.77118" lon="4.61956">
        <ele>566</ele>
        <time>2021-09-27T12:23:39.000Z</time>
      </trkpt>
      <trkpt lat="45.77117" lon="4.61958">
        <ele>566</ele>
        <time>2021-09-27T12:23:40.000Z</time>
      </trkpt>
      <trkpt lat="45.77116" lon="4.61958">
        <ele>566.4</ele>
        <time>2021-09-27T12:23:41.000Z</time>
      </trkpt>
      <trkpt lat="45.77115" lon="4.6196">
        <ele>566.6</ele>
        <time>2021-09-27T12:23:42.000Z</time>
      </trkpt>
      <trkpt lat="45.77114" lon="4.61961">
        <ele>566.8</ele>
        <time>2021-09-27T12:23:43.000Z</time>
      </trkpt>
      <trkpt lat="45.77113" lon="4.61962">
        <ele>567.2</ele>
        <time>2021-09-27T12:23:44.000Z</time>
      </trkpt>
      <trkpt lat="45.77112" lon="4.61964">
        <ele>567.4</ele>
        <time>2021-09-27T12:23:45.000Z</time>
      </trkpt>
      <trkpt lat="45.77111" lon="4.61965">
        <ele>567.6</ele>
        <time>2021-09-27T12:23:46.000Z</time>
      </trkpt>
      <trkpt lat="45.7711" lon="4.61967">
        <ele>567.6</ele>
        <time>2021-09-27T12:23:47.000Z</time>
      </trkpt>
      <trkpt lat="45.77109" lon="4.61968">
        <ele>567.8</ele>
        <time>2021-09-27T12:23:48.000Z</time>
      </trkpt>
      <trkpt lat="45.77108" lon="4.6197">
        <ele>567.8</ele>
        <time>2021-09-27T12:23:49.000Z</time>
      </trkpt>
      <trkpt lat="45.77107" lon="4.61973">
        <ele>567.8</ele>
        <time>2021-09-27T12:23:50.000Z</time>
      </trkpt>
      <trkpt lat="45.77106" lon="4.61975">
        <ele>567.8</ele>
        <time>2021-09-27T12:23:51.000Z</time>
      </trkpt>
      <trkpt lat="45.77105" lon="4.61977">
        <ele>568</ele>
        <time>2021-09-27T12:23:52.000Z</time>
      </trkpt>
      <trkpt lat="45.77105" lon="4.61979">
        <ele>568</ele>
        <time>2021-09-27T12:23:53.000Z</time>
      </trkpt>
      <trkpt lat="45.77104" lon="4.6198">
        <ele>568.2</ele>
        <time>2021-09-27T12:23:54.000Z</time>
      </trkpt>
      <trkpt lat="45.77103" lon="4.61981">
        <ele>568.2</ele>
        <time>2021-09-27T12:23:55.000Z</time>
      </trkpt>
      <trkpt lat="45.77103" lon="4.61982">
        <ele>568.4</ele>
        <time>2021-09-27T12:23:56.000Z</time>
      </trkpt>
      <trkpt lat="45.77102" lon="4.61984">
        <ele>568.6</ele>
        <time>2021-09-27T12:23:57.000Z</time>
      </trkpt>
      <trkpt lat="45.77101" lon="4.61985">
        <ele>568.8</ele>
        <time>2021-09-27T12:23:58.000Z</time>
      </trkpt>
      <trkpt lat="45.77101" lon="4.61987">
        <ele>569</ele>
        <time>2021-09-27T12:23:59.000Z</time>
      </trkpt>
      <trkpt lat="45.771" lon="4.61988">
        <ele>569.2</ele>
        <time>2021-09-27T12:24:00.000Z</time>
      </trkpt>
      <trkpt lat="45.77099" lon="4.61989">
        <ele>569.4</ele>
        <time>2021-09-27T12:24:01.000Z</time>
      </trkpt>
      <trkpt lat="45.77098" lon="4.61991">
        <ele>569.6</ele>
        <time>2021-09-27T12:24:02.000Z</time>
      </trkpt>
      <trkpt lat="45.77097" lon="4.61993">
        <ele>569.8</ele>
        <time>2021-09-27T12:24:03.000Z</time>
      </trkpt>
      <trkpt lat="45.77096" lon="4.61994">
        <ele>570</ele>
        <time>2021-09-27T12:24:04.000Z</time>
      </trkpt>
      <trkpt lat="45.77095" lon="4.61995">
        <ele>570.2</ele>
        <time>2021-09-27T12:24:05.000Z</time>
      </trkpt>
      <trkpt lat="45.77094" lon="4.61995">
        <ele>570.6</ele>
        <time>2021-09-27T12:24:06.000Z</time>
      </trkpt>
      <trkpt lat="45.77093" lon="4.61995">
        <ele>570.8</ele>
        <time>2021-09-27T12:24:07.000Z</time>
      </trkpt>
      <trkpt lat="45.77091" lon="4.61996">
        <ele>571.2</ele>
        <time>2021-09-27T12:24:08.000Z</time>
      </trkpt>
      <trkpt lat="45.7709" lon="4.61996">
        <ele>571.6</ele>
        <time>2021-09-27T12:24:09.000Z</time>
      </trkpt>
      <trkpt lat="45.77088" lon="4.61996">
        <ele>571.8</ele>
        <time>2021-09-27T12:24:10.000Z</time>
      </trkpt>
      <trkpt lat="45.77087" lon="4.61997">
        <ele>572.2</ele>
        <time>2021-09-27T12:24:11.000Z</time>
      </trkpt>
      <trkpt lat="45.77086" lon="4.61997">
        <ele>572.2</ele>
        <time>2021-09-27T12:24:12.000Z</time>
      </trkpt>
      <trkpt lat="45.77085" lon="4.61997">
        <ele>572.4</ele>
        <time>2021-09-27T12:24:13.000Z</time>
      </trkpt>
      <trkpt lat="45.77084" lon="4.61996">
        <ele>572.8</ele>
        <time>2021-09-27T12:24:14.000Z</time>
      </trkpt>
      <trkpt lat="45.77083" lon="4.61996">
        <ele>573</ele>
        <time>2021-09-27T12:24:15.000Z</time>
      </trkpt>
      <trkpt lat="45.77082" lon="4.61997">
        <ele>573.2</ele>
        <time>2021-09-27T12:24:16.000Z</time>
      </trkpt>
      <trkpt lat="45.77081" lon="4.61997">
        <ele>573.4</ele>
        <time>2021-09-27T12:24:17.000Z</time>
      </trkpt>
      <trkpt lat="45.77079" lon="4.61998">
        <ele>573.6</ele>
        <time>2021-09-27T12:24:18.000Z</time>
      </trkpt>
      <trkpt lat="45.77078" lon="4.61999">
        <ele>573.8</ele>
        <time>2021-09-27T12:24:19.000Z</time>
      </trkpt>
      <trkpt lat="45.77077" lon="4.61999">
        <ele>574</ele>
        <time>2021-09-27T12:24:20.000Z</time>
      </trkpt>
      <trkpt lat="45.77076" lon="4.62">
        <ele>574.2</ele>
        <time>2021-09-27T12:24:21.000Z</time>
      </trkpt>
      <trkpt lat="45.77075" lon="4.62001">
        <ele>574.6</ele>
        <time>2021-09-27T12:24:22.000Z</time>
      </trkpt>
      <trkpt lat="45.77073" lon="4.62002">
        <ele>574.8</ele>
        <time>2021-09-27T12:24:23.000Z</time>
      </trkpt>
      <trkpt lat="45.77072" lon="4.62002">
        <ele>575</ele>
        <time>2021-09-27T12:24:24.000Z</time>
      </trkpt>
      <trkpt lat="45.7707" lon="4.62003">
        <ele>575.2</ele>
        <time>2021-09-27T12:24:25.000Z</time>
      </trkpt>
      <trkpt lat="45.77068" lon="4.62005">
        <ele>575.4</ele>
        <time>2021-09-27T12:24:26.000Z</time>
      </trkpt>
      <trkpt lat="45.77067" lon="4.62006">
        <ele>575.8</ele>
        <time>2021-09-27T12:24:27.000Z</time>
      </trkpt>
      <trkpt lat="45.77066" lon="4.62008">
        <ele>575.8</ele>
        <time>2021-09-27T12:24:28.000Z</time>
      </trkpt>
      <trkpt lat="45.77064" lon="4.62008">
        <ele>575.8</ele>
        <time>2021-09-27T12:24:29.000Z</time>
      </trkpt>
      <trkpt lat="45.77063" lon="4.62008">
        <ele>576</ele>
        <time>2021-09-27T12:24:30.000Z</time>
      </trkpt>
      <trkpt lat="45.77061" lon="4.62009">
        <ele>576.2</ele>
        <time>2021-09-27T12:24:31.000Z</time>
      </trkpt>
      <trkpt lat="45.7706" lon="4.62012">
        <ele>576.4</ele>
        <time>2021-09-27T12:24:32.000Z</time>
      </trkpt>
      <trkpt lat="45.77059" lon="4.62013">
        <ele>576.4</ele>
        <time>2021-09-27T12:24:33.000Z</time>
      </trkpt>
      <trkpt lat="45.77058" lon="4.62013">
        <ele>576.6</ele>
        <time>2021-09-27T12:24:34.000Z</time>
      </trkpt>
      <trkpt lat="45.77057" lon="4.62014">
        <ele>576.8</ele>
        <time>2021-09-27T12:24:35.000Z</time>
      </trkpt>
      <trkpt lat="45.77055" lon="4.62014">
        <ele>576.8</ele>
        <time>2021-09-27T12:24:36.000Z</time>
      </trkpt>
      <trkpt lat="45.77053" lon="4.62016">
        <ele>577.2</ele>
        <time>2021-09-27T12:24:37.000Z</time>
      </trkpt>
      <trkpt lat="45.77052" lon="4.62017">
        <ele>577.4</ele>
        <time>2021-09-27T12:24:38.000Z</time>
      </trkpt>
      <trkpt lat="45.77051" lon="4.62018">
        <ele>577.6</ele>
        <time>2021-09-27T12:24:39.000Z</time>
      </trkpt>
      <trkpt lat="45.7705" lon="4.62019">
        <ele>577.8</ele>
        <time>2021-09-27T12:24:40.000Z</time>
      </trkpt>
      <trkpt lat="45.77049" lon="4.62019">
        <ele>578</ele>
        <time>2021-09-27T12:24:41.000Z</time>
      </trkpt>
      <trkpt lat="45.77048" lon="4.62019">
        <ele>578.4</ele>
        <time>2021-09-27T12:24:42.000Z</time>
      </trkpt>
      <trkpt lat="45.77046" lon="4.6202">
        <ele>578.6</ele>
        <time>2021-09-27T12:24:43.000Z</time>
      </trkpt>
      <trkpt lat="45.77045" lon="4.62022">
        <ele>578.8</ele>
        <time>2021-09-27T12:24:44.000Z</time>
      </trkpt>
      <trkpt lat="45.77044" lon="4.62024">
        <ele>579</ele>
        <time>2021-09-27T12:24:45.000Z</time>
      </trkpt>
      <trkpt lat="45.77043" lon="4.62025">
        <ele>579.2</ele>
        <time>2021-09-27T12:24:46.000Z</time>
      </trkpt>
      <trkpt lat="45.77042" lon="4.62028">
        <ele>579.4</ele>
        <time>2021-09-27T12:24:47.000Z</time>
      </trkpt>
      <trkpt lat="45.77042" lon="4.6203">
        <ele>579.6</ele>
        <time>2021-09-27T12:24:48.000Z</time>
      </trkpt>
      <trkpt lat="45.77041" lon="4.62031">
        <ele>579.8</ele>
        <time>2021-09-27T12:24:49.000Z</time>
      </trkpt>
      <trkpt lat="45.77041" lon="4.62032">
        <ele>579.8</ele>
        <time>2021-09-27T12:24:50.000Z</time>
      </trkpt>
      <trkpt lat="45.7704" lon="4.62033">
        <ele>580</ele>
        <time>2021-09-27T12:24:51.000Z</time>
      </trkpt>
      <trkpt lat="45.7704" lon="4.62036">
        <ele>580.2</ele>
        <time>2021-09-27T12:24:52.000Z</time>
      </trkpt>
      <trkpt lat="45.77039" lon="4.62037">
        <ele>580.4</ele>
        <time>2021-09-27T12:24:53.000Z</time>
      </trkpt>
      <trkpt lat="45.77039" lon="4.62038">
        <ele>580.4</ele>
        <time>2021-09-27T12:24:54.000Z</time>
      </trkpt>
      <trkpt lat="45.77039" lon="4.6204">
        <ele>580.6</ele>
        <time>2021-09-27T12:24:55.000Z</time>
      </trkpt>
      <trkpt lat="45.77039" lon="4.62042">
        <ele>580.8</ele>
        <time>2021-09-27T12:24:56.000Z</time>
      </trkpt>
      <trkpt lat="45.77039" lon="4.62044">
        <ele>580.8</ele>
        <time>2021-09-27T12:24:57.000Z</time>
      </trkpt>
      <trkpt lat="45.77038" lon="4.62046">
        <ele>581</ele>
        <time>2021-09-27T12:24:58.000Z</time>
      </trkpt>
      <trkpt lat="45.77038" lon="4.62048">
        <ele>581.2</ele>
        <time>2021-09-27T12:24:59.000Z</time>
      </trkpt>
      <trkpt lat="45.77037" lon="4.6205">
        <ele>581.2</ele>
        <time>2021-09-27T12:25:00.000Z</time>
      </trkpt>
      <trkpt lat="45.77037" lon="4.62053">
        <ele>581.4</ele>
        <time>2021-09-27T12:25:01.000Z</time>
      </trkpt>
      <trkpt lat="45.77036" lon="4.62054">
        <ele>581.6</ele>
        <time>2021-09-27T12:25:02.000Z</time>
      </trkpt>
      <trkpt lat="45.77036" lon="4.62055">
        <ele>581.8</ele>
        <time>2021-09-27T12:25:03.000Z</time>
      </trkpt>
      <trkpt lat="45.77035" lon="4.62057">
        <ele>582</ele>
        <time>2021-09-27T12:25:04.000Z</time>
      </trkpt>
      <trkpt lat="45.77033" lon="4.62058">
        <ele>582.2</ele>
        <time>2021-09-27T12:25:05.000Z</time>
      </trkpt>
      <trkpt lat="45.77032" lon="4.62059">
        <ele>582.4</ele>
        <time>2021-09-27T12:25:06.000Z</time>
      </trkpt>
      <trkpt lat="45.77031" lon="4.62061">
        <ele>582.6</ele>
        <time>2021-09-27T12:25:07.000Z</time>
      </trkpt>
      <trkpt lat="45.77031" lon="4.62062">
        <ele>583</ele>
        <time>2021-09-27T12:25:08.000Z</time>
      </trkpt>
      <trkpt lat="45.7703" lon="4.62062">
        <ele>583.4</ele>
        <time>2021-09-27T12:25:09.000Z</time>
      </trkpt>
      <trkpt lat="45.77029" lon="4.62063">
        <ele>583.6</ele>
        <time>2021-09-27T12:25:10.000Z</time>
      </trkpt>
      <trkpt lat="45.77028" lon="4.62063">
        <ele>584</ele>
        <time>2021-09-27T12:25:11.000Z</time>
      </trkpt>
      <trkpt lat="45.77027" lon="4.62064">
        <ele>584.4</ele>
        <time>2021-09-27T12:25:12.000Z</time>
      </trkpt>
      <trkpt lat="45.77026" lon="4.62064">
        <ele>584.8</ele>
        <time>2021-09-27T12:25:13.000Z</time>
      </trkpt>
      <trkpt lat="45.77025" lon="4.62065">
        <ele>585</ele>
        <time>2021-09-27T12:25:14.000Z</time>
      </trkpt>
      <trkpt lat="45.77023" lon="4.62065">
        <ele>585.4</ele>
        <time>2021-09-27T12:25:15.000Z</time>
      </trkpt>
      <trkpt lat="45.77022" lon="4.62065">
        <ele>585.8</ele>
        <time>2021-09-27T12:25:16.000Z</time>
      </trkpt>
      <trkpt lat="45.77021" lon="4.62067">
        <ele>586</ele>
        <time>2021-09-27T12:25:17.000Z</time>
      </trkpt>
      <trkpt lat="45.7702" lon="4.62069">
        <ele>586.4</ele>
        <time>2021-09-27T12:25:18.000Z</time>
      </trkpt>
      <trkpt lat="45.77019" lon="4.62071">
        <ele>586.6</ele>
        <time>2021-09-27T12:25:19.000Z</time>
      </trkpt>
      <trkpt lat="45.77018" lon="4.62072">
        <ele>586.8</ele>
        <time>2021-09-27T12:25:20.000Z</time>
      </trkpt>
      <trkpt lat="45.77018" lon="4.62073">
        <ele>587</ele>
        <time>2021-09-27T12:25:21.000Z</time>
      </trkpt>
      <trkpt lat="45.77018" lon="4.62074">
        <ele>587.2</ele>
        <time>2021-09-27T12:25:22.000Z</time>
      </trkpt>
      <trkpt lat="45.77" lon="4.62103">
        <ele>588.8</ele>
        <time>2021-09-27T12:26:16.000Z</time>
      </trkpt>
      <trkpt lat="45.76999" lon="4.62106">
        <ele>589</ele>
        <time>2021-09-27T12:26:17.000Z</time>
      </trkpt>
      <trkpt lat="45.76995" lon="4.62115">
        <ele>589.6</ele>
        <time>2021-09-27T12:26:21.000Z</time>
      </trkpt>
      <trkpt lat="45.76995" lon="4.62117">
        <ele>590</ele>
        <time>2021-09-27T12:26:22.000Z</time>
      </trkpt>
      <trkpt lat="45.76994" lon="4.62119">
        <ele>590</ele>
        <time>2021-09-27T12:26:23.000Z</time>
      </trkpt>
      <trkpt lat="45.76993" lon="4.62122">
        <ele>590</ele>
        <time>2021-09-27T12:26:24.000Z</time>
      </trkpt>
      <trkpt lat="45.76993" lon="4.62123">
        <ele>590</ele>
        <time>2021-09-27T12:26:25.000Z</time>
      </trkpt>
      <trkpt lat="45.76992" lon="4.62125">
        <ele>590.2</ele>
        <time>2021-09-27T12:26:26.000Z</time>
      </trkpt>
      <trkpt lat="45.76992" lon="4.62129">
        <ele>590.6</ele>
        <time>2021-09-27T12:26:28.000Z</time>
      </trkpt>
      <trkpt lat="45.76991" lon="4.62131">
        <ele>590.6</ele>
        <time>2021-09-27T12:26:29.000Z</time>
      </trkpt>
      <trkpt lat="45.76991" lon="4.62132">
        <ele>590.8</ele>
        <time>2021-09-27T12:26:30.000Z</time>
      </trkpt>
      <trkpt lat="45.7699" lon="4.62134">
        <ele>591.2</ele>
        <time>2021-09-27T12:26:31.000Z</time>
      </trkpt>
      <trkpt lat="45.7699" lon="4.62136">
        <ele>591.2</ele>
        <time>2021-09-27T12:26:32.000Z</time>
      </trkpt>
      <trkpt lat="45.76989" lon="4.6214">
        <ele>591.2</ele>
        <time>2021-09-27T12:26:34.000Z</time>
      </trkpt>
      <trkpt lat="45.76989" lon="4.62142">
        <ele>591.4</ele>
        <time>2021-09-27T12:26:35.000Z</time>
      </trkpt>
      <trkpt lat="45.76989" lon="4.62145">
        <ele>591.4</ele>
        <time>2021-09-27T12:26:36.000Z</time>
      </trkpt>
      <trkpt lat="45.76988" lon="4.62147">
        <ele>591.6</ele>
        <time>2021-09-27T12:26:37.000Z</time>
      </trkpt>
      <trkpt lat="45.76988" lon="4.62149">
        <ele>591.8</ele>
        <time>2021-09-27T12:26:38.000Z</time>
      </trkpt>
      <trkpt lat="45.76988" lon="4.62152">
        <ele>591.8</ele>
        <time>2021-09-27T12:26:39.000Z</time>
      </trkpt>
      <trkpt lat="45.76988" lon="4.62154">
        <ele>592</ele>
        <time>2021-09-27T12:26:40.000Z</time>
      </trkpt>
      <trkpt lat="45.76987" lon="4.62156">
        <ele>592</ele>
        <time>2021-09-27T12:26:41.000Z</time>
      </trkpt>
      <trkpt lat="45.76986" lon="4.62158">
        <ele>592.2</ele>
        <time>2021-09-27T12:26:42.000Z</time>
      </trkpt>
      <trkpt lat="45.76986" lon="4.6216">
        <ele>592.2</ele>
        <time>2021-09-27T12:26:43.000Z</time>
      </trkpt>
      <trkpt lat="45.76986" lon="4.62162">
        <ele>592.2</ele>
        <time>2021-09-27T12:26:44.000Z</time>
      </trkpt>
      <trkpt lat="45.76985" lon="4.62164">
        <ele>592.2</ele>
        <time>2021-09-27T12:26:45.000Z</time>
      </trkpt>
      <trkpt lat="45.76985" lon="4.62167">
        <ele>592.4</ele>
        <time>2021-09-27T12:26:46.000Z</time>
      </trkpt>
      <trkpt lat="45.76984" lon="4.62169">
        <ele>592.4</ele>
        <time>2021-09-27T12:26:47.000Z</time>
      </trkpt>
      <trkpt lat="45.76984" lon="4.62172">
        <ele>592.6</ele>
        <time>2021-09-27T12:26:48.000Z</time>
      </trkpt>
      <trkpt lat="45.76984" lon="4.62174">
        <ele>592.6</ele>
        <time>2021-09-27T12:26:49.000Z</time>
      </trkpt>
      <trkpt lat="45.76984" lon="4.62176">
        <ele>592.8</ele>
        <time>2021-09-27T12:26:50.000Z</time>
      </trkpt>
      <trkpt lat="45.76983" lon="4.62183">
        <ele>593</ele>
        <time>2021-09-27T12:26:53.000Z</time>
      </trkpt>
      <trkpt lat="45.76983" lon="4.62186">
        <ele>593.2</ele>
        <time>2021-09-27T12:26:54.000Z</time>
      </trkpt>
      <trkpt lat="45.76983" lon="4.62188">
        <ele>593.4</ele>
        <time>2021-09-27T12:26:55.000Z</time>
      </trkpt>
      <trkpt lat="45.76982" lon="4.62197">
        <ele>593.8</ele>
        <time>2021-09-27T12:26:59.000Z</time>
      </trkpt>
      <trkpt lat="45.76982" lon="4.62201">
        <ele>593.8</ele>
        <time>2021-09-27T12:27:01.000Z</time>
      </trkpt>
      <trkpt lat="45.76982" lon="4.62208">
        <ele>594.2</ele>
        <time>2021-09-27T12:27:04.000Z</time>
      </trkpt>
      <trkpt lat="45.76982" lon="4.62216">
        <ele>594.8</ele>
        <time>2021-09-27T12:27:07.000Z</time>
      </trkpt>
      <trkpt lat="45.76982" lon="4.62218">
        <ele>595</ele>
        <time>2021-09-27T12:27:08.000Z</time>
      </trkpt>
      <trkpt lat="45.76982" lon="4.62221">
        <ele>595</ele>
        <time>2021-09-27T12:27:09.000Z</time>
      </trkpt>
      <trkpt lat="45.76982" lon="4.62224">
        <ele>595.2</ele>
        <time>2021-09-27T12:27:10.000Z</time>
      </trkpt>
      <trkpt lat="45.76983" lon="4.62227">
        <ele>595.2</ele>
        <time>2021-09-27T12:27:11.000Z</time>
      </trkpt>
      <trkpt lat="45.76983" lon="4.6223">
        <ele>595.4</ele>
        <time>2021-09-27T12:27:12.000Z</time>
      </trkpt>
      <trkpt lat="45.76982" lon="4.62233">
        <ele>595.6</ele>
        <time>2021-09-27T12:27:13.000Z</time>
      </trkpt>
      <trkpt lat="45.76982" lon="4.62236">
        <ele>595.6</ele>
        <time>2021-09-27T12:27:14.000Z</time>
      </trkpt>
      <trkpt lat="45.76981" lon="4.62239">
        <ele>595.8</ele>
        <time>2021-09-27T12:27:15.000Z</time>
      </trkpt>
      <trkpt lat="45.76981" lon="4.62241">
        <ele>595.8</ele>
        <time>2021-09-27T12:27:16.000Z</time>
      </trkpt>
      <trkpt lat="45.76981" lon="4.62244">
        <ele>596</ele>
        <time>2021-09-27T12:27:17.000Z</time>
      </trkpt>
      <trkpt lat="45.76981" lon="4.62247">
        <ele>596.2</ele>
        <time>2021-09-27T12:27:18.000Z</time>
      </trkpt>
      <trkpt lat="45.76981" lon="4.62249">
        <ele>596.4</ele>
        <time>2021-09-27T12:27:19.000Z</time>
      </trkpt>
      <trkpt lat="45.7698" lon="4.62252">
        <ele>596.4</ele>
        <time>2021-09-27T12:27:20.000Z</time>
      </trkpt>
      <trkpt lat="45.7698" lon="4.62255">
        <ele>596.6</ele>
        <time>2021-09-27T12:27:21.000Z</time>
      </trkpt>
      <trkpt lat="45.7698" lon="4.62258">
        <ele>596.8</ele>
        <time>2021-09-27T12:27:22.000Z</time>
      </trkpt>
      <trkpt lat="45.7698" lon="4.62261">
        <ele>596.8</ele>
        <time>2021-09-27T12:27:23.000Z</time>
      </trkpt>
      <trkpt lat="45.76979" lon="4.62264">
        <ele>596.8</ele>
        <time>2021-09-27T12:27:24.000Z</time>
      </trkpt>
      <trkpt lat="45.76979" lon="4.62267">
        <ele>597</ele>
        <time>2021-09-27T12:27:25.000Z</time>
      </trkpt>
      <trkpt lat="45.76978" lon="4.62271">
        <ele>597</ele>
        <time>2021-09-27T12:27:26.000Z</time>
      </trkpt>
      <trkpt lat="45.76978" lon="4.62274">
        <ele>597.2</ele>
        <time>2021-09-27T12:27:27.000Z</time>
      </trkpt>
      <trkpt lat="45.76977" lon="4.62277">
        <ele>597.2</ele>
        <time>2021-09-27T12:27:28.000Z</time>
      </trkpt>
      <trkpt lat="45.76977" lon="4.62281">
        <ele>597.4</ele>
        <time>2021-09-27T12:27:29.000Z</time>
      </trkpt>
      <trkpt lat="45.76976" lon="4.62284">
        <ele>597.4</ele>
        <time>2021-09-27T12:27:30.000Z</time>
      </trkpt>
      <trkpt lat="45.76976" lon="4.62287">
        <ele>597.6</ele>
        <time>2021-09-27T12:27:31.000Z</time>
      </trkpt>
      <trkpt lat="45.76976" lon="4.62289">
        <ele>597.6</ele>
        <time>2021-09-27T12:27:32.000Z</time>
      </trkpt>
      <trkpt lat="45.76976" lon="4.62292">
        <ele>597.8</ele>
        <time>2021-09-27T12:27:33.000Z</time>
      </trkpt>
      <trkpt lat="45.76975" lon="4.62295">
        <ele>597.8</ele>
        <time>2021-09-27T12:27:34.000Z</time>
      </trkpt>
      <trkpt lat="45.76975" lon="4.62297">
        <ele>597.8</ele>
        <time>2021-09-27T12:27:35.000Z</time>
      </trkpt>
      <trkpt lat="45.76975" lon="4.623">
        <ele>598</ele>
        <time>2021-09-27T12:27:36.000Z</time>
      </trkpt>
      <trkpt lat="45.76975" lon="4.62302">
        <ele>598</ele>
        <time>2021-09-27T12:27:37.000Z</time>
      </trkpt>
      <trkpt lat="45.76974" lon="4.62305">
        <ele>598.4</ele>
        <time>2021-09-27T12:27:38.000Z</time>
      </trkpt>
      <trkpt lat="45.76974" lon="4.62308">
        <ele>598.4</ele>
        <time>2021-09-27T12:27:39.000Z</time>
      </trkpt>
      <trkpt lat="45.76974" lon="4.62311">
        <ele>598.4</ele>
        <time>2021-09-27T12:27:40.000Z</time>
      </trkpt>
      <trkpt lat="45.76973" lon="4.62314">
        <ele>598.6</ele>
        <time>2021-09-27T12:27:41.000Z</time>
      </trkpt>
      <trkpt lat="45.76972" lon="4.62317">
        <ele>598.6</ele>
        <time>2021-09-27T12:27:42.000Z</time>
      </trkpt>
      <trkpt lat="45.76971" lon="4.6232">
        <ele>598.8</ele>
        <time>2021-09-27T12:27:43.000Z</time>
      </trkpt>
      <trkpt lat="45.76971" lon="4.62322">
        <ele>598.8</ele>
        <time>2021-09-27T12:27:44.000Z</time>
      </trkpt>
      <trkpt lat="45.7697" lon="4.62325">
        <ele>599</ele>
        <time>2021-09-27T12:27:45.000Z</time>
      </trkpt>
      <trkpt lat="45.76969" lon="4.62328">
        <ele>599.2</ele>
        <time>2021-09-27T12:27:46.000Z</time>
      </trkpt>
      <trkpt lat="45.76969" lon="4.62331">
        <ele>599.2</ele>
        <time>2021-09-27T12:27:47.000Z</time>
      </trkpt>
      <trkpt lat="45.76968" lon="4.62335">
        <ele>599.6</ele>
        <time>2021-09-27T12:27:48.000Z</time>
      </trkpt>
      <trkpt lat="45.76967" lon="4.62337">
        <ele>599.4</ele>
        <time>2021-09-27T12:27:49.000Z</time>
      </trkpt>
      <trkpt lat="45.76966" lon="4.62339">
        <ele>599.6</ele>
        <time>2021-09-27T12:27:50.000Z</time>
      </trkpt>
      <trkpt lat="45.76965" lon="4.62341">
        <ele>599.6</ele>
        <time>2021-09-27T12:27:51.000Z</time>
      </trkpt>
      <trkpt lat="45.76964" lon="4.62343">
        <ele>599.8</ele>
        <time>2021-09-27T12:27:52.000Z</time>
      </trkpt>
      <trkpt lat="45.76963" lon="4.62345">
        <ele>599.8</ele>
        <time>2021-09-27T12:27:53.000Z</time>
      </trkpt>
      <trkpt lat="45.76962" lon="4.62346">
        <ele>600</ele>
        <time>2021-09-27T12:27:54.000Z</time>
      </trkpt>
      <trkpt lat="45.76962" lon="4.62348">
        <ele>600</ele>
        <time>2021-09-27T12:27:55.000Z</time>
      </trkpt>
      <trkpt lat="45.76961" lon="4.6235">
        <ele>600</ele>
        <time>2021-09-27T12:27:56.000Z</time>
      </trkpt>
      <trkpt lat="45.7696" lon="4.62351">
        <ele>600</ele>
        <time>2021-09-27T12:27:57.000Z</time>
      </trkpt>
      <trkpt lat="45.7696" lon="4.62353">
        <ele>600</ele>
        <time>2021-09-27T12:27:58.000Z</time>
      </trkpt>
      <trkpt lat="45.76959" lon="4.62354">
        <ele>600</ele>
        <time>2021-09-27T12:27:59.000Z</time>
      </trkpt>
      <trkpt lat="45.76958" lon="4.62356">
        <ele>600.2</ele>
        <time>2021-09-27T12:28:00.000Z</time>
      </trkpt>
      <trkpt lat="45.76957" lon="4.62358">
        <ele>600.2</ele>
        <time>2021-09-27T12:28:01.000Z</time>
      </trkpt>
      <trkpt lat="45.76955" lon="4.62361">
        <ele>600.4</ele>
        <time>2021-09-27T12:28:03.000Z</time>
      </trkpt>
      <trkpt lat="45.76944" lon="4.62379">
        <ele>600.6</ele>
        <time>2021-09-27T12:28:11.000Z</time>
      </trkpt>
      <trkpt lat="45.76943" lon="4.6238">
        <ele>600.8</ele>
        <time>2021-09-27T12:28:12.000Z</time>
      </trkpt>
      <trkpt lat="45.76939" lon="4.62387">
        <ele>601</ele>
        <time>2021-09-27T12:28:16.000Z</time>
      </trkpt>
      <trkpt lat="45.76938" lon="4.62387">
        <ele>601</ele>
        <time>2021-09-27T12:28:17.000Z</time>
      </trkpt>
      <trkpt lat="45.76937" lon="4.62389">
        <ele>601.2</ele>
        <time>2021-09-27T12:28:18.000Z</time>
      </trkpt>
      <trkpt lat="45.76936" lon="4.6239">
        <ele>601.2</ele>
        <time>2021-09-27T12:28:19.000Z</time>
      </trkpt>
      <trkpt lat="45.76935" lon="4.62392">
        <ele>601.4</ele>
        <time>2021-09-27T12:28:20.000Z</time>
      </trkpt>
      <trkpt lat="45.76935" lon="4.62393">
        <ele>601.4</ele>
        <time>2021-09-27T12:28:21.000Z</time>
      </trkpt>
      <trkpt lat="45.76934" lon="4.62395">
        <ele>601.6</ele>
        <time>2021-09-27T12:28:22.000Z</time>
      </trkpt>
      <trkpt lat="45.76933" lon="4.62397">
        <ele>601.8</ele>
        <time>2021-09-27T12:28:23.000Z</time>
      </trkpt>
      <trkpt lat="45.76932" lon="4.62399">
        <ele>601.8</ele>
        <time>2021-09-27T12:28:24.000Z</time>
      </trkpt>
      <trkpt lat="45.76931" lon="4.624">
        <ele>602</ele>
        <time>2021-09-27T12:28:25.000Z</time>
      </trkpt>
      <trkpt lat="45.76927" lon="4.62407">
        <ele>602.6</ele>
        <time>2021-09-27T12:28:29.000Z</time>
      </trkpt>
      <trkpt lat="45.76926" lon="4.62409">
        <ele>602.8</ele>
        <time>2021-09-27T12:28:30.000Z</time>
      </trkpt>
      <trkpt lat="45.76921" lon="4.62413">
        <ele>603.4</ele>
        <time>2021-09-27T12:28:33.000Z</time>
      </trkpt>
      <trkpt lat="45.7692" lon="4.62414">
        <ele>603.8</ele>
        <time>2021-09-27T12:28:34.000Z</time>
      </trkpt>
      <trkpt lat="45.76918" lon="4.62415">
        <ele>604.2</ele>
        <time>2021-09-27T12:28:35.000Z</time>
      </trkpt>
      <trkpt lat="45.76917" lon="4.62416">
        <ele>604.2</ele>
        <time>2021-09-27T12:28:36.000Z</time>
      </trkpt>
      <trkpt lat="45.76915" lon="4.62417">
        <ele>604.6</ele>
        <time>2021-09-27T12:28:37.000Z</time>
      </trkpt>
      <trkpt lat="45.76913" lon="4.62418">
        <ele>604.8</ele>
        <time>2021-09-27T12:28:38.000Z</time>
      </trkpt>
      <trkpt lat="45.76912" lon="4.62419">
        <ele>605.4</ele>
        <time>2021-09-27T12:28:39.000Z</time>
      </trkpt>
      <trkpt lat="45.7691" lon="4.62419">
        <ele>605.8</ele>
        <time>2021-09-27T12:28:40.000Z</time>
      </trkpt>
      <trkpt lat="45.76909" lon="4.6242">
        <ele>606.2</ele>
        <time>2021-09-27T12:28:41.000Z</time>
      </trkpt>
      <trkpt lat="45.76908" lon="4.6242">
        <ele>606.8</ele>
        <time>2021-09-27T12:28:42.000Z</time>
      </trkpt>
      <trkpt lat="45.76906" lon="4.6242">
        <ele>607</ele>
        <time>2021-09-27T12:28:43.000Z</time>
      </trkpt>
      <trkpt lat="45.76905" lon="4.62421">
        <ele>607.6</ele>
        <time>2021-09-27T12:28:44.000Z</time>
      </trkpt>
      <trkpt lat="45.76904" lon="4.62422">
        <ele>608</ele>
        <time>2021-09-27T12:28:45.000Z</time>
      </trkpt>
      <trkpt lat="45.76903" lon="4.62423">
        <ele>608.4</ele>
        <time>2021-09-27T12:28:46.000Z</time>
      </trkpt>
      <trkpt lat="45.76901" lon="4.62424">
        <ele>608.6</ele>
        <time>2021-09-27T12:28:47.000Z</time>
      </trkpt>
      <trkpt lat="45.769" lon="4.62425">
        <ele>608.8</ele>
        <time>2021-09-27T12:28:48.000Z</time>
      </trkpt>
      <trkpt lat="45.76899" lon="4.62426">
        <ele>609</ele>
        <time>2021-09-27T12:28:49.000Z</time>
      </trkpt>
      <trkpt lat="45.76898" lon="4.62428">
        <ele>609.2</ele>
        <time>2021-09-27T12:28:50.000Z</time>
      </trkpt>
      <trkpt lat="45.76896" lon="4.62428">
        <ele>609.4</ele>
        <time>2021-09-27T12:28:51.000Z</time>
      </trkpt>
      <trkpt lat="45.76895" lon="4.62429">
        <ele>609.6</ele>
        <time>2021-09-27T12:28:52.000Z</time>
      </trkpt>
      <trkpt lat="45.76894" lon="4.6243">
        <ele>610</ele>
        <time>2021-09-27T12:28:53.000Z</time>
      </trkpt>
      <trkpt lat="45.76893" lon="4.62431">
        <ele>610.2</ele>
        <time>2021-09-27T12:28:54.000Z</time>
      </trkpt>
      <trkpt lat="45.76892" lon="4.62433">
        <ele>610.4</ele>
        <time>2021-09-27T12:28:55.000Z</time>
      </trkpt>
      <trkpt lat="45.7689" lon="4.62434">
        <ele>610.4</ele>
        <time>2021-09-27T12:28:56.000Z</time>
      </trkpt>
      <trkpt lat="45.76889" lon="4.62435">
        <ele>610.6</ele>
        <time>2021-09-27T12:28:57.000Z</time>
      </trkpt>
      <trkpt lat="45.76888" lon="4.62436">
        <ele>610.6</ele>
        <time>2021-09-27T12:28:58.000Z</time>
      </trkpt>
      <trkpt lat="45.76886" lon="4.62438">
        <ele>611</ele>
        <time>2021-09-27T12:28:59.000Z</time>
      </trkpt>
      <trkpt lat="45.76885" lon="4.62438">
        <ele>611.2</ele>
        <time>2021-09-27T12:29:00.000Z</time>
      </trkpt>
      <trkpt lat="45.76884" lon="4.62439">
        <ele>611.4</ele>
        <time>2021-09-27T12:29:01.000Z</time>
      </trkpt>
      <trkpt lat="45.76883" lon="4.62439">
        <ele>611.8</ele>
        <time>2021-09-27T12:29:02.000Z</time>
      </trkpt>
      <trkpt lat="45.76882" lon="4.6244">
        <ele>612</ele>
        <time>2021-09-27T12:29:03.000Z</time>
      </trkpt>
      <trkpt lat="45.7688" lon="4.62441">
        <ele>612</ele>
        <time>2021-09-27T12:29:04.000Z</time>
      </trkpt>
      <trkpt lat="45.76878" lon="4.62441">
        <ele>612.2</ele>
        <time>2021-09-27T12:29:05.000Z</time>
      </trkpt>
      <trkpt lat="45.76876" lon="4.62442">
        <ele>612.4</ele>
        <time>2021-09-27T12:29:06.000Z</time>
      </trkpt>
      <trkpt lat="45.76874" lon="4.62443">
        <ele>612.8</ele>
        <time>2021-09-27T12:29:07.000Z</time>
      </trkpt>
      <trkpt lat="45.76872" lon="4.62444">
        <ele>613</ele>
        <time>2021-09-27T12:29:08.000Z</time>
      </trkpt>
      <trkpt lat="45.7687" lon="4.62444">
        <ele>613.2</ele>
        <time>2021-09-27T12:29:09.000Z</time>
      </trkpt>
      <trkpt lat="45.76869" lon="4.62445">
        <ele>613.4</ele>
        <time>2021-09-27T12:29:10.000Z</time>
      </trkpt>
      <trkpt lat="45.76867" lon="4.62446">
        <ele>613.6</ele>
        <time>2021-09-27T12:29:11.000Z</time>
      </trkpt>
      <trkpt lat="45.76865" lon="4.62447">
        <ele>613.8</ele>
        <time>2021-09-27T12:29:12.000Z</time>
      </trkpt>
      <trkpt lat="45.76864" lon="4.62448">
        <ele>614</ele>
        <time>2021-09-27T12:29:13.000Z</time>
      </trkpt>
      <trkpt lat="45.76862" lon="4.6245">
        <ele>614.2</ele>
        <time>2021-09-27T12:29:14.000Z</time>
      </trkpt>
      <trkpt lat="45.7686" lon="4.62451">
        <ele>614.4</ele>
        <time>2021-09-27T12:29:15.000Z</time>
      </trkpt>
      <trkpt lat="45.76858" lon="4.62452">
        <ele>614.6</ele>
        <time>2021-09-27T12:29:16.000Z</time>
      </trkpt>
      <trkpt lat="45.76856" lon="4.62454">
        <ele>614.8</ele>
        <time>2021-09-27T12:29:17.000Z</time>
      </trkpt>
      <trkpt lat="45.76855" lon="4.62455">
        <ele>615</ele>
        <time>2021-09-27T12:29:18.000Z</time>
      </trkpt>
      <trkpt lat="45.76854" lon="4.62456">
        <ele>615</ele>
        <time>2021-09-27T12:29:19.000Z</time>
      </trkpt>
      <trkpt lat="45.76852" lon="4.62459">
        <ele>615</ele>
        <time>2021-09-27T12:29:20.000Z</time>
      </trkpt>
      <trkpt lat="45.7685" lon="4.6246">
        <ele>615.2</ele>
        <time>2021-09-27T12:29:21.000Z</time>
      </trkpt>
      <trkpt lat="45.76848" lon="4.62462">
        <ele>615.4</ele>
        <time>2021-09-27T12:29:22.000Z</time>
      </trkpt>
      <trkpt lat="45.76848" lon="4.62463">
        <ele>615.6</ele>
        <time>2021-09-27T12:29:23.000Z</time>
      </trkpt>
      <trkpt lat="45.76846" lon="4.62465">
        <ele>615.8</ele>
        <time>2021-09-27T12:29:24.000Z</time>
      </trkpt>
      <trkpt lat="45.76845" lon="4.62467">
        <ele>616</ele>
        <time>2021-09-27T12:29:25.000Z</time>
      </trkpt>
      <trkpt lat="45.76843" lon="4.62468">
        <ele>616.2</ele>
        <time>2021-09-27T12:29:26.000Z</time>
      </trkpt>
      <trkpt lat="45.76842" lon="4.6247">
        <ele>616.4</ele>
        <time>2021-09-27T12:29:27.000Z</time>
      </trkpt>
      <trkpt lat="45.76841" lon="4.62472">
        <ele>616.6</ele>
        <time>2021-09-27T12:29:28.000Z</time>
      </trkpt>
      <trkpt lat="45.76839" lon="4.62473">
        <ele>616.8</ele>
        <time>2021-09-27T12:29:29.000Z</time>
      </trkpt>
      <trkpt lat="45.76837" lon="4.62475">
        <ele>617</ele>
        <time>2021-09-27T12:29:30.000Z</time>
      </trkpt>
      <trkpt lat="45.76834" lon="4.62476">
        <ele>617.2</ele>
        <time>2021-09-27T12:29:31.000Z</time>
      </trkpt>
      <trkpt lat="45.76832" lon="4.62477">
        <ele>617.4</ele>
        <time>2021-09-27T12:29:32.000Z</time>
      </trkpt>
      <trkpt lat="45.7683" lon="4.62478">
        <ele>617.6</ele>
        <time>2021-09-27T12:29:33.000Z</time>
      </trkpt>
      <trkpt lat="45.76828" lon="4.62479">
        <ele>617.8</ele>
        <time>2021-09-27T12:29:34.000Z</time>
      </trkpt>
      <trkpt lat="45.76826" lon="4.6248">
        <ele>617.8</ele>
        <time>2021-09-27T12:29:35.000Z</time>
      </trkpt>
      <trkpt lat="45.76825" lon="4.62481">
        <ele>618</ele>
        <time>2021-09-27T12:29:36.000Z</time>
      </trkpt>
      <trkpt lat="45.76824" lon="4.62482">
        <ele>618.2</ele>
        <time>2021-09-27T12:29:37.000Z</time>
      </trkpt>
      <trkpt lat="45.76822" lon="4.62483">
        <ele>618.4</ele>
        <time>2021-09-27T12:29:38.000Z</time>
      </trkpt>
      <trkpt lat="45.76821" lon="4.62484">
        <ele>618.4</ele>
        <time>2021-09-27T12:29:39.000Z</time>
      </trkpt>
      <trkpt lat="45.7682" lon="4.62484">
        <ele>618.6</ele>
        <time>2021-09-27T12:29:40.000Z</time>
      </trkpt>
      <trkpt lat="45.76818" lon="4.62485">
        <ele>618.8</ele>
        <time>2021-09-27T12:29:41.000Z</time>
      </trkpt>
      <trkpt lat="45.76816" lon="4.62485">
        <ele>619</ele>
        <time>2021-09-27T12:29:42.000Z</time>
      </trkpt>
      <trkpt lat="45.76815" lon="4.62486">
        <ele>619</ele>
        <time>2021-09-27T12:29:43.000Z</time>
      </trkpt>
      <trkpt lat="45.76814" lon="4.62486">
        <ele>619.2</ele>
        <time>2021-09-27T12:29:44.000Z</time>
      </trkpt>
      <trkpt lat="45.76812" lon="4.62487">
        <ele>619.4</ele>
        <time>2021-09-27T12:29:45.000Z</time>
      </trkpt>
      <trkpt lat="45.7681" lon="4.62487">
        <ele>619.6</ele>
        <time>2021-09-27T12:29:46.000Z</time>
      </trkpt>
      <trkpt lat="45.76809" lon="4.62488">
        <ele>619.8</ele>
        <time>2021-09-27T12:29:47.000Z</time>
      </trkpt>
      <trkpt lat="45.76807" lon="4.62488">
        <ele>620</ele>
        <time>2021-09-27T12:29:48.000Z</time>
      </trkpt>
      <trkpt lat="45.76806" lon="4.62489">
        <ele>620.2</ele>
        <time>2021-09-27T12:29:49.000Z</time>
      </trkpt>
      <trkpt lat="45.76805" lon="4.62489">
        <ele>620.2</ele>
        <time>2021-09-27T12:29:50.000Z</time>
      </trkpt>
      <trkpt lat="45.76803" lon="4.6249">
        <ele>620.4</ele>
        <time>2021-09-27T12:29:51.000Z</time>
      </trkpt>
      <trkpt lat="45.76801" lon="4.6249">
        <ele>620.6</ele>
        <time>2021-09-27T12:29:52.000Z</time>
      </trkpt>
      <trkpt lat="45.76799" lon="4.6249">
        <ele>620.6</ele>
        <time>2021-09-27T12:29:53.000Z</time>
      </trkpt>
      <trkpt lat="45.76797" lon="4.62491">
        <ele>621</ele>
        <time>2021-09-27T12:29:54.000Z</time>
      </trkpt>
      <trkpt lat="45.76795" lon="4.62492">
        <ele>621</ele>
        <time>2021-09-27T12:29:55.000Z</time>
      </trkpt>
      <trkpt lat="45.76794" lon="4.62493">
        <ele>621.4</ele>
        <time>2021-09-27T12:29:56.000Z</time>
      </trkpt>
      <trkpt lat="45.76792" lon="4.62493">
        <ele>621.6</ele>
        <time>2021-09-27T12:29:57.000Z</time>
      </trkpt>
      <trkpt lat="45.76791" lon="4.62494">
        <ele>621.8</ele>
        <time>2021-09-27T12:29:58.000Z</time>
      </trkpt>
      <trkpt lat="45.76789" lon="4.62494">
        <ele>622</ele>
        <time>2021-09-27T12:29:59.000Z</time>
      </trkpt>
      <trkpt lat="45.76787" lon="4.62495">
        <ele>622.2</ele>
        <time>2021-09-27T12:30:00.000Z</time>
      </trkpt>
      <trkpt lat="45.76785" lon="4.62495">
        <ele>622.4</ele>
        <time>2021-09-27T12:30:01.000Z</time>
      </trkpt>
      <trkpt lat="45.76784" lon="4.62496">
        <ele>622.6</ele>
        <time>2021-09-27T12:30:02.000Z</time>
      </trkpt>
      <trkpt lat="45.76783" lon="4.62497">
        <ele>622.6</ele>
        <time>2021-09-27T12:30:03.000Z</time>
      </trkpt>
      <trkpt lat="45.76781" lon="4.62497">
        <ele>622.8</ele>
        <time>2021-09-27T12:30:04.000Z</time>
      </trkpt>
      <trkpt lat="45.7678" lon="4.62497">
        <ele>623.2</ele>
        <time>2021-09-27T12:30:05.000Z</time>
      </trkpt>
      <trkpt lat="45.76778" lon="4.62498">
        <ele>623.2</ele>
        <time>2021-09-27T12:30:06.000Z</time>
      </trkpt>
      <trkpt lat="45.76776" lon="4.62499">
        <ele>623.2</ele>
        <time>2021-09-27T12:30:07.000Z</time>
      </trkpt>
      <trkpt lat="45.76775" lon="4.625">
        <ele>623.6</ele>
        <time>2021-09-27T12:30:08.000Z</time>
      </trkpt>
      <trkpt lat="45.76773" lon="4.62501">
        <ele>623.6</ele>
        <time>2021-09-27T12:30:09.000Z</time>
      </trkpt>
      <trkpt lat="45.76771" lon="4.62501">
        <ele>623.8</ele>
        <time>2021-09-27T12:30:10.000Z</time>
      </trkpt>
      <trkpt lat="45.76769" lon="4.62502">
        <ele>624</ele>
        <time>2021-09-27T12:30:11.000Z</time>
      </trkpt>
      <trkpt lat="45.76767" lon="4.62503">
        <ele>624</ele>
        <time>2021-09-27T12:30:12.000Z</time>
      </trkpt>
      <trkpt lat="45.76766" lon="4.62504">
        <ele>624.2</ele>
        <time>2021-09-27T12:30:13.000Z</time>
      </trkpt>
      <trkpt lat="45.76764" lon="4.62504">
        <ele>624.4</ele>
        <time>2021-09-27T12:30:14.000Z</time>
      </trkpt>
      <trkpt lat="45.76763" lon="4.62505">
        <ele>624.8</ele>
        <time>2021-09-27T12:30:15.000Z</time>
      </trkpt>
      <trkpt lat="45.76761" lon="4.62506">
        <ele>624.8</ele>
        <time>2021-09-27T12:30:16.000Z</time>
      </trkpt>
      <trkpt lat="45.76759" lon="4.62506">
        <ele>625.2</ele>
        <time>2021-09-27T12:30:17.000Z</time>
      </trkpt>
      <trkpt lat="45.76757" lon="4.62506">
        <ele>625.4</ele>
        <time>2021-09-27T12:30:18.000Z</time>
      </trkpt>
      <trkpt lat="45.76755" lon="4.62507">
        <ele>625.6</ele>
        <time>2021-09-27T12:30:19.000Z</time>
      </trkpt>
      <trkpt lat="45.76753" lon="4.62508">
        <ele>625.8</ele>
        <time>2021-09-27T12:30:20.000Z</time>
      </trkpt>
      <trkpt lat="45.76752" lon="4.62508">
        <ele>626</ele>
        <time>2021-09-27T12:30:21.000Z</time>
      </trkpt>
      <trkpt lat="45.7675" lon="4.62508">
        <ele>626.2</ele>
        <time>2021-09-27T12:30:22.000Z</time>
      </trkpt>
      <trkpt lat="45.76748" lon="4.62508">
        <ele>626.4</ele>
        <time>2021-09-27T12:30:23.000Z</time>
      </trkpt>
      <trkpt lat="45.76747" lon="4.62508">
        <ele>626.4</ele>
        <time>2021-09-27T12:30:24.000Z</time>
      </trkpt>
      <trkpt lat="45.76745" lon="4.62509">
        <ele>626.6</ele>
        <time>2021-09-27T12:30:25.000Z</time>
      </trkpt>
      <trkpt lat="45.76744" lon="4.6251">
        <ele>627</ele>
        <time>2021-09-27T12:30:26.000Z</time>
      </trkpt>
      <trkpt lat="45.76742" lon="4.62511">
        <ele>627.2</ele>
        <time>2021-09-27T12:30:27.000Z</time>
      </trkpt>
      <trkpt lat="45.76741" lon="4.62513">
        <ele>627.2</ele>
        <time>2021-09-27T12:30:28.000Z</time>
      </trkpt>
      <trkpt lat="45.7674" lon="4.62514">
        <ele>627.4</ele>
        <time>2021-09-27T12:30:29.000Z</time>
      </trkpt>
      <trkpt lat="45.76739" lon="4.62515">
        <ele>627.4</ele>
        <time>2021-09-27T12:30:30.000Z</time>
      </trkpt>
      <trkpt lat="45.76738" lon="4.62516">
        <ele>627.6</ele>
        <time>2021-09-27T12:30:31.000Z</time>
      </trkpt>
      <trkpt lat="45.76736" lon="4.62517">
        <ele>627.8</ele>
        <time>2021-09-27T12:30:32.000Z</time>
      </trkpt>
      <trkpt lat="45.76735" lon="4.62518">
        <ele>628</ele>
        <time>2021-09-27T12:30:33.000Z</time>
      </trkpt>
      <trkpt lat="45.76733" lon="4.62518">
        <ele>628.2</ele>
        <time>2021-09-27T12:30:34.000Z</time>
      </trkpt>
      <trkpt lat="45.76732" lon="4.62518">
        <ele>628.2</ele>
        <time>2021-09-27T12:30:35.000Z</time>
      </trkpt>
      <trkpt lat="45.7673" lon="4.62519">
        <ele>628.6</ele>
        <time>2021-09-27T12:30:36.000Z</time>
      </trkpt>
      <trkpt lat="45.76729" lon="4.62519">
        <ele>628.8</ele>
        <time>2021-09-27T12:30:37.000Z</time>
      </trkpt>
      <trkpt lat="45.76727" lon="4.62519">
        <ele>629</ele>
        <time>2021-09-27T12:30:38.000Z</time>
      </trkpt>
      <trkpt lat="45.76726" lon="4.6252">
        <ele>629.2</ele>
        <time>2021-09-27T12:30:39.000Z</time>
      </trkpt>
      <trkpt lat="45.76724" lon="4.62521">
        <ele>629.4</ele>
        <time>2021-09-27T12:30:40.000Z</time>
      </trkpt>
      <trkpt lat="45.76722" lon="4.62521">
        <ele>629.8</ele>
        <time>2021-09-27T12:30:41.000Z</time>
      </trkpt>
      <trkpt lat="45.76721" lon="4.62522">
        <ele>629.8</ele>
        <time>2021-09-27T12:30:42.000Z</time>
      </trkpt>
      <trkpt lat="45.76719" lon="4.62523">
        <ele>630.2</ele>
        <time>2021-09-27T12:30:43.000Z</time>
      </trkpt>
      <trkpt lat="45.76718" lon="4.62524">
        <ele>630.4</ele>
        <time>2021-09-27T12:30:44.000Z</time>
      </trkpt>
      <trkpt lat="45.76717" lon="4.62524">
        <ele>630.6</ele>
        <time>2021-09-27T12:30:45.000Z</time>
      </trkpt>
      <trkpt lat="45.76716" lon="4.62524">
        <ele>631</ele>
        <time>2021-09-27T12:30:46.000Z</time>
      </trkpt>
      <trkpt lat="45.76715" lon="4.62524">
        <ele>631.4</ele>
        <time>2021-09-27T12:30:47.000Z</time>
      </trkpt>
      <trkpt lat="45.76714" lon="4.62525">
        <ele>631.8</ele>
        <time>2021-09-27T12:30:48.000Z</time>
      </trkpt>
      <trkpt lat="45.76713" lon="4.62525">
        <ele>632</ele>
        <time>2021-09-27T12:30:49.000Z</time>
      </trkpt>
      <trkpt lat="45.76713" lon="4.62526">
        <ele>632.2</ele>
        <time>2021-09-27T12:30:50.000Z</time>
      </trkpt>
      <trkpt lat="45.76711" lon="4.62526">
        <ele>632.6</ele>
        <time>2021-09-27T12:30:51.000Z</time>
      </trkpt>
      <trkpt lat="45.7671" lon="4.62527">
        <ele>632.8</ele>
        <time>2021-09-27T12:30:52.000Z</time>
      </trkpt>
      <trkpt lat="45.76709" lon="4.62527">
        <ele>633</ele>
        <time>2021-09-27T12:30:53.000Z</time>
      </trkpt>
      <trkpt lat="45.76708" lon="4.62528">
        <ele>633</ele>
        <time>2021-09-27T12:30:54.000Z</time>
      </trkpt>
      <trkpt lat="45.76707" lon="4.62529">
        <ele>633.4</ele>
        <time>2021-09-27T12:30:55.000Z</time>
      </trkpt>
      <trkpt lat="45.76706" lon="4.62529">
        <ele>633.8</ele>
        <time>2021-09-27T12:30:56.000Z</time>
      </trkpt>
      <trkpt lat="45.76705" lon="4.62529">
        <ele>634.2</ele>
        <time>2021-09-27T12:30:58.000Z</time>
      </trkpt>
      <trkpt lat="45.76703" lon="4.6253">
        <ele>634.6</ele>
        <time>2021-09-27T12:30:59.000Z</time>
      </trkpt>
      <trkpt lat="45.76702" lon="4.6253">
        <ele>635.2</ele>
        <time>2021-09-27T12:31:01.000Z</time>
      </trkpt>
      <trkpt lat="45.76701" lon="4.6253">
        <ele>635.4</ele>
        <time>2021-09-27T12:31:02.000Z</time>
      </trkpt>
      <trkpt lat="45.76699" lon="4.6253">
        <ele>635.6</ele>
        <time>2021-09-27T12:31:03.000Z</time>
      </trkpt>
      <trkpt lat="45.76697" lon="4.62531">
        <ele>636</ele>
        <time>2021-09-27T12:31:04.000Z</time>
      </trkpt>
      <trkpt lat="45.76696" lon="4.62531">
        <ele>636.2</ele>
        <time>2021-09-27T12:31:05.000Z</time>
      </trkpt>
      <trkpt lat="45.76695" lon="4.62531">
        <ele>636.6</ele>
        <time>2021-09-27T12:31:06.000Z</time>
      </trkpt>
      <trkpt lat="45.76694" lon="4.62532">
        <ele>636.8</ele>
        <time>2021-09-27T12:31:07.000Z</time>
      </trkpt>
      <trkpt lat="45.76693" lon="4.62533">
        <ele>637</ele>
        <time>2021-09-27T12:31:08.000Z</time>
      </trkpt>
      <trkpt lat="45.76691" lon="4.62533">
        <ele>637.2</ele>
        <time>2021-09-27T12:31:09.000Z</time>
      </trkpt>
      <trkpt lat="45.76689" lon="4.62534">
        <ele>637.4</ele>
        <time>2021-09-27T12:31:10.000Z</time>
      </trkpt>
      <trkpt lat="45.76687" lon="4.62534">
        <ele>637.6</ele>
        <time>2021-09-27T12:31:11.000Z</time>
      </trkpt>
      <trkpt lat="45.76685" lon="4.62535">
        <ele>637.8</ele>
        <time>2021-09-27T12:31:12.000Z</time>
      </trkpt>
      <trkpt lat="45.76683" lon="4.62535">
        <ele>638</ele>
        <time>2021-09-27T12:31:13.000Z</time>
      </trkpt>
      <trkpt lat="45.76681" lon="4.62536">
        <ele>638.2</ele>
        <time>2021-09-27T12:31:14.000Z</time>
      </trkpt>
      <trkpt lat="45.7668" lon="4.62536">
        <ele>638.4</ele>
        <time>2021-09-27T12:31:15.000Z</time>
      </trkpt>
      <trkpt lat="45.76679" lon="4.62536">
        <ele>638.8</ele>
        <time>2021-09-27T12:31:16.000Z</time>
      </trkpt>
      <trkpt lat="45.76678" lon="4.62537">
        <ele>638.8</ele>
        <time>2021-09-27T12:31:17.000Z</time>
      </trkpt>
      <trkpt lat="45.76676" lon="4.62539">
        <ele>639</ele>
        <time>2021-09-27T12:31:18.000Z</time>
      </trkpt>
      <trkpt lat="45.76675" lon="4.6254">
        <ele>639.2</ele>
        <time>2021-09-27T12:31:19.000Z</time>
      </trkpt>
      <trkpt lat="45.76673" lon="4.6254">
        <ele>639.4</ele>
        <time>2021-09-27T12:31:20.000Z</time>
      </trkpt>
      <trkpt lat="45.76671" lon="4.62542">
        <ele>639.6</ele>
        <time>2021-09-27T12:31:21.000Z</time>
      </trkpt>
      <trkpt lat="45.7667" lon="4.62544">
        <ele>639.8</ele>
        <time>2021-09-27T12:31:22.000Z</time>
      </trkpt>
      <trkpt lat="45.76668" lon="4.62546">
        <ele>640</ele>
        <time>2021-09-27T12:31:23.000Z</time>
      </trkpt>
      <trkpt lat="45.76667" lon="4.62548">
        <ele>640.2</ele>
        <time>2021-09-27T12:31:24.000Z</time>
      </trkpt>
      <trkpt lat="45.76666" lon="4.62548">
        <ele>640.4</ele>
        <time>2021-09-27T12:31:25.000Z</time>
      </trkpt>
      <trkpt lat="45.76664" lon="4.62549">
        <ele>640.6</ele>
        <time>2021-09-27T12:31:26.000Z</time>
      </trkpt>
      <trkpt lat="45.76662" lon="4.62548">
        <ele>640.8</ele>
        <time>2021-09-27T12:31:27.000Z</time>
      </trkpt>
      <trkpt lat="45.76661" lon="4.62548">
        <ele>641</ele>
        <time>2021-09-27T12:31:28.000Z</time>
      </trkpt>
      <trkpt lat="45.76659" lon="4.6255">
        <ele>641.2</ele>
        <time>2021-09-27T12:31:29.000Z</time>
      </trkpt>
      <trkpt lat="45.76658" lon="4.62552">
        <ele>641.4</ele>
        <time>2021-09-27T12:31:30.000Z</time>
      </trkpt>
      <trkpt lat="45.76656" lon="4.62553">
        <ele>641.6</ele>
        <time>2021-09-27T12:31:31.000Z</time>
      </trkpt>
      <trkpt lat="45.76655" lon="4.62553">
        <ele>641.8</ele>
        <time>2021-09-27T12:31:32.000Z</time>
      </trkpt>
      <trkpt lat="45.76654" lon="4.62554">
        <ele>642</ele>
        <time>2021-09-27T12:31:33.000Z</time>
      </trkpt>
      <trkpt lat="45.76653" lon="4.62555">
        <ele>642.4</ele>
        <time>2021-09-27T12:31:34.000Z</time>
      </trkpt>
      <trkpt lat="45.76652" lon="4.62555">
        <ele>642.6</ele>
        <time>2021-09-27T12:31:35.000Z</time>
      </trkpt>
      <trkpt lat="45.76651" lon="4.62556">
        <ele>642.6</ele>
        <time>2021-09-27T12:31:36.000Z</time>
      </trkpt>
      <trkpt lat="45.7665" lon="4.62557">
        <ele>643</ele>
        <time>2021-09-27T12:31:37.000Z</time>
      </trkpt>
      <trkpt lat="45.76649" lon="4.62558">
        <ele>643.2</ele>
        <time>2021-09-27T12:31:38.000Z</time>
      </trkpt>
      <trkpt lat="45.76648" lon="4.62559">
        <ele>643.4</ele>
        <time>2021-09-27T12:31:39.000Z</time>
      </trkpt>
      <trkpt lat="45.76646" lon="4.62561">
        <ele>643.6</ele>
        <time>2021-09-27T12:31:40.000Z</time>
      </trkpt>
      <trkpt lat="45.76645" lon="4.62562">
        <ele>643.6</ele>
        <time>2021-09-27T12:31:41.000Z</time>
      </trkpt>
      <trkpt lat="45.76644" lon="4.62564">
        <ele>644</ele>
        <time>2021-09-27T12:31:42.000Z</time>
      </trkpt>
      <trkpt lat="45.76643" lon="4.62564">
        <ele>644.2</ele>
        <time>2021-09-27T12:31:43.000Z</time>
      </trkpt>
      <trkpt lat="45.76641" lon="4.62565">
        <ele>644.4</ele>
        <time>2021-09-27T12:31:44.000Z</time>
      </trkpt>
      <trkpt lat="45.7664" lon="4.62565">
        <ele>644.6</ele>
        <time>2021-09-27T12:31:45.000Z</time>
      </trkpt>
      <trkpt lat="45.76639" lon="4.62566">
        <ele>644.8</ele>
        <time>2021-09-27T12:31:46.000Z</time>
      </trkpt>
      <trkpt lat="45.76638" lon="4.62567">
        <ele>645</ele>
        <time>2021-09-27T12:31:47.000Z</time>
      </trkpt>
      <trkpt lat="45.76637" lon="4.62567">
        <ele>645.2</ele>
        <time>2021-09-27T12:31:48.000Z</time>
      </trkpt>
      <trkpt lat="45.76636" lon="4.62568">
        <ele>645.4</ele>
        <time>2021-09-27T12:31:49.000Z</time>
      </trkpt>
      <trkpt lat="45.76635" lon="4.6257">
        <ele>645.6</ele>
        <time>2021-09-27T12:31:50.000Z</time>
      </trkpt>
      <trkpt lat="45.76633" lon="4.6257">
        <ele>646</ele>
        <time>2021-09-27T12:31:51.000Z</time>
      </trkpt>
      <trkpt lat="45.76632" lon="4.62571">
        <ele>646</ele>
        <time>2021-09-27T12:31:52.000Z</time>
      </trkpt>
      <trkpt lat="45.76632" lon="4.62572">
        <ele>646.4</ele>
        <time>2021-09-27T12:31:53.000Z</time>
      </trkpt>
      <trkpt lat="45.76631" lon="4.62572">
        <ele>646.6</ele>
        <time>2021-09-27T12:31:54.000Z</time>
      </trkpt>
      <trkpt lat="45.7663" lon="4.62572">
        <ele>646.8</ele>
        <time>2021-09-27T12:31:55.000Z</time>
      </trkpt>
      <trkpt lat="45.76629" lon="4.62572">
        <ele>647</ele>
        <time>2021-09-27T12:31:56.000Z</time>
      </trkpt>
      <trkpt lat="45.76628" lon="4.62573">
        <ele>647.2</ele>
        <time>2021-09-27T12:31:57.000Z</time>
      </trkpt>
      <trkpt lat="45.76627" lon="4.62573">
        <ele>647.6</ele>
        <time>2021-09-27T12:31:58.000Z</time>
      </trkpt>
      <trkpt lat="45.76626" lon="4.62574">
        <ele>648</ele>
        <time>2021-09-27T12:31:59.000Z</time>
      </trkpt>
      <trkpt lat="45.76624" lon="4.62575">
        <ele>648.2</ele>
        <time>2021-09-27T12:32:00.000Z</time>
      </trkpt>
      <trkpt lat="45.76623" lon="4.62575">
        <ele>648.6</ele>
        <time>2021-09-27T12:32:01.000Z</time>
      </trkpt>
      <trkpt lat="45.76622" lon="4.62575">
        <ele>648.8</ele>
        <time>2021-09-27T12:32:02.000Z</time>
      </trkpt>
      <trkpt lat="45.76621" lon="4.62576">
        <ele>649.2</ele>
        <time>2021-09-27T12:32:03.000Z</time>
      </trkpt>
      <trkpt lat="45.76619" lon="4.62577">
        <ele>649.2</ele>
        <time>2021-09-27T12:32:04.000Z</time>
      </trkpt>
      <trkpt lat="45.76618" lon="4.62577">
        <ele>649.4</ele>
        <time>2021-09-27T12:32:05.000Z</time>
      </trkpt>
      <trkpt lat="45.76617" lon="4.62577">
        <ele>649.6</ele>
        <time>2021-09-27T12:32:06.000Z</time>
      </trkpt>
      <trkpt lat="45.76616" lon="4.62578">
        <ele>649.8</ele>
        <time>2021-09-27T12:32:07.000Z</time>
      </trkpt>
      <trkpt lat="45.76614" lon="4.62579">
        <ele>650</ele>
        <time>2021-09-27T12:32:08.000Z</time>
      </trkpt>
      <trkpt lat="45.76613" lon="4.6258">
        <ele>650.2</ele>
        <time>2021-09-27T12:32:09.000Z</time>
      </trkpt>
      <trkpt lat="45.76612" lon="4.6258">
        <ele>650.4</ele>
        <time>2021-09-27T12:32:10.000Z</time>
      </trkpt>
      <trkpt lat="45.7661" lon="4.62581">
        <ele>650.6</ele>
        <time>2021-09-27T12:32:11.000Z</time>
      </trkpt>
      <trkpt lat="45.76609" lon="4.62581">
        <ele>650.8</ele>
        <time>2021-09-27T12:32:12.000Z</time>
      </trkpt>
      <trkpt lat="45.76608" lon="4.62582">
        <ele>651.2</ele>
        <time>2021-09-27T12:32:13.000Z</time>
      </trkpt>
      <trkpt lat="45.76606" lon="4.62582">
        <ele>651.4</ele>
        <time>2021-09-27T12:32:14.000Z</time>
      </trkpt>
      <trkpt lat="45.76605" lon="4.62582">
        <ele>652</ele>
        <time>2021-09-27T12:32:16.000Z</time>
      </trkpt>
      <trkpt lat="45.76604" lon="4.62582">
        <ele>652.4</ele>
        <time>2021-09-27T12:32:17.000Z</time>
      </trkpt>
      <trkpt lat="45.76602" lon="4.62582">
        <ele>652.8</ele>
        <time>2021-09-27T12:32:18.000Z</time>
      </trkpt>
      <trkpt lat="45.76601" lon="4.62583">
        <ele>653</ele>
        <time>2021-09-27T12:32:19.000Z</time>
      </trkpt>
      <trkpt lat="45.76599" lon="4.62584">
        <ele>653.2</ele>
        <time>2021-09-27T12:32:20.000Z</time>
      </trkpt>
      <trkpt lat="45.76598" lon="4.62584">
        <ele>653.6</ele>
        <time>2021-09-27T12:32:21.000Z</time>
      </trkpt>
      <trkpt lat="45.76596" lon="4.62585">
        <ele>653.8</ele>
        <time>2021-09-27T12:32:22.000Z</time>
      </trkpt>
      <trkpt lat="45.76595" lon="4.62586">
        <ele>654</ele>
        <time>2021-09-27T12:32:23.000Z</time>
      </trkpt>
      <trkpt lat="45.76593" lon="4.62586">
        <ele>654.4</ele>
        <time>2021-09-27T12:32:24.000Z</time>
      </trkpt>
      <trkpt lat="45.76592" lon="4.62587">
        <ele>654.6</ele>
        <time>2021-09-27T12:32:25.000Z</time>
      </trkpt>
      <trkpt lat="45.76591" lon="4.62587">
        <ele>654.6</ele>
        <time>2021-09-27T12:32:26.000Z</time>
      </trkpt>
      <trkpt lat="45.7659" lon="4.62588">
        <ele>654.8</ele>
        <time>2021-09-27T12:32:27.000Z</time>
      </trkpt>
      <trkpt lat="45.76589" lon="4.62589">
        <ele>654.8</ele>
        <time>2021-09-27T12:32:28.000Z</time>
      </trkpt>
      <trkpt lat="45.76588" lon="4.6259">
        <ele>655</ele>
        <time>2021-09-27T12:32:29.000Z</time>
      </trkpt>
      <trkpt lat="45.76587" lon="4.62591">
        <ele>655</ele>
        <time>2021-09-27T12:32:30.000Z</time>
      </trkpt>
      <trkpt lat="45.76585" lon="4.62591">
        <ele>655.2</ele>
        <time>2021-09-27T12:32:31.000Z</time>
      </trkpt>
      <trkpt lat="45.76583" lon="4.62592">
        <ele>655.6</ele>
        <time>2021-09-27T12:32:33.000Z</time>
      </trkpt>
      <trkpt lat="45.76582" lon="4.62592">
        <ele>655.8</ele>
        <time>2021-09-27T12:32:35.000Z</time>
      </trkpt>
      <trkpt lat="45.7658" lon="4.62593">
        <ele>656</ele>
        <time>2021-09-27T12:32:36.000Z</time>
      </trkpt>
      <trkpt lat="45.76579" lon="4.62593">
        <ele>656.2</ele>
        <time>2021-09-27T12:32:37.000Z</time>
      </trkpt>
      <trkpt lat="45.76578" lon="4.62594">
        <ele>656.4</ele>
        <time>2021-09-27T12:32:38.000Z</time>
      </trkpt>
      <trkpt lat="45.76577" lon="4.62595">
        <ele>656.6</ele>
        <time>2021-09-27T12:32:39.000Z</time>
      </trkpt>
      <trkpt lat="45.76576" lon="4.62595">
        <ele>656.8</ele>
        <time>2021-09-27T12:32:40.000Z</time>
      </trkpt>
      <trkpt lat="45.76575" lon="4.62595">
        <ele>657</ele>
        <time>2021-09-27T12:32:41.000Z</time>
      </trkpt>
      <trkpt lat="45.76573" lon="4.62595">
        <ele>657.2</ele>
        <time>2021-09-27T12:32:42.000Z</time>
      </trkpt>
      <trkpt lat="45.76571" lon="4.62595">
        <ele>657.4</ele>
        <time>2021-09-27T12:32:43.000Z</time>
      </trkpt>
      <trkpt lat="45.7657" lon="4.62595">
        <ele>657.6</ele>
        <time>2021-09-27T12:32:44.000Z</time>
      </trkpt>
      <trkpt lat="45.76568" lon="4.62596">
        <ele>657.8</ele>
        <time>2021-09-27T12:32:45.000Z</time>
      </trkpt>
      <trkpt lat="45.76567" lon="4.62596">
        <ele>657.8</ele>
        <time>2021-09-27T12:32:46.000Z</time>
      </trkpt>
      <trkpt lat="45.76566" lon="4.62597">
        <ele>658</ele>
        <time>2021-09-27T12:32:47.000Z</time>
      </trkpt>
      <trkpt lat="45.76565" lon="4.62597">
        <ele>658.2</ele>
        <time>2021-09-27T12:32:48.000Z</time>
      </trkpt>
      <trkpt lat="45.76563" lon="4.62597">
        <ele>658.4</ele>
        <time>2021-09-27T12:32:49.000Z</time>
      </trkpt>
      <trkpt lat="45.76562" lon="4.62598">
        <ele>658.6</ele>
        <time>2021-09-27T12:32:50.000Z</time>
      </trkpt>
      <trkpt lat="45.76561" lon="4.62598">
        <ele>658.6</ele>
        <time>2021-09-27T12:32:51.000Z</time>
      </trkpt>
      <trkpt lat="45.7656" lon="4.62597">
        <ele>658.6</ele>
        <time>2021-09-27T12:32:52.000Z</time>
      </trkpt>
      <trkpt lat="45.76559" lon="4.62597">
        <ele>658.8</ele>
        <time>2021-09-27T12:32:53.000Z</time>
      </trkpt>
      <trkpt lat="45.76557" lon="4.62597">
        <ele>659</ele>
        <time>2021-09-27T12:32:54.000Z</time>
      </trkpt>
      <trkpt lat="45.76556" lon="4.62597">
        <ele>659.2</ele>
        <time>2021-09-27T12:32:55.000Z</time>
      </trkpt>
      <trkpt lat="45.76555" lon="4.62598">
        <ele>659.4</ele>
        <time>2021-09-27T12:32:56.000Z</time>
      </trkpt>
      <trkpt lat="45.76553" lon="4.62599">
        <ele>659.6</ele>
        <time>2021-09-27T12:32:57.000Z</time>
      </trkpt>
      <trkpt lat="45.76552" lon="4.62601">
        <ele>659.8</ele>
        <time>2021-09-27T12:32:58.000Z</time>
      </trkpt>
      <trkpt lat="45.7655" lon="4.62601">
        <ele>660</ele>
        <time>2021-09-27T12:32:59.000Z</time>
      </trkpt>
      <trkpt lat="45.76549" lon="4.62602">
        <ele>660.2</ele>
        <time>2021-09-27T12:33:00.000Z</time>
      </trkpt>
      <trkpt lat="45.76547" lon="4.62602">
        <ele>660.4</ele>
        <time>2021-09-27T12:33:01.000Z</time>
      </trkpt>
      <trkpt lat="45.76546" lon="4.62602">
        <ele>660.4</ele>
        <time>2021-09-27T12:33:02.000Z</time>
      </trkpt>
      <trkpt lat="45.76545" lon="4.62602">
        <ele>660.6</ele>
        <time>2021-09-27T12:33:03.000Z</time>
      </trkpt>
      <trkpt lat="45.76544" lon="4.62603">
        <ele>661</ele>
        <time>2021-09-27T12:33:05.000Z</time>
      </trkpt>
      <trkpt lat="45.76543" lon="4.62603">
        <ele>661.2</ele>
        <time>2021-09-27T12:33:06.000Z</time>
      </trkpt>
      <trkpt lat="45.76542" lon="4.62604">
        <ele>661.4</ele>
        <time>2021-09-27T12:33:07.000Z</time>
      </trkpt>
      <trkpt lat="45.76541" lon="4.62605">
        <ele>661.6</ele>
        <time>2021-09-27T12:33:08.000Z</time>
      </trkpt>
      <trkpt lat="45.76539" lon="4.62607">
        <ele>661.8</ele>
        <time>2021-09-27T12:33:09.000Z</time>
      </trkpt>
      <trkpt lat="45.76537" lon="4.62608">
        <ele>662.2</ele>
        <time>2021-09-27T12:33:11.000Z</time>
      </trkpt>
      <trkpt lat="45.76536" lon="4.62608">
        <ele>662.4</ele>
        <time>2021-09-27T12:33:12.000Z</time>
      </trkpt>
      <trkpt lat="45.76534" lon="4.62609">
        <ele>662.6</ele>
        <time>2021-09-27T12:33:13.000Z</time>
      </trkpt>
      <trkpt lat="45.76532" lon="4.6261">
        <ele>662.8</ele>
        <time>2021-09-27T12:33:14.000Z</time>
      </trkpt>
      <trkpt lat="45.76531" lon="4.6261">
        <ele>662.8</ele>
        <time>2021-09-27T12:33:15.000Z</time>
      </trkpt>
      <trkpt lat="45.7653" lon="4.62612">
        <ele>663</ele>
        <time>2021-09-27T12:33:16.000Z</time>
      </trkpt>
      <trkpt lat="45.76529" lon="4.62613">
        <ele>663.2</ele>
        <time>2021-09-27T12:33:17.000Z</time>
      </trkpt>
      <trkpt lat="45.76527" lon="4.62614">
        <ele>663.4</ele>
        <time>2021-09-27T12:33:18.000Z</time>
      </trkpt>
      <trkpt lat="45.76526" lon="4.62616">
        <ele>663.8</ele>
        <time>2021-09-27T12:33:19.000Z</time>
      </trkpt>
      <trkpt lat="45.76525" lon="4.62618">
        <ele>663.8</ele>
        <time>2021-09-27T12:33:20.000Z</time>
      </trkpt>
      <trkpt lat="45.76524" lon="4.62619">
        <ele>664.2</ele>
        <time>2021-09-27T12:33:21.000Z</time>
      </trkpt>
      <trkpt lat="45.76523" lon="4.6262">
        <ele>664.4</ele>
        <time>2021-09-27T12:33:22.000Z</time>
      </trkpt>
      <trkpt lat="45.76523" lon="4.62621">
        <ele>664.6</ele>
        <time>2021-09-27T12:33:23.000Z</time>
      </trkpt>
      <trkpt lat="45.76522" lon="4.62623">
        <ele>664.8</ele>
        <time>2021-09-27T12:33:24.000Z</time>
      </trkpt>
      <trkpt lat="45.76521" lon="4.62624">
        <ele>665.2</ele>
        <time>2021-09-27T12:33:25.000Z</time>
      </trkpt>
      <trkpt lat="45.76519" lon="4.62626">
        <ele>665.4</ele>
        <time>2021-09-27T12:33:26.000Z</time>
      </trkpt>
      <trkpt lat="45.76518" lon="4.62628">
        <ele>665.8</ele>
        <time>2021-09-27T12:33:27.000Z</time>
      </trkpt>
      <trkpt lat="45.76517" lon="4.6263">
        <ele>666</ele>
        <time>2021-09-27T12:33:28.000Z</time>
      </trkpt>
      <trkpt lat="45.76516" lon="4.62632">
        <ele>666.2</ele>
        <time>2021-09-27T12:33:29.000Z</time>
      </trkpt>
      <trkpt lat="45.76514" lon="4.62634">
        <ele>666.4</ele>
        <time>2021-09-27T12:33:30.000Z</time>
      </trkpt>
      <trkpt lat="45.76513" lon="4.62635">
        <ele>666.4</ele>
        <time>2021-09-27T12:33:31.000Z</time>
      </trkpt>
      <trkpt lat="45.76511" lon="4.62636">
        <ele>666.8</ele>
        <time>2021-09-27T12:33:32.000Z</time>
      </trkpt>
      <trkpt lat="45.76511" lon="4.62638">
        <ele>666.8</ele>
        <time>2021-09-27T12:33:33.000Z</time>
      </trkpt>
      <trkpt lat="45.76511" lon="4.62639">
        <ele>667</ele>
        <time>2021-09-27T12:33:34.000Z</time>
      </trkpt>
      <trkpt lat="45.7651" lon="4.6264">
        <ele>667.4</ele>
        <time>2021-09-27T12:33:35.000Z</time>
      </trkpt>
      <trkpt lat="45.76509" lon="4.62641">
        <ele>667.6</ele>
        <time>2021-09-27T12:33:36.000Z</time>
      </trkpt>
      <trkpt lat="45.76508" lon="4.62642">
        <ele>668</ele>
        <time>2021-09-27T12:33:37.000Z</time>
      </trkpt>
      <trkpt lat="45.76507" lon="4.62643">
        <ele>668.2</ele>
        <time>2021-09-27T12:33:38.000Z</time>
      </trkpt>
      <trkpt lat="45.76505" lon="4.62643">
        <ele>668.2</ele>
        <time>2021-09-27T12:33:39.000Z</time>
      </trkpt>
      <trkpt lat="45.76503" lon="4.62643">
        <ele>668.4</ele>
        <time>2021-09-27T12:33:40.000Z</time>
      </trkpt>
      <trkpt lat="45.76502" lon="4.62644">
        <ele>668.8</ele>
        <time>2021-09-27T12:33:41.000Z</time>
      </trkpt>
      <trkpt lat="45.765" lon="4.62644">
        <ele>669.2</ele>
        <time>2021-09-27T12:33:42.000Z</time>
      </trkpt>
      <trkpt lat="45.76499" lon="4.62645">
        <ele>669.4</ele>
        <time>2021-09-27T12:33:43.000Z</time>
      </trkpt>
      <trkpt lat="45.76498" lon="4.62645">
        <ele>669.6</ele>
        <time>2021-09-27T12:33:44.000Z</time>
      </trkpt>
      <trkpt lat="45.76496" lon="4.62645">
        <ele>669.8</ele>
        <time>2021-09-27T12:33:45.000Z</time>
      </trkpt>
      <trkpt lat="45.76495" lon="4.62645">
        <ele>670</ele>
        <time>2021-09-27T12:33:46.000Z</time>
      </trkpt>
      <trkpt lat="45.76494" lon="4.62645">
        <ele>670.2</ele>
        <time>2021-09-27T12:33:47.000Z</time>
      </trkpt>
      <trkpt lat="45.76492" lon="4.62646">
        <ele>670.4</ele>
        <time>2021-09-27T12:33:48.000Z</time>
      </trkpt>
      <trkpt lat="45.76491" lon="4.62647">
        <ele>670.6</ele>
        <time>2021-09-27T12:33:49.000Z</time>
      </trkpt>
      <trkpt lat="45.7649" lon="4.62648">
        <ele>670.6</ele>
        <time>2021-09-27T12:33:50.000Z</time>
      </trkpt>
      <trkpt lat="45.76488" lon="4.62649">
        <ele>670.8</ele>
        <time>2021-09-27T12:33:51.000Z</time>
      </trkpt>
      <trkpt lat="45.76487" lon="4.6265">
        <ele>671</ele>
        <time>2021-09-27T12:33:52.000Z</time>
      </trkpt>
      <trkpt lat="45.76486" lon="4.6265">
        <ele>671.2</ele>
        <time>2021-09-27T12:33:53.000Z</time>
      </trkpt>
      <trkpt lat="45.76485" lon="4.62651">
        <ele>671.2</ele>
        <time>2021-09-27T12:33:54.000Z</time>
      </trkpt>
      <trkpt lat="45.76483" lon="4.62652">
        <ele>671.4</ele>
        <time>2021-09-27T12:33:55.000Z</time>
      </trkpt>
      <trkpt lat="45.76482" lon="4.62653">
        <ele>671.6</ele>
        <time>2021-09-27T12:33:56.000Z</time>
      </trkpt>
      <trkpt lat="45.76481" lon="4.62654">
        <ele>671.8</ele>
        <time>2021-09-27T12:33:57.000Z</time>
      </trkpt>
      <trkpt lat="45.7648" lon="4.62655">
        <ele>671.8</ele>
        <time>2021-09-27T12:33:58.000Z</time>
      </trkpt>
      <trkpt lat="45.76479" lon="4.62656">
        <ele>672</ele>
        <time>2021-09-27T12:33:59.000Z</time>
      </trkpt>
      <trkpt lat="45.76477" lon="4.62658">
        <ele>672.2</ele>
        <time>2021-09-27T12:34:00.000Z</time>
      </trkpt>
      <trkpt lat="45.76475" lon="4.62659">
        <ele>672.4</ele>
        <time>2021-09-27T12:34:01.000Z</time>
      </trkpt>
      <trkpt lat="45.76474" lon="4.6266">
        <ele>672.4</ele>
        <time>2021-09-27T12:34:02.000Z</time>
      </trkpt>
      <trkpt lat="45.76473" lon="4.62662">
        <ele>672.6</ele>
        <time>2021-09-27T12:34:03.000Z</time>
      </trkpt>
      <trkpt lat="45.76472" lon="4.62664">
        <ele>672.6</ele>
        <time>2021-09-27T12:34:04.000Z</time>
      </trkpt>
      <trkpt lat="45.76471" lon="4.62666">
        <ele>672.8</ele>
        <time>2021-09-27T12:34:05.000Z</time>
      </trkpt>
      <trkpt lat="45.7647" lon="4.62667">
        <ele>673</ele>
        <time>2021-09-27T12:34:06.000Z</time>
      </trkpt>
      <trkpt lat="45.76469" lon="4.62667">
        <ele>673.2</ele>
        <time>2021-09-27T12:34:07.000Z</time>
      </trkpt>
      <trkpt lat="45.76467" lon="4.62669">
        <ele>673.2</ele>
        <time>2021-09-27T12:34:08.000Z</time>
      </trkpt>
      <trkpt lat="45.76463" lon="4.62673">
        <ele>673.4</ele>
        <time>2021-09-27T12:34:09.000Z</time>
      </trkpt>
      <trkpt lat="45.76462" lon="4.62675">
        <ele>673.4</ele>
        <time>2021-09-27T12:34:10.000Z</time>
      </trkpt>
      <trkpt lat="45.7646" lon="4.62675">
        <ele>673.6</ele>
        <time>2021-09-27T12:34:11.000Z</time>
      </trkpt>
      <trkpt lat="45.76459" lon="4.62676">
        <ele>673.8</ele>
        <time>2021-09-27T12:34:12.000Z</time>
      </trkpt>
      <trkpt lat="45.76457" lon="4.62677">
        <ele>674</ele>
        <time>2021-09-27T12:34:13.000Z</time>
      </trkpt>
      <trkpt lat="45.76456" lon="4.62677">
        <ele>674.2</ele>
        <time>2021-09-27T12:34:14.000Z</time>
      </trkpt>
      <trkpt lat="45.76455" lon="4.62679">
        <ele>674.4</ele>
        <time>2021-09-27T12:34:15.000Z</time>
      </trkpt>
      <trkpt lat="45.76453" lon="4.62679">
        <ele>674.4</ele>
        <time>2021-09-27T12:34:16.000Z</time>
      </trkpt>
      <trkpt lat="45.76451" lon="4.6268">
        <ele>674.6</ele>
        <time>2021-09-27T12:34:17.000Z</time>
      </trkpt>
      <trkpt lat="45.76449" lon="4.62682">
        <ele>675</ele>
        <time>2021-09-27T12:34:18.000Z</time>
      </trkpt>
      <trkpt lat="45.76448" lon="4.62683">
        <ele>675</ele>
        <time>2021-09-27T12:34:19.000Z</time>
      </trkpt>
      <trkpt lat="45.76447" lon="4.62685">
        <ele>675.2</ele>
        <time>2021-09-27T12:34:20.000Z</time>
      </trkpt>
      <trkpt lat="45.76446" lon="4.62686">
        <ele>675.4</ele>
        <time>2021-09-27T12:34:21.000Z</time>
      </trkpt>
      <trkpt lat="45.76445" lon="4.62687">
        <ele>675.6</ele>
        <time>2021-09-27T12:34:22.000Z</time>
      </trkpt>
      <trkpt lat="45.76443" lon="4.62688">
        <ele>675.8</ele>
        <time>2021-09-27T12:34:23.000Z</time>
      </trkpt>
      <trkpt lat="45.76442" lon="4.62689">
        <ele>676.2</ele>
        <time>2021-09-27T12:34:24.000Z</time>
      </trkpt>
      <trkpt lat="45.76441" lon="4.62691">
        <ele>676.4</ele>
        <time>2021-09-27T12:34:25.000Z</time>
      </trkpt>
      <trkpt lat="45.7644" lon="4.62692">
        <ele>676.4</ele>
        <time>2021-09-27T12:34:26.000Z</time>
      </trkpt>
      <trkpt lat="45.76439" lon="4.62694">
        <ele>676.6</ele>
        <time>2021-09-27T12:34:27.000Z</time>
      </trkpt>
      <trkpt lat="45.76438" lon="4.62695">
        <ele>677</ele>
        <time>2021-09-27T12:34:29.000Z</time>
      </trkpt>
      <trkpt lat="45.76436" lon="4.62697">
        <ele>677.2</ele>
        <time>2021-09-27T12:34:30.000Z</time>
      </trkpt>
      <trkpt lat="45.76435" lon="4.62699">
        <ele>677.6</ele>
        <time>2021-09-27T12:34:31.000Z</time>
      </trkpt>
      <trkpt lat="45.76434" lon="4.62701">
        <ele>677.8</ele>
        <time>2021-09-27T12:34:32.000Z</time>
      </trkpt>
      <trkpt lat="45.76433" lon="4.62702">
        <ele>678</ele>
        <time>2021-09-27T12:34:33.000Z</time>
      </trkpt>
      <trkpt lat="45.76431" lon="4.62704">
        <ele>678.4</ele>
        <time>2021-09-27T12:34:34.000Z</time>
      </trkpt>
      <trkpt lat="45.76429" lon="4.62705">
        <ele>678.6</ele>
        <time>2021-09-27T12:34:35.000Z</time>
      </trkpt>
      <trkpt lat="45.76428" lon="4.62706">
        <ele>678.6</ele>
        <time>2021-09-27T12:34:36.000Z</time>
      </trkpt>
      <trkpt lat="45.76426" lon="4.62707">
        <ele>679</ele>
        <time>2021-09-27T12:34:37.000Z</time>
      </trkpt>
      <trkpt lat="45.76425" lon="4.62708">
        <ele>679.2</ele>
        <time>2021-09-27T12:34:38.000Z</time>
      </trkpt>
      <trkpt lat="45.76423" lon="4.62708">
        <ele>679.4</ele>
        <time>2021-09-27T12:34:39.000Z</time>
      </trkpt>
      <trkpt lat="45.76421" lon="4.62708">
        <ele>679.8</ele>
        <time>2021-09-27T12:34:40.000Z</time>
      </trkpt>
      <trkpt lat="45.7642" lon="4.6271">
        <ele>680</ele>
        <time>2021-09-27T12:34:41.000Z</time>
      </trkpt>
      <trkpt lat="45.76419" lon="4.62712">
        <ele>680.4</ele>
        <time>2021-09-27T12:34:42.000Z</time>
      </trkpt>
      <trkpt lat="45.76419" lon="4.62714">
        <ele>680.8</ele>
        <time>2021-09-27T12:34:43.000Z</time>
      </trkpt>
      <trkpt lat="45.76418" lon="4.62715">
        <ele>681</ele>
        <time>2021-09-27T12:34:44.000Z</time>
      </trkpt>
      <trkpt lat="45.76417" lon="4.62716">
        <ele>681.4</ele>
        <time>2021-09-27T12:34:45.000Z</time>
      </trkpt>
      <trkpt lat="45.76416" lon="4.62718">
        <ele>681.8</ele>
        <time>2021-09-27T12:34:46.000Z</time>
      </trkpt>
      <trkpt lat="45.76416" lon="4.6272">
        <ele>682</ele>
        <time>2021-09-27T12:34:47.000Z</time>
      </trkpt>
      <trkpt lat="45.76415" lon="4.62721">
        <ele>682.2</ele>
        <time>2021-09-27T12:34:48.000Z</time>
      </trkpt>
      <trkpt lat="45.76415" lon="4.62721">
        <ele>683</ele>
        <time>2021-09-27T12:34:52.000Z</time>
      </trkpt>
      <trkpt lat="45.76413" lon="4.62731">
        <ele>683.6</ele>
        <time>2021-09-27T12:38:54.000Z</time>
      </trkpt>
      <trkpt lat="45.76412" lon="4.62733">
        <ele>683.6</ele>
        <time>2021-09-27T12:38:55.000Z</time>
      </trkpt>
      <trkpt lat="45.76411" lon="4.62735">
        <ele>683.6</ele>
        <time>2021-09-27T12:38:56.000Z</time>
      </trkpt>
      <trkpt lat="45.76409" lon="4.6274">
        <ele>683.8</ele>
        <time>2021-09-27T12:38:58.000Z</time>
      </trkpt>
      <trkpt lat="45.76408" lon="4.62742">
        <ele>683.8</ele>
        <time>2021-09-27T12:38:59.000Z</time>
      </trkpt>
      <trkpt lat="45.76408" lon="4.62744">
        <ele>684</ele>
        <time>2021-09-27T12:39:00.000Z</time>
      </trkpt>
      <trkpt lat="45.76407" lon="4.62746">
        <ele>684.2</ele>
        <time>2021-09-27T12:39:01.000Z</time>
      </trkpt>
      <trkpt lat="45.76406" lon="4.62751">
        <ele>684.6</ele>
        <time>2021-09-27T12:39:03.000Z</time>
      </trkpt>
      <trkpt lat="45.76406" lon="4.62752">
        <ele>684.8</ele>
        <time>2021-09-27T12:39:04.000Z</time>
      </trkpt>
      <trkpt lat="45.76406" lon="4.62753">
        <ele>684.8</ele>
        <time>2021-09-27T12:39:05.000Z</time>
      </trkpt>
      <trkpt lat="45.76405" lon="4.62755">
        <ele>685.2</ele>
        <time>2021-09-27T12:39:06.000Z</time>
      </trkpt>
      <trkpt lat="45.76405" lon="4.62757">
        <ele>685.4</ele>
        <time>2021-09-27T12:39:07.000Z</time>
      </trkpt>
      <trkpt lat="45.76405" lon="4.62758">
        <ele>685.8</ele>
        <time>2021-09-27T12:39:08.000Z</time>
      </trkpt>
      <trkpt lat="45.76405" lon="4.62761">
        <ele>686</ele>
        <time>2021-09-27T12:39:09.000Z</time>
      </trkpt>
      <trkpt lat="45.76404" lon="4.62765">
        <ele>686.2</ele>
        <time>2021-09-27T12:39:11.000Z</time>
      </trkpt>
      <trkpt lat="45.76404" lon="4.62766">
        <ele>686.4</ele>
        <time>2021-09-27T12:39:12.000Z</time>
      </trkpt>
      <trkpt lat="45.76403" lon="4.62767">
        <ele>686.6</ele>
        <time>2021-09-27T12:39:13.000Z</time>
      </trkpt>
      <trkpt lat="45.76402" lon="4.62768">
        <ele>686.8</ele>
        <time>2021-09-27T12:39:14.000Z</time>
      </trkpt>
      <trkpt lat="45.76401" lon="4.6277">
        <ele>687</ele>
        <time>2021-09-27T12:39:15.000Z</time>
      </trkpt>
      <trkpt lat="45.76401" lon="4.62771">
        <ele>687.2</ele>
        <time>2021-09-27T12:39:16.000Z</time>
      </trkpt>
      <trkpt lat="45.76401" lon="4.62774">
        <ele>687.2</ele>
        <time>2021-09-27T12:39:17.000Z</time>
      </trkpt>
      <trkpt lat="45.764" lon="4.62775">
        <ele>687.4</ele>
        <time>2021-09-27T12:39:18.000Z</time>
      </trkpt>
      <trkpt lat="45.76399" lon="4.62776">
        <ele>687.4</ele>
        <time>2021-09-27T12:39:19.000Z</time>
      </trkpt>
      <trkpt lat="45.76398" lon="4.62776">
        <ele>687.8</ele>
        <time>2021-09-27T12:39:20.000Z</time>
      </trkpt>
      <trkpt lat="45.76397" lon="4.62777">
        <ele>688</ele>
        <time>2021-09-27T12:39:21.000Z</time>
      </trkpt>
      <trkpt lat="45.76396" lon="4.62779">
        <ele>688.2</ele>
        <time>2021-09-27T12:39:22.000Z</time>
      </trkpt>
      <trkpt lat="45.76396" lon="4.62781">
        <ele>688.4</ele>
        <time>2021-09-27T12:39:23.000Z</time>
      </trkpt>
      <trkpt lat="45.76395" lon="4.62781">
        <ele>688.6</ele>
        <time>2021-09-27T12:39:24.000Z</time>
      </trkpt>
      <trkpt lat="45.76394" lon="4.62782">
        <ele>688.8</ele>
        <time>2021-09-27T12:39:25.000Z</time>
      </trkpt>
      <trkpt lat="45.76393" lon="4.62782">
        <ele>689</ele>
        <time>2021-09-27T12:39:26.000Z</time>
      </trkpt>
      <trkpt lat="45.76392" lon="4.62782">
        <ele>689.2</ele>
        <time>2021-09-27T12:39:27.000Z</time>
      </trkpt>
      <trkpt lat="45.76392" lon="4.62783">
        <ele>689.4</ele>
        <time>2021-09-27T12:39:28.000Z</time>
      </trkpt>
      <trkpt lat="45.76391" lon="4.62784">
        <ele>689.6</ele>
        <time>2021-09-27T12:39:29.000Z</time>
      </trkpt>
      <trkpt lat="45.7639" lon="4.62785">
        <ele>689.6</ele>
        <time>2021-09-27T12:39:30.000Z</time>
      </trkpt>
      <trkpt lat="45.76389" lon="4.62785">
        <ele>690</ele>
        <time>2021-09-27T12:39:31.000Z</time>
      </trkpt>
      <trkpt lat="45.76389" lon="4.62786">
        <ele>690.2</ele>
        <time>2021-09-27T12:39:32.000Z</time>
      </trkpt>
      <trkpt lat="45.76389" lon="4.62787">
        <ele>690.4</ele>
        <time>2021-09-27T12:39:33.000Z</time>
      </trkpt>
      <trkpt lat="45.76388" lon="4.62788">
        <ele>690.6</ele>
        <time>2021-09-27T12:39:35.000Z</time>
      </trkpt>
      <trkpt lat="45.76387" lon="4.62789">
        <ele>691</ele>
        <time>2021-09-27T12:39:36.000Z</time>
      </trkpt>
      <trkpt lat="45.76386" lon="4.6279">
        <ele>691.2</ele>
        <time>2021-09-27T12:39:37.000Z</time>
      </trkpt>
      <trkpt lat="45.76385" lon="4.62792">
        <ele>691.4</ele>
        <time>2021-09-27T12:39:38.000Z</time>
      </trkpt>
      <trkpt lat="45.76384" lon="4.62793">
        <ele>691.6</ele>
        <time>2021-09-27T12:39:39.000Z</time>
      </trkpt>
      <trkpt lat="45.76383" lon="4.62794">
        <ele>691.8</ele>
        <time>2021-09-27T12:39:40.000Z</time>
      </trkpt>
      <trkpt lat="45.76382" lon="4.62796">
        <ele>692.2</ele>
        <time>2021-09-27T12:39:41.000Z</time>
      </trkpt>
      <trkpt lat="45.76381" lon="4.62797">
        <ele>692.4</ele>
        <time>2021-09-27T12:39:42.000Z</time>
      </trkpt>
      <trkpt lat="45.7638" lon="4.62798">
        <ele>692.8</ele>
        <time>2021-09-27T12:39:43.000Z</time>
      </trkpt>
      <trkpt lat="45.76379" lon="4.62799">
        <ele>693</ele>
        <time>2021-09-27T12:39:44.000Z</time>
      </trkpt>
      <trkpt lat="45.76378" lon="4.628">
        <ele>693.2</ele>
        <time>2021-09-27T12:39:45.000Z</time>
      </trkpt>
      <trkpt lat="45.76377" lon="4.62801">
        <ele>693.4</ele>
        <time>2021-09-27T12:39:46.000Z</time>
      </trkpt>
      <trkpt lat="45.76376" lon="4.62802">
        <ele>693.6</ele>
        <time>2021-09-27T12:39:47.000Z</time>
      </trkpt>
      <trkpt lat="45.76375" lon="4.62802">
        <ele>694</ele>
        <time>2021-09-27T12:39:48.000Z</time>
      </trkpt>
      <trkpt lat="45.76374" lon="4.62803">
        <ele>694.2</ele>
        <time>2021-09-27T12:39:49.000Z</time>
      </trkpt>
      <trkpt lat="45.76375" lon="4.62803">
        <ele>694.4</ele>
        <time>2021-09-27T12:39:50.000Z</time>
      </trkpt>
      <trkpt lat="45.76374" lon="4.62804">
        <ele>694.6</ele>
        <time>2021-09-27T12:39:51.000Z</time>
      </trkpt>
      <trkpt lat="45.76373" lon="4.62804">
        <ele>694.8</ele>
        <time>2021-09-27T12:39:52.000Z</time>
      </trkpt>
      <trkpt lat="45.76372" lon="4.62805">
        <ele>695</ele>
        <time>2021-09-27T12:39:53.000Z</time>
      </trkpt>
      <trkpt lat="45.7637" lon="4.62806">
        <ele>695.2</ele>
        <time>2021-09-27T12:39:54.000Z</time>
      </trkpt>
      <trkpt lat="45.76369" lon="4.62807">
        <ele>695.4</ele>
        <time>2021-09-27T12:39:55.000Z</time>
      </trkpt>
      <trkpt lat="45.76368" lon="4.62807">
        <ele>695.6</ele>
        <time>2021-09-27T12:39:56.000Z</time>
      </trkpt>
      <trkpt lat="45.76366" lon="4.62808">
        <ele>695.6</ele>
        <time>2021-09-27T12:39:57.000Z</time>
      </trkpt>
      <trkpt lat="45.76365" lon="4.62808">
        <ele>696</ele>
        <time>2021-09-27T12:39:59.000Z</time>
      </trkpt>
      <trkpt lat="45.76363" lon="4.62808">
        <ele>696.4</ele>
        <time>2021-09-27T12:40:00.000Z</time>
      </trkpt>
      <trkpt lat="45.76362" lon="4.62807">
        <ele>696.6</ele>
        <time>2021-09-27T12:40:01.000Z</time>
      </trkpt>
      <trkpt lat="45.76361" lon="4.62806">
        <ele>696.8</ele>
        <time>2021-09-27T12:40:02.000Z</time>
      </trkpt>
      <trkpt lat="45.76359" lon="4.62806">
        <ele>697</ele>
        <time>2021-09-27T12:40:03.000Z</time>
      </trkpt>
      <trkpt lat="45.76358" lon="4.62806">
        <ele>697.2</ele>
        <time>2021-09-27T12:40:04.000Z</time>
      </trkpt>
      <trkpt lat="45.76356" lon="4.62805">
        <ele>697.4</ele>
        <time>2021-09-27T12:40:05.000Z</time>
      </trkpt>
      <trkpt lat="45.76355" lon="4.62804">
        <ele>697.6</ele>
        <time>2021-09-27T12:40:06.000Z</time>
      </trkpt>
      <trkpt lat="45.76354" lon="4.62804">
        <ele>697.8</ele>
        <time>2021-09-27T12:40:07.000Z</time>
      </trkpt>
      <trkpt lat="45.76353" lon="4.62803">
        <ele>698</ele>
        <time>2021-09-27T12:40:08.000Z</time>
      </trkpt>
      <trkpt lat="45.76353" lon="4.62802">
        <ele>698.2</ele>
        <time>2021-09-27T12:40:09.000Z</time>
      </trkpt>
      <trkpt lat="45.76352" lon="4.628">
        <ele>698.2</ele>
        <time>2021-09-27T12:40:10.000Z</time>
      </trkpt>
      <trkpt lat="45.76351" lon="4.62799">
        <ele>698.6</ele>
        <time>2021-09-27T12:40:11.000Z</time>
      </trkpt>
      <trkpt lat="45.7635" lon="4.62798">
        <ele>698.8</ele>
        <time>2021-09-27T12:40:12.000Z</time>
      </trkpt>
      <trkpt lat="45.76349" lon="4.62797">
        <ele>699</ele>
        <time>2021-09-27T12:40:13.000Z</time>
      </trkpt>
      <trkpt lat="45.76348" lon="4.62796">
        <ele>699.2</ele>
        <time>2021-09-27T12:40:14.000Z</time>
      </trkpt>
      <trkpt lat="45.76348" lon="4.62794">
        <ele>699.4</ele>
        <time>2021-09-27T12:40:15.000Z</time>
      </trkpt>
      <trkpt lat="45.76348" lon="4.62793">
        <ele>699.6</ele>
        <time>2021-09-27T12:40:16.000Z</time>
      </trkpt>
      <trkpt lat="45.76348" lon="4.62791">
        <ele>699.8</ele>
        <time>2021-09-27T12:40:17.000Z</time>
      </trkpt>
      <trkpt lat="45.76349" lon="4.6279">
        <ele>700</ele>
        <time>2021-09-27T12:40:18.000Z</time>
      </trkpt>
      <trkpt lat="45.7635" lon="4.62789">
        <ele>700.4</ele>
        <time>2021-09-27T12:40:19.000Z</time>
      </trkpt>
      <trkpt lat="45.7635" lon="4.62787">
        <ele>700.6</ele>
        <time>2021-09-27T12:40:20.000Z</time>
      </trkpt>
      <trkpt lat="45.76349" lon="4.62785">
        <ele>700.6</ele>
        <time>2021-09-27T12:40:21.000Z</time>
      </trkpt>
      <trkpt lat="45.76349" lon="4.62784">
        <ele>700.8</ele>
        <time>2021-09-27T12:40:22.000Z</time>
      </trkpt>
      <trkpt lat="45.7635" lon="4.62781">
        <ele>701</ele>
        <time>2021-09-27T12:40:23.000Z</time>
      </trkpt>
      <trkpt lat="45.76349" lon="4.6278">
        <ele>701.2</ele>
        <time>2021-09-27T12:40:24.000Z</time>
      </trkpt>
      <trkpt lat="45.76348" lon="4.62779">
        <ele>701.6</ele>
        <time>2021-09-27T12:40:25.000Z</time>
      </trkpt>
      <trkpt lat="45.76347" lon="4.62778">
        <ele>701.8</ele>
        <time>2021-09-27T12:40:26.000Z</time>
      </trkpt>
      <trkpt lat="45.76347" lon="4.62776">
        <ele>702</ele>
        <time>2021-09-27T12:40:27.000Z</time>
      </trkpt>
      <trkpt lat="45.76346" lon="4.62775">
        <ele>702.4</ele>
        <time>2021-09-27T12:40:28.000Z</time>
      </trkpt>
      <trkpt lat="45.76346" lon="4.62774">
        <ele>702.6</ele>
        <time>2021-09-27T12:40:29.000Z</time>
      </trkpt>
      <trkpt lat="45.76346" lon="4.62772">
        <ele>702.8</ele>
        <time>2021-09-27T12:40:30.000Z</time>
      </trkpt>
      <trkpt lat="45.76345" lon="4.62771">
        <ele>703.2</ele>
        <time>2021-09-27T12:40:31.000Z</time>
      </trkpt>
      <trkpt lat="45.76345" lon="4.6277">
        <ele>703.4</ele>
        <time>2021-09-27T12:40:32.000Z</time>
      </trkpt>
      <trkpt lat="45.76344" lon="4.6277">
        <ele>703.6</ele>
        <time>2021-09-27T12:40:33.000Z</time>
      </trkpt>
      <trkpt lat="45.76344" lon="4.62771">
        <ele>704</ele>
        <time>2021-09-27T12:40:34.000Z</time>
      </trkpt>
      <trkpt lat="45.76343" lon="4.62772">
        <ele>704.2</ele>
        <time>2021-09-27T12:40:35.000Z</time>
      </trkpt>
      <trkpt lat="45.76343" lon="4.62773">
        <ele>704.4</ele>
        <time>2021-09-27T12:40:36.000Z</time>
      </trkpt>
      <trkpt lat="45.76342" lon="4.62774">
        <ele>704.6</ele>
        <time>2021-09-27T12:40:37.000Z</time>
      </trkpt>
      <trkpt lat="45.76341" lon="4.62776">
        <ele>704.6</ele>
        <time>2021-09-27T12:40:38.000Z</time>
      </trkpt>
      <trkpt lat="45.76341" lon="4.62777">
        <ele>704.6</ele>
        <time>2021-09-27T12:40:39.000Z</time>
      </trkpt>
      <trkpt lat="45.76341" lon="4.62778">
        <ele>704.8</ele>
        <time>2021-09-27T12:40:41.000Z</time>
      </trkpt>
      <trkpt lat="45.76342" lon="4.6278">
        <ele>704.8</ele>
        <time>2021-09-27T12:40:42.000Z</time>
      </trkpt>
      <trkpt lat="45.76342" lon="4.62781">
        <ele>704.8</ele>
        <time>2021-09-27T12:40:43.000Z</time>
      </trkpt>
      <trkpt lat="45.76342" lon="4.62782">
        <ele>704.8</ele>
        <time>2021-09-27T12:40:44.000Z</time>
      </trkpt>
      <trkpt lat="45.76342" lon="4.62783">
        <ele>704.8</ele>
        <time>2021-09-27T12:40:45.000Z</time>
      </trkpt>
      <trkpt lat="45.76341" lon="4.62785">
        <ele>705</ele>
        <time>2021-09-27T12:40:46.000Z</time>
      </trkpt>
      <trkpt lat="45.76341" lon="4.62786">
        <ele>705</ele>
        <time>2021-09-27T12:40:47.000Z</time>
      </trkpt>
      <trkpt lat="45.7634" lon="4.62787">
        <ele>705.2</ele>
        <time>2021-09-27T12:40:48.000Z</time>
      </trkpt>
      <trkpt lat="45.7634" lon="4.62788">
        <ele>705.2</ele>
        <time>2021-09-27T12:40:49.000Z</time>
      </trkpt>
      <trkpt lat="45.76341" lon="4.62789">
        <ele>705.2</ele>
        <time>2021-09-27T12:40:50.000Z</time>
      </trkpt>
      <trkpt lat="45.76341" lon="4.6279">
        <ele>705.4</ele>
        <time>2021-09-27T12:40:51.000Z</time>
      </trkpt>
      <trkpt lat="45.76331" lon="4.62813">
        <ele>706.4</ele>
        <time>2021-09-27T12:42:24.000Z</time>
      </trkpt>
      <trkpt lat="45.7633" lon="4.62815">
        <ele>706.4</ele>
        <time>2021-09-27T12:42:25.000Z</time>
      </trkpt>
      <trkpt lat="45.76329" lon="4.62816">
        <ele>706.4</ele>
        <time>2021-09-27T12:42:26.000Z</time>
      </trkpt>
      <trkpt lat="45.76327" lon="4.6282">
        <ele>706.6</ele>
        <time>2021-09-27T12:42:28.000Z</time>
      </trkpt>
      <trkpt lat="45.76326" lon="4.62824">
        <ele>706.6</ele>
        <time>2021-09-27T12:42:30.000Z</time>
      </trkpt>
      <trkpt lat="45.76326" lon="4.62826">
        <ele>706.8</ele>
        <time>2021-09-27T12:42:31.000Z</time>
      </trkpt>
      <trkpt lat="45.76326" lon="4.62829">
        <ele>706.8</ele>
        <time>2021-09-27T12:42:32.000Z</time>
      </trkpt>
      <trkpt lat="45.76326" lon="4.62831">
        <ele>706.8</ele>
        <time>2021-09-27T12:42:33.000Z</time>
      </trkpt>
      <trkpt lat="45.76322" lon="4.62836">
        <ele>707.4</ele>
        <time>2021-09-27T12:42:37.000Z</time>
      </trkpt>
      <trkpt lat="45.76321" lon="4.62838">
        <ele>707.4</ele>
        <time>2021-09-27T12:42:38.000Z</time>
      </trkpt>
      <trkpt lat="45.76321" lon="4.62839">
        <ele>707.4</ele>
        <time>2021-09-27T12:42:39.000Z</time>
      </trkpt>
      <trkpt lat="45.76321" lon="4.62841">
        <ele>707.6</ele>
        <time>2021-09-27T12:42:40.000Z</time>
      </trkpt>
      <trkpt lat="45.76321" lon="4.62843">
        <ele>707.6</ele>
        <time>2021-09-27T12:42:41.000Z</time>
      </trkpt>
      <trkpt lat="45.76321" lon="4.62844">
        <ele>707.8</ele>
        <time>2021-09-27T12:42:42.000Z</time>
      </trkpt>
      <trkpt lat="45.7632" lon="4.62846">
        <ele>707.8</ele>
        <time>2021-09-27T12:42:43.000Z</time>
      </trkpt>
      <trkpt lat="45.76319" lon="4.62847">
        <ele>708</ele>
        <time>2021-09-27T12:42:44.000Z</time>
      </trkpt>
      <trkpt lat="45.76319" lon="4.62848">
        <ele>708</ele>
        <time>2021-09-27T12:42:45.000Z</time>
      </trkpt>
      <trkpt lat="45.76318" lon="4.6285">
        <ele>708</ele>
        <time>2021-09-27T12:42:46.000Z</time>
      </trkpt>
      <trkpt lat="45.76316" lon="4.62851">
        <ele>708</ele>
        <time>2021-09-27T12:42:47.000Z</time>
      </trkpt>
      <trkpt lat="45.76313" lon="4.62855">
        <ele>708.4</ele>
        <time>2021-09-27T12:42:50.000Z</time>
      </trkpt>
      <trkpt lat="45.76312" lon="4.62857">
        <ele>708.6</ele>
        <time>2021-09-27T12:42:51.000Z</time>
      </trkpt>
      <trkpt lat="45.76309" lon="4.62862">
        <ele>708.8</ele>
        <time>2021-09-27T12:42:54.000Z</time>
      </trkpt>
      <trkpt lat="45.76308" lon="4.62864">
        <ele>709</ele>
        <time>2021-09-27T12:42:55.000Z</time>
      </trkpt>
      <trkpt lat="45.76307" lon="4.62866">
        <ele>709.2</ele>
        <time>2021-09-27T12:42:56.000Z</time>
      </trkpt>
      <trkpt lat="45.76304" lon="4.62874">
        <ele>709.4</ele>
        <time>2021-09-27T12:43:00.000Z</time>
      </trkpt>
      <trkpt lat="45.76301" lon="4.62877">
        <ele>709.6</ele>
        <time>2021-09-27T12:43:02.000Z</time>
      </trkpt>
      <trkpt lat="45.763" lon="4.62877">
        <ele>709.6</ele>
        <time>2021-09-27T12:43:03.000Z</time>
      </trkpt>
      <trkpt lat="45.76299" lon="4.62877">
        <ele>709.8</ele>
        <time>2021-09-27T12:43:04.000Z</time>
      </trkpt>
      <trkpt lat="45.76297" lon="4.62878">
        <ele>709.8</ele>
        <time>2021-09-27T12:43:05.000Z</time>
      </trkpt>
      <trkpt lat="45.76296" lon="4.62879">
        <ele>710</ele>
        <time>2021-09-27T12:43:06.000Z</time>
      </trkpt>
      <trkpt lat="45.76295" lon="4.62879">
        <ele>710</ele>
        <time>2021-09-27T12:43:07.000Z</time>
      </trkpt>
      <trkpt lat="45.76293" lon="4.6288">
        <ele>710</ele>
        <time>2021-09-27T12:43:08.000Z</time>
      </trkpt>
      <trkpt lat="45.76292" lon="4.6288">
        <ele>710</ele>
        <time>2021-09-27T12:43:09.000Z</time>
      </trkpt>
      <trkpt lat="45.76291" lon="4.6288">
        <ele>710.2</ele>
        <time>2021-09-27T12:43:11.000Z</time>
      </trkpt>
      <trkpt lat="45.76289" lon="4.6288">
        <ele>710.2</ele>
        <time>2021-09-27T12:43:12.000Z</time>
      </trkpt>
      <trkpt lat="45.76285" lon="4.62882">
        <ele>710.6</ele>
        <time>2021-09-27T12:43:15.000Z</time>
      </trkpt>
      <trkpt lat="45.76283" lon="4.62882">
        <ele>710.8</ele>
        <time>2021-09-27T12:43:17.000Z</time>
      </trkpt>
      <trkpt lat="45.76281" lon="4.6288">
        <ele>710.8</ele>
        <time>2021-09-27T12:43:19.000Z</time>
      </trkpt>
      <trkpt lat="45.7628" lon="4.62878">
        <ele>711</ele>
        <time>2021-09-27T12:43:21.000Z</time>
      </trkpt>
      <trkpt lat="45.76279" lon="4.62877">
        <ele>711</ele>
        <time>2021-09-27T12:43:22.000Z</time>
      </trkpt>
      <trkpt lat="45.76279" lon="4.62876">
        <ele>711</ele>
        <time>2021-09-27T12:43:23.000Z</time>
      </trkpt>
      <trkpt lat="45.76278" lon="4.62875">
        <ele>711</ele>
        <time>2021-09-27T12:43:24.000Z</time>
      </trkpt>
      <trkpt lat="45.76277" lon="4.62874">
        <ele>711</ele>
        <time>2021-09-27T12:43:25.000Z</time>
      </trkpt>
      <trkpt lat="45.76277" lon="4.62873">
        <ele>711.2</ele>
        <time>2021-09-27T12:43:26.000Z</time>
      </trkpt>
      <trkpt lat="45.7627" lon="4.62867">
        <ele>711.4</ele>
        <time>2021-09-27T12:43:32.000Z</time>
      </trkpt>
      <trkpt lat="45.76268" lon="4.62867">
        <ele>711.4</ele>
        <time>2021-09-27T12:43:34.000Z</time>
      </trkpt>
      <trkpt lat="45.76267" lon="4.62867">
        <ele>711.4</ele>
        <time>2021-09-27T12:43:35.000Z</time>
      </trkpt>
      <trkpt lat="45.76265" lon="4.62866">
        <ele>711.6</ele>
        <time>2021-09-27T12:43:37.000Z</time>
      </trkpt>
      <trkpt lat="45.76264" lon="4.62866">
        <ele>711.6</ele>
        <time>2021-09-27T12:43:38.000Z</time>
      </trkpt>
      <trkpt lat="45.76263" lon="4.62866">
        <ele>711.6</ele>
        <time>2021-09-27T12:43:39.000Z</time>
      </trkpt>
      <trkpt lat="45.76261" lon="4.62866">
        <ele>711.8</ele>
        <time>2021-09-27T12:43:41.000Z</time>
      </trkpt>
      <trkpt lat="45.7626" lon="4.62866">
        <ele>711.8</ele>
        <time>2021-09-27T12:43:42.000Z</time>
      </trkpt>
      <trkpt lat="45.76259" lon="4.62866">
        <ele>711.8</ele>
        <time>2021-09-27T12:43:43.000Z</time>
      </trkpt>
      <trkpt lat="45.76258" lon="4.62866">
        <ele>711.8</ele>
        <time>2021-09-27T12:43:44.000Z</time>
      </trkpt>
      <trkpt lat="45.76257" lon="4.62866">
        <ele>711.8</ele>
        <time>2021-09-27T12:43:45.000Z</time>
      </trkpt>
      <trkpt lat="45.76254" lon="4.62865">
        <ele>712</ele>
        <time>2021-09-27T12:43:47.000Z</time>
      </trkpt>
      <trkpt lat="45.76253" lon="4.62865">
        <ele>712</ele>
        <time>2021-09-27T12:43:48.000Z</time>
      </trkpt>
      <trkpt lat="45.7625" lon="4.62865">
        <ele>712</ele>
        <time>2021-09-27T12:43:50.000Z</time>
      </trkpt>
      <trkpt lat="45.76248" lon="4.62864">
        <ele>712</ele>
        <time>2021-09-27T12:43:51.000Z</time>
      </trkpt>
      <trkpt lat="45.76247" lon="4.62864">
        <ele>712</ele>
        <time>2021-09-27T12:43:52.000Z</time>
      </trkpt>
      <trkpt lat="45.76244" lon="4.62864">
        <ele>712.2</ele>
        <time>2021-09-27T12:43:54.000Z</time>
      </trkpt>
      <trkpt lat="45.76229" lon="4.62865">
        <ele>712.6</ele>
        <time>2021-09-27T12:44:03.000Z</time>
      </trkpt>
      <trkpt lat="45.76211" lon="4.62864">
        <ele>713.2</ele>
        <time>2021-09-27T12:44:12.000Z</time>
      </trkpt>
      <trkpt lat="45.76204" lon="4.62863">
        <ele>713.4</ele>
        <time>2021-09-27T12:44:16.000Z</time>
      </trkpt>
      <trkpt lat="45.76202" lon="4.62862">
        <ele>713.6</ele>
        <time>2021-09-27T12:44:17.000Z</time>
      </trkpt>
      <trkpt lat="45.762" lon="4.6286">
        <ele>713.6</ele>
        <time>2021-09-27T12:44:18.000Z</time>
      </trkpt>
      <trkpt lat="45.76196" lon="4.62858">
        <ele>713.8</ele>
        <time>2021-09-27T12:44:20.000Z</time>
      </trkpt>
      <trkpt lat="45.76189" lon="4.62854">
        <ele>714</ele>
        <time>2021-09-27T12:44:23.000Z</time>
      </trkpt>
      <trkpt lat="45.76183" lon="4.62847">
        <ele>714.2</ele>
        <time>2021-09-27T12:44:26.000Z</time>
      </trkpt>
      <trkpt lat="45.7618" lon="4.62841">
        <ele>714.2</ele>
        <time>2021-09-27T12:44:28.000Z</time>
      </trkpt>
      <trkpt lat="45.76179" lon="4.62838">
        <ele>714.2</ele>
        <time>2021-09-27T12:44:29.000Z</time>
      </trkpt>
      <trkpt lat="45.76173" lon="4.62826">
        <ele>714.4</ele>
        <time>2021-09-27T12:44:34.000Z</time>
      </trkpt>
      <trkpt lat="45.76172" lon="4.62824">
        <ele>714.4</ele>
        <time>2021-09-27T12:44:35.000Z</time>
      </trkpt>
      <trkpt lat="45.76171" lon="4.62821">
        <ele>714.4</ele>
        <time>2021-09-27T12:44:36.000Z</time>
      </trkpt>
      <trkpt lat="45.7617" lon="4.62819">
        <ele>714.6</ele>
        <time>2021-09-27T12:44:37.000Z</time>
      </trkpt>
      <trkpt lat="45.76169" lon="4.62816">
        <ele>714.6</ele>
        <time>2021-09-27T12:44:38.000Z</time>
      </trkpt>
      <trkpt lat="45.76168" lon="4.62813">
        <ele>714.6</ele>
        <time>2021-09-27T12:44:39.000Z</time>
      </trkpt>
      <trkpt lat="45.76167" lon="4.62811">
        <ele>714.6</ele>
        <time>2021-09-27T12:44:40.000Z</time>
      </trkpt>
      <trkpt lat="45.76166" lon="4.62809">
        <ele>715</ele>
        <time>2021-09-27T12:44:41.000Z</time>
      </trkpt>
      <trkpt lat="45.76164" lon="4.62807">
        <ele>715</ele>
        <time>2021-09-27T12:44:42.000Z</time>
      </trkpt>
      <trkpt lat="45.76163" lon="4.62804">
        <ele>715</ele>
        <time>2021-09-27T12:44:43.000Z</time>
      </trkpt>
      <trkpt lat="45.76162" lon="4.62802">
        <ele>715</ele>
        <time>2021-09-27T12:44:44.000Z</time>
      </trkpt>
      <trkpt lat="45.7616" lon="4.62798">
        <ele>715.2</ele>
        <time>2021-09-27T12:44:46.000Z</time>
      </trkpt>
      <trkpt lat="45.76159" lon="4.62796">
        <ele>715.2</ele>
        <time>2021-09-27T12:44:47.000Z</time>
      </trkpt>
      <trkpt lat="45.76158" lon="4.62794">
        <ele>715.2</ele>
        <time>2021-09-27T12:44:48.000Z</time>
      </trkpt>
      <trkpt lat="45.76157" lon="4.62792">
        <ele>715.4</ele>
        <time>2021-09-27T12:44:49.000Z</time>
      </trkpt>
      <trkpt lat="45.76156" lon="4.62789">
        <ele>715.4</ele>
        <time>2021-09-27T12:44:50.000Z</time>
      </trkpt>
      <trkpt lat="45.76156" lon="4.62787">
        <ele>715.4</ele>
        <time>2021-09-27T12:44:51.000Z</time>
      </trkpt>
      <trkpt lat="45.76153" lon="4.62781">
        <ele>715.6</ele>
        <time>2021-09-27T12:44:54.000Z</time>
      </trkpt>
      <trkpt lat="45.76144" lon="4.62768">
        <ele>716.4</ele>
        <time>2021-09-27T12:45:01.000Z</time>
      </trkpt>
      <trkpt lat="45.76142" lon="4.62766">
        <ele>716.4</ele>
        <time>2021-09-27T12:45:02.000Z</time>
      </trkpt>
      <trkpt lat="45.76133" lon="4.62758">
        <ele>717</ele>
        <time>2021-09-27T12:45:08.000Z</time>
      </trkpt>
      <trkpt lat="45.76132" lon="4.62757">
        <ele>717.2</ele>
        <time>2021-09-27T12:45:09.000Z</time>
      </trkpt>
      <trkpt lat="45.7613" lon="4.62756">
        <ele>717.2</ele>
        <time>2021-09-27T12:45:10.000Z</time>
      </trkpt>
      <trkpt lat="45.76128" lon="4.62755">
        <ele>717.2</ele>
        <time>2021-09-27T12:45:11.000Z</time>
      </trkpt>
      <trkpt lat="45.76123" lon="4.62754">
        <ele>717.4</ele>
        <time>2021-09-27T12:45:14.000Z</time>
      </trkpt>
      <trkpt lat="45.76117" lon="4.62754">
        <ele>717.8</ele>
        <time>2021-09-27T12:45:17.000Z</time>
      </trkpt>
      <trkpt lat="45.76104" lon="4.62759">
        <ele>718.6</ele>
        <time>2021-09-27T12:45:24.000Z</time>
      </trkpt>
      <trkpt lat="45.76102" lon="4.62761">
        <ele>718.6</ele>
        <time>2021-09-27T12:45:25.000Z</time>
      </trkpt>
      <trkpt lat="45.76101" lon="4.62762">
        <ele>718.6</ele>
        <time>2021-09-27T12:45:26.000Z</time>
      </trkpt>
      <trkpt lat="45.761" lon="4.62764">
        <ele>718.8</ele>
        <time>2021-09-27T12:45:27.000Z</time>
      </trkpt>
      <trkpt lat="45.76098" lon="4.62766">
        <ele>718.8</ele>
        <time>2021-09-27T12:45:28.000Z</time>
      </trkpt>
      <trkpt lat="45.76095" lon="4.62777">
        <ele>719</ele>
        <time>2021-09-27T12:45:32.000Z</time>
      </trkpt>
      <trkpt lat="45.7609" lon="4.62789">
        <ele>719.4</ele>
        <time>2021-09-27T12:45:37.000Z</time>
      </trkpt>
      <trkpt lat="45.7609" lon="4.62791">
        <ele>719.4</ele>
        <time>2021-09-27T12:45:38.000Z</time>
      </trkpt>
      <trkpt lat="45.76087" lon="4.62798">
        <ele>719.8</ele>
        <time>2021-09-27T12:45:41.000Z</time>
      </trkpt>
      <trkpt lat="45.76086" lon="4.628">
        <ele>720</ele>
        <time>2021-09-27T12:45:42.000Z</time>
      </trkpt>
      <trkpt lat="45.76082" lon="4.62808">
        <ele>720.4</ele>
        <time>2021-09-27T12:45:46.000Z</time>
      </trkpt>
      <trkpt lat="45.7608" lon="4.62813">
        <ele>720.8</ele>
        <time>2021-09-27T12:45:48.000Z</time>
      </trkpt>
      <trkpt lat="45.76078" lon="4.62815">
        <ele>720.8</ele>
        <time>2021-09-27T12:45:49.000Z</time>
      </trkpt>
      <trkpt lat="45.76077" lon="4.62817">
        <ele>721</ele>
        <time>2021-09-27T12:45:50.000Z</time>
      </trkpt>
      <trkpt lat="45.76076" lon="4.62819">
        <ele>721.2</ele>
        <time>2021-09-27T12:45:51.000Z</time>
      </trkpt>
      <trkpt lat="45.76074" lon="4.62821">
        <ele>721.2</ele>
        <time>2021-09-27T12:45:52.000Z</time>
      </trkpt>
      <trkpt lat="45.76073" lon="4.62823">
        <ele>721.2</ele>
        <time>2021-09-27T12:45:53.000Z</time>
      </trkpt>
      <trkpt lat="45.76071" lon="4.62824">
        <ele>721.4</ele>
        <time>2021-09-27T12:45:54.000Z</time>
      </trkpt>
      <trkpt lat="45.7607" lon="4.62826">
        <ele>721.4</ele>
        <time>2021-09-27T12:45:55.000Z</time>
      </trkpt>
      <trkpt lat="45.76069" lon="4.62827">
        <ele>721.6</ele>
        <time>2021-09-27T12:45:56.000Z</time>
      </trkpt>
      <trkpt lat="45.76067" lon="4.62829">
        <ele>721.6</ele>
        <time>2021-09-27T12:45:57.000Z</time>
      </trkpt>
      <trkpt lat="45.76066" lon="4.6283">
        <ele>721.6</ele>
        <time>2021-09-27T12:45:58.000Z</time>
      </trkpt>
      <trkpt lat="45.76064" lon="4.62832">
        <ele>721.8</ele>
        <time>2021-09-27T12:45:59.000Z</time>
      </trkpt>
      <trkpt lat="45.76063" lon="4.62834">
        <ele>721.8</ele>
        <time>2021-09-27T12:46:00.000Z</time>
      </trkpt>
      <trkpt lat="45.76062" lon="4.62836">
        <ele>722</ele>
        <time>2021-09-27T12:46:01.000Z</time>
      </trkpt>
      <trkpt lat="45.7606" lon="4.62838">
        <ele>722</ele>
        <time>2021-09-27T12:46:02.000Z</time>
      </trkpt>
      <trkpt lat="45.76059" lon="4.6284">
        <ele>722.2</ele>
        <time>2021-09-27T12:46:03.000Z</time>
      </trkpt>
      <trkpt lat="45.76057" lon="4.62842">
        <ele>722.4</ele>
        <time>2021-09-27T12:46:04.000Z</time>
      </trkpt>
      <trkpt lat="45.76056" lon="4.62844">
        <ele>722.6</ele>
        <time>2021-09-27T12:46:05.000Z</time>
      </trkpt>
      <trkpt lat="45.76054" lon="4.62846">
        <ele>722.6</ele>
        <time>2021-09-27T12:46:06.000Z</time>
      </trkpt>
      <trkpt lat="45.76053" lon="4.62848">
        <ele>722.8</ele>
        <time>2021-09-27T12:46:07.000Z</time>
      </trkpt>
      <trkpt lat="45.76051" lon="4.62849">
        <ele>722.8</ele>
        <time>2021-09-27T12:46:08.000Z</time>
      </trkpt>
      <trkpt lat="45.7605" lon="4.6285">
        <ele>723</ele>
        <time>2021-09-27T12:46:09.000Z</time>
      </trkpt>
      <trkpt lat="45.76048" lon="4.62851">
        <ele>723.2</ele>
        <time>2021-09-27T12:46:10.000Z</time>
      </trkpt>
      <trkpt lat="45.76046" lon="4.6285">
        <ele>723.4</ele>
        <time>2021-09-27T12:46:11.000Z</time>
      </trkpt>
      <trkpt lat="45.76045" lon="4.62849">
        <ele>723.4</ele>
        <time>2021-09-27T12:46:12.000Z</time>
      </trkpt>
      <trkpt lat="45.76044" lon="4.62846">
        <ele>723.6</ele>
        <time>2021-09-27T12:46:13.000Z</time>
      </trkpt>
      <trkpt lat="45.76044" lon="4.62844">
        <ele>723.6</ele>
        <time>2021-09-27T12:46:14.000Z</time>
      </trkpt>
      <trkpt lat="45.76044" lon="4.62841">
        <ele>723.6</ele>
        <time>2021-09-27T12:46:15.000Z</time>
      </trkpt>
      <trkpt lat="45.76045" lon="4.62838">
        <ele>723.6</ele>
        <time>2021-09-27T12:46:16.000Z</time>
      </trkpt>
      <trkpt lat="45.76046" lon="4.62836">
        <ele>724</ele>
        <time>2021-09-27T12:46:17.000Z</time>
      </trkpt>
      <trkpt lat="45.76048" lon="4.62835">
        <ele>724.2</ele>
        <time>2021-09-27T12:46:18.000Z</time>
      </trkpt>
      <trkpt lat="45.7605" lon="4.62834">
        <ele>724.4</ele>
        <time>2021-09-27T12:46:19.000Z</time>
      </trkpt>
      <trkpt lat="45.76051" lon="4.62832">
        <ele>724.6</ele>
        <time>2021-09-27T12:46:20.000Z</time>
      </trkpt>
      <trkpt lat="45.76053" lon="4.62831">
        <ele>724.8</ele>
        <time>2021-09-27T12:46:21.000Z</time>
      </trkpt>
      <trkpt lat="45.76054" lon="4.62829">
        <ele>724.8</ele>
        <time>2021-09-27T12:46:22.000Z</time>
      </trkpt>
      <trkpt lat="45.76055" lon="4.62827">
        <ele>725</ele>
        <time>2021-09-27T12:46:23.000Z</time>
      </trkpt>
      <trkpt lat="45.76057" lon="4.62825">
        <ele>725</ele>
        <time>2021-09-27T12:46:24.000Z</time>
      </trkpt>
      <trkpt lat="45.76058" lon="4.62823">
        <ele>725</ele>
        <time>2021-09-27T12:46:25.000Z</time>
      </trkpt>
      <trkpt lat="45.76059" lon="4.62821">
        <ele>725.2</ele>
        <time>2021-09-27T12:46:26.000Z</time>
      </trkpt>
      <trkpt lat="45.7606" lon="4.62819">
        <ele>725.4</ele>
        <time>2021-09-27T12:46:27.000Z</time>
      </trkpt>
      <trkpt lat="45.76061" lon="4.62817">
        <ele>725.4</ele>
        <time>2021-09-27T12:46:28.000Z</time>
      </trkpt>
      <trkpt lat="45.76062" lon="4.62814">
        <ele>725.6</ele>
        <time>2021-09-27T12:46:29.000Z</time>
      </trkpt>
      <trkpt lat="45.76063" lon="4.62812">
        <ele>725.6</ele>
        <time>2021-09-27T12:46:30.000Z</time>
      </trkpt>
      <trkpt lat="45.76064" lon="4.62809">
        <ele>725.8</ele>
        <time>2021-09-27T12:46:31.000Z</time>
      </trkpt>
      <trkpt lat="45.76065" lon="4.62807">
        <ele>725.8</ele>
        <time>2021-09-27T12:46:32.000Z</time>
      </trkpt>
      <trkpt lat="45.76066" lon="4.62804">
        <ele>726</ele>
        <time>2021-09-27T12:46:33.000Z</time>
      </trkpt>
      <trkpt lat="45.76066" lon="4.62802">
        <ele>726</ele>
        <time>2021-09-27T12:46:34.000Z</time>
      </trkpt>
      <trkpt lat="45.76067" lon="4.62799">
        <ele>726</ele>
        <time>2021-09-27T12:46:35.000Z</time>
      </trkpt>
      <trkpt lat="45.76068" lon="4.62797">
        <ele>726</ele>
        <time>2021-09-27T12:46:36.000Z</time>
      </trkpt>
      <trkpt lat="45.76068" lon="4.62794">
        <ele>726.2</ele>
        <time>2021-09-27T12:46:37.000Z</time>
      </trkpt>
      <trkpt lat="45.76069" lon="4.62791">
        <ele>726.2</ele>
        <time>2021-09-27T12:46:38.000Z</time>
      </trkpt>
      <trkpt lat="45.76069" lon="4.62789">
        <ele>726.2</ele>
        <time>2021-09-27T12:46:39.000Z</time>
      </trkpt>
      <trkpt lat="45.7607" lon="4.62786">
        <ele>726.2</ele>
        <time>2021-09-27T12:46:40.000Z</time>
      </trkpt>
      <trkpt lat="45.7607" lon="4.62783">
        <ele>726.2</ele>
        <time>2021-09-27T12:46:41.000Z</time>
      </trkpt>
      <trkpt lat="45.7607" lon="4.62781">
        <ele>726.4</ele>
        <time>2021-09-27T12:46:42.000Z</time>
      </trkpt>
      <trkpt lat="45.7607" lon="4.62778">
        <ele>726.4</ele>
        <time>2021-09-27T12:46:43.000Z</time>
      </trkpt>
      <trkpt lat="45.7607" lon="4.62768">
        <ele>726.6</ele>
        <time>2021-09-27T12:46:46.000Z</time>
      </trkpt>
      <trkpt lat="45.76069" lon="4.62754">
        <ele>727.2</ele>
        <time>2021-09-27T12:46:51.000Z</time>
      </trkpt>
      <trkpt lat="45.76068" lon="4.62744">
        <ele>727.6</ele>
        <time>2021-09-27T12:46:54.000Z</time>
      </trkpt>
      <trkpt lat="45.76066" lon="4.62735">
        <ele>728.2</ele>
        <time>2021-09-27T12:46:57.000Z</time>
      </trkpt>
      <trkpt lat="45.76065" lon="4.62732">
        <ele>728.4</ele>
        <time>2021-09-27T12:46:58.000Z</time>
      </trkpt>
      <trkpt lat="45.76065" lon="4.62728">
        <ele>728.6</ele>
        <time>2021-09-27T12:46:59.000Z</time>
      </trkpt>
      <trkpt lat="45.76064" lon="4.62725">
        <ele>728.8</ele>
        <time>2021-09-27T12:47:00.000Z</time>
      </trkpt>
      <trkpt lat="45.76064" lon="4.62721">
        <ele>729</ele>
        <time>2021-09-27T12:47:01.000Z</time>
      </trkpt>
      <trkpt lat="45.76064" lon="4.62718">
        <ele>729</ele>
        <time>2021-09-27T12:47:02.000Z</time>
      </trkpt>
      <trkpt lat="45.76065" lon="4.62714">
        <ele>729</ele>
        <time>2021-09-27T12:47:03.000Z</time>
      </trkpt>
      <trkpt lat="45.76066" lon="4.62711">
        <ele>729.2</ele>
        <time>2021-09-27T12:47:04.000Z</time>
      </trkpt>
      <trkpt lat="45.76067" lon="4.62708">
        <ele>729.4</ele>
        <time>2021-09-27T12:47:05.000Z</time>
      </trkpt>
      <trkpt lat="45.76068" lon="4.62705">
        <ele>729.4</ele>
        <time>2021-09-27T12:47:06.000Z</time>
      </trkpt>
      <trkpt lat="45.7607" lon="4.62702">
        <ele>729.4</ele>
        <time>2021-09-27T12:47:07.000Z</time>
      </trkpt>
      <trkpt lat="45.76071" lon="4.62699">
        <ele>729.6</ele>
        <time>2021-09-27T12:47:08.000Z</time>
      </trkpt>
      <trkpt lat="45.76073" lon="4.62697">
        <ele>729.6</ele>
        <time>2021-09-27T12:47:09.000Z</time>
      </trkpt>
      <trkpt lat="45.76075" lon="4.62695">
        <ele>729.6</ele>
        <time>2021-09-27T12:47:10.000Z</time>
      </trkpt>
      <trkpt lat="45.76077" lon="4.62693">
        <ele>729.8</ele>
        <time>2021-09-27T12:47:11.000Z</time>
      </trkpt>
      <trkpt lat="45.76079" lon="4.62692">
        <ele>729.8</ele>
        <time>2021-09-27T12:47:12.000Z</time>
      </trkpt>
      <trkpt lat="45.76082" lon="4.62691">
        <ele>730</ele>
        <time>2021-09-27T12:47:13.000Z</time>
      </trkpt>
      <trkpt lat="45.76084" lon="4.6269">
        <ele>730.2</ele>
        <time>2021-09-27T12:47:14.000Z</time>
      </trkpt>
      <trkpt lat="45.76086" lon="4.6269">
        <ele>730.2</ele>
        <time>2021-09-27T12:47:15.000Z</time>
      </trkpt>
      <trkpt lat="45.76088" lon="4.62689">
        <ele>730.4</ele>
        <time>2021-09-27T12:47:16.000Z</time>
      </trkpt>
      <trkpt lat="45.7609" lon="4.62689">
        <ele>730.6</ele>
        <time>2021-09-27T12:47:17.000Z</time>
      </trkpt>
      <trkpt lat="45.76092" lon="4.62688">
        <ele>730.8</ele>
        <time>2021-09-27T12:47:18.000Z</time>
      </trkpt>
      <trkpt lat="45.76094" lon="4.62686">
        <ele>731</ele>
        <time>2021-09-27T12:47:19.000Z</time>
      </trkpt>
      <trkpt lat="45.76096" lon="4.62685">
        <ele>730.8</ele>
        <time>2021-09-27T12:47:20.000Z</time>
      </trkpt>
      <trkpt lat="45.76097" lon="4.62685">
        <ele>731</ele>
        <time>2021-09-27T12:47:21.000Z</time>
      </trkpt>
      <trkpt lat="45.76099" lon="4.62684">
        <ele>731.2</ele>
        <time>2021-09-27T12:47:22.000Z</time>
      </trkpt>
      <trkpt lat="45.76101" lon="4.62683">
        <ele>731.4</ele>
        <time>2021-09-27T12:47:23.000Z</time>
      </trkpt>
      <trkpt lat="45.76103" lon="4.62682">
        <ele>731.6</ele>
        <time>2021-09-27T12:47:24.000Z</time>
      </trkpt>
      <trkpt lat="45.76105" lon="4.62682">
        <ele>731.6</ele>
        <time>2021-09-27T12:47:25.000Z</time>
      </trkpt>
      <trkpt lat="45.76108" lon="4.62681">
        <ele>731.8</ele>
        <time>2021-09-27T12:47:26.000Z</time>
      </trkpt>
      <trkpt lat="45.7611" lon="4.62681">
        <ele>731.8</ele>
        <time>2021-09-27T12:47:27.000Z</time>
      </trkpt>
      <trkpt lat="45.76112" lon="4.62681">
        <ele>731.8</ele>
        <time>2021-09-27T12:47:28.000Z</time>
      </trkpt>
      <trkpt lat="45.76114" lon="4.6268">
        <ele>732</ele>
        <time>2021-09-27T12:47:29.000Z</time>
      </trkpt>
      <trkpt lat="45.76116" lon="4.6268">
        <ele>732.2</ele>
        <time>2021-09-27T12:47:30.000Z</time>
      </trkpt>
      <trkpt lat="45.76119" lon="4.6268">
        <ele>732.4</ele>
        <time>2021-09-27T12:47:31.000Z</time>
      </trkpt>
      <trkpt lat="45.76121" lon="4.6268">
        <ele>732.6</ele>
        <time>2021-09-27T12:47:32.000Z</time>
      </trkpt>
      <trkpt lat="45.76123" lon="4.6268">
        <ele>732.8</ele>
        <time>2021-09-27T12:47:33.000Z</time>
      </trkpt>
      <trkpt lat="45.76125" lon="4.6268">
        <ele>733</ele>
        <time>2021-09-27T12:47:34.000Z</time>
      </trkpt>
      <trkpt lat="45.76127" lon="4.6268">
        <ele>733</ele>
        <time>2021-09-27T12:47:35.000Z</time>
      </trkpt>
      <trkpt lat="45.7613" lon="4.62681">
        <ele>733.2</ele>
        <time>2021-09-27T12:47:36.000Z</time>
      </trkpt>
      <trkpt lat="45.76132" lon="4.62681">
        <ele>733.4</ele>
        <time>2021-09-27T12:47:37.000Z</time>
      </trkpt>
      <trkpt lat="45.76134" lon="4.62681">
        <ele>733.6</ele>
        <time>2021-09-27T12:47:38.000Z</time>
      </trkpt>
      <trkpt lat="45.76136" lon="4.6268">
        <ele>733.6</ele>
        <time>2021-09-27T12:47:39.000Z</time>
      </trkpt>
      <trkpt lat="45.76138" lon="4.6268">
        <ele>733.8</ele>
        <time>2021-09-27T12:47:40.000Z</time>
      </trkpt>
      <trkpt lat="45.7614" lon="4.62679">
        <ele>734</ele>
        <time>2021-09-27T12:47:41.000Z</time>
      </trkpt>
      <trkpt lat="45.76141" lon="4.62677">
        <ele>734.2</ele>
        <time>2021-09-27T12:47:42.000Z</time>
      </trkpt>
      <trkpt lat="45.76143" lon="4.62675">
        <ele>734.2</ele>
        <time>2021-09-27T12:47:43.000Z</time>
      </trkpt>
      <trkpt lat="45.76144" lon="4.62673">
        <ele>734.4</ele>
        <time>2021-09-27T12:47:44.000Z</time>
      </trkpt>
      <trkpt lat="45.76145" lon="4.6267">
        <ele>734.4</ele>
        <time>2021-09-27T12:47:45.000Z</time>
      </trkpt>
      <trkpt lat="45.76145" lon="4.62667">
        <ele>734.4</ele>
        <time>2021-09-27T12:47:46.000Z</time>
      </trkpt>
      <trkpt lat="45.76144" lon="4.62664">
        <ele>734.6</ele>
        <time>2021-09-27T12:47:47.000Z</time>
      </trkpt>
      <trkpt lat="45.76143" lon="4.62662">
        <ele>734.8</ele>
        <time>2021-09-27T12:47:48.000Z</time>
      </trkpt>
      <trkpt lat="45.76141" lon="4.62661">
        <ele>735</ele>
        <time>2021-09-27T12:47:49.000Z</time>
      </trkpt>
      <trkpt lat="45.76139" lon="4.6266">
        <ele>735</ele>
        <time>2021-09-27T12:47:50.000Z</time>
      </trkpt>
      <trkpt lat="45.76137" lon="4.6266">
        <ele>735</ele>
        <time>2021-09-27T12:47:51.000Z</time>
      </trkpt>
      <trkpt lat="45.76135" lon="4.6266">
        <ele>735.2</ele>
        <time>2021-09-27T12:47:52.000Z</time>
      </trkpt>
      <trkpt lat="45.76133" lon="4.62661">
        <ele>735.2</ele>
        <time>2021-09-27T12:47:53.000Z</time>
      </trkpt>
      <trkpt lat="45.76131" lon="4.62663">
        <ele>735.4</ele>
        <time>2021-09-27T12:47:54.000Z</time>
      </trkpt>
      <trkpt lat="45.76129" lon="4.62664">
        <ele>735.4</ele>
        <time>2021-09-27T12:47:55.000Z</time>
      </trkpt>
      <trkpt lat="45.76127" lon="4.62665">
        <ele>735.6</ele>
        <time>2021-09-27T12:47:56.000Z</time>
      </trkpt>
      <trkpt lat="45.76125" lon="4.62665">
        <ele>735.6</ele>
        <time>2021-09-27T12:47:57.000Z</time>
      </trkpt>
      <trkpt lat="45.76123" lon="4.62665">
        <ele>735.8</ele>
        <time>2021-09-27T12:47:58.000Z</time>
      </trkpt>
      <trkpt lat="45.76121" lon="4.62665">
        <ele>735.8</ele>
        <time>2021-09-27T12:47:59.000Z</time>
      </trkpt>
      <trkpt lat="45.76119" lon="4.62665">
        <ele>736</ele>
        <time>2021-09-27T12:48:00.000Z</time>
      </trkpt>
      <trkpt lat="45.76117" lon="4.62665">
        <ele>736</ele>
        <time>2021-09-27T12:48:01.000Z</time>
      </trkpt>
      <trkpt lat="45.76115" lon="4.62665">
        <ele>736.2</ele>
        <time>2021-09-27T12:48:02.000Z</time>
      </trkpt>
      <trkpt lat="45.76113" lon="4.62665">
        <ele>736.4</ele>
        <time>2021-09-27T12:48:03.000Z</time>
      </trkpt>
      <trkpt lat="45.76111" lon="4.62665">
        <ele>736.6</ele>
        <time>2021-09-27T12:48:04.000Z</time>
      </trkpt>
      <trkpt lat="45.76109" lon="4.62665">
        <ele>736.8</ele>
        <time>2021-09-27T12:48:05.000Z</time>
      </trkpt>
      <trkpt lat="45.76106" lon="4.62665">
        <ele>737</ele>
        <time>2021-09-27T12:48:06.000Z</time>
      </trkpt>
      <trkpt lat="45.76104" lon="4.62665">
        <ele>737</ele>
        <time>2021-09-27T12:48:07.000Z</time>
      </trkpt>
      <trkpt lat="45.76102" lon="4.62665">
        <ele>737</ele>
        <time>2021-09-27T12:48:08.000Z</time>
      </trkpt>
      <trkpt lat="45.761" lon="4.62665">
        <ele>737</ele>
        <time>2021-09-27T12:48:09.000Z</time>
      </trkpt>
      <trkpt lat="45.76098" lon="4.62664">
        <ele>737.2</ele>
        <time>2021-09-27T12:48:10.000Z</time>
      </trkpt>
      <trkpt lat="45.76096" lon="4.62664">
        <ele>737.2</ele>
        <time>2021-09-27T12:48:11.000Z</time>
      </trkpt>
      <trkpt lat="45.76094" lon="4.62664">
        <ele>737.4</ele>
        <time>2021-09-27T12:48:12.000Z</time>
      </trkpt>
      <trkpt lat="45.76092" lon="4.62664">
        <ele>737.4</ele>
        <time>2021-09-27T12:48:13.000Z</time>
      </trkpt>
      <trkpt lat="45.76089" lon="4.62665">
        <ele>737.6</ele>
        <time>2021-09-27T12:48:14.000Z</time>
      </trkpt>
      <trkpt lat="45.76087" lon="4.62664">
        <ele>737.8</ele>
        <time>2021-09-27T12:48:15.000Z</time>
      </trkpt>
      <trkpt lat="45.76085" lon="4.62664">
        <ele>737.8</ele>
        <time>2021-09-27T12:48:16.000Z</time>
      </trkpt>
      <trkpt lat="45.76083" lon="4.62664">
        <ele>737.8</ele>
        <time>2021-09-27T12:48:17.000Z</time>
      </trkpt>
      <trkpt lat="45.76081" lon="4.62664">
        <ele>738</ele>
        <time>2021-09-27T12:48:18.000Z</time>
      </trkpt>
      <trkpt lat="45.76079" lon="4.62664">
        <ele>738.2</ele>
        <time>2021-09-27T12:48:19.000Z</time>
      </trkpt>
      <trkpt lat="45.76077" lon="4.62664">
        <ele>738.4</ele>
        <time>2021-09-27T12:48:20.000Z</time>
      </trkpt>
      <trkpt lat="45.76075" lon="4.62663">
        <ele>738.6</ele>
        <time>2021-09-27T12:48:21.000Z</time>
      </trkpt>
      <trkpt lat="45.76072" lon="4.62663">
        <ele>738.8</ele>
        <time>2021-09-27T12:48:22.000Z</time>
      </trkpt>
      <trkpt lat="45.7607" lon="4.62661">
        <ele>738.8</ele>
        <time>2021-09-27T12:48:23.000Z</time>
      </trkpt>
      <trkpt lat="45.76068" lon="4.6266">
        <ele>739</ele>
        <time>2021-09-27T12:48:24.000Z</time>
      </trkpt>
      <trkpt lat="45.76066" lon="4.62659">
        <ele>739.2</ele>
        <time>2021-09-27T12:48:25.000Z</time>
      </trkpt>
      <trkpt lat="45.76064" lon="4.62658">
        <ele>739.4</ele>
        <time>2021-09-27T12:48:26.000Z</time>
      </trkpt>
      <trkpt lat="45.76062" lon="4.62657">
        <ele>739.6</ele>
        <time>2021-09-27T12:48:27.000Z</time>
      </trkpt>
      <trkpt lat="45.7606" lon="4.62657">
        <ele>739.6</ele>
        <time>2021-09-27T12:48:28.000Z</time>
      </trkpt>
      <trkpt lat="45.76058" lon="4.62656">
        <ele>739.8</ele>
        <time>2021-09-27T12:48:29.000Z</time>
      </trkpt>
      <trkpt lat="45.76056" lon="4.62654">
        <ele>739.8</ele>
        <time>2021-09-27T12:48:30.000Z</time>
      </trkpt>
      <trkpt lat="45.76055" lon="4.62654">
        <ele>740</ele>
        <time>2021-09-27T12:48:31.000Z</time>
      </trkpt>
      <trkpt lat="45.76052" lon="4.62653">
        <ele>740</ele>
        <time>2021-09-27T12:48:32.000Z</time>
      </trkpt>
      <trkpt lat="45.76051" lon="4.62652">
        <ele>740.2</ele>
        <time>2021-09-27T12:48:33.000Z</time>
      </trkpt>
      <trkpt lat="45.76049" lon="4.62652">
        <ele>740.4</ele>
        <time>2021-09-27T12:48:34.000Z</time>
      </trkpt>
      <trkpt lat="45.76047" lon="4.62652">
        <ele>740.6</ele>
        <time>2021-09-27T12:48:35.000Z</time>
      </trkpt>
      <trkpt lat="45.76045" lon="4.62653">
        <ele>740.8</ele>
        <time>2021-09-27T12:48:36.000Z</time>
      </trkpt>
      <trkpt lat="45.76044" lon="4.62654">
        <ele>740.8</ele>
        <time>2021-09-27T12:48:37.000Z</time>
      </trkpt>
      <trkpt lat="45.76042" lon="4.62656">
        <ele>741</ele>
        <time>2021-09-27T12:48:38.000Z</time>
      </trkpt>
      <trkpt lat="45.7604" lon="4.62657">
        <ele>741.2</ele>
        <time>2021-09-27T12:48:39.000Z</time>
      </trkpt>
      <trkpt lat="45.76039" lon="4.62659">
        <ele>741.2</ele>
        <time>2021-09-27T12:48:40.000Z</time>
      </trkpt>
      <trkpt lat="45.76037" lon="4.62661">
        <ele>741.4</ele>
        <time>2021-09-27T12:48:41.000Z</time>
      </trkpt>
      <trkpt lat="45.76035" lon="4.62663">
        <ele>741.4</ele>
        <time>2021-09-27T12:48:42.000Z</time>
      </trkpt>
      <trkpt lat="45.76034" lon="4.62665">
        <ele>741.6</ele>
        <time>2021-09-27T12:48:43.000Z</time>
      </trkpt>
      <trkpt lat="45.76032" lon="4.62667">
        <ele>741.8</ele>
        <time>2021-09-27T12:48:44.000Z</time>
      </trkpt>
      <trkpt lat="45.76031" lon="4.62669">
        <ele>741.8</ele>
        <time>2021-09-27T12:48:45.000Z</time>
      </trkpt>
      <trkpt lat="45.7603" lon="4.62671">
        <ele>741.8</ele>
        <time>2021-09-27T12:48:46.000Z</time>
      </trkpt>
      <trkpt lat="45.76028" lon="4.62673">
        <ele>742</ele>
        <time>2021-09-27T12:48:47.000Z</time>
      </trkpt>
      <trkpt lat="45.76027" lon="4.62676">
        <ele>742</ele>
        <time>2021-09-27T12:48:48.000Z</time>
      </trkpt>
      <trkpt lat="45.76026" lon="4.62678">
        <ele>742.2</ele>
        <time>2021-09-27T12:48:49.000Z</time>
      </trkpt>
      <trkpt lat="45.76025" lon="4.6268">
        <ele>742.2</ele>
        <time>2021-09-27T12:48:50.000Z</time>
      </trkpt>
      <trkpt lat="45.76023" lon="4.62683">
        <ele>742.4</ele>
        <time>2021-09-27T12:48:51.000Z</time>
      </trkpt>
      <trkpt lat="45.76022" lon="4.62685">
        <ele>742.4</ele>
        <time>2021-09-27T12:48:52.000Z</time>
      </trkpt>
      <trkpt lat="45.76021" lon="4.62688">
        <ele>742.6</ele>
        <time>2021-09-27T12:48:53.000Z</time>
      </trkpt>
      <trkpt lat="45.7602" lon="4.62691">
        <ele>742.6</ele>
        <time>2021-09-27T12:48:54.000Z</time>
      </trkpt>
      <trkpt lat="45.76018" lon="4.62694">
        <ele>742.8</ele>
        <time>2021-09-27T12:48:55.000Z</time>
      </trkpt>
      <trkpt lat="45.76017" lon="4.62696">
        <ele>743</ele>
        <time>2021-09-27T12:48:56.000Z</time>
      </trkpt>
      <trkpt lat="45.76016" lon="4.62699">
        <ele>743.2</ele>
        <time>2021-09-27T12:48:57.000Z</time>
      </trkpt>
      <trkpt lat="45.76016" lon="4.62702">
        <ele>743.2</ele>
        <time>2021-09-27T12:48:58.000Z</time>
      </trkpt>
      <trkpt lat="45.76015" lon="4.62705">
        <ele>743.4</ele>
        <time>2021-09-27T12:48:59.000Z</time>
      </trkpt>
      <trkpt lat="45.76014" lon="4.62709">
        <ele>743.6</ele>
        <time>2021-09-27T12:49:00.000Z</time>
      </trkpt>
      <trkpt lat="45.76013" lon="4.62711">
        <ele>743.6</ele>
        <time>2021-09-27T12:49:01.000Z</time>
      </trkpt>
      <trkpt lat="45.76012" lon="4.62715">
        <ele>743.8</ele>
        <time>2021-09-27T12:49:02.000Z</time>
      </trkpt>
      <trkpt lat="45.76011" lon="4.62718">
        <ele>743.8</ele>
        <time>2021-09-27T12:49:03.000Z</time>
      </trkpt>
      <trkpt lat="45.7601" lon="4.62721">
        <ele>743.8</ele>
        <time>2021-09-27T12:49:04.000Z</time>
      </trkpt>
      <trkpt lat="45.76009" lon="4.62724">
        <ele>744</ele>
        <time>2021-09-27T12:49:05.000Z</time>
      </trkpt>
      <trkpt lat="45.76008" lon="4.62728">
        <ele>744</ele>
        <time>2021-09-27T12:49:06.000Z</time>
      </trkpt>
      <trkpt lat="45.76008" lon="4.62731">
        <ele>744</ele>
        <time>2021-09-27T12:49:07.000Z</time>
      </trkpt>
      <trkpt lat="45.76007" lon="4.62734">
        <ele>744</ele>
        <time>2021-09-27T12:49:08.000Z</time>
      </trkpt>
      <trkpt lat="45.76007" lon="4.62737">
        <ele>744.4</ele>
        <time>2021-09-27T12:49:09.000Z</time>
      </trkpt>
      <trkpt lat="45.76006" lon="4.62741">
        <ele>744.6</ele>
        <time>2021-09-27T12:49:10.000Z</time>
      </trkpt>
      <trkpt lat="45.76005" lon="4.62744">
        <ele>744.6</ele>
        <time>2021-09-27T12:49:11.000Z</time>
      </trkpt>
      <trkpt lat="45.76005" lon="4.62747">
        <ele>744.8</ele>
        <time>2021-09-27T12:49:12.000Z</time>
      </trkpt>
      <trkpt lat="45.76004" lon="4.6275">
        <ele>744.8</ele>
        <time>2021-09-27T12:49:13.000Z</time>
      </trkpt>
      <trkpt lat="45.76003" lon="4.62753">
        <ele>745</ele>
        <time>2021-09-27T12:49:14.000Z</time>
      </trkpt>
      <trkpt lat="45.76002" lon="4.62756">
        <ele>745.2</ele>
        <time>2021-09-27T12:49:15.000Z</time>
      </trkpt>
      <trkpt lat="45.76" lon="4.62759">
        <ele>745.2</ele>
        <time>2021-09-27T12:49:16.000Z</time>
      </trkpt>
      <trkpt lat="45.75999" lon="4.62761">
        <ele>745.2</ele>
        <time>2021-09-27T12:49:17.000Z</time>
      </trkpt>
      <trkpt lat="45.75997" lon="4.62763">
        <ele>745.2</ele>
        <time>2021-09-27T12:49:18.000Z</time>
      </trkpt>
      <trkpt lat="45.75996" lon="4.62765">
        <ele>745.2</ele>
        <time>2021-09-27T12:49:19.000Z</time>
      </trkpt>
      <trkpt lat="45.75994" lon="4.62767">
        <ele>745.4</ele>
        <time>2021-09-27T12:49:20.000Z</time>
      </trkpt>
      <trkpt lat="45.75992" lon="4.62769">
        <ele>745.4</ele>
        <time>2021-09-27T12:49:21.000Z</time>
      </trkpt>
      <trkpt lat="45.7599" lon="4.62771">
        <ele>745.6</ele>
        <time>2021-09-27T12:49:22.000Z</time>
      </trkpt>
      <trkpt lat="45.75988" lon="4.62773">
        <ele>745.8</ele>
        <time>2021-09-27T12:49:23.000Z</time>
      </trkpt>
      <trkpt lat="45.75987" lon="4.62775">
        <ele>746</ele>
        <time>2021-09-27T12:49:24.000Z</time>
      </trkpt>
      <trkpt lat="45.75986" lon="4.62778">
        <ele>746</ele>
        <time>2021-09-27T12:49:25.000Z</time>
      </trkpt>
      <trkpt lat="45.75984" lon="4.6278">
        <ele>746.2</ele>
        <time>2021-09-27T12:49:26.000Z</time>
      </trkpt>
      <trkpt lat="45.75983" lon="4.62782">
        <ele>746.2</ele>
        <time>2021-09-27T12:49:27.000Z</time>
      </trkpt>
      <trkpt lat="45.75981" lon="4.62785">
        <ele>746.2</ele>
        <time>2021-09-27T12:49:28.000Z</time>
      </trkpt>
      <trkpt lat="45.7598" lon="4.62787">
        <ele>746.2</ele>
        <time>2021-09-27T12:49:29.000Z</time>
      </trkpt>
      <trkpt lat="45.75978" lon="4.62789">
        <ele>746.4</ele>
        <time>2021-09-27T12:49:30.000Z</time>
      </trkpt>
      <trkpt lat="45.75977" lon="4.62791">
        <ele>746.4</ele>
        <time>2021-09-27T12:49:31.000Z</time>
      </trkpt>
      <trkpt lat="45.75975" lon="4.62794">
        <ele>746.6</ele>
        <time>2021-09-27T12:49:32.000Z</time>
      </trkpt>
      <trkpt lat="45.75973" lon="4.62796">
        <ele>746.6</ele>
        <time>2021-09-27T12:49:33.000Z</time>
      </trkpt>
      <trkpt lat="45.75972" lon="4.62798">
        <ele>746.6</ele>
        <time>2021-09-27T12:49:34.000Z</time>
      </trkpt>
      <trkpt lat="45.75966" lon="4.62803">
        <ele>747</ele>
        <time>2021-09-27T12:49:37.000Z</time>
      </trkpt>
      <trkpt lat="45.75963" lon="4.62806">
        <ele>747.2</ele>
        <time>2021-09-27T12:49:39.000Z</time>
      </trkpt>
      <trkpt lat="45.75959" lon="4.62808">
        <ele>747.2</ele>
        <time>2021-09-27T12:49:41.000Z</time>
      </trkpt>
      <trkpt lat="45.75957" lon="4.62809">
        <ele>747.4</ele>
        <time>2021-09-27T12:49:42.000Z</time>
      </trkpt>
      <trkpt lat="45.75954" lon="4.6281">
        <ele>747.4</ele>
        <time>2021-09-27T12:49:43.000Z</time>
      </trkpt>
      <trkpt lat="45.75943" lon="4.62814">
        <ele>748</ele>
        <time>2021-09-27T12:49:48.000Z</time>
      </trkpt>
      <trkpt lat="45.75935" lon="4.62817">
        <ele>748.6</ele>
        <time>2021-09-27T12:49:52.000Z</time>
      </trkpt>
      <trkpt lat="45.75923" lon="4.62821">
        <ele>749</ele>
        <time>2021-09-27T12:49:57.000Z</time>
      </trkpt>
      <trkpt lat="45.75912" lon="4.62822">
        <ele>749</ele>
        <time>2021-09-27T12:50:01.000Z</time>
      </trkpt>
      <trkpt lat="45.7589" lon="4.62822">
        <ele>749.2</ele>
        <time>2021-09-27T12:50:08.000Z</time>
      </trkpt>
      <trkpt lat="45.75872" lon="4.6282">
        <ele>749.2</ele>
        <time>2021-09-27T12:50:14.000Z</time>
      </trkpt>
      <trkpt lat="45.75869" lon="4.62819">
        <ele>749.2</ele>
        <time>2021-09-27T12:50:15.000Z</time>
      </trkpt>
      <trkpt lat="45.75863" lon="4.62819">
        <ele>749.2</ele>
        <time>2021-09-27T12:50:17.000Z</time>
      </trkpt>
      <trkpt lat="45.75839" lon="4.62816">
        <ele>750</ele>
        <time>2021-09-27T12:50:25.000Z</time>
      </trkpt>
      <trkpt lat="45.75838" lon="4.62815">
        <ele>750</ele>
        <time>2021-09-27T12:50:26.000Z</time>
      </trkpt>
      <trkpt lat="45.75833" lon="4.62814">
        <ele>750.2</ele>
        <time>2021-09-27T12:51:13.000Z</time>
      </trkpt>
      <trkpt lat="45.75829" lon="4.62813">
        <ele>749.8</ele>
        <time>2021-09-27T12:51:15.000Z</time>
      </trkpt>
      <trkpt lat="45.75826" lon="4.62813">
        <ele>750</ele>
        <time>2021-09-27T12:51:16.000Z</time>
      </trkpt>
      <trkpt lat="45.75824" lon="4.62813">
        <ele>750</ele>
        <time>2021-09-27T12:51:17.000Z</time>
      </trkpt>
      <trkpt lat="45.75822" lon="4.62812">
        <ele>749.8</ele>
        <time>2021-09-27T12:51:18.000Z</time>
      </trkpt>
      <trkpt lat="45.75816" lon="4.6281">
        <ele>750</ele>
        <time>2021-09-27T12:51:20.000Z</time>
      </trkpt>
      <trkpt lat="45.7581" lon="4.62808">
        <ele>750</ele>
        <time>2021-09-27T12:51:22.000Z</time>
      </trkpt>
      <trkpt lat="45.75803" lon="4.62806">
        <ele>749.8</ele>
        <time>2021-09-27T12:51:24.000Z</time>
      </trkpt>
      <trkpt lat="45.75797" lon="4.62804">
        <ele>749.6</ele>
        <time>2021-09-27T12:51:26.000Z</time>
      </trkpt>
      <trkpt lat="45.75782" lon="4.62798">
        <ele>749.6</ele>
        <time>2021-09-27T12:51:31.000Z</time>
      </trkpt>
      <trkpt lat="45.75779" lon="4.62796">
        <ele>749.6</ele>
        <time>2021-09-27T12:51:32.000Z</time>
      </trkpt>
      <trkpt lat="45.75776" lon="4.62794">
        <ele>749.6</ele>
        <time>2021-09-27T12:51:33.000Z</time>
      </trkpt>
      <trkpt lat="45.75774" lon="4.62792">
        <ele>749.8</ele>
        <time>2021-09-27T12:51:34.000Z</time>
      </trkpt>
      <trkpt lat="45.75772" lon="4.6279">
        <ele>749.8</ele>
        <time>2021-09-27T12:51:35.000Z</time>
      </trkpt>
      <trkpt lat="45.75769" lon="4.62788">
        <ele>749.8</ele>
        <time>2021-09-27T12:51:36.000Z</time>
      </trkpt>
      <trkpt lat="45.75766" lon="4.62786">
        <ele>749.8</ele>
        <time>2021-09-27T12:51:37.000Z</time>
      </trkpt>
      <trkpt lat="45.75756" lon="4.62775">
        <ele>749.6</ele>
        <time>2021-09-27T12:51:41.000Z</time>
      </trkpt>
      <trkpt lat="45.75748" lon="4.62763">
        <ele>749.8</ele>
        <time>2021-09-27T12:51:45.000Z</time>
      </trkpt>
      <trkpt lat="45.75746" lon="4.62761">
        <ele>749.8</ele>
        <time>2021-09-27T12:51:46.000Z</time>
      </trkpt>
      <trkpt lat="45.75744" lon="4.62758">
        <ele>750</ele>
        <time>2021-09-27T12:51:47.000Z</time>
      </trkpt>
      <trkpt lat="45.75742" lon="4.62755">
        <ele>750</ele>
        <time>2021-09-27T12:51:48.000Z</time>
      </trkpt>
      <trkpt lat="45.7574" lon="4.62752">
        <ele>750</ele>
        <time>2021-09-27T12:51:49.000Z</time>
      </trkpt>
      <trkpt lat="45.75739" lon="4.62749">
        <ele>750</ele>
        <time>2021-09-27T12:51:50.000Z</time>
      </trkpt>
      <trkpt lat="45.75737" lon="4.62746">
        <ele>750.2</ele>
        <time>2021-09-27T12:51:51.000Z</time>
      </trkpt>
      <trkpt lat="45.75736" lon="4.62743">
        <ele>750.2</ele>
        <time>2021-09-27T12:51:52.000Z</time>
      </trkpt>
      <trkpt lat="45.75734" lon="4.6274">
        <ele>750.2</ele>
        <time>2021-09-27T12:51:53.000Z</time>
      </trkpt>
      <trkpt lat="45.75733" lon="4.62737">
        <ele>750.4</ele>
        <time>2021-09-27T12:51:54.000Z</time>
      </trkpt>
      <trkpt lat="45.75732" lon="4.62734">
        <ele>750.6</ele>
        <time>2021-09-27T12:51:55.000Z</time>
      </trkpt>
      <trkpt lat="45.75732" lon="4.6273">
        <ele>750.6</ele>
        <time>2021-09-27T12:51:56.000Z</time>
      </trkpt>
      <trkpt lat="45.75731" lon="4.62727">
        <ele>750.8</ele>
        <time>2021-09-27T12:51:57.000Z</time>
      </trkpt>
      <trkpt lat="45.7573" lon="4.62723">
        <ele>751</ele>
        <time>2021-09-27T12:51:58.000Z</time>
      </trkpt>
      <trkpt lat="45.75729" lon="4.6272">
        <ele>751.2</ele>
        <time>2021-09-27T12:51:59.000Z</time>
      </trkpt>
      <trkpt lat="45.75726" lon="4.62705">
        <ele>752</ele>
        <time>2021-09-27T12:52:03.000Z</time>
      </trkpt>
      <trkpt lat="45.75724" lon="4.62694">
        <ele>752.2</ele>
        <time>2021-09-27T12:52:06.000Z</time>
      </trkpt>
      <trkpt lat="45.75721" lon="4.62675">
        <ele>752.8</ele>
        <time>2021-09-27T12:52:11.000Z</time>
      </trkpt>
      <trkpt lat="45.7572" lon="4.62671">
        <ele>752.8</ele>
        <time>2021-09-27T12:52:12.000Z</time>
      </trkpt>
      <trkpt lat="45.75719" lon="4.62667">
        <ele>752.8</ele>
        <time>2021-09-27T12:52:13.000Z</time>
      </trkpt>
      <trkpt lat="45.75719" lon="4.62664">
        <ele>752.8</ele>
        <time>2021-09-27T12:52:14.000Z</time>
      </trkpt>
      <trkpt lat="45.75718" lon="4.6266">
        <ele>753.2</ele>
        <time>2021-09-27T12:52:15.000Z</time>
      </trkpt>
      <trkpt lat="45.75718" lon="4.62656">
        <ele>753.4</ele>
        <time>2021-09-27T12:52:16.000Z</time>
      </trkpt>
      <trkpt lat="45.75718" lon="4.62652">
        <ele>753.6</ele>
        <time>2021-09-27T12:52:17.000Z</time>
      </trkpt>
      <trkpt lat="45.75718" lon="4.62648">
        <ele>753.8</ele>
        <time>2021-09-27T12:52:18.000Z</time>
      </trkpt>
      <trkpt lat="45.75717" lon="4.62645">
        <ele>754</ele>
        <time>2021-09-27T12:52:19.000Z</time>
      </trkpt>
      <trkpt lat="45.75717" lon="4.62641">
        <ele>754</ele>
        <time>2021-09-27T12:52:20.000Z</time>
      </trkpt>
      <trkpt lat="45.75717" lon="4.62638">
        <ele>754.2</ele>
        <time>2021-09-27T12:52:21.000Z</time>
      </trkpt>
      <trkpt lat="45.75716" lon="4.62635">
        <ele>754.6</ele>
        <time>2021-09-27T12:52:22.000Z</time>
      </trkpt>
      <trkpt lat="45.75716" lon="4.62632">
        <ele>754.6</ele>
        <time>2021-09-27T12:52:23.000Z</time>
      </trkpt>
      <trkpt lat="45.75716" lon="4.6263">
        <ele>754.8</ele>
        <time>2021-09-27T12:52:24.000Z</time>
      </trkpt>
      <trkpt lat="45.75715" lon="4.62627">
        <ele>754.8</ele>
        <time>2021-09-27T12:52:25.000Z</time>
      </trkpt>
      <trkpt lat="45.75715" lon="4.62624">
        <ele>754.8</ele>
        <time>2021-09-27T12:52:26.000Z</time>
      </trkpt>
      <trkpt lat="45.75714" lon="4.6262">
        <ele>754.8</ele>
        <time>2021-09-27T12:52:27.000Z</time>
      </trkpt>
      <trkpt lat="45.75714" lon="4.62617">
        <ele>755</ele>
        <time>2021-09-27T12:52:28.000Z</time>
      </trkpt>
      <trkpt lat="45.75713" lon="4.62613">
        <ele>755</ele>
        <time>2021-09-27T12:52:29.000Z</time>
      </trkpt>
      <trkpt lat="45.75712" lon="4.62609">
        <ele>755.2</ele>
        <time>2021-09-27T12:52:30.000Z</time>
      </trkpt>
      <trkpt lat="45.75712" lon="4.62606">
        <ele>755.2</ele>
        <time>2021-09-27T12:52:31.000Z</time>
      </trkpt>
      <trkpt lat="45.75711" lon="4.62602">
        <ele>755.2</ele>
        <time>2021-09-27T12:52:32.000Z</time>
      </trkpt>
      <trkpt lat="45.75711" lon="4.62599">
        <ele>755.4</ele>
        <time>2021-09-27T12:52:33.000Z</time>
      </trkpt>
      <trkpt lat="45.7571" lon="4.62595">
        <ele>755.4</ele>
        <time>2021-09-27T12:52:34.000Z</time>
      </trkpt>
      <trkpt lat="45.7571" lon="4.62592">
        <ele>755.4</ele>
        <time>2021-09-27T12:52:35.000Z</time>
      </trkpt>
      <trkpt lat="45.7571" lon="4.62588">
        <ele>755.4</ele>
        <time>2021-09-27T12:52:36.000Z</time>
      </trkpt>
      <trkpt lat="45.7571" lon="4.62584">
        <ele>755.4</ele>
        <time>2021-09-27T12:52:37.000Z</time>
      </trkpt>
      <trkpt lat="45.75709" lon="4.6258">
        <ele>755.4</ele>
        <time>2021-09-27T12:52:38.000Z</time>
      </trkpt>
      <trkpt lat="45.75709" lon="4.62576">
        <ele>755.4</ele>
        <time>2021-09-27T12:52:39.000Z</time>
      </trkpt>
      <trkpt lat="45.75709" lon="4.62572">
        <ele>755.6</ele>
        <time>2021-09-27T12:52:40.000Z</time>
      </trkpt>
      <trkpt lat="45.75709" lon="4.62569">
        <ele>755.6</ele>
        <time>2021-09-27T12:52:41.000Z</time>
      </trkpt>
      <trkpt lat="45.75708" lon="4.62549">
        <ele>755.8</ele>
        <time>2021-09-27T12:52:46.000Z</time>
      </trkpt>
      <trkpt lat="45.75707" lon="4.62522">
        <ele>756.2</ele>
        <time>2021-09-27T12:52:52.000Z</time>
      </trkpt>
      <trkpt lat="45.75707" lon="4.62499">
        <ele>756.2</ele>
        <time>2021-09-27T12:52:57.000Z</time>
      </trkpt>
      <trkpt lat="45.75703" lon="4.62455">
        <ele>756.4</ele>
        <time>2021-09-27T12:53:06.000Z</time>
      </trkpt>
      <trkpt lat="45.75701" lon="4.62417">
        <ele>756.6</ele>
        <time>2021-09-27T12:53:13.000Z</time>
      </trkpt>
      <trkpt lat="45.75701" lon="4.62412">
        <ele>756.6</ele>
        <time>2021-09-27T12:53:14.000Z</time>
      </trkpt>
      <trkpt lat="45.75699" lon="4.62371">
        <ele>756.6</ele>
        <time>2021-09-27T12:53:21.000Z</time>
      </trkpt>
      <trkpt lat="45.75697" lon="4.62327">
        <ele>756.6</ele>
        <time>2021-09-27T12:53:28.000Z</time>
      </trkpt>
      <trkpt lat="45.75696" lon="4.62316">
        <ele>756.6</ele>
        <time>2021-09-27T12:53:30.000Z</time>
      </trkpt>
      <trkpt lat="45.75693" lon="4.62299">
        <ele>756.4</ele>
        <time>2021-09-27T12:53:33.000Z</time>
      </trkpt>
      <trkpt lat="45.75692" lon="4.62295">
        <ele>756.4</ele>
        <time>2021-09-27T12:53:34.000Z</time>
      </trkpt>
      <trkpt lat="45.75692" lon="4.62289">
        <ele>756.4</ele>
        <time>2021-09-27T12:53:35.000Z</time>
      </trkpt>
      <trkpt lat="45.75691" lon="4.62273">
        <ele>756.4</ele>
        <time>2021-09-27T12:53:38.000Z</time>
      </trkpt>
      <trkpt lat="45.75691" lon="4.62268">
        <ele>756.4</ele>
        <time>2021-09-27T12:53:39.000Z</time>
      </trkpt>
      <trkpt lat="45.75691" lon="4.62263">
        <ele>756.4</ele>
        <time>2021-09-27T12:53:40.000Z</time>
      </trkpt>
      <trkpt lat="45.7569" lon="4.62258">
        <ele>756.4</ele>
        <time>2021-09-27T12:53:41.000Z</time>
      </trkpt>
      <trkpt lat="45.7569" lon="4.62254">
        <ele>756.4</ele>
        <time>2021-09-27T12:53:42.000Z</time>
      </trkpt>
      <trkpt lat="45.7569" lon="4.6225">
        <ele>756.4</ele>
        <time>2021-09-27T12:53:43.000Z</time>
      </trkpt>
      <trkpt lat="45.75689" lon="4.62245">
        <ele>756.4</ele>
        <time>2021-09-27T12:53:44.000Z</time>
      </trkpt>
      <trkpt lat="45.75688" lon="4.6224">
        <ele>756.4</ele>
        <time>2021-09-27T12:53:45.000Z</time>
      </trkpt>
      <trkpt lat="45.75687" lon="4.62236">
        <ele>756.6</ele>
        <time>2021-09-27T12:53:46.000Z</time>
      </trkpt>
      <trkpt lat="45.75685" lon="4.62231">
        <ele>756.6</ele>
        <time>2021-09-27T12:53:47.000Z</time>
      </trkpt>
      <trkpt lat="45.75684" lon="4.62226">
        <ele>756.6</ele>
        <time>2021-09-27T12:53:48.000Z</time>
      </trkpt>
      <trkpt lat="45.75683" lon="4.62216">
        <ele>756.6</ele>
        <time>2021-09-27T12:53:50.000Z</time>
      </trkpt>
      <trkpt lat="45.75682" lon="4.62211">
        <ele>756.8</ele>
        <time>2021-09-27T12:53:51.000Z</time>
      </trkpt>
      <trkpt lat="45.75681" lon="4.62184">
        <ele>757.6</ele>
        <time>2021-09-27T12:53:57.000Z</time>
      </trkpt>
      <trkpt lat="45.75682" lon="4.62178">
        <ele>757.8</ele>
        <time>2021-09-27T12:53:58.000Z</time>
      </trkpt>
      <trkpt lat="45.75683" lon="4.62174">
        <ele>757.8</ele>
        <time>2021-09-27T12:53:59.000Z</time>
      </trkpt>
      <trkpt lat="45.75683" lon="4.6217">
        <ele>758</ele>
        <time>2021-09-27T12:54:00.000Z</time>
      </trkpt>
      <trkpt lat="45.75684" lon="4.62166">
        <ele>758</ele>
        <time>2021-09-27T12:54:01.000Z</time>
      </trkpt>
      <trkpt lat="45.75685" lon="4.62163">
        <ele>758</ele>
        <time>2021-09-27T12:54:02.000Z</time>
      </trkpt>
      <trkpt lat="45.75685" lon="4.6216">
        <ele>758.2</ele>
        <time>2021-09-27T12:54:03.000Z</time>
      </trkpt>
      <trkpt lat="45.75685" lon="4.62157">
        <ele>758.2</ele>
        <time>2021-09-27T12:54:04.000Z</time>
      </trkpt>
      <trkpt lat="45.75685" lon="4.62156">
        <ele>758.4</ele>
        <time>2021-09-27T12:54:05.000Z</time>
      </trkpt>
      <trkpt lat="45.75684" lon="4.62161">
        <ele>758.6</ele>
        <time>2021-09-27T12:57:48.000Z</time>
      </trkpt>
      <trkpt lat="45.75686" lon="4.62165">
        <ele>758.6</ele>
        <time>2021-09-27T12:57:50.000Z</time>
      </trkpt>
      <trkpt lat="45.75687" lon="4.62167">
        <ele>758.6</ele>
        <time>2021-09-27T12:57:51.000Z</time>
      </trkpt>
      <trkpt lat="45.75689" lon="4.62169">
        <ele>758.6</ele>
        <time>2021-09-27T12:57:52.000Z</time>
      </trkpt>
      <trkpt lat="45.7569" lon="4.62171">
        <ele>758.6</ele>
        <time>2021-09-27T12:57:53.000Z</time>
      </trkpt>
      <trkpt lat="45.75691" lon="4.62172">
        <ele>758.6</ele>
        <time>2021-09-27T12:57:54.000Z</time>
      </trkpt>
      <trkpt lat="45.75691" lon="4.62173">
        <ele>758.8</ele>
        <time>2021-09-27T12:57:55.000Z</time>
      </trkpt>
      <trkpt lat="45.75693" lon="4.62174">
        <ele>758.8</ele>
        <time>2021-09-27T12:57:56.000Z</time>
      </trkpt>
      <trkpt lat="45.75694" lon="4.62176">
        <ele>758.8</ele>
        <time>2021-09-27T12:57:57.000Z</time>
      </trkpt>
      <trkpt lat="45.75695" lon="4.62179">
        <ele>759</ele>
        <time>2021-09-27T12:57:58.000Z</time>
      </trkpt>
      <trkpt lat="45.75696" lon="4.62181">
        <ele>759.4</ele>
        <time>2021-09-27T12:57:59.000Z</time>
      </trkpt>
      <trkpt lat="45.75697" lon="4.62182">
        <ele>759.4</ele>
        <time>2021-09-27T12:58:00.000Z</time>
      </trkpt>
      <trkpt lat="45.75699" lon="4.62184">
        <ele>759.6</ele>
        <time>2021-09-27T12:58:01.000Z</time>
      </trkpt>
      <trkpt lat="45.75699" lon="4.62185">
        <ele>760</ele>
        <time>2021-09-27T12:58:02.000Z</time>
      </trkpt>
      <trkpt lat="45.75702" lon="4.62177">
        <ele>761.4</ele>
        <time>2021-09-27T12:58:44.000Z</time>
      </trkpt>
      <trkpt lat="45.75703" lon="4.62175">
        <ele>761.4</ele>
        <time>2021-09-27T12:58:45.000Z</time>
      </trkpt>
      <trkpt lat="45.75708" lon="4.62169">
        <ele>761.6</ele>
        <time>2021-09-27T12:58:48.000Z</time>
      </trkpt>
      <trkpt lat="45.75715" lon="4.62162">
        <ele>761.6</ele>
        <time>2021-09-27T12:58:52.000Z</time>
      </trkpt>
      <trkpt lat="45.75722" lon="4.62154">
        <ele>761.6</ele>
        <time>2021-09-27T12:58:56.000Z</time>
      </trkpt>
      <trkpt lat="45.75727" lon="4.62145">
        <ele>761.6</ele>
        <time>2021-09-27T12:58:59.000Z</time>
      </trkpt>
      <trkpt lat="45.75728" lon="4.62141">
        <ele>761.6</ele>
        <time>2021-09-27T12:59:00.000Z</time>
      </trkpt>
      <trkpt lat="45.75728" lon="4.62135">
        <ele>761.6</ele>
        <time>2021-09-27T12:59:01.000Z</time>
      </trkpt>
      <trkpt lat="45.75729" lon="4.6213">
        <ele>761.6</ele>
        <time>2021-09-27T12:59:02.000Z</time>
      </trkpt>
      <trkpt lat="45.7573" lon="4.62124">
        <ele>761.6</ele>
        <time>2021-09-27T12:59:03.000Z</time>
      </trkpt>
      <trkpt lat="45.7573" lon="4.62113">
        <ele>761.6</ele>
        <time>2021-09-27T12:59:05.000Z</time>
      </trkpt>
      <trkpt lat="45.7573" lon="4.621">
        <ele>761.4</ele>
        <time>2021-09-27T12:59:07.000Z</time>
      </trkpt>
      <trkpt lat="45.75731" lon="4.62079">
        <ele>760.4</ele>
        <time>2021-09-27T12:59:10.000Z</time>
      </trkpt>
      <trkpt lat="45.75732" lon="4.62072">
        <ele>759.8</ele>
        <time>2021-09-27T12:59:11.000Z</time>
      </trkpt>
      <trkpt lat="45.75732" lon="4.62065">
        <ele>759</ele>
        <time>2021-09-27T12:59:12.000Z</time>
      </trkpt>
      <trkpt lat="45.75735" lon="4.62052">
        <ele>758.2</ele>
        <time>2021-09-27T12:59:14.000Z</time>
      </trkpt>
      <trkpt lat="45.75735" lon="4.62043">
        <ele>757.6</ele>
        <time>2021-09-27T12:59:15.000Z</time>
      </trkpt>
      <trkpt lat="45.75736" lon="4.62037">
        <ele>757.2</ele>
        <time>2021-09-27T12:59:16.000Z</time>
      </trkpt>
      <trkpt lat="45.75736" lon="4.62032">
        <ele>756.4</ele>
        <time>2021-09-27T12:59:17.000Z</time>
      </trkpt>
      <trkpt lat="45.75735" lon="4.62028">
        <ele>756.4</ele>
        <time>2021-09-27T12:59:18.000Z</time>
      </trkpt>
      <trkpt lat="45.75735" lon="4.62025">
        <ele>756</ele>
        <time>2021-09-27T12:59:19.000Z</time>
      </trkpt>
      <trkpt lat="45.75735" lon="4.62022">
        <ele>755.8</ele>
        <time>2021-09-27T12:59:20.000Z</time>
      </trkpt>
      <trkpt lat="45.75735" lon="4.62021">
        <ele>755.4</ele>
        <time>2021-09-27T12:59:21.000Z</time>
      </trkpt>
      <trkpt lat="45.75734" lon="4.6201">
        <ele>752.2</ele>
        <time>2021-09-27T12:59:54.000Z</time>
      </trkpt>
      <trkpt lat="45.75731" lon="4.62">
        <ele>752</ele>
        <time>2021-09-27T12:59:57.000Z</time>
      </trkpt>
      <trkpt lat="45.75728" lon="4.61989">
        <ele>752</ele>
        <time>2021-09-27T13:00:00.000Z</time>
      </trkpt>
      <trkpt lat="45.7572" lon="4.61972">
        <ele>751.8</ele>
        <time>2021-09-27T13:00:05.000Z</time>
      </trkpt>
      <trkpt lat="45.75708" lon="4.61946">
        <ele>751.8</ele>
        <time>2021-09-27T13:00:12.000Z</time>
      </trkpt>
      <trkpt lat="45.75693" lon="4.61917">
        <ele>751.8</ele>
        <time>2021-09-27T13:00:19.000Z</time>
      </trkpt>
      <trkpt lat="45.75691" lon="4.61913">
        <ele>751.8</ele>
        <time>2021-09-27T13:00:20.000Z</time>
      </trkpt>
      <trkpt lat="45.75671" lon="4.61873">
        <ele>751.6</ele>
        <time>2021-09-27T13:00:29.000Z</time>
      </trkpt>
      <trkpt lat="45.75666" lon="4.61864">
        <ele>751.4</ele>
        <time>2021-09-27T13:00:31.000Z</time>
      </trkpt>
      <trkpt lat="45.75644" lon="4.61818">
        <ele>751</ele>
        <time>2021-09-27T13:00:41.000Z</time>
      </trkpt>
      <trkpt lat="45.75642" lon="4.61813">
        <ele>751</ele>
        <time>2021-09-27T13:00:42.000Z</time>
      </trkpt>
      <trkpt lat="45.75638" lon="4.61803">
        <ele>751</ele>
        <time>2021-09-27T13:00:44.000Z</time>
      </trkpt>
      <trkpt lat="45.75632" lon="4.6179">
        <ele>751</ele>
        <time>2021-09-27T13:00:47.000Z</time>
      </trkpt>
      <trkpt lat="45.75628" lon="4.61782">
        <ele>750.8</ele>
        <time>2021-09-27T13:00:49.000Z</time>
      </trkpt>
      <trkpt lat="45.75627" lon="4.61778">
        <ele>750.8</ele>
        <time>2021-09-27T13:00:50.000Z</time>
      </trkpt>
      <trkpt lat="45.75626" lon="4.61776">
        <ele>750.8</ele>
        <time>2021-09-27T13:00:51.000Z</time>
      </trkpt>
      <trkpt lat="45.75625" lon="4.61774">
        <ele>750.8</ele>
        <time>2021-09-27T13:00:52.000Z</time>
      </trkpt>
      <trkpt lat="45.75623" lon="4.61773">
        <ele>750.8</ele>
        <time>2021-09-27T13:00:53.000Z</time>
      </trkpt>
      <trkpt lat="45.75622" lon="4.61773">
        <ele>750.8</ele>
        <time>2021-09-27T13:00:54.000Z</time>
      </trkpt>
      <trkpt lat="45.75616" lon="4.61776">
        <ele>750.8</ele>
        <time>2021-09-27T13:00:57.000Z</time>
      </trkpt>
      <trkpt lat="45.75614" lon="4.61778">
        <ele>750.8</ele>
        <time>2021-09-27T13:00:58.000Z</time>
      </trkpt>
      <trkpt lat="45.75612" lon="4.6178">
        <ele>750.8</ele>
        <time>2021-09-27T13:00:59.000Z</time>
      </trkpt>
      <trkpt lat="45.7561" lon="4.61783">
        <ele>750.8</ele>
        <time>2021-09-27T13:01:00.000Z</time>
      </trkpt>
      <trkpt lat="45.75601" lon="4.61791">
        <ele>751</ele>
        <time>2021-09-27T13:01:04.000Z</time>
      </trkpt>
      <trkpt lat="45.756" lon="4.61792">
        <ele>751</ele>
        <time>2021-09-27T13:01:05.000Z</time>
      </trkpt>
      <trkpt lat="45.75599" lon="4.61793">
        <ele>751</ele>
        <time>2021-09-27T13:01:06.000Z</time>
      </trkpt>
      <trkpt lat="45.75597" lon="4.61793">
        <ele>751</ele>
        <time>2021-09-27T13:01:07.000Z</time>
      </trkpt>
      <trkpt lat="45.75596" lon="4.61793">
        <ele>751.2</ele>
        <time>2021-09-27T13:01:08.000Z</time>
      </trkpt>
      <trkpt lat="45.75595" lon="4.61792">
        <ele>751.2</ele>
        <time>2021-09-27T13:01:09.000Z</time>
      </trkpt>
      <trkpt lat="45.75593" lon="4.61792">
        <ele>751.2</ele>
        <time>2021-09-27T13:01:10.000Z</time>
      </trkpt>
      <trkpt lat="45.75591" lon="4.61791">
        <ele>751.2</ele>
        <time>2021-09-27T13:01:11.000Z</time>
      </trkpt>
      <trkpt lat="45.7559" lon="4.61791">
        <ele>751.2</ele>
        <time>2021-09-27T13:01:12.000Z</time>
      </trkpt>
      <trkpt lat="45.75589" lon="4.6179">
        <ele>751.2</ele>
        <time>2021-09-27T13:01:13.000Z</time>
      </trkpt>
      <trkpt lat="45.75588" lon="4.61788">
        <ele>751.4</ele>
        <time>2021-09-27T13:01:14.000Z</time>
      </trkpt>
      <trkpt lat="45.75586" lon="4.61786">
        <ele>751.4</ele>
        <time>2021-09-27T13:01:15.000Z</time>
      </trkpt>
      <trkpt lat="45.75578" lon="4.61771">
        <ele>752.2</ele>
        <time>2021-09-27T13:01:24.000Z</time>
      </trkpt>
      <trkpt lat="45.75571" lon="4.61761">
        <ele>753</ele>
        <time>2021-09-27T13:01:30.000Z</time>
      </trkpt>
      <trkpt lat="45.75568" lon="4.61755">
        <ele>753.2</ele>
        <time>2021-09-27T13:01:33.000Z</time>
      </trkpt>
      <trkpt lat="45.75565" lon="4.61751">
        <ele>753.4</ele>
        <time>2021-09-27T13:01:35.000Z</time>
      </trkpt>
      <trkpt lat="45.75564" lon="4.61749">
        <ele>753.4</ele>
        <time>2021-09-27T13:01:36.000Z</time>
      </trkpt>
      <trkpt lat="45.75561" lon="4.61746">
        <ele>753.6</ele>
        <time>2021-09-27T13:01:38.000Z</time>
      </trkpt>
      <trkpt lat="45.7556" lon="4.61744">
        <ele>753.8</ele>
        <time>2021-09-27T13:01:39.000Z</time>
      </trkpt>
      <trkpt lat="45.75559" lon="4.61743">
        <ele>754</ele>
        <time>2021-09-27T13:01:40.000Z</time>
      </trkpt>
      <trkpt lat="45.75558" lon="4.61742">
        <ele>754</ele>
        <time>2021-09-27T13:01:41.000Z</time>
      </trkpt>
      <trkpt lat="45.75555" lon="4.61738">
        <ele>754.2</ele>
        <time>2021-09-27T13:01:43.000Z</time>
      </trkpt>
      <trkpt lat="45.75554" lon="4.61737">
        <ele>754.4</ele>
        <time>2021-09-27T13:01:44.000Z</time>
      </trkpt>
      <trkpt lat="45.75554" lon="4.61735">
        <ele>754.4</ele>
        <time>2021-09-27T13:01:45.000Z</time>
      </trkpt>
      <trkpt lat="45.75553" lon="4.61734">
        <ele>754.6</ele>
        <time>2021-09-27T13:01:46.000Z</time>
      </trkpt>
      <trkpt lat="45.75552" lon="4.61732">
        <ele>754.8</ele>
        <time>2021-09-27T13:01:47.000Z</time>
      </trkpt>
      <trkpt lat="45.75551" lon="4.6173">
        <ele>755</ele>
        <time>2021-09-27T13:01:48.000Z</time>
      </trkpt>
      <trkpt lat="45.75551" lon="4.61729">
        <ele>755.2</ele>
        <time>2021-09-27T13:01:49.000Z</time>
      </trkpt>
      <trkpt lat="45.75549" lon="4.61728">
        <ele>755.2</ele>
        <time>2021-09-27T13:01:50.000Z</time>
      </trkpt>
      <trkpt lat="45.75548" lon="4.61726">
        <ele>755.4</ele>
        <time>2021-09-27T13:01:51.000Z</time>
      </trkpt>
      <trkpt lat="45.75547" lon="4.61724">
        <ele>755.8</ele>
        <time>2021-09-27T13:01:52.000Z</time>
      </trkpt>
      <trkpt lat="45.75546" lon="4.61722">
        <ele>755.8</ele>
        <time>2021-09-27T13:01:53.000Z</time>
      </trkpt>
      <trkpt lat="45.75545" lon="4.61721">
        <ele>756.2</ele>
        <time>2021-09-27T13:01:54.000Z</time>
      </trkpt>
      <trkpt lat="45.75544" lon="4.61719">
        <ele>756.2</ele>
        <time>2021-09-27T13:01:55.000Z</time>
      </trkpt>
      <trkpt lat="45.75543" lon="4.61717">
        <ele>756.4</ele>
        <time>2021-09-27T13:01:56.000Z</time>
      </trkpt>
      <trkpt lat="45.75542" lon="4.61715">
        <ele>756.6</ele>
        <time>2021-09-27T13:01:57.000Z</time>
      </trkpt>
      <trkpt lat="45.75541" lon="4.61714">
        <ele>756.6</ele>
        <time>2021-09-27T13:01:58.000Z</time>
      </trkpt>
      <trkpt lat="45.7554" lon="4.61712">
        <ele>756.8</ele>
        <time>2021-09-27T13:01:59.000Z</time>
      </trkpt>
      <trkpt lat="45.75539" lon="4.61711">
        <ele>756.8</ele>
        <time>2021-09-27T13:02:00.000Z</time>
      </trkpt>
      <trkpt lat="45.75538" lon="4.61709">
        <ele>756.8</ele>
        <time>2021-09-27T13:02:01.000Z</time>
      </trkpt>
      <trkpt lat="45.75536" lon="4.61708">
        <ele>757</ele>
        <time>2021-09-27T13:02:02.000Z</time>
      </trkpt>
      <trkpt lat="45.75535" lon="4.61707">
        <ele>757.2</ele>
        <time>2021-09-27T13:02:03.000Z</time>
      </trkpt>
      <trkpt lat="45.75534" lon="4.61706">
        <ele>757.4</ele>
        <time>2021-09-27T13:02:04.000Z</time>
      </trkpt>
      <trkpt lat="45.75533" lon="4.61704">
        <ele>757.4</ele>
        <time>2021-09-27T13:02:05.000Z</time>
      </trkpt>
      <trkpt lat="45.75532" lon="4.61702">
        <ele>757.4</ele>
        <time>2021-09-27T13:02:06.000Z</time>
      </trkpt>
      <trkpt lat="45.75531" lon="4.617">
        <ele>757.6</ele>
        <time>2021-09-27T13:02:07.000Z</time>
      </trkpt>
      <trkpt lat="45.7553" lon="4.61698">
        <ele>757.8</ele>
        <time>2021-09-27T13:02:08.000Z</time>
      </trkpt>
      <trkpt lat="45.75529" lon="4.61696">
        <ele>758</ele>
        <time>2021-09-27T13:02:09.000Z</time>
      </trkpt>
      <trkpt lat="45.75529" lon="4.61695">
        <ele>758.2</ele>
        <time>2021-09-27T13:02:10.000Z</time>
      </trkpt>
      <trkpt lat="45.75527" lon="4.61693">
        <ele>758.4</ele>
        <time>2021-09-27T13:02:11.000Z</time>
      </trkpt>
      <trkpt lat="45.75526" lon="4.61692">
        <ele>758.6</ele>
        <time>2021-09-27T13:02:12.000Z</time>
      </trkpt>
      <trkpt lat="45.75525" lon="4.61691">
        <ele>758.8</ele>
        <time>2021-09-27T13:02:13.000Z</time>
      </trkpt>
      <trkpt lat="45.75523" lon="4.61689">
        <ele>759</ele>
        <time>2021-09-27T13:02:14.000Z</time>
      </trkpt>
      <trkpt lat="45.75522" lon="4.61688">
        <ele>759</ele>
        <time>2021-09-27T13:02:15.000Z</time>
      </trkpt>
      <trkpt lat="45.75521" lon="4.61687">
        <ele>759.2</ele>
        <time>2021-09-27T13:02:16.000Z</time>
      </trkpt>
      <trkpt lat="45.75519" lon="4.61686">
        <ele>759.4</ele>
        <time>2021-09-27T13:02:17.000Z</time>
      </trkpt>
      <trkpt lat="45.75518" lon="4.61684">
        <ele>759.6</ele>
        <time>2021-09-27T13:02:18.000Z</time>
      </trkpt>
      <trkpt lat="45.75517" lon="4.61683">
        <ele>759.8</ele>
        <time>2021-09-27T13:02:19.000Z</time>
      </trkpt>
      <trkpt lat="45.75515" lon="4.61682">
        <ele>760</ele>
        <time>2021-09-27T13:02:20.000Z</time>
      </trkpt>
      <trkpt lat="45.75513" lon="4.61681">
        <ele>760</ele>
        <time>2021-09-27T13:02:21.000Z</time>
      </trkpt>
      <trkpt lat="45.75512" lon="4.61679">
        <ele>760.2</ele>
        <time>2021-09-27T13:02:22.000Z</time>
      </trkpt>
      <trkpt lat="45.7551" lon="4.61678">
        <ele>760.2</ele>
        <time>2021-09-27T13:02:23.000Z</time>
      </trkpt>
      <trkpt lat="45.75509" lon="4.61676">
        <ele>760.4</ele>
        <time>2021-09-27T13:02:24.000Z</time>
      </trkpt>
      <trkpt lat="45.75508" lon="4.61675">
        <ele>760.4</ele>
        <time>2021-09-27T13:02:25.000Z</time>
      </trkpt>
      <trkpt lat="45.75507" lon="4.61674">
        <ele>760.6</ele>
        <time>2021-09-27T13:02:26.000Z</time>
      </trkpt>
      <trkpt lat="45.75506" lon="4.61673">
        <ele>760.6</ele>
        <time>2021-09-27T13:02:27.000Z</time>
      </trkpt>
      <trkpt lat="45.75504" lon="4.61672">
        <ele>760.6</ele>
        <time>2021-09-27T13:02:28.000Z</time>
      </trkpt>
      <trkpt lat="45.75502" lon="4.6167">
        <ele>761</ele>
        <time>2021-09-27T13:02:29.000Z</time>
      </trkpt>
      <trkpt lat="45.755" lon="4.61669">
        <ele>761</ele>
        <time>2021-09-27T13:02:30.000Z</time>
      </trkpt>
      <trkpt lat="45.75498" lon="4.61667">
        <ele>761.2</ele>
        <time>2021-09-27T13:02:31.000Z</time>
      </trkpt>
      <trkpt lat="45.75497" lon="4.61667">
        <ele>761.2</ele>
        <time>2021-09-27T13:02:32.000Z</time>
      </trkpt>
      <trkpt lat="45.75495" lon="4.61665">
        <ele>761.4</ele>
        <time>2021-09-27T13:02:33.000Z</time>
      </trkpt>
      <trkpt lat="45.75493" lon="4.61665">
        <ele>761.4</ele>
        <time>2021-09-27T13:02:34.000Z</time>
      </trkpt>
      <trkpt lat="45.75491" lon="4.61663">
        <ele>761.8</ele>
        <time>2021-09-27T13:02:35.000Z</time>
      </trkpt>
      <trkpt lat="45.7549" lon="4.61662">
        <ele>762</ele>
        <time>2021-09-27T13:02:36.000Z</time>
      </trkpt>
      <trkpt lat="45.75488" lon="4.61662">
        <ele>762</ele>
        <time>2021-09-27T13:02:37.000Z</time>
      </trkpt>
      <trkpt lat="45.75487" lon="4.6166">
        <ele>762.2</ele>
        <time>2021-09-27T13:02:38.000Z</time>
      </trkpt>
      <trkpt lat="45.75485" lon="4.61659">
        <ele>762.2</ele>
        <time>2021-09-27T13:02:39.000Z</time>
      </trkpt>
      <trkpt lat="45.75484" lon="4.61657">
        <ele>762.4</ele>
        <time>2021-09-27T13:02:40.000Z</time>
      </trkpt>
      <trkpt lat="45.75484" lon="4.61655">
        <ele>762.6</ele>
        <time>2021-09-27T13:02:41.000Z</time>
      </trkpt>
      <trkpt lat="45.75482" lon="4.61654">
        <ele>762.6</ele>
        <time>2021-09-27T13:02:42.000Z</time>
      </trkpt>
      <trkpt lat="45.7548" lon="4.61654">
        <ele>762.8</ele>
        <time>2021-09-27T13:02:43.000Z</time>
      </trkpt>
      <trkpt lat="45.75479" lon="4.61653">
        <ele>763</ele>
        <time>2021-09-27T13:02:44.000Z</time>
      </trkpt>
      <trkpt lat="45.75478" lon="4.61652">
        <ele>763.2</ele>
        <time>2021-09-27T13:02:45.000Z</time>
      </trkpt>
      <trkpt lat="45.75476" lon="4.61652">
        <ele>763.4</ele>
        <time>2021-09-27T13:02:46.000Z</time>
      </trkpt>
      <trkpt lat="45.75474" lon="4.61651">
        <ele>763.6</ele>
        <time>2021-09-27T13:02:47.000Z</time>
      </trkpt>
      <trkpt lat="45.75473" lon="4.6165">
        <ele>763.8</ele>
        <time>2021-09-27T13:02:48.000Z</time>
      </trkpt>
      <trkpt lat="45.75471" lon="4.61649">
        <ele>763.8</ele>
        <time>2021-09-27T13:02:49.000Z</time>
      </trkpt>
      <trkpt lat="45.7547" lon="4.61648">
        <ele>764</ele>
        <time>2021-09-27T13:02:50.000Z</time>
      </trkpt>
      <trkpt lat="45.75468" lon="4.61647">
        <ele>764</ele>
        <time>2021-09-27T13:02:51.000Z</time>
      </trkpt>
      <trkpt lat="45.75467" lon="4.61647">
        <ele>764.2</ele>
        <time>2021-09-27T13:02:52.000Z</time>
      </trkpt>
      <trkpt lat="45.75465" lon="4.61646">
        <ele>764.4</ele>
        <time>2021-09-27T13:02:53.000Z</time>
      </trkpt>
      <trkpt lat="45.75464" lon="4.61646">
        <ele>764.6</ele>
        <time>2021-09-27T13:02:54.000Z</time>
      </trkpt>
      <trkpt lat="45.75462" lon="4.61646">
        <ele>764.8</ele>
        <time>2021-09-27T13:02:55.000Z</time>
      </trkpt>
      <trkpt lat="45.7546" lon="4.61646">
        <ele>765</ele>
        <time>2021-09-27T13:02:56.000Z</time>
      </trkpt>
      <trkpt lat="45.75459" lon="4.61646">
        <ele>765.4</ele>
        <time>2021-09-27T13:02:57.000Z</time>
      </trkpt>
      <trkpt lat="45.75458" lon="4.61645">
        <ele>765.6</ele>
        <time>2021-09-27T13:02:58.000Z</time>
      </trkpt>
      <trkpt lat="45.75456" lon="4.61644">
        <ele>765.6</ele>
        <time>2021-09-27T13:02:59.000Z</time>
      </trkpt>
      <trkpt lat="45.75455" lon="4.61643">
        <ele>765.8</ele>
        <time>2021-09-27T13:03:00.000Z</time>
      </trkpt>
      <trkpt lat="45.75454" lon="4.61642">
        <ele>766</ele>
        <time>2021-09-27T13:03:01.000Z</time>
      </trkpt>
      <trkpt lat="45.75452" lon="4.61642">
        <ele>766.4</ele>
        <time>2021-09-27T13:03:03.000Z</time>
      </trkpt>
      <trkpt lat="45.7545" lon="4.61641">
        <ele>766.6</ele>
        <time>2021-09-27T13:03:04.000Z</time>
      </trkpt>
      <trkpt lat="45.75448" lon="4.6164">
        <ele>766.8</ele>
        <time>2021-09-27T13:03:05.000Z</time>
      </trkpt>
      <trkpt lat="45.75446" lon="4.61639">
        <ele>767</ele>
        <time>2021-09-27T13:03:06.000Z</time>
      </trkpt>
      <trkpt lat="45.75444" lon="4.61639">
        <ele>767.2</ele>
        <time>2021-09-27T13:03:07.000Z</time>
      </trkpt>
      <trkpt lat="45.75443" lon="4.61639">
        <ele>767.4</ele>
        <time>2021-09-27T13:03:08.000Z</time>
      </trkpt>
      <trkpt lat="45.75442" lon="4.61638">
        <ele>767.6</ele>
        <time>2021-09-27T13:03:09.000Z</time>
      </trkpt>
      <trkpt lat="45.7544" lon="4.61638">
        <ele>767.8</ele>
        <time>2021-09-27T13:03:10.000Z</time>
      </trkpt>
      <trkpt lat="45.75438" lon="4.61638">
        <ele>768</ele>
        <time>2021-09-27T13:03:11.000Z</time>
      </trkpt>
      <trkpt lat="45.75436" lon="4.61638">
        <ele>768.2</ele>
        <time>2021-09-27T13:03:12.000Z</time>
      </trkpt>
      <trkpt lat="45.75434" lon="4.61638">
        <ele>768.4</ele>
        <time>2021-09-27T13:03:13.000Z</time>
      </trkpt>
      <trkpt lat="45.75433" lon="4.61638">
        <ele>768.6</ele>
        <time>2021-09-27T13:03:14.000Z</time>
      </trkpt>
      <trkpt lat="45.75431" lon="4.61637">
        <ele>768.6</ele>
        <time>2021-09-27T13:03:15.000Z</time>
      </trkpt>
      <trkpt lat="45.75429" lon="4.61637">
        <ele>768.6</ele>
        <time>2021-09-27T13:03:16.000Z</time>
      </trkpt>
      <trkpt lat="45.75427" lon="4.61637">
        <ele>769</ele>
        <time>2021-09-27T13:03:17.000Z</time>
      </trkpt>
      <trkpt lat="45.75426" lon="4.61636">
        <ele>769.2</ele>
        <time>2021-09-27T13:03:18.000Z</time>
      </trkpt>
      <trkpt lat="45.75424" lon="4.61635">
        <ele>769.4</ele>
        <time>2021-09-27T13:03:19.000Z</time>
      </trkpt>
      <trkpt lat="45.75423" lon="4.61634">
        <ele>769.4</ele>
        <time>2021-09-27T13:03:20.000Z</time>
      </trkpt>
      <trkpt lat="45.75421" lon="4.61633">
        <ele>769.6</ele>
        <time>2021-09-27T13:03:21.000Z</time>
      </trkpt>
      <trkpt lat="45.75419" lon="4.61632">
        <ele>769.8</ele>
        <time>2021-09-27T13:03:22.000Z</time>
      </trkpt>
      <trkpt lat="45.75418" lon="4.61632">
        <ele>770</ele>
        <time>2021-09-27T13:03:23.000Z</time>
      </trkpt>
      <trkpt lat="45.75416" lon="4.6163">
        <ele>770</ele>
        <time>2021-09-27T13:03:24.000Z</time>
      </trkpt>
      <trkpt lat="45.75414" lon="4.6163">
        <ele>770</ele>
        <time>2021-09-27T13:03:25.000Z</time>
      </trkpt>
      <trkpt lat="45.75413" lon="4.61629">
        <ele>770.2</ele>
        <time>2021-09-27T13:03:26.000Z</time>
      </trkpt>
      <trkpt lat="45.75412" lon="4.61627">
        <ele>770.4</ele>
        <time>2021-09-27T13:03:27.000Z</time>
      </trkpt>
      <trkpt lat="45.7541" lon="4.61626">
        <ele>770.4</ele>
        <time>2021-09-27T13:03:28.000Z</time>
      </trkpt>
      <trkpt lat="45.75408" lon="4.61625">
        <ele>770.6</ele>
        <time>2021-09-27T13:03:29.000Z</time>
      </trkpt>
      <trkpt lat="45.75406" lon="4.61623">
        <ele>770.6</ele>
        <time>2021-09-27T13:03:30.000Z</time>
      </trkpt>
      <trkpt lat="45.75405" lon="4.61622">
        <ele>770.8</ele>
        <time>2021-09-27T13:03:31.000Z</time>
      </trkpt>
      <trkpt lat="45.75404" lon="4.61621">
        <ele>771</ele>
        <time>2021-09-27T13:03:32.000Z</time>
      </trkpt>
      <trkpt lat="45.75403" lon="4.6162">
        <ele>771</ele>
        <time>2021-09-27T13:03:33.000Z</time>
      </trkpt>
      <trkpt lat="45.75401" lon="4.61619">
        <ele>771</ele>
        <time>2021-09-27T13:03:34.000Z</time>
      </trkpt>
      <trkpt lat="45.75399" lon="4.61618">
        <ele>771.2</ele>
        <time>2021-09-27T13:03:35.000Z</time>
      </trkpt>
      <trkpt lat="45.75398" lon="4.61617">
        <ele>771.2</ele>
        <time>2021-09-27T13:03:36.000Z</time>
      </trkpt>
      <trkpt lat="45.75396" lon="4.61616">
        <ele>771.4</ele>
        <time>2021-09-27T13:03:37.000Z</time>
      </trkpt>
      <trkpt lat="45.75395" lon="4.61615">
        <ele>771.4</ele>
        <time>2021-09-27T13:03:38.000Z</time>
      </trkpt>
      <trkpt lat="45.75394" lon="4.61614">
        <ele>771.4</ele>
        <time>2021-09-27T13:03:39.000Z</time>
      </trkpt>
      <trkpt lat="45.75392" lon="4.61613">
        <ele>771.6</ele>
        <time>2021-09-27T13:03:40.000Z</time>
      </trkpt>
      <trkpt lat="45.75391" lon="4.61612">
        <ele>771.8</ele>
        <time>2021-09-27T13:03:41.000Z</time>
      </trkpt>
      <trkpt lat="45.75388" lon="4.61611">
        <ele>772</ele>
        <time>2021-09-27T13:03:42.000Z</time>
      </trkpt>
      <trkpt lat="45.75387" lon="4.6161">
        <ele>772.2</ele>
        <time>2021-09-27T13:03:43.000Z</time>
      </trkpt>
      <trkpt lat="45.75386" lon="4.61609">
        <ele>772.2</ele>
        <time>2021-09-27T13:03:44.000Z</time>
      </trkpt>
      <trkpt lat="45.75385" lon="4.61608">
        <ele>772.4</ele>
        <time>2021-09-27T13:03:45.000Z</time>
      </trkpt>
      <trkpt lat="45.75383" lon="4.61607">
        <ele>772.4</ele>
        <time>2021-09-27T13:03:46.000Z</time>
      </trkpt>
      <trkpt lat="45.75382" lon="4.61606">
        <ele>772.4</ele>
        <time>2021-09-27T13:03:47.000Z</time>
      </trkpt>
      <trkpt lat="45.75381" lon="4.61606">
        <ele>772.6</ele>
        <time>2021-09-27T13:03:48.000Z</time>
      </trkpt>
      <trkpt lat="45.75379" lon="4.61605">
        <ele>772.6</ele>
        <time>2021-09-27T13:03:49.000Z</time>
      </trkpt>
      <trkpt lat="45.75378" lon="4.61603">
        <ele>772.8</ele>
        <time>2021-09-27T13:03:50.000Z</time>
      </trkpt>
      <trkpt lat="45.75377" lon="4.61602">
        <ele>772.8</ele>
        <time>2021-09-27T13:03:51.000Z</time>
      </trkpt>
      <trkpt lat="45.75374" lon="4.616">
        <ele>773</ele>
        <time>2021-09-27T13:03:52.000Z</time>
      </trkpt>
      <trkpt lat="45.75372" lon="4.61599">
        <ele>773</ele>
        <time>2021-09-27T13:03:53.000Z</time>
      </trkpt>
      <trkpt lat="45.7537" lon="4.61598">
        <ele>773.2</ele>
        <time>2021-09-27T13:03:54.000Z</time>
      </trkpt>
      <trkpt lat="45.75368" lon="4.61596">
        <ele>773.2</ele>
        <time>2021-09-27T13:03:55.000Z</time>
      </trkpt>
      <trkpt lat="45.75367" lon="4.61594">
        <ele>773.4</ele>
        <time>2021-09-27T13:03:56.000Z</time>
      </trkpt>
      <trkpt lat="45.75365" lon="4.61593">
        <ele>773.4</ele>
        <time>2021-09-27T13:03:57.000Z</time>
      </trkpt>
      <trkpt lat="45.75364" lon="4.61592">
        <ele>773.6</ele>
        <time>2021-09-27T13:03:58.000Z</time>
      </trkpt>
      <trkpt lat="45.75361" lon="4.6159">
        <ele>773.6</ele>
        <time>2021-09-27T13:03:59.000Z</time>
      </trkpt>
      <trkpt lat="45.75358" lon="4.61589">
        <ele>773.8</ele>
        <time>2021-09-27T13:04:00.000Z</time>
      </trkpt>
      <trkpt lat="45.75356" lon="4.61588">
        <ele>774</ele>
        <time>2021-09-27T13:04:01.000Z</time>
      </trkpt>
      <trkpt lat="45.7535" lon="4.61586">
        <ele>774.2</ele>
        <time>2021-09-27T13:04:04.000Z</time>
      </trkpt>
      <trkpt lat="45.75346" lon="4.61585">
        <ele>774.4</ele>
        <time>2021-09-27T13:04:06.000Z</time>
      </trkpt>
      <trkpt lat="45.75341" lon="4.61584">
        <ele>774.6</ele>
        <time>2021-09-27T13:04:08.000Z</time>
      </trkpt>
      <trkpt lat="45.75338" lon="4.61583">
        <ele>774.6</ele>
        <time>2021-09-27T13:04:09.000Z</time>
      </trkpt>
      <trkpt lat="45.75336" lon="4.61583">
        <ele>774.8</ele>
        <time>2021-09-27T13:04:10.000Z</time>
      </trkpt>
      <trkpt lat="45.75334" lon="4.61583">
        <ele>774.8</ele>
        <time>2021-09-27T13:04:11.000Z</time>
      </trkpt>
      <trkpt lat="45.75311" lon="4.61578">
        <ele>775</ele>
        <time>2021-09-27T13:04:18.000Z</time>
      </trkpt>
      <trkpt lat="45.75304" lon="4.61576">
        <ele>775</ele>
        <time>2021-09-27T13:04:20.000Z</time>
      </trkpt>
      <trkpt lat="45.75301" lon="4.61574">
        <ele>775</ele>
        <time>2021-09-27T13:04:21.000Z</time>
      </trkpt>
      <trkpt lat="45.75295" lon="4.61568">
        <ele>775</ele>
        <time>2021-09-27T13:04:24.000Z</time>
      </trkpt>
      <trkpt lat="45.75294" lon="4.61566">
        <ele>775</ele>
        <time>2021-09-27T13:04:25.000Z</time>
      </trkpt>
      <trkpt lat="45.75294" lon="4.61565">
        <ele>775</ele>
        <time>2021-09-27T13:04:26.000Z</time>
      </trkpt>
      <trkpt lat="45.75293" lon="4.61561">
        <ele>774.8</ele>
        <time>2021-09-27T13:04:27.000Z</time>
      </trkpt>
      <trkpt lat="45.75292" lon="4.61558">
        <ele>774.8</ele>
        <time>2021-09-27T13:04:28.000Z</time>
      </trkpt>
      <trkpt lat="45.75292" lon="4.61556">
        <ele>774.8</ele>
        <time>2021-09-27T13:04:29.000Z</time>
      </trkpt>
      <trkpt lat="45.75287" lon="4.61537">
        <ele>774.4</ele>
        <time>2021-09-27T13:04:35.000Z</time>
      </trkpt>
      <trkpt lat="45.75287" lon="4.61533">
        <ele>774</ele>
        <time>2021-09-27T13:04:36.000Z</time>
      </trkpt>
      <trkpt lat="45.75284" lon="4.61519">
        <ele>773.2</ele>
        <time>2021-09-27T13:04:40.000Z</time>
      </trkpt>
      <trkpt lat="45.75281" lon="4.615">
        <ele>772.2</ele>
        <time>2021-09-27T13:04:45.000Z</time>
      </trkpt>
      <trkpt lat="45.7528" lon="4.61496">
        <ele>772.2</ele>
        <time>2021-09-27T13:04:46.000Z</time>
      </trkpt>
      <trkpt lat="45.75276" lon="4.6147">
        <ele>771</ele>
        <time>2021-09-27T13:04:51.000Z</time>
      </trkpt>
      <trkpt lat="45.75275" lon="4.61465">
        <ele>770.6</ele>
        <time>2021-09-27T13:04:52.000Z</time>
      </trkpt>
      <trkpt lat="45.75275" lon="4.61453">
        <ele>770</ele>
        <time>2021-09-27T13:04:54.000Z</time>
      </trkpt>
      <trkpt lat="45.75273" lon="4.61426">
        <ele>769</ele>
        <time>2021-09-27T13:04:58.000Z</time>
      </trkpt>
      <trkpt lat="45.75274" lon="4.6141">
        <ele>768.4</ele>
        <time>2021-09-27T13:05:00.000Z</time>
      </trkpt>
      <trkpt lat="45.75274" lon="4.61402">
        <ele>768</ele>
        <time>2021-09-27T13:05:01.000Z</time>
      </trkpt>
      <trkpt lat="45.75274" lon="4.61395">
        <ele>767.6</ele>
        <time>2021-09-27T13:05:02.000Z</time>
      </trkpt>
      <trkpt lat="45.75274" lon="4.61388">
        <ele>767.2</ele>
        <time>2021-09-27T13:05:03.000Z</time>
      </trkpt>
      <trkpt lat="45.75274" lon="4.61382">
        <ele>766.8</ele>
        <time>2021-09-27T13:05:04.000Z</time>
      </trkpt>
      <trkpt lat="45.75273" lon="4.61376">
        <ele>766.6</ele>
        <time>2021-09-27T13:05:05.000Z</time>
      </trkpt>
      <trkpt lat="45.75272" lon="4.6137">
        <ele>766</ele>
        <time>2021-09-27T13:05:06.000Z</time>
      </trkpt>
      <trkpt lat="45.75272" lon="4.61363">
        <ele>765.8</ele>
        <time>2021-09-27T13:05:07.000Z</time>
      </trkpt>
      <trkpt lat="45.75271" lon="4.61357">
        <ele>765.4</ele>
        <time>2021-09-27T13:05:08.000Z</time>
      </trkpt>
      <trkpt lat="45.7527" lon="4.61351">
        <ele>765.4</ele>
        <time>2021-09-27T13:05:09.000Z</time>
      </trkpt>
      <trkpt lat="45.7527" lon="4.61343">
        <ele>765.2</ele>
        <time>2021-09-27T13:05:10.000Z</time>
      </trkpt>
      <trkpt lat="45.75269" lon="4.61332">
        <ele>764.8</ele>
        <time>2021-09-27T13:05:12.000Z</time>
      </trkpt>
      <trkpt lat="45.75266" lon="4.61318">
        <ele>764.6</ele>
        <time>2021-09-27T13:05:14.000Z</time>
      </trkpt>
      <trkpt lat="45.75258" lon="4.61278">
        <ele>763</ele>
        <time>2021-09-27T13:05:19.000Z</time>
      </trkpt>
      <trkpt lat="45.75256" lon="4.61268">
        <ele>762.4</ele>
        <time>2021-09-27T13:05:20.000Z</time>
      </trkpt>
      <trkpt lat="45.75256" lon="4.61262">
        <ele>762</ele>
        <time>2021-09-27T13:05:21.000Z</time>
      </trkpt>
      <trkpt lat="45.75255" lon="4.61254">
        <ele>761.8</ele>
        <time>2021-09-27T13:05:22.000Z</time>
      </trkpt>
      <trkpt lat="45.75253" lon="4.61247">
        <ele>761</ele>
        <time>2021-09-27T13:05:23.000Z</time>
      </trkpt>
      <trkpt lat="45.75251" lon="4.61229">
        <ele>760.2</ele>
        <time>2021-09-27T13:05:25.000Z</time>
      </trkpt>
      <trkpt lat="45.75249" lon="4.61221">
        <ele>759.8</ele>
        <time>2021-09-27T13:05:26.000Z</time>
      </trkpt>
      <trkpt lat="45.75245" lon="4.61204">
        <ele>759</ele>
        <time>2021-09-27T13:05:28.000Z</time>
      </trkpt>
      <trkpt lat="45.75243" lon="4.61196">
        <ele>758.4</ele>
        <time>2021-09-27T13:05:29.000Z</time>
      </trkpt>
      <trkpt lat="45.7524" lon="4.61191">
        <ele>757.6</ele>
        <time>2021-09-27T13:05:30.000Z</time>
      </trkpt>
      <trkpt lat="45.75237" lon="4.61186">
        <ele>757.2</ele>
        <time>2021-09-27T13:05:31.000Z</time>
      </trkpt>
      <trkpt lat="45.75232" lon="4.61176">
        <ele>756.4</ele>
        <time>2021-09-27T13:05:32.000Z</time>
      </trkpt>
      <trkpt lat="45.75226" lon="4.61171">
        <ele>755.8</ele>
        <time>2021-09-27T13:05:33.000Z</time>
      </trkpt>
      <trkpt lat="45.75216" lon="4.61159">
        <ele>755.2</ele>
        <time>2021-09-27T13:05:35.000Z</time>
      </trkpt>
      <trkpt lat="45.75206" lon="4.61149">
        <ele>754.8</ele>
        <time>2021-09-27T13:05:37.000Z</time>
      </trkpt>
      <trkpt lat="45.75201" lon="4.61143">
        <ele>754</ele>
        <time>2021-09-27T13:05:38.000Z</time>
      </trkpt>
      <trkpt lat="45.75198" lon="4.61139">
        <ele>753.4</ele>
        <time>2021-09-27T13:05:39.000Z</time>
      </trkpt>
      <trkpt lat="45.75194" lon="4.61135">
        <ele>753</ele>
        <time>2021-09-27T13:05:40.000Z</time>
      </trkpt>
      <trkpt lat="45.75187" lon="4.61127">
        <ele>752.6</ele>
        <time>2021-09-27T13:05:41.000Z</time>
      </trkpt>
      <trkpt lat="45.75182" lon="4.61121">
        <ele>752.2</ele>
        <time>2021-09-27T13:05:42.000Z</time>
      </trkpt>
      <trkpt lat="45.75178" lon="4.61115">
        <ele>752</ele>
        <time>2021-09-27T13:05:43.000Z</time>
      </trkpt>
      <trkpt lat="45.75174" lon="4.61109">
        <ele>751.6</ele>
        <time>2021-09-27T13:05:44.000Z</time>
      </trkpt>
      <trkpt lat="45.7517" lon="4.61104">
        <ele>751.4</ele>
        <time>2021-09-27T13:05:45.000Z</time>
      </trkpt>
      <trkpt lat="45.75168" lon="4.611">
        <ele>751.2</ele>
        <time>2021-09-27T13:05:46.000Z</time>
      </trkpt>
      <trkpt lat="45.75165" lon="4.61094">
        <ele>751.2</ele>
        <time>2021-09-27T13:05:47.000Z</time>
      </trkpt>
      <trkpt lat="45.75163" lon="4.61088">
        <ele>751.2</ele>
        <time>2021-09-27T13:05:48.000Z</time>
      </trkpt>
      <trkpt lat="45.7516" lon="4.61081">
        <ele>751.2</ele>
        <time>2021-09-27T13:05:49.000Z</time>
      </trkpt>
      <trkpt lat="45.75157" lon="4.61073">
        <ele>751</ele>
        <time>2021-09-27T13:05:50.000Z</time>
      </trkpt>
      <trkpt lat="45.75153" lon="4.61066">
        <ele>751</ele>
        <time>2021-09-27T13:05:51.000Z</time>
      </trkpt>
      <trkpt lat="45.7515" lon="4.61054">
        <ele>750.8</ele>
        <time>2021-09-27T13:05:53.000Z</time>
      </trkpt>
      <trkpt lat="45.75148" lon="4.61048">
        <ele>751</ele>
        <time>2021-09-27T13:05:54.000Z</time>
      </trkpt>
      <trkpt lat="45.75144" lon="4.6104">
        <ele>751</ele>
        <time>2021-09-27T13:05:55.000Z</time>
      </trkpt>
      <trkpt lat="45.75139" lon="4.61035">
        <ele>751</ele>
        <time>2021-09-27T13:05:56.000Z</time>
      </trkpt>
      <trkpt lat="45.75135" lon="4.61033">
        <ele>750.8</ele>
        <time>2021-09-27T13:05:57.000Z</time>
      </trkpt>
      <trkpt lat="45.75131" lon="4.61031">
        <ele>750.8</ele>
        <time>2021-09-27T13:05:58.000Z</time>
      </trkpt>
      <trkpt lat="45.75122" lon="4.61027">
        <ele>750.6</ele>
        <time>2021-09-27T13:05:59.000Z</time>
      </trkpt>
      <trkpt lat="45.75117" lon="4.61027">
        <ele>750.6</ele>
        <time>2021-09-27T13:06:00.000Z</time>
      </trkpt>
      <trkpt lat="45.75115" lon="4.61028">
        <ele>750.4</ele>
        <time>2021-09-27T13:06:01.000Z</time>
      </trkpt>
      <trkpt lat="45.75106" lon="4.61026">
        <ele>747.6</ele>
        <time>2021-09-27T13:06:17.000Z</time>
      </trkpt>
      <trkpt lat="45.75104" lon="4.61026">
        <ele>747.6</ele>
        <time>2021-09-27T13:06:18.000Z</time>
      </trkpt>
      <trkpt lat="45.75102" lon="4.61026">
        <ele>747.6</ele>
        <time>2021-09-27T13:06:19.000Z</time>
      </trkpt>
      <trkpt lat="45.75088" lon="4.61026">
        <ele>747.6</ele>
        <time>2021-09-27T13:06:24.000Z</time>
      </trkpt>
      <trkpt lat="45.75085" lon="4.61026">
        <ele>747.6</ele>
        <time>2021-09-27T13:06:25.000Z</time>
      </trkpt>
      <trkpt lat="45.75077" lon="4.61027">
        <ele>747.6</ele>
        <time>2021-09-27T13:06:27.000Z</time>
      </trkpt>
      <trkpt lat="45.75069" lon="4.61027">
        <ele>747.6</ele>
        <time>2021-09-27T13:06:29.000Z</time>
      </trkpt>
      <trkpt lat="45.75065" lon="4.61028">
        <ele>747.4</ele>
        <time>2021-09-27T13:06:30.000Z</time>
      </trkpt>
      <trkpt lat="45.75061" lon="4.61029">
        <ele>747.4</ele>
        <time>2021-09-27T13:06:31.000Z</time>
      </trkpt>
      <trkpt lat="45.75057" lon="4.6103">
        <ele>747.4</ele>
        <time>2021-09-27T13:06:32.000Z</time>
      </trkpt>
      <trkpt lat="45.75055" lon="4.61029">
        <ele>747.4</ele>
        <time>2021-09-27T13:06:33.000Z</time>
      </trkpt>
      <trkpt lat="45.75051" lon="4.6103">
        <ele>747.4</ele>
        <time>2021-09-27T13:06:34.000Z</time>
      </trkpt>
      <trkpt lat="45.75048" lon="4.61031">
        <ele>747.2</ele>
        <time>2021-09-27T13:06:35.000Z</time>
      </trkpt>
      <trkpt lat="45.75043" lon="4.61032">
        <ele>747.2</ele>
        <time>2021-09-27T13:06:36.000Z</time>
      </trkpt>
      <trkpt lat="45.7504" lon="4.61032">
        <ele>747.2</ele>
        <time>2021-09-27T13:06:37.000Z</time>
      </trkpt>
      <trkpt lat="45.75038" lon="4.61033">
        <ele>747.2</ele>
        <time>2021-09-27T13:06:38.000Z</time>
      </trkpt>
      <trkpt lat="45.75035" lon="4.61033">
        <ele>747.2</ele>
        <time>2021-09-27T13:06:39.000Z</time>
      </trkpt>
      <trkpt lat="45.75031" lon="4.61033">
        <ele>747.2</ele>
        <time>2021-09-27T13:06:40.000Z</time>
      </trkpt>
      <trkpt lat="45.7502" lon="4.61034">
        <ele>747.2</ele>
        <time>2021-09-27T13:06:44.000Z</time>
      </trkpt>
      <trkpt lat="45.75018" lon="4.61035">
        <ele>747.4</ele>
        <time>2021-09-27T13:06:45.000Z</time>
      </trkpt>
      <trkpt lat="45.75015" lon="4.61036">
        <ele>747.6</ele>
        <time>2021-09-27T13:06:46.000Z</time>
      </trkpt>
      <trkpt lat="45.75013" lon="4.61037">
        <ele>747.6</ele>
        <time>2021-09-27T13:06:47.000Z</time>
      </trkpt>
      <trkpt lat="45.7501" lon="4.61038">
        <ele>748</ele>
        <time>2021-09-27T13:06:48.000Z</time>
      </trkpt>
      <trkpt lat="45.75009" lon="4.61038">
        <ele>748</ele>
        <time>2021-09-27T13:06:49.000Z</time>
      </trkpt>
      <trkpt lat="45.75006" lon="4.61039">
        <ele>748.2</ele>
        <time>2021-09-27T13:06:50.000Z</time>
      </trkpt>
      <trkpt lat="45.74998" lon="4.61043">
        <ele>748.6</ele>
        <time>2021-09-27T13:06:53.000Z</time>
      </trkpt>
      <trkpt lat="45.74986" lon="4.61053">
        <ele>749</ele>
        <time>2021-09-27T13:06:57.000Z</time>
      </trkpt>
      <trkpt lat="45.74964" lon="4.61065">
        <ele>749.2</ele>
        <time>2021-09-27T13:07:02.000Z</time>
      </trkpt>
      <trkpt lat="45.74947" lon="4.61072">
        <ele>748.8</ele>
        <time>2021-09-27T13:07:05.000Z</time>
      </trkpt>
      <trkpt lat="45.74942" lon="4.61074">
        <ele>748.8</ele>
        <time>2021-09-27T13:07:06.000Z</time>
      </trkpt>
      <trkpt lat="45.74936" lon="4.61076">
        <ele>748.2</ele>
        <time>2021-09-27T13:07:07.000Z</time>
      </trkpt>
      <trkpt lat="45.74931" lon="4.61079">
        <ele>747.6</ele>
        <time>2021-09-27T13:07:08.000Z</time>
      </trkpt>
      <trkpt lat="45.7492" lon="4.61086">
        <ele>746.8</ele>
        <time>2021-09-27T13:07:10.000Z</time>
      </trkpt>
      <trkpt lat="45.74914" lon="4.61093">
        <ele>746.2</ele>
        <time>2021-09-27T13:07:11.000Z</time>
      </trkpt>
      <trkpt lat="45.74909" lon="4.61097">
        <ele>745.8</ele>
        <time>2021-09-27T13:07:12.000Z</time>
      </trkpt>
      <trkpt lat="45.74904" lon="4.61101">
        <ele>745.4</ele>
        <time>2021-09-27T13:07:13.000Z</time>
      </trkpt>
      <trkpt lat="45.74899" lon="4.61104">
        <ele>745</ele>
        <time>2021-09-27T13:07:14.000Z</time>
      </trkpt>
      <trkpt lat="45.74895" lon="4.61106">
        <ele>744.4</ele>
        <time>2021-09-27T13:07:15.000Z</time>
      </trkpt>
      <trkpt lat="45.74891" lon="4.61107">
        <ele>744</ele>
        <time>2021-09-27T13:07:16.000Z</time>
      </trkpt>
      <trkpt lat="45.74887" lon="4.61109">
        <ele>743.8</ele>
        <time>2021-09-27T13:07:17.000Z</time>
      </trkpt>
      <trkpt lat="45.74883" lon="4.6111">
        <ele>743.4</ele>
        <time>2021-09-27T13:07:18.000Z</time>
      </trkpt>
      <trkpt lat="45.74879" lon="4.61112">
        <ele>743.4</ele>
        <time>2021-09-27T13:07:19.000Z</time>
      </trkpt>
      <trkpt lat="45.74871" lon="4.61117">
        <ele>743.2</ele>
        <time>2021-09-27T13:07:21.000Z</time>
      </trkpt>
      <trkpt lat="45.74862" lon="4.61124">
        <ele>743</ele>
        <time>2021-09-27T13:07:23.000Z</time>
      </trkpt>
      <trkpt lat="45.74852" lon="4.61136">
        <ele>742.8</ele>
        <time>2021-09-27T13:07:26.000Z</time>
      </trkpt>
      <trkpt lat="45.74848" lon="4.61138">
        <ele>742.6</ele>
        <time>2021-09-27T13:07:27.000Z</time>
      </trkpt>
      <trkpt lat="45.7484" lon="4.61142">
        <ele>741.4</ele>
        <time>2021-09-27T13:07:29.000Z</time>
      </trkpt>
      <trkpt lat="45.74837" lon="4.61145">
        <ele>741</ele>
        <time>2021-09-27T13:07:30.000Z</time>
      </trkpt>
      <trkpt lat="45.74833" lon="4.61148">
        <ele>740.4</ele>
        <time>2021-09-27T13:07:31.000Z</time>
      </trkpt>
      <trkpt lat="45.74831" lon="4.6115">
        <ele>739.8</ele>
        <time>2021-09-27T13:07:32.000Z</time>
      </trkpt>
      <trkpt lat="45.74829" lon="4.61151">
        <ele>739.6</ele>
        <time>2021-09-27T13:07:33.000Z</time>
      </trkpt>
      <trkpt lat="45.74828" lon="4.61153">
        <ele>739.6</ele>
        <time>2021-09-27T13:07:34.000Z</time>
      </trkpt>
      <trkpt lat="45.74825" lon="4.61153">
        <ele>739.2</ele>
        <time>2021-09-27T13:07:35.000Z</time>
      </trkpt>
      <trkpt lat="45.74823" lon="4.61153">
        <ele>738.4</ele>
        <time>2021-09-27T13:07:36.000Z</time>
      </trkpt>
      <trkpt lat="45.74821" lon="4.61153">
        <ele>737.8</ele>
        <time>2021-09-27T13:07:37.000Z</time>
      </trkpt>
      <trkpt lat="45.7482" lon="4.61152">
        <ele>737.2</ele>
        <time>2021-09-27T13:07:38.000Z</time>
      </trkpt>
      <trkpt lat="45.74819" lon="4.61152">
        <ele>736.4</ele>
        <time>2021-09-27T13:07:39.000Z</time>
      </trkpt>
      <trkpt lat="45.74818" lon="4.61153">
        <ele>735.6</ele>
        <time>2021-09-27T13:07:40.000Z</time>
      </trkpt>
      <trkpt lat="45.74816" lon="4.61153">
        <ele>735.2</ele>
        <time>2021-09-27T13:07:41.000Z</time>
      </trkpt>
      <trkpt lat="45.74815" lon="4.61153">
        <ele>735</ele>
        <time>2021-09-27T13:07:42.000Z</time>
      </trkpt>
      <trkpt lat="45.74812" lon="4.61153">
        <ele>734.4</ele>
        <time>2021-09-27T13:07:43.000Z</time>
      </trkpt>
      <trkpt lat="45.7481" lon="4.61153">
        <ele>734</ele>
        <time>2021-09-27T13:07:44.000Z</time>
      </trkpt>
      <trkpt lat="45.74806" lon="4.61154">
        <ele>733.8</ele>
        <time>2021-09-27T13:07:45.000Z</time>
      </trkpt>
      <trkpt lat="45.74799" lon="4.61157">
        <ele>732.8</ele>
        <time>2021-09-27T13:07:47.000Z</time>
      </trkpt>
      <trkpt lat="45.74797" lon="4.61158">
        <ele>732.2</ele>
        <time>2021-09-27T13:07:48.000Z</time>
      </trkpt>
      <trkpt lat="45.74796" lon="4.61158">
        <ele>731.6</ele>
        <time>2021-09-27T13:07:49.000Z</time>
      </trkpt>
      <trkpt lat="45.74791" lon="4.61155">
        <ele>729</ele>
        <time>2021-09-27T13:07:55.000Z</time>
      </trkpt>
      <trkpt lat="45.74788" lon="4.6115">
        <ele>728.2</ele>
        <time>2021-09-27T13:07:57.000Z</time>
      </trkpt>
      <trkpt lat="45.74786" lon="4.61148">
        <ele>728.2</ele>
        <time>2021-09-27T13:07:58.000Z</time>
      </trkpt>
      <trkpt lat="45.7478" lon="4.61143">
        <ele>727.8</ele>
        <time>2021-09-27T13:08:01.000Z</time>
      </trkpt>
      <trkpt lat="45.74777" lon="4.61141">
        <ele>727.8</ele>
        <time>2021-09-27T13:08:02.000Z</time>
      </trkpt>
      <trkpt lat="45.74774" lon="4.61139">
        <ele>727.6</ele>
        <time>2021-09-27T13:08:03.000Z</time>
      </trkpt>
      <trkpt lat="45.74772" lon="4.61138">
        <ele>727.6</ele>
        <time>2021-09-27T13:08:04.000Z</time>
      </trkpt>
      <trkpt lat="45.74762" lon="4.61128">
        <ele>727.4</ele>
        <time>2021-09-27T13:08:08.000Z</time>
      </trkpt>
      <trkpt lat="45.74759" lon="4.61122">
        <ele>727.4</ele>
        <time>2021-09-27T13:08:10.000Z</time>
      </trkpt>
      <trkpt lat="45.74758" lon="4.61119">
        <ele>727.4</ele>
        <time>2021-09-27T13:08:11.000Z</time>
      </trkpt>
      <trkpt lat="45.74757" lon="4.61116">
        <ele>727.2</ele>
        <time>2021-09-27T13:08:12.000Z</time>
      </trkpt>
      <trkpt lat="45.74757" lon="4.6112">
        <ele>726</ele>
        <time>2021-09-27T13:09:56.000Z</time>
      </trkpt>
      <trkpt lat="45.74758" lon="4.61121">
        <ele>726</ele>
        <time>2021-09-27T13:09:57.000Z</time>
      </trkpt>
      <trkpt lat="45.7476" lon="4.61123">
        <ele>726</ele>
        <time>2021-09-27T13:09:58.000Z</time>
      </trkpt>
      <trkpt lat="45.74762" lon="4.61125">
        <ele>726</ele>
        <time>2021-09-27T13:09:59.000Z</time>
      </trkpt>
      <trkpt lat="45.74763" lon="4.61126">
        <ele>726</ele>
        <time>2021-09-27T13:10:00.000Z</time>
      </trkpt>
      <trkpt lat="45.74764" lon="4.61127">
        <ele>726</ele>
        <time>2021-09-27T13:10:01.000Z</time>
      </trkpt>
      <trkpt lat="45.74766" lon="4.61129">
        <ele>726</ele>
        <time>2021-09-27T13:10:02.000Z</time>
      </trkpt>
      <trkpt lat="45.74772" lon="4.61137">
        <ele>726.4</ele>
        <time>2021-09-27T13:10:07.000Z</time>
      </trkpt>
      <trkpt lat="45.74774" lon="4.61138">
        <ele>726.6</ele>
        <time>2021-09-27T13:10:08.000Z</time>
      </trkpt>
      <trkpt lat="45.74775" lon="4.61138">
        <ele>726.8</ele>
        <time>2021-09-27T13:10:09.000Z</time>
      </trkpt>
      <trkpt lat="45.74778" lon="4.61138">
        <ele>726.8</ele>
        <time>2021-09-27T13:10:10.000Z</time>
      </trkpt>
      <trkpt lat="45.7478" lon="4.61138">
        <ele>727</ele>
        <time>2021-09-27T13:10:11.000Z</time>
      </trkpt>
      <trkpt lat="45.74781" lon="4.61136">
        <ele>727.2</ele>
        <time>2021-09-27T13:10:12.000Z</time>
      </trkpt>
      <trkpt lat="45.74783" lon="4.61135">
        <ele>727.2</ele>
        <time>2021-09-27T13:10:13.000Z</time>
      </trkpt>
      <trkpt lat="45.74785" lon="4.61134">
        <ele>727.2</ele>
        <time>2021-09-27T13:10:14.000Z</time>
      </trkpt>
      <trkpt lat="45.74786" lon="4.61133">
        <ele>727.4</ele>
        <time>2021-09-27T13:10:15.000Z</time>
      </trkpt>
      <trkpt lat="45.74788" lon="4.61132">
        <ele>727.4</ele>
        <time>2021-09-27T13:10:16.000Z</time>
      </trkpt>
      <trkpt lat="45.74796" lon="4.61127">
        <ele>727.8</ele>
        <time>2021-09-27T13:10:20.000Z</time>
      </trkpt>
      <trkpt lat="45.74802" lon="4.61122">
        <ele>728</ele>
        <time>2021-09-27T13:10:23.000Z</time>
      </trkpt>
      <trkpt lat="45.74809" lon="4.61108">
        <ele>728.4</ele>
        <time>2021-09-27T13:10:28.000Z</time>
      </trkpt>
      <trkpt lat="45.74816" lon="4.61098">
        <ele>728.4</ele>
        <time>2021-09-27T13:10:32.000Z</time>
      </trkpt>
      <trkpt lat="45.74824" lon="4.61088">
        <ele>728.4</ele>
        <time>2021-09-27T13:10:36.000Z</time>
      </trkpt>
      <trkpt lat="45.74836" lon="4.61074">
        <ele>729</ele>
        <time>2021-09-27T13:10:42.000Z</time>
      </trkpt>
      <trkpt lat="45.74838" lon="4.61072">
        <ele>729.2</ele>
        <time>2021-09-27T13:10:43.000Z</time>
      </trkpt>
      <trkpt lat="45.7484" lon="4.6107">
        <ele>729.2</ele>
        <time>2021-09-27T13:10:44.000Z</time>
      </trkpt>
      <trkpt lat="45.74841" lon="4.61068">
        <ele>729.2</ele>
        <time>2021-09-27T13:10:45.000Z</time>
      </trkpt>
      <trkpt lat="45.74843" lon="4.61066">
        <ele>729.4</ele>
        <time>2021-09-27T13:10:46.000Z</time>
      </trkpt>
      <trkpt lat="45.74844" lon="4.61066">
        <ele>729.4</ele>
        <time>2021-09-27T13:10:47.000Z</time>
      </trkpt>
      <trkpt lat="45.74845" lon="4.61065">
        <ele>729.8</ele>
        <time>2021-09-27T13:10:48.000Z</time>
      </trkpt>
      <trkpt lat="45.74846" lon="4.61064">
        <ele>729.8</ele>
        <time>2021-09-27T13:10:49.000Z</time>
      </trkpt>
      <trkpt lat="45.74852" lon="4.61059">
        <ele>729.8</ele>
        <time>2021-09-27T13:10:53.000Z</time>
      </trkpt>
      <trkpt lat="45.7486" lon="4.61049">
        <ele>730</ele>
        <time>2021-09-27T13:10:58.000Z</time>
      </trkpt>
      <trkpt lat="45.74867" lon="4.61041">
        <ele>730.2</ele>
        <time>2021-09-27T13:11:02.000Z</time>
      </trkpt>
      <trkpt lat="45.74879" lon="4.61029">
        <ele>730.4</ele>
        <time>2021-09-27T13:11:08.000Z</time>
      </trkpt>
      <trkpt lat="45.74883" lon="4.61025">
        <ele>730.6</ele>
        <time>2021-09-27T13:11:10.000Z</time>
      </trkpt>
      <trkpt lat="45.74899" lon="4.61009">
        <ele>731</ele>
        <time>2021-09-27T13:11:17.000Z</time>
      </trkpt>
      <trkpt lat="45.74902" lon="4.61007">
        <ele>731</ele>
        <time>2021-09-27T13:11:18.000Z</time>
      </trkpt>
      <trkpt lat="45.74914" lon="4.60996">
        <ele>731.4</ele>
        <time>2021-09-27T13:11:23.000Z</time>
      </trkpt>
      <trkpt lat="45.7493" lon="4.60985">
        <ele>732</ele>
        <time>2021-09-27T13:11:29.000Z</time>
      </trkpt>
      <trkpt lat="45.74932" lon="4.60984">
        <ele>732</ele>
        <time>2021-09-27T13:11:30.000Z</time>
      </trkpt>
      <trkpt lat="45.74943" lon="4.6098">
        <ele>732.2</ele>
        <time>2021-09-27T13:11:34.000Z</time>
      </trkpt>
      <trkpt lat="45.74949" lon="4.60979">
        <ele>732.4</ele>
        <time>2021-09-27T13:11:36.000Z</time>
      </trkpt>
      <trkpt lat="45.74973" lon="4.60981">
        <ele>733.2</ele>
        <time>2021-09-27T13:11:44.000Z</time>
      </trkpt>
      <trkpt lat="45.74977" lon="4.60981">
        <ele>733.4</ele>
        <time>2021-09-27T13:11:45.000Z</time>
      </trkpt>
      <trkpt lat="45.7498" lon="4.60982">
        <ele>733.4</ele>
        <time>2021-09-27T13:11:46.000Z</time>
      </trkpt>
      <trkpt lat="45.75001" lon="4.60984">
        <ele>733.8</ele>
        <time>2021-09-27T13:11:53.000Z</time>
      </trkpt>
      <trkpt lat="45.75008" lon="4.60985">
        <ele>733.8</ele>
        <time>2021-09-27T13:11:55.000Z</time>
      </trkpt>
      <trkpt lat="45.75024" lon="4.60986">
        <ele>734</ele>
        <time>2021-09-27T13:12:00.000Z</time>
      </trkpt>
      <trkpt lat="45.75047" lon="4.60986">
        <ele>734.2</ele>
        <time>2021-09-27T13:12:07.000Z</time>
      </trkpt>
      <trkpt lat="45.7505" lon="4.60987">
        <ele>734.2</ele>
        <time>2021-09-27T13:12:08.000Z</time>
      </trkpt>
      <trkpt lat="45.75065" lon="4.60989">
        <ele>734.4</ele>
        <time>2021-09-27T13:12:13.000Z</time>
      </trkpt>
      <trkpt lat="45.75068" lon="4.60989">
        <ele>734.6</ele>
        <time>2021-09-27T13:12:14.000Z</time>
      </trkpt>
      <trkpt lat="45.75072" lon="4.60989">
        <ele>734.6</ele>
        <time>2021-09-27T13:12:15.000Z</time>
      </trkpt>
      <trkpt lat="45.75075" lon="4.60989">
        <ele>734.6</ele>
        <time>2021-09-27T13:12:16.000Z</time>
      </trkpt>
      <trkpt lat="45.7509" lon="4.6099">
        <ele>734.8</ele>
        <time>2021-09-27T13:12:21.000Z</time>
      </trkpt>
      <trkpt lat="45.75103" lon="4.60991">
        <ele>735.2</ele>
        <time>2021-09-27T13:12:25.000Z</time>
      </trkpt>
      <trkpt lat="45.75106" lon="4.60991">
        <ele>735.4</ele>
        <time>2021-09-27T13:12:26.000Z</time>
      </trkpt>
      <trkpt lat="45.75108" lon="4.60992">
        <ele>735.4</ele>
        <time>2021-09-27T13:12:27.000Z</time>
      </trkpt>
      <trkpt lat="45.75111" lon="4.60992">
        <ele>735.6</ele>
        <time>2021-09-27T13:12:28.000Z</time>
      </trkpt>
      <trkpt lat="45.75114" lon="4.60992">
        <ele>735.6</ele>
        <time>2021-09-27T13:12:29.000Z</time>
      </trkpt>
      <trkpt lat="45.75116" lon="4.60991">
        <ele>735.8</ele>
        <time>2021-09-27T13:12:30.000Z</time>
      </trkpt>
      <trkpt lat="45.75119" lon="4.60992">
        <ele>736</ele>
        <time>2021-09-27T13:12:31.000Z</time>
      </trkpt>
      <trkpt lat="45.75121" lon="4.60992">
        <ele>736.2</ele>
        <time>2021-09-27T13:12:32.000Z</time>
      </trkpt>
      <trkpt lat="45.75122" lon="4.60993">
        <ele>736.2</ele>
        <time>2021-09-27T13:12:33.000Z</time>
      </trkpt>
      <trkpt lat="45.75124" lon="4.60993">
        <ele>736.4</ele>
        <time>2021-09-27T13:12:34.000Z</time>
      </trkpt>
      <trkpt lat="45.75138" lon="4.60994">
        <ele>737.4</ele>
        <time>2021-09-27T13:12:40.000Z</time>
      </trkpt>
      <trkpt lat="45.7514" lon="4.60994">
        <ele>737.4</ele>
        <time>2021-09-27T13:12:41.000Z</time>
      </trkpt>
      <trkpt lat="45.75143" lon="4.60994">
        <ele>737.6</ele>
        <time>2021-09-27T13:12:42.000Z</time>
      </trkpt>
      <trkpt lat="45.75146" lon="4.60994">
        <ele>737.6</ele>
        <time>2021-09-27T13:12:43.000Z</time>
      </trkpt>
      <trkpt lat="45.75148" lon="4.60993">
        <ele>737.6</ele>
        <time>2021-09-27T13:12:44.000Z</time>
      </trkpt>
      <trkpt lat="45.75152" lon="4.60992">
        <ele>737.6</ele>
        <time>2021-09-27T13:12:45.000Z</time>
      </trkpt>
      <trkpt lat="45.75155" lon="4.6099">
        <ele>737.8</ele>
        <time>2021-09-27T13:12:46.000Z</time>
      </trkpt>
      <trkpt lat="45.75158" lon="4.60988">
        <ele>737.8</ele>
        <time>2021-09-27T13:12:47.000Z</time>
      </trkpt>
      <trkpt lat="45.75161" lon="4.60988">
        <ele>737.8</ele>
        <time>2021-09-27T13:12:48.000Z</time>
      </trkpt>
      <trkpt lat="45.75164" lon="4.60988">
        <ele>737.8</ele>
        <time>2021-09-27T13:12:49.000Z</time>
      </trkpt>
      <trkpt lat="45.75166" lon="4.60989">
        <ele>738</ele>
        <time>2021-09-27T13:12:50.000Z</time>
      </trkpt>
      <trkpt lat="45.75169" lon="4.6099">
        <ele>738.2</ele>
        <time>2021-09-27T13:12:51.000Z</time>
      </trkpt>
      <trkpt lat="45.75171" lon="4.60991">
        <ele>738.2</ele>
        <time>2021-09-27T13:12:52.000Z</time>
      </trkpt>
      <trkpt lat="45.75173" lon="4.60992">
        <ele>738.4</ele>
        <time>2021-09-27T13:12:53.000Z</time>
      </trkpt>
      <trkpt lat="45.75175" lon="4.60993">
        <ele>738.4</ele>
        <time>2021-09-27T13:12:54.000Z</time>
      </trkpt>
      <trkpt lat="45.75176" lon="4.60994">
        <ele>738.4</ele>
        <time>2021-09-27T13:12:55.000Z</time>
      </trkpt>
      <trkpt lat="45.75178" lon="4.60994">
        <ele>738.6</ele>
        <time>2021-09-27T13:12:56.000Z</time>
      </trkpt>
      <trkpt lat="45.75178" lon="4.60993">
        <ele>738.8</ele>
        <time>2021-09-27T13:12:57.000Z</time>
      </trkpt>
      <trkpt lat="45.75179" lon="4.60992">
        <ele>738.8</ele>
        <time>2021-09-27T13:12:58.000Z</time>
      </trkpt>
      <trkpt lat="45.75179" lon="4.60991">
        <ele>739</ele>
        <time>2021-09-27T13:13:00.000Z</time>
      </trkpt>
      <trkpt lat="45.75181" lon="4.6099">
        <ele>739</ele>
        <time>2021-09-27T13:13:39.000Z</time>
      </trkpt>
      <trkpt lat="45.75184" lon="4.60989">
        <ele>738.8</ele>
        <time>2021-09-27T13:13:40.000Z</time>
      </trkpt>
      <trkpt lat="45.75191" lon="4.60984">
        <ele>738.6</ele>
        <time>2021-09-27T13:13:43.000Z</time>
      </trkpt>
      <trkpt lat="45.75192" lon="4.60981">
        <ele>738.4</ele>
        <time>2021-09-27T13:13:44.000Z</time>
      </trkpt>
      <trkpt lat="45.75194" lon="4.60966">
        <ele>737.2</ele>
        <time>2021-09-27T13:13:47.000Z</time>
      </trkpt>
      <trkpt lat="45.75195" lon="4.60962">
        <ele>736.4</ele>
        <time>2021-09-27T13:13:48.000Z</time>
      </trkpt>
      <trkpt lat="45.75195" lon="4.60958">
        <ele>735.4</ele>
        <time>2021-09-27T13:13:49.000Z</time>
      </trkpt>
      <trkpt lat="45.75194" lon="4.60954">
        <ele>734.6</ele>
        <time>2021-09-27T13:13:50.000Z</time>
      </trkpt>
      <trkpt lat="45.75193" lon="4.60951">
        <ele>733.8</ele>
        <time>2021-09-27T13:13:51.000Z</time>
      </trkpt>
      <trkpt lat="45.75192" lon="4.60947">
        <ele>733</ele>
        <time>2021-09-27T13:13:52.000Z</time>
      </trkpt>
      <trkpt lat="45.75192" lon="4.60945">
        <ele>732.2</ele>
        <time>2021-09-27T13:13:53.000Z</time>
      </trkpt>
      <trkpt lat="45.75192" lon="4.60944">
        <ele>731.6</ele>
        <time>2021-09-27T13:13:54.000Z</time>
      </trkpt>
      <trkpt lat="45.75195" lon="4.60939">
        <ele>727.2</ele>
        <time>2021-09-27T13:14:00.000Z</time>
      </trkpt>
      <trkpt lat="45.75196" lon="4.60938">
        <ele>726.8</ele>
        <time>2021-09-27T13:14:01.000Z</time>
      </trkpt>
      <trkpt lat="45.75198" lon="4.60937">
        <ele>726.4</ele>
        <time>2021-09-27T13:14:02.000Z</time>
      </trkpt>
      <trkpt lat="45.752" lon="4.60937">
        <ele>726.2</ele>
        <time>2021-09-27T13:14:03.000Z</time>
      </trkpt>
      <trkpt lat="45.75204" lon="4.60937">
        <ele>726.2</ele>
        <time>2021-09-27T13:14:04.000Z</time>
      </trkpt>
      <trkpt lat="45.75209" lon="4.60937">
        <ele>726</ele>
        <time>2021-09-27T13:14:05.000Z</time>
      </trkpt>
      <trkpt lat="45.75214" lon="4.60937">
        <ele>725.8</ele>
        <time>2021-09-27T13:14:06.000Z</time>
      </trkpt>
      <trkpt lat="45.75221" lon="4.60934">
        <ele>725</ele>
        <time>2021-09-27T13:14:08.000Z</time>
      </trkpt>
      <trkpt lat="45.75225" lon="4.60932">
        <ele>724.4</ele>
        <time>2021-09-27T13:14:09.000Z</time>
      </trkpt>
      <trkpt lat="45.75229" lon="4.60931">
        <ele>723.8</ele>
        <time>2021-09-27T13:14:10.000Z</time>
      </trkpt>
      <trkpt lat="45.75236" lon="4.60932">
        <ele>722</ele>
        <time>2021-09-27T13:14:12.000Z</time>
      </trkpt>
      <trkpt lat="45.75238" lon="4.60934">
        <ele>720.8</ele>
        <time>2021-09-27T13:14:13.000Z</time>
      </trkpt>
      <trkpt lat="45.7524" lon="4.60935">
        <ele>720</ele>
        <time>2021-09-27T13:14:14.000Z</time>
      </trkpt>
      <trkpt lat="45.75243" lon="4.60935">
        <ele>719</ele>
        <time>2021-09-27T13:14:15.000Z</time>
      </trkpt>
      <trkpt lat="45.75244" lon="4.60934">
        <ele>717.8</ele>
        <time>2021-09-27T13:14:16.000Z</time>
      </trkpt>
      <trkpt lat="45.75246" lon="4.60932">
        <ele>716.6</ele>
        <time>2021-09-27T13:14:17.000Z</time>
      </trkpt>
      <trkpt lat="45.75249" lon="4.60928">
        <ele>715.4</ele>
        <time>2021-09-27T13:14:18.000Z</time>
      </trkpt>
      <trkpt lat="45.75248" lon="4.60913">
        <ele>714.2</ele>
        <time>2021-09-27T13:14:21.000Z</time>
      </trkpt>
      <trkpt lat="45.75247" lon="4.60912">
        <ele>712.4</ele>
        <time>2021-09-27T13:14:23.000Z</time>
      </trkpt>
      <trkpt lat="45.75247" lon="4.6091">
        <ele>711.6</ele>
        <time>2021-09-27T13:14:24.000Z</time>
      </trkpt>
      <trkpt lat="45.75247" lon="4.60908">
        <ele>710.8</ele>
        <time>2021-09-27T13:14:25.000Z</time>
      </trkpt>
      <trkpt lat="45.75247" lon="4.60904">
        <ele>710</ele>
        <time>2021-09-27T13:14:26.000Z</time>
      </trkpt>
      <trkpt lat="45.75247" lon="4.60899">
        <ele>709.2</ele>
        <time>2021-09-27T13:14:27.000Z</time>
      </trkpt>
      <trkpt lat="45.75246" lon="4.60894">
        <ele>708.6</ele>
        <time>2021-09-27T13:14:28.000Z</time>
      </trkpt>
      <trkpt lat="45.75243" lon="4.60888">
        <ele>707.8</ele>
        <time>2021-09-27T13:14:29.000Z</time>
      </trkpt>
      <trkpt lat="45.7524" lon="4.60883">
        <ele>707.2</ele>
        <time>2021-09-27T13:14:30.000Z</time>
      </trkpt>
      <trkpt lat="45.75237" lon="4.60878">
        <ele>706.8</ele>
        <time>2021-09-27T13:14:31.000Z</time>
      </trkpt>
      <trkpt lat="45.75234" lon="4.60874">
        <ele>706.6</ele>
        <time>2021-09-27T13:14:32.000Z</time>
      </trkpt>
      <trkpt lat="45.75233" lon="4.6087">
        <ele>706.4</ele>
        <time>2021-09-27T13:14:33.000Z</time>
      </trkpt>
      <trkpt lat="45.75231" lon="4.60866">
        <ele>706</ele>
        <time>2021-09-27T13:14:34.000Z</time>
      </trkpt>
      <trkpt lat="45.7523" lon="4.60862">
        <ele>705.8</ele>
        <time>2021-09-27T13:14:35.000Z</time>
      </trkpt>
      <trkpt lat="45.7523" lon="4.60859">
        <ele>705.2</ele>
        <time>2021-09-27T13:14:36.000Z</time>
      </trkpt>
      <trkpt lat="45.7523" lon="4.60856">
        <ele>704.6</ele>
        <time>2021-09-27T13:14:37.000Z</time>
      </trkpt>
      <trkpt lat="45.7523" lon="4.60855">
        <ele>704.2</ele>
        <time>2021-09-27T13:14:38.000Z</time>
      </trkpt>
      <trkpt lat="45.75229" lon="4.60855">
        <ele>703.6</ele>
        <time>2021-09-27T13:14:41.000Z</time>
      </trkpt>
      <trkpt lat="45.75229" lon="4.60853">
        <ele>703.2</ele>
        <time>2021-09-27T13:14:42.000Z</time>
      </trkpt>
      <trkpt lat="45.75229" lon="4.60851">
        <ele>702.6</ele>
        <time>2021-09-27T13:14:43.000Z</time>
      </trkpt>
      <trkpt lat="45.7523" lon="4.6085">
        <ele>702.2</ele>
        <time>2021-09-27T13:14:45.000Z</time>
      </trkpt>
      <trkpt lat="45.75232" lon="4.60848">
        <ele>701.4</ele>
        <time>2021-09-27T13:14:47.000Z</time>
      </trkpt>
      <trkpt lat="45.75236" lon="4.60846">
        <ele>701</ele>
        <time>2021-09-27T13:14:49.000Z</time>
      </trkpt>
      <trkpt lat="45.75238" lon="4.60844">
        <ele>700.8</ele>
        <time>2021-09-27T13:14:50.000Z</time>
      </trkpt>
      <trkpt lat="45.75239" lon="4.60842">
        <ele>700.6</ele>
        <time>2021-09-27T13:14:51.000Z</time>
      </trkpt>
      <trkpt lat="45.7524" lon="4.60842">
        <ele>700.4</ele>
        <time>2021-09-27T13:14:52.000Z</time>
      </trkpt>
      <trkpt lat="45.75241" lon="4.60842">
        <ele>700</ele>
        <time>2021-09-27T13:14:53.000Z</time>
      </trkpt>
      <trkpt lat="45.75244" lon="4.60848">
        <ele>694.2</ele>
        <time>2021-09-27T13:15:23.000Z</time>
      </trkpt>
      <trkpt lat="45.75247" lon="4.60855">
        <ele>694.2</ele>
        <time>2021-09-27T13:15:25.000Z</time>
      </trkpt>
      <trkpt lat="45.75251" lon="4.60861">
        <ele>694.2</ele>
        <time>2021-09-27T13:15:27.000Z</time>
      </trkpt>
      <trkpt lat="45.75253" lon="4.60866">
        <ele>694.2</ele>
        <time>2021-09-27T13:15:28.000Z</time>
      </trkpt>
      <trkpt lat="45.75253" lon="4.60867">
        <ele>694.2</ele>
        <time>2021-09-27T13:15:30.000Z</time>
      </trkpt>
      <trkpt lat="45.75258" lon="4.60863">
        <ele>694.2</ele>
        <time>2021-09-27T13:15:50.000Z</time>
      </trkpt>
      <trkpt lat="45.7526" lon="4.60862">
        <ele>694.2</ele>
        <time>2021-09-27T13:15:51.000Z</time>
      </trkpt>
      <trkpt lat="45.75262" lon="4.60862">
        <ele>694</ele>
        <time>2021-09-27T13:15:52.000Z</time>
      </trkpt>
      <trkpt lat="45.75264" lon="4.60861">
        <ele>694</ele>
        <time>2021-09-27T13:15:53.000Z</time>
      </trkpt>
      <trkpt lat="45.75265" lon="4.60861">
        <ele>693.4</ele>
        <time>2021-09-27T13:15:54.000Z</time>
      </trkpt>
      <trkpt lat="45.75267" lon="4.60859">
        <ele>693.4</ele>
        <time>2021-09-27T13:15:55.000Z</time>
      </trkpt>
      <trkpt lat="45.7527" lon="4.60858">
        <ele>692.6</ele>
        <time>2021-09-27T13:15:56.000Z</time>
      </trkpt>
      <trkpt lat="45.75273" lon="4.60857">
        <ele>691.4</ele>
        <time>2021-09-27T13:15:57.000Z</time>
      </trkpt>
      <trkpt lat="45.75277" lon="4.60856">
        <ele>689.8</ele>
        <time>2021-09-27T13:15:58.000Z</time>
      </trkpt>
      <trkpt lat="45.7528" lon="4.60855">
        <ele>688.4</ele>
        <time>2021-09-27T13:15:59.000Z</time>
      </trkpt>
      <trkpt lat="45.75282" lon="4.60856">
        <ele>687.6</ele>
        <time>2021-09-27T13:16:00.000Z</time>
      </trkpt>
      <trkpt lat="45.75284" lon="4.60856">
        <ele>687</ele>
        <time>2021-09-27T13:16:01.000Z</time>
      </trkpt>
      <trkpt lat="45.75287" lon="4.60853">
        <ele>686.6</ele>
        <time>2021-09-27T13:16:02.000Z</time>
      </trkpt>
      <trkpt lat="45.75291" lon="4.60852">
        <ele>685.8</ele>
        <time>2021-09-27T13:16:03.000Z</time>
      </trkpt>
      <trkpt lat="45.75295" lon="4.60852">
        <ele>684.8</ele>
        <time>2021-09-27T13:16:04.000Z</time>
      </trkpt>
      <trkpt lat="45.753" lon="4.60853">
        <ele>683.8</ele>
        <time>2021-09-27T13:16:05.000Z</time>
      </trkpt>
      <trkpt lat="45.75303" lon="4.60854">
        <ele>683.2</ele>
        <time>2021-09-27T13:16:06.000Z</time>
      </trkpt>
      <trkpt lat="45.75305" lon="4.60855">
        <ele>682.2</ele>
        <time>2021-09-27T13:16:07.000Z</time>
      </trkpt>
      <trkpt lat="45.75307" lon="4.60857">
        <ele>681.2</ele>
        <time>2021-09-27T13:16:08.000Z</time>
      </trkpt>
      <trkpt lat="45.75309" lon="4.60859">
        <ele>680.4</ele>
        <time>2021-09-27T13:16:09.000Z</time>
      </trkpt>
      <trkpt lat="45.75312" lon="4.6086">
        <ele>679.2</ele>
        <time>2021-09-27T13:16:10.000Z</time>
      </trkpt>
      <trkpt lat="45.75317" lon="4.60865">
        <ele>677</ele>
        <time>2021-09-27T13:16:12.000Z</time>
      </trkpt>
      <trkpt lat="45.75319" lon="4.60867">
        <ele>675.8</ele>
        <time>2021-09-27T13:16:13.000Z</time>
      </trkpt>
      <trkpt lat="45.75321" lon="4.60869">
        <ele>675</ele>
        <time>2021-09-27T13:16:14.000Z</time>
      </trkpt>
      <trkpt lat="45.75323" lon="4.60869">
        <ele>674.6</ele>
        <time>2021-09-27T13:16:15.000Z</time>
      </trkpt>
      <trkpt lat="45.75325" lon="4.60869">
        <ele>673.8</ele>
        <time>2021-09-27T13:16:16.000Z</time>
      </trkpt>
      <trkpt lat="45.75329" lon="4.6087">
        <ele>667.4</ele>
        <time>2021-09-27T13:16:48.000Z</time>
      </trkpt>
      <trkpt lat="45.75332" lon="4.60871">
        <ele>667.4</ele>
        <time>2021-09-27T13:16:49.000Z</time>
      </trkpt>
      <trkpt lat="45.75346" lon="4.60878">
        <ele>667.2</ele>
        <time>2021-09-27T13:16:53.000Z</time>
      </trkpt>
      <trkpt lat="45.75353" lon="4.60876">
        <ele>667.2</ele>
        <time>2021-09-27T13:16:54.000Z</time>
      </trkpt>
      <trkpt lat="45.75359" lon="4.60878">
        <ele>667</ele>
        <time>2021-09-27T13:16:55.000Z</time>
      </trkpt>
      <trkpt lat="45.75365" lon="4.60879">
        <ele>667</ele>
        <time>2021-09-27T13:16:56.000Z</time>
      </trkpt>
      <trkpt lat="45.75368" lon="4.60882">
        <ele>666.4</ele>
        <time>2021-09-27T13:16:57.000Z</time>
      </trkpt>
      <trkpt lat="45.75371" lon="4.60884">
        <ele>665.8</ele>
        <time>2021-09-27T13:16:58.000Z</time>
      </trkpt>
      <trkpt lat="45.75375" lon="4.60886">
        <ele>665.2</ele>
        <time>2021-09-27T13:16:59.000Z</time>
      </trkpt>
      <trkpt lat="45.75379" lon="4.60888">
        <ele>664</ele>
        <time>2021-09-27T13:17:00.000Z</time>
      </trkpt>
      <trkpt lat="45.75381" lon="4.60887">
        <ele>663.4</ele>
        <time>2021-09-27T13:17:01.000Z</time>
      </trkpt>
      <trkpt lat="45.75386" lon="4.60885">
        <ele>663</ele>
        <time>2021-09-27T13:17:02.000Z</time>
      </trkpt>
      <trkpt lat="45.75389" lon="4.60881">
        <ele>663</ele>
        <time>2021-09-27T13:17:03.000Z</time>
      </trkpt>
      <trkpt lat="45.75392" lon="4.60872">
        <ele>662.4</ele>
        <time>2021-09-27T13:17:05.000Z</time>
      </trkpt>
      <trkpt lat="45.75396" lon="4.6087">
        <ele>662.2</ele>
        <time>2021-09-27T13:17:06.000Z</time>
      </trkpt>
      <trkpt lat="45.75398" lon="4.60868">
        <ele>662.2</ele>
        <time>2021-09-27T13:17:07.000Z</time>
      </trkpt>
      <trkpt lat="45.75403" lon="4.60868">
        <ele>661.8</ele>
        <time>2021-09-27T13:17:08.000Z</time>
      </trkpt>
      <trkpt lat="45.75407" lon="4.60863">
        <ele>661.2</ele>
        <time>2021-09-27T13:17:10.000Z</time>
      </trkpt>
      <trkpt lat="45.75409" lon="4.60858">
        <ele>661</ele>
        <time>2021-09-27T13:17:11.000Z</time>
      </trkpt>
      <trkpt lat="45.75408" lon="4.60853">
        <ele>660.6</ele>
        <time>2021-09-27T13:17:12.000Z</time>
      </trkpt>
      <trkpt lat="45.75408" lon="4.60851">
        <ele>660.2</ele>
        <time>2021-09-27T13:17:13.000Z</time>
      </trkpt>
      <trkpt lat="45.75412" lon="4.60853">
        <ele>659.6</ele>
        <time>2021-09-27T13:17:14.000Z</time>
      </trkpt>
      <trkpt lat="45.75414" lon="4.60852">
        <ele>659</ele>
        <time>2021-09-27T13:17:15.000Z</time>
      </trkpt>
      <trkpt lat="45.75419" lon="4.60849">
        <ele>658.4</ele>
        <time>2021-09-27T13:17:16.000Z</time>
      </trkpt>
      <trkpt lat="45.75426" lon="4.60846">
        <ele>657.6</ele>
        <time>2021-09-27T13:17:17.000Z</time>
      </trkpt>
      <trkpt lat="45.75431" lon="4.60844">
        <ele>657.2</ele>
        <time>2021-09-27T13:17:18.000Z</time>
      </trkpt>
      <trkpt lat="45.75435" lon="4.60844">
        <ele>656.6</ele>
        <time>2021-09-27T13:17:19.000Z</time>
      </trkpt>
      <trkpt lat="45.75439" lon="4.60842">
        <ele>655.8</ele>
        <time>2021-09-27T13:17:20.000Z</time>
      </trkpt>
      <trkpt lat="45.75443" lon="4.6084">
        <ele>654.6</ele>
        <time>2021-09-27T13:17:21.000Z</time>
      </trkpt>
      <trkpt lat="45.75445" lon="4.60836">
        <ele>653.8</ele>
        <time>2021-09-27T13:17:22.000Z</time>
      </trkpt>
      <trkpt lat="45.75444" lon="4.60832">
        <ele>652.6</ele>
        <time>2021-09-27T13:17:23.000Z</time>
      </trkpt>
      <trkpt lat="45.75443" lon="4.60828">
        <ele>651.6</ele>
        <time>2021-09-27T13:17:24.000Z</time>
      </trkpt>
      <trkpt lat="45.75441" lon="4.60825">
        <ele>650.6</ele>
        <time>2021-09-27T13:17:25.000Z</time>
      </trkpt>
      <trkpt lat="45.75439" lon="4.60821">
        <ele>649.8</ele>
        <time>2021-09-27T13:17:26.000Z</time>
      </trkpt>
      <trkpt lat="45.75437" lon="4.60816">
        <ele>649.4</ele>
        <time>2021-09-27T13:17:27.000Z</time>
      </trkpt>
      <trkpt lat="45.75435" lon="4.60813">
        <ele>649</ele>
        <time>2021-09-27T13:17:28.000Z</time>
      </trkpt>
      <trkpt lat="45.75433" lon="4.60811">
        <ele>648.6</ele>
        <time>2021-09-27T13:17:29.000Z</time>
      </trkpt>
      <trkpt lat="45.75432" lon="4.60809">
        <ele>648</ele>
        <time>2021-09-27T13:17:30.000Z</time>
      </trkpt>
      <trkpt lat="45.75432" lon="4.60806">
        <ele>648</ele>
        <time>2021-09-27T13:17:31.000Z</time>
      </trkpt>
      <trkpt lat="45.75431" lon="4.60803">
        <ele>647.6</ele>
        <time>2021-09-27T13:17:32.000Z</time>
      </trkpt>
      <trkpt lat="45.75429" lon="4.60799">
        <ele>646.8</ele>
        <time>2021-09-27T13:17:33.000Z</time>
      </trkpt>
      <trkpt lat="45.75428" lon="4.60795">
        <ele>645.4</ele>
        <time>2021-09-27T13:17:34.000Z</time>
      </trkpt>
      <trkpt lat="45.75425" lon="4.60792">
        <ele>644</ele>
        <time>2021-09-27T13:17:35.000Z</time>
      </trkpt>
      <trkpt lat="45.75421" lon="4.60787">
        <ele>643.2</ele>
        <time>2021-09-27T13:17:36.000Z</time>
      </trkpt>
      <trkpt lat="45.75416" lon="4.60785">
        <ele>642.4</ele>
        <time>2021-09-27T13:17:37.000Z</time>
      </trkpt>
      <trkpt lat="45.75413" lon="4.60783">
        <ele>642</ele>
        <time>2021-09-27T13:17:38.000Z</time>
      </trkpt>
      <trkpt lat="45.75408" lon="4.60781">
        <ele>641.4</ele>
        <time>2021-09-27T13:17:39.000Z</time>
      </trkpt>
      <trkpt lat="45.75405" lon="4.60778">
        <ele>640.6</ele>
        <time>2021-09-27T13:17:40.000Z</time>
      </trkpt>
      <trkpt lat="45.754" lon="4.60774">
        <ele>640</ele>
        <time>2021-09-27T13:17:41.000Z</time>
      </trkpt>
      <trkpt lat="45.75396" lon="4.60767">
        <ele>639.2</ele>
        <time>2021-09-27T13:17:42.000Z</time>
      </trkpt>
      <trkpt lat="45.75392" lon="4.60762">
        <ele>638.2</ele>
        <time>2021-09-27T13:17:43.000Z</time>
      </trkpt>
      <trkpt lat="45.7539" lon="4.60756">
        <ele>637.4</ele>
        <time>2021-09-27T13:17:44.000Z</time>
      </trkpt>
      <trkpt lat="45.75388" lon="4.6075">
        <ele>637</ele>
        <time>2021-09-27T13:17:45.000Z</time>
      </trkpt>
      <trkpt lat="45.75383" lon="4.60734">
        <ele>635.8</ele>
        <time>2021-09-27T13:17:47.000Z</time>
      </trkpt>
      <trkpt lat="45.75383" lon="4.60726">
        <ele>635.4</ele>
        <time>2021-09-27T13:17:48.000Z</time>
      </trkpt>
      <trkpt lat="45.75384" lon="4.60722">
        <ele>635.2</ele>
        <time>2021-09-27T13:17:49.000Z</time>
      </trkpt>
      <trkpt lat="45.75385" lon="4.60717">
        <ele>634.8</ele>
        <time>2021-09-27T13:17:50.000Z</time>
      </trkpt>
      <trkpt lat="45.75387" lon="4.60711">
        <ele>634.6</ele>
        <time>2021-09-27T13:17:51.000Z</time>
      </trkpt>
      <trkpt lat="45.75389" lon="4.60708">
        <ele>634.4</ele>
        <time>2021-09-27T13:17:52.000Z</time>
      </trkpt>
      <trkpt lat="45.7539" lon="4.60703">
        <ele>634</ele>
        <time>2021-09-27T13:17:53.000Z</time>
      </trkpt>
      <trkpt lat="45.75391" lon="4.60697">
        <ele>633.6</ele>
        <time>2021-09-27T13:17:54.000Z</time>
      </trkpt>
      <trkpt lat="45.75392" lon="4.60686">
        <ele>632.6</ele>
        <time>2021-09-27T13:17:56.000Z</time>
      </trkpt>
      <trkpt lat="45.75393" lon="4.6068">
        <ele>631.8</ele>
        <time>2021-09-27T13:17:57.000Z</time>
      </trkpt>
      <trkpt lat="45.75393" lon="4.60674">
        <ele>631</ele>
        <time>2021-09-27T13:17:58.000Z</time>
      </trkpt>
      <trkpt lat="45.75393" lon="4.60669">
        <ele>629.8</ele>
        <time>2021-09-27T13:17:59.000Z</time>
      </trkpt>
      <trkpt lat="45.75394" lon="4.6066">
        <ele>628.8</ele>
        <time>2021-09-27T13:18:00.000Z</time>
      </trkpt>
      <trkpt lat="45.75392" lon="4.60654">
        <ele>627.8</ele>
        <time>2021-09-27T13:18:01.000Z</time>
      </trkpt>
      <trkpt lat="45.7539" lon="4.60649">
        <ele>626</ele>
        <time>2021-09-27T13:18:02.000Z</time>
      </trkpt>
      <trkpt lat="45.75389" lon="4.60645">
        <ele>624.6</ele>
        <time>2021-09-27T13:18:03.000Z</time>
      </trkpt>
      <trkpt lat="45.7539" lon="4.60641">
        <ele>623.6</ele>
        <time>2021-09-27T13:18:04.000Z</time>
      </trkpt>
      <trkpt lat="45.75392" lon="4.60636">
        <ele>622.4</ele>
        <time>2021-09-27T13:18:05.000Z</time>
      </trkpt>
      <trkpt lat="45.75392" lon="4.60631">
        <ele>620.8</ele>
        <time>2021-09-27T13:18:06.000Z</time>
      </trkpt>
      <trkpt lat="45.75391" lon="4.60627">
        <ele>619.2</ele>
        <time>2021-09-27T13:18:07.000Z</time>
      </trkpt>
      <trkpt lat="45.75389" lon="4.60622">
        <ele>618.2</ele>
        <time>2021-09-27T13:18:08.000Z</time>
      </trkpt>
      <trkpt lat="45.75392" lon="4.60615">
        <ele>617</ele>
        <time>2021-09-27T13:18:09.000Z</time>
      </trkpt>
      <trkpt lat="45.75394" lon="4.60608">
        <ele>616.2</ele>
        <time>2021-09-27T13:18:10.000Z</time>
      </trkpt>
      <trkpt lat="45.75393" lon="4.60602">
        <ele>615.6</ele>
        <time>2021-09-27T13:18:11.000Z</time>
      </trkpt>
      <trkpt lat="45.75392" lon="4.60597">
        <ele>615.2</ele>
        <time>2021-09-27T13:18:12.000Z</time>
      </trkpt>
      <trkpt lat="45.75393" lon="4.60592">
        <ele>614.6</ele>
        <time>2021-09-27T13:18:13.000Z</time>
      </trkpt>
      <trkpt lat="45.75393" lon="4.60588">
        <ele>613.4</ele>
        <time>2021-09-27T13:18:14.000Z</time>
      </trkpt>
      <trkpt lat="45.75391" lon="4.60581">
        <ele>612</ele>
        <time>2021-09-27T13:18:16.000Z</time>
      </trkpt>
      <trkpt lat="45.7539" lon="4.60579">
        <ele>611.4</ele>
        <time>2021-09-27T13:18:17.000Z</time>
      </trkpt>
      <trkpt lat="45.7539" lon="4.60579">
        <ele>609.6</ele>
        <time>2021-09-27T13:18:21.000Z</time>
      </trkpt>
      <trkpt lat="45.75392" lon="4.60577">
        <ele>608.4</ele>
        <time>2021-09-27T13:18:33.000Z</time>
      </trkpt>
      <trkpt lat="45.75397" lon="4.60573">
        <ele>608.2</ele>
        <time>2021-09-27T13:18:35.000Z</time>
      </trkpt>
      <trkpt lat="45.75398" lon="4.60566">
        <ele>608.2</ele>
        <time>2021-09-27T13:18:37.000Z</time>
      </trkpt>
      <trkpt lat="45.754" lon="4.60563">
        <ele>608.2</ele>
        <time>2021-09-27T13:18:38.000Z</time>
      </trkpt>
      <trkpt lat="45.75401" lon="4.60561">
        <ele>608</ele>
        <time>2021-09-27T13:18:39.000Z</time>
      </trkpt>
      <trkpt lat="45.75402" lon="4.6056">
        <ele>607.6</ele>
        <time>2021-09-27T13:18:40.000Z</time>
      </trkpt>
      <trkpt lat="45.75403" lon="4.60558">
        <ele>600.4</ele>
        <time>2021-09-27T13:19:08.000Z</time>
      </trkpt>
      <trkpt lat="45.75403" lon="4.60556">
        <ele>600.4</ele>
        <time>2021-09-27T13:19:09.000Z</time>
      </trkpt>
      <trkpt lat="45.75406" lon="4.60554">
        <ele>600.4</ele>
        <time>2021-09-27T13:19:10.000Z</time>
      </trkpt>
      <trkpt lat="45.75409" lon="4.60547">
        <ele>600.4</ele>
        <time>2021-09-27T13:19:12.000Z</time>
      </trkpt>
      <trkpt lat="45.75412" lon="4.60543">
        <ele>600</ele>
        <time>2021-09-27T13:19:13.000Z</time>
      </trkpt>
      <trkpt lat="45.75417" lon="4.60537">
        <ele>599.6</ele>
        <time>2021-09-27T13:19:14.000Z</time>
      </trkpt>
      <trkpt lat="45.75424" lon="4.60529">
        <ele>599</ele>
        <time>2021-09-27T13:19:15.000Z</time>
      </trkpt>
      <trkpt lat="45.75428" lon="4.60521">
        <ele>598.4</ele>
        <time>2021-09-27T13:19:16.000Z</time>
      </trkpt>
      <trkpt lat="45.75432" lon="4.60515">
        <ele>597.6</ele>
        <time>2021-09-27T13:19:17.000Z</time>
      </trkpt>
      <trkpt lat="45.75437" lon="4.60508">
        <ele>596.4</ele>
        <time>2021-09-27T13:19:18.000Z</time>
      </trkpt>
      <trkpt lat="45.75443" lon="4.60501">
        <ele>595.4</ele>
        <time>2021-09-27T13:19:19.000Z</time>
      </trkpt>
      <trkpt lat="45.75445" lon="4.60497">
        <ele>594.2</ele>
        <time>2021-09-27T13:19:20.000Z</time>
      </trkpt>
      <trkpt lat="45.75446" lon="4.60493">
        <ele>592.8</ele>
        <time>2021-09-27T13:19:21.000Z</time>
      </trkpt>
      <trkpt lat="45.75448" lon="4.60489">
        <ele>590.6</ele>
        <time>2021-09-27T13:19:22.000Z</time>
      </trkpt>
      <trkpt lat="45.75448" lon="4.60486">
        <ele>588</ele>
        <time>2021-09-27T13:19:23.000Z</time>
      </trkpt>
      <trkpt lat="45.75449" lon="4.60483">
        <ele>586.8</ele>
        <time>2021-09-27T13:19:24.000Z</time>
      </trkpt>
      <trkpt lat="45.75451" lon="4.6048">
        <ele>586</ele>
        <time>2021-09-27T13:19:25.000Z</time>
      </trkpt>
      <trkpt lat="45.75453" lon="4.60476">
        <ele>585.4</ele>
        <time>2021-09-27T13:19:26.000Z</time>
      </trkpt>
      <trkpt lat="45.75456" lon="4.60472">
        <ele>585.2</ele>
        <time>2021-09-27T13:19:27.000Z</time>
      </trkpt>
      <trkpt lat="45.7546" lon="4.60467">
        <ele>585</ele>
        <time>2021-09-27T13:19:28.000Z</time>
      </trkpt>
      <trkpt lat="45.75473" lon="4.60451">
        <ele>584.4</ele>
        <time>2021-09-27T13:19:31.000Z</time>
      </trkpt>
      <trkpt lat="45.75477" lon="4.60443">
        <ele>584.2</ele>
        <time>2021-09-27T13:19:32.000Z</time>
      </trkpt>
      <trkpt lat="45.75484" lon="4.60438">
        <ele>583.8</ele>
        <time>2021-09-27T13:19:33.000Z</time>
      </trkpt>
      <trkpt lat="45.75486" lon="4.60434">
        <ele>583.6</ele>
        <time>2021-09-27T13:19:34.000Z</time>
      </trkpt>
      <trkpt lat="45.75488" lon="4.6043">
        <ele>583.6</ele>
        <time>2021-09-27T13:19:35.000Z</time>
      </trkpt>
      <trkpt lat="45.7549" lon="4.60428">
        <ele>583.4</ele>
        <time>2021-09-27T13:19:36.000Z</time>
      </trkpt>
      <trkpt lat="45.75491" lon="4.60425">
        <ele>583.2</ele>
        <time>2021-09-27T13:19:37.000Z</time>
      </trkpt>
      <trkpt lat="45.75492" lon="4.6042">
        <ele>582.8</ele>
        <time>2021-09-27T13:19:38.000Z</time>
      </trkpt>
      <trkpt lat="45.75493" lon="4.6041">
        <ele>581.4</ele>
        <time>2021-09-27T13:19:40.000Z</time>
      </trkpt>
      <trkpt lat="45.75494" lon="4.60404">
        <ele>581</ele>
        <time>2021-09-27T13:19:41.000Z</time>
      </trkpt>
      <trkpt lat="45.75497" lon="4.60391">
        <ele>580.6</ele>
        <time>2021-09-27T13:19:43.000Z</time>
      </trkpt>
      <trkpt lat="45.75499" lon="4.60386">
        <ele>580.4</ele>
        <time>2021-09-27T13:19:44.000Z</time>
      </trkpt>
      <trkpt lat="45.755" lon="4.60383">
        <ele>580.4</ele>
        <time>2021-09-27T13:19:45.000Z</time>
      </trkpt>
      <trkpt lat="45.75501" lon="4.6038">
        <ele>580.4</ele>
        <time>2021-09-27T13:19:46.000Z</time>
      </trkpt>
      <trkpt lat="45.75501" lon="4.60376">
        <ele>580.2</ele>
        <time>2021-09-27T13:19:47.000Z</time>
      </trkpt>
      <trkpt lat="45.75501" lon="4.60373">
        <ele>579.8</ele>
        <time>2021-09-27T13:19:48.000Z</time>
      </trkpt>
      <trkpt lat="45.75501" lon="4.60371">
        <ele>579.2</ele>
        <time>2021-09-27T13:19:49.000Z</time>
      </trkpt>
      <trkpt lat="45.75502" lon="4.6037">
        <ele>578.6</ele>
        <time>2021-09-27T13:19:50.000Z</time>
      </trkpt>
      <trkpt lat="45.75502" lon="4.60367">
        <ele>576.2</ele>
        <time>2021-09-27T13:20:18.000Z</time>
      </trkpt>
      <trkpt lat="45.75503" lon="4.60364">
        <ele>576.2</ele>
        <time>2021-09-27T13:20:19.000Z</time>
      </trkpt>
      <trkpt lat="45.75505" lon="4.6036">
        <ele>576.2</ele>
        <time>2021-09-27T13:20:21.000Z</time>
      </trkpt>
      <trkpt lat="45.75504" lon="4.60354">
        <ele>575</ele>
        <time>2021-09-27T13:20:47.000Z</time>
      </trkpt>
      <trkpt lat="45.75503" lon="4.60351">
        <ele>575</ele>
        <time>2021-09-27T13:20:48.000Z</time>
      </trkpt>
      <trkpt lat="45.75502" lon="4.60348">
        <ele>575</ele>
        <time>2021-09-27T13:20:49.000Z</time>
      </trkpt>
      <trkpt lat="45.755" lon="4.60339">
        <ele>575</ele>
        <time>2021-09-27T13:20:51.000Z</time>
      </trkpt>
      <trkpt lat="45.75501" lon="4.60334">
        <ele>575</ele>
        <time>2021-09-27T13:20:52.000Z</time>
      </trkpt>
      <trkpt lat="45.75502" lon="4.60329">
        <ele>574.8</ele>
        <time>2021-09-27T13:20:53.000Z</time>
      </trkpt>
      <trkpt lat="45.75503" lon="4.60326">
        <ele>574.6</ele>
        <time>2021-09-27T13:20:54.000Z</time>
      </trkpt>
      <trkpt lat="45.75505" lon="4.60321">
        <ele>574.2</ele>
        <time>2021-09-27T13:20:55.000Z</time>
      </trkpt>
      <trkpt lat="45.75506" lon="4.60317">
        <ele>574</ele>
        <time>2021-09-27T13:20:56.000Z</time>
      </trkpt>
      <trkpt lat="45.75507" lon="4.60312">
        <ele>573.4</ele>
        <time>2021-09-27T13:20:57.000Z</time>
      </trkpt>
      <trkpt lat="45.75508" lon="4.60308">
        <ele>572.6</ele>
        <time>2021-09-27T13:20:58.000Z</time>
      </trkpt>
      <trkpt lat="45.7551" lon="4.60296">
        <ele>570.6</ele>
        <time>2021-09-27T13:21:00.000Z</time>
      </trkpt>
      <trkpt lat="45.75512" lon="4.60288">
        <ele>569.6</ele>
        <time>2021-09-27T13:21:02.000Z</time>
      </trkpt>
      <trkpt lat="45.75514" lon="4.60284">
        <ele>569</ele>
        <time>2021-09-27T13:21:03.000Z</time>
      </trkpt>
      <trkpt lat="45.75515" lon="4.6028">
        <ele>569</ele>
        <time>2021-09-27T13:21:04.000Z</time>
      </trkpt>
      <trkpt lat="45.75515" lon="4.60274">
        <ele>568.2</ele>
        <time>2021-09-27T13:21:05.000Z</time>
      </trkpt>
      <trkpt lat="45.75515" lon="4.60269">
        <ele>567.4</ele>
        <time>2021-09-27T13:21:06.000Z</time>
      </trkpt>
      <trkpt lat="45.75515" lon="4.60266">
        <ele>566.4</ele>
        <time>2021-09-27T13:21:07.000Z</time>
      </trkpt>
      <trkpt lat="45.75514" lon="4.60261">
        <ele>565.8</ele>
        <time>2021-09-27T13:21:08.000Z</time>
      </trkpt>
      <trkpt lat="45.75513" lon="4.60255">
        <ele>565</ele>
        <time>2021-09-27T13:21:09.000Z</time>
      </trkpt>
      <trkpt lat="45.75514" lon="4.60251">
        <ele>564.6</ele>
        <time>2021-09-27T13:21:10.000Z</time>
      </trkpt>
      <trkpt lat="45.75515" lon="4.60247">
        <ele>564.4</ele>
        <time>2021-09-27T13:21:11.000Z</time>
      </trkpt>
      <trkpt lat="45.75516" lon="4.60242">
        <ele>564</ele>
        <time>2021-09-27T13:21:12.000Z</time>
      </trkpt>
      <trkpt lat="45.75516" lon="4.60229">
        <ele>562.6</ele>
        <time>2021-09-27T13:21:15.000Z</time>
      </trkpt>
      <trkpt lat="45.75515" lon="4.60224">
        <ele>561.8</ele>
        <time>2021-09-27T13:21:16.000Z</time>
      </trkpt>
      <trkpt lat="45.75512" lon="4.60222">
        <ele>560.6</ele>
        <time>2021-09-27T13:21:17.000Z</time>
      </trkpt>
      <trkpt lat="45.75511" lon="4.60222">
        <ele>559.6</ele>
        <time>2021-09-27T13:21:18.000Z</time>
      </trkpt>
      <trkpt lat="45.7551" lon="4.60225">
        <ele>559.2</ele>
        <time>2021-09-27T13:21:19.000Z</time>
      </trkpt>
      <trkpt lat="45.7551" lon="4.60226">
        <ele>558.8</ele>
        <time>2021-09-27T13:21:20.000Z</time>
      </trkpt>
      <trkpt lat="45.75509" lon="4.60227">
        <ele>558.2</ele>
        <time>2021-09-27T13:21:21.000Z</time>
      </trkpt>
      <trkpt lat="45.75508" lon="4.60229">
        <ele>557.4</ele>
        <time>2021-09-27T13:21:22.000Z</time>
      </trkpt>
      <trkpt lat="45.75508" lon="4.60231">
        <ele>556.6</ele>
        <time>2021-09-27T13:21:23.000Z</time>
      </trkpt>
      <trkpt lat="45.75507" lon="4.60232">
        <ele>555.8</ele>
        <time>2021-09-27T13:21:24.000Z</time>
      </trkpt>
      <trkpt lat="45.75505" lon="4.60234">
        <ele>555.4</ele>
        <time>2021-09-27T13:21:25.000Z</time>
      </trkpt>
      <trkpt lat="45.75502" lon="4.6024">
        <ele>555</ele>
        <time>2021-09-27T13:21:27.000Z</time>
      </trkpt>
      <trkpt lat="45.75497" lon="4.60249">
        <ele>554.8</ele>
        <time>2021-09-27T13:21:30.000Z</time>
      </trkpt>
      <trkpt lat="45.75495" lon="4.60252">
        <ele>554.8</ele>
        <time>2021-09-27T13:21:31.000Z</time>
      </trkpt>
      <trkpt lat="45.75493" lon="4.60259">
        <ele>554.6</ele>
        <time>2021-09-27T13:21:33.000Z</time>
      </trkpt>
      <trkpt lat="45.75484" lon="4.60274">
        <ele>553.4</ele>
        <time>2021-09-27T13:21:38.000Z</time>
      </trkpt>
      <trkpt lat="45.75483" lon="4.60277">
        <ele>553.2</ele>
        <time>2021-09-27T13:21:39.000Z</time>
      </trkpt>
      <trkpt lat="45.75478" lon="4.60292">
        <ele>553.2</ele>
        <time>2021-09-27T13:21:43.000Z</time>
      </trkpt>
      <trkpt lat="45.75476" lon="4.60295">
        <ele>553</ele>
        <time>2021-09-27T13:21:44.000Z</time>
      </trkpt>
      <trkpt lat="45.75475" lon="4.60298">
        <ele>553</ele>
        <time>2021-09-27T13:21:45.000Z</time>
      </trkpt>
      <trkpt lat="45.75475" lon="4.60301">
        <ele>553</ele>
        <time>2021-09-27T13:21:46.000Z</time>
      </trkpt>
      <trkpt lat="45.75474" lon="4.60303">
        <ele>553</ele>
        <time>2021-09-27T13:21:47.000Z</time>
      </trkpt>
      <trkpt lat="45.75473" lon="4.60304">
        <ele>553.2</ele>
        <time>2021-09-27T13:21:49.000Z</time>
      </trkpt>
      <trkpt lat="45.75451" lon="4.60301">
        <ele>553</ele>
        <time>2021-09-27T13:27:05.000Z</time>
      </trkpt>
      <trkpt lat="45.75451" lon="4.60299">
        <ele>553</ele>
        <time>2021-09-27T13:27:06.000Z</time>
      </trkpt>
      <trkpt lat="45.7545" lon="4.60297">
        <ele>553</ele>
        <time>2021-09-27T13:27:07.000Z</time>
      </trkpt>
      <trkpt lat="45.7545" lon="4.60295">
        <ele>553</ele>
        <time>2021-09-27T13:27:08.000Z</time>
      </trkpt>
      <trkpt lat="45.7545" lon="4.60294">
        <ele>553</ele>
        <time>2021-09-27T13:27:09.000Z</time>
      </trkpt>
      <trkpt lat="45.7545" lon="4.60291">
        <ele>553</ele>
        <time>2021-09-27T13:27:11.000Z</time>
      </trkpt>
      <trkpt lat="45.75449" lon="4.60289">
        <ele>553</ele>
        <time>2021-09-27T13:27:12.000Z</time>
      </trkpt>
      <trkpt lat="45.75449" lon="4.60287">
        <ele>553.2</ele>
        <time>2021-09-27T13:27:13.000Z</time>
      </trkpt>
      <trkpt lat="45.75446" lon="4.60284">
        <ele>553.4</ele>
        <time>2021-09-27T13:27:15.000Z</time>
      </trkpt>
      <trkpt lat="45.75445" lon="4.60282">
        <ele>553.4</ele>
        <time>2021-09-27T13:27:16.000Z</time>
      </trkpt>
      <trkpt lat="45.75445" lon="4.6028">
        <ele>553.6</ele>
        <time>2021-09-27T13:27:17.000Z</time>
      </trkpt>
      <trkpt lat="45.75444" lon="4.60278">
        <ele>553.6</ele>
        <time>2021-09-27T13:27:18.000Z</time>
      </trkpt>
      <trkpt lat="45.75444" lon="4.60276">
        <ele>553.6</ele>
        <time>2021-09-27T13:27:19.000Z</time>
      </trkpt>
      <trkpt lat="45.75441" lon="4.60269">
        <ele>553.8</ele>
        <time>2021-09-27T13:27:22.000Z</time>
      </trkpt>
      <trkpt lat="45.75439" lon="4.60263">
        <ele>554</ele>
        <time>2021-09-27T13:27:24.000Z</time>
      </trkpt>
      <trkpt lat="45.75438" lon="4.6026">
        <ele>554</ele>
        <time>2021-09-27T13:27:25.000Z</time>
      </trkpt>
      <trkpt lat="45.75436" lon="4.60251">
        <ele>554</ele>
        <time>2021-09-27T13:27:27.000Z</time>
      </trkpt>
      <trkpt lat="45.75434" lon="4.6024">
        <ele>554</ele>
        <time>2021-09-27T13:27:29.000Z</time>
      </trkpt>
      <trkpt lat="45.75432" lon="4.60232">
        <ele>554</ele>
        <time>2021-09-27T13:27:30.000Z</time>
      </trkpt>
      <trkpt lat="45.75431" lon="4.60224">
        <ele>553.8</ele>
        <time>2021-09-27T13:27:31.000Z</time>
      </trkpt>
      <trkpt lat="45.75428" lon="4.60212">
        <ele>553.4</ele>
        <time>2021-09-27T13:27:33.000Z</time>
      </trkpt>
      <trkpt lat="45.75428" lon="4.60207">
        <ele>553</ele>
        <time>2021-09-27T13:27:34.000Z</time>
      </trkpt>
      <trkpt lat="45.75427" lon="4.60194">
        <ele>552.2</ele>
        <time>2021-09-27T13:27:36.000Z</time>
      </trkpt>
      <trkpt lat="45.75423" lon="4.60181">
        <ele>551.8</ele>
        <time>2021-09-27T13:27:38.000Z</time>
      </trkpt>
      <trkpt lat="45.75419" lon="4.60166">
        <ele>551.4</ele>
        <time>2021-09-27T13:27:40.000Z</time>
      </trkpt>
      <trkpt lat="45.75417" lon="4.60159">
        <ele>551.4</ele>
        <time>2021-09-27T13:27:41.000Z</time>
      </trkpt>
      <trkpt lat="45.75415" lon="4.60153">
        <ele>551.4</ele>
        <time>2021-09-27T13:27:42.000Z</time>
      </trkpt>
      <trkpt lat="45.75414" lon="4.60145">
        <ele>551.2</ele>
        <time>2021-09-27T13:27:43.000Z</time>
      </trkpt>
      <trkpt lat="45.75411" lon="4.60139">
        <ele>551</ele>
        <time>2021-09-27T13:27:44.000Z</time>
      </trkpt>
      <trkpt lat="45.75409" lon="4.60134">
        <ele>551</ele>
        <time>2021-09-27T13:27:45.000Z</time>
      </trkpt>
      <trkpt lat="45.75407" lon="4.6013">
        <ele>551</ele>
        <time>2021-09-27T13:27:46.000Z</time>
      </trkpt>
      <trkpt lat="45.75406" lon="4.60126">
        <ele>550.8</ele>
        <time>2021-09-27T13:27:47.000Z</time>
      </trkpt>
      <trkpt lat="45.75403" lon="4.60122">
        <ele>550.8</ele>
        <time>2021-09-27T13:27:48.000Z</time>
      </trkpt>
      <trkpt lat="45.754" lon="4.60118">
        <ele>550.8</ele>
        <time>2021-09-27T13:27:49.000Z</time>
      </trkpt>
      <trkpt lat="45.75397" lon="4.60114">
        <ele>550.8</ele>
        <time>2021-09-27T13:27:50.000Z</time>
      </trkpt>
      <trkpt lat="45.75396" lon="4.60113">
        <ele>550.8</ele>
        <time>2021-09-27T13:27:51.000Z</time>
      </trkpt>
      <trkpt lat="45.75394" lon="4.60111">
        <ele>550.8</ele>
        <time>2021-09-27T13:27:52.000Z</time>
      </trkpt>
      <trkpt lat="45.75391" lon="4.60106">
        <ele>550.8</ele>
        <time>2021-09-27T13:27:54.000Z</time>
      </trkpt>
      <trkpt lat="45.75384" lon="4.601">
        <ele>551.2</ele>
        <time>2021-09-27T13:27:57.000Z</time>
      </trkpt>
      <trkpt lat="45.75382" lon="4.60099">
        <ele>551.4</ele>
        <time>2021-09-27T13:27:58.000Z</time>
      </trkpt>
      <trkpt lat="45.75379" lon="4.60097">
        <ele>551.4</ele>
        <time>2021-09-27T13:27:59.000Z</time>
      </trkpt>
      <trkpt lat="45.75369" lon="4.60094">
        <ele>551.4</ele>
        <time>2021-09-27T13:28:02.000Z</time>
      </trkpt>
      <trkpt lat="45.75366" lon="4.60094">
        <ele>551.4</ele>
        <time>2021-09-27T13:28:03.000Z</time>
      </trkpt>
      <trkpt lat="45.75363" lon="4.60095">
        <ele>551.4</ele>
        <time>2021-09-27T13:28:04.000Z</time>
      </trkpt>
      <trkpt lat="45.75354" lon="4.60093">
        <ele>551.4</ele>
        <time>2021-09-27T13:28:07.000Z</time>
      </trkpt>
      <trkpt lat="45.75347" lon="4.60092">
        <ele>551.4</ele>
        <time>2021-09-27T13:28:09.000Z</time>
      </trkpt>
      <trkpt lat="45.75342" lon="4.60092">
        <ele>551.4</ele>
        <time>2021-09-27T13:28:11.000Z</time>
      </trkpt>
      <trkpt lat="45.75339" lon="4.60091">
        <ele>551.4</ele>
        <time>2021-09-27T13:28:12.000Z</time>
      </trkpt>
      <trkpt lat="45.75336" lon="4.60091">
        <ele>551.4</ele>
        <time>2021-09-27T13:28:13.000Z</time>
      </trkpt>
      <trkpt lat="45.75333" lon="4.60092">
        <ele>551.4</ele>
        <time>2021-09-27T13:28:14.000Z</time>
      </trkpt>
      <trkpt lat="45.75313" lon="4.60092">
        <ele>551.4</ele>
        <time>2021-09-27T13:28:20.000Z</time>
      </trkpt>
      <trkpt lat="45.7529" lon="4.60097">
        <ele>551.4</ele>
        <time>2021-09-27T13:28:27.000Z</time>
      </trkpt>
      <trkpt lat="45.75263" lon="4.60104">
        <ele>551.2</ele>
        <time>2021-09-27T13:28:36.000Z</time>
      </trkpt>
      <trkpt lat="45.75259" lon="4.60104">
        <ele>551.2</ele>
        <time>2021-09-27T13:28:37.000Z</time>
      </trkpt>
      <trkpt lat="45.75256" lon="4.60105">
        <ele>551.2</ele>
        <time>2021-09-27T13:28:38.000Z</time>
      </trkpt>
      <trkpt lat="45.75243" lon="4.60107">
        <ele>551.4</ele>
        <time>2021-09-27T13:28:42.000Z</time>
      </trkpt>
      <trkpt lat="45.7523" lon="4.60109">
        <ele>551.6</ele>
        <time>2021-09-27T13:28:46.000Z</time>
      </trkpt>
      <trkpt lat="45.75203" lon="4.6011">
        <ele>551.6</ele>
        <time>2021-09-27T13:28:54.000Z</time>
      </trkpt>
      <trkpt lat="45.75173" lon="4.60114">
        <ele>551.6</ele>
        <time>2021-09-27T13:29:03.000Z</time>
      </trkpt>
      <trkpt lat="45.75169" lon="4.60115">
        <ele>551.6</ele>
        <time>2021-09-27T13:29:04.000Z</time>
      </trkpt>
      <trkpt lat="45.75167" lon="4.60115">
        <ele>551.6</ele>
        <time>2021-09-27T13:29:05.000Z</time>
      </trkpt>
      <trkpt lat="45.75165" lon="4.60114">
        <ele>551.6</ele>
        <time>2021-09-27T13:29:06.000Z</time>
      </trkpt>
      <trkpt lat="45.75163" lon="4.60114">
        <ele>551.6</ele>
        <time>2021-09-27T13:29:07.000Z</time>
      </trkpt>
      <trkpt lat="45.75145" lon="4.60114">
        <ele>552.6</ele>
        <time>2021-09-27T13:29:13.000Z</time>
      </trkpt>
      <trkpt lat="45.7513" lon="4.60113">
        <ele>552.8</ele>
        <time>2021-09-27T13:29:17.000Z</time>
      </trkpt>
      <trkpt lat="45.75126" lon="4.60112">
        <ele>552.8</ele>
        <time>2021-09-27T13:29:18.000Z</time>
      </trkpt>
      <trkpt lat="45.75122" lon="4.60113">
        <ele>552.8</ele>
        <time>2021-09-27T13:29:19.000Z</time>
      </trkpt>
      <trkpt lat="45.75101" lon="4.60114">
        <ele>553</ele>
        <time>2021-09-27T13:29:25.000Z</time>
      </trkpt>
      <trkpt lat="45.75098" lon="4.60114">
        <ele>553</ele>
        <time>2021-09-27T13:29:26.000Z</time>
      </trkpt>
      <trkpt lat="45.75095" lon="4.60115">
        <ele>553</ele>
        <time>2021-09-27T13:29:27.000Z</time>
      </trkpt>
      <trkpt lat="45.75092" lon="4.60116">
        <ele>553</ele>
        <time>2021-09-27T13:29:28.000Z</time>
      </trkpt>
      <trkpt lat="45.75089" lon="4.60117">
        <ele>553</ele>
        <time>2021-09-27T13:29:29.000Z</time>
      </trkpt>
      <trkpt lat="45.75086" lon="4.60118">
        <ele>553</ele>
        <time>2021-09-27T13:29:30.000Z</time>
      </trkpt>
      <trkpt lat="45.75083" lon="4.60119">
        <ele>553</ele>
        <time>2021-09-27T13:29:31.000Z</time>
      </trkpt>
      <trkpt lat="45.75081" lon="4.6012">
        <ele>553</ele>
        <time>2021-09-27T13:29:32.000Z</time>
      </trkpt>
      <trkpt lat="45.75078" lon="4.60121">
        <ele>553.2</ele>
        <time>2021-09-27T13:29:33.000Z</time>
      </trkpt>
      <trkpt lat="45.75076" lon="4.60122">
        <ele>553.2</ele>
        <time>2021-09-27T13:29:34.000Z</time>
      </trkpt>
      <trkpt lat="45.75074" lon="4.60123">
        <ele>553.2</ele>
        <time>2021-09-27T13:29:35.000Z</time>
      </trkpt>
      <trkpt lat="45.75071" lon="4.60123">
        <ele>553.4</ele>
        <time>2021-09-27T13:29:36.000Z</time>
      </trkpt>
      <trkpt lat="45.75069" lon="4.60124">
        <ele>553.6</ele>
        <time>2021-09-27T13:29:37.000Z</time>
      </trkpt>
      <trkpt lat="45.75067" lon="4.60124">
        <ele>553.8</ele>
        <time>2021-09-27T13:29:38.000Z</time>
      </trkpt>
      <trkpt lat="45.75065" lon="4.60125">
        <ele>553.8</ele>
        <time>2021-09-27T13:29:39.000Z</time>
      </trkpt>
      <trkpt lat="45.75063" lon="4.60126">
        <ele>553.8</ele>
        <time>2021-09-27T13:29:40.000Z</time>
      </trkpt>
      <trkpt lat="45.75062" lon="4.60127">
        <ele>554</ele>
        <time>2021-09-27T13:29:41.000Z</time>
      </trkpt>
      <trkpt lat="45.75062" lon="4.60128">
        <ele>554</ele>
        <time>2021-09-27T13:29:42.000Z</time>
      </trkpt>
      <trkpt lat="45.75062" lon="4.60129">
        <ele>554</ele>
        <time>2021-09-27T13:29:43.000Z</time>
      </trkpt>
      <trkpt lat="45.75072" lon="4.60139">
        <ele>554.6</ele>
        <time>2021-09-27T13:30:45.000Z</time>
      </trkpt>
      <trkpt lat="45.75074" lon="4.6014">
        <ele>554.8</ele>
        <time>2021-09-27T13:30:46.000Z</time>
      </trkpt>
      <trkpt lat="45.75075" lon="4.60141">
        <ele>554.8</ele>
        <time>2021-09-27T13:30:47.000Z</time>
      </trkpt>
      <trkpt lat="45.75076" lon="4.60142">
        <ele>555</ele>
        <time>2021-09-27T13:30:48.000Z</time>
      </trkpt>
      <trkpt lat="45.75077" lon="4.60142">
        <ele>555.2</ele>
        <time>2021-09-27T13:30:49.000Z</time>
      </trkpt>
      <trkpt lat="45.75078" lon="4.60143">
        <ele>555.2</ele>
        <time>2021-09-27T13:30:50.000Z</time>
      </trkpt>
      <trkpt lat="45.7508" lon="4.60143">
        <ele>555.2</ele>
        <time>2021-09-27T13:30:51.000Z</time>
      </trkpt>
      <trkpt lat="45.75081" lon="4.60144">
        <ele>555.4</ele>
        <time>2021-09-27T13:30:52.000Z</time>
      </trkpt>
      <trkpt lat="45.75082" lon="4.60145">
        <ele>555.4</ele>
        <time>2021-09-27T13:30:53.000Z</time>
      </trkpt>
      <trkpt lat="45.75083" lon="4.60147">
        <ele>555.4</ele>
        <time>2021-09-27T13:30:54.000Z</time>
      </trkpt>
      <trkpt lat="45.75084" lon="4.60149">
        <ele>555.6</ele>
        <time>2021-09-27T13:30:55.000Z</time>
      </trkpt>
      <trkpt lat="45.75085" lon="4.6015">
        <ele>555.8</ele>
        <time>2021-09-27T13:30:56.000Z</time>
      </trkpt>
      <trkpt lat="45.75085" lon="4.60152">
        <ele>556</ele>
        <time>2021-09-27T13:30:57.000Z</time>
      </trkpt>
      <trkpt lat="45.75085" lon="4.60153">
        <ele>556.2</ele>
        <time>2021-09-27T13:30:58.000Z</time>
      </trkpt>
      <trkpt lat="45.75086" lon="4.60155">
        <ele>556.4</ele>
        <time>2021-09-27T13:30:59.000Z</time>
      </trkpt>
      <trkpt lat="45.75087" lon="4.60159">
        <ele>556.8</ele>
        <time>2021-09-27T13:31:01.000Z</time>
      </trkpt>
      <trkpt lat="45.75087" lon="4.60161">
        <ele>557.2</ele>
        <time>2021-09-27T13:31:02.000Z</time>
      </trkpt>
      <trkpt lat="45.75088" lon="4.60162">
        <ele>557.4</ele>
        <time>2021-09-27T13:31:03.000Z</time>
      </trkpt>
      <trkpt lat="45.75088" lon="4.60164">
        <ele>557.8</ele>
        <time>2021-09-27T13:31:04.000Z</time>
      </trkpt>
      <trkpt lat="45.75088" lon="4.60167">
        <ele>558.2</ele>
        <time>2021-09-27T13:31:06.000Z</time>
      </trkpt>
      <trkpt lat="45.75087" lon="4.60169">
        <ele>558.6</ele>
        <time>2021-09-27T13:31:07.000Z</time>
      </trkpt>
      <trkpt lat="45.75088" lon="4.60171">
        <ele>558.8</ele>
        <time>2021-09-27T13:31:08.000Z</time>
      </trkpt>
      <trkpt lat="45.75088" lon="4.60173">
        <ele>559</ele>
        <time>2021-09-27T13:31:09.000Z</time>
      </trkpt>
      <trkpt lat="45.75087" lon="4.60174">
        <ele>559.2</ele>
        <time>2021-09-27T13:31:10.000Z</time>
      </trkpt>
      <trkpt lat="45.75087" lon="4.60175">
        <ele>559.4</ele>
        <time>2021-09-27T13:31:11.000Z</time>
      </trkpt>
      <trkpt lat="45.75086" lon="4.60177">
        <ele>559.4</ele>
        <time>2021-09-27T13:31:12.000Z</time>
      </trkpt>
      <trkpt lat="45.75085" lon="4.60179">
        <ele>559.6</ele>
        <time>2021-09-27T13:31:13.000Z</time>
      </trkpt>
      <trkpt lat="45.75085" lon="4.6018">
        <ele>559.8</ele>
        <time>2021-09-27T13:31:14.000Z</time>
      </trkpt>
      <trkpt lat="45.75084" lon="4.60182">
        <ele>559.8</ele>
        <time>2021-09-27T13:31:15.000Z</time>
      </trkpt>
      <trkpt lat="45.75084" lon="4.60183">
        <ele>560</ele>
        <time>2021-09-27T13:31:16.000Z</time>
      </trkpt>
      <trkpt lat="45.75083" lon="4.60184">
        <ele>560.4</ele>
        <time>2021-09-27T13:31:17.000Z</time>
      </trkpt>
      <trkpt lat="45.75083" lon="4.60186">
        <ele>560.6</ele>
        <time>2021-09-27T13:31:18.000Z</time>
      </trkpt>
      <trkpt lat="45.75082" lon="4.60187">
        <ele>560.8</ele>
        <time>2021-09-27T13:31:19.000Z</time>
      </trkpt>
      <trkpt lat="45.75081" lon="4.60188">
        <ele>561</ele>
        <time>2021-09-27T13:31:20.000Z</time>
      </trkpt>
      <trkpt lat="45.7508" lon="4.60189">
        <ele>561</ele>
        <time>2021-09-27T13:31:21.000Z</time>
      </trkpt>
      <trkpt lat="45.75079" lon="4.6019">
        <ele>561.2</ele>
        <time>2021-09-27T13:31:22.000Z</time>
      </trkpt>
      <trkpt lat="45.75078" lon="4.60191">
        <ele>561.2</ele>
        <time>2021-09-27T13:31:23.000Z</time>
      </trkpt>
      <trkpt lat="45.75077" lon="4.60192">
        <ele>561.4</ele>
        <time>2021-09-27T13:31:24.000Z</time>
      </trkpt>
      <trkpt lat="45.75076" lon="4.60194">
        <ele>561.8</ele>
        <time>2021-09-27T13:31:25.000Z</time>
      </trkpt>
      <trkpt lat="45.75075" lon="4.60195">
        <ele>562</ele>
        <time>2021-09-27T13:31:26.000Z</time>
      </trkpt>
      <trkpt lat="45.75074" lon="4.60196">
        <ele>562.2</ele>
        <time>2021-09-27T13:31:27.000Z</time>
      </trkpt>
      <trkpt lat="45.75074" lon="4.60197">
        <ele>562.4</ele>
        <time>2021-09-27T13:31:28.000Z</time>
      </trkpt>
      <trkpt lat="45.75074" lon="4.60198">
        <ele>562.8</ele>
        <time>2021-09-27T13:31:29.000Z</time>
      </trkpt>
      <trkpt lat="45.75073" lon="4.60198">
        <ele>563</ele>
        <time>2021-09-27T13:31:30.000Z</time>
      </trkpt>
      <trkpt lat="45.75073" lon="4.60199">
        <ele>563</ele>
        <time>2021-09-27T13:31:31.000Z</time>
      </trkpt>
      <trkpt lat="45.75072" lon="4.602">
        <ele>563.2</ele>
        <time>2021-09-27T13:31:32.000Z</time>
      </trkpt>
      <trkpt lat="45.75071" lon="4.60201">
        <ele>563.4</ele>
        <time>2021-09-27T13:31:33.000Z</time>
      </trkpt>
      <trkpt lat="45.7507" lon="4.60202">
        <ele>563.6</ele>
        <time>2021-09-27T13:31:34.000Z</time>
      </trkpt>
      <trkpt lat="45.75069" lon="4.60203">
        <ele>563.6</ele>
        <time>2021-09-27T13:31:35.000Z</time>
      </trkpt>
      <trkpt lat="45.75067" lon="4.60204">
        <ele>563.8</ele>
        <time>2021-09-27T13:31:36.000Z</time>
      </trkpt>
      <trkpt lat="45.75066" lon="4.60205">
        <ele>564</ele>
        <time>2021-09-27T13:31:37.000Z</time>
      </trkpt>
      <trkpt lat="45.75065" lon="4.60206">
        <ele>564</ele>
        <time>2021-09-27T13:31:38.000Z</time>
      </trkpt>
      <trkpt lat="45.75064" lon="4.60207">
        <ele>564</ele>
        <time>2021-09-27T13:31:39.000Z</time>
      </trkpt>
      <trkpt lat="45.75063" lon="4.60207">
        <ele>564.2</ele>
        <time>2021-09-27T13:31:40.000Z</time>
      </trkpt>
      <trkpt lat="45.75062" lon="4.60209">
        <ele>564.4</ele>
        <time>2021-09-27T13:31:41.000Z</time>
      </trkpt>
      <trkpt lat="45.75061" lon="4.6021">
        <ele>564.6</ele>
        <time>2021-09-27T13:31:42.000Z</time>
      </trkpt>
      <trkpt lat="45.7506" lon="4.60211">
        <ele>564.6</ele>
        <time>2021-09-27T13:31:43.000Z</time>
      </trkpt>
      <trkpt lat="45.75059" lon="4.60212">
        <ele>564.8</ele>
        <time>2021-09-27T13:31:44.000Z</time>
      </trkpt>
      <trkpt lat="45.75058" lon="4.60213">
        <ele>565</ele>
        <time>2021-09-27T13:31:45.000Z</time>
      </trkpt>
      <trkpt lat="45.75057" lon="4.60214">
        <ele>565.2</ele>
        <time>2021-09-27T13:31:46.000Z</time>
      </trkpt>
      <trkpt lat="45.75057" lon="4.60215">
        <ele>565.4</ele>
        <time>2021-09-27T13:31:47.000Z</time>
      </trkpt>
      <trkpt lat="45.75056" lon="4.60216">
        <ele>565.4</ele>
        <time>2021-09-27T13:31:48.000Z</time>
      </trkpt>
      <trkpt lat="45.75054" lon="4.60217">
        <ele>565.6</ele>
        <time>2021-09-27T13:31:49.000Z</time>
      </trkpt>
      <trkpt lat="45.75053" lon="4.60218">
        <ele>565.8</ele>
        <time>2021-09-27T13:31:50.000Z</time>
      </trkpt>
      <trkpt lat="45.75052" lon="4.60219">
        <ele>566</ele>
        <time>2021-09-27T13:31:51.000Z</time>
      </trkpt>
      <trkpt lat="45.75051" lon="4.6022">
        <ele>566.2</ele>
        <time>2021-09-27T13:31:52.000Z</time>
      </trkpt>
      <trkpt lat="45.7505" lon="4.60221">
        <ele>566.4</ele>
        <time>2021-09-27T13:31:53.000Z</time>
      </trkpt>
      <trkpt lat="45.75049" lon="4.60221">
        <ele>566.4</ele>
        <time>2021-09-27T13:31:54.000Z</time>
      </trkpt>
      <trkpt lat="45.75048" lon="4.60223">
        <ele>566.6</ele>
        <time>2021-09-27T13:31:55.000Z</time>
      </trkpt>
      <trkpt lat="45.75047" lon="4.60224">
        <ele>566.8</ele>
        <time>2021-09-27T13:31:56.000Z</time>
      </trkpt>
      <trkpt lat="45.75046" lon="4.60226">
        <ele>566.8</ele>
        <time>2021-09-27T13:31:57.000Z</time>
      </trkpt>
      <trkpt lat="45.75045" lon="4.60227">
        <ele>566.8</ele>
        <time>2021-09-27T13:31:58.000Z</time>
      </trkpt>
      <trkpt lat="45.75044" lon="4.60228">
        <ele>566.8</ele>
        <time>2021-09-27T13:31:59.000Z</time>
      </trkpt>
      <trkpt lat="45.75044" lon="4.60229">
        <ele>567</ele>
        <time>2021-09-27T13:32:00.000Z</time>
      </trkpt>
      <trkpt lat="45.75043" lon="4.6023">
        <ele>567</ele>
        <time>2021-09-27T13:32:01.000Z</time>
      </trkpt>
      <trkpt lat="45.75042" lon="4.60232">
        <ele>567.2</ele>
        <time>2021-09-27T13:32:02.000Z</time>
      </trkpt>
      <trkpt lat="45.75041" lon="4.60233">
        <ele>567.2</ele>
        <time>2021-09-27T13:32:03.000Z</time>
      </trkpt>
      <trkpt lat="45.7504" lon="4.60234">
        <ele>567.4</ele>
        <time>2021-09-27T13:32:04.000Z</time>
      </trkpt>
      <trkpt lat="45.75039" lon="4.60236">
        <ele>567.4</ele>
        <time>2021-09-27T13:32:05.000Z</time>
      </trkpt>
      <trkpt lat="45.75039" lon="4.60238">
        <ele>567.6</ele>
        <time>2021-09-27T13:32:06.000Z</time>
      </trkpt>
      <trkpt lat="45.75038" lon="4.6024">
        <ele>567.8</ele>
        <time>2021-09-27T13:32:07.000Z</time>
      </trkpt>
      <trkpt lat="45.75037" lon="4.60242">
        <ele>568</ele>
        <time>2021-09-27T13:32:08.000Z</time>
      </trkpt>
      <trkpt lat="45.75037" lon="4.60243">
        <ele>568.2</ele>
        <time>2021-09-27T13:32:09.000Z</time>
      </trkpt>
      <trkpt lat="45.75036" lon="4.60245">
        <ele>568.4</ele>
        <time>2021-09-27T13:32:10.000Z</time>
      </trkpt>
      <trkpt lat="45.75035" lon="4.60247">
        <ele>568.4</ele>
        <time>2021-09-27T13:32:11.000Z</time>
      </trkpt>
      <trkpt lat="45.75035" lon="4.60248">
        <ele>568.6</ele>
        <time>2021-09-27T13:32:12.000Z</time>
      </trkpt>
      <trkpt lat="45.75035" lon="4.6025">
        <ele>568.8</ele>
        <time>2021-09-27T13:32:13.000Z</time>
      </trkpt>
      <trkpt lat="45.75035" lon="4.60252">
        <ele>568.8</ele>
        <time>2021-09-27T13:32:14.000Z</time>
      </trkpt>
      <trkpt lat="45.75034" lon="4.60254">
        <ele>569</ele>
        <time>2021-09-27T13:32:15.000Z</time>
      </trkpt>
      <trkpt lat="45.75033" lon="4.60255">
        <ele>569.2</ele>
        <time>2021-09-27T13:32:16.000Z</time>
      </trkpt>
      <trkpt lat="45.75032" lon="4.60257">
        <ele>569.2</ele>
        <time>2021-09-27T13:32:17.000Z</time>
      </trkpt>
      <trkpt lat="45.75031" lon="4.60258">
        <ele>569.4</ele>
        <time>2021-09-27T13:32:18.000Z</time>
      </trkpt>
      <trkpt lat="45.75031" lon="4.60259">
        <ele>569.6</ele>
        <time>2021-09-27T13:32:19.000Z</time>
      </trkpt>
      <trkpt lat="45.7503" lon="4.60261">
        <ele>569.8</ele>
        <time>2021-09-27T13:32:20.000Z</time>
      </trkpt>
      <trkpt lat="45.75029" lon="4.60263">
        <ele>569.8</ele>
        <time>2021-09-27T13:32:21.000Z</time>
      </trkpt>
      <trkpt lat="45.75029" lon="4.60264">
        <ele>570</ele>
        <time>2021-09-27T13:32:22.000Z</time>
      </trkpt>
      <trkpt lat="45.75029" lon="4.60265">
        <ele>570.2</ele>
        <time>2021-09-27T13:32:23.000Z</time>
      </trkpt>
      <trkpt lat="45.75028" lon="4.60267">
        <ele>570.4</ele>
        <time>2021-09-27T13:32:24.000Z</time>
      </trkpt>
      <trkpt lat="45.75028" lon="4.60268">
        <ele>570.4</ele>
        <time>2021-09-27T13:32:25.000Z</time>
      </trkpt>
      <trkpt lat="45.75028" lon="4.6027">
        <ele>570.4</ele>
        <time>2021-09-27T13:32:26.000Z</time>
      </trkpt>
      <trkpt lat="45.75027" lon="4.60271">
        <ele>570.6</ele>
        <time>2021-09-27T13:32:27.000Z</time>
      </trkpt>
      <trkpt lat="45.75027" lon="4.60272">
        <ele>570.8</ele>
        <time>2021-09-27T13:32:28.000Z</time>
      </trkpt>
      <trkpt lat="45.75026" lon="4.60273">
        <ele>571</ele>
        <time>2021-09-27T13:32:29.000Z</time>
      </trkpt>
      <trkpt lat="45.75026" lon="4.60275">
        <ele>571.2</ele>
        <time>2021-09-27T13:32:30.000Z</time>
      </trkpt>
      <trkpt lat="45.75025" lon="4.60276">
        <ele>571.4</ele>
        <time>2021-09-27T13:32:31.000Z</time>
      </trkpt>
      <trkpt lat="45.75025" lon="4.60278">
        <ele>571.6</ele>
        <time>2021-09-27T13:32:32.000Z</time>
      </trkpt>
      <trkpt lat="45.75025" lon="4.60279">
        <ele>571.8</ele>
        <time>2021-09-27T13:32:33.000Z</time>
      </trkpt>
      <trkpt lat="45.75025" lon="4.60281">
        <ele>571.8</ele>
        <time>2021-09-27T13:32:34.000Z</time>
      </trkpt>
      <trkpt lat="45.75024" lon="4.60283">
        <ele>572</ele>
        <time>2021-09-27T13:32:35.000Z</time>
      </trkpt>
      <trkpt lat="45.75024" lon="4.60284">
        <ele>572.2</ele>
        <time>2021-09-27T13:32:36.000Z</time>
      </trkpt>
      <trkpt lat="45.75023" lon="4.60286">
        <ele>572.4</ele>
        <time>2021-09-27T13:32:37.000Z</time>
      </trkpt>
      <trkpt lat="45.75022" lon="4.60287">
        <ele>572.8</ele>
        <time>2021-09-27T13:32:39.000Z</time>
      </trkpt>
      <trkpt lat="45.75022" lon="4.6029">
        <ele>573</ele>
        <time>2021-09-27T13:32:40.000Z</time>
      </trkpt>
      <trkpt lat="45.75021" lon="4.60291">
        <ele>573</ele>
        <time>2021-09-27T13:32:41.000Z</time>
      </trkpt>
      <trkpt lat="45.75021" lon="4.60293">
        <ele>573.2</ele>
        <time>2021-09-27T13:32:42.000Z</time>
      </trkpt>
      <trkpt lat="45.7502" lon="4.60295">
        <ele>573.4</ele>
        <time>2021-09-27T13:32:43.000Z</time>
      </trkpt>
      <trkpt lat="45.7502" lon="4.60296">
        <ele>573.6</ele>
        <time>2021-09-27T13:32:44.000Z</time>
      </trkpt>
      <trkpt lat="45.7502" lon="4.60298">
        <ele>573.8</ele>
        <time>2021-09-27T13:32:45.000Z</time>
      </trkpt>
      <trkpt lat="45.75019" lon="4.603">
        <ele>574</ele>
        <time>2021-09-27T13:32:46.000Z</time>
      </trkpt>
      <trkpt lat="45.75019" lon="4.60301">
        <ele>574.2</ele>
        <time>2021-09-27T13:32:47.000Z</time>
      </trkpt>
      <trkpt lat="45.75018" lon="4.60303">
        <ele>574.4</ele>
        <time>2021-09-27T13:32:48.000Z</time>
      </trkpt>
      <trkpt lat="45.75017" lon="4.60305">
        <ele>574.8</ele>
        <time>2021-09-27T13:32:49.000Z</time>
      </trkpt>
      <trkpt lat="45.75016" lon="4.60306">
        <ele>574.8</ele>
        <time>2021-09-27T13:32:50.000Z</time>
      </trkpt>
      <trkpt lat="45.75015" lon="4.60307">
        <ele>575</ele>
        <time>2021-09-27T13:32:51.000Z</time>
      </trkpt>
      <trkpt lat="45.75015" lon="4.60309">
        <ele>575.2</ele>
        <time>2021-09-27T13:32:52.000Z</time>
      </trkpt>
      <trkpt lat="45.75015" lon="4.6031">
        <ele>575.4</ele>
        <time>2021-09-27T13:32:53.000Z</time>
      </trkpt>
      <trkpt lat="45.75015" lon="4.60311">
        <ele>575.6</ele>
        <time>2021-09-27T13:32:54.000Z</time>
      </trkpt>
      <trkpt lat="45.75015" lon="4.60313">
        <ele>576</ele>
        <time>2021-09-27T13:32:55.000Z</time>
      </trkpt>
      <trkpt lat="45.75015" lon="4.60314">
        <ele>576.4</ele>
        <time>2021-09-27T13:32:56.000Z</time>
      </trkpt>
      <trkpt lat="45.75015" lon="4.60315">
        <ele>576.4</ele>
        <time>2021-09-27T13:32:57.000Z</time>
      </trkpt>
      <trkpt lat="45.75016" lon="4.60316">
        <ele>576.6</ele>
        <time>2021-09-27T13:32:58.000Z</time>
      </trkpt>
      <trkpt lat="45.75017" lon="4.60317">
        <ele>576.8</ele>
        <time>2021-09-27T13:32:59.000Z</time>
      </trkpt>
      <trkpt lat="45.75018" lon="4.60316">
        <ele>577</ele>
        <time>2021-09-27T13:33:01.000Z</time>
      </trkpt>
      <trkpt lat="45.75019" lon="4.60317">
        <ele>577</ele>
        <time>2021-09-27T13:33:02.000Z</time>
      </trkpt>
      <trkpt lat="45.7502" lon="4.60318">
        <ele>577.2</ele>
        <time>2021-09-27T13:33:03.000Z</time>
      </trkpt>
      <trkpt lat="45.75021" lon="4.60319">
        <ele>577.2</ele>
        <time>2021-09-27T13:33:04.000Z</time>
      </trkpt>
      <trkpt lat="45.75022" lon="4.60319">
        <ele>577.4</ele>
        <time>2021-09-27T13:33:06.000Z</time>
      </trkpt>
      <trkpt lat="45.75023" lon="4.6032">
        <ele>577.6</ele>
        <time>2021-09-27T13:33:07.000Z</time>
      </trkpt>
      <trkpt lat="45.75024" lon="4.6032">
        <ele>577.6</ele>
        <time>2021-09-27T13:33:08.000Z</time>
      </trkpt>
      <trkpt lat="45.75025" lon="4.6032">
        <ele>577.6</ele>
        <time>2021-09-27T13:33:09.000Z</time>
      </trkpt>
      <trkpt lat="45.75026" lon="4.60319">
        <ele>577.8</ele>
        <time>2021-09-27T13:33:10.000Z</time>
      </trkpt>
      <trkpt lat="45.75027" lon="4.60319">
        <ele>577.8</ele>
        <time>2021-09-27T13:33:11.000Z</time>
      </trkpt>
      <trkpt lat="45.75028" lon="4.60318">
        <ele>578</ele>
        <time>2021-09-27T13:33:12.000Z</time>
      </trkpt>
      <trkpt lat="45.75028" lon="4.60317">
        <ele>578.2</ele>
        <time>2021-09-27T13:33:13.000Z</time>
      </trkpt>
      <trkpt lat="45.75029" lon="4.60316">
        <ele>578.2</ele>
        <time>2021-09-27T13:33:14.000Z</time>
      </trkpt>
      <trkpt lat="45.7503" lon="4.60315">
        <ele>578.4</ele>
        <time>2021-09-27T13:33:15.000Z</time>
      </trkpt>
      <trkpt lat="45.75032" lon="4.60315">
        <ele>578.6</ele>
        <time>2021-09-27T13:33:16.000Z</time>
      </trkpt>
      <trkpt lat="45.75033" lon="4.60314">
        <ele>578.8</ele>
        <time>2021-09-27T13:33:17.000Z</time>
      </trkpt>
      <trkpt lat="45.75033" lon="4.60313">
        <ele>579.2</ele>
        <time>2021-09-27T13:33:18.000Z</time>
      </trkpt>
      <trkpt lat="45.75095" lon="4.60314">
        <ele>588.4</ele>
        <time>2021-09-27T13:34:38.000Z</time>
      </trkpt>
      <trkpt lat="45.75096" lon="4.60315">
        <ele>588.6</ele>
        <time>2021-09-27T13:34:39.000Z</time>
      </trkpt>
      <trkpt lat="45.75097" lon="4.60316">
        <ele>588.8</ele>
        <time>2021-09-27T13:34:40.000Z</time>
      </trkpt>
      <trkpt lat="45.75099" lon="4.60317">
        <ele>589</ele>
        <time>2021-09-27T13:34:41.000Z</time>
      </trkpt>
      <trkpt lat="45.751" lon="4.60317">
        <ele>589.2</ele>
        <time>2021-09-27T13:34:42.000Z</time>
      </trkpt>
      <trkpt lat="45.75101" lon="4.60318">
        <ele>589.2</ele>
        <time>2021-09-27T13:34:43.000Z</time>
      </trkpt>
      <trkpt lat="45.75102" lon="4.60318">
        <ele>589.4</ele>
        <time>2021-09-27T13:34:44.000Z</time>
      </trkpt>
      <trkpt lat="45.75104" lon="4.60319">
        <ele>589.6</ele>
        <time>2021-09-27T13:34:45.000Z</time>
      </trkpt>
      <trkpt lat="45.75105" lon="4.60319">
        <ele>589.8</ele>
        <time>2021-09-27T13:34:46.000Z</time>
      </trkpt>
      <trkpt lat="45.75106" lon="4.6032">
        <ele>590</ele>
        <time>2021-09-27T13:34:47.000Z</time>
      </trkpt>
      <trkpt lat="45.75107" lon="4.60321">
        <ele>590</ele>
        <time>2021-09-27T13:34:48.000Z</time>
      </trkpt>
      <trkpt lat="45.75109" lon="4.60321">
        <ele>590.2</ele>
        <time>2021-09-27T13:34:49.000Z</time>
      </trkpt>
      <trkpt lat="45.7511" lon="4.60321">
        <ele>590.4</ele>
        <time>2021-09-27T13:34:50.000Z</time>
      </trkpt>
      <trkpt lat="45.75111" lon="4.60322">
        <ele>590.6</ele>
        <time>2021-09-27T13:34:51.000Z</time>
      </trkpt>
      <trkpt lat="45.75112" lon="4.60323">
        <ele>590.8</ele>
        <time>2021-09-27T13:34:52.000Z</time>
      </trkpt>
      <trkpt lat="45.75113" lon="4.60323">
        <ele>591</ele>
        <time>2021-09-27T13:34:53.000Z</time>
      </trkpt>
      <trkpt lat="45.75114" lon="4.60324">
        <ele>591.2</ele>
        <time>2021-09-27T13:34:54.000Z</time>
      </trkpt>
      <trkpt lat="45.75116" lon="4.60325">
        <ele>591.4</ele>
        <time>2021-09-27T13:34:55.000Z</time>
      </trkpt>
      <trkpt lat="45.75117" lon="4.60325">
        <ele>591.6</ele>
        <time>2021-09-27T13:34:56.000Z</time>
      </trkpt>
      <trkpt lat="45.75118" lon="4.60325">
        <ele>591.8</ele>
        <time>2021-09-27T13:34:57.000Z</time>
      </trkpt>
      <trkpt lat="45.75119" lon="4.60326">
        <ele>592</ele>
        <time>2021-09-27T13:34:58.000Z</time>
      </trkpt>
      <trkpt lat="45.7512" lon="4.60327">
        <ele>592.2</ele>
        <time>2021-09-27T13:34:59.000Z</time>
      </trkpt>
      <trkpt lat="45.75121" lon="4.60327">
        <ele>592.4</ele>
        <time>2021-09-27T13:35:00.000Z</time>
      </trkpt>
      <trkpt lat="45.75123" lon="4.60327">
        <ele>592.6</ele>
        <time>2021-09-27T13:35:01.000Z</time>
      </trkpt>
      <trkpt lat="45.75124" lon="4.60328">
        <ele>592.8</ele>
        <time>2021-09-27T13:35:02.000Z</time>
      </trkpt>
      <trkpt lat="45.75125" lon="4.60329">
        <ele>593</ele>
        <time>2021-09-27T13:35:04.000Z</time>
      </trkpt>
      <trkpt lat="45.75126" lon="4.6033">
        <ele>593.4</ele>
        <time>2021-09-27T13:35:05.000Z</time>
      </trkpt>
      <trkpt lat="45.75127" lon="4.6033">
        <ele>593.4</ele>
        <time>2021-09-27T13:35:06.000Z</time>
      </trkpt>
      <trkpt lat="45.75128" lon="4.60331">
        <ele>593.6</ele>
        <time>2021-09-27T13:35:07.000Z</time>
      </trkpt>
      <trkpt lat="45.75129" lon="4.60332">
        <ele>594</ele>
        <time>2021-09-27T13:35:08.000Z</time>
      </trkpt>
      <trkpt lat="45.75131" lon="4.60332">
        <ele>594.2</ele>
        <time>2021-09-27T13:35:09.000Z</time>
      </trkpt>
      <trkpt lat="45.75132" lon="4.60332">
        <ele>594.4</ele>
        <time>2021-09-27T13:35:10.000Z</time>
      </trkpt>
      <trkpt lat="45.75133" lon="4.60333">
        <ele>594.6</ele>
        <time>2021-09-27T13:35:11.000Z</time>
      </trkpt>
      <trkpt lat="45.75134" lon="4.60334">
        <ele>594.6</ele>
        <time>2021-09-27T13:35:12.000Z</time>
      </trkpt>
      <trkpt lat="45.75136" lon="4.60334">
        <ele>594.8</ele>
        <time>2021-09-27T13:35:13.000Z</time>
      </trkpt>
      <trkpt lat="45.75137" lon="4.60335">
        <ele>595</ele>
        <time>2021-09-27T13:35:14.000Z</time>
      </trkpt>
      <trkpt lat="45.75139" lon="4.60335">
        <ele>595.2</ele>
        <time>2021-09-27T13:35:15.000Z</time>
      </trkpt>
      <trkpt lat="45.7514" lon="4.60336">
        <ele>595.4</ele>
        <time>2021-09-27T13:35:16.000Z</time>
      </trkpt>
      <trkpt lat="45.75141" lon="4.60336">
        <ele>595.6</ele>
        <time>2021-09-27T13:35:17.000Z</time>
      </trkpt>
      <trkpt lat="45.75142" lon="4.60336">
        <ele>595.8</ele>
        <time>2021-09-27T13:35:18.000Z</time>
      </trkpt>
      <trkpt lat="45.75143" lon="4.60337">
        <ele>596</ele>
        <time>2021-09-27T13:35:19.000Z</time>
      </trkpt>
      <trkpt lat="45.75144" lon="4.60338">
        <ele>596.2</ele>
        <time>2021-09-27T13:35:20.000Z</time>
      </trkpt>
      <trkpt lat="45.75145" lon="4.60339">
        <ele>596.6</ele>
        <time>2021-09-27T13:35:21.000Z</time>
      </trkpt>
      <trkpt lat="45.75146" lon="4.60339">
        <ele>596.8</ele>
        <time>2021-09-27T13:35:22.000Z</time>
      </trkpt>
      <trkpt lat="45.75147" lon="4.6034">
        <ele>596.8</ele>
        <time>2021-09-27T13:35:23.000Z</time>
      </trkpt>
      <trkpt lat="45.75148" lon="4.60341">
        <ele>597.2</ele>
        <time>2021-09-27T13:35:24.000Z</time>
      </trkpt>
      <trkpt lat="45.75149" lon="4.60342">
        <ele>597.4</ele>
        <time>2021-09-27T13:35:25.000Z</time>
      </trkpt>
      <trkpt lat="45.7515" lon="4.60342">
        <ele>597.8</ele>
        <time>2021-09-27T13:35:26.000Z</time>
      </trkpt>
      <trkpt lat="45.75151" lon="4.60343">
        <ele>597.8</ele>
        <time>2021-09-27T13:35:27.000Z</time>
      </trkpt>
      <trkpt lat="45.75153" lon="4.60344">
        <ele>598</ele>
        <time>2021-09-27T13:35:28.000Z</time>
      </trkpt>
      <trkpt lat="45.75153" lon="4.60346">
        <ele>598.4</ele>
        <time>2021-09-27T13:35:29.000Z</time>
      </trkpt>
      <trkpt lat="45.75154" lon="4.60347">
        <ele>598.6</ele>
        <time>2021-09-27T13:35:30.000Z</time>
      </trkpt>
      <trkpt lat="45.75155" lon="4.60348">
        <ele>598.8</ele>
        <time>2021-09-27T13:35:31.000Z</time>
      </trkpt>
      <trkpt lat="45.75156" lon="4.60348">
        <ele>598.8</ele>
        <time>2021-09-27T13:35:32.000Z</time>
      </trkpt>
      <trkpt lat="45.75157" lon="4.60349">
        <ele>599</ele>
        <time>2021-09-27T13:35:33.000Z</time>
      </trkpt>
      <trkpt lat="45.75158" lon="4.60349">
        <ele>599.2</ele>
        <time>2021-09-27T13:35:34.000Z</time>
      </trkpt>
      <trkpt lat="45.75159" lon="4.6035">
        <ele>599.2</ele>
        <time>2021-09-27T13:35:35.000Z</time>
      </trkpt>
      <trkpt lat="45.7516" lon="4.60351">
        <ele>599.2</ele>
        <time>2021-09-27T13:35:36.000Z</time>
      </trkpt>
      <trkpt lat="45.75162" lon="4.60352">
        <ele>599.4</ele>
        <time>2021-09-27T13:35:37.000Z</time>
      </trkpt>
      <trkpt lat="45.75163" lon="4.60352">
        <ele>599.6</ele>
        <time>2021-09-27T13:35:38.000Z</time>
      </trkpt>
      <trkpt lat="45.75164" lon="4.60353">
        <ele>599.8</ele>
        <time>2021-09-27T13:35:39.000Z</time>
      </trkpt>
      <trkpt lat="45.75165" lon="4.60354">
        <ele>600</ele>
        <time>2021-09-27T13:35:40.000Z</time>
      </trkpt>
      <trkpt lat="45.75166" lon="4.60354">
        <ele>600.2</ele>
        <time>2021-09-27T13:35:41.000Z</time>
      </trkpt>
      <trkpt lat="45.75167" lon="4.60354">
        <ele>600.2</ele>
        <time>2021-09-27T13:35:42.000Z</time>
      </trkpt>
      <trkpt lat="45.75168" lon="4.60355">
        <ele>600.6</ele>
        <time>2021-09-27T13:35:43.000Z</time>
      </trkpt>
      <trkpt lat="45.7517" lon="4.60355">
        <ele>600.6</ele>
        <time>2021-09-27T13:35:44.000Z</time>
      </trkpt>
      <trkpt lat="45.75171" lon="4.60355">
        <ele>600.8</ele>
        <time>2021-09-27T13:35:45.000Z</time>
      </trkpt>
      <trkpt lat="45.75172" lon="4.60356">
        <ele>601</ele>
        <time>2021-09-27T13:35:46.000Z</time>
      </trkpt>
      <trkpt lat="45.75173" lon="4.60357">
        <ele>601.2</ele>
        <time>2021-09-27T13:35:47.000Z</time>
      </trkpt>
      <trkpt lat="45.75174" lon="4.60358">
        <ele>601.4</ele>
        <time>2021-09-27T13:35:49.000Z</time>
      </trkpt>
      <trkpt lat="45.75175" lon="4.60358">
        <ele>601.6</ele>
        <time>2021-09-27T13:35:50.000Z</time>
      </trkpt>
      <trkpt lat="45.75176" lon="4.60359">
        <ele>601.8</ele>
        <time>2021-09-27T13:35:51.000Z</time>
      </trkpt>
      <trkpt lat="45.75178" lon="4.60359">
        <ele>602</ele>
        <time>2021-09-27T13:35:52.000Z</time>
      </trkpt>
      <trkpt lat="45.75179" lon="4.60359">
        <ele>602.2</ele>
        <time>2021-09-27T13:35:54.000Z</time>
      </trkpt>
      <trkpt lat="45.75179" lon="4.6036">
        <ele>602.4</ele>
        <time>2021-09-27T13:35:55.000Z</time>
      </trkpt>
      <trkpt lat="45.7518" lon="4.6036">
        <ele>602.4</ele>
        <time>2021-09-27T13:35:56.000Z</time>
      </trkpt>
      <trkpt lat="45.75182" lon="4.60361">
        <ele>602.6</ele>
        <time>2021-09-27T13:35:57.000Z</time>
      </trkpt>
      <trkpt lat="45.75183" lon="4.60362">
        <ele>602.8</ele>
        <time>2021-09-27T13:35:58.000Z</time>
      </trkpt>
      <trkpt lat="45.75184" lon="4.60362">
        <ele>602.8</ele>
        <time>2021-09-27T13:35:59.000Z</time>
      </trkpt>
      <trkpt lat="45.75185" lon="4.60363">
        <ele>603</ele>
        <time>2021-09-27T13:36:00.000Z</time>
      </trkpt>
      <trkpt lat="45.75186" lon="4.60363">
        <ele>603.4</ele>
        <time>2021-09-27T13:36:01.000Z</time>
      </trkpt>
      <trkpt lat="45.75188" lon="4.60363">
        <ele>603.6</ele>
        <time>2021-09-27T13:36:02.000Z</time>
      </trkpt>
      <trkpt lat="45.75189" lon="4.60363">
        <ele>603.8</ele>
        <time>2021-09-27T13:36:03.000Z</time>
      </trkpt>
      <trkpt lat="45.7519" lon="4.60362">
        <ele>604.2</ele>
        <time>2021-09-27T13:36:04.000Z</time>
      </trkpt>
      <trkpt lat="45.75192" lon="4.60361">
        <ele>604.4</ele>
        <time>2021-09-27T13:36:05.000Z</time>
      </trkpt>
      <trkpt lat="45.75193" lon="4.6036">
        <ele>604.6</ele>
        <time>2021-09-27T13:36:06.000Z</time>
      </trkpt>
      <trkpt lat="45.75195" lon="4.60358">
        <ele>604.8</ele>
        <time>2021-09-27T13:36:07.000Z</time>
      </trkpt>
      <trkpt lat="45.75197" lon="4.60357">
        <ele>605</ele>
        <time>2021-09-27T13:36:08.000Z</time>
      </trkpt>
      <trkpt lat="45.75198" lon="4.60356">
        <ele>605.2</ele>
        <time>2021-09-27T13:36:09.000Z</time>
      </trkpt>
      <trkpt lat="45.75199" lon="4.60356">
        <ele>605.2</ele>
        <time>2021-09-27T13:36:10.000Z</time>
      </trkpt>
      <trkpt lat="45.752" lon="4.60356">
        <ele>605.4</ele>
        <time>2021-09-27T13:36:11.000Z</time>
      </trkpt>
      <trkpt lat="45.75202" lon="4.60354">
        <ele>605.6</ele>
        <time>2021-09-27T13:36:12.000Z</time>
      </trkpt>
      <trkpt lat="45.75203" lon="4.60352">
        <ele>605.6</ele>
        <time>2021-09-27T13:36:13.000Z</time>
      </trkpt>
      <trkpt lat="45.75205" lon="4.60351">
        <ele>605.8</ele>
        <time>2021-09-27T13:36:14.000Z</time>
      </trkpt>
      <trkpt lat="45.75206" lon="4.60349">
        <ele>606</ele>
        <time>2021-09-27T13:36:15.000Z</time>
      </trkpt>
      <trkpt lat="45.75207" lon="4.60348">
        <ele>606.2</ele>
        <time>2021-09-27T13:36:16.000Z</time>
      </trkpt>
      <trkpt lat="45.75209" lon="4.60346">
        <ele>606.2</ele>
        <time>2021-09-27T13:36:17.000Z</time>
      </trkpt>
      <trkpt lat="45.7521" lon="4.60345">
        <ele>606.4</ele>
        <time>2021-09-27T13:36:18.000Z</time>
      </trkpt>
      <trkpt lat="45.75211" lon="4.60344">
        <ele>606.6</ele>
        <time>2021-09-27T13:36:19.000Z</time>
      </trkpt>
      <trkpt lat="45.75213" lon="4.60342">
        <ele>606.8</ele>
        <time>2021-09-27T13:36:20.000Z</time>
      </trkpt>
      <trkpt lat="45.75215" lon="4.60343">
        <ele>607.2</ele>
        <time>2021-09-27T13:36:21.000Z</time>
      </trkpt>
      <trkpt lat="45.75216" lon="4.60341">
        <ele>607.2</ele>
        <time>2021-09-27T13:36:22.000Z</time>
      </trkpt>
      <trkpt lat="45.75217" lon="4.6034">
        <ele>607.4</ele>
        <time>2021-09-27T13:36:23.000Z</time>
      </trkpt>
      <trkpt lat="45.75218" lon="4.60339">
        <ele>607.6</ele>
        <time>2021-09-27T13:36:24.000Z</time>
      </trkpt>
      <trkpt lat="45.75219" lon="4.60338">
        <ele>608.2</ele>
        <time>2021-09-27T13:36:26.000Z</time>
      </trkpt>
      <trkpt lat="45.7522" lon="4.60338">
        <ele>608.4</ele>
        <time>2021-09-27T13:36:27.000Z</time>
      </trkpt>
      <trkpt lat="45.75221" lon="4.60338">
        <ele>608.6</ele>
        <time>2021-09-27T13:36:28.000Z</time>
      </trkpt>
      <trkpt lat="45.75222" lon="4.60339">
        <ele>608.8</ele>
        <time>2021-09-27T13:36:29.000Z</time>
      </trkpt>
      <trkpt lat="45.75223" lon="4.60339">
        <ele>609</ele>
        <time>2021-09-27T13:36:30.000Z</time>
      </trkpt>
      <trkpt lat="45.75224" lon="4.60338">
        <ele>609.2</ele>
        <time>2021-09-27T13:36:31.000Z</time>
      </trkpt>
      <trkpt lat="45.75225" lon="4.60338">
        <ele>609.4</ele>
        <time>2021-09-27T13:36:32.000Z</time>
      </trkpt>
      <trkpt lat="45.75226" lon="4.60337">
        <ele>609.6</ele>
        <time>2021-09-27T13:36:33.000Z</time>
      </trkpt>
      <trkpt lat="45.75227" lon="4.60336">
        <ele>610</ele>
        <time>2021-09-27T13:36:34.000Z</time>
      </trkpt>
      <trkpt lat="45.75228" lon="4.60336">
        <ele>610.2</ele>
        <time>2021-09-27T13:36:35.000Z</time>
      </trkpt>
      <trkpt lat="45.75229" lon="4.60336">
        <ele>610.4</ele>
        <time>2021-09-27T13:36:36.000Z</time>
      </trkpt>
      <trkpt lat="45.7523" lon="4.60336">
        <ele>610.6</ele>
        <time>2021-09-27T13:36:37.000Z</time>
      </trkpt>
      <trkpt lat="45.75231" lon="4.60337">
        <ele>610.6</ele>
        <time>2021-09-27T13:36:38.000Z</time>
      </trkpt>
      <trkpt lat="45.75233" lon="4.60337">
        <ele>611</ele>
        <time>2021-09-27T13:36:39.000Z</time>
      </trkpt>
      <trkpt lat="45.75234" lon="4.60338">
        <ele>611.2</ele>
        <time>2021-09-27T13:36:40.000Z</time>
      </trkpt>
      <trkpt lat="45.75235" lon="4.60338">
        <ele>611.4</ele>
        <time>2021-09-27T13:36:41.000Z</time>
      </trkpt>
      <trkpt lat="45.75236" lon="4.60338">
        <ele>611.4</ele>
        <time>2021-09-27T13:36:42.000Z</time>
      </trkpt>
      <trkpt lat="45.75238" lon="4.60338">
        <ele>611.6</ele>
        <time>2021-09-27T13:36:43.000Z</time>
      </trkpt>
      <trkpt lat="45.75239" lon="4.60338">
        <ele>611.8</ele>
        <time>2021-09-27T13:36:44.000Z</time>
      </trkpt>
      <trkpt lat="45.7524" lon="4.60337">
        <ele>612</ele>
        <time>2021-09-27T13:36:45.000Z</time>
      </trkpt>
      <trkpt lat="45.75241" lon="4.60337">
        <ele>612</ele>
        <time>2021-09-27T13:36:46.000Z</time>
      </trkpt>
      <trkpt lat="45.75242" lon="4.60337">
        <ele>612</ele>
        <time>2021-09-27T13:36:47.000Z</time>
      </trkpt>
      <trkpt lat="45.75243" lon="4.60337">
        <ele>612.2</ele>
        <time>2021-09-27T13:36:48.000Z</time>
      </trkpt>
      <trkpt lat="45.75244" lon="4.60337">
        <ele>612.2</ele>
        <time>2021-09-27T13:36:49.000Z</time>
      </trkpt>
      <trkpt lat="45.75245" lon="4.60337">
        <ele>612.4</ele>
        <time>2021-09-27T13:36:50.000Z</time>
      </trkpt>
      <trkpt lat="45.75246" lon="4.60337">
        <ele>612.6</ele>
        <time>2021-09-27T13:36:51.000Z</time>
      </trkpt>
      <trkpt lat="45.75248" lon="4.60336">
        <ele>613</ele>
        <time>2021-09-27T13:36:52.000Z</time>
      </trkpt>
      <trkpt lat="45.75249" lon="4.60335">
        <ele>613</ele>
        <time>2021-09-27T13:36:53.000Z</time>
      </trkpt>
      <trkpt lat="45.7525" lon="4.60333">
        <ele>613.2</ele>
        <time>2021-09-27T13:36:54.000Z</time>
      </trkpt>
      <trkpt lat="45.75251" lon="4.60332">
        <ele>613.4</ele>
        <time>2021-09-27T13:36:55.000Z</time>
      </trkpt>
      <trkpt lat="45.75252" lon="4.60331">
        <ele>613.6</ele>
        <time>2021-09-27T13:36:56.000Z</time>
      </trkpt>
      <trkpt lat="45.75254" lon="4.6033">
        <ele>613.8</ele>
        <time>2021-09-27T13:36:57.000Z</time>
      </trkpt>
      <trkpt lat="45.75255" lon="4.60329">
        <ele>614</ele>
        <time>2021-09-27T13:36:58.000Z</time>
      </trkpt>
      <trkpt lat="45.75256" lon="4.60328">
        <ele>614.2</ele>
        <time>2021-09-27T13:36:59.000Z</time>
      </trkpt>
      <trkpt lat="45.75258" lon="4.60327">
        <ele>614.4</ele>
        <time>2021-09-27T13:37:00.000Z</time>
      </trkpt>
      <trkpt lat="45.75259" lon="4.60327">
        <ele>614.6</ele>
        <time>2021-09-27T13:37:01.000Z</time>
      </trkpt>
      <trkpt lat="45.7526" lon="4.60326">
        <ele>614.8</ele>
        <time>2021-09-27T13:37:02.000Z</time>
      </trkpt>
      <trkpt lat="45.75262" lon="4.60326">
        <ele>614.8</ele>
        <time>2021-09-27T13:37:03.000Z</time>
      </trkpt>
      <trkpt lat="45.75263" lon="4.60326">
        <ele>615</ele>
        <time>2021-09-27T13:37:04.000Z</time>
      </trkpt>
      <trkpt lat="45.75264" lon="4.60327">
        <ele>615</ele>
        <time>2021-09-27T13:37:05.000Z</time>
      </trkpt>
      <trkpt lat="45.75265" lon="4.60327">
        <ele>615.2</ele>
        <time>2021-09-27T13:37:06.000Z</time>
      </trkpt>
      <trkpt lat="45.75266" lon="4.60328">
        <ele>615.4</ele>
        <time>2021-09-27T13:37:07.000Z</time>
      </trkpt>
      <trkpt lat="45.75267" lon="4.60328">
        <ele>615.6</ele>
        <time>2021-09-27T13:37:08.000Z</time>
      </trkpt>
      <trkpt lat="45.75268" lon="4.60329">
        <ele>615.8</ele>
        <time>2021-09-27T13:37:09.000Z</time>
      </trkpt>
      <trkpt lat="45.75269" lon="4.60329">
        <ele>615.8</ele>
        <time>2021-09-27T13:37:10.000Z</time>
      </trkpt>
      <trkpt lat="45.7527" lon="4.60331">
        <ele>616</ele>
        <time>2021-09-27T13:37:11.000Z</time>
      </trkpt>
      <trkpt lat="45.75272" lon="4.60331">
        <ele>616</ele>
        <time>2021-09-27T13:37:12.000Z</time>
      </trkpt>
      <trkpt lat="45.75272" lon="4.60332">
        <ele>616.2</ele>
        <time>2021-09-27T13:37:13.000Z</time>
      </trkpt>
      <trkpt lat="45.75273" lon="4.60332">
        <ele>616.4</ele>
        <time>2021-09-27T13:37:14.000Z</time>
      </trkpt>
      <trkpt lat="45.75275" lon="4.60333">
        <ele>616.6</ele>
        <time>2021-09-27T13:37:15.000Z</time>
      </trkpt>
      <trkpt lat="45.75276" lon="4.60334">
        <ele>616.8</ele>
        <time>2021-09-27T13:37:16.000Z</time>
      </trkpt>
      <trkpt lat="45.75277" lon="4.60334">
        <ele>617</ele>
        <time>2021-09-27T13:37:17.000Z</time>
      </trkpt>
      <trkpt lat="45.75278" lon="4.60335">
        <ele>617.2</ele>
        <time>2021-09-27T13:37:18.000Z</time>
      </trkpt>
      <trkpt lat="45.75279" lon="4.60336">
        <ele>617.2</ele>
        <time>2021-09-27T13:37:19.000Z</time>
      </trkpt>
      <trkpt lat="45.7528" lon="4.60337">
        <ele>617.4</ele>
        <time>2021-09-27T13:37:20.000Z</time>
      </trkpt>
      <trkpt lat="45.75281" lon="4.60339">
        <ele>617.4</ele>
        <time>2021-09-27T13:37:21.000Z</time>
      </trkpt>
      <trkpt lat="45.75283" lon="4.6034">
        <ele>617.8</ele>
        <time>2021-09-27T13:37:22.000Z</time>
      </trkpt>
      <trkpt lat="45.75284" lon="4.60341">
        <ele>618</ele>
        <time>2021-09-27T13:37:23.000Z</time>
      </trkpt>
      <trkpt lat="45.75285" lon="4.60341">
        <ele>618.2</ele>
        <time>2021-09-27T13:37:24.000Z</time>
      </trkpt>
      <trkpt lat="45.75286" lon="4.60342">
        <ele>618.4</ele>
        <time>2021-09-27T13:37:25.000Z</time>
      </trkpt>
      <trkpt lat="45.75287" lon="4.60343">
        <ele>618.6</ele>
        <time>2021-09-27T13:37:26.000Z</time>
      </trkpt>
      <trkpt lat="45.75288" lon="4.60344">
        <ele>618.6</ele>
        <time>2021-09-27T13:37:27.000Z</time>
      </trkpt>
      <trkpt lat="45.75289" lon="4.60345">
        <ele>618.8</ele>
        <time>2021-09-27T13:37:28.000Z</time>
      </trkpt>
      <trkpt lat="45.7529" lon="4.60346">
        <ele>618.8</ele>
        <time>2021-09-27T13:37:29.000Z</time>
      </trkpt>
      <trkpt lat="45.75291" lon="4.60347">
        <ele>619</ele>
        <time>2021-09-27T13:37:30.000Z</time>
      </trkpt>
      <trkpt lat="45.75292" lon="4.60349">
        <ele>619.2</ele>
        <time>2021-09-27T13:37:31.000Z</time>
      </trkpt>
      <trkpt lat="45.75293" lon="4.6035">
        <ele>619.4</ele>
        <time>2021-09-27T13:37:32.000Z</time>
      </trkpt>
      <trkpt lat="45.75293" lon="4.60352">
        <ele>619.6</ele>
        <time>2021-09-27T13:37:33.000Z</time>
      </trkpt>
      <trkpt lat="45.75294" lon="4.60354">
        <ele>619.6</ele>
        <time>2021-09-27T13:37:34.000Z</time>
      </trkpt>
      <trkpt lat="45.75294" lon="4.60355">
        <ele>619.8</ele>
        <time>2021-09-27T13:37:35.000Z</time>
      </trkpt>
      <trkpt lat="45.75294" lon="4.60357">
        <ele>620</ele>
        <time>2021-09-27T13:37:36.000Z</time>
      </trkpt>
      <trkpt lat="45.75294" lon="4.60358">
        <ele>620.2</ele>
        <time>2021-09-27T13:37:37.000Z</time>
      </trkpt>
      <trkpt lat="45.75295" lon="4.60359">
        <ele>620.2</ele>
        <time>2021-09-27T13:37:38.000Z</time>
      </trkpt>
      <trkpt lat="45.75295" lon="4.6036">
        <ele>620.4</ele>
        <time>2021-09-27T13:37:39.000Z</time>
      </trkpt>
      <trkpt lat="45.75296" lon="4.60361">
        <ele>620.6</ele>
        <time>2021-09-27T13:37:40.000Z</time>
      </trkpt>
      <trkpt lat="45.75296" lon="4.60363">
        <ele>620.8</ele>
        <time>2021-09-27T13:37:41.000Z</time>
      </trkpt>
      <trkpt lat="45.75296" lon="4.60364">
        <ele>621</ele>
        <time>2021-09-27T13:37:42.000Z</time>
      </trkpt>
      <trkpt lat="45.75296" lon="4.60366">
        <ele>621.2</ele>
        <time>2021-09-27T13:37:43.000Z</time>
      </trkpt>
      <trkpt lat="45.75296" lon="4.60368">
        <ele>621.4</ele>
        <time>2021-09-27T13:37:44.000Z</time>
      </trkpt>
      <trkpt lat="45.75296" lon="4.60369">
        <ele>621.6</ele>
        <time>2021-09-27T13:37:45.000Z</time>
      </trkpt>
      <trkpt lat="45.75295" lon="4.60371">
        <ele>621.6</ele>
        <time>2021-09-27T13:37:46.000Z</time>
      </trkpt>
      <trkpt lat="45.75293" lon="4.60372">
        <ele>622.2</ele>
        <time>2021-09-27T13:37:48.000Z</time>
      </trkpt>
      <trkpt lat="45.75292" lon="4.60372">
        <ele>622.4</ele>
        <time>2021-09-27T13:37:49.000Z</time>
      </trkpt>
      <trkpt lat="45.75291" lon="4.60373">
        <ele>622.4</ele>
        <time>2021-09-27T13:37:50.000Z</time>
      </trkpt>
      <trkpt lat="45.7529" lon="4.60373">
        <ele>622.6</ele>
        <time>2021-09-27T13:37:51.000Z</time>
      </trkpt>
      <trkpt lat="45.75289" lon="4.60374">
        <ele>622.8</ele>
        <time>2021-09-27T13:37:52.000Z</time>
      </trkpt>
      <trkpt lat="45.75288" lon="4.60374">
        <ele>623.2</ele>
        <time>2021-09-27T13:37:53.000Z</time>
      </trkpt>
      <trkpt lat="45.75287" lon="4.60374">
        <ele>623.4</ele>
        <time>2021-09-27T13:37:54.000Z</time>
      </trkpt>
      <trkpt lat="45.75285" lon="4.60375">
        <ele>623.6</ele>
        <time>2021-09-27T13:37:55.000Z</time>
      </trkpt>
      <trkpt lat="45.75284" lon="4.60376">
        <ele>623.6</ele>
        <time>2021-09-27T13:37:56.000Z</time>
      </trkpt>
      <trkpt lat="45.75283" lon="4.60377">
        <ele>623.6</ele>
        <time>2021-09-27T13:37:57.000Z</time>
      </trkpt>
      <trkpt lat="45.75282" lon="4.60378">
        <ele>623.8</ele>
        <time>2021-09-27T13:37:58.000Z</time>
      </trkpt>
      <trkpt lat="45.75281" lon="4.60379">
        <ele>624</ele>
        <time>2021-09-27T13:37:59.000Z</time>
      </trkpt>
      <trkpt lat="45.7528" lon="4.6038">
        <ele>624.2</ele>
        <time>2021-09-27T13:38:00.000Z</time>
      </trkpt>
      <trkpt lat="45.75279" lon="4.60381">
        <ele>624.4</ele>
        <time>2021-09-27T13:38:01.000Z</time>
      </trkpt>
      <trkpt lat="45.75277" lon="4.60382">
        <ele>624.8</ele>
        <time>2021-09-27T13:38:02.000Z</time>
      </trkpt>
      <trkpt lat="45.75276" lon="4.60382">
        <ele>625</ele>
        <time>2021-09-27T13:38:03.000Z</time>
      </trkpt>
      <trkpt lat="45.75274" lon="4.60383">
        <ele>625.2</ele>
        <time>2021-09-27T13:38:04.000Z</time>
      </trkpt>
      <trkpt lat="45.75273" lon="4.60384">
        <ele>625.4</ele>
        <time>2021-09-27T13:38:05.000Z</time>
      </trkpt>
      <trkpt lat="45.75272" lon="4.60386">
        <ele>625.6</ele>
        <time>2021-09-27T13:38:06.000Z</time>
      </trkpt>
      <trkpt lat="45.75271" lon="4.60387">
        <ele>625.8</ele>
        <time>2021-09-27T13:38:07.000Z</time>
      </trkpt>
      <trkpt lat="45.7527" lon="4.60389">
        <ele>626</ele>
        <time>2021-09-27T13:38:08.000Z</time>
      </trkpt>
      <trkpt lat="45.75269" lon="4.6039">
        <ele>626.2</ele>
        <time>2021-09-27T13:38:09.000Z</time>
      </trkpt>
      <trkpt lat="45.75269" lon="4.60392">
        <ele>626.4</ele>
        <time>2021-09-27T13:38:10.000Z</time>
      </trkpt>
      <trkpt lat="45.75268" lon="4.60393">
        <ele>626.4</ele>
        <time>2021-09-27T13:38:11.000Z</time>
      </trkpt>
      <trkpt lat="45.75268" lon="4.60394">
        <ele>626.8</ele>
        <time>2021-09-27T13:38:12.000Z</time>
      </trkpt>
      <trkpt lat="45.75267" lon="4.60395">
        <ele>627</ele>
        <time>2021-09-27T13:38:13.000Z</time>
      </trkpt>
      <trkpt lat="45.75267" lon="4.60397">
        <ele>627.2</ele>
        <time>2021-09-27T13:38:14.000Z</time>
      </trkpt>
      <trkpt lat="45.75267" lon="4.60399">
        <ele>627.4</ele>
        <time>2021-09-27T13:38:15.000Z</time>
      </trkpt>
      <trkpt lat="45.75267" lon="4.60401">
        <ele>627.6</ele>
        <time>2021-09-27T13:38:16.000Z</time>
      </trkpt>
      <trkpt lat="45.75267" lon="4.60403">
        <ele>628</ele>
        <time>2021-09-27T13:38:17.000Z</time>
      </trkpt>
      <trkpt lat="45.75267" lon="4.60404">
        <ele>628.2</ele>
        <time>2021-09-27T13:38:18.000Z</time>
      </trkpt>
      <trkpt lat="45.75266" lon="4.60406">
        <ele>628.4</ele>
        <time>2021-09-27T13:38:19.000Z</time>
      </trkpt>
      <trkpt lat="45.75266" lon="4.60408">
        <ele>628.6</ele>
        <time>2021-09-27T13:38:20.000Z</time>
      </trkpt>
      <trkpt lat="45.75266" lon="4.6041">
        <ele>628.6</ele>
        <time>2021-09-27T13:38:21.000Z</time>
      </trkpt>
      <trkpt lat="45.75266" lon="4.60411">
        <ele>628.6</ele>
        <time>2021-09-27T13:38:22.000Z</time>
      </trkpt>
      <trkpt lat="45.75266" lon="4.60413">
        <ele>628.8</ele>
        <time>2021-09-27T13:38:23.000Z</time>
      </trkpt>
      <trkpt lat="45.75265" lon="4.60414">
        <ele>629</ele>
        <time>2021-09-27T13:38:24.000Z</time>
      </trkpt>
      <trkpt lat="45.75264" lon="4.60416">
        <ele>629.2</ele>
        <time>2021-09-27T13:38:25.000Z</time>
      </trkpt>
      <trkpt lat="45.75264" lon="4.60418">
        <ele>629.2</ele>
        <time>2021-09-27T13:38:26.000Z</time>
      </trkpt>
      <trkpt lat="45.75263" lon="4.60419">
        <ele>629.4</ele>
        <time>2021-09-27T13:38:27.000Z</time>
      </trkpt>
      <trkpt lat="45.75263" lon="4.6042">
        <ele>629.6</ele>
        <time>2021-09-27T13:38:28.000Z</time>
      </trkpt>
      <trkpt lat="45.75263" lon="4.60422">
        <ele>629.8</ele>
        <time>2021-09-27T13:38:29.000Z</time>
      </trkpt>
      <trkpt lat="45.75263" lon="4.60423">
        <ele>630</ele>
        <time>2021-09-27T13:38:30.000Z</time>
      </trkpt>
      <trkpt lat="45.75263" lon="4.60424">
        <ele>630.2</ele>
        <time>2021-09-27T13:38:31.000Z</time>
      </trkpt>
      <trkpt lat="45.75262" lon="4.60426">
        <ele>630.4</ele>
        <time>2021-09-27T13:38:32.000Z</time>
      </trkpt>
      <trkpt lat="45.75263" lon="4.60427">
        <ele>630.4</ele>
        <time>2021-09-27T13:38:33.000Z</time>
      </trkpt>
      <trkpt lat="45.75262" lon="4.60429">
        <ele>630.6</ele>
        <time>2021-09-27T13:38:34.000Z</time>
      </trkpt>
      <trkpt lat="45.75262" lon="4.60431">
        <ele>630.8</ele>
        <time>2021-09-27T13:38:35.000Z</time>
      </trkpt>
      <trkpt lat="45.75262" lon="4.60432">
        <ele>631</ele>
        <time>2021-09-27T13:38:36.000Z</time>
      </trkpt>
      <trkpt lat="45.75261" lon="4.60434">
        <ele>631.4</ele>
        <time>2021-09-27T13:38:37.000Z</time>
      </trkpt>
      <trkpt lat="45.75261" lon="4.60436">
        <ele>631.6</ele>
        <time>2021-09-27T13:38:38.000Z</time>
      </trkpt>
      <trkpt lat="45.75262" lon="4.60437">
        <ele>631.8</ele>
        <time>2021-09-27T13:38:39.000Z</time>
      </trkpt>
      <trkpt lat="45.75262" lon="4.60439">
        <ele>632</ele>
        <time>2021-09-27T13:38:40.000Z</time>
      </trkpt>
      <trkpt lat="45.75262" lon="4.60441">
        <ele>632.6</ele>
        <time>2021-09-27T13:38:41.000Z</time>
      </trkpt>
      <trkpt lat="45.75262" lon="4.60443">
        <ele>632.8</ele>
        <time>2021-09-27T13:38:42.000Z</time>
      </trkpt>
      <trkpt lat="45.75262" lon="4.60444">
        <ele>633</ele>
        <time>2021-09-27T13:38:43.000Z</time>
      </trkpt>
      <trkpt lat="45.75262" lon="4.60446">
        <ele>633</ele>
        <time>2021-09-27T13:38:44.000Z</time>
      </trkpt>
      <trkpt lat="45.75262" lon="4.60448">
        <ele>633.2</ele>
        <time>2021-09-27T13:38:45.000Z</time>
      </trkpt>
      <trkpt lat="45.75262" lon="4.6045">
        <ele>633.6</ele>
        <time>2021-09-27T13:38:46.000Z</time>
      </trkpt>
      <trkpt lat="45.75262" lon="4.60452">
        <ele>633.8</ele>
        <time>2021-09-27T13:38:47.000Z</time>
      </trkpt>
      <trkpt lat="45.75262" lon="4.60453">
        <ele>634.2</ele>
        <time>2021-09-27T13:38:48.000Z</time>
      </trkpt>
      <trkpt lat="45.75262" lon="4.60454">
        <ele>634.4</ele>
        <time>2021-09-27T13:38:49.000Z</time>
      </trkpt>
      <trkpt lat="45.75262" lon="4.60456">
        <ele>634.8</ele>
        <time>2021-09-27T13:38:50.000Z</time>
      </trkpt>
      <trkpt lat="45.75262" lon="4.60457">
        <ele>635</ele>
        <time>2021-09-27T13:38:51.000Z</time>
      </trkpt>
      <trkpt lat="45.75262" lon="4.60459">
        <ele>635.2</ele>
        <time>2021-09-27T13:38:52.000Z</time>
      </trkpt>
      <trkpt lat="45.75262" lon="4.60462">
        <ele>635.4</ele>
        <time>2021-09-27T13:38:53.000Z</time>
      </trkpt>
      <trkpt lat="45.75262" lon="4.60464">
        <ele>635.6</ele>
        <time>2021-09-27T13:38:54.000Z</time>
      </trkpt>
      <trkpt lat="45.75262" lon="4.60465">
        <ele>635.8</ele>
        <time>2021-09-27T13:38:55.000Z</time>
      </trkpt>
      <trkpt lat="45.75263" lon="4.60467">
        <ele>636.2</ele>
        <time>2021-09-27T13:38:56.000Z</time>
      </trkpt>
      <trkpt lat="45.75263" lon="4.60468">
        <ele>636.2</ele>
        <time>2021-09-27T13:38:57.000Z</time>
      </trkpt>
      <trkpt lat="45.75263" lon="4.6047">
        <ele>636.4</ele>
        <time>2021-09-27T13:38:58.000Z</time>
      </trkpt>
      <trkpt lat="45.75263" lon="4.60473">
        <ele>636.6</ele>
        <time>2021-09-27T13:38:59.000Z</time>
      </trkpt>
      <trkpt lat="45.75263" lon="4.60474">
        <ele>636.8</ele>
        <time>2021-09-27T13:39:00.000Z</time>
      </trkpt>
      <trkpt lat="45.75263" lon="4.60476">
        <ele>637</ele>
        <time>2021-09-27T13:39:01.000Z</time>
      </trkpt>
      <trkpt lat="45.75263" lon="4.60478">
        <ele>637.2</ele>
        <time>2021-09-27T13:39:02.000Z</time>
      </trkpt>
      <trkpt lat="45.75263" lon="4.6048">
        <ele>637.4</ele>
        <time>2021-09-27T13:39:03.000Z</time>
      </trkpt>
      <trkpt lat="45.75264" lon="4.60482">
        <ele>637.6</ele>
        <time>2021-09-27T13:39:04.000Z</time>
      </trkpt>
      <trkpt lat="45.75265" lon="4.60484">
        <ele>637.8</ele>
        <time>2021-09-27T13:39:05.000Z</time>
      </trkpt>
      <trkpt lat="45.75265" lon="4.60487">
        <ele>638</ele>
        <time>2021-09-27T13:39:06.000Z</time>
      </trkpt>
      <trkpt lat="45.75266" lon="4.60489">
        <ele>638.2</ele>
        <time>2021-09-27T13:39:07.000Z</time>
      </trkpt>
      <trkpt lat="45.75266" lon="4.60491">
        <ele>638.2</ele>
        <time>2021-09-27T13:39:08.000Z</time>
      </trkpt>
      <trkpt lat="45.75266" lon="4.60493">
        <ele>638.6</ele>
        <time>2021-09-27T13:39:09.000Z</time>
      </trkpt>
      <trkpt lat="45.75267" lon="4.60495">
        <ele>638.8</ele>
        <time>2021-09-27T13:39:10.000Z</time>
      </trkpt>
      <trkpt lat="45.75267" lon="4.60497">
        <ele>639</ele>
        <time>2021-09-27T13:39:11.000Z</time>
      </trkpt>
      <trkpt lat="45.75268" lon="4.60499">
        <ele>639</ele>
        <time>2021-09-27T13:39:12.000Z</time>
      </trkpt>
      <trkpt lat="45.75268" lon="4.605">
        <ele>639.4</ele>
        <time>2021-09-27T13:39:13.000Z</time>
      </trkpt>
      <trkpt lat="45.75269" lon="4.60502">
        <ele>639.6</ele>
        <time>2021-09-27T13:39:14.000Z</time>
      </trkpt>
      <trkpt lat="45.7527" lon="4.60504">
        <ele>639.6</ele>
        <time>2021-09-27T13:39:15.000Z</time>
      </trkpt>
      <trkpt lat="45.7527" lon="4.60506">
        <ele>640</ele>
        <time>2021-09-27T13:39:16.000Z</time>
      </trkpt>
      <trkpt lat="45.75271" lon="4.60507">
        <ele>640.2</ele>
        <time>2021-09-27T13:39:17.000Z</time>
      </trkpt>
      <trkpt lat="45.75272" lon="4.60509">
        <ele>640.4</ele>
        <time>2021-09-27T13:39:18.000Z</time>
      </trkpt>
      <trkpt lat="45.75272" lon="4.60511">
        <ele>640.6</ele>
        <time>2021-09-27T13:39:19.000Z</time>
      </trkpt>
      <trkpt lat="45.75273" lon="4.60513">
        <ele>640.8</ele>
        <time>2021-09-27T13:39:20.000Z</time>
      </trkpt>
      <trkpt lat="45.75273" lon="4.60515">
        <ele>641.2</ele>
        <time>2021-09-27T13:39:21.000Z</time>
      </trkpt>
      <trkpt lat="45.75274" lon="4.60517">
        <ele>641.2</ele>
        <time>2021-09-27T13:39:22.000Z</time>
      </trkpt>
      <trkpt lat="45.75274" lon="4.60518">
        <ele>641.4</ele>
        <time>2021-09-27T13:39:23.000Z</time>
      </trkpt>
      <trkpt lat="45.75275" lon="4.60521">
        <ele>641.6</ele>
        <time>2021-09-27T13:39:24.000Z</time>
      </trkpt>
      <trkpt lat="45.75275" lon="4.60523">
        <ele>641.8</ele>
        <time>2021-09-27T13:39:25.000Z</time>
      </trkpt>
      <trkpt lat="45.75276" lon="4.60524">
        <ele>642</ele>
        <time>2021-09-27T13:39:26.000Z</time>
      </trkpt>
      <trkpt lat="45.75277" lon="4.60526">
        <ele>642.2</ele>
        <time>2021-09-27T13:39:27.000Z</time>
      </trkpt>
      <trkpt lat="45.75277" lon="4.60527">
        <ele>642.4</ele>
        <time>2021-09-27T13:39:28.000Z</time>
      </trkpt>
      <trkpt lat="45.75278" lon="4.60529">
        <ele>642.4</ele>
        <time>2021-09-27T13:39:29.000Z</time>
      </trkpt>
      <trkpt lat="45.75278" lon="4.60531">
        <ele>642.6</ele>
        <time>2021-09-27T13:39:30.000Z</time>
      </trkpt>
      <trkpt lat="45.75279" lon="4.60533">
        <ele>642.6</ele>
        <time>2021-09-27T13:39:31.000Z</time>
      </trkpt>
      <trkpt lat="45.7528" lon="4.60535">
        <ele>642.6</ele>
        <time>2021-09-27T13:39:32.000Z</time>
      </trkpt>
      <trkpt lat="45.75281" lon="4.60537">
        <ele>642.8</ele>
        <time>2021-09-27T13:39:33.000Z</time>
      </trkpt>
      <trkpt lat="45.75281" lon="4.60538">
        <ele>642.8</ele>
        <time>2021-09-27T13:39:34.000Z</time>
      </trkpt>
      <trkpt lat="45.75281" lon="4.60541">
        <ele>642.8</ele>
        <time>2021-09-27T13:39:35.000Z</time>
      </trkpt>
      <trkpt lat="45.75282" lon="4.60543">
        <ele>643</ele>
        <time>2021-09-27T13:39:36.000Z</time>
      </trkpt>
      <trkpt lat="45.75283" lon="4.60545">
        <ele>643</ele>
        <time>2021-09-27T13:39:37.000Z</time>
      </trkpt>
      <trkpt lat="45.75284" lon="4.60548">
        <ele>643.2</ele>
        <time>2021-09-27T13:39:38.000Z</time>
      </trkpt>
      <trkpt lat="45.75285" lon="4.6055">
        <ele>643.2</ele>
        <time>2021-09-27T13:39:39.000Z</time>
      </trkpt>
      <trkpt lat="45.75285" lon="4.60551">
        <ele>643.4</ele>
        <time>2021-09-27T13:39:40.000Z</time>
      </trkpt>
      <trkpt lat="45.75286" lon="4.60553">
        <ele>643.4</ele>
        <time>2021-09-27T13:39:41.000Z</time>
      </trkpt>
      <trkpt lat="45.75286" lon="4.60555">
        <ele>643.6</ele>
        <time>2021-09-27T13:39:42.000Z</time>
      </trkpt>
      <trkpt lat="45.75287" lon="4.60557">
        <ele>643.6</ele>
        <time>2021-09-27T13:39:43.000Z</time>
      </trkpt>
      <trkpt lat="45.75287" lon="4.6056">
        <ele>643.8</ele>
        <time>2021-09-27T13:39:44.000Z</time>
      </trkpt>
      <trkpt lat="45.75288" lon="4.60562">
        <ele>643.8</ele>
        <time>2021-09-27T13:39:45.000Z</time>
      </trkpt>
      <trkpt lat="45.75289" lon="4.60564">
        <ele>643.8</ele>
        <time>2021-09-27T13:39:46.000Z</time>
      </trkpt>
      <trkpt lat="45.75289" lon="4.60566">
        <ele>644</ele>
        <time>2021-09-27T13:39:47.000Z</time>
      </trkpt>
      <trkpt lat="45.7529" lon="4.60568">
        <ele>644</ele>
        <time>2021-09-27T13:39:48.000Z</time>
      </trkpt>
      <trkpt lat="45.75291" lon="4.6057">
        <ele>644.2</ele>
        <time>2021-09-27T13:39:49.000Z</time>
      </trkpt>
      <trkpt lat="45.75291" lon="4.60572">
        <ele>644.2</ele>
        <time>2021-09-27T13:39:50.000Z</time>
      </trkpt>
      <trkpt lat="45.75292" lon="4.60574">
        <ele>644.4</ele>
        <time>2021-09-27T13:39:51.000Z</time>
      </trkpt>
      <trkpt lat="45.75292" lon="4.60576">
        <ele>644.4</ele>
        <time>2021-09-27T13:39:52.000Z</time>
      </trkpt>
      <trkpt lat="45.75293" lon="4.60578">
        <ele>644.6</ele>
        <time>2021-09-27T13:39:53.000Z</time>
      </trkpt>
      <trkpt lat="45.75293" lon="4.6058">
        <ele>644.6</ele>
        <time>2021-09-27T13:39:54.000Z</time>
      </trkpt>
      <trkpt lat="45.75293" lon="4.60582">
        <ele>644.6</ele>
        <time>2021-09-27T13:39:55.000Z</time>
      </trkpt>
      <trkpt lat="45.75294" lon="4.60584">
        <ele>644.8</ele>
        <time>2021-09-27T13:39:56.000Z</time>
      </trkpt>
      <trkpt lat="45.75294" lon="4.60585">
        <ele>644.8</ele>
        <time>2021-09-27T13:39:57.000Z</time>
      </trkpt>
      <trkpt lat="45.75294" lon="4.60587">
        <ele>644.8</ele>
        <time>2021-09-27T13:39:58.000Z</time>
      </trkpt>
      <trkpt lat="45.75294" lon="4.60591">
        <ele>645.2</ele>
        <time>2021-09-27T13:40:00.000Z</time>
      </trkpt>
      <trkpt lat="45.75296" lon="4.60602">
        <ele>645.8</ele>
        <time>2021-09-27T13:40:05.000Z</time>
      </trkpt>
      <trkpt lat="45.75296" lon="4.60606">
        <ele>646</ele>
        <time>2021-09-27T13:40:07.000Z</time>
      </trkpt>
      <trkpt lat="45.75295" lon="4.6061">
        <ele>646.2</ele>
        <time>2021-09-27T13:40:09.000Z</time>
      </trkpt>
      <trkpt lat="45.75296" lon="4.60612">
        <ele>646.4</ele>
        <time>2021-09-27T13:40:10.000Z</time>
      </trkpt>
      <trkpt lat="45.75296" lon="4.60615">
        <ele>646.4</ele>
        <time>2021-09-27T13:40:11.000Z</time>
      </trkpt>
      <trkpt lat="45.75296" lon="4.60618">
        <ele>646.6</ele>
        <time>2021-09-27T13:40:12.000Z</time>
      </trkpt>
      <trkpt lat="45.75296" lon="4.6062">
        <ele>646.6</ele>
        <time>2021-09-27T13:40:13.000Z</time>
      </trkpt>
      <trkpt lat="45.75296" lon="4.60623">
        <ele>646.8</ele>
        <time>2021-09-27T13:40:14.000Z</time>
      </trkpt>
      <trkpt lat="45.75297" lon="4.60625">
        <ele>647</ele>
        <time>2021-09-27T13:40:15.000Z</time>
      </trkpt>
      <trkpt lat="45.75297" lon="4.60627">
        <ele>647.2</ele>
        <time>2021-09-27T13:40:16.000Z</time>
      </trkpt>
      <trkpt lat="45.75296" lon="4.6063">
        <ele>647.4</ele>
        <time>2021-09-27T13:40:17.000Z</time>
      </trkpt>
      <trkpt lat="45.75296" lon="4.60632">
        <ele>647.4</ele>
        <time>2021-09-27T13:40:18.000Z</time>
      </trkpt>
      <trkpt lat="45.75297" lon="4.60635">
        <ele>647.4</ele>
        <time>2021-09-27T13:40:19.000Z</time>
      </trkpt>
      <trkpt lat="45.75296" lon="4.60638">
        <ele>647.6</ele>
        <time>2021-09-27T13:40:20.000Z</time>
      </trkpt>
      <trkpt lat="45.75295" lon="4.60641">
        <ele>647.6</ele>
        <time>2021-09-27T13:40:21.000Z</time>
      </trkpt>
      <trkpt lat="45.75295" lon="4.60645">
        <ele>647.8</ele>
        <time>2021-09-27T13:40:22.000Z</time>
      </trkpt>
      <trkpt lat="45.75296" lon="4.60648">
        <ele>647.8</ele>
        <time>2021-09-27T13:40:23.000Z</time>
      </trkpt>
      <trkpt lat="45.75296" lon="4.6065">
        <ele>648</ele>
        <time>2021-09-27T13:40:24.000Z</time>
      </trkpt>
      <trkpt lat="45.75296" lon="4.60653">
        <ele>648.2</ele>
        <time>2021-09-27T13:40:25.000Z</time>
      </trkpt>
      <trkpt lat="45.75297" lon="4.60656">
        <ele>648.2</ele>
        <time>2021-09-27T13:40:26.000Z</time>
      </trkpt>
      <trkpt lat="45.75297" lon="4.60658">
        <ele>648.6</ele>
        <time>2021-09-27T13:40:27.000Z</time>
      </trkpt>
      <trkpt lat="45.75297" lon="4.6066">
        <ele>648.8</ele>
        <time>2021-09-27T13:40:28.000Z</time>
      </trkpt>
      <trkpt lat="45.75297" lon="4.60661">
        <ele>649</ele>
        <time>2021-09-27T13:40:29.000Z</time>
      </trkpt>
      <trkpt lat="45.75296" lon="4.60663">
        <ele>649.2</ele>
        <time>2021-09-27T13:40:30.000Z</time>
      </trkpt>
      <trkpt lat="45.75297" lon="4.60664">
        <ele>649.2</ele>
        <time>2021-09-27T13:40:31.000Z</time>
      </trkpt>
      <trkpt lat="45.75296" lon="4.60666">
        <ele>649.4</ele>
        <time>2021-09-27T13:40:32.000Z</time>
      </trkpt>
      <trkpt lat="45.75296" lon="4.60668">
        <ele>649.6</ele>
        <time>2021-09-27T13:40:33.000Z</time>
      </trkpt>
      <trkpt lat="45.75296" lon="4.60671">
        <ele>649.8</ele>
        <time>2021-09-27T13:40:34.000Z</time>
      </trkpt>
      <trkpt lat="45.75296" lon="4.60673">
        <ele>650</ele>
        <time>2021-09-27T13:40:35.000Z</time>
      </trkpt>
      <trkpt lat="45.75296" lon="4.60675">
        <ele>650.2</ele>
        <time>2021-09-27T13:40:36.000Z</time>
      </trkpt>
      <trkpt lat="45.75296" lon="4.60677">
        <ele>650.4</ele>
        <time>2021-09-27T13:40:37.000Z</time>
      </trkpt>
      <trkpt lat="45.75294" lon="4.6068">
        <ele>650.4</ele>
        <time>2021-09-27T13:40:38.000Z</time>
      </trkpt>
      <trkpt lat="45.75294" lon="4.60683">
        <ele>650.6</ele>
        <time>2021-09-27T13:40:39.000Z</time>
      </trkpt>
      <trkpt lat="45.75295" lon="4.60685">
        <ele>650.6</ele>
        <time>2021-09-27T13:40:40.000Z</time>
      </trkpt>
      <trkpt lat="45.75295" lon="4.60687">
        <ele>650.8</ele>
        <time>2021-09-27T13:40:41.000Z</time>
      </trkpt>
      <trkpt lat="45.75295" lon="4.60688">
        <ele>650.8</ele>
        <time>2021-09-27T13:40:42.000Z</time>
      </trkpt>
      <trkpt lat="45.75296" lon="4.60689">
        <ele>651</ele>
        <time>2021-09-27T13:40:43.000Z</time>
      </trkpt>
      <trkpt lat="45.75296" lon="4.6069">
        <ele>651.2</ele>
        <time>2021-09-27T13:40:44.000Z</time>
      </trkpt>
      <trkpt lat="45.75297" lon="4.60692">
        <ele>651.2</ele>
        <time>2021-09-27T13:40:45.000Z</time>
      </trkpt>
      <trkpt lat="45.75298" lon="4.60694">
        <ele>651.4</ele>
        <time>2021-09-27T13:40:46.000Z</time>
      </trkpt>
      <trkpt lat="45.75298" lon="4.60696">
        <ele>651.6</ele>
        <time>2021-09-27T13:40:47.000Z</time>
      </trkpt>
      <trkpt lat="45.75298" lon="4.60698">
        <ele>651.6</ele>
        <time>2021-09-27T13:40:48.000Z</time>
      </trkpt>
      <trkpt lat="45.75298" lon="4.607">
        <ele>651.8</ele>
        <time>2021-09-27T13:40:49.000Z</time>
      </trkpt>
      <trkpt lat="45.75299" lon="4.60702">
        <ele>652</ele>
        <time>2021-09-27T13:40:50.000Z</time>
      </trkpt>
      <trkpt lat="45.75299" lon="4.60704">
        <ele>652</ele>
        <time>2021-09-27T13:40:51.000Z</time>
      </trkpt>
      <trkpt lat="45.75299" lon="4.60705">
        <ele>652.2</ele>
        <time>2021-09-27T13:40:52.000Z</time>
      </trkpt>
      <trkpt lat="45.753" lon="4.60707">
        <ele>652.4</ele>
        <time>2021-09-27T13:40:53.000Z</time>
      </trkpt>
      <trkpt lat="45.753" lon="4.6071">
        <ele>652.4</ele>
        <time>2021-09-27T13:40:54.000Z</time>
      </trkpt>
      <trkpt lat="45.75301" lon="4.60712">
        <ele>652.6</ele>
        <time>2021-09-27T13:40:55.000Z</time>
      </trkpt>
      <trkpt lat="45.75301" lon="4.60713">
        <ele>652.8</ele>
        <time>2021-09-27T13:40:56.000Z</time>
      </trkpt>
      <trkpt lat="45.75302" lon="4.60715">
        <ele>652.8</ele>
        <time>2021-09-27T13:40:57.000Z</time>
      </trkpt>
      <trkpt lat="45.75302" lon="4.60716">
        <ele>653</ele>
        <time>2021-09-27T13:40:58.000Z</time>
      </trkpt>
      <trkpt lat="45.75303" lon="4.60718">
        <ele>653.2</ele>
        <time>2021-09-27T13:40:59.000Z</time>
      </trkpt>
      <trkpt lat="45.75303" lon="4.6072">
        <ele>653.4</ele>
        <time>2021-09-27T13:41:00.000Z</time>
      </trkpt>
      <trkpt lat="45.75303" lon="4.60722">
        <ele>653.6</ele>
        <time>2021-09-27T13:41:01.000Z</time>
      </trkpt>
      <trkpt lat="45.75304" lon="4.60724">
        <ele>653.6</ele>
        <time>2021-09-27T13:41:02.000Z</time>
      </trkpt>
      <trkpt lat="45.75303" lon="4.60726">
        <ele>653.8</ele>
        <time>2021-09-27T13:41:03.000Z</time>
      </trkpt>
      <trkpt lat="45.75302" lon="4.60728">
        <ele>654</ele>
        <time>2021-09-27T13:41:05.000Z</time>
      </trkpt>
      <trkpt lat="45.75302" lon="4.6073">
        <ele>654.2</ele>
        <time>2021-09-27T13:41:06.000Z</time>
      </trkpt>
      <trkpt lat="45.75302" lon="4.60731">
        <ele>654.4</ele>
        <time>2021-09-27T13:41:07.000Z</time>
      </trkpt>
      <trkpt lat="45.75302" lon="4.60733">
        <ele>654.6</ele>
        <time>2021-09-27T13:41:08.000Z</time>
      </trkpt>
      <trkpt lat="45.75302" lon="4.60736">
        <ele>654.8</ele>
        <time>2021-09-27T13:41:09.000Z</time>
      </trkpt>
      <trkpt lat="45.75302" lon="4.60739">
        <ele>655</ele>
        <time>2021-09-27T13:41:10.000Z</time>
      </trkpt>
      <trkpt lat="45.75301" lon="4.60741">
        <ele>655.2</ele>
        <time>2021-09-27T13:41:11.000Z</time>
      </trkpt>
      <trkpt lat="45.75301" lon="4.60743">
        <ele>655.4</ele>
        <time>2021-09-27T13:41:12.000Z</time>
      </trkpt>
      <trkpt lat="45.753" lon="4.60746">
        <ele>655.6</ele>
        <time>2021-09-27T13:41:13.000Z</time>
      </trkpt>
      <trkpt lat="45.753" lon="4.60749">
        <ele>655.8</ele>
        <time>2021-09-27T13:41:14.000Z</time>
      </trkpt>
      <trkpt lat="45.753" lon="4.60753">
        <ele>656</ele>
        <time>2021-09-27T13:41:15.000Z</time>
      </trkpt>
      <trkpt lat="45.75299" lon="4.60755">
        <ele>656.2</ele>
        <time>2021-09-27T13:41:16.000Z</time>
      </trkpt>
      <trkpt lat="45.75299" lon="4.60758">
        <ele>656.4</ele>
        <time>2021-09-27T13:41:17.000Z</time>
      </trkpt>
      <trkpt lat="45.75299" lon="4.6076">
        <ele>656.6</ele>
        <time>2021-09-27T13:41:18.000Z</time>
      </trkpt>
      <trkpt lat="45.753" lon="4.60761">
        <ele>656.8</ele>
        <time>2021-09-27T13:41:19.000Z</time>
      </trkpt>
      <trkpt lat="45.75301" lon="4.60762">
        <ele>656.8</ele>
        <time>2021-09-27T13:41:20.000Z</time>
      </trkpt>
      <trkpt lat="45.75301" lon="4.60764">
        <ele>657</ele>
        <time>2021-09-27T13:41:21.000Z</time>
      </trkpt>
      <trkpt lat="45.75302" lon="4.60767">
        <ele>657.2</ele>
        <time>2021-09-27T13:41:22.000Z</time>
      </trkpt>
      <trkpt lat="45.75302" lon="4.60769">
        <ele>657.4</ele>
        <time>2021-09-27T13:41:23.000Z</time>
      </trkpt>
      <trkpt lat="45.75302" lon="4.60771">
        <ele>657.6</ele>
        <time>2021-09-27T13:41:24.000Z</time>
      </trkpt>
      <trkpt lat="45.75303" lon="4.60773">
        <ele>657.8</ele>
        <time>2021-09-27T13:41:25.000Z</time>
      </trkpt>
      <trkpt lat="45.75303" lon="4.60775">
        <ele>658</ele>
        <time>2021-09-27T13:41:26.000Z</time>
      </trkpt>
      <trkpt lat="45.75303" lon="4.60777">
        <ele>658</ele>
        <time>2021-09-27T13:41:27.000Z</time>
      </trkpt>
      <trkpt lat="45.75303" lon="4.60779">
        <ele>658.2</ele>
        <time>2021-09-27T13:41:28.000Z</time>
      </trkpt>
      <trkpt lat="45.75304" lon="4.6078">
        <ele>658.2</ele>
        <time>2021-09-27T13:41:29.000Z</time>
      </trkpt>
      <trkpt lat="45.75303" lon="4.60781">
        <ele>658.4</ele>
        <time>2021-09-27T13:41:30.000Z</time>
      </trkpt>
      <trkpt lat="45.75302" lon="4.60783">
        <ele>658.6</ele>
        <time>2021-09-27T13:41:31.000Z</time>
      </trkpt>
      <trkpt lat="45.75302" lon="4.60785">
        <ele>658.8</ele>
        <time>2021-09-27T13:41:32.000Z</time>
      </trkpt>
      <trkpt lat="45.75303" lon="4.60787">
        <ele>659</ele>
        <time>2021-09-27T13:41:33.000Z</time>
      </trkpt>
      <trkpt lat="45.75303" lon="4.60789">
        <ele>659.4</ele>
        <time>2021-09-27T13:41:34.000Z</time>
      </trkpt>
      <trkpt lat="45.75304" lon="4.60791">
        <ele>659.6</ele>
        <time>2021-09-27T13:41:35.000Z</time>
      </trkpt>
      <trkpt lat="45.75305" lon="4.60793">
        <ele>659.8</ele>
        <time>2021-09-27T13:41:36.000Z</time>
      </trkpt>
      <trkpt lat="45.75306" lon="4.60795">
        <ele>660.2</ele>
        <time>2021-09-27T13:41:37.000Z</time>
      </trkpt>
      <trkpt lat="45.75306" lon="4.60797">
        <ele>660.4</ele>
        <time>2021-09-27T13:41:38.000Z</time>
      </trkpt>
      <trkpt lat="45.75306" lon="4.60799">
        <ele>660.6</ele>
        <time>2021-09-27T13:41:39.000Z</time>
      </trkpt>
      <trkpt lat="45.75306" lon="4.60801">
        <ele>661</ele>
        <time>2021-09-27T13:41:40.000Z</time>
      </trkpt>
      <trkpt lat="45.75307" lon="4.60804">
        <ele>661.2</ele>
        <time>2021-09-27T13:41:41.000Z</time>
      </trkpt>
      <trkpt lat="45.75307" lon="4.60806">
        <ele>661.4</ele>
        <time>2021-09-27T13:41:42.000Z</time>
      </trkpt>
      <trkpt lat="45.75307" lon="4.60809">
        <ele>661.6</ele>
        <time>2021-09-27T13:41:43.000Z</time>
      </trkpt>
      <trkpt lat="45.75308" lon="4.6081">
        <ele>661.8</ele>
        <time>2021-09-27T13:41:44.000Z</time>
      </trkpt>
      <trkpt lat="45.75307" lon="4.60813">
        <ele>662</ele>
        <time>2021-09-27T13:41:45.000Z</time>
      </trkpt>
      <trkpt lat="45.75308" lon="4.60815">
        <ele>662.2</ele>
        <time>2021-09-27T13:41:46.000Z</time>
      </trkpt>
      <trkpt lat="45.75308" lon="4.60817">
        <ele>662.4</ele>
        <time>2021-09-27T13:41:47.000Z</time>
      </trkpt>
      <trkpt lat="45.75309" lon="4.6082">
        <ele>662.8</ele>
        <time>2021-09-27T13:41:48.000Z</time>
      </trkpt>
      <trkpt lat="45.75309" lon="4.60823">
        <ele>663.2</ele>
        <time>2021-09-27T13:41:50.000Z</time>
      </trkpt>
      <trkpt lat="45.75309" lon="4.60825">
        <ele>663.4</ele>
        <time>2021-09-27T13:41:51.000Z</time>
      </trkpt>
      <trkpt lat="45.75309" lon="4.60827">
        <ele>663.6</ele>
        <time>2021-09-27T13:41:52.000Z</time>
      </trkpt>
      <trkpt lat="45.75309" lon="4.60829">
        <ele>663.6</ele>
        <time>2021-09-27T13:41:53.000Z</time>
      </trkpt>
      <trkpt lat="45.7531" lon="4.60832">
        <ele>663.8</ele>
        <time>2021-09-27T13:41:54.000Z</time>
      </trkpt>
      <trkpt lat="45.75311" lon="4.60835">
        <ele>664</ele>
        <time>2021-09-27T13:41:55.000Z</time>
      </trkpt>
      <trkpt lat="45.75312" lon="4.60839">
        <ele>664.2</ele>
        <time>2021-09-27T13:41:56.000Z</time>
      </trkpt>
      <trkpt lat="45.75313" lon="4.60841">
        <ele>664.4</ele>
        <time>2021-09-27T13:41:57.000Z</time>
      </trkpt>
      <trkpt lat="45.75313" lon="4.60844">
        <ele>664.4</ele>
        <time>2021-09-27T13:41:58.000Z</time>
      </trkpt>
      <trkpt lat="45.75314" lon="4.60846">
        <ele>664.6</ele>
        <time>2021-09-27T13:41:59.000Z</time>
      </trkpt>
      <trkpt lat="45.75315" lon="4.60849">
        <ele>664.8</ele>
        <time>2021-09-27T13:42:00.000Z</time>
      </trkpt>
      <trkpt lat="45.75314" lon="4.60852">
        <ele>665</ele>
        <time>2021-09-27T13:42:01.000Z</time>
      </trkpt>
      <trkpt lat="45.75316" lon="4.60854">
        <ele>665.2</ele>
        <time>2021-09-27T13:42:02.000Z</time>
      </trkpt>
      <trkpt lat="45.75314" lon="4.60856">
        <ele>665.4</ele>
        <time>2021-09-27T13:42:03.000Z</time>
      </trkpt>
      <trkpt lat="45.75314" lon="4.60858">
        <ele>665.4</ele>
        <time>2021-09-27T13:42:04.000Z</time>
      </trkpt>
      <trkpt lat="45.75315" lon="4.6086">
        <ele>665.6</ele>
        <time>2021-09-27T13:42:05.000Z</time>
      </trkpt>
      <trkpt lat="45.75315" lon="4.60861">
        <ele>665.6</ele>
        <time>2021-09-27T13:42:06.000Z</time>
      </trkpt>
      <trkpt lat="45.75315" lon="4.60863">
        <ele>665.8</ele>
        <time>2021-09-27T13:42:07.000Z</time>
      </trkpt>
      <trkpt lat="45.75316" lon="4.60865">
        <ele>665.8</ele>
        <time>2021-09-27T13:42:08.000Z</time>
      </trkpt>
      <trkpt lat="45.75317" lon="4.60866">
        <ele>666</ele>
        <time>2021-09-27T13:42:09.000Z</time>
      </trkpt>
      <trkpt lat="45.75317" lon="4.60867">
        <ele>666.2</ele>
        <time>2021-09-27T13:42:10.000Z</time>
      </trkpt>
      <trkpt lat="45.75317" lon="4.60868">
        <ele>666.4</ele>
        <time>2021-09-27T13:42:12.000Z</time>
      </trkpt>
      <trkpt lat="45.75318" lon="4.60872">
        <ele>667.8</ele>
        <time>2021-09-27T13:44:30.000Z</time>
      </trkpt>
      <trkpt lat="45.75319" lon="4.60873">
        <ele>667.8</ele>
        <time>2021-09-27T13:44:31.000Z</time>
      </trkpt>
      <trkpt lat="45.75319" lon="4.60875">
        <ele>667.8</ele>
        <time>2021-09-27T13:44:32.000Z</time>
      </trkpt>
      <trkpt lat="45.7532" lon="4.60877">
        <ele>667.8</ele>
        <time>2021-09-27T13:44:33.000Z</time>
      </trkpt>
      <trkpt lat="45.75321" lon="4.6088">
        <ele>668</ele>
        <time>2021-09-27T13:44:35.000Z</time>
      </trkpt>
      <trkpt lat="45.75322" lon="4.60883">
        <ele>668</ele>
        <time>2021-09-27T13:44:37.000Z</time>
      </trkpt>
      <trkpt lat="45.75322" lon="4.60884">
        <ele>668.2</ele>
        <time>2021-09-27T13:44:38.000Z</time>
      </trkpt>
      <trkpt lat="45.75323" lon="4.60886">
        <ele>668.2</ele>
        <time>2021-09-27T13:44:39.000Z</time>
      </trkpt>
      <trkpt lat="45.75323" lon="4.60887">
        <ele>668.2</ele>
        <time>2021-09-27T13:44:40.000Z</time>
      </trkpt>
      <trkpt lat="45.75324" lon="4.60888">
        <ele>668.4</ele>
        <time>2021-09-27T13:44:41.000Z</time>
      </trkpt>
      <trkpt lat="45.75324" lon="4.60888">
        <ele>669</ele>
        <time>2021-09-27T13:44:45.000Z</time>
      </trkpt>
      <trkpt lat="45.75333" lon="4.60915">
        <ele>670.6</ele>
        <time>2021-09-27T13:45:43.000Z</time>
      </trkpt>
      <trkpt lat="45.75333" lon="4.60917">
        <ele>670.8</ele>
        <time>2021-09-27T13:45:45.000Z</time>
      </trkpt>
      <trkpt lat="45.75334" lon="4.60919">
        <ele>671</ele>
        <time>2021-09-27T13:45:46.000Z</time>
      </trkpt>
      <trkpt lat="45.75334" lon="4.6092">
        <ele>671.2</ele>
        <time>2021-09-27T13:45:47.000Z</time>
      </trkpt>
      <trkpt lat="45.75334" lon="4.60921">
        <ele>671.2</ele>
        <time>2021-09-27T13:45:48.000Z</time>
      </trkpt>
      <trkpt lat="45.75335" lon="4.60922">
        <ele>671.4</ele>
        <time>2021-09-27T13:45:49.000Z</time>
      </trkpt>
      <trkpt lat="45.75335" lon="4.60924">
        <ele>671.4</ele>
        <time>2021-09-27T13:45:50.000Z</time>
      </trkpt>
      <trkpt lat="45.75336" lon="4.60926">
        <ele>671.4</ele>
        <time>2021-09-27T13:45:51.000Z</time>
      </trkpt>
      <trkpt lat="45.75336" lon="4.60928">
        <ele>671.6</ele>
        <time>2021-09-27T13:45:52.000Z</time>
      </trkpt>
      <trkpt lat="45.75337" lon="4.6093">
        <ele>671.8</ele>
        <time>2021-09-27T13:45:53.000Z</time>
      </trkpt>
      <trkpt lat="45.75337" lon="4.60932">
        <ele>672</ele>
        <time>2021-09-27T13:45:54.000Z</time>
      </trkpt>
      <trkpt lat="45.75338" lon="4.60934">
        <ele>672.2</ele>
        <time>2021-09-27T13:45:55.000Z</time>
      </trkpt>
      <trkpt lat="45.75341" lon="4.6094">
        <ele>672.8</ele>
        <time>2021-09-27T13:45:59.000Z</time>
      </trkpt>
      <trkpt lat="45.75343" lon="4.60943">
        <ele>673</ele>
        <time>2021-09-27T13:46:01.000Z</time>
      </trkpt>
      <trkpt lat="45.75344" lon="4.60945">
        <ele>673.2</ele>
        <time>2021-09-27T13:46:02.000Z</time>
      </trkpt>
      <trkpt lat="45.75345" lon="4.60946">
        <ele>673.2</ele>
        <time>2021-09-27T13:46:03.000Z</time>
      </trkpt>
      <trkpt lat="45.75346" lon="4.60948">
        <ele>673.6</ele>
        <time>2021-09-27T13:46:04.000Z</time>
      </trkpt>
      <trkpt lat="45.75347" lon="4.6095">
        <ele>673.6</ele>
        <time>2021-09-27T13:46:05.000Z</time>
      </trkpt>
      <trkpt lat="45.75348" lon="4.60952">
        <ele>673.8</ele>
        <time>2021-09-27T13:46:06.000Z</time>
      </trkpt>
      <trkpt lat="45.75348" lon="4.60955">
        <ele>673.8</ele>
        <time>2021-09-27T13:46:07.000Z</time>
      </trkpt>
      <trkpt lat="45.75349" lon="4.60956">
        <ele>674</ele>
        <time>2021-09-27T13:46:08.000Z</time>
      </trkpt>
      <trkpt lat="45.7535" lon="4.60958">
        <ele>674.2</ele>
        <time>2021-09-27T13:46:09.000Z</time>
      </trkpt>
      <trkpt lat="45.75351" lon="4.60959">
        <ele>674.4</ele>
        <time>2021-09-27T13:46:10.000Z</time>
      </trkpt>
      <trkpt lat="45.75352" lon="4.6096">
        <ele>674.4</ele>
        <time>2021-09-27T13:46:11.000Z</time>
      </trkpt>
      <trkpt lat="45.75353" lon="4.60961">
        <ele>674.6</ele>
        <time>2021-09-27T13:46:12.000Z</time>
      </trkpt>
      <trkpt lat="45.75354" lon="4.60962">
        <ele>674.6</ele>
        <time>2021-09-27T13:46:13.000Z</time>
      </trkpt>
      <trkpt lat="45.75355" lon="4.60962">
        <ele>674.8</ele>
        <time>2021-09-27T13:46:14.000Z</time>
      </trkpt>
      <trkpt lat="45.75356" lon="4.60962">
        <ele>675</ele>
        <time>2021-09-27T13:46:16.000Z</time>
      </trkpt>
      <trkpt lat="45.75357" lon="4.60963">
        <ele>675.2</ele>
        <time>2021-09-27T13:46:17.000Z</time>
      </trkpt>
      <trkpt lat="45.75358" lon="4.60964">
        <ele>675.4</ele>
        <time>2021-09-27T13:46:18.000Z</time>
      </trkpt>
      <trkpt lat="45.75359" lon="4.60965">
        <ele>675.4</ele>
        <time>2021-09-27T13:46:19.000Z</time>
      </trkpt>
      <trkpt lat="45.7536" lon="4.60966">
        <ele>675.6</ele>
        <time>2021-09-27T13:46:20.000Z</time>
      </trkpt>
      <trkpt lat="45.75361" lon="4.60967">
        <ele>675.8</ele>
        <time>2021-09-27T13:46:21.000Z</time>
      </trkpt>
      <trkpt lat="45.75362" lon="4.60968">
        <ele>676</ele>
        <time>2021-09-27T13:46:22.000Z</time>
      </trkpt>
      <trkpt lat="45.75364" lon="4.60969">
        <ele>676.2</ele>
        <time>2021-09-27T13:46:23.000Z</time>
      </trkpt>
      <trkpt lat="45.75366" lon="4.6097">
        <ele>676.2</ele>
        <time>2021-09-27T13:46:24.000Z</time>
      </trkpt>
      <trkpt lat="45.75367" lon="4.60971">
        <ele>676.4</ele>
        <time>2021-09-27T13:46:25.000Z</time>
      </trkpt>
      <trkpt lat="45.75368" lon="4.60972">
        <ele>676.6</ele>
        <time>2021-09-27T13:46:26.000Z</time>
      </trkpt>
      <trkpt lat="45.75369" lon="4.60973">
        <ele>676.6</ele>
        <time>2021-09-27T13:46:27.000Z</time>
      </trkpt>
      <trkpt lat="45.75371" lon="4.60973">
        <ele>676.8</ele>
        <time>2021-09-27T13:46:28.000Z</time>
      </trkpt>
      <trkpt lat="45.75372" lon="4.60974">
        <ele>676.8</ele>
        <time>2021-09-27T13:46:29.000Z</time>
      </trkpt>
      <trkpt lat="45.75373" lon="4.60974">
        <ele>677</ele>
        <time>2021-09-27T13:46:30.000Z</time>
      </trkpt>
      <trkpt lat="45.75374" lon="4.60975">
        <ele>677.2</ele>
        <time>2021-09-27T13:46:31.000Z</time>
      </trkpt>
      <trkpt lat="45.75375" lon="4.60975">
        <ele>677.4</ele>
        <time>2021-09-27T13:46:32.000Z</time>
      </trkpt>
      <trkpt lat="45.75376" lon="4.60977">
        <ele>677.6</ele>
        <time>2021-09-27T13:46:33.000Z</time>
      </trkpt>
      <trkpt lat="45.75378" lon="4.60978">
        <ele>677.6</ele>
        <time>2021-09-27T13:46:34.000Z</time>
      </trkpt>
      <trkpt lat="45.75379" lon="4.6098">
        <ele>677.8</ele>
        <time>2021-09-27T13:46:35.000Z</time>
      </trkpt>
      <trkpt lat="45.75381" lon="4.60981">
        <ele>678</ele>
        <time>2021-09-27T13:46:36.000Z</time>
      </trkpt>
      <trkpt lat="45.75382" lon="4.60981">
        <ele>678.2</ele>
        <time>2021-09-27T13:46:37.000Z</time>
      </trkpt>
      <trkpt lat="45.75383" lon="4.60983">
        <ele>678.4</ele>
        <time>2021-09-27T13:46:38.000Z</time>
      </trkpt>
      <trkpt lat="45.75384" lon="4.60984">
        <ele>678.4</ele>
        <time>2021-09-27T13:46:39.000Z</time>
      </trkpt>
      <trkpt lat="45.75385" lon="4.60984">
        <ele>678.6</ele>
        <time>2021-09-27T13:46:40.000Z</time>
      </trkpt>
      <trkpt lat="45.75386" lon="4.60985">
        <ele>678.6</ele>
        <time>2021-09-27T13:46:41.000Z</time>
      </trkpt>
      <trkpt lat="45.75388" lon="4.60987">
        <ele>678.8</ele>
        <time>2021-09-27T13:46:42.000Z</time>
      </trkpt>
      <trkpt lat="45.75389" lon="4.60988">
        <ele>679</ele>
        <time>2021-09-27T13:46:43.000Z</time>
      </trkpt>
      <trkpt lat="45.7539" lon="4.60989">
        <ele>679.2</ele>
        <time>2021-09-27T13:46:44.000Z</time>
      </trkpt>
      <trkpt lat="45.75391" lon="4.6099">
        <ele>679.2</ele>
        <time>2021-09-27T13:46:45.000Z</time>
      </trkpt>
      <trkpt lat="45.75392" lon="4.60992">
        <ele>679.4</ele>
        <time>2021-09-27T13:46:46.000Z</time>
      </trkpt>
      <trkpt lat="45.75393" lon="4.60994">
        <ele>679.4</ele>
        <time>2021-09-27T13:46:47.000Z</time>
      </trkpt>
      <trkpt lat="45.75394" lon="4.60995">
        <ele>679.4</ele>
        <time>2021-09-27T13:46:48.000Z</time>
      </trkpt>
      <trkpt lat="45.75395" lon="4.60997">
        <ele>679.6</ele>
        <time>2021-09-27T13:46:49.000Z</time>
      </trkpt>
      <trkpt lat="45.75396" lon="4.60998">
        <ele>679.8</ele>
        <time>2021-09-27T13:46:50.000Z</time>
      </trkpt>
      <trkpt lat="45.75397" lon="4.61">
        <ele>680</ele>
        <time>2021-09-27T13:46:51.000Z</time>
      </trkpt>
      <trkpt lat="45.75398" lon="4.61002">
        <ele>680</ele>
        <time>2021-09-27T13:46:52.000Z</time>
      </trkpt>
      <trkpt lat="45.75399" lon="4.61004">
        <ele>680</ele>
        <time>2021-09-27T13:46:53.000Z</time>
      </trkpt>
      <trkpt lat="45.754" lon="4.61006">
        <ele>680.4</ele>
        <time>2021-09-27T13:46:54.000Z</time>
      </trkpt>
      <trkpt lat="45.75401" lon="4.61008">
        <ele>680.4</ele>
        <time>2021-09-27T13:46:55.000Z</time>
      </trkpt>
      <trkpt lat="45.75402" lon="4.61009">
        <ele>680.6</ele>
        <time>2021-09-27T13:46:56.000Z</time>
      </trkpt>
      <trkpt lat="45.75404" lon="4.6101">
        <ele>680.8</ele>
        <time>2021-09-27T13:46:57.000Z</time>
      </trkpt>
      <trkpt lat="45.75405" lon="4.61011">
        <ele>681</ele>
        <time>2021-09-27T13:46:58.000Z</time>
      </trkpt>
      <trkpt lat="45.75406" lon="4.61012">
        <ele>681.2</ele>
        <time>2021-09-27T13:46:59.000Z</time>
      </trkpt>
      <trkpt lat="45.75407" lon="4.61014">
        <ele>681.2</ele>
        <time>2021-09-27T13:47:00.000Z</time>
      </trkpt>
      <trkpt lat="45.75408" lon="4.61015">
        <ele>681.4</ele>
        <time>2021-09-27T13:47:01.000Z</time>
      </trkpt>
      <trkpt lat="45.75409" lon="4.61015">
        <ele>681.6</ele>
        <time>2021-09-27T13:47:02.000Z</time>
      </trkpt>
      <trkpt lat="45.7541" lon="4.61016">
        <ele>681.6</ele>
        <time>2021-09-27T13:47:03.000Z</time>
      </trkpt>
      <trkpt lat="45.75411" lon="4.61017">
        <ele>681.8</ele>
        <time>2021-09-27T13:47:04.000Z</time>
      </trkpt>
      <trkpt lat="45.75413" lon="4.61018">
        <ele>682</ele>
        <time>2021-09-27T13:47:05.000Z</time>
      </trkpt>
      <trkpt lat="45.75414" lon="4.61019">
        <ele>682.2</ele>
        <time>2021-09-27T13:47:06.000Z</time>
      </trkpt>
      <trkpt lat="45.75415" lon="4.6102">
        <ele>682.4</ele>
        <time>2021-09-27T13:47:07.000Z</time>
      </trkpt>
      <trkpt lat="45.75416" lon="4.61021">
        <ele>682.6</ele>
        <time>2021-09-27T13:47:08.000Z</time>
      </trkpt>
      <trkpt lat="45.75417" lon="4.61023">
        <ele>682.8</ele>
        <time>2021-09-27T13:47:09.000Z</time>
      </trkpt>
      <trkpt lat="45.75418" lon="4.61024">
        <ele>683</ele>
        <time>2021-09-27T13:47:10.000Z</time>
      </trkpt>
      <trkpt lat="45.75419" lon="4.61026">
        <ele>683.2</ele>
        <time>2021-09-27T13:47:11.000Z</time>
      </trkpt>
      <trkpt lat="45.7542" lon="4.61028">
        <ele>683.4</ele>
        <time>2021-09-27T13:47:12.000Z</time>
      </trkpt>
      <trkpt lat="45.75422" lon="4.61029">
        <ele>683.6</ele>
        <time>2021-09-27T13:47:13.000Z</time>
      </trkpt>
      <trkpt lat="45.75423" lon="4.61031">
        <ele>683.8</ele>
        <time>2021-09-27T13:47:14.000Z</time>
      </trkpt>
      <trkpt lat="45.75424" lon="4.61032">
        <ele>684</ele>
        <time>2021-09-27T13:47:15.000Z</time>
      </trkpt>
      <trkpt lat="45.75425" lon="4.61033">
        <ele>684</ele>
        <time>2021-09-27T13:47:16.000Z</time>
      </trkpt>
      <trkpt lat="45.75426" lon="4.61035">
        <ele>684.4</ele>
        <time>2021-09-27T13:47:17.000Z</time>
      </trkpt>
      <trkpt lat="45.75427" lon="4.61036">
        <ele>684.6</ele>
        <time>2021-09-27T13:47:18.000Z</time>
      </trkpt>
      <trkpt lat="45.75428" lon="4.61036">
        <ele>684.8</ele>
        <time>2021-09-27T13:47:19.000Z</time>
      </trkpt>
      <trkpt lat="45.75429" lon="4.61038">
        <ele>685.2</ele>
        <time>2021-09-27T13:47:20.000Z</time>
      </trkpt>
      <trkpt lat="45.7543" lon="4.61038">
        <ele>685.6</ele>
        <time>2021-09-27T13:47:21.000Z</time>
      </trkpt>
      <trkpt lat="45.75431" lon="4.61039">
        <ele>685.8</ele>
        <time>2021-09-27T13:47:22.000Z</time>
      </trkpt>
      <trkpt lat="45.75432" lon="4.61039">
        <ele>685.8</ele>
        <time>2021-09-27T13:47:23.000Z</time>
      </trkpt>
      <trkpt lat="45.75433" lon="4.61039">
        <ele>686</ele>
        <time>2021-09-27T13:47:24.000Z</time>
      </trkpt>
      <trkpt lat="45.75435" lon="4.6104">
        <ele>686.2</ele>
        <time>2021-09-27T13:47:25.000Z</time>
      </trkpt>
      <trkpt lat="45.75436" lon="4.61041">
        <ele>686.2</ele>
        <time>2021-09-27T13:47:26.000Z</time>
      </trkpt>
      <trkpt lat="45.75437" lon="4.61042">
        <ele>686.2</ele>
        <time>2021-09-27T13:47:27.000Z</time>
      </trkpt>
      <trkpt lat="45.75438" lon="4.61042">
        <ele>686.2</ele>
        <time>2021-09-27T13:47:28.000Z</time>
      </trkpt>
      <trkpt lat="45.7544" lon="4.61044">
        <ele>686.4</ele>
        <time>2021-09-27T13:47:29.000Z</time>
      </trkpt>
      <trkpt lat="45.75441" lon="4.61045">
        <ele>686.4</ele>
        <time>2021-09-27T13:47:31.000Z</time>
      </trkpt>
      <trkpt lat="45.75442" lon="4.61046">
        <ele>686.4</ele>
        <time>2021-09-27T13:47:32.000Z</time>
      </trkpt>
      <trkpt lat="45.75443" lon="4.61048">
        <ele>686.6</ele>
        <time>2021-09-27T13:47:33.000Z</time>
      </trkpt>
      <trkpt lat="45.75445" lon="4.61048">
        <ele>686.6</ele>
        <time>2021-09-27T13:47:34.000Z</time>
      </trkpt>
      <trkpt lat="45.75446" lon="4.61049">
        <ele>686.6</ele>
        <time>2021-09-27T13:47:35.000Z</time>
      </trkpt>
      <trkpt lat="45.75448" lon="4.6105">
        <ele>686.8</ele>
        <time>2021-09-27T13:47:36.000Z</time>
      </trkpt>
      <trkpt lat="45.75449" lon="4.6105">
        <ele>687</ele>
        <time>2021-09-27T13:47:37.000Z</time>
      </trkpt>
      <trkpt lat="45.7545" lon="4.61052">
        <ele>687</ele>
        <time>2021-09-27T13:47:38.000Z</time>
      </trkpt>
      <trkpt lat="45.75451" lon="4.61051">
        <ele>687.2</ele>
        <time>2021-09-27T13:47:39.000Z</time>
      </trkpt>
      <trkpt lat="45.75487" lon="4.61072">
        <ele>690.2</ele>
        <time>2021-09-27T13:48:55.000Z</time>
      </trkpt>
      <trkpt lat="45.75489" lon="4.61074">
        <ele>690.4</ele>
        <time>2021-09-27T13:48:56.000Z</time>
      </trkpt>
      <trkpt lat="45.7549" lon="4.61075">
        <ele>690.6</ele>
        <time>2021-09-27T13:48:57.000Z</time>
      </trkpt>
      <trkpt lat="45.75491" lon="4.61076">
        <ele>691</ele>
        <time>2021-09-27T13:49:00.000Z</time>
      </trkpt>
      <trkpt lat="45.75492" lon="4.61077">
        <ele>691</ele>
        <time>2021-09-27T13:49:01.000Z</time>
      </trkpt>
      <trkpt lat="45.75494" lon="4.61078">
        <ele>691.2</ele>
        <time>2021-09-27T13:49:02.000Z</time>
      </trkpt>
      <trkpt lat="45.75495" lon="4.61079">
        <ele>691.2</ele>
        <time>2021-09-27T13:49:03.000Z</time>
      </trkpt>
      <trkpt lat="45.75496" lon="4.6108">
        <ele>691.4</ele>
        <time>2021-09-27T13:49:04.000Z</time>
      </trkpt>
      <trkpt lat="45.75498" lon="4.61081">
        <ele>691.4</ele>
        <time>2021-09-27T13:49:05.000Z</time>
      </trkpt>
      <trkpt lat="45.75499" lon="4.61082">
        <ele>691.6</ele>
        <time>2021-09-27T13:49:06.000Z</time>
      </trkpt>
      <trkpt lat="45.755" lon="4.61083">
        <ele>691.8</ele>
        <time>2021-09-27T13:49:07.000Z</time>
      </trkpt>
      <trkpt lat="45.75501" lon="4.61084">
        <ele>692</ele>
        <time>2021-09-27T13:49:08.000Z</time>
      </trkpt>
      <trkpt lat="45.75502" lon="4.61086">
        <ele>692</ele>
        <time>2021-09-27T13:49:09.000Z</time>
      </trkpt>
      <trkpt lat="45.75503" lon="4.61087">
        <ele>692.2</ele>
        <time>2021-09-27T13:49:10.000Z</time>
      </trkpt>
      <trkpt lat="45.75504" lon="4.61087">
        <ele>692.2</ele>
        <time>2021-09-27T13:49:11.000Z</time>
      </trkpt>
      <trkpt lat="45.75506" lon="4.61088">
        <ele>692.6</ele>
        <time>2021-09-27T13:49:12.000Z</time>
      </trkpt>
      <trkpt lat="45.75507" lon="4.61089">
        <ele>692.8</ele>
        <time>2021-09-27T13:49:13.000Z</time>
      </trkpt>
      <trkpt lat="45.75508" lon="4.6109">
        <ele>693</ele>
        <time>2021-09-27T13:49:14.000Z</time>
      </trkpt>
      <trkpt lat="45.75509" lon="4.6109">
        <ele>693.2</ele>
        <time>2021-09-27T13:49:15.000Z</time>
      </trkpt>
      <trkpt lat="45.7551" lon="4.61091">
        <ele>693.4</ele>
        <time>2021-09-27T13:49:16.000Z</time>
      </trkpt>
      <trkpt lat="45.75511" lon="4.61093">
        <ele>693.6</ele>
        <time>2021-09-27T13:49:17.000Z</time>
      </trkpt>
      <trkpt lat="45.75512" lon="4.61094">
        <ele>693.8</ele>
        <time>2021-09-27T13:49:18.000Z</time>
      </trkpt>
      <trkpt lat="45.75514" lon="4.61095">
        <ele>694.2</ele>
        <time>2021-09-27T13:49:19.000Z</time>
      </trkpt>
      <trkpt lat="45.75515" lon="4.61096">
        <ele>694.4</ele>
        <time>2021-09-27T13:49:20.000Z</time>
      </trkpt>
      <trkpt lat="45.75516" lon="4.61096">
        <ele>694.6</ele>
        <time>2021-09-27T13:49:21.000Z</time>
      </trkpt>
      <trkpt lat="45.75517" lon="4.61097">
        <ele>694.8</ele>
        <time>2021-09-27T13:49:22.000Z</time>
      </trkpt>
      <trkpt lat="45.75519" lon="4.61098">
        <ele>695</ele>
        <time>2021-09-27T13:49:23.000Z</time>
      </trkpt>
      <trkpt lat="45.7552" lon="4.611">
        <ele>695</ele>
        <time>2021-09-27T13:49:24.000Z</time>
      </trkpt>
      <trkpt lat="45.75521" lon="4.61101">
        <ele>695.2</ele>
        <time>2021-09-27T13:49:25.000Z</time>
      </trkpt>
      <trkpt lat="45.75523" lon="4.61102">
        <ele>695.4</ele>
        <time>2021-09-27T13:49:26.000Z</time>
      </trkpt>
      <trkpt lat="45.75525" lon="4.61103">
        <ele>695.6</ele>
        <time>2021-09-27T13:49:27.000Z</time>
      </trkpt>
      <trkpt lat="45.75526" lon="4.61104">
        <ele>695.8</ele>
        <time>2021-09-27T13:49:28.000Z</time>
      </trkpt>
      <trkpt lat="45.75528" lon="4.61104">
        <ele>696</ele>
        <time>2021-09-27T13:49:29.000Z</time>
      </trkpt>
      <trkpt lat="45.7553" lon="4.61105">
        <ele>696.2</ele>
        <time>2021-09-27T13:49:30.000Z</time>
      </trkpt>
      <trkpt lat="45.75532" lon="4.61107">
        <ele>696.4</ele>
        <time>2021-09-27T13:49:31.000Z</time>
      </trkpt>
      <trkpt lat="45.75535" lon="4.6111">
        <ele>696.4</ele>
        <time>2021-09-27T13:49:32.000Z</time>
      </trkpt>
      <trkpt lat="45.75536" lon="4.61111">
        <ele>696.6</ele>
        <time>2021-09-27T13:49:33.000Z</time>
      </trkpt>
      <trkpt lat="45.75539" lon="4.61113">
        <ele>696.6</ele>
        <time>2021-09-27T13:49:34.000Z</time>
      </trkpt>
      <trkpt lat="45.75541" lon="4.61115">
        <ele>696.6</ele>
        <time>2021-09-27T13:49:35.000Z</time>
      </trkpt>
      <trkpt lat="45.75543" lon="4.61117">
        <ele>696.6</ele>
        <time>2021-09-27T13:49:36.000Z</time>
      </trkpt>
      <trkpt lat="45.75546" lon="4.61119">
        <ele>696.6</ele>
        <time>2021-09-27T13:49:37.000Z</time>
      </trkpt>
      <trkpt lat="45.75548" lon="4.61121">
        <ele>696.6</ele>
        <time>2021-09-27T13:49:38.000Z</time>
      </trkpt>
      <trkpt lat="45.7555" lon="4.61123">
        <ele>696.6</ele>
        <time>2021-09-27T13:49:39.000Z</time>
      </trkpt>
      <trkpt lat="45.75553" lon="4.61125">
        <ele>696.8</ele>
        <time>2021-09-27T13:49:40.000Z</time>
      </trkpt>
      <trkpt lat="45.75556" lon="4.61127">
        <ele>696.8</ele>
        <time>2021-09-27T13:49:41.000Z</time>
      </trkpt>
      <trkpt lat="45.75558" lon="4.61129">
        <ele>696.8</ele>
        <time>2021-09-27T13:49:42.000Z</time>
      </trkpt>
      <trkpt lat="45.75561" lon="4.61132">
        <ele>696.8</ele>
        <time>2021-09-27T13:49:43.000Z</time>
      </trkpt>
      <trkpt lat="45.75563" lon="4.61134">
        <ele>696.8</ele>
        <time>2021-09-27T13:49:44.000Z</time>
      </trkpt>
      <trkpt lat="45.75565" lon="4.61136">
        <ele>696.8</ele>
        <time>2021-09-27T13:49:45.000Z</time>
      </trkpt>
      <trkpt lat="45.75567" lon="4.61137">
        <ele>696.8</ele>
        <time>2021-09-27T13:49:46.000Z</time>
      </trkpt>
      <trkpt lat="45.75568" lon="4.61139">
        <ele>696.8</ele>
        <time>2021-09-27T13:49:47.000Z</time>
      </trkpt>
      <trkpt lat="45.75571" lon="4.61142">
        <ele>696.8</ele>
        <time>2021-09-27T13:49:48.000Z</time>
      </trkpt>
      <trkpt lat="45.75574" lon="4.61146">
        <ele>696.8</ele>
        <time>2021-09-27T13:49:50.000Z</time>
      </trkpt>
      <trkpt lat="45.75577" lon="4.61148">
        <ele>697</ele>
        <time>2021-09-27T13:49:52.000Z</time>
      </trkpt>
      <trkpt lat="45.75579" lon="4.6115">
        <ele>697</ele>
        <time>2021-09-27T13:49:53.000Z</time>
      </trkpt>
      <trkpt lat="45.75581" lon="4.61152">
        <ele>697.2</ele>
        <time>2021-09-27T13:49:54.000Z</time>
      </trkpt>
      <trkpt lat="45.75583" lon="4.61154">
        <ele>697.2</ele>
        <time>2021-09-27T13:49:55.000Z</time>
      </trkpt>
      <trkpt lat="45.75584" lon="4.61157">
        <ele>697.2</ele>
        <time>2021-09-27T13:49:56.000Z</time>
      </trkpt>
      <trkpt lat="45.75585" lon="4.6116">
        <ele>697.2</ele>
        <time>2021-09-27T13:49:57.000Z</time>
      </trkpt>
      <trkpt lat="45.7559" lon="4.61167">
        <ele>697.4</ele>
        <time>2021-09-27T13:50:00.000Z</time>
      </trkpt>
      <trkpt lat="45.75596" lon="4.61174">
        <ele>697.8</ele>
        <time>2021-09-27T13:50:03.000Z</time>
      </trkpt>
      <trkpt lat="45.75603" lon="4.61181">
        <ele>698.2</ele>
        <time>2021-09-27T13:50:07.000Z</time>
      </trkpt>
      <trkpt lat="45.75608" lon="4.61185">
        <ele>698.4</ele>
        <time>2021-09-27T13:50:09.000Z</time>
      </trkpt>
      <trkpt lat="45.75611" lon="4.61189">
        <ele>698.4</ele>
        <time>2021-09-27T13:50:11.000Z</time>
      </trkpt>
      <trkpt lat="45.75614" lon="4.61193">
        <ele>698.8</ele>
        <time>2021-09-27T13:50:13.000Z</time>
      </trkpt>
      <trkpt lat="45.75618" lon="4.61197">
        <ele>699</ele>
        <time>2021-09-27T13:50:15.000Z</time>
      </trkpt>
      <trkpt lat="45.75625" lon="4.61205">
        <ele>699.4</ele>
        <time>2021-09-27T13:50:19.000Z</time>
      </trkpt>
      <trkpt lat="45.75631" lon="4.61211">
        <ele>699.8</ele>
        <time>2021-09-27T13:50:22.000Z</time>
      </trkpt>
      <trkpt lat="45.75633" lon="4.61213">
        <ele>700</ele>
        <time>2021-09-27T13:50:23.000Z</time>
      </trkpt>
      <trkpt lat="45.75644" lon="4.61223">
        <ele>700.2</ele>
        <time>2021-09-27T13:50:28.000Z</time>
      </trkpt>
      <trkpt lat="45.75645" lon="4.61225">
        <ele>700.4</ele>
        <time>2021-09-27T13:50:29.000Z</time>
      </trkpt>
      <trkpt lat="45.75647" lon="4.61228">
        <ele>700.4</ele>
        <time>2021-09-27T13:50:30.000Z</time>
      </trkpt>
      <trkpt lat="45.75649" lon="4.61231">
        <ele>700.8</ele>
        <time>2021-09-27T13:50:31.000Z</time>
      </trkpt>
      <trkpt lat="45.75651" lon="4.61233">
        <ele>700.8</ele>
        <time>2021-09-27T13:50:32.000Z</time>
      </trkpt>
      <trkpt lat="45.75652" lon="4.61235">
        <ele>701</ele>
        <time>2021-09-27T13:50:33.000Z</time>
      </trkpt>
      <trkpt lat="45.75654" lon="4.61237">
        <ele>701</ele>
        <time>2021-09-27T13:50:34.000Z</time>
      </trkpt>
      <trkpt lat="45.75655" lon="4.61239">
        <ele>701.4</ele>
        <time>2021-09-27T13:50:35.000Z</time>
      </trkpt>
      <trkpt lat="45.75657" lon="4.61241">
        <ele>701.4</ele>
        <time>2021-09-27T13:50:36.000Z</time>
      </trkpt>
      <trkpt lat="45.75659" lon="4.61244">
        <ele>701.4</ele>
        <time>2021-09-27T13:50:37.000Z</time>
      </trkpt>
      <trkpt lat="45.75661" lon="4.61246">
        <ele>701.6</ele>
        <time>2021-09-27T13:50:38.000Z</time>
      </trkpt>
      <trkpt lat="45.75662" lon="4.61248">
        <ele>701.6</ele>
        <time>2021-09-27T13:50:39.000Z</time>
      </trkpt>
      <trkpt lat="45.75663" lon="4.61251">
        <ele>701.6</ele>
        <time>2021-09-27T13:50:40.000Z</time>
      </trkpt>
      <trkpt lat="45.75665" lon="4.61254">
        <ele>701.6</ele>
        <time>2021-09-27T13:50:41.000Z</time>
      </trkpt>
      <trkpt lat="45.75666" lon="4.61257">
        <ele>702</ele>
        <time>2021-09-27T13:50:42.000Z</time>
      </trkpt>
      <trkpt lat="45.75668" lon="4.6126">
        <ele>702</ele>
        <time>2021-09-27T13:50:43.000Z</time>
      </trkpt>
      <trkpt lat="45.75669" lon="4.61263">
        <ele>702</ele>
        <time>2021-09-27T13:50:44.000Z</time>
      </trkpt>
      <trkpt lat="45.75671" lon="4.61265">
        <ele>702.2</ele>
        <time>2021-09-27T13:50:45.000Z</time>
      </trkpt>
      <trkpt lat="45.75672" lon="4.61268">
        <ele>702.2</ele>
        <time>2021-09-27T13:50:46.000Z</time>
      </trkpt>
      <trkpt lat="45.75674" lon="4.61271">
        <ele>702.4</ele>
        <time>2021-09-27T13:50:47.000Z</time>
      </trkpt>
      <trkpt lat="45.75674" lon="4.61272">
        <ele>702.4</ele>
        <time>2021-09-27T13:50:48.000Z</time>
      </trkpt>
      <trkpt lat="45.75675" lon="4.61273">
        <ele>702.4</ele>
        <time>2021-09-27T13:50:49.000Z</time>
      </trkpt>
      <trkpt lat="45.75676" lon="4.61274">
        <ele>702.6</ele>
        <time>2021-09-27T13:50:50.000Z</time>
      </trkpt>
      <trkpt lat="45.75677" lon="4.61276">
        <ele>702.8</ele>
        <time>2021-09-27T13:50:51.000Z</time>
      </trkpt>
      <trkpt lat="45.75678" lon="4.61279">
        <ele>703</ele>
        <time>2021-09-27T13:50:52.000Z</time>
      </trkpt>
      <trkpt lat="45.7568" lon="4.61281">
        <ele>703</ele>
        <time>2021-09-27T13:50:53.000Z</time>
      </trkpt>
      <trkpt lat="45.75681" lon="4.61284">
        <ele>703.2</ele>
        <time>2021-09-27T13:50:54.000Z</time>
      </trkpt>
      <trkpt lat="45.75683" lon="4.61286">
        <ele>703.4</ele>
        <time>2021-09-27T13:50:55.000Z</time>
      </trkpt>
      <trkpt lat="45.75684" lon="4.61289">
        <ele>703.6</ele>
        <time>2021-09-27T13:50:56.000Z</time>
      </trkpt>
      <trkpt lat="45.75687" lon="4.61292">
        <ele>703.6</ele>
        <time>2021-09-27T13:50:57.000Z</time>
      </trkpt>
      <trkpt lat="45.75688" lon="4.61294">
        <ele>703.8</ele>
        <time>2021-09-27T13:50:58.000Z</time>
      </trkpt>
      <trkpt lat="45.7569" lon="4.61296">
        <ele>703.8</ele>
        <time>2021-09-27T13:50:59.000Z</time>
      </trkpt>
      <trkpt lat="45.75692" lon="4.61298">
        <ele>704</ele>
        <time>2021-09-27T13:51:00.000Z</time>
      </trkpt>
      <trkpt lat="45.75694" lon="4.613">
        <ele>704</ele>
        <time>2021-09-27T13:51:01.000Z</time>
      </trkpt>
      <trkpt lat="45.75695" lon="4.61302">
        <ele>704.2</ele>
        <time>2021-09-27T13:51:02.000Z</time>
      </trkpt>
      <trkpt lat="45.75696" lon="4.61303">
        <ele>704.2</ele>
        <time>2021-09-27T13:51:03.000Z</time>
      </trkpt>
      <trkpt lat="45.75698" lon="4.61305">
        <ele>704.2</ele>
        <time>2021-09-27T13:51:04.000Z</time>
      </trkpt>
      <trkpt lat="45.75699" lon="4.61307">
        <ele>704.8</ele>
        <time>2021-09-27T13:51:05.000Z</time>
      </trkpt>
      <trkpt lat="45.75701" lon="4.6131">
        <ele>705</ele>
        <time>2021-09-27T13:51:06.000Z</time>
      </trkpt>
      <trkpt lat="45.75702" lon="4.61312">
        <ele>705.4</ele>
        <time>2021-09-27T13:51:07.000Z</time>
      </trkpt>
      <trkpt lat="45.75703" lon="4.61315">
        <ele>705.6</ele>
        <time>2021-09-27T13:51:08.000Z</time>
      </trkpt>
      <trkpt lat="45.75705" lon="4.61317">
        <ele>705.8</ele>
        <time>2021-09-27T13:51:09.000Z</time>
      </trkpt>
      <trkpt lat="45.75706" lon="4.6132">
        <ele>706</ele>
        <time>2021-09-27T13:51:10.000Z</time>
      </trkpt>
      <trkpt lat="45.75707" lon="4.61323">
        <ele>706.2</ele>
        <time>2021-09-27T13:51:11.000Z</time>
      </trkpt>
      <trkpt lat="45.75708" lon="4.61325">
        <ele>706.2</ele>
        <time>2021-09-27T13:51:12.000Z</time>
      </trkpt>
      <trkpt lat="45.7571" lon="4.61328">
        <ele>706.6</ele>
        <time>2021-09-27T13:51:13.000Z</time>
      </trkpt>
      <trkpt lat="45.75711" lon="4.6133">
        <ele>706.8</ele>
        <time>2021-09-27T13:51:14.000Z</time>
      </trkpt>
      <trkpt lat="45.75712" lon="4.61332">
        <ele>706.8</ele>
        <time>2021-09-27T13:51:15.000Z</time>
      </trkpt>
      <trkpt lat="45.75713" lon="4.61334">
        <ele>706.8</ele>
        <time>2021-09-27T13:51:16.000Z</time>
      </trkpt>
      <trkpt lat="45.75714" lon="4.61337">
        <ele>706.8</ele>
        <time>2021-09-27T13:51:17.000Z</time>
      </trkpt>
      <trkpt lat="45.75715" lon="4.61339">
        <ele>707.2</ele>
        <time>2021-09-27T13:51:18.000Z</time>
      </trkpt>
      <trkpt lat="45.75716" lon="4.61342">
        <ele>707.4</ele>
        <time>2021-09-27T13:51:19.000Z</time>
      </trkpt>
      <trkpt lat="45.75717" lon="4.61345">
        <ele>707.4</ele>
        <time>2021-09-27T13:51:20.000Z</time>
      </trkpt>
      <trkpt lat="45.75718" lon="4.61348">
        <ele>707.4</ele>
        <time>2021-09-27T13:51:21.000Z</time>
      </trkpt>
      <trkpt lat="45.75719" lon="4.6135">
        <ele>707.8</ele>
        <time>2021-09-27T13:51:22.000Z</time>
      </trkpt>
      <trkpt lat="45.75721" lon="4.61353">
        <ele>707.8</ele>
        <time>2021-09-27T13:51:23.000Z</time>
      </trkpt>
      <trkpt lat="45.75721" lon="4.61355">
        <ele>708.2</ele>
        <time>2021-09-27T13:51:24.000Z</time>
      </trkpt>
      <trkpt lat="45.75722" lon="4.61357">
        <ele>708.4</ele>
        <time>2021-09-27T13:51:25.000Z</time>
      </trkpt>
      <trkpt lat="45.75723" lon="4.6136">
        <ele>708.4</ele>
        <time>2021-09-27T13:51:26.000Z</time>
      </trkpt>
      <trkpt lat="45.75724" lon="4.61362">
        <ele>708.6</ele>
        <time>2021-09-27T13:51:27.000Z</time>
      </trkpt>
      <trkpt lat="45.75724" lon="4.61363">
        <ele>708.6</ele>
        <time>2021-09-27T13:51:28.000Z</time>
      </trkpt>
      <trkpt lat="45.75724" lon="4.61364">
        <ele>708.8</ele>
        <time>2021-09-27T13:51:29.000Z</time>
      </trkpt>
      <trkpt lat="45.75724" lon="4.61365">
        <ele>708.8</ele>
        <time>2021-09-27T13:51:30.000Z</time>
      </trkpt>
      <trkpt lat="45.75724" lon="4.61366">
        <ele>708.8</ele>
        <time>2021-09-27T13:51:31.000Z</time>
      </trkpt>
      <trkpt lat="45.75723" lon="4.61367">
        <ele>709.2</ele>
        <time>2021-09-27T13:51:32.000Z</time>
      </trkpt>
      <trkpt lat="45.75724" lon="4.61368">
        <ele>709.4</ele>
        <time>2021-09-27T13:51:35.000Z</time>
      </trkpt>
      <trkpt lat="45.75726" lon="4.61374">
        <ele>709.8</ele>
        <time>2021-09-27T13:51:38.000Z</time>
      </trkpt>
      <trkpt lat="45.75726" lon="4.61377">
        <ele>709.8</ele>
        <time>2021-09-27T13:51:39.000Z</time>
      </trkpt>
      <trkpt lat="45.75726" lon="4.61379">
        <ele>709.8</ele>
        <time>2021-09-27T13:51:40.000Z</time>
      </trkpt>
      <trkpt lat="45.75727" lon="4.61382">
        <ele>709.8</ele>
        <time>2021-09-27T13:51:41.000Z</time>
      </trkpt>
      <trkpt lat="45.75727" lon="4.61385">
        <ele>709.8</ele>
        <time>2021-09-27T13:51:42.000Z</time>
      </trkpt>
      <trkpt lat="45.75728" lon="4.61388">
        <ele>709.8</ele>
        <time>2021-09-27T13:51:43.000Z</time>
      </trkpt>
      <trkpt lat="45.75728" lon="4.61391">
        <ele>709.8</ele>
        <time>2021-09-27T13:51:44.000Z</time>
      </trkpt>
      <trkpt lat="45.75728" lon="4.61394">
        <ele>709.8</ele>
        <time>2021-09-27T13:51:45.000Z</time>
      </trkpt>
      <trkpt lat="45.75728" lon="4.61396">
        <ele>709.8</ele>
        <time>2021-09-27T13:51:46.000Z</time>
      </trkpt>
      <trkpt lat="45.75728" lon="4.614">
        <ele>709.8</ele>
        <time>2021-09-27T13:51:47.000Z</time>
      </trkpt>
      <trkpt lat="45.75728" lon="4.61403">
        <ele>709.8</ele>
        <time>2021-09-27T13:51:48.000Z</time>
      </trkpt>
      <trkpt lat="45.75728" lon="4.61411">
        <ele>709.8</ele>
        <time>2021-09-27T13:51:51.000Z</time>
      </trkpt>
      <trkpt lat="45.75727" lon="4.61424">
        <ele>709.8</ele>
        <time>2021-09-27T13:51:55.000Z</time>
      </trkpt>
      <trkpt lat="45.75726" lon="4.61432">
        <ele>710</ele>
        <time>2021-09-27T13:51:58.000Z</time>
      </trkpt>
      <trkpt lat="45.75726" lon="4.61434">
        <ele>710</ele>
        <time>2021-09-27T13:51:59.000Z</time>
      </trkpt>
      <trkpt lat="45.75725" lon="4.61437">
        <ele>710</ele>
        <time>2021-09-27T13:52:00.000Z</time>
      </trkpt>
      <trkpt lat="45.75724" lon="4.61439">
        <ele>710</ele>
        <time>2021-09-27T13:52:01.000Z</time>
      </trkpt>
      <trkpt lat="45.75724" lon="4.61442">
        <ele>710.4</ele>
        <time>2021-09-27T13:52:02.000Z</time>
      </trkpt>
      <trkpt lat="45.75723" lon="4.61447">
        <ele>710.6</ele>
        <time>2021-09-27T13:52:04.000Z</time>
      </trkpt>
      <trkpt lat="45.75723" lon="4.6145">
        <ele>710.8</ele>
        <time>2021-09-27T13:52:05.000Z</time>
      </trkpt>
      <trkpt lat="45.75722" lon="4.61452">
        <ele>711</ele>
        <time>2021-09-27T13:52:06.000Z</time>
      </trkpt>
      <trkpt lat="45.75722" lon="4.61454">
        <ele>711.2</ele>
        <time>2021-09-27T13:52:07.000Z</time>
      </trkpt>
      <trkpt lat="45.75722" lon="4.61457">
        <ele>711.2</ele>
        <time>2021-09-27T13:52:08.000Z</time>
      </trkpt>
      <trkpt lat="45.75722" lon="4.6146">
        <ele>711.4</ele>
        <time>2021-09-27T13:52:09.000Z</time>
      </trkpt>
      <trkpt lat="45.75721" lon="4.61473">
        <ele>712</ele>
        <time>2021-09-27T13:52:14.000Z</time>
      </trkpt>
      <trkpt lat="45.7572" lon="4.61475">
        <ele>712</ele>
        <time>2021-09-27T13:52:15.000Z</time>
      </trkpt>
      <trkpt lat="45.75718" lon="4.61486">
        <ele>713</ele>
        <time>2021-09-27T13:52:19.000Z</time>
      </trkpt>
      <trkpt lat="45.75718" lon="4.61488">
        <ele>713.2</ele>
        <time>2021-09-27T13:52:20.000Z</time>
      </trkpt>
      <trkpt lat="45.75718" lon="4.61491">
        <ele>713.4</ele>
        <time>2021-09-27T13:52:21.000Z</time>
      </trkpt>
      <trkpt lat="45.75718" lon="4.61493">
        <ele>713.6</ele>
        <time>2021-09-27T13:52:22.000Z</time>
      </trkpt>
      <trkpt lat="45.75718" lon="4.61496">
        <ele>713.8</ele>
        <time>2021-09-27T13:52:23.000Z</time>
      </trkpt>
      <trkpt lat="45.75718" lon="4.61498">
        <ele>713.8</ele>
        <time>2021-09-27T13:52:24.000Z</time>
      </trkpt>
      <trkpt lat="45.75717" lon="4.615">
        <ele>714.2</ele>
        <time>2021-09-27T13:52:25.000Z</time>
      </trkpt>
      <trkpt lat="45.75717" lon="4.61502">
        <ele>714.4</ele>
        <time>2021-09-27T13:52:26.000Z</time>
      </trkpt>
      <trkpt lat="45.75716" lon="4.61505">
        <ele>714.6</ele>
        <time>2021-09-27T13:52:27.000Z</time>
      </trkpt>
      <trkpt lat="45.75715" lon="4.61507">
        <ele>714.6</ele>
        <time>2021-09-27T13:52:28.000Z</time>
      </trkpt>
      <trkpt lat="45.75715" lon="4.61509">
        <ele>715</ele>
        <time>2021-09-27T13:52:29.000Z</time>
      </trkpt>
      <trkpt lat="45.75715" lon="4.61512">
        <ele>715.2</ele>
        <time>2021-09-27T13:52:30.000Z</time>
      </trkpt>
      <trkpt lat="45.75715" lon="4.61514">
        <ele>715.2</ele>
        <time>2021-09-27T13:52:31.000Z</time>
      </trkpt>
      <trkpt lat="45.75714" lon="4.61516">
        <ele>715.8</ele>
        <time>2021-09-27T13:52:32.000Z</time>
      </trkpt>
      <trkpt lat="45.75714" lon="4.61518">
        <ele>715.8</ele>
        <time>2021-09-27T13:52:33.000Z</time>
      </trkpt>
      <trkpt lat="45.75714" lon="4.61521">
        <ele>715.8</ele>
        <time>2021-09-27T13:52:34.000Z</time>
      </trkpt>
      <trkpt lat="45.75713" lon="4.61523">
        <ele>716</ele>
        <time>2021-09-27T13:52:35.000Z</time>
      </trkpt>
      <trkpt lat="45.75713" lon="4.61525">
        <ele>716.2</ele>
        <time>2021-09-27T13:52:36.000Z</time>
      </trkpt>
      <trkpt lat="45.75712" lon="4.61528">
        <ele>716.4</ele>
        <time>2021-09-27T13:52:37.000Z</time>
      </trkpt>
      <trkpt lat="45.75712" lon="4.6153">
        <ele>716.4</ele>
        <time>2021-09-27T13:52:38.000Z</time>
      </trkpt>
      <trkpt lat="45.75712" lon="4.61532">
        <ele>716.6</ele>
        <time>2021-09-27T13:52:39.000Z</time>
      </trkpt>
      <trkpt lat="45.75712" lon="4.61534">
        <ele>716.8</ele>
        <time>2021-09-27T13:52:40.000Z</time>
      </trkpt>
      <trkpt lat="45.75712" lon="4.61536">
        <ele>717</ele>
        <time>2021-09-27T13:52:41.000Z</time>
      </trkpt>
      <trkpt lat="45.75712" lon="4.61538">
        <ele>717.2</ele>
        <time>2021-09-27T13:52:42.000Z</time>
      </trkpt>
      <trkpt lat="45.75712" lon="4.61539">
        <ele>717.2</ele>
        <time>2021-09-27T13:52:43.000Z</time>
      </trkpt>
      <trkpt lat="45.75712" lon="4.61541">
        <ele>717.6</ele>
        <time>2021-09-27T13:52:44.000Z</time>
      </trkpt>
      <trkpt lat="45.75712" lon="4.61543">
        <ele>717.8</ele>
        <time>2021-09-27T13:52:45.000Z</time>
      </trkpt>
      <trkpt lat="45.75712" lon="4.61546">
        <ele>717.8</ele>
        <time>2021-09-27T13:52:46.000Z</time>
      </trkpt>
      <trkpt lat="45.75712" lon="4.61549">
        <ele>718.2</ele>
        <time>2021-09-27T13:52:47.000Z</time>
      </trkpt>
      <trkpt lat="45.75712" lon="4.61551">
        <ele>718.4</ele>
        <time>2021-09-27T13:52:48.000Z</time>
      </trkpt>
      <trkpt lat="45.75712" lon="4.61554">
        <ele>718.6</ele>
        <time>2021-09-27T13:52:49.000Z</time>
      </trkpt>
      <trkpt lat="45.75712" lon="4.61556">
        <ele>719</ele>
        <time>2021-09-27T13:52:50.000Z</time>
      </trkpt>
      <trkpt lat="45.75712" lon="4.61559">
        <ele>719.2</ele>
        <time>2021-09-27T13:52:51.000Z</time>
      </trkpt>
      <trkpt lat="45.75712" lon="4.61561">
        <ele>719.4</ele>
        <time>2021-09-27T13:52:52.000Z</time>
      </trkpt>
      <trkpt lat="45.75712" lon="4.61563">
        <ele>719.6</ele>
        <time>2021-09-27T13:52:53.000Z</time>
      </trkpt>
      <trkpt lat="45.75711" lon="4.61565">
        <ele>719.6</ele>
        <time>2021-09-27T13:52:54.000Z</time>
      </trkpt>
      <trkpt lat="45.75712" lon="4.61568">
        <ele>719.8</ele>
        <time>2021-09-27T13:52:55.000Z</time>
      </trkpt>
      <trkpt lat="45.75712" lon="4.6157">
        <ele>720</ele>
        <time>2021-09-27T13:52:56.000Z</time>
      </trkpt>
      <trkpt lat="45.75712" lon="4.61572">
        <ele>720.2</ele>
        <time>2021-09-27T13:52:57.000Z</time>
      </trkpt>
      <trkpt lat="45.75712" lon="4.61575">
        <ele>720.2</ele>
        <time>2021-09-27T13:52:58.000Z</time>
      </trkpt>
      <trkpt lat="45.75713" lon="4.61577">
        <ele>720.4</ele>
        <time>2021-09-27T13:52:59.000Z</time>
      </trkpt>
      <trkpt lat="45.75712" lon="4.61579">
        <ele>720.4</ele>
        <time>2021-09-27T13:53:00.000Z</time>
      </trkpt>
      <trkpt lat="45.75712" lon="4.61581">
        <ele>720.6</ele>
        <time>2021-09-27T13:53:01.000Z</time>
      </trkpt>
      <trkpt lat="45.75712" lon="4.61584">
        <ele>720.8</ele>
        <time>2021-09-27T13:53:02.000Z</time>
      </trkpt>
      <trkpt lat="45.75712" lon="4.61586">
        <ele>721</ele>
        <time>2021-09-27T13:53:03.000Z</time>
      </trkpt>
      <trkpt lat="45.75712" lon="4.61588">
        <ele>721.4</ele>
        <time>2021-09-27T13:53:04.000Z</time>
      </trkpt>
      <trkpt lat="45.75712" lon="4.61591">
        <ele>721.4</ele>
        <time>2021-09-27T13:53:05.000Z</time>
      </trkpt>
      <trkpt lat="45.75712" lon="4.61593">
        <ele>721.6</ele>
        <time>2021-09-27T13:53:06.000Z</time>
      </trkpt>
      <trkpt lat="45.75711" lon="4.61596">
        <ele>721.8</ele>
        <time>2021-09-27T13:53:07.000Z</time>
      </trkpt>
      <trkpt lat="45.75711" lon="4.61598">
        <ele>722</ele>
        <time>2021-09-27T13:53:08.000Z</time>
      </trkpt>
      <trkpt lat="45.7571" lon="4.61601">
        <ele>722.2</ele>
        <time>2021-09-27T13:53:09.000Z</time>
      </trkpt>
      <trkpt lat="45.7571" lon="4.61602">
        <ele>722.6</ele>
        <time>2021-09-27T13:53:10.000Z</time>
      </trkpt>
      <trkpt lat="45.7571" lon="4.61605">
        <ele>722.8</ele>
        <time>2021-09-27T13:53:11.000Z</time>
      </trkpt>
      <trkpt lat="45.7571" lon="4.61607">
        <ele>723</ele>
        <time>2021-09-27T13:53:12.000Z</time>
      </trkpt>
      <trkpt lat="45.7571" lon="4.61609">
        <ele>723</ele>
        <time>2021-09-27T13:53:13.000Z</time>
      </trkpt>
      <trkpt lat="45.7571" lon="4.61611">
        <ele>723.2</ele>
        <time>2021-09-27T13:53:14.000Z</time>
      </trkpt>
      <trkpt lat="45.7571" lon="4.61613">
        <ele>723.4</ele>
        <time>2021-09-27T13:53:15.000Z</time>
      </trkpt>
      <trkpt lat="45.7571" lon="4.61616">
        <ele>723.6</ele>
        <time>2021-09-27T13:53:16.000Z</time>
      </trkpt>
      <trkpt lat="45.7571" lon="4.61618">
        <ele>723.8</ele>
        <time>2021-09-27T13:53:17.000Z</time>
      </trkpt>
      <trkpt lat="45.7571" lon="4.6162">
        <ele>724.2</ele>
        <time>2021-09-27T13:53:18.000Z</time>
      </trkpt>
      <trkpt lat="45.75709" lon="4.61622">
        <ele>724.4</ele>
        <time>2021-09-27T13:53:19.000Z</time>
      </trkpt>
      <trkpt lat="45.75709" lon="4.61624">
        <ele>724.6</ele>
        <time>2021-09-27T13:53:20.000Z</time>
      </trkpt>
      <trkpt lat="45.75708" lon="4.61626">
        <ele>725</ele>
        <time>2021-09-27T13:53:21.000Z</time>
      </trkpt>
      <trkpt lat="45.75708" lon="4.61628">
        <ele>725.2</ele>
        <time>2021-09-27T13:53:22.000Z</time>
      </trkpt>
      <trkpt lat="45.75709" lon="4.6163">
        <ele>725.2</ele>
        <time>2021-09-27T13:53:23.000Z</time>
      </trkpt>
      <trkpt lat="45.75709" lon="4.61633">
        <ele>725.4</ele>
        <time>2021-09-27T13:53:24.000Z</time>
      </trkpt>
      <trkpt lat="45.75709" lon="4.61635">
        <ele>725.6</ele>
        <time>2021-09-27T13:53:25.000Z</time>
      </trkpt>
      <trkpt lat="45.75709" lon="4.61637">
        <ele>726</ele>
        <time>2021-09-27T13:53:26.000Z</time>
      </trkpt>
      <trkpt lat="45.75708" lon="4.61639">
        <ele>726.2</ele>
        <time>2021-09-27T13:53:27.000Z</time>
      </trkpt>
      <trkpt lat="45.75708" lon="4.6164">
        <ele>726.4</ele>
        <time>2021-09-27T13:53:28.000Z</time>
      </trkpt>
      <trkpt lat="45.75707" lon="4.61642">
        <ele>726.6</ele>
        <time>2021-09-27T13:53:29.000Z</time>
      </trkpt>
      <trkpt lat="45.75707" lon="4.61644">
        <ele>727</ele>
        <time>2021-09-27T13:53:30.000Z</time>
      </trkpt>
      <trkpt lat="45.75707" lon="4.61646">
        <ele>727.2</ele>
        <time>2021-09-27T13:53:31.000Z</time>
      </trkpt>
      <trkpt lat="45.7568" lon="4.61646">
        <ele>734.6</ele>
        <time>2021-09-27T13:55:23.000Z</time>
      </trkpt>
      <trkpt lat="45.7568" lon="4.61645">
        <ele>735</ele>
        <time>2021-09-27T13:55:24.000Z</time>
      </trkpt>
      <trkpt lat="45.75679" lon="4.61642">
        <ele>735.4</ele>
        <time>2021-09-27T13:55:26.000Z</time>
      </trkpt>
      <trkpt lat="45.75678" lon="4.61639">
        <ele>735.6</ele>
        <time>2021-09-27T13:55:28.000Z</time>
      </trkpt>
      <trkpt lat="45.75677" lon="4.61638">
        <ele>735.8</ele>
        <time>2021-09-27T13:55:29.000Z</time>
      </trkpt>
      <trkpt lat="45.75676" lon="4.61636">
        <ele>735.8</ele>
        <time>2021-09-27T13:55:30.000Z</time>
      </trkpt>
      <trkpt lat="45.75675" lon="4.61632">
        <ele>736.2</ele>
        <time>2021-09-27T13:55:33.000Z</time>
      </trkpt>
      <trkpt lat="45.75674" lon="4.6163">
        <ele>736.2</ele>
        <time>2021-09-27T13:55:34.000Z</time>
      </trkpt>
      <trkpt lat="45.75673" lon="4.61629">
        <ele>736.4</ele>
        <time>2021-09-27T13:55:35.000Z</time>
      </trkpt>
      <trkpt lat="45.75673" lon="4.61627">
        <ele>736.6</ele>
        <time>2021-09-27T13:55:36.000Z</time>
      </trkpt>
      <trkpt lat="45.75672" lon="4.61625">
        <ele>736.8</ele>
        <time>2021-09-27T13:55:37.000Z</time>
      </trkpt>
      <trkpt lat="45.75672" lon="4.61623">
        <ele>736.8</ele>
        <time>2021-09-27T13:55:38.000Z</time>
      </trkpt>
      <trkpt lat="45.75671" lon="4.61622">
        <ele>736.8</ele>
        <time>2021-09-27T13:55:39.000Z</time>
      </trkpt>
      <trkpt lat="45.7567" lon="4.61621">
        <ele>737</ele>
        <time>2021-09-27T13:55:40.000Z</time>
      </trkpt>
      <trkpt lat="45.75669" lon="4.61619">
        <ele>737</ele>
        <time>2021-09-27T13:55:41.000Z</time>
      </trkpt>
      <trkpt lat="45.75668" lon="4.61618">
        <ele>737.2</ele>
        <time>2021-09-27T13:55:42.000Z</time>
      </trkpt>
      <trkpt lat="45.75668" lon="4.61616">
        <ele>737.4</ele>
        <time>2021-09-27T13:55:43.000Z</time>
      </trkpt>
      <trkpt lat="45.75667" lon="4.61615">
        <ele>737.4</ele>
        <time>2021-09-27T13:55:44.000Z</time>
      </trkpt>
      <trkpt lat="45.75667" lon="4.61614">
        <ele>737.6</ele>
        <time>2021-09-27T13:55:45.000Z</time>
      </trkpt>
      <trkpt lat="45.75666" lon="4.61613">
        <ele>737.6</ele>
        <time>2021-09-27T13:55:46.000Z</time>
      </trkpt>
      <trkpt lat="45.75665" lon="4.61612">
        <ele>737.8</ele>
        <time>2021-09-27T13:55:47.000Z</time>
      </trkpt>
      <trkpt lat="45.75665" lon="4.6161">
        <ele>738</ele>
        <time>2021-09-27T13:55:48.000Z</time>
      </trkpt>
      <trkpt lat="45.75664" lon="4.61608">
        <ele>738</ele>
        <time>2021-09-27T13:55:49.000Z</time>
      </trkpt>
      <trkpt lat="45.75663" lon="4.61607">
        <ele>738.2</ele>
        <time>2021-09-27T13:55:50.000Z</time>
      </trkpt>
      <trkpt lat="45.75662" lon="4.61606">
        <ele>738.6</ele>
        <time>2021-09-27T13:55:51.000Z</time>
      </trkpt>
      <trkpt lat="45.75661" lon="4.61605">
        <ele>738.8</ele>
        <time>2021-09-27T13:55:52.000Z</time>
      </trkpt>
      <trkpt lat="45.75661" lon="4.61604">
        <ele>739</ele>
        <time>2021-09-27T13:55:53.000Z</time>
      </trkpt>
      <trkpt lat="45.7566" lon="4.61603">
        <ele>739</ele>
        <time>2021-09-27T13:55:54.000Z</time>
      </trkpt>
      <trkpt lat="45.75659" lon="4.61601">
        <ele>739.2</ele>
        <time>2021-09-27T13:55:55.000Z</time>
      </trkpt>
      <trkpt lat="45.75658" lon="4.616">
        <ele>739.2</ele>
        <time>2021-09-27T13:55:56.000Z</time>
      </trkpt>
      <trkpt lat="45.75658" lon="4.61599">
        <ele>739.4</ele>
        <time>2021-09-27T13:55:57.000Z</time>
      </trkpt>
      <trkpt lat="45.75657" lon="4.61598">
        <ele>739.4</ele>
        <time>2021-09-27T13:55:58.000Z</time>
      </trkpt>
      <trkpt lat="45.75656" lon="4.61597">
        <ele>739.6</ele>
        <time>2021-09-27T13:55:59.000Z</time>
      </trkpt>
      <trkpt lat="45.75655" lon="4.61597">
        <ele>739.8</ele>
        <time>2021-09-27T13:56:00.000Z</time>
      </trkpt>
      <trkpt lat="45.75653" lon="4.61597">
        <ele>740</ele>
        <time>2021-09-27T13:56:01.000Z</time>
      </trkpt>
      <trkpt lat="45.75652" lon="4.61597">
        <ele>740</ele>
        <time>2021-09-27T13:56:02.000Z</time>
      </trkpt>
      <trkpt lat="45.75651" lon="4.61599">
        <ele>740.2</ele>
        <time>2021-09-27T13:56:03.000Z</time>
      </trkpt>
      <trkpt lat="45.75651" lon="4.616">
        <ele>740.4</ele>
        <time>2021-09-27T13:56:04.000Z</time>
      </trkpt>
      <trkpt lat="45.7565" lon="4.61602">
        <ele>740.6</ele>
        <time>2021-09-27T13:56:05.000Z</time>
      </trkpt>
      <trkpt lat="45.75649" lon="4.61603">
        <ele>740.8</ele>
        <time>2021-09-27T13:56:06.000Z</time>
      </trkpt>
      <trkpt lat="45.75649" lon="4.61605">
        <ele>741</ele>
        <time>2021-09-27T13:56:07.000Z</time>
      </trkpt>
      <trkpt lat="45.75648" lon="4.61606">
        <ele>741.2</ele>
        <time>2021-09-27T13:56:08.000Z</time>
      </trkpt>
      <trkpt lat="45.75648" lon="4.61608">
        <ele>741.2</ele>
        <time>2021-09-27T13:56:09.000Z</time>
      </trkpt>
      <trkpt lat="45.75648" lon="4.6161">
        <ele>741.4</ele>
        <time>2021-09-27T13:56:10.000Z</time>
      </trkpt>
      <trkpt lat="45.75647" lon="4.61612">
        <ele>741.6</ele>
        <time>2021-09-27T13:56:11.000Z</time>
      </trkpt>
      <trkpt lat="45.75647" lon="4.61613">
        <ele>741.6</ele>
        <time>2021-09-27T13:56:12.000Z</time>
      </trkpt>
      <trkpt lat="45.75646" lon="4.61615">
        <ele>741.8</ele>
        <time>2021-09-27T13:56:13.000Z</time>
      </trkpt>
      <trkpt lat="45.75646" lon="4.61617">
        <ele>741.8</ele>
        <time>2021-09-27T13:56:14.000Z</time>
      </trkpt>
      <trkpt lat="45.75646" lon="4.61619">
        <ele>742</ele>
        <time>2021-09-27T13:56:15.000Z</time>
      </trkpt>
      <trkpt lat="45.75645" lon="4.61621">
        <ele>742.2</ele>
        <time>2021-09-27T13:56:16.000Z</time>
      </trkpt>
      <trkpt lat="45.75645" lon="4.61622">
        <ele>742.2</ele>
        <time>2021-09-27T13:56:17.000Z</time>
      </trkpt>
      <trkpt lat="45.75645" lon="4.61624">
        <ele>742.2</ele>
        <time>2021-09-27T13:56:18.000Z</time>
      </trkpt>
      <trkpt lat="45.75645" lon="4.61625">
        <ele>742.4</ele>
        <time>2021-09-27T13:56:19.000Z</time>
      </trkpt>
      <trkpt lat="45.75644" lon="4.61627">
        <ele>742.6</ele>
        <time>2021-09-27T13:56:20.000Z</time>
      </trkpt>
      <trkpt lat="45.75644" lon="4.61629">
        <ele>742.6</ele>
        <time>2021-09-27T13:56:21.000Z</time>
      </trkpt>
      <trkpt lat="45.75644" lon="4.61631">
        <ele>742.8</ele>
        <time>2021-09-27T13:56:22.000Z</time>
      </trkpt>
      <trkpt lat="45.75643" lon="4.61633">
        <ele>742.8</ele>
        <time>2021-09-27T13:56:23.000Z</time>
      </trkpt>
      <trkpt lat="45.75643" lon="4.61634">
        <ele>743</ele>
        <time>2021-09-27T13:56:24.000Z</time>
      </trkpt>
      <trkpt lat="45.75643" lon="4.61636">
        <ele>743.2</ele>
        <time>2021-09-27T13:56:25.000Z</time>
      </trkpt>
      <trkpt lat="45.75643" lon="4.61638">
        <ele>743.2</ele>
        <time>2021-09-27T13:56:26.000Z</time>
      </trkpt>
      <trkpt lat="45.75643" lon="4.6164">
        <ele>743.4</ele>
        <time>2021-09-27T13:56:27.000Z</time>
      </trkpt>
      <trkpt lat="45.75642" lon="4.61641">
        <ele>743.6</ele>
        <time>2021-09-27T13:56:28.000Z</time>
      </trkpt>
      <trkpt lat="45.75642" lon="4.61642">
        <ele>743.6</ele>
        <time>2021-09-27T13:56:29.000Z</time>
      </trkpt>
      <trkpt lat="45.75641" lon="4.61644">
        <ele>743.8</ele>
        <time>2021-09-27T13:56:30.000Z</time>
      </trkpt>
      <trkpt lat="45.75641" lon="4.61645">
        <ele>744</ele>
        <time>2021-09-27T13:56:31.000Z</time>
      </trkpt>
      <trkpt lat="45.75641" lon="4.61647">
        <ele>744.2</ele>
        <time>2021-09-27T13:56:32.000Z</time>
      </trkpt>
      <trkpt lat="45.7564" lon="4.61649">
        <ele>744.2</ele>
        <time>2021-09-27T13:56:33.000Z</time>
      </trkpt>
      <trkpt lat="45.7564" lon="4.61651">
        <ele>744.2</ele>
        <time>2021-09-27T13:56:34.000Z</time>
      </trkpt>
      <trkpt lat="45.75639" lon="4.61653">
        <ele>744.4</ele>
        <time>2021-09-27T13:56:35.000Z</time>
      </trkpt>
      <trkpt lat="45.75639" lon="4.61655">
        <ele>744.4</ele>
        <time>2021-09-27T13:56:36.000Z</time>
      </trkpt>
      <trkpt lat="45.75639" lon="4.61657">
        <ele>744.6</ele>
        <time>2021-09-27T13:56:37.000Z</time>
      </trkpt>
      <trkpt lat="45.75638" lon="4.61658">
        <ele>744.6</ele>
        <time>2021-09-27T13:56:38.000Z</time>
      </trkpt>
      <trkpt lat="45.75638" lon="4.6166">
        <ele>744.8</ele>
        <time>2021-09-27T13:56:39.000Z</time>
      </trkpt>
      <trkpt lat="45.75637" lon="4.61662">
        <ele>745</ele>
        <time>2021-09-27T13:56:40.000Z</time>
      </trkpt>
      <trkpt lat="45.75637" lon="4.61664">
        <ele>745</ele>
        <time>2021-09-27T13:56:41.000Z</time>
      </trkpt>
      <trkpt lat="45.75636" lon="4.61666">
        <ele>745.2</ele>
        <time>2021-09-27T13:56:42.000Z</time>
      </trkpt>
      <trkpt lat="45.75635" lon="4.61667">
        <ele>745.4</ele>
        <time>2021-09-27T13:56:43.000Z</time>
      </trkpt>
      <trkpt lat="45.75635" lon="4.61669">
        <ele>745.4</ele>
        <time>2021-09-27T13:56:44.000Z</time>
      </trkpt>
      <trkpt lat="45.75635" lon="4.61671">
        <ele>745.6</ele>
        <time>2021-09-27T13:56:45.000Z</time>
      </trkpt>
      <trkpt lat="45.75635" lon="4.61673">
        <ele>745.6</ele>
        <time>2021-09-27T13:56:46.000Z</time>
      </trkpt>
      <trkpt lat="45.75635" lon="4.61675">
        <ele>745.8</ele>
        <time>2021-09-27T13:56:47.000Z</time>
      </trkpt>
      <trkpt lat="45.75634" lon="4.61677">
        <ele>745.8</ele>
        <time>2021-09-27T13:56:48.000Z</time>
      </trkpt>
      <trkpt lat="45.75633" lon="4.61679">
        <ele>746</ele>
        <time>2021-09-27T13:56:49.000Z</time>
      </trkpt>
      <trkpt lat="45.75633" lon="4.61681">
        <ele>746.2</ele>
        <time>2021-09-27T13:56:50.000Z</time>
      </trkpt>
      <trkpt lat="45.75632" lon="4.61682">
        <ele>746.2</ele>
        <time>2021-09-27T13:56:51.000Z</time>
      </trkpt>
      <trkpt lat="45.75632" lon="4.61684">
        <ele>746.4</ele>
        <time>2021-09-27T13:56:52.000Z</time>
      </trkpt>
      <trkpt lat="45.75631" lon="4.61686">
        <ele>746.4</ele>
        <time>2021-09-27T13:56:53.000Z</time>
      </trkpt>
      <trkpt lat="45.75631" lon="4.61688">
        <ele>746.4</ele>
        <time>2021-09-27T13:56:54.000Z</time>
      </trkpt>
      <trkpt lat="45.7563" lon="4.6169">
        <ele>746.6</ele>
        <time>2021-09-27T13:56:55.000Z</time>
      </trkpt>
      <trkpt lat="45.75629" lon="4.61691">
        <ele>746.6</ele>
        <time>2021-09-27T13:56:56.000Z</time>
      </trkpt>
      <trkpt lat="45.75628" lon="4.61694">
        <ele>746.8</ele>
        <time>2021-09-27T13:56:57.000Z</time>
      </trkpt>
      <trkpt lat="45.75628" lon="4.61696">
        <ele>746.8</ele>
        <time>2021-09-27T13:56:58.000Z</time>
      </trkpt>
      <trkpt lat="45.75627" lon="4.61698">
        <ele>747</ele>
        <time>2021-09-27T13:56:59.000Z</time>
      </trkpt>
      <trkpt lat="45.75626" lon="4.617">
        <ele>747</ele>
        <time>2021-09-27T13:57:00.000Z</time>
      </trkpt>
      <trkpt lat="45.75625" lon="4.61701">
        <ele>747</ele>
        <time>2021-09-27T13:57:01.000Z</time>
      </trkpt>
      <trkpt lat="45.75625" lon="4.61703">
        <ele>747.2</ele>
        <time>2021-09-27T13:57:02.000Z</time>
      </trkpt>
      <trkpt lat="45.75624" lon="4.61704">
        <ele>747.2</ele>
        <time>2021-09-27T13:57:03.000Z</time>
      </trkpt>
      <trkpt lat="45.75623" lon="4.61706">
        <ele>747.2</ele>
        <time>2021-09-27T13:57:04.000Z</time>
      </trkpt>
      <trkpt lat="45.75623" lon="4.61707">
        <ele>747.2</ele>
        <time>2021-09-27T13:57:05.000Z</time>
      </trkpt>
      <trkpt lat="45.75622" lon="4.61708">
        <ele>747.2</ele>
        <time>2021-09-27T13:57:06.000Z</time>
      </trkpt>
      <trkpt lat="45.75622" lon="4.6171">
        <ele>747.2</ele>
        <time>2021-09-27T13:57:07.000Z</time>
      </trkpt>
      <trkpt lat="45.75622" lon="4.61712">
        <ele>747.4</ele>
        <time>2021-09-27T13:57:08.000Z</time>
      </trkpt>
      <trkpt lat="45.75622" lon="4.61714">
        <ele>747.8</ele>
        <time>2021-09-27T13:57:09.000Z</time>
      </trkpt>
      <trkpt lat="45.75621" lon="4.61716">
        <ele>747.8</ele>
        <time>2021-09-27T13:57:10.000Z</time>
      </trkpt>
      <trkpt lat="45.75621" lon="4.61717">
        <ele>748</ele>
        <time>2021-09-27T13:57:11.000Z</time>
      </trkpt>
      <trkpt lat="45.7562" lon="4.61719">
        <ele>748</ele>
        <time>2021-09-27T13:57:12.000Z</time>
      </trkpt>
      <trkpt lat="45.75619" lon="4.61721">
        <ele>748.2</ele>
        <time>2021-09-27T13:57:13.000Z</time>
      </trkpt>
      <trkpt lat="45.75618" lon="4.61725">
        <ele>748.2</ele>
        <time>2021-09-27T13:57:15.000Z</time>
      </trkpt>
      <trkpt lat="45.75618" lon="4.6173">
        <ele>748.4</ele>
        <time>2021-09-27T13:57:17.000Z</time>
      </trkpt>
      <trkpt lat="45.75618" lon="4.61732">
        <ele>748.4</ele>
        <time>2021-09-27T13:57:18.000Z</time>
      </trkpt>
      <trkpt lat="45.75618" lon="4.61744">
        <ele>748.4</ele>
        <time>2021-09-27T13:57:22.000Z</time>
      </trkpt>
      <trkpt lat="45.7562" lon="4.61758">
        <ele>748.6</ele>
        <time>2021-09-27T13:57:27.000Z</time>
      </trkpt>
      <trkpt lat="45.7562" lon="4.61761">
        <ele>748.6</ele>
        <time>2021-09-27T13:57:28.000Z</time>
      </trkpt>
      <trkpt lat="45.75621" lon="4.61769">
        <ele>748.6</ele>
        <time>2021-09-27T13:57:31.000Z</time>
      </trkpt>
      <trkpt lat="45.75622" lon="4.61772">
        <ele>748.6</ele>
        <time>2021-09-27T13:57:32.000Z</time>
      </trkpt>
      <trkpt lat="45.75622" lon="4.61774">
        <ele>748.6</ele>
        <time>2021-09-27T13:57:33.000Z</time>
      </trkpt>
      <trkpt lat="45.75624" lon="4.61782">
        <ele>748.8</ele>
        <time>2021-09-27T13:57:36.000Z</time>
      </trkpt>
      <trkpt lat="45.7563" lon="4.61798">
        <ele>748.8</ele>
        <time>2021-09-27T13:57:42.000Z</time>
      </trkpt>
      <trkpt lat="45.75637" lon="4.61812">
        <ele>748.8</ele>
        <time>2021-09-27T13:57:47.000Z</time>
      </trkpt>
      <trkpt lat="45.75648" lon="4.61839">
        <ele>749</ele>
        <time>2021-09-27T13:57:55.000Z</time>
      </trkpt>
      <trkpt lat="45.75654" lon="4.61851">
        <ele>749</ele>
        <time>2021-09-27T13:57:59.000Z</time>
      </trkpt>
      <trkpt lat="45.75655" lon="4.61853">
        <ele>749</ele>
        <time>2021-09-27T13:58:00.000Z</time>
      </trkpt>
      <trkpt lat="45.75655" lon="4.61854">
        <ele>749</ele>
        <time>2021-09-27T13:58:01.000Z</time>
      </trkpt>
      <trkpt lat="45.75656" lon="4.61856">
        <ele>749</ele>
        <time>2021-09-27T13:58:02.000Z</time>
      </trkpt>
      <trkpt lat="45.75657" lon="4.61857">
        <ele>749</ele>
        <time>2021-09-27T13:58:03.000Z</time>
      </trkpt>
      <trkpt lat="45.75657" lon="4.61858">
        <ele>749</ele>
        <time>2021-09-27T13:58:04.000Z</time>
      </trkpt>
      <trkpt lat="45.75661" lon="4.61862">
        <ele>749.2</ele>
        <time>2021-09-27T13:59:36.000Z</time>
      </trkpt>
      <trkpt lat="45.75664" lon="4.61863">
        <ele>749.2</ele>
        <time>2021-09-27T13:59:38.000Z</time>
      </trkpt>
      <trkpt lat="45.75666" lon="4.61863">
        <ele>749.2</ele>
        <time>2021-09-27T13:59:39.000Z</time>
      </trkpt>
      <trkpt lat="45.75667" lon="4.61864">
        <ele>749.2</ele>
        <time>2021-09-27T13:59:40.000Z</time>
      </trkpt>
      <trkpt lat="45.75669" lon="4.61865">
        <ele>749.2</ele>
        <time>2021-09-27T13:59:41.000Z</time>
      </trkpt>
      <trkpt lat="45.75669" lon="4.61866">
        <ele>749.2</ele>
        <time>2021-09-27T13:59:42.000Z</time>
      </trkpt>
      <trkpt lat="45.7567" lon="4.61868">
        <ele>749.2</ele>
        <time>2021-09-27T13:59:43.000Z</time>
      </trkpt>
      <trkpt lat="45.75671" lon="4.61869">
        <ele>749.2</ele>
        <time>2021-09-27T13:59:44.000Z</time>
      </trkpt>
      <trkpt lat="45.75671" lon="4.6187">
        <ele>749.2</ele>
        <time>2021-09-27T13:59:45.000Z</time>
      </trkpt>
      <trkpt lat="45.75671" lon="4.61872">
        <ele>749.2</ele>
        <time>2021-09-27T13:59:46.000Z</time>
      </trkpt>
      <trkpt lat="45.75672" lon="4.61873">
        <ele>749.2</ele>
        <time>2021-09-27T13:59:47.000Z</time>
      </trkpt>
      <trkpt lat="45.75672" lon="4.61875">
        <ele>749.2</ele>
        <time>2021-09-27T13:59:48.000Z</time>
      </trkpt>
      <trkpt lat="45.75673" lon="4.61877">
        <ele>749.2</ele>
        <time>2021-09-27T13:59:49.000Z</time>
      </trkpt>
      <trkpt lat="45.75675" lon="4.61879">
        <ele>749.2</ele>
        <time>2021-09-27T13:59:51.000Z</time>
      </trkpt>
      <trkpt lat="45.75676" lon="4.6188">
        <ele>749</ele>
        <time>2021-09-27T13:59:52.000Z</time>
      </trkpt>
      <trkpt lat="45.75677" lon="4.61882">
        <ele>749</ele>
        <time>2021-09-27T13:59:53.000Z</time>
      </trkpt>
      <trkpt lat="45.75679" lon="4.61886">
        <ele>748.8</ele>
        <time>2021-09-27T13:59:56.000Z</time>
      </trkpt>
      <trkpt lat="45.75683" lon="4.61893">
        <ele>748.8</ele>
        <time>2021-09-27T14:00:00.000Z</time>
      </trkpt>
      <trkpt lat="45.75683" lon="4.61895">
        <ele>748.8</ele>
        <time>2021-09-27T14:00:01.000Z</time>
      </trkpt>
      <trkpt lat="45.75684" lon="4.61898">
        <ele>748.8</ele>
        <time>2021-09-27T14:00:02.000Z</time>
      </trkpt>
      <trkpt lat="45.75689" lon="4.61908">
        <ele>748.8</ele>
        <time>2021-09-27T14:00:08.000Z</time>
      </trkpt>
      <trkpt lat="45.75693" lon="4.61917">
        <ele>748.8</ele>
        <time>2021-09-27T14:00:13.000Z</time>
      </trkpt>
      <trkpt lat="45.75694" lon="4.61919">
        <ele>748.8</ele>
        <time>2021-09-27T14:00:14.000Z</time>
      </trkpt>
      <trkpt lat="45.75695" lon="4.61921">
        <ele>749</ele>
        <time>2021-09-27T14:00:15.000Z</time>
      </trkpt>
      <trkpt lat="45.75699" lon="4.61928">
        <ele>749.2</ele>
        <time>2021-09-27T14:00:19.000Z</time>
      </trkpt>
      <trkpt lat="45.75701" lon="4.61933">
        <ele>749.4</ele>
        <time>2021-09-27T14:00:21.000Z</time>
      </trkpt>
      <trkpt lat="45.75704" lon="4.6194">
        <ele>749.4</ele>
        <time>2021-09-27T14:00:24.000Z</time>
      </trkpt>
      <trkpt lat="45.75707" lon="4.61946">
        <ele>749.4</ele>
        <time>2021-09-27T14:00:27.000Z</time>
      </trkpt>
      <trkpt lat="45.7572" lon="4.61976">
        <ele>749.4</ele>
        <time>2021-09-27T14:00:39.000Z</time>
      </trkpt>
      <trkpt lat="45.75722" lon="4.61985">
        <ele>749.4</ele>
        <time>2021-09-27T14:00:42.000Z</time>
      </trkpt>
      <trkpt lat="45.7573" lon="4.62004">
        <ele>749.6</ele>
        <time>2021-09-27T14:00:48.000Z</time>
      </trkpt>
      <trkpt lat="45.75735" lon="4.62018">
        <ele>749.6</ele>
        <time>2021-09-27T14:00:53.000Z</time>
      </trkpt>
      <trkpt lat="45.75735" lon="4.62019">
        <ele>749.6</ele>
        <time>2021-09-27T14:00:54.000Z</time>
      </trkpt>
      <trkpt lat="45.75736" lon="4.62037">
        <ele>750.2</ele>
        <time>2021-09-27T14:08:02.000Z</time>
      </trkpt>
      <trkpt lat="45.75736" lon="4.6205">
        <ele>750.2</ele>
        <time>2021-09-27T14:08:07.000Z</time>
      </trkpt>
      <trkpt lat="45.75735" lon="4.62057">
        <ele>750.4</ele>
        <time>2021-09-27T14:08:10.000Z</time>
      </trkpt>
      <trkpt lat="45.75734" lon="4.62065">
        <ele>750.6</ele>
        <time>2021-09-27T14:08:14.000Z</time>
      </trkpt>
      <trkpt lat="45.75733" lon="4.62067">
        <ele>750.6</ele>
        <time>2021-09-27T14:08:15.000Z</time>
      </trkpt>
      <trkpt lat="45.75733" lon="4.62069">
        <ele>750.6</ele>
        <time>2021-09-27T14:08:16.000Z</time>
      </trkpt>
      <trkpt lat="45.75733" lon="4.6207">
        <ele>750.8</ele>
        <time>2021-09-27T14:08:17.000Z</time>
      </trkpt>
      <trkpt lat="45.75733" lon="4.62072">
        <ele>750.8</ele>
        <time>2021-09-27T14:08:18.000Z</time>
      </trkpt>
      <trkpt lat="45.75733" lon="4.62074">
        <ele>751</ele>
        <time>2021-09-27T14:08:19.000Z</time>
      </trkpt>
      <trkpt lat="45.75733" lon="4.62075">
        <ele>751</ele>
        <time>2021-09-27T14:08:20.000Z</time>
      </trkpt>
      <trkpt lat="45.75732" lon="4.62077">
        <ele>751.2</ele>
        <time>2021-09-27T14:08:21.000Z</time>
      </trkpt>
      <trkpt lat="45.75732" lon="4.62079">
        <ele>751.2</ele>
        <time>2021-09-27T14:08:22.000Z</time>
      </trkpt>
      <trkpt lat="45.75731" lon="4.62089">
        <ele>752</ele>
        <time>2021-09-27T14:08:27.000Z</time>
      </trkpt>
      <trkpt lat="45.75731" lon="4.62095">
        <ele>752.4</ele>
        <time>2021-09-27T14:08:30.000Z</time>
      </trkpt>
      <trkpt lat="45.75731" lon="4.62101">
        <ele>752.8</ele>
        <time>2021-09-27T14:08:33.000Z</time>
      </trkpt>
      <trkpt lat="45.75731" lon="4.62104">
        <ele>752.8</ele>
        <time>2021-09-27T14:08:35.000Z</time>
      </trkpt>
      <trkpt lat="45.75731" lon="4.62106">
        <ele>753</ele>
        <time>2021-09-27T14:08:36.000Z</time>
      </trkpt>
      <trkpt lat="45.75731" lon="4.62108">
        <ele>753.2</ele>
        <time>2021-09-27T14:08:37.000Z</time>
      </trkpt>
      <trkpt lat="45.75731" lon="4.62112">
        <ele>753.4</ele>
        <time>2021-09-27T14:08:39.000Z</time>
      </trkpt>
      <trkpt lat="45.75731" lon="4.62114">
        <ele>753.4</ele>
        <time>2021-09-27T14:08:40.000Z</time>
      </trkpt>
      <trkpt lat="45.75731" lon="4.62115">
        <ele>753.4</ele>
        <time>2021-09-27T14:08:41.000Z</time>
      </trkpt>
      <trkpt lat="45.75731" lon="4.62117">
        <ele>753.8</ele>
        <time>2021-09-27T14:08:42.000Z</time>
      </trkpt>
      <trkpt lat="45.75731" lon="4.62119">
        <ele>753.8</ele>
        <time>2021-09-27T14:08:43.000Z</time>
      </trkpt>
      <trkpt lat="45.75731" lon="4.62121">
        <ele>754</ele>
        <time>2021-09-27T14:08:44.000Z</time>
      </trkpt>
      <trkpt lat="45.7573" lon="4.62123">
        <ele>754</ele>
        <time>2021-09-27T14:08:45.000Z</time>
      </trkpt>
      <trkpt lat="45.7573" lon="4.62124">
        <ele>754.2</ele>
        <time>2021-09-27T14:08:46.000Z</time>
      </trkpt>
      <trkpt lat="45.7573" lon="4.62126">
        <ele>754.2</ele>
        <time>2021-09-27T14:08:47.000Z</time>
      </trkpt>
      <trkpt lat="45.7573" lon="4.62128">
        <ele>754.4</ele>
        <time>2021-09-27T14:08:48.000Z</time>
      </trkpt>
      <trkpt lat="45.7573" lon="4.62129">
        <ele>754.6</ele>
        <time>2021-09-27T14:08:49.000Z</time>
      </trkpt>
      <trkpt lat="45.7573" lon="4.62131">
        <ele>754.6</ele>
        <time>2021-09-27T14:08:50.000Z</time>
      </trkpt>
      <trkpt lat="45.7573" lon="4.62132">
        <ele>754.8</ele>
        <time>2021-09-27T14:08:51.000Z</time>
      </trkpt>
      <trkpt lat="45.7573" lon="4.62134">
        <ele>755</ele>
        <time>2021-09-27T14:08:52.000Z</time>
      </trkpt>
      <trkpt lat="45.7573" lon="4.62136">
        <ele>755</ele>
        <time>2021-09-27T14:08:53.000Z</time>
      </trkpt>
      <trkpt lat="45.7573" lon="4.62138">
        <ele>755</ele>
        <time>2021-09-27T14:08:54.000Z</time>
      </trkpt>
      <trkpt lat="45.7573" lon="4.62139">
        <ele>755.2</ele>
        <time>2021-09-27T14:08:55.000Z</time>
      </trkpt>
      <trkpt lat="45.7573" lon="4.62141">
        <ele>755.4</ele>
        <time>2021-09-27T14:08:56.000Z</time>
      </trkpt>
      <trkpt lat="45.7573" lon="4.62143">
        <ele>755.6</ele>
        <time>2021-09-27T14:08:57.000Z</time>
      </trkpt>
      <trkpt lat="45.75729" lon="4.62144">
        <ele>755.6</ele>
        <time>2021-09-27T14:08:58.000Z</time>
      </trkpt>
      <trkpt lat="45.75729" lon="4.62146">
        <ele>755.6</ele>
        <time>2021-09-27T14:08:59.000Z</time>
      </trkpt>
      <trkpt lat="45.75728" lon="4.62147">
        <ele>755.8</ele>
        <time>2021-09-27T14:09:00.000Z</time>
      </trkpt>
      <trkpt lat="45.75728" lon="4.62148">
        <ele>756</ele>
        <time>2021-09-27T14:09:01.000Z</time>
      </trkpt>
      <trkpt lat="45.75727" lon="4.6215">
        <ele>756</ele>
        <time>2021-09-27T14:09:02.000Z</time>
      </trkpt>
      <trkpt lat="45.75726" lon="4.62151">
        <ele>756.2</ele>
        <time>2021-09-27T14:09:03.000Z</time>
      </trkpt>
      <trkpt lat="45.75725" lon="4.62152">
        <ele>756.4</ele>
        <time>2021-09-27T14:09:04.000Z</time>
      </trkpt>
      <trkpt lat="45.75724" lon="4.62154">
        <ele>756.8</ele>
        <time>2021-09-27T14:09:05.000Z</time>
      </trkpt>
      <trkpt lat="45.75723" lon="4.62155">
        <ele>756.8</ele>
        <time>2021-09-27T14:09:06.000Z</time>
      </trkpt>
      <trkpt lat="45.75722" lon="4.62156">
        <ele>757.2</ele>
        <time>2021-09-27T14:09:07.000Z</time>
      </trkpt>
      <trkpt lat="45.75721" lon="4.62157">
        <ele>757.2</ele>
        <time>2021-09-27T14:09:08.000Z</time>
      </trkpt>
      <trkpt lat="45.7572" lon="4.62159">
        <ele>757.4</ele>
        <time>2021-09-27T14:09:09.000Z</time>
      </trkpt>
      <trkpt lat="45.75719" lon="4.6216">
        <ele>757.6</ele>
        <time>2021-09-27T14:09:10.000Z</time>
      </trkpt>
      <trkpt lat="45.75717" lon="4.62161">
        <ele>757.6</ele>
        <time>2021-09-27T14:09:11.000Z</time>
      </trkpt>
      <trkpt lat="45.75716" lon="4.62162">
        <ele>757.8</ele>
        <time>2021-09-27T14:09:12.000Z</time>
      </trkpt>
      <trkpt lat="45.75715" lon="4.62164">
        <ele>757.8</ele>
        <time>2021-09-27T14:09:13.000Z</time>
      </trkpt>
      <trkpt lat="45.75714" lon="4.62165">
        <ele>758</ele>
        <time>2021-09-27T14:09:14.000Z</time>
      </trkpt>
      <trkpt lat="45.75712" lon="4.62167">
        <ele>758</ele>
        <time>2021-09-27T14:09:15.000Z</time>
      </trkpt>
      <trkpt lat="45.75711" lon="4.62169">
        <ele>758</ele>
        <time>2021-09-27T14:09:16.000Z</time>
      </trkpt>
      <trkpt lat="45.75709" lon="4.6217">
        <ele>758.2</ele>
        <time>2021-09-27T14:09:17.000Z</time>
      </trkpt>
      <trkpt lat="45.75708" lon="4.62172">
        <ele>758.2</ele>
        <time>2021-09-27T14:09:18.000Z</time>
      </trkpt>
      <trkpt lat="45.75706" lon="4.62174">
        <ele>758.2</ele>
        <time>2021-09-27T14:09:19.000Z</time>
      </trkpt>
      <trkpt lat="45.75705" lon="4.62175">
        <ele>758.2</ele>
        <time>2021-09-27T14:09:20.000Z</time>
      </trkpt>
      <trkpt lat="45.75704" lon="4.62177">
        <ele>758.2</ele>
        <time>2021-09-27T14:09:21.000Z</time>
      </trkpt>
      <trkpt lat="45.75703" lon="4.62178">
        <ele>758.2</ele>
        <time>2021-09-27T14:09:22.000Z</time>
      </trkpt>
      <trkpt lat="45.75702" lon="4.6218">
        <ele>758.2</ele>
        <time>2021-09-27T14:09:23.000Z</time>
      </trkpt>
      <trkpt lat="45.75701" lon="4.62181">
        <ele>758.2</ele>
        <time>2021-09-27T14:09:24.000Z</time>
      </trkpt>
      <trkpt lat="45.75711" lon="4.62216">
        <ele>758.6</ele>
        <time>2021-09-27T14:10:19.000Z</time>
      </trkpt>
      <trkpt lat="45.75712" lon="4.62218">
        <ele>758.6</ele>
        <time>2021-09-27T14:10:20.000Z</time>
      </trkpt>
      <trkpt lat="45.75715" lon="4.62228">
        <ele>758.8</ele>
        <time>2021-09-27T14:10:24.000Z</time>
      </trkpt>
      <trkpt lat="45.75718" lon="4.62238">
        <ele>759.2</ele>
        <time>2021-09-27T14:10:28.000Z</time>
      </trkpt>
      <trkpt lat="45.75719" lon="4.62242">
        <ele>759.2</ele>
        <time>2021-09-27T14:10:30.000Z</time>
      </trkpt>
      <trkpt lat="45.75726" lon="4.62258">
        <ele>759.4</ele>
        <time>2021-09-27T14:10:37.000Z</time>
      </trkpt>
      <trkpt lat="45.75733" lon="4.62277">
        <ele>759.8</ele>
        <time>2021-09-27T14:10:45.000Z</time>
      </trkpt>
      <trkpt lat="45.75734" lon="4.62279">
        <ele>760</ele>
        <time>2021-09-27T14:10:46.000Z</time>
      </trkpt>
      <trkpt lat="45.75736" lon="4.62286">
        <ele>760.2</ele>
        <time>2021-09-27T14:10:49.000Z</time>
      </trkpt>
      <trkpt lat="45.75736" lon="4.62288">
        <ele>760.2</ele>
        <time>2021-09-27T14:10:50.000Z</time>
      </trkpt>
      <trkpt lat="45.75737" lon="4.6229">
        <ele>760.4</ele>
        <time>2021-09-27T14:10:51.000Z</time>
      </trkpt>
      <trkpt lat="45.75738" lon="4.62295">
        <ele>760.6</ele>
        <time>2021-09-27T14:10:53.000Z</time>
      </trkpt>
      <trkpt lat="45.75741" lon="4.62303">
        <ele>760.8</ele>
        <time>2021-09-27T14:10:56.000Z</time>
      </trkpt>
      <trkpt lat="45.75744" lon="4.62312">
        <ele>761</ele>
        <time>2021-09-27T14:11:00.000Z</time>
      </trkpt>
      <trkpt lat="45.75745" lon="4.62314">
        <ele>761</ele>
        <time>2021-09-27T14:11:01.000Z</time>
      </trkpt>
      <trkpt lat="45.75746" lon="4.62316">
        <ele>761.2</ele>
        <time>2021-09-27T14:11:02.000Z</time>
      </trkpt>
      <trkpt lat="45.75751" lon="4.62322">
        <ele>761.4</ele>
        <time>2021-09-27T14:11:06.000Z</time>
      </trkpt>
      <trkpt lat="45.75752" lon="4.62323">
        <ele>761.4</ele>
        <time>2021-09-27T14:11:07.000Z</time>
      </trkpt>
      <trkpt lat="45.75753" lon="4.62325">
        <ele>761.4</ele>
        <time>2021-09-27T14:11:08.000Z</time>
      </trkpt>
      <trkpt lat="45.75754" lon="4.62327">
        <ele>761.6</ele>
        <time>2021-09-27T14:11:09.000Z</time>
      </trkpt>
      <trkpt lat="45.75755" lon="4.62328">
        <ele>761.8</ele>
        <time>2021-09-27T14:11:10.000Z</time>
      </trkpt>
      <trkpt lat="45.75756" lon="4.62329">
        <ele>761.8</ele>
        <time>2021-09-27T14:11:11.000Z</time>
      </trkpt>
      <trkpt lat="45.75757" lon="4.6233">
        <ele>762</ele>
        <time>2021-09-27T14:11:12.000Z</time>
      </trkpt>
      <trkpt lat="45.75759" lon="4.6233">
        <ele>762</ele>
        <time>2021-09-27T14:11:13.000Z</time>
      </trkpt>
      <trkpt lat="45.7576" lon="4.62331">
        <ele>762.2</ele>
        <time>2021-09-27T14:11:14.000Z</time>
      </trkpt>
      <trkpt lat="45.75761" lon="4.62332">
        <ele>762.4</ele>
        <time>2021-09-27T14:11:15.000Z</time>
      </trkpt>
      <trkpt lat="45.75762" lon="4.62332">
        <ele>762.6</ele>
        <time>2021-09-27T14:11:16.000Z</time>
      </trkpt>
      <trkpt lat="45.75763" lon="4.62332">
        <ele>762.8</ele>
        <time>2021-09-27T14:11:17.000Z</time>
      </trkpt>
      <trkpt lat="45.75765" lon="4.62332">
        <ele>763</ele>
        <time>2021-09-27T14:11:18.000Z</time>
      </trkpt>
      <trkpt lat="45.75768" lon="4.62332">
        <ele>763.4</ele>
        <time>2021-09-27T14:11:20.000Z</time>
      </trkpt>
      <trkpt lat="45.75769" lon="4.62332">
        <ele>763.6</ele>
        <time>2021-09-27T14:11:21.000Z</time>
      </trkpt>
      <trkpt lat="45.7577" lon="4.62333">
        <ele>763.8</ele>
        <time>2021-09-27T14:11:22.000Z</time>
      </trkpt>
      <trkpt lat="45.75772" lon="4.62334">
        <ele>764</ele>
        <time>2021-09-27T14:11:23.000Z</time>
      </trkpt>
      <trkpt lat="45.75773" lon="4.62335">
        <ele>764.4</ele>
        <time>2021-09-27T14:11:24.000Z</time>
      </trkpt>
      <trkpt lat="45.75774" lon="4.62336">
        <ele>764.6</ele>
        <time>2021-09-27T14:11:25.000Z</time>
      </trkpt>
      <trkpt lat="45.75775" lon="4.62337">
        <ele>764.8</ele>
        <time>2021-09-27T14:11:26.000Z</time>
      </trkpt>
      <trkpt lat="45.75776" lon="4.62338">
        <ele>765</ele>
        <time>2021-09-27T14:11:27.000Z</time>
      </trkpt>
      <trkpt lat="45.75777" lon="4.62337">
        <ele>765.2</ele>
        <time>2021-09-27T14:11:28.000Z</time>
      </trkpt>
      <trkpt lat="45.75779" lon="4.62337">
        <ele>765.4</ele>
        <time>2021-09-27T14:11:29.000Z</time>
      </trkpt>
      <trkpt lat="45.75781" lon="4.62337">
        <ele>765.8</ele>
        <time>2021-09-27T14:11:30.000Z</time>
      </trkpt>
      <trkpt lat="45.75782" lon="4.62337">
        <ele>765.6</ele>
        <time>2021-09-27T14:11:31.000Z</time>
      </trkpt>
      <trkpt lat="45.75784" lon="4.62337">
        <ele>765.8</ele>
        <time>2021-09-27T14:11:32.000Z</time>
      </trkpt>
      <trkpt lat="45.75786" lon="4.62338">
        <ele>766</ele>
        <time>2021-09-27T14:11:33.000Z</time>
      </trkpt>
      <trkpt lat="45.75788" lon="4.62339">
        <ele>766.2</ele>
        <time>2021-09-27T14:11:34.000Z</time>
      </trkpt>
      <trkpt lat="45.75789" lon="4.6234">
        <ele>766.4</ele>
        <time>2021-09-27T14:11:35.000Z</time>
      </trkpt>
      <trkpt lat="45.7579" lon="4.62341">
        <ele>766.6</ele>
        <time>2021-09-27T14:11:36.000Z</time>
      </trkpt>
      <trkpt lat="45.75791" lon="4.62342">
        <ele>766.6</ele>
        <time>2021-09-27T14:11:37.000Z</time>
      </trkpt>
      <trkpt lat="45.75793" lon="4.62343">
        <ele>766.8</ele>
        <time>2021-09-27T14:11:38.000Z</time>
      </trkpt>
      <trkpt lat="45.75794" lon="4.62344">
        <ele>767</ele>
        <time>2021-09-27T14:11:39.000Z</time>
      </trkpt>
      <trkpt lat="45.75795" lon="4.62345">
        <ele>767.2</ele>
        <time>2021-09-27T14:11:40.000Z</time>
      </trkpt>
      <trkpt lat="45.75796" lon="4.62345">
        <ele>767.4</ele>
        <time>2021-09-27T14:11:41.000Z</time>
      </trkpt>
      <trkpt lat="45.75798" lon="4.62346">
        <ele>767.4</ele>
        <time>2021-09-27T14:11:42.000Z</time>
      </trkpt>
      <trkpt lat="45.75799" lon="4.62347">
        <ele>767.6</ele>
        <time>2021-09-27T14:11:43.000Z</time>
      </trkpt>
      <trkpt lat="45.75801" lon="4.62347">
        <ele>767.8</ele>
        <time>2021-09-27T14:11:44.000Z</time>
      </trkpt>
      <trkpt lat="45.75802" lon="4.62348">
        <ele>768.2</ele>
        <time>2021-09-27T14:11:45.000Z</time>
      </trkpt>
      <trkpt lat="45.75803" lon="4.62348">
        <ele>768.4</ele>
        <time>2021-09-27T14:11:46.000Z</time>
      </trkpt>
      <trkpt lat="45.75805" lon="4.62349">
        <ele>768.8</ele>
        <time>2021-09-27T14:11:47.000Z</time>
      </trkpt>
      <trkpt lat="45.75806" lon="4.6235">
        <ele>768.8</ele>
        <time>2021-09-27T14:11:48.000Z</time>
      </trkpt>
      <trkpt lat="45.75807" lon="4.62352">
        <ele>769</ele>
        <time>2021-09-27T14:11:49.000Z</time>
      </trkpt>
      <trkpt lat="45.75808" lon="4.62354">
        <ele>769.2</ele>
        <time>2021-09-27T14:11:50.000Z</time>
      </trkpt>
      <trkpt lat="45.75809" lon="4.62356">
        <ele>769.4</ele>
        <time>2021-09-27T14:11:51.000Z</time>
      </trkpt>
      <trkpt lat="45.75811" lon="4.62358">
        <ele>769.4</ele>
        <time>2021-09-27T14:11:52.000Z</time>
      </trkpt>
      <trkpt lat="45.75812" lon="4.62359">
        <ele>769.6</ele>
        <time>2021-09-27T14:11:53.000Z</time>
      </trkpt>
      <trkpt lat="45.75814" lon="4.6236">
        <ele>769.6</ele>
        <time>2021-09-27T14:11:54.000Z</time>
      </trkpt>
      <trkpt lat="45.75815" lon="4.62361">
        <ele>769.8</ele>
        <time>2021-09-27T14:11:55.000Z</time>
      </trkpt>
      <trkpt lat="45.75816" lon="4.62363">
        <ele>770.2</ele>
        <time>2021-09-27T14:11:56.000Z</time>
      </trkpt>
      <trkpt lat="45.75818" lon="4.62364">
        <ele>770.2</ele>
        <time>2021-09-27T14:11:57.000Z</time>
      </trkpt>
      <trkpt lat="45.75819" lon="4.62365">
        <ele>770.4</ele>
        <time>2021-09-27T14:11:58.000Z</time>
      </trkpt>
      <trkpt lat="45.75819" lon="4.62367">
        <ele>770.6</ele>
        <time>2021-09-27T14:11:59.000Z</time>
      </trkpt>
      <trkpt lat="45.7582" lon="4.6237">
        <ele>770.8</ele>
        <time>2021-09-27T14:12:00.000Z</time>
      </trkpt>
      <trkpt lat="45.75821" lon="4.62371">
        <ele>771</ele>
        <time>2021-09-27T14:12:01.000Z</time>
      </trkpt>
      <trkpt lat="45.75822" lon="4.62372">
        <ele>771</ele>
        <time>2021-09-27T14:12:02.000Z</time>
      </trkpt>
      <trkpt lat="45.75823" lon="4.62374">
        <ele>771</ele>
        <time>2021-09-27T14:12:03.000Z</time>
      </trkpt>
      <trkpt lat="45.75823" lon="4.62376">
        <ele>771.2</ele>
        <time>2021-09-27T14:12:04.000Z</time>
      </trkpt>
      <trkpt lat="45.75823" lon="4.62379">
        <ele>771.2</ele>
        <time>2021-09-27T14:12:05.000Z</time>
      </trkpt>
      <trkpt lat="45.75822" lon="4.62381">
        <ele>771.2</ele>
        <time>2021-09-27T14:12:06.000Z</time>
      </trkpt>
      <trkpt lat="45.75821" lon="4.62383">
        <ele>771.2</ele>
        <time>2021-09-27T14:12:07.000Z</time>
      </trkpt>
      <trkpt lat="45.75819" lon="4.62384">
        <ele>771.4</ele>
        <time>2021-09-27T14:12:08.000Z</time>
      </trkpt>
      <trkpt lat="45.75817" lon="4.62385">
        <ele>771.6</ele>
        <time>2021-09-27T14:12:09.000Z</time>
      </trkpt>
      <trkpt lat="45.75815" lon="4.62385">
        <ele>771.8</ele>
        <time>2021-09-27T14:12:10.000Z</time>
      </trkpt>
      <trkpt lat="45.75814" lon="4.62385">
        <ele>772</ele>
        <time>2021-09-27T14:12:11.000Z</time>
      </trkpt>
      <trkpt lat="45.75812" lon="4.62386">
        <ele>772</ele>
        <time>2021-09-27T14:12:12.000Z</time>
      </trkpt>
      <trkpt lat="45.75811" lon="4.62388">
        <ele>772.2</ele>
        <time>2021-09-27T14:12:13.000Z</time>
      </trkpt>
      <trkpt lat="45.75809" lon="4.6239">
        <ele>772.2</ele>
        <time>2021-09-27T14:12:14.000Z</time>
      </trkpt>
      <trkpt lat="45.75808" lon="4.62392">
        <ele>772.2</ele>
        <time>2021-09-27T14:12:15.000Z</time>
      </trkpt>
      <trkpt lat="45.75806" lon="4.62394">
        <ele>772.2</ele>
        <time>2021-09-27T14:12:16.000Z</time>
      </trkpt>
      <trkpt lat="45.75804" lon="4.62396">
        <ele>772.4</ele>
        <time>2021-09-27T14:12:17.000Z</time>
      </trkpt>
      <trkpt lat="45.75802" lon="4.62398">
        <ele>772.4</ele>
        <time>2021-09-27T14:12:18.000Z</time>
      </trkpt>
      <trkpt lat="45.758" lon="4.62399">
        <ele>772.4</ele>
        <time>2021-09-27T14:12:19.000Z</time>
      </trkpt>
      <trkpt lat="45.75798" lon="4.62401">
        <ele>772.2</ele>
        <time>2021-09-27T14:12:20.000Z</time>
      </trkpt>
      <trkpt lat="45.75796" lon="4.62404">
        <ele>772.2</ele>
        <time>2021-09-27T14:12:21.000Z</time>
      </trkpt>
      <trkpt lat="45.75794" lon="4.62407">
        <ele>772.2</ele>
        <time>2021-09-27T14:12:22.000Z</time>
      </trkpt>
      <trkpt lat="45.75794" lon="4.6241">
        <ele>772.2</ele>
        <time>2021-09-27T14:12:23.000Z</time>
      </trkpt>
      <trkpt lat="45.75794" lon="4.62413">
        <ele>772.2</ele>
        <time>2021-09-27T14:12:24.000Z</time>
      </trkpt>
      <trkpt lat="45.75796" lon="4.62416">
        <ele>772.2</ele>
        <time>2021-09-27T14:12:25.000Z</time>
      </trkpt>
      <trkpt lat="45.75798" lon="4.62423">
        <ele>772.2</ele>
        <time>2021-09-27T14:12:27.000Z</time>
      </trkpt>
      <trkpt lat="45.75799" lon="4.62429">
        <ele>772.2</ele>
        <time>2021-09-27T14:12:29.000Z</time>
      </trkpt>
      <trkpt lat="45.758" lon="4.62431">
        <ele>772.4</ele>
        <time>2021-09-27T14:12:30.000Z</time>
      </trkpt>
      <trkpt lat="45.75803" lon="4.62437">
        <ele>772.4</ele>
        <time>2021-09-27T14:12:32.000Z</time>
      </trkpt>
      <trkpt lat="45.75804" lon="4.62439">
        <ele>772.6</ele>
        <time>2021-09-27T14:12:33.000Z</time>
      </trkpt>
      <trkpt lat="45.75805" lon="4.62442">
        <ele>772.6</ele>
        <time>2021-09-27T14:12:34.000Z</time>
      </trkpt>
      <trkpt lat="45.75807" lon="4.62444">
        <ele>772.6</ele>
        <time>2021-09-27T14:12:35.000Z</time>
      </trkpt>
      <trkpt lat="45.75808" lon="4.62447">
        <ele>772.8</ele>
        <time>2021-09-27T14:12:36.000Z</time>
      </trkpt>
      <trkpt lat="45.75809" lon="4.62449">
        <ele>773</ele>
        <time>2021-09-27T14:12:37.000Z</time>
      </trkpt>
      <trkpt lat="45.7581" lon="4.62451">
        <ele>773</ele>
        <time>2021-09-27T14:12:38.000Z</time>
      </trkpt>
      <trkpt lat="45.75811" lon="4.62454">
        <ele>773.2</ele>
        <time>2021-09-27T14:12:39.000Z</time>
      </trkpt>
      <trkpt lat="45.75819" lon="4.62464">
        <ele>774</ele>
        <time>2021-09-27T14:12:43.000Z</time>
      </trkpt>
      <trkpt lat="45.75827" lon="4.62476">
        <ele>774.6</ele>
        <time>2021-09-27T14:12:48.000Z</time>
      </trkpt>
      <trkpt lat="45.75831" lon="4.62479">
        <ele>775</ele>
        <time>2021-09-27T14:12:50.000Z</time>
      </trkpt>
      <trkpt lat="45.75833" lon="4.6248">
        <ele>775.2</ele>
        <time>2021-09-27T14:12:51.000Z</time>
      </trkpt>
      <trkpt lat="45.75835" lon="4.62482">
        <ele>775.2</ele>
        <time>2021-09-27T14:12:52.000Z</time>
      </trkpt>
      <trkpt lat="45.75836" lon="4.62485">
        <ele>775.4</ele>
        <time>2021-09-27T14:12:53.000Z</time>
      </trkpt>
      <trkpt lat="45.75836" lon="4.62489">
        <ele>775.6</ele>
        <time>2021-09-27T14:12:54.000Z</time>
      </trkpt>
      <trkpt lat="45.75836" lon="4.62493">
        <ele>775.8</ele>
        <time>2021-09-27T14:12:55.000Z</time>
      </trkpt>
      <trkpt lat="45.75835" lon="4.62496">
        <ele>776</ele>
        <time>2021-09-27T14:12:56.000Z</time>
      </trkpt>
      <trkpt lat="45.75834" lon="4.625">
        <ele>776</ele>
        <time>2021-09-27T14:12:57.000Z</time>
      </trkpt>
      <trkpt lat="45.75834" lon="4.62505">
        <ele>776.2</ele>
        <time>2021-09-27T14:12:58.000Z</time>
      </trkpt>
      <trkpt lat="45.75833" lon="4.62509">
        <ele>776.2</ele>
        <time>2021-09-27T14:12:59.000Z</time>
      </trkpt>
      <trkpt lat="45.75833" lon="4.62513">
        <ele>776.2</ele>
        <time>2021-09-27T14:13:00.000Z</time>
      </trkpt>
      <trkpt lat="45.75834" lon="4.62516">
        <ele>776.2</ele>
        <time>2021-09-27T14:13:01.000Z</time>
      </trkpt>
      <trkpt lat="45.75834" lon="4.6252">
        <ele>776.2</ele>
        <time>2021-09-27T14:13:02.000Z</time>
      </trkpt>
      <trkpt lat="45.75834" lon="4.62525">
        <ele>776.4</ele>
        <time>2021-09-27T14:13:03.000Z</time>
      </trkpt>
      <trkpt lat="45.75834" lon="4.62529">
        <ele>776.4</ele>
        <time>2021-09-27T14:13:04.000Z</time>
      </trkpt>
      <trkpt lat="45.75834" lon="4.62533">
        <ele>776.4</ele>
        <time>2021-09-27T14:13:05.000Z</time>
      </trkpt>
      <trkpt lat="45.75834" lon="4.62537">
        <ele>776.6</ele>
        <time>2021-09-27T14:13:06.000Z</time>
      </trkpt>
      <trkpt lat="45.75833" lon="4.62541">
        <ele>776.6</ele>
        <time>2021-09-27T14:13:07.000Z</time>
      </trkpt>
      <trkpt lat="45.75832" lon="4.62544">
        <ele>776.6</ele>
        <time>2021-09-27T14:13:08.000Z</time>
      </trkpt>
      <trkpt lat="45.75831" lon="4.62547">
        <ele>776.6</ele>
        <time>2021-09-27T14:13:09.000Z</time>
      </trkpt>
      <trkpt lat="45.7583" lon="4.6255">
        <ele>776.6</ele>
        <time>2021-09-27T14:13:10.000Z</time>
      </trkpt>
      <trkpt lat="45.7583" lon="4.62553">
        <ele>776.6</ele>
        <time>2021-09-27T14:13:11.000Z</time>
      </trkpt>
      <trkpt lat="45.7583" lon="4.62556">
        <ele>776.6</ele>
        <time>2021-09-27T14:13:12.000Z</time>
      </trkpt>
      <trkpt lat="45.7583" lon="4.62559">
        <ele>776.8</ele>
        <time>2021-09-27T14:13:13.000Z</time>
      </trkpt>
      <trkpt lat="45.7583" lon="4.62562">
        <ele>776.8</ele>
        <time>2021-09-27T14:13:14.000Z</time>
      </trkpt>
      <trkpt lat="45.75831" lon="4.62566">
        <ele>776.8</ele>
        <time>2021-09-27T14:13:15.000Z</time>
      </trkpt>
      <trkpt lat="45.75831" lon="4.62576">
        <ele>777</ele>
        <time>2021-09-27T14:13:18.000Z</time>
      </trkpt>
      <trkpt lat="45.75832" lon="4.62578">
        <ele>777.2</ele>
        <time>2021-09-27T14:13:19.000Z</time>
      </trkpt>
      <trkpt lat="45.75831" lon="4.6258">
        <ele>777.2</ele>
        <time>2021-09-27T14:13:20.000Z</time>
      </trkpt>
      <trkpt lat="45.75831" lon="4.62581">
        <ele>777.2</ele>
        <time>2021-09-27T14:13:21.000Z</time>
      </trkpt>
      <trkpt lat="45.7583" lon="4.62581">
        <ele>777.2</ele>
        <time>2021-09-27T14:13:22.000Z</time>
      </trkpt>
      <trkpt lat="45.75829" lon="4.62583">
        <ele>777.2</ele>
        <time>2021-09-27T14:13:23.000Z</time>
      </trkpt>
      <trkpt lat="45.75829" lon="4.62585">
        <ele>777.4</ele>
        <time>2021-09-27T14:13:24.000Z</time>
      </trkpt>
      <trkpt lat="45.75829" lon="4.62587">
        <ele>777.4</ele>
        <time>2021-09-27T14:13:25.000Z</time>
      </trkpt>
      <trkpt lat="45.75828" lon="4.62589">
        <ele>777.4</ele>
        <time>2021-09-27T14:13:26.000Z</time>
      </trkpt>
      <trkpt lat="45.75827" lon="4.62591">
        <ele>777.4</ele>
        <time>2021-09-27T14:13:27.000Z</time>
      </trkpt>
      <trkpt lat="45.75827" lon="4.62593">
        <ele>777.4</ele>
        <time>2021-09-27T14:13:28.000Z</time>
      </trkpt>
      <trkpt lat="45.75827" lon="4.62595">
        <ele>777.4</ele>
        <time>2021-09-27T14:13:29.000Z</time>
      </trkpt>
      <trkpt lat="45.75827" lon="4.62597">
        <ele>777.4</ele>
        <time>2021-09-27T14:13:30.000Z</time>
      </trkpt>
      <trkpt lat="45.75827" lon="4.62599">
        <ele>777.4</ele>
        <time>2021-09-27T14:13:31.000Z</time>
      </trkpt>
      <trkpt lat="45.75828" lon="4.62609">
        <ele>777.2</ele>
        <time>2021-09-27T14:13:34.000Z</time>
      </trkpt>
      <trkpt lat="45.7583" lon="4.62613">
        <ele>777.2</ele>
        <time>2021-09-27T14:13:35.000Z</time>
      </trkpt>
      <trkpt lat="45.75832" lon="4.62617">
        <ele>777.2</ele>
        <time>2021-09-27T14:13:36.000Z</time>
      </trkpt>
      <trkpt lat="45.75836" lon="4.62629">
        <ele>777.2</ele>
        <time>2021-09-27T14:13:39.000Z</time>
      </trkpt>
      <trkpt lat="45.75837" lon="4.62633">
        <ele>777.2</ele>
        <time>2021-09-27T14:13:40.000Z</time>
      </trkpt>
      <trkpt lat="45.75837" lon="4.62637">
        <ele>777.2</ele>
        <time>2021-09-27T14:13:41.000Z</time>
      </trkpt>
      <trkpt lat="45.75836" lon="4.62639">
        <ele>776.8</ele>
        <time>2021-09-27T14:13:42.000Z</time>
      </trkpt>
      <trkpt lat="45.75834" lon="4.6264">
        <ele>776.2</ele>
        <time>2021-09-27T14:13:43.000Z</time>
      </trkpt>
      <trkpt lat="45.75832" lon="4.62642">
        <ele>775.8</ele>
        <time>2021-09-27T14:13:44.000Z</time>
      </trkpt>
      <trkpt lat="45.75823" lon="4.62649">
        <ele>775</ele>
        <time>2021-09-27T14:13:47.000Z</time>
      </trkpt>
      <trkpt lat="45.75819" lon="4.62651">
        <ele>774.6</ele>
        <time>2021-09-27T14:13:48.000Z</time>
      </trkpt>
      <trkpt lat="45.75816" lon="4.62653">
        <ele>774.4</ele>
        <time>2021-09-27T14:13:49.000Z</time>
      </trkpt>
      <trkpt lat="45.75814" lon="4.62655">
        <ele>774.4</ele>
        <time>2021-09-27T14:13:50.000Z</time>
      </trkpt>
      <trkpt lat="45.75814" lon="4.62657">
        <ele>774.2</ele>
        <time>2021-09-27T14:13:51.000Z</time>
      </trkpt>
      <trkpt lat="45.75816" lon="4.6266">
        <ele>774.2</ele>
        <time>2021-09-27T14:13:52.000Z</time>
      </trkpt>
      <trkpt lat="45.7582" lon="4.62669">
        <ele>773.6</ele>
        <time>2021-09-27T14:13:54.000Z</time>
      </trkpt>
      <trkpt lat="45.75823" lon="4.62673">
        <ele>773.4</ele>
        <time>2021-09-27T14:13:55.000Z</time>
      </trkpt>
      <trkpt lat="45.75825" lon="4.62679">
        <ele>773</ele>
        <time>2021-09-27T14:13:56.000Z</time>
      </trkpt>
      <trkpt lat="45.75826" lon="4.62684">
        <ele>772.8</ele>
        <time>2021-09-27T14:13:57.000Z</time>
      </trkpt>
      <trkpt lat="45.75825" lon="4.62687">
        <ele>772.6</ele>
        <time>2021-09-27T14:13:58.000Z</time>
      </trkpt>
      <trkpt lat="45.75823" lon="4.62692">
        <ele>772.4</ele>
        <time>2021-09-27T14:13:59.000Z</time>
      </trkpt>
      <trkpt lat="45.75822" lon="4.62696">
        <ele>772</ele>
        <time>2021-09-27T14:14:00.000Z</time>
      </trkpt>
      <trkpt lat="45.75822" lon="4.627">
        <ele>771.6</ele>
        <time>2021-09-27T14:14:01.000Z</time>
      </trkpt>
      <trkpt lat="45.75823" lon="4.62704">
        <ele>771.4</ele>
        <time>2021-09-27T14:14:02.000Z</time>
      </trkpt>
      <trkpt lat="45.7583" lon="4.62721">
        <ele>770.4</ele>
        <time>2021-09-27T14:14:05.000Z</time>
      </trkpt>
      <trkpt lat="45.75833" lon="4.62726">
        <ele>770.2</ele>
        <time>2021-09-27T14:14:06.000Z</time>
      </trkpt>
      <trkpt lat="45.75834" lon="4.6273">
        <ele>770</ele>
        <time>2021-09-27T14:14:07.000Z</time>
      </trkpt>
      <trkpt lat="45.75833" lon="4.62739">
        <ele>768.8</ele>
        <time>2021-09-27T14:14:09.000Z</time>
      </trkpt>
      <trkpt lat="45.75831" lon="4.62742">
        <ele>768.4</ele>
        <time>2021-09-27T14:14:10.000Z</time>
      </trkpt>
      <trkpt lat="45.75827" lon="4.62746">
        <ele>767.8</ele>
        <time>2021-09-27T14:14:11.000Z</time>
      </trkpt>
      <trkpt lat="45.75825" lon="4.62749">
        <ele>767.4</ele>
        <time>2021-09-27T14:14:12.000Z</time>
      </trkpt>
      <trkpt lat="45.75824" lon="4.62752">
        <ele>766.6</ele>
        <time>2021-09-27T14:14:13.000Z</time>
      </trkpt>
      <trkpt lat="45.75818" lon="4.62759">
        <ele>765</ele>
        <time>2021-09-27T14:14:15.000Z</time>
      </trkpt>
      <trkpt lat="45.7581" lon="4.62763">
        <ele>763.8</ele>
        <time>2021-09-27T14:14:17.000Z</time>
      </trkpt>
      <trkpt lat="45.75805" lon="4.62765">
        <ele>763.2</ele>
        <time>2021-09-27T14:14:18.000Z</time>
      </trkpt>
      <trkpt lat="45.75801" lon="4.62766">
        <ele>762.2</ele>
        <time>2021-09-27T14:14:19.000Z</time>
      </trkpt>
      <trkpt lat="45.75796" lon="4.62767">
        <ele>761.2</ele>
        <time>2021-09-27T14:14:20.000Z</time>
      </trkpt>
      <trkpt lat="45.75787" lon="4.62769">
        <ele>759.4</ele>
        <time>2021-09-27T14:14:22.000Z</time>
      </trkpt>
      <trkpt lat="45.75783" lon="4.62768">
        <ele>758.2</ele>
        <time>2021-09-27T14:14:23.000Z</time>
      </trkpt>
      <trkpt lat="45.75778" lon="4.62765">
        <ele>757.4</ele>
        <time>2021-09-27T14:14:24.000Z</time>
      </trkpt>
      <trkpt lat="45.75776" lon="4.62764">
        <ele>756.6</ele>
        <time>2021-09-27T14:14:25.000Z</time>
      </trkpt>
      <trkpt lat="45.75773" lon="4.62764">
        <ele>755.6</ele>
        <time>2021-09-27T14:14:26.000Z</time>
      </trkpt>
      <trkpt lat="45.7577" lon="4.62766">
        <ele>755.6</ele>
        <time>2021-09-27T14:14:27.000Z</time>
      </trkpt>
      <trkpt lat="45.75768" lon="4.62768">
        <ele>754.8</ele>
        <time>2021-09-27T14:14:28.000Z</time>
      </trkpt>
      <trkpt lat="45.75767" lon="4.62769">
        <ele>754</ele>
        <time>2021-09-27T14:14:29.000Z</time>
      </trkpt>
      <trkpt lat="45.75766" lon="4.62772">
        <ele>753.4</ele>
        <time>2021-09-27T14:14:30.000Z</time>
      </trkpt>
      <trkpt lat="45.75766" lon="4.62774">
        <ele>753.2</ele>
        <time>2021-09-27T14:14:31.000Z</time>
      </trkpt>
      <trkpt lat="45.75766" lon="4.62775">
        <ele>753</ele>
        <time>2021-09-27T14:14:32.000Z</time>
      </trkpt>
      <trkpt lat="45.75764" lon="4.62777">
        <ele>752.8</ele>
        <time>2021-09-27T14:14:33.000Z</time>
      </trkpt>
      <trkpt lat="45.75763" lon="4.62779">
        <ele>752.6</ele>
        <time>2021-09-27T14:14:34.000Z</time>
      </trkpt>
      <trkpt lat="45.7576" lon="4.62778">
        <ele>752</ele>
        <time>2021-09-27T14:14:36.000Z</time>
      </trkpt>
      <trkpt lat="45.75757" lon="4.62773">
        <ele>751</ele>
        <time>2021-09-27T14:14:38.000Z</time>
      </trkpt>
      <trkpt lat="45.75753" lon="4.6277">
        <ele>750</ele>
        <time>2021-09-27T14:14:40.000Z</time>
      </trkpt>
      <trkpt lat="45.75749" lon="4.62765">
        <ele>748.6</ele>
        <time>2021-09-27T14:14:42.000Z</time>
      </trkpt>
      <trkpt lat="45.75746" lon="4.62761">
        <ele>748</ele>
        <time>2021-09-27T14:14:44.000Z</time>
      </trkpt>
      <trkpt lat="45.75742" lon="4.62755">
        <ele>747.6</ele>
        <time>2021-09-27T14:14:46.000Z</time>
      </trkpt>
      <trkpt lat="45.7574" lon="4.62753">
        <ele>747.6</ele>
        <time>2021-09-27T14:14:47.000Z</time>
      </trkpt>
      <trkpt lat="45.75735" lon="4.62745">
        <ele>747.6</ele>
        <time>2021-09-27T14:14:50.000Z</time>
      </trkpt>
      <trkpt lat="45.75734" lon="4.62742">
        <ele>747.6</ele>
        <time>2021-09-27T14:14:51.000Z</time>
      </trkpt>
      <trkpt lat="45.75732" lon="4.62736">
        <ele>747.6</ele>
        <time>2021-09-27T14:14:53.000Z</time>
      </trkpt>
      <trkpt lat="45.75732" lon="4.62733">
        <ele>747.6</ele>
        <time>2021-09-27T14:14:54.000Z</time>
      </trkpt>
      <trkpt lat="45.75731" lon="4.6273">
        <ele>747.8</ele>
        <time>2021-09-27T14:14:55.000Z</time>
      </trkpt>
      <trkpt lat="45.7573" lon="4.62728">
        <ele>747.8</ele>
        <time>2021-09-27T14:14:56.000Z</time>
      </trkpt>
      <trkpt lat="45.75729" lon="4.62724">
        <ele>748</ele>
        <time>2021-09-27T14:14:57.000Z</time>
      </trkpt>
      <trkpt lat="45.75727" lon="4.62718">
        <ele>748.4</ele>
        <time>2021-09-27T14:14:59.000Z</time>
      </trkpt>
      <trkpt lat="45.75726" lon="4.6271">
        <ele>748.6</ele>
        <time>2021-09-27T14:15:01.000Z</time>
      </trkpt>
      <trkpt lat="45.75724" lon="4.62699">
        <ele>749</ele>
        <time>2021-09-27T14:15:04.000Z</time>
      </trkpt>
      <trkpt lat="45.75721" lon="4.62687">
        <ele>749.2</ele>
        <time>2021-09-27T14:15:07.000Z</time>
      </trkpt>
      <trkpt lat="45.75719" lon="4.62672">
        <ele>749.6</ele>
        <time>2021-09-27T14:15:11.000Z</time>
      </trkpt>
      <trkpt lat="45.75718" lon="4.62669">
        <ele>749.8</ele>
        <time>2021-09-27T14:15:12.000Z</time>
      </trkpt>
      <trkpt lat="45.75717" lon="4.62657">
        <ele>750.2</ele>
        <time>2021-09-27T14:15:15.000Z</time>
      </trkpt>
      <trkpt lat="45.75716" lon="4.62653">
        <ele>750.2</ele>
        <time>2021-09-27T14:15:16.000Z</time>
      </trkpt>
      <trkpt lat="45.75715" lon="4.62642">
        <ele>750.8</ele>
        <time>2021-09-27T14:15:19.000Z</time>
      </trkpt>
      <trkpt lat="45.75714" lon="4.62639">
        <ele>751</ele>
        <time>2021-09-27T14:15:20.000Z</time>
      </trkpt>
      <trkpt lat="45.75714" lon="4.62638">
        <ele>751</ele>
        <time>2021-09-27T14:15:21.000Z</time>
      </trkpt>
      <trkpt lat="45.75713" lon="4.62638">
        <ele>751.2</ele>
        <time>2021-09-27T14:15:23.000Z</time>
      </trkpt>
      <trkpt lat="45.75711" lon="4.62639">
        <ele>751.2</ele>
        <time>2021-09-27T14:15:24.000Z</time>
      </trkpt>
      <trkpt lat="45.75707" lon="4.62642">
        <ele>751.4</ele>
        <time>2021-09-27T14:15:26.000Z</time>
      </trkpt>
      <trkpt lat="45.75704" lon="4.62643">
        <ele>751.4</ele>
        <time>2021-09-27T14:15:27.000Z</time>
      </trkpt>
      <trkpt lat="45.75697" lon="4.62636">
        <ele>751.4</ele>
        <time>2021-09-27T14:15:30.000Z</time>
      </trkpt>
      <trkpt lat="45.75695" lon="4.62633">
        <ele>751.2</ele>
        <time>2021-09-27T14:15:31.000Z</time>
      </trkpt>
      <trkpt lat="45.75693" lon="4.62631">
        <ele>750.8</ele>
        <time>2021-09-27T14:15:32.000Z</time>
      </trkpt>
      <trkpt lat="45.75691" lon="4.62631">
        <ele>750.4</ele>
        <time>2021-09-27T14:15:33.000Z</time>
      </trkpt>
      <trkpt lat="45.75689" lon="4.62632">
        <ele>749.6</ele>
        <time>2021-09-27T14:15:34.000Z</time>
      </trkpt>
      <trkpt lat="45.75689" lon="4.62635">
        <ele>748.8</ele>
        <time>2021-09-27T14:15:35.000Z</time>
      </trkpt>
      <trkpt lat="45.75689" lon="4.62638">
        <ele>748</ele>
        <time>2021-09-27T14:15:36.000Z</time>
      </trkpt>
      <trkpt lat="45.75689" lon="4.62642">
        <ele>747.6</ele>
        <time>2021-09-27T14:15:37.000Z</time>
      </trkpt>
      <trkpt lat="45.7569" lon="4.62645">
        <ele>746.8</ele>
        <time>2021-09-27T14:15:38.000Z</time>
      </trkpt>
      <trkpt lat="45.7569" lon="4.62648">
        <ele>746.8</ele>
        <time>2021-09-27T14:15:39.000Z</time>
      </trkpt>
      <trkpt lat="45.75691" lon="4.62651">
        <ele>746</ele>
        <time>2021-09-27T14:15:40.000Z</time>
      </trkpt>
      <trkpt lat="45.75691" lon="4.62655">
        <ele>745.6</ele>
        <time>2021-09-27T14:15:41.000Z</time>
      </trkpt>
      <trkpt lat="45.7569" lon="4.62665">
        <ele>744.4</ele>
        <time>2021-09-27T14:15:43.000Z</time>
      </trkpt>
      <trkpt lat="45.75692" lon="4.62677">
        <ele>743.6</ele>
        <time>2021-09-27T14:15:45.000Z</time>
      </trkpt>
      <trkpt lat="45.75693" lon="4.62682">
        <ele>743.4</ele>
        <time>2021-09-27T14:15:46.000Z</time>
      </trkpt>
      <trkpt lat="45.75693" lon="4.62687">
        <ele>743.4</ele>
        <time>2021-09-27T14:15:47.000Z</time>
      </trkpt>
      <trkpt lat="45.75694" lon="4.62692">
        <ele>743.2</ele>
        <time>2021-09-27T14:15:48.000Z</time>
      </trkpt>
      <trkpt lat="45.75696" lon="4.62702">
        <ele>743</ele>
        <time>2021-09-27T14:15:50.000Z</time>
      </trkpt>
      <trkpt lat="45.75696" lon="4.62706">
        <ele>742.6</ele>
        <time>2021-09-27T14:15:51.000Z</time>
      </trkpt>
      <trkpt lat="45.75696" lon="4.62709">
        <ele>742.4</ele>
        <time>2021-09-27T14:15:52.000Z</time>
      </trkpt>
      <trkpt lat="45.75696" lon="4.62712">
        <ele>742.2</ele>
        <time>2021-09-27T14:15:53.000Z</time>
      </trkpt>
      <trkpt lat="45.75697" lon="4.62716">
        <ele>742.2</ele>
        <time>2021-09-27T14:15:54.000Z</time>
      </trkpt>
      <trkpt lat="45.75698" lon="4.6272">
        <ele>742</ele>
        <time>2021-09-27T14:15:55.000Z</time>
      </trkpt>
      <trkpt lat="45.757" lon="4.62729">
        <ele>741.6</ele>
        <time>2021-09-27T14:15:57.000Z</time>
      </trkpt>
      <trkpt lat="45.75704" lon="4.62738">
        <ele>741.4</ele>
        <time>2021-09-27T14:15:59.000Z</time>
      </trkpt>
      <trkpt lat="45.75704" lon="4.62742">
        <ele>741.2</ele>
        <time>2021-09-27T14:16:00.000Z</time>
      </trkpt>
      <trkpt lat="45.75705" lon="4.62746">
        <ele>741.2</ele>
        <time>2021-09-27T14:16:01.000Z</time>
      </trkpt>
      <trkpt lat="45.75707" lon="4.62749">
        <ele>741</ele>
        <time>2021-09-27T14:16:02.000Z</time>
      </trkpt>
      <trkpt lat="45.75708" lon="4.62758">
        <ele>740.6</ele>
        <time>2021-09-27T14:16:04.000Z</time>
      </trkpt>
      <trkpt lat="45.75709" lon="4.62762">
        <ele>740.4</ele>
        <time>2021-09-27T14:16:05.000Z</time>
      </trkpt>
      <trkpt lat="45.75711" lon="4.62767">
        <ele>740.2</ele>
        <time>2021-09-27T14:16:06.000Z</time>
      </trkpt>
      <trkpt lat="45.75712" lon="4.62769">
        <ele>740</ele>
        <time>2021-09-27T14:16:07.000Z</time>
      </trkpt>
      <trkpt lat="45.75715" lon="4.62773">
        <ele>739.8</ele>
        <time>2021-09-27T14:16:08.000Z</time>
      </trkpt>
      <trkpt lat="45.75717" lon="4.62777">
        <ele>739.6</ele>
        <time>2021-09-27T14:16:09.000Z</time>
      </trkpt>
      <trkpt lat="45.75724" lon="4.6279">
        <ele>738.6</ele>
        <time>2021-09-27T14:16:12.000Z</time>
      </trkpt>
      <trkpt lat="45.75728" lon="4.62805">
        <ele>737.4</ele>
        <time>2021-09-27T14:16:15.000Z</time>
      </trkpt>
      <trkpt lat="45.7573" lon="4.6281">
        <ele>737.2</ele>
        <time>2021-09-27T14:16:16.000Z</time>
      </trkpt>
      <trkpt lat="45.75733" lon="4.62814">
        <ele>737.2</ele>
        <time>2021-09-27T14:16:17.000Z</time>
      </trkpt>
      <trkpt lat="45.75737" lon="4.62819">
        <ele>737</ele>
        <time>2021-09-27T14:16:18.000Z</time>
      </trkpt>
      <trkpt lat="45.7574" lon="4.62821">
        <ele>736.8</ele>
        <time>2021-09-27T14:16:19.000Z</time>
      </trkpt>
      <trkpt lat="45.75743" lon="4.62823">
        <ele>736.8</ele>
        <time>2021-09-27T14:16:20.000Z</time>
      </trkpt>
      <trkpt lat="45.75744" lon="4.62824">
        <ele>736.4</ele>
        <time>2021-09-27T14:16:21.000Z</time>
      </trkpt>
      <trkpt lat="45.75744" lon="4.62827">
        <ele>735.6</ele>
        <time>2021-09-27T14:16:22.000Z</time>
      </trkpt>
      <trkpt lat="45.75745" lon="4.62831">
        <ele>735.2</ele>
        <time>2021-09-27T14:16:23.000Z</time>
      </trkpt>
      <trkpt lat="45.75747" lon="4.62836">
        <ele>734.8</ele>
        <time>2021-09-27T14:16:24.000Z</time>
      </trkpt>
      <trkpt lat="45.75749" lon="4.6284">
        <ele>734.6</ele>
        <time>2021-09-27T14:16:25.000Z</time>
      </trkpt>
      <trkpt lat="45.75751" lon="4.62843">
        <ele>734.6</ele>
        <time>2021-09-27T14:16:26.000Z</time>
      </trkpt>
      <trkpt lat="45.75754" lon="4.62845">
        <ele>734.4</ele>
        <time>2021-09-27T14:16:27.000Z</time>
      </trkpt>
      <trkpt lat="45.75757" lon="4.62847">
        <ele>734.2</ele>
        <time>2021-09-27T14:16:28.000Z</time>
      </trkpt>
      <trkpt lat="45.75766" lon="4.62855">
        <ele>733.6</ele>
        <time>2021-09-27T14:16:31.000Z</time>
      </trkpt>
      <trkpt lat="45.75768" lon="4.62857">
        <ele>732.8</ele>
        <time>2021-09-27T14:16:32.000Z</time>
      </trkpt>
      <trkpt lat="45.75767" lon="4.62858">
        <ele>732</ele>
        <time>2021-09-27T14:16:33.000Z</time>
      </trkpt>
      <trkpt lat="45.75766" lon="4.6286">
        <ele>731.4</ele>
        <time>2021-09-27T14:16:34.000Z</time>
      </trkpt>
      <trkpt lat="45.75764" lon="4.62862">
        <ele>731</ele>
        <time>2021-09-27T14:16:35.000Z</time>
      </trkpt>
      <trkpt lat="45.75764" lon="4.62867">
        <ele>730.2</ele>
        <time>2021-09-27T14:16:37.000Z</time>
      </trkpt>
      <trkpt lat="45.75766" lon="4.6287">
        <ele>729.4</ele>
        <time>2021-09-27T14:16:38.000Z</time>
      </trkpt>
      <trkpt lat="45.75768" lon="4.62873">
        <ele>729</ele>
        <time>2021-09-27T14:16:39.000Z</time>
      </trkpt>
      <trkpt lat="45.75773" lon="4.62878">
        <ele>728.2</ele>
        <time>2021-09-27T14:16:41.000Z</time>
      </trkpt>
      <trkpt lat="45.75774" lon="4.62879">
        <ele>727.4</ele>
        <time>2021-09-27T14:16:42.000Z</time>
      </trkpt>
      <trkpt lat="45.75775" lon="4.62881">
        <ele>726.2</ele>
        <time>2021-09-27T14:16:43.000Z</time>
      </trkpt>
      <trkpt lat="45.75775" lon="4.62883">
        <ele>725.4</ele>
        <time>2021-09-27T14:16:44.000Z</time>
      </trkpt>
      <trkpt lat="45.75774" lon="4.62885">
        <ele>724.4</ele>
        <time>2021-09-27T14:16:45.000Z</time>
      </trkpt>
      <trkpt lat="45.75773" lon="4.62886">
        <ele>723.6</ele>
        <time>2021-09-27T14:16:46.000Z</time>
      </trkpt>
      <trkpt lat="45.75772" lon="4.62887">
        <ele>723</ele>
        <time>2021-09-27T14:16:47.000Z</time>
      </trkpt>
      <trkpt lat="45.75771" lon="4.62889">
        <ele>722.2</ele>
        <time>2021-09-27T14:16:48.000Z</time>
      </trkpt>
      <trkpt lat="45.75771" lon="4.62891">
        <ele>722</ele>
        <time>2021-09-27T14:16:49.000Z</time>
      </trkpt>
      <trkpt lat="45.75773" lon="4.62893">
        <ele>722</ele>
        <time>2021-09-27T14:16:50.000Z</time>
      </trkpt>
      <trkpt lat="45.75776" lon="4.62895">
        <ele>721.2</ele>
        <time>2021-09-27T14:16:52.000Z</time>
      </trkpt>
      <trkpt lat="45.75776" lon="4.62896">
        <ele>720.4</ele>
        <time>2021-09-27T14:16:53.000Z</time>
      </trkpt>
      <trkpt lat="45.7578" lon="4.62905">
        <ele>715.8</ele>
        <time>2021-09-27T14:17:15.000Z</time>
      </trkpt>
      <trkpt lat="45.75779" lon="4.62907">
        <ele>715.8</ele>
        <time>2021-09-27T14:17:16.000Z</time>
      </trkpt>
      <trkpt lat="45.75778" lon="4.62908">
        <ele>715.8</ele>
        <time>2021-09-27T14:17:17.000Z</time>
      </trkpt>
      <trkpt lat="45.75777" lon="4.62909">
        <ele>715.8</ele>
        <time>2021-09-27T14:17:18.000Z</time>
      </trkpt>
      <trkpt lat="45.75776" lon="4.6291">
        <ele>715.6</ele>
        <time>2021-09-27T14:17:20.000Z</time>
      </trkpt>
      <trkpt lat="45.75774" lon="4.62914">
        <ele>712</ele>
        <time>2021-09-27T14:17:42.000Z</time>
      </trkpt>
      <trkpt lat="45.75773" lon="4.62917">
        <ele>712</ele>
        <time>2021-09-27T14:17:43.000Z</time>
      </trkpt>
      <trkpt lat="45.75772" lon="4.62919">
        <ele>712</ele>
        <time>2021-09-27T14:17:44.000Z</time>
      </trkpt>
      <trkpt lat="45.7577" lon="4.62922">
        <ele>712</ele>
        <time>2021-09-27T14:17:45.000Z</time>
      </trkpt>
      <trkpt lat="45.75769" lon="4.62925">
        <ele>712</ele>
        <time>2021-09-27T14:17:46.000Z</time>
      </trkpt>
      <trkpt lat="45.75768" lon="4.62927">
        <ele>712</ele>
        <time>2021-09-27T14:17:47.000Z</time>
      </trkpt>
      <trkpt lat="45.75765" lon="4.6293">
        <ele>711.4</ele>
        <time>2021-09-27T14:17:49.000Z</time>
      </trkpt>
      <trkpt lat="45.75764" lon="4.6293">
        <ele>710.6</ele>
        <time>2021-09-27T14:17:50.000Z</time>
      </trkpt>
      <trkpt lat="45.75764" lon="4.62929">
        <ele>709</ele>
        <time>2021-09-27T14:17:52.000Z</time>
      </trkpt>
      <trkpt lat="45.75763" lon="4.62928">
        <ele>707.8</ele>
        <time>2021-09-27T14:17:53.000Z</time>
      </trkpt>
      <trkpt lat="45.75759" lon="4.62926">
        <ele>706.4</ele>
        <time>2021-09-27T14:17:55.000Z</time>
      </trkpt>
      <trkpt lat="45.75754" lon="4.62923">
        <ele>705</ele>
        <time>2021-09-27T14:17:57.000Z</time>
      </trkpt>
      <trkpt lat="45.7575" lon="4.62922">
        <ele>704.4</ele>
        <time>2021-09-27T14:17:58.000Z</time>
      </trkpt>
      <trkpt lat="45.75746" lon="4.6292">
        <ele>704.4</ele>
        <time>2021-09-27T14:17:59.000Z</time>
      </trkpt>
      <trkpt lat="45.75733" lon="4.62915">
        <ele>704</ele>
        <time>2021-09-27T14:18:02.000Z</time>
      </trkpt>
      <trkpt lat="45.75729" lon="4.62912">
        <ele>703.8</ele>
        <time>2021-09-27T14:18:03.000Z</time>
      </trkpt>
      <trkpt lat="45.75726" lon="4.62909">
        <ele>703.2</ele>
        <time>2021-09-27T14:18:04.000Z</time>
      </trkpt>
      <trkpt lat="45.75712" lon="4.629">
        <ele>702</ele>
        <time>2021-09-27T14:18:08.000Z</time>
      </trkpt>
      <trkpt lat="45.75708" lon="4.62898">
        <ele>701.2</ele>
        <time>2021-09-27T14:18:09.000Z</time>
      </trkpt>
      <trkpt lat="45.75706" lon="4.62896">
        <ele>700.6</ele>
        <time>2021-09-27T14:18:10.000Z</time>
      </trkpt>
      <trkpt lat="45.75703" lon="4.62894">
        <ele>700</ele>
        <time>2021-09-27T14:18:11.000Z</time>
      </trkpt>
      <trkpt lat="45.757" lon="4.62892">
        <ele>699.8</ele>
        <time>2021-09-27T14:18:12.000Z</time>
      </trkpt>
      <trkpt lat="45.75697" lon="4.6289">
        <ele>699.4</ele>
        <time>2021-09-27T14:18:13.000Z</time>
      </trkpt>
      <trkpt lat="45.7569" lon="4.62887">
        <ele>698.4</ele>
        <time>2021-09-27T14:18:16.000Z</time>
      </trkpt>
      <trkpt lat="45.75688" lon="4.62885">
        <ele>698.4</ele>
        <time>2021-09-27T14:18:17.000Z</time>
      </trkpt>
      <trkpt lat="45.75683" lon="4.62883">
        <ele>698.2</ele>
        <time>2021-09-27T14:18:18.000Z</time>
      </trkpt>
      <trkpt lat="45.75668" lon="4.62875">
        <ele>697.2</ele>
        <time>2021-09-27T14:18:22.000Z</time>
      </trkpt>
      <trkpt lat="45.75665" lon="4.6287">
        <ele>697</ele>
        <time>2021-09-27T14:18:23.000Z</time>
      </trkpt>
      <trkpt lat="45.75661" lon="4.62868">
        <ele>697</ele>
        <time>2021-09-27T14:18:24.000Z</time>
      </trkpt>
      <trkpt lat="45.75659" lon="4.62868">
        <ele>696.8</ele>
        <time>2021-09-27T14:18:25.000Z</time>
      </trkpt>
      <trkpt lat="45.75658" lon="4.62868">
        <ele>696.6</ele>
        <time>2021-09-27T14:18:26.000Z</time>
      </trkpt>
      <trkpt lat="45.75659" lon="4.62869">
        <ele>696.4</ele>
        <time>2021-09-27T14:18:27.000Z</time>
      </trkpt>
      <trkpt lat="45.75659" lon="4.6287">
        <ele>696.4</ele>
        <time>2021-09-27T14:18:28.000Z</time>
      </trkpt>
      <trkpt lat="45.7566" lon="4.62871">
        <ele>696.2</ele>
        <time>2021-09-27T14:18:29.000Z</time>
      </trkpt>
      <trkpt lat="45.75662" lon="4.62871">
        <ele>696.2</ele>
        <time>2021-09-27T14:18:30.000Z</time>
      </trkpt>
      <trkpt lat="45.75667" lon="4.62874">
        <ele>696.2</ele>
        <time>2021-09-27T14:18:32.000Z</time>
      </trkpt>
      <trkpt lat="45.75672" lon="4.62877">
        <ele>696</ele>
        <time>2021-09-27T14:18:34.000Z</time>
      </trkpt>
      <trkpt lat="45.75688" lon="4.62891">
        <ele>696.2</ele>
        <time>2021-09-27T14:18:42.000Z</time>
      </trkpt>
      <trkpt lat="45.7569" lon="4.62893">
        <ele>696.2</ele>
        <time>2021-09-27T14:18:43.000Z</time>
      </trkpt>
      <trkpt lat="45.75692" lon="4.62894">
        <ele>696.2</ele>
        <time>2021-09-27T14:18:44.000Z</time>
      </trkpt>
      <trkpt lat="45.75694" lon="4.62896">
        <ele>696.2</ele>
        <time>2021-09-27T14:18:45.000Z</time>
      </trkpt>
      <trkpt lat="45.75696" lon="4.62898">
        <ele>696.4</ele>
        <time>2021-09-27T14:18:46.000Z</time>
      </trkpt>
      <trkpt lat="45.75698" lon="4.62899">
        <ele>696.6</ele>
        <time>2021-09-27T14:18:47.000Z</time>
      </trkpt>
      <trkpt lat="45.757" lon="4.629">
        <ele>696.6</ele>
        <time>2021-09-27T14:18:48.000Z</time>
      </trkpt>
      <trkpt lat="45.75702" lon="4.62901">
        <ele>696.6</ele>
        <time>2021-09-27T14:18:49.000Z</time>
      </trkpt>
      <trkpt lat="45.75704" lon="4.62902">
        <ele>696.8</ele>
        <time>2021-09-27T14:18:50.000Z</time>
      </trkpt>
      <trkpt lat="45.75706" lon="4.62904">
        <ele>696.8</ele>
        <time>2021-09-27T14:18:51.000Z</time>
      </trkpt>
      <trkpt lat="45.75708" lon="4.62905">
        <ele>697</ele>
        <time>2021-09-27T14:18:52.000Z</time>
      </trkpt>
      <trkpt lat="45.7571" lon="4.62908">
        <ele>697.2</ele>
        <time>2021-09-27T14:18:53.000Z</time>
      </trkpt>
      <trkpt lat="45.75712" lon="4.62909">
        <ele>697.2</ele>
        <time>2021-09-27T14:18:54.000Z</time>
      </trkpt>
      <trkpt lat="45.75714" lon="4.6291">
        <ele>697.4</ele>
        <time>2021-09-27T14:18:55.000Z</time>
      </trkpt>
      <trkpt lat="45.75716" lon="4.62911">
        <ele>697.6</ele>
        <time>2021-09-27T14:18:56.000Z</time>
      </trkpt>
      <trkpt lat="45.75718" lon="4.62915">
        <ele>697.6</ele>
        <time>2021-09-27T14:18:57.000Z</time>
      </trkpt>
      <trkpt lat="45.7572" lon="4.62916">
        <ele>697.8</ele>
        <time>2021-09-27T14:18:58.000Z</time>
      </trkpt>
      <trkpt lat="45.75722" lon="4.62918">
        <ele>698</ele>
        <time>2021-09-27T14:18:59.000Z</time>
      </trkpt>
      <trkpt lat="45.75723" lon="4.62919">
        <ele>698</ele>
        <time>2021-09-27T14:19:00.000Z</time>
      </trkpt>
      <trkpt lat="45.75724" lon="4.6292">
        <ele>698.4</ele>
        <time>2021-09-27T14:19:01.000Z</time>
      </trkpt>
      <trkpt lat="45.75725" lon="4.62921">
        <ele>698.6</ele>
        <time>2021-09-27T14:19:02.000Z</time>
      </trkpt>
      <trkpt lat="45.75732" lon="4.62926">
        <ele>699.4</ele>
        <time>2021-09-27T14:19:06.000Z</time>
      </trkpt>
      <trkpt lat="45.75734" lon="4.62926">
        <ele>699.6</ele>
        <time>2021-09-27T14:19:07.000Z</time>
      </trkpt>
      <trkpt lat="45.75736" lon="4.62927">
        <ele>699.8</ele>
        <time>2021-09-27T14:19:08.000Z</time>
      </trkpt>
      <trkpt lat="45.75737" lon="4.62928">
        <ele>700</ele>
        <time>2021-09-27T14:19:09.000Z</time>
      </trkpt>
      <trkpt lat="45.75739" lon="4.62929">
        <ele>700.2</ele>
        <time>2021-09-27T14:19:10.000Z</time>
      </trkpt>
      <trkpt lat="45.7574" lon="4.6293">
        <ele>700.4</ele>
        <time>2021-09-27T14:19:11.000Z</time>
      </trkpt>
      <trkpt lat="45.75742" lon="4.62931">
        <ele>700.4</ele>
        <time>2021-09-27T14:19:12.000Z</time>
      </trkpt>
      <trkpt lat="45.75744" lon="4.62932">
        <ele>700.6</ele>
        <time>2021-09-27T14:19:13.000Z</time>
      </trkpt>
      <trkpt lat="45.75746" lon="4.62932">
        <ele>700.8</ele>
        <time>2021-09-27T14:19:14.000Z</time>
      </trkpt>
      <trkpt lat="45.75747" lon="4.62933">
        <ele>701.2</ele>
        <time>2021-09-27T14:19:15.000Z</time>
      </trkpt>
      <trkpt lat="45.75749" lon="4.62934">
        <ele>701.6</ele>
        <time>2021-09-27T14:19:16.000Z</time>
      </trkpt>
      <trkpt lat="45.7575" lon="4.62935">
        <ele>701.8</ele>
        <time>2021-09-27T14:19:17.000Z</time>
      </trkpt>
      <trkpt lat="45.75751" lon="4.62936">
        <ele>702</ele>
        <time>2021-09-27T14:19:18.000Z</time>
      </trkpt>
      <trkpt lat="45.75752" lon="4.62938">
        <ele>702.2</ele>
        <time>2021-09-27T14:19:19.000Z</time>
      </trkpt>
      <trkpt lat="45.75753" lon="4.62939">
        <ele>702.6</ele>
        <time>2021-09-27T14:19:20.000Z</time>
      </trkpt>
      <trkpt lat="45.75754" lon="4.6294">
        <ele>702.6</ele>
        <time>2021-09-27T14:19:21.000Z</time>
      </trkpt>
      <trkpt lat="45.75755" lon="4.62942">
        <ele>702.8</ele>
        <time>2021-09-27T14:19:22.000Z</time>
      </trkpt>
      <trkpt lat="45.75755" lon="4.62944">
        <ele>702.6</ele>
        <time>2021-09-27T14:19:23.000Z</time>
      </trkpt>
      <trkpt lat="45.75754" lon="4.62947">
        <ele>702.6</ele>
        <time>2021-09-27T14:19:24.000Z</time>
      </trkpt>
      <trkpt lat="45.75754" lon="4.62949">
        <ele>702.6</ele>
        <time>2021-09-27T14:19:25.000Z</time>
      </trkpt>
      <trkpt lat="45.75754" lon="4.62953">
        <ele>702.6</ele>
        <time>2021-09-27T14:19:26.000Z</time>
      </trkpt>
      <trkpt lat="45.75755" lon="4.62955">
        <ele>702.6</ele>
        <time>2021-09-27T14:19:27.000Z</time>
      </trkpt>
      <trkpt lat="45.75755" lon="4.62958">
        <ele>702.6</ele>
        <time>2021-09-27T14:19:28.000Z</time>
      </trkpt>
      <trkpt lat="45.75756" lon="4.6296">
        <ele>702.6</ele>
        <time>2021-09-27T14:19:29.000Z</time>
      </trkpt>
      <trkpt lat="45.75756" lon="4.62963">
        <ele>702.4</ele>
        <time>2021-09-27T14:19:30.000Z</time>
      </trkpt>
      <trkpt lat="45.75758" lon="4.62965">
        <ele>701.6</ele>
        <time>2021-09-27T14:19:31.000Z</time>
      </trkpt>
      <trkpt lat="45.7576" lon="4.62967">
        <ele>701</ele>
        <time>2021-09-27T14:19:32.000Z</time>
      </trkpt>
      <trkpt lat="45.75762" lon="4.62969">
        <ele>700.2</ele>
        <time>2021-09-27T14:19:33.000Z</time>
      </trkpt>
      <trkpt lat="45.75763" lon="4.62972">
        <ele>699.6</ele>
        <time>2021-09-27T14:19:34.000Z</time>
      </trkpt>
      <trkpt lat="45.75765" lon="4.62977">
        <ele>699</ele>
        <time>2021-09-27T14:19:36.000Z</time>
      </trkpt>
      <trkpt lat="45.75766" lon="4.62979">
        <ele>698.4</ele>
        <time>2021-09-27T14:19:37.000Z</time>
      </trkpt>
      <trkpt lat="45.75766" lon="4.62982">
        <ele>698</ele>
        <time>2021-09-27T14:19:38.000Z</time>
      </trkpt>
      <trkpt lat="45.75766" lon="4.62984">
        <ele>697.4</ele>
        <time>2021-09-27T14:19:39.000Z</time>
      </trkpt>
      <trkpt lat="45.75766" lon="4.62987">
        <ele>697</ele>
        <time>2021-09-27T14:19:40.000Z</time>
      </trkpt>
      <trkpt lat="45.75766" lon="4.62996">
        <ele>695.6</ele>
        <time>2021-09-27T14:19:43.000Z</time>
      </trkpt>
      <trkpt lat="45.75765" lon="4.63">
        <ele>694.8</ele>
        <time>2021-09-27T14:19:44.000Z</time>
      </trkpt>
      <trkpt lat="45.75763" lon="4.63004">
        <ele>694</ele>
        <time>2021-09-27T14:19:45.000Z</time>
      </trkpt>
      <trkpt lat="45.75762" lon="4.63005">
        <ele>693.4</ele>
        <time>2021-09-27T14:19:46.000Z</time>
      </trkpt>
      <trkpt lat="45.7576" lon="4.63007">
        <ele>692.4</ele>
        <time>2021-09-27T14:19:47.000Z</time>
      </trkpt>
      <trkpt lat="45.75759" lon="4.63008">
        <ele>691.6</ele>
        <time>2021-09-27T14:19:48.000Z</time>
      </trkpt>
      <trkpt lat="45.75757" lon="4.63009">
        <ele>690.8</ele>
        <time>2021-09-27T14:19:49.000Z</time>
      </trkpt>
      <trkpt lat="45.75757" lon="4.6301">
        <ele>687.6</ele>
        <time>2021-09-27T14:19:52.000Z</time>
      </trkpt>
      <trkpt lat="45.75757" lon="4.63011">
        <ele>686.4</ele>
        <time>2021-09-27T14:19:53.000Z</time>
      </trkpt>
      <trkpt lat="45.75759" lon="4.63015">
        <ele>685.2</ele>
        <time>2021-09-27T14:19:55.000Z</time>
      </trkpt>
      <trkpt lat="45.75759" lon="4.63016">
        <ele>684.8</ele>
        <time>2021-09-27T14:19:56.000Z</time>
      </trkpt>
      <trkpt lat="45.75758" lon="4.63019">
        <ele>684.4</ele>
        <time>2021-09-27T14:19:57.000Z</time>
      </trkpt>
      <trkpt lat="45.75756" lon="4.63021">
        <ele>684</ele>
        <time>2021-09-27T14:19:58.000Z</time>
      </trkpt>
      <trkpt lat="45.75751" lon="4.63025">
        <ele>683.6</ele>
        <time>2021-09-27T14:20:00.000Z</time>
      </trkpt>
      <trkpt lat="45.75748" lon="4.63027">
        <ele>683.2</ele>
        <time>2021-09-27T14:20:01.000Z</time>
      </trkpt>
      <trkpt lat="45.75746" lon="4.63028">
        <ele>682.4</ele>
        <time>2021-09-27T14:20:02.000Z</time>
      </trkpt>
      <trkpt lat="45.75745" lon="4.6303">
        <ele>681.8</ele>
        <time>2021-09-27T14:20:03.000Z</time>
      </trkpt>
      <trkpt lat="45.75744" lon="4.63032">
        <ele>681</ele>
        <time>2021-09-27T14:20:04.000Z</time>
      </trkpt>
      <trkpt lat="45.75743" lon="4.63035">
        <ele>680.4</ele>
        <time>2021-09-27T14:20:05.000Z</time>
      </trkpt>
      <trkpt lat="45.75744" lon="4.63038">
        <ele>679.8</ele>
        <time>2021-09-27T14:20:06.000Z</time>
      </trkpt>
      <trkpt lat="45.75745" lon="4.63042">
        <ele>679</ele>
        <time>2021-09-27T14:20:07.000Z</time>
      </trkpt>
      <trkpt lat="45.75747" lon="4.63045">
        <ele>678.2</ele>
        <time>2021-09-27T14:20:08.000Z</time>
      </trkpt>
      <trkpt lat="45.75748" lon="4.63047">
        <ele>677.6</ele>
        <time>2021-09-27T14:20:09.000Z</time>
      </trkpt>
      <trkpt lat="45.75749" lon="4.6305">
        <ele>676.6</ele>
        <time>2021-09-27T14:20:10.000Z</time>
      </trkpt>
      <trkpt lat="45.75749" lon="4.63052">
        <ele>675.8</ele>
        <time>2021-09-27T14:20:11.000Z</time>
      </trkpt>
      <trkpt lat="45.75747" lon="4.63054">
        <ele>675</ele>
        <time>2021-09-27T14:20:12.000Z</time>
      </trkpt>
      <trkpt lat="45.75745" lon="4.63055">
        <ele>674</ele>
        <time>2021-09-27T14:20:13.000Z</time>
      </trkpt>
      <trkpt lat="45.75743" lon="4.63055">
        <ele>672.8</ele>
        <time>2021-09-27T14:20:14.000Z</time>
      </trkpt>
      <trkpt lat="45.75742" lon="4.63057">
        <ele>671.8</ele>
        <time>2021-09-27T14:20:15.000Z</time>
      </trkpt>
      <trkpt lat="45.75741" lon="4.6306">
        <ele>670.6</ele>
        <time>2021-09-27T14:20:16.000Z</time>
      </trkpt>
      <trkpt lat="45.7574" lon="4.63062">
        <ele>670.2</ele>
        <time>2021-09-27T14:20:17.000Z</time>
      </trkpt>
      <trkpt lat="45.7574" lon="4.63066">
        <ele>669.6</ele>
        <time>2021-09-27T14:20:18.000Z</time>
      </trkpt>
      <trkpt lat="45.7574" lon="4.6307">
        <ele>669.4</ele>
        <time>2021-09-27T14:20:19.000Z</time>
      </trkpt>
      <trkpt lat="45.75737" lon="4.63075">
        <ele>668.2</ele>
        <time>2021-09-27T14:20:21.000Z</time>
      </trkpt>
      <trkpt lat="45.75734" lon="4.63076">
        <ele>668.2</ele>
        <time>2021-09-27T14:20:22.000Z</time>
      </trkpt>
      <trkpt lat="45.7573" lon="4.63077">
        <ele>667.4</ele>
        <time>2021-09-27T14:20:23.000Z</time>
      </trkpt>
      <trkpt lat="45.75727" lon="4.63078">
        <ele>667</ele>
        <time>2021-09-27T14:20:24.000Z</time>
      </trkpt>
      <trkpt lat="45.75723" lon="4.63077">
        <ele>666</ele>
        <time>2021-09-27T14:20:25.000Z</time>
      </trkpt>
      <trkpt lat="45.75719" lon="4.63074">
        <ele>664.8</ele>
        <time>2021-09-27T14:20:26.000Z</time>
      </trkpt>
      <trkpt lat="45.75714" lon="4.63068">
        <ele>663.8</ele>
        <time>2021-09-27T14:20:27.000Z</time>
      </trkpt>
      <trkpt lat="45.75711" lon="4.63064">
        <ele>662.8</ele>
        <time>2021-09-27T14:20:28.000Z</time>
      </trkpt>
      <trkpt lat="45.75708" lon="4.6306">
        <ele>662</ele>
        <time>2021-09-27T14:20:29.000Z</time>
      </trkpt>
      <trkpt lat="45.75704" lon="4.63055">
        <ele>661.2</ele>
        <time>2021-09-27T14:20:30.000Z</time>
      </trkpt>
      <trkpt lat="45.757" lon="4.63052">
        <ele>660.2</ele>
        <time>2021-09-27T14:20:31.000Z</time>
      </trkpt>
      <trkpt lat="45.75698" lon="4.6305">
        <ele>659.4</ele>
        <time>2021-09-27T14:20:32.000Z</time>
      </trkpt>
      <trkpt lat="45.75695" lon="4.63047">
        <ele>658.4</ele>
        <time>2021-09-27T14:20:33.000Z</time>
      </trkpt>
      <trkpt lat="45.75691" lon="4.63045">
        <ele>657.8</ele>
        <time>2021-09-27T14:20:34.000Z</time>
      </trkpt>
      <trkpt lat="45.75689" lon="4.63045">
        <ele>656.8</ele>
        <time>2021-09-27T14:20:35.000Z</time>
      </trkpt>
      <trkpt lat="45.75686" lon="4.63045">
        <ele>656.2</ele>
        <time>2021-09-27T14:20:36.000Z</time>
      </trkpt>
      <trkpt lat="45.75682" lon="4.63045">
        <ele>655.6</ele>
        <time>2021-09-27T14:20:37.000Z</time>
      </trkpt>
      <trkpt lat="45.75672" lon="4.63042">
        <ele>655</ele>
        <time>2021-09-27T14:20:39.000Z</time>
      </trkpt>
      <trkpt lat="45.75667" lon="4.63037">
        <ele>655</ele>
        <time>2021-09-27T14:20:40.000Z</time>
      </trkpt>
      <trkpt lat="45.75662" lon="4.63033">
        <ele>654.8</ele>
        <time>2021-09-27T14:20:41.000Z</time>
      </trkpt>
      <trkpt lat="45.75654" lon="4.63028">
        <ele>654.4</ele>
        <time>2021-09-27T14:20:42.000Z</time>
      </trkpt>
      <trkpt lat="45.75648" lon="4.63026">
        <ele>653.2</ele>
        <time>2021-09-27T14:20:43.000Z</time>
      </trkpt>
      <trkpt lat="45.75643" lon="4.63024">
        <ele>652</ele>
        <time>2021-09-27T14:20:44.000Z</time>
      </trkpt>
      <trkpt lat="45.75642" lon="4.63023">
        <ele>652</ele>
        <time>2021-09-27T14:20:45.000Z</time>
      </trkpt>
      <trkpt lat="45.75641" lon="4.63023">
        <ele>650</ele>
        <time>2021-09-27T14:20:46.000Z</time>
      </trkpt>
      <trkpt lat="45.75643" lon="4.63028">
        <ele>645</ele>
        <time>2021-09-27T14:21:00.000Z</time>
      </trkpt>
      <trkpt lat="45.75645" lon="4.6303">
        <ele>645</ele>
        <time>2021-09-27T14:21:01.000Z</time>
      </trkpt>
      <trkpt lat="45.75646" lon="4.63032">
        <ele>645</ele>
        <time>2021-09-27T14:21:02.000Z</time>
      </trkpt>
      <trkpt lat="45.7565" lon="4.63038">
        <ele>644.8</ele>
        <time>2021-09-27T14:21:04.000Z</time>
      </trkpt>
      <trkpt lat="45.75652" lon="4.63041">
        <ele>644.6</ele>
        <time>2021-09-27T14:21:05.000Z</time>
      </trkpt>
      <trkpt lat="45.75653" lon="4.63043">
        <ele>644.2</ele>
        <time>2021-09-27T14:21:06.000Z</time>
      </trkpt>
      <trkpt lat="45.75655" lon="4.63046">
        <ele>643.8</ele>
        <time>2021-09-27T14:21:07.000Z</time>
      </trkpt>
      <trkpt lat="45.75656" lon="4.63046">
        <ele>643.8</ele>
        <time>2021-09-27T14:21:08.000Z</time>
      </trkpt>
      <trkpt lat="45.75656" lon="4.63048">
        <ele>643.4</ele>
        <time>2021-09-27T14:21:09.000Z</time>
      </trkpt>
      <trkpt lat="45.75658" lon="4.63049">
        <ele>642.8</ele>
        <time>2021-09-27T14:21:10.000Z</time>
      </trkpt>
      <trkpt lat="45.75659" lon="4.6305">
        <ele>642.2</ele>
        <time>2021-09-27T14:21:11.000Z</time>
      </trkpt>
      <trkpt lat="45.75658" lon="4.63053">
        <ele>641.4</ele>
        <time>2021-09-27T14:21:12.000Z</time>
      </trkpt>
      <trkpt lat="45.75657" lon="4.63054">
        <ele>640.8</ele>
        <time>2021-09-27T14:21:13.000Z</time>
      </trkpt>
      <trkpt lat="45.75655" lon="4.63054">
        <ele>640</ele>
        <time>2021-09-27T14:21:14.000Z</time>
      </trkpt>
      <trkpt lat="45.75653" lon="4.63053">
        <ele>639.2</ele>
        <time>2021-09-27T14:21:15.000Z</time>
      </trkpt>
      <trkpt lat="45.75648" lon="4.63053">
        <ele>638.2</ele>
        <time>2021-09-27T14:21:17.000Z</time>
      </trkpt>
      <trkpt lat="45.75643" lon="4.63054">
        <ele>637.8</ele>
        <time>2021-09-27T14:21:18.000Z</time>
      </trkpt>
      <trkpt lat="45.75639" lon="4.63054">
        <ele>636.8</ele>
        <time>2021-09-27T14:21:19.000Z</time>
      </trkpt>
      <trkpt lat="45.75635" lon="4.63055">
        <ele>636.4</ele>
        <time>2021-09-27T14:21:20.000Z</time>
      </trkpt>
      <trkpt lat="45.75626" lon="4.6306">
        <ele>635.8</ele>
        <time>2021-09-27T14:21:22.000Z</time>
      </trkpt>
      <trkpt lat="45.75623" lon="4.63066">
        <ele>635.6</ele>
        <time>2021-09-27T14:21:23.000Z</time>
      </trkpt>
      <trkpt lat="45.75619" lon="4.63071">
        <ele>635.4</ele>
        <time>2021-09-27T14:21:24.000Z</time>
      </trkpt>
      <trkpt lat="45.75616" lon="4.63075">
        <ele>635</ele>
        <time>2021-09-27T14:21:25.000Z</time>
      </trkpt>
      <trkpt lat="45.75611" lon="4.63086">
        <ele>634.4</ele>
        <time>2021-09-27T14:21:27.000Z</time>
      </trkpt>
      <trkpt lat="45.75612" lon="4.63095">
        <ele>634</ele>
        <time>2021-09-27T14:21:28.000Z</time>
      </trkpt>
      <trkpt lat="45.75611" lon="4.63102">
        <ele>633.8</ele>
        <time>2021-09-27T14:21:29.000Z</time>
      </trkpt>
      <trkpt lat="45.7561" lon="4.63111">
        <ele>633.4</ele>
        <time>2021-09-27T14:21:30.000Z</time>
      </trkpt>
      <trkpt lat="45.75608" lon="4.6313">
        <ele>633</ele>
        <time>2021-09-27T14:21:32.000Z</time>
      </trkpt>
      <trkpt lat="45.75605" lon="4.6316">
        <ele>631.6</ele>
        <time>2021-09-27T14:21:35.000Z</time>
      </trkpt>
      <trkpt lat="45.75603" lon="4.63171">
        <ele>631</ele>
        <time>2021-09-27T14:21:36.000Z</time>
      </trkpt>
      <trkpt lat="45.756" lon="4.6318">
        <ele>630.4</ele>
        <time>2021-09-27T14:21:37.000Z</time>
      </trkpt>
      <trkpt lat="45.75596" lon="4.63189">
        <ele>629.6</ele>
        <time>2021-09-27T14:21:38.000Z</time>
      </trkpt>
      <trkpt lat="45.75591" lon="4.63197">
        <ele>629</ele>
        <time>2021-09-27T14:21:39.000Z</time>
      </trkpt>
      <trkpt lat="45.75589" lon="4.63202">
        <ele>628.6</ele>
        <time>2021-09-27T14:21:40.000Z</time>
      </trkpt>
      <trkpt lat="45.75587" lon="4.63206">
        <ele>628.2</ele>
        <time>2021-09-27T14:21:41.000Z</time>
      </trkpt>
      <trkpt lat="45.75586" lon="4.6321">
        <ele>628</ele>
        <time>2021-09-27T14:21:42.000Z</time>
      </trkpt>
      <trkpt lat="45.75585" lon="4.63212">
        <ele>628</ele>
        <time>2021-09-27T14:21:43.000Z</time>
      </trkpt>
      <trkpt lat="45.75584" lon="4.63215">
        <ele>628</ele>
        <time>2021-09-27T14:21:44.000Z</time>
      </trkpt>
      <trkpt lat="45.75583" lon="4.63216">
        <ele>628</ele>
        <time>2021-09-27T14:21:45.000Z</time>
      </trkpt>
      <trkpt lat="45.75583" lon="4.63219">
        <ele>628</ele>
        <time>2021-09-27T14:21:46.000Z</time>
      </trkpt>
      <trkpt lat="45.75581" lon="4.63225">
        <ele>628</ele>
        <time>2021-09-27T14:21:49.000Z</time>
      </trkpt>
      <trkpt lat="45.7558" lon="4.63226">
        <ele>628.4</ele>
        <time>2021-09-27T14:21:50.000Z</time>
      </trkpt>
      <trkpt lat="45.75579" lon="4.63228">
        <ele>628.6</ele>
        <time>2021-09-27T14:21:51.000Z</time>
      </trkpt>
      <trkpt lat="45.75578" lon="4.63229">
        <ele>629</ele>
        <time>2021-09-27T14:21:52.000Z</time>
      </trkpt>
      <trkpt lat="45.75577" lon="4.63231">
        <ele>629.4</ele>
        <time>2021-09-27T14:21:53.000Z</time>
      </trkpt>
      <trkpt lat="45.75576" lon="4.63234">
        <ele>629.4</ele>
        <time>2021-09-27T14:21:54.000Z</time>
      </trkpt>
      <trkpt lat="45.75576" lon="4.63235">
        <ele>629.6</ele>
        <time>2021-09-27T14:21:55.000Z</time>
      </trkpt>
      <trkpt lat="45.75575" lon="4.63238">
        <ele>629.8</ele>
        <time>2021-09-27T14:21:56.000Z</time>
      </trkpt>
      <trkpt lat="45.75573" lon="4.63243">
        <ele>630.2</ele>
        <time>2021-09-27T14:21:58.000Z</time>
      </trkpt>
      <trkpt lat="45.75572" lon="4.63244">
        <ele>630.4</ele>
        <time>2021-09-27T14:21:59.000Z</time>
      </trkpt>
      <trkpt lat="45.7557" lon="4.6325">
        <ele>631</ele>
        <time>2021-09-27T14:22:02.000Z</time>
      </trkpt>
      <trkpt lat="45.75569" lon="4.63252">
        <ele>631.2</ele>
        <time>2021-09-27T14:22:03.000Z</time>
      </trkpt>
      <trkpt lat="45.75568" lon="4.63253">
        <ele>631.4</ele>
        <time>2021-09-27T14:22:04.000Z</time>
      </trkpt>
      <trkpt lat="45.75568" lon="4.63255">
        <ele>631.2</ele>
        <time>2021-09-27T14:22:05.000Z</time>
      </trkpt>
      <trkpt lat="45.75566" lon="4.63258">
        <ele>631.4</ele>
        <time>2021-09-27T14:22:06.000Z</time>
      </trkpt>
      <trkpt lat="45.75565" lon="4.6326">
        <ele>631.4</ele>
        <time>2021-09-27T14:22:07.000Z</time>
      </trkpt>
      <trkpt lat="45.75565" lon="4.63262">
        <ele>631.6</ele>
        <time>2021-09-27T14:22:08.000Z</time>
      </trkpt>
      <trkpt lat="45.75564" lon="4.63264">
        <ele>631.8</ele>
        <time>2021-09-27T14:22:09.000Z</time>
      </trkpt>
      <trkpt lat="45.75564" lon="4.63266">
        <ele>632</ele>
        <time>2021-09-27T14:22:10.000Z</time>
      </trkpt>
      <trkpt lat="45.75563" lon="4.63269">
        <ele>632.2</ele>
        <time>2021-09-27T14:22:11.000Z</time>
      </trkpt>
      <trkpt lat="45.75563" lon="4.63271">
        <ele>632.4</ele>
        <time>2021-09-27T14:22:12.000Z</time>
      </trkpt>
      <trkpt lat="45.75562" lon="4.63274">
        <ele>632.6</ele>
        <time>2021-09-27T14:22:13.000Z</time>
      </trkpt>
      <trkpt lat="45.75561" lon="4.63277">
        <ele>632.8</ele>
        <time>2021-09-27T14:22:14.000Z</time>
      </trkpt>
      <trkpt lat="45.75561" lon="4.63279">
        <ele>633</ele>
        <time>2021-09-27T14:22:15.000Z</time>
      </trkpt>
      <trkpt lat="45.75561" lon="4.63282">
        <ele>633.2</ele>
        <time>2021-09-27T14:22:16.000Z</time>
      </trkpt>
      <trkpt lat="45.7556" lon="4.63285">
        <ele>633.2</ele>
        <time>2021-09-27T14:22:17.000Z</time>
      </trkpt>
      <trkpt lat="45.75559" lon="4.63288">
        <ele>633.2</ele>
        <time>2021-09-27T14:22:18.000Z</time>
      </trkpt>
      <trkpt lat="45.75559" lon="4.63291">
        <ele>633.4</ele>
        <time>2021-09-27T14:22:19.000Z</time>
      </trkpt>
      <trkpt lat="45.75558" lon="4.63294">
        <ele>633.4</ele>
        <time>2021-09-27T14:22:20.000Z</time>
      </trkpt>
      <trkpt lat="45.75557" lon="4.63297">
        <ele>633.8</ele>
        <time>2021-09-27T14:22:21.000Z</time>
      </trkpt>
      <trkpt lat="45.75557" lon="4.633">
        <ele>633.8</ele>
        <time>2021-09-27T14:22:22.000Z</time>
      </trkpt>
      <trkpt lat="45.75557" lon="4.63302">
        <ele>634</ele>
        <time>2021-09-27T14:22:23.000Z</time>
      </trkpt>
      <trkpt lat="45.75557" lon="4.63306">
        <ele>634.2</ele>
        <time>2021-09-27T14:22:24.000Z</time>
      </trkpt>
      <trkpt lat="45.75556" lon="4.63309">
        <ele>634.4</ele>
        <time>2021-09-27T14:22:25.000Z</time>
      </trkpt>
      <trkpt lat="45.75557" lon="4.63312">
        <ele>634.6</ele>
        <time>2021-09-27T14:22:26.000Z</time>
      </trkpt>
      <trkpt lat="45.75556" lon="4.63315">
        <ele>634.8</ele>
        <time>2021-09-27T14:22:27.000Z</time>
      </trkpt>
      <trkpt lat="45.75555" lon="4.63318">
        <ele>635</ele>
        <time>2021-09-27T14:22:28.000Z</time>
      </trkpt>
      <trkpt lat="45.75556" lon="4.63322">
        <ele>635.2</ele>
        <time>2021-09-27T14:22:29.000Z</time>
      </trkpt>
      <trkpt lat="45.75556" lon="4.63324">
        <ele>635.4</ele>
        <time>2021-09-27T14:22:30.000Z</time>
      </trkpt>
      <trkpt lat="45.75557" lon="4.63326">
        <ele>635.6</ele>
        <time>2021-09-27T14:22:31.000Z</time>
      </trkpt>
      <trkpt lat="45.75557" lon="4.63329">
        <ele>635.8</ele>
        <time>2021-09-27T14:22:32.000Z</time>
      </trkpt>
      <trkpt lat="45.75557" lon="4.63331">
        <ele>636</ele>
        <time>2021-09-27T14:22:33.000Z</time>
      </trkpt>
      <trkpt lat="45.75555" lon="4.63333">
        <ele>636.2</ele>
        <time>2021-09-27T14:22:34.000Z</time>
      </trkpt>
      <trkpt lat="45.75555" lon="4.63336">
        <ele>636.4</ele>
        <time>2021-09-27T14:22:35.000Z</time>
      </trkpt>
      <trkpt lat="45.75554" lon="4.63339">
        <ele>636.4</ele>
        <time>2021-09-27T14:22:36.000Z</time>
      </trkpt>
      <trkpt lat="45.75554" lon="4.63341">
        <ele>636.6</ele>
        <time>2021-09-27T14:22:37.000Z</time>
      </trkpt>
      <trkpt lat="45.75553" lon="4.63343">
        <ele>636.8</ele>
        <time>2021-09-27T14:22:38.000Z</time>
      </trkpt>
      <trkpt lat="45.75553" lon="4.63345">
        <ele>637</ele>
        <time>2021-09-27T14:22:39.000Z</time>
      </trkpt>
      <trkpt lat="45.75553" lon="4.63347">
        <ele>637</ele>
        <time>2021-09-27T14:22:40.000Z</time>
      </trkpt>
      <trkpt lat="45.75552" lon="4.6335">
        <ele>637</ele>
        <time>2021-09-27T14:22:41.000Z</time>
      </trkpt>
      <trkpt lat="45.75552" lon="4.63353">
        <ele>637.2</ele>
        <time>2021-09-27T14:22:42.000Z</time>
      </trkpt>
      <trkpt lat="45.75552" lon="4.63356">
        <ele>637.4</ele>
        <time>2021-09-27T14:22:43.000Z</time>
      </trkpt>
      <trkpt lat="45.75552" lon="4.63359">
        <ele>637.4</ele>
        <time>2021-09-27T14:22:44.000Z</time>
      </trkpt>
      <trkpt lat="45.75552" lon="4.63361">
        <ele>637.6</ele>
        <time>2021-09-27T14:22:45.000Z</time>
      </trkpt>
      <trkpt lat="45.75551" lon="4.63363">
        <ele>637.6</ele>
        <time>2021-09-27T14:22:46.000Z</time>
      </trkpt>
      <trkpt lat="45.75551" lon="4.63366">
        <ele>637.6</ele>
        <time>2021-09-27T14:22:47.000Z</time>
      </trkpt>
      <trkpt lat="45.75551" lon="4.63369">
        <ele>637.8</ele>
        <time>2021-09-27T14:22:48.000Z</time>
      </trkpt>
      <trkpt lat="45.75551" lon="4.63372">
        <ele>637.8</ele>
        <time>2021-09-27T14:22:49.000Z</time>
      </trkpt>
      <trkpt lat="45.7555" lon="4.63375">
        <ele>638</ele>
        <time>2021-09-27T14:22:50.000Z</time>
      </trkpt>
      <trkpt lat="45.7555" lon="4.63378">
        <ele>638.2</ele>
        <time>2021-09-27T14:22:51.000Z</time>
      </trkpt>
      <trkpt lat="45.75549" lon="4.63382">
        <ele>638.4</ele>
        <time>2021-09-27T14:22:52.000Z</time>
      </trkpt>
      <trkpt lat="45.75549" lon="4.63385">
        <ele>638.4</ele>
        <time>2021-09-27T14:22:53.000Z</time>
      </trkpt>
      <trkpt lat="45.75548" lon="4.63388">
        <ele>638.6</ele>
        <time>2021-09-27T14:22:54.000Z</time>
      </trkpt>
      <trkpt lat="45.75548" lon="4.63391">
        <ele>638.8</ele>
        <time>2021-09-27T14:22:55.000Z</time>
      </trkpt>
      <trkpt lat="45.75548" lon="4.63394">
        <ele>638.8</ele>
        <time>2021-09-27T14:22:56.000Z</time>
      </trkpt>
      <trkpt lat="45.75548" lon="4.63397">
        <ele>639</ele>
        <time>2021-09-27T14:22:57.000Z</time>
      </trkpt>
      <trkpt lat="45.75548" lon="4.634">
        <ele>639.2</ele>
        <time>2021-09-27T14:22:58.000Z</time>
      </trkpt>
      <trkpt lat="45.75548" lon="4.63403">
        <ele>639.2</ele>
        <time>2021-09-27T14:22:59.000Z</time>
      </trkpt>
      <trkpt lat="45.75547" lon="4.63407">
        <ele>639.4</ele>
        <time>2021-09-27T14:23:00.000Z</time>
      </trkpt>
      <trkpt lat="45.75547" lon="4.6341">
        <ele>639.4</ele>
        <time>2021-09-27T14:23:01.000Z</time>
      </trkpt>
      <trkpt lat="45.75547" lon="4.63414">
        <ele>639.6</ele>
        <time>2021-09-27T14:23:02.000Z</time>
      </trkpt>
      <trkpt lat="45.75547" lon="4.63417">
        <ele>639.8</ele>
        <time>2021-09-27T14:23:03.000Z</time>
      </trkpt>
      <trkpt lat="45.75547" lon="4.63421">
        <ele>639.8</ele>
        <time>2021-09-27T14:23:04.000Z</time>
      </trkpt>
      <trkpt lat="45.75547" lon="4.63425">
        <ele>640</ele>
        <time>2021-09-27T14:23:05.000Z</time>
      </trkpt>
      <trkpt lat="45.75547" lon="4.63428">
        <ele>640</ele>
        <time>2021-09-27T14:23:06.000Z</time>
      </trkpt>
      <trkpt lat="45.75546" lon="4.63432">
        <ele>640.2</ele>
        <time>2021-09-27T14:23:07.000Z</time>
      </trkpt>
      <trkpt lat="45.75546" lon="4.63436">
        <ele>640.2</ele>
        <time>2021-09-27T14:23:08.000Z</time>
      </trkpt>
      <trkpt lat="45.75546" lon="4.63439">
        <ele>640.4</ele>
        <time>2021-09-27T14:23:09.000Z</time>
      </trkpt>
      <trkpt lat="45.75546" lon="4.63442">
        <ele>640.4</ele>
        <time>2021-09-27T14:23:10.000Z</time>
      </trkpt>
      <trkpt lat="45.75546" lon="4.63445">
        <ele>640.6</ele>
        <time>2021-09-27T14:23:11.000Z</time>
      </trkpt>
      <trkpt lat="45.75546" lon="4.63449">
        <ele>640.8</ele>
        <time>2021-09-27T14:23:12.000Z</time>
      </trkpt>
      <trkpt lat="45.75546" lon="4.63453">
        <ele>641</ele>
        <time>2021-09-27T14:23:13.000Z</time>
      </trkpt>
      <trkpt lat="45.75545" lon="4.63456">
        <ele>641</ele>
        <time>2021-09-27T14:23:14.000Z</time>
      </trkpt>
      <trkpt lat="45.75544" lon="4.6346">
        <ele>641.2</ele>
        <time>2021-09-27T14:23:15.000Z</time>
      </trkpt>
      <trkpt lat="45.75544" lon="4.63464">
        <ele>641.4</ele>
        <time>2021-09-27T14:23:16.000Z</time>
      </trkpt>
      <trkpt lat="45.75545" lon="4.63468">
        <ele>641.4</ele>
        <time>2021-09-27T14:23:17.000Z</time>
      </trkpt>
      <trkpt lat="45.75544" lon="4.63471">
        <ele>641.6</ele>
        <time>2021-09-27T14:23:18.000Z</time>
      </trkpt>
      <trkpt lat="45.75544" lon="4.63475">
        <ele>641.6</ele>
        <time>2021-09-27T14:23:19.000Z</time>
      </trkpt>
      <trkpt lat="45.75544" lon="4.63479">
        <ele>641.8</ele>
        <time>2021-09-27T14:23:20.000Z</time>
      </trkpt>
      <trkpt lat="45.75544" lon="4.63483">
        <ele>641.8</ele>
        <time>2021-09-27T14:23:21.000Z</time>
      </trkpt>
      <trkpt lat="45.75543" lon="4.63487">
        <ele>642</ele>
        <time>2021-09-27T14:23:22.000Z</time>
      </trkpt>
      <trkpt lat="45.75543" lon="4.6349">
        <ele>642.2</ele>
        <time>2021-09-27T14:23:23.000Z</time>
      </trkpt>
      <trkpt lat="45.75543" lon="4.63493">
        <ele>642.4</ele>
        <time>2021-09-27T14:23:24.000Z</time>
      </trkpt>
      <trkpt lat="45.75543" lon="4.63497">
        <ele>642.4</ele>
        <time>2021-09-27T14:23:25.000Z</time>
      </trkpt>
      <trkpt lat="45.75542" lon="4.63501">
        <ele>642.6</ele>
        <time>2021-09-27T14:23:26.000Z</time>
      </trkpt>
      <trkpt lat="45.75542" lon="4.63505">
        <ele>642.6</ele>
        <time>2021-09-27T14:23:27.000Z</time>
      </trkpt>
      <trkpt lat="45.75542" lon="4.63508">
        <ele>642.6</ele>
        <time>2021-09-27T14:23:28.000Z</time>
      </trkpt>
      <trkpt lat="45.75542" lon="4.63511">
        <ele>642.8</ele>
        <time>2021-09-27T14:23:29.000Z</time>
      </trkpt>
      <trkpt lat="45.75542" lon="4.63514">
        <ele>642.8</ele>
        <time>2021-09-27T14:23:30.000Z</time>
      </trkpt>
      <trkpt lat="45.75542" lon="4.63516">
        <ele>643</ele>
        <time>2021-09-27T14:23:31.000Z</time>
      </trkpt>
      <trkpt lat="45.75541" lon="4.6352">
        <ele>643</ele>
        <time>2021-09-27T14:23:32.000Z</time>
      </trkpt>
      <trkpt lat="45.75541" lon="4.63522">
        <ele>643.2</ele>
        <time>2021-09-27T14:23:33.000Z</time>
      </trkpt>
      <trkpt lat="45.7554" lon="4.63525">
        <ele>643.4</ele>
        <time>2021-09-27T14:23:34.000Z</time>
      </trkpt>
      <trkpt lat="45.7554" lon="4.63529">
        <ele>643.4</ele>
        <time>2021-09-27T14:23:35.000Z</time>
      </trkpt>
      <trkpt lat="45.7554" lon="4.63532">
        <ele>643.4</ele>
        <time>2021-09-27T14:23:36.000Z</time>
      </trkpt>
      <trkpt lat="45.75539" lon="4.63535">
        <ele>643.6</ele>
        <time>2021-09-27T14:23:37.000Z</time>
      </trkpt>
      <trkpt lat="45.75539" lon="4.63538">
        <ele>643.8</ele>
        <time>2021-09-27T14:23:38.000Z</time>
      </trkpt>
      <trkpt lat="45.75538" lon="4.6354">
        <ele>644</ele>
        <time>2021-09-27T14:23:39.000Z</time>
      </trkpt>
      <trkpt lat="45.75537" lon="4.63544">
        <ele>644.2</ele>
        <time>2021-09-27T14:23:40.000Z</time>
      </trkpt>
      <trkpt lat="45.75537" lon="4.63546">
        <ele>644.4</ele>
        <time>2021-09-27T14:23:41.000Z</time>
      </trkpt>
      <trkpt lat="45.75536" lon="4.63549">
        <ele>644.6</ele>
        <time>2021-09-27T14:23:42.000Z</time>
      </trkpt>
      <trkpt lat="45.75536" lon="4.63553">
        <ele>644.8</ele>
        <time>2021-09-27T14:23:43.000Z</time>
      </trkpt>
      <trkpt lat="45.75535" lon="4.63555">
        <ele>644.8</ele>
        <time>2021-09-27T14:23:44.000Z</time>
      </trkpt>
      <trkpt lat="45.75535" lon="4.63558">
        <ele>645</ele>
        <time>2021-09-27T14:23:45.000Z</time>
      </trkpt>
      <trkpt lat="45.75533" lon="4.63561">
        <ele>645.2</ele>
        <time>2021-09-27T14:23:46.000Z</time>
      </trkpt>
      <trkpt lat="45.75532" lon="4.63564">
        <ele>645.4</ele>
        <time>2021-09-27T14:23:47.000Z</time>
      </trkpt>
      <trkpt lat="45.75531" lon="4.63566">
        <ele>645.6</ele>
        <time>2021-09-27T14:23:48.000Z</time>
      </trkpt>
      <trkpt lat="45.7553" lon="4.63569">
        <ele>645.8</ele>
        <time>2021-09-27T14:23:49.000Z</time>
      </trkpt>
      <trkpt lat="45.75529" lon="4.63571">
        <ele>645.8</ele>
        <time>2021-09-27T14:23:50.000Z</time>
      </trkpt>
      <trkpt lat="45.75527" lon="4.63573">
        <ele>646</ele>
        <time>2021-09-27T14:23:51.000Z</time>
      </trkpt>
      <trkpt lat="45.75526" lon="4.63575">
        <ele>646</ele>
        <time>2021-09-27T14:23:52.000Z</time>
      </trkpt>
      <trkpt lat="45.75523" lon="4.63577">
        <ele>646.4</ele>
        <time>2021-09-27T14:23:53.000Z</time>
      </trkpt>
      <trkpt lat="45.75522" lon="4.63579">
        <ele>646.6</ele>
        <time>2021-09-27T14:23:54.000Z</time>
      </trkpt>
      <trkpt lat="45.75521" lon="4.63581">
        <ele>646.8</ele>
        <time>2021-09-27T14:23:55.000Z</time>
      </trkpt>
      <trkpt lat="45.75519" lon="4.63584">
        <ele>647</ele>
        <time>2021-09-27T14:23:56.000Z</time>
      </trkpt>
      <trkpt lat="45.75517" lon="4.63586">
        <ele>647.2</ele>
        <time>2021-09-27T14:23:57.000Z</time>
      </trkpt>
      <trkpt lat="45.75515" lon="4.63589">
        <ele>647.4</ele>
        <time>2021-09-27T14:23:58.000Z</time>
      </trkpt>
      <trkpt lat="45.75513" lon="4.63591">
        <ele>647.8</ele>
        <time>2021-09-27T14:23:59.000Z</time>
      </trkpt>
      <trkpt lat="45.75511" lon="4.63593">
        <ele>648</ele>
        <time>2021-09-27T14:24:00.000Z</time>
      </trkpt>
      <trkpt lat="45.75509" lon="4.63595">
        <ele>648</ele>
        <time>2021-09-27T14:24:01.000Z</time>
      </trkpt>
      <trkpt lat="45.75508" lon="4.63596">
        <ele>648.4</ele>
        <time>2021-09-27T14:24:02.000Z</time>
      </trkpt>
      <trkpt lat="45.75506" lon="4.63597">
        <ele>648.6</ele>
        <time>2021-09-27T14:24:03.000Z</time>
      </trkpt>
      <trkpt lat="45.75504" lon="4.63599">
        <ele>648.8</ele>
        <time>2021-09-27T14:24:04.000Z</time>
      </trkpt>
      <trkpt lat="45.75502" lon="4.63599">
        <ele>649</ele>
        <time>2021-09-27T14:24:05.000Z</time>
      </trkpt>
      <trkpt lat="45.755" lon="4.636">
        <ele>649.2</ele>
        <time>2021-09-27T14:24:06.000Z</time>
      </trkpt>
      <trkpt lat="45.75498" lon="4.63601">
        <ele>649.4</ele>
        <time>2021-09-27T14:24:07.000Z</time>
      </trkpt>
      <trkpt lat="45.75496" lon="4.63601">
        <ele>649.6</ele>
        <time>2021-09-27T14:24:08.000Z</time>
      </trkpt>
      <trkpt lat="45.75494" lon="4.63602">
        <ele>649.8</ele>
        <time>2021-09-27T14:24:09.000Z</time>
      </trkpt>
      <trkpt lat="45.75492" lon="4.63603">
        <ele>650.2</ele>
        <time>2021-09-27T14:24:10.000Z</time>
      </trkpt>
      <trkpt lat="45.7549" lon="4.63603">
        <ele>650.4</ele>
        <time>2021-09-27T14:24:11.000Z</time>
      </trkpt>
      <trkpt lat="45.75489" lon="4.63604">
        <ele>650.6</ele>
        <time>2021-09-27T14:24:12.000Z</time>
      </trkpt>
      <trkpt lat="45.75487" lon="4.63604">
        <ele>650.6</ele>
        <time>2021-09-27T14:24:13.000Z</time>
      </trkpt>
      <trkpt lat="45.75485" lon="4.63605">
        <ele>650.8</ele>
        <time>2021-09-27T14:24:14.000Z</time>
      </trkpt>
      <trkpt lat="45.75483" lon="4.63605">
        <ele>651</ele>
        <time>2021-09-27T14:24:15.000Z</time>
      </trkpt>
      <trkpt lat="45.75481" lon="4.63606">
        <ele>651.2</ele>
        <time>2021-09-27T14:24:16.000Z</time>
      </trkpt>
      <trkpt lat="45.7548" lon="4.63606">
        <ele>651.4</ele>
        <time>2021-09-27T14:24:17.000Z</time>
      </trkpt>
      <trkpt lat="45.75478" lon="4.63606">
        <ele>651.6</ele>
        <time>2021-09-27T14:24:18.000Z</time>
      </trkpt>
      <trkpt lat="45.75476" lon="4.63606">
        <ele>651.8</ele>
        <time>2021-09-27T14:24:19.000Z</time>
      </trkpt>
      <trkpt lat="45.75475" lon="4.63606">
        <ele>652.2</ele>
        <time>2021-09-27T14:24:20.000Z</time>
      </trkpt>
      <trkpt lat="45.75473" lon="4.63607">
        <ele>652.4</ele>
        <time>2021-09-27T14:24:21.000Z</time>
      </trkpt>
      <trkpt lat="45.75471" lon="4.63607">
        <ele>652.6</ele>
        <time>2021-09-27T14:24:22.000Z</time>
      </trkpt>
      <trkpt lat="45.75469" lon="4.63607">
        <ele>652.8</ele>
        <time>2021-09-27T14:24:23.000Z</time>
      </trkpt>
      <trkpt lat="45.75468" lon="4.63607">
        <ele>653</ele>
        <time>2021-09-27T14:24:24.000Z</time>
      </trkpt>
      <trkpt lat="45.75466" lon="4.63607">
        <ele>653.4</ele>
        <time>2021-09-27T14:24:25.000Z</time>
      </trkpt>
      <trkpt lat="45.75464" lon="4.63607">
        <ele>653.6</ele>
        <time>2021-09-27T14:24:26.000Z</time>
      </trkpt>
      <trkpt lat="45.75463" lon="4.63606">
        <ele>653.8</ele>
        <time>2021-09-27T14:24:27.000Z</time>
      </trkpt>
      <trkpt lat="45.75461" lon="4.63606">
        <ele>654.2</ele>
        <time>2021-09-27T14:24:28.000Z</time>
      </trkpt>
      <trkpt lat="45.75459" lon="4.63606">
        <ele>654.4</ele>
        <time>2021-09-27T14:24:29.000Z</time>
      </trkpt>
      <trkpt lat="45.75457" lon="4.63607">
        <ele>654.6</ele>
        <time>2021-09-27T14:24:30.000Z</time>
      </trkpt>
      <trkpt lat="45.75455" lon="4.63606">
        <ele>654.8</ele>
        <time>2021-09-27T14:24:31.000Z</time>
      </trkpt>
      <trkpt lat="45.75453" lon="4.63606">
        <ele>655</ele>
        <time>2021-09-27T14:24:32.000Z</time>
      </trkpt>
      <trkpt lat="45.75451" lon="4.63607">
        <ele>655.4</ele>
        <time>2021-09-27T14:24:33.000Z</time>
      </trkpt>
      <trkpt lat="45.75448" lon="4.63607">
        <ele>655.6</ele>
        <time>2021-09-27T14:24:34.000Z</time>
      </trkpt>
      <trkpt lat="45.75446" lon="4.63607">
        <ele>655.8</ele>
        <time>2021-09-27T14:24:35.000Z</time>
      </trkpt>
      <trkpt lat="45.75444" lon="4.63607">
        <ele>656</ele>
        <time>2021-09-27T14:24:36.000Z</time>
      </trkpt>
      <trkpt lat="45.75441" lon="4.63608">
        <ele>656</ele>
        <time>2021-09-27T14:24:37.000Z</time>
      </trkpt>
      <trkpt lat="45.75438" lon="4.63608">
        <ele>656</ele>
        <time>2021-09-27T14:24:38.000Z</time>
      </trkpt>
      <trkpt lat="45.75436" lon="4.63607">
        <ele>656</ele>
        <time>2021-09-27T14:24:39.000Z</time>
      </trkpt>
      <trkpt lat="45.75433" lon="4.63608">
        <ele>656</ele>
        <time>2021-09-27T14:24:40.000Z</time>
      </trkpt>
      <trkpt lat="45.7543" lon="4.63608">
        <ele>656.2</ele>
        <time>2021-09-27T14:24:41.000Z</time>
      </trkpt>
      <trkpt lat="45.75427" lon="4.63608">
        <ele>656.2</ele>
        <time>2021-09-27T14:24:42.000Z</time>
      </trkpt>
      <trkpt lat="45.75424" lon="4.6361">
        <ele>656.2</ele>
        <time>2021-09-27T14:24:43.000Z</time>
      </trkpt>
      <trkpt lat="45.75421" lon="4.63611">
        <ele>656.2</ele>
        <time>2021-09-27T14:24:44.000Z</time>
      </trkpt>
      <trkpt lat="45.75418" lon="4.63612">
        <ele>656.2</ele>
        <time>2021-09-27T14:24:45.000Z</time>
      </trkpt>
      <trkpt lat="45.75416" lon="4.63613">
        <ele>656.2</ele>
        <time>2021-09-27T14:24:46.000Z</time>
      </trkpt>
      <trkpt lat="45.75412" lon="4.63615">
        <ele>655.6</ele>
        <time>2021-09-27T14:25:09.000Z</time>
      </trkpt>
      <trkpt lat="45.75408" lon="4.63618">
        <ele>655.6</ele>
        <time>2021-09-27T14:25:11.000Z</time>
      </trkpt>
      <trkpt lat="45.75402" lon="4.6362">
        <ele>655.6</ele>
        <time>2021-09-27T14:25:13.000Z</time>
      </trkpt>
      <trkpt lat="45.75397" lon="4.63623">
        <ele>655.4</ele>
        <time>2021-09-27T14:25:15.000Z</time>
      </trkpt>
      <trkpt lat="45.75394" lon="4.63625">
        <ele>655.4</ele>
        <time>2021-09-27T14:25:16.000Z</time>
      </trkpt>
      <trkpt lat="45.75389" lon="4.63629">
        <ele>655.2</ele>
        <time>2021-09-27T14:25:18.000Z</time>
      </trkpt>
      <trkpt lat="45.75373" lon="4.63643">
        <ele>655</ele>
        <time>2021-09-27T14:25:24.000Z</time>
      </trkpt>
      <trkpt lat="45.75367" lon="4.63647">
        <ele>655</ele>
        <time>2021-09-27T14:25:26.000Z</time>
      </trkpt>
      <trkpt lat="45.75353" lon="4.63659">
        <ele>654.8</ele>
        <time>2021-09-27T14:25:31.000Z</time>
      </trkpt>
      <trkpt lat="45.75319" lon="4.63681">
        <ele>654.6</ele>
        <time>2021-09-27T14:25:41.000Z</time>
      </trkpt>
      <trkpt lat="45.7528" lon="4.63704">
        <ele>653.8</ele>
        <time>2021-09-27T14:25:51.000Z</time>
      </trkpt>
      <trkpt lat="45.75276" lon="4.63704">
        <ele>653.6</ele>
        <time>2021-09-27T14:25:52.000Z</time>
      </trkpt>
      <trkpt lat="45.75272" lon="4.63703">
        <ele>653.4</ele>
        <time>2021-09-27T14:25:53.000Z</time>
      </trkpt>
      <trkpt lat="45.7527" lon="4.637">
        <ele>653.2</ele>
        <time>2021-09-27T14:25:54.000Z</time>
      </trkpt>
      <trkpt lat="45.75269" lon="4.63697">
        <ele>653</ele>
        <time>2021-09-27T14:25:55.000Z</time>
      </trkpt>
      <trkpt lat="45.75269" lon="4.63694">
        <ele>653</ele>
        <time>2021-09-27T14:25:56.000Z</time>
      </trkpt>
      <trkpt lat="45.75269" lon="4.63691">
        <ele>653</ele>
        <time>2021-09-27T14:25:57.000Z</time>
      </trkpt>
      <trkpt lat="45.75269" lon="4.63689">
        <ele>653</ele>
        <time>2021-09-27T14:25:58.000Z</time>
      </trkpt>
      <trkpt lat="45.75269" lon="4.63686">
        <ele>653</ele>
        <time>2021-09-27T14:25:59.000Z</time>
      </trkpt>
      <trkpt lat="45.75269" lon="4.63684">
        <ele>653</ele>
        <time>2021-09-27T14:26:00.000Z</time>
      </trkpt>
      <trkpt lat="45.75269" lon="4.63676">
        <ele>653</ele>
        <time>2021-09-27T14:26:03.000Z</time>
      </trkpt>
      <trkpt lat="45.75268" lon="4.63673">
        <ele>653</ele>
        <time>2021-09-27T14:26:04.000Z</time>
      </trkpt>
      <trkpt lat="45.75268" lon="4.63671">
        <ele>653</ele>
        <time>2021-09-27T14:26:05.000Z</time>
      </trkpt>
      <trkpt lat="45.75267" lon="4.63669">
        <ele>653</ele>
        <time>2021-09-27T14:26:06.000Z</time>
      </trkpt>
      <trkpt lat="45.75267" lon="4.63667">
        <ele>653.2</ele>
        <time>2021-09-27T14:26:07.000Z</time>
      </trkpt>
      <trkpt lat="45.75267" lon="4.63664">
        <ele>653.2</ele>
        <time>2021-09-27T14:26:08.000Z</time>
      </trkpt>
      <trkpt lat="45.75267" lon="4.63657">
        <ele>653.8</ele>
        <time>2021-09-27T14:26:11.000Z</time>
      </trkpt>
      <trkpt lat="45.75267" lon="4.63655">
        <ele>654</ele>
        <time>2021-09-27T14:26:12.000Z</time>
      </trkpt>
      <trkpt lat="45.75266" lon="4.63653">
        <ele>654.2</ele>
        <time>2021-09-27T14:26:13.000Z</time>
      </trkpt>
      <trkpt lat="45.75266" lon="4.63651">
        <ele>654.6</ele>
        <time>2021-09-27T14:26:14.000Z</time>
      </trkpt>
      <trkpt lat="45.75265" lon="4.63649">
        <ele>654.8</ele>
        <time>2021-09-27T14:26:15.000Z</time>
      </trkpt>
      <trkpt lat="45.75265" lon="4.63646">
        <ele>655.2</ele>
        <time>2021-09-27T14:26:16.000Z</time>
      </trkpt>
      <trkpt lat="45.75264" lon="4.63642">
        <ele>655.4</ele>
        <time>2021-09-27T14:26:18.000Z</time>
      </trkpt>
      <trkpt lat="45.75264" lon="4.63639">
        <ele>655.8</ele>
        <time>2021-09-27T14:26:19.000Z</time>
      </trkpt>
      <trkpt lat="45.75264" lon="4.63637">
        <ele>656.2</ele>
        <time>2021-09-27T14:26:20.000Z</time>
      </trkpt>
      <trkpt lat="45.75263" lon="4.6363">
        <ele>657</ele>
        <time>2021-09-27T14:26:23.000Z</time>
      </trkpt>
      <trkpt lat="45.75262" lon="4.63628">
        <ele>657.2</ele>
        <time>2021-09-27T14:26:24.000Z</time>
      </trkpt>
      <trkpt lat="45.75261" lon="4.63625">
        <ele>657.4</ele>
        <time>2021-09-27T14:26:25.000Z</time>
      </trkpt>
      <trkpt lat="45.75261" lon="4.63623">
        <ele>657.6</ele>
        <time>2021-09-27T14:26:26.000Z</time>
      </trkpt>
      <trkpt lat="45.75261" lon="4.6362">
        <ele>657.8</ele>
        <time>2021-09-27T14:26:27.000Z</time>
      </trkpt>
      <trkpt lat="45.75261" lon="4.63617">
        <ele>658</ele>
        <time>2021-09-27T14:26:28.000Z</time>
      </trkpt>
      <trkpt lat="45.7526" lon="4.63614">
        <ele>658.2</ele>
        <time>2021-09-27T14:26:29.000Z</time>
      </trkpt>
      <trkpt lat="45.75259" lon="4.63612">
        <ele>658.4</ele>
        <time>2021-09-27T14:26:30.000Z</time>
      </trkpt>
      <trkpt lat="45.75259" lon="4.63609">
        <ele>658.4</ele>
        <time>2021-09-27T14:26:31.000Z</time>
      </trkpt>
      <trkpt lat="45.75259" lon="4.63607">
        <ele>658.6</ele>
        <time>2021-09-27T14:26:32.000Z</time>
      </trkpt>
      <trkpt lat="45.75259" lon="4.63605">
        <ele>658.6</ele>
        <time>2021-09-27T14:26:33.000Z</time>
      </trkpt>
      <trkpt lat="45.75259" lon="4.63602">
        <ele>658.8</ele>
        <time>2021-09-27T14:26:34.000Z</time>
      </trkpt>
      <trkpt lat="45.75258" lon="4.636">
        <ele>659</ele>
        <time>2021-09-27T14:26:35.000Z</time>
      </trkpt>
      <trkpt lat="45.75258" lon="4.63597">
        <ele>659.2</ele>
        <time>2021-09-27T14:26:36.000Z</time>
      </trkpt>
      <trkpt lat="45.75258" lon="4.63595">
        <ele>659.4</ele>
        <time>2021-09-27T14:26:37.000Z</time>
      </trkpt>
      <trkpt lat="45.75258" lon="4.63593">
        <ele>659.4</ele>
        <time>2021-09-27T14:26:38.000Z</time>
      </trkpt>
      <trkpt lat="45.75258" lon="4.63591">
        <ele>659.6</ele>
        <time>2021-09-27T14:26:39.000Z</time>
      </trkpt>
      <trkpt lat="45.75257" lon="4.63589">
        <ele>659.8</ele>
        <time>2021-09-27T14:26:40.000Z</time>
      </trkpt>
      <trkpt lat="45.75257" lon="4.63586">
        <ele>660</ele>
        <time>2021-09-27T14:26:41.000Z</time>
      </trkpt>
      <trkpt lat="45.75257" lon="4.63584">
        <ele>660</ele>
        <time>2021-09-27T14:26:42.000Z</time>
      </trkpt>
      <trkpt lat="45.75256" lon="4.63582">
        <ele>660.2</ele>
        <time>2021-09-27T14:26:43.000Z</time>
      </trkpt>
      <trkpt lat="45.75256" lon="4.63579">
        <ele>660.2</ele>
        <time>2021-09-27T14:26:44.000Z</time>
      </trkpt>
      <trkpt lat="45.75256" lon="4.63576">
        <ele>660.4</ele>
        <time>2021-09-27T14:26:45.000Z</time>
      </trkpt>
      <trkpt lat="45.75255" lon="4.63574">
        <ele>660.6</ele>
        <time>2021-09-27T14:26:46.000Z</time>
      </trkpt>
      <trkpt lat="45.75255" lon="4.63572">
        <ele>660.6</ele>
        <time>2021-09-27T14:26:47.000Z</time>
      </trkpt>
      <trkpt lat="45.75254" lon="4.63571">
        <ele>660.8</ele>
        <time>2021-09-27T14:26:48.000Z</time>
      </trkpt>
      <trkpt lat="45.75254" lon="4.63569">
        <ele>660.8</ele>
        <time>2021-09-27T14:26:49.000Z</time>
      </trkpt>
      <trkpt lat="45.75253" lon="4.63567">
        <ele>661</ele>
        <time>2021-09-27T14:26:50.000Z</time>
      </trkpt>
      <trkpt lat="45.75253" lon="4.63565">
        <ele>661.2</ele>
        <time>2021-09-27T14:26:51.000Z</time>
      </trkpt>
      <trkpt lat="45.75253" lon="4.63563">
        <ele>661.4</ele>
        <time>2021-09-27T14:26:52.000Z</time>
      </trkpt>
      <trkpt lat="45.75252" lon="4.63562">
        <ele>661.6</ele>
        <time>2021-09-27T14:26:53.000Z</time>
      </trkpt>
      <trkpt lat="45.75252" lon="4.6356">
        <ele>661.8</ele>
        <time>2021-09-27T14:26:54.000Z</time>
      </trkpt>
      <trkpt lat="45.75251" lon="4.63557">
        <ele>662</ele>
        <time>2021-09-27T14:26:55.000Z</time>
      </trkpt>
      <trkpt lat="45.75251" lon="4.63555">
        <ele>662.2</ele>
        <time>2021-09-27T14:26:56.000Z</time>
      </trkpt>
      <trkpt lat="45.75251" lon="4.63553">
        <ele>662.2</ele>
        <time>2021-09-27T14:26:57.000Z</time>
      </trkpt>
      <trkpt lat="45.75251" lon="4.63551">
        <ele>662.4</ele>
        <time>2021-09-27T14:26:58.000Z</time>
      </trkpt>
      <trkpt lat="45.75251" lon="4.6355">
        <ele>662.4</ele>
        <time>2021-09-27T14:26:59.000Z</time>
      </trkpt>
      <trkpt lat="45.75251" lon="4.63548">
        <ele>662.6</ele>
        <time>2021-09-27T14:27:00.000Z</time>
      </trkpt>
      <trkpt lat="45.7525" lon="4.63546">
        <ele>662.8</ele>
        <time>2021-09-27T14:27:01.000Z</time>
      </trkpt>
      <trkpt lat="45.7525" lon="4.63543">
        <ele>663</ele>
        <time>2021-09-27T14:27:02.000Z</time>
      </trkpt>
      <trkpt lat="45.7525" lon="4.6354">
        <ele>663.2</ele>
        <time>2021-09-27T14:27:03.000Z</time>
      </trkpt>
      <trkpt lat="45.75249" lon="4.63538">
        <ele>663.6</ele>
        <time>2021-09-27T14:27:04.000Z</time>
      </trkpt>
      <trkpt lat="45.75249" lon="4.63536">
        <ele>663.8</ele>
        <time>2021-09-27T14:27:05.000Z</time>
      </trkpt>
      <trkpt lat="45.75249" lon="4.63534">
        <ele>664.2</ele>
        <time>2021-09-27T14:27:06.000Z</time>
      </trkpt>
      <trkpt lat="45.75249" lon="4.63532">
        <ele>664.4</ele>
        <time>2021-09-27T14:27:07.000Z</time>
      </trkpt>
      <trkpt lat="45.7525" lon="4.6353">
        <ele>664.6</ele>
        <time>2021-09-27T14:27:08.000Z</time>
      </trkpt>
      <trkpt lat="45.7525" lon="4.63528">
        <ele>664.8</ele>
        <time>2021-09-27T14:27:09.000Z</time>
      </trkpt>
      <trkpt lat="45.75249" lon="4.63525">
        <ele>665.2</ele>
        <time>2021-09-27T14:27:10.000Z</time>
      </trkpt>
      <trkpt lat="45.75249" lon="4.63523">
        <ele>665.4</ele>
        <time>2021-09-27T14:27:11.000Z</time>
      </trkpt>
      <trkpt lat="45.75249" lon="4.6352">
        <ele>665.6</ele>
        <time>2021-09-27T14:27:12.000Z</time>
      </trkpt>
      <trkpt lat="45.75249" lon="4.63518">
        <ele>665.8</ele>
        <time>2021-09-27T14:27:13.000Z</time>
      </trkpt>
      <trkpt lat="45.7525" lon="4.63516">
        <ele>666</ele>
        <time>2021-09-27T14:27:14.000Z</time>
      </trkpt>
      <trkpt lat="45.75249" lon="4.63513">
        <ele>666</ele>
        <time>2021-09-27T14:27:15.000Z</time>
      </trkpt>
      <trkpt lat="45.75249" lon="4.6351">
        <ele>666.2</ele>
        <time>2021-09-27T14:27:16.000Z</time>
      </trkpt>
      <trkpt lat="45.75249" lon="4.63508">
        <ele>666.4</ele>
        <time>2021-09-27T14:27:17.000Z</time>
      </trkpt>
      <trkpt lat="45.75248" lon="4.63506">
        <ele>666.8</ele>
        <time>2021-09-27T14:27:18.000Z</time>
      </trkpt>
      <trkpt lat="45.75248" lon="4.63504">
        <ele>667</ele>
        <time>2021-09-27T14:27:19.000Z</time>
      </trkpt>
      <trkpt lat="45.75247" lon="4.63501">
        <ele>667</ele>
        <time>2021-09-27T14:27:20.000Z</time>
      </trkpt>
      <trkpt lat="45.75247" lon="4.63499">
        <ele>667.2</ele>
        <time>2021-09-27T14:27:21.000Z</time>
      </trkpt>
      <trkpt lat="45.75246" lon="4.63497">
        <ele>667.4</ele>
        <time>2021-09-27T14:27:22.000Z</time>
      </trkpt>
      <trkpt lat="45.75246" lon="4.63495">
        <ele>667.6</ele>
        <time>2021-09-27T14:27:23.000Z</time>
      </trkpt>
      <trkpt lat="45.75246" lon="4.63492">
        <ele>667.8</ele>
        <time>2021-09-27T14:27:24.000Z</time>
      </trkpt>
      <trkpt lat="45.75246" lon="4.6349">
        <ele>668.2</ele>
        <time>2021-09-27T14:27:25.000Z</time>
      </trkpt>
      <trkpt lat="45.75246" lon="4.63487">
        <ele>668.4</ele>
        <time>2021-09-27T14:27:26.000Z</time>
      </trkpt>
      <trkpt lat="45.75246" lon="4.63485">
        <ele>668.6</ele>
        <time>2021-09-27T14:27:27.000Z</time>
      </trkpt>
      <trkpt lat="45.75246" lon="4.63483">
        <ele>668.8</ele>
        <time>2021-09-27T14:27:28.000Z</time>
      </trkpt>
      <trkpt lat="45.75245" lon="4.63481">
        <ele>668.8</ele>
        <time>2021-09-27T14:27:29.000Z</time>
      </trkpt>
      <trkpt lat="45.75245" lon="4.63479">
        <ele>669.2</ele>
        <time>2021-09-27T14:27:30.000Z</time>
      </trkpt>
      <trkpt lat="45.75244" lon="4.63476">
        <ele>669.4</ele>
        <time>2021-09-27T14:27:31.000Z</time>
      </trkpt>
      <trkpt lat="45.75244" lon="4.63474">
        <ele>669.6</ele>
        <time>2021-09-27T14:27:32.000Z</time>
      </trkpt>
      <trkpt lat="45.75244" lon="4.63471">
        <ele>669.8</ele>
        <time>2021-09-27T14:27:33.000Z</time>
      </trkpt>
      <trkpt lat="45.75245" lon="4.63469">
        <ele>670</ele>
        <time>2021-09-27T14:27:34.000Z</time>
      </trkpt>
      <trkpt lat="45.75245" lon="4.63467">
        <ele>670.2</ele>
        <time>2021-09-27T14:27:35.000Z</time>
      </trkpt>
      <trkpt lat="45.75245" lon="4.63465">
        <ele>670.4</ele>
        <time>2021-09-27T14:27:36.000Z</time>
      </trkpt>
      <trkpt lat="45.75244" lon="4.63463">
        <ele>670.6</ele>
        <time>2021-09-27T14:27:37.000Z</time>
      </trkpt>
      <trkpt lat="45.75243" lon="4.6346">
        <ele>670.6</ele>
        <time>2021-09-27T14:27:38.000Z</time>
      </trkpt>
      <trkpt lat="45.75243" lon="4.63458">
        <ele>670.8</ele>
        <time>2021-09-27T14:27:39.000Z</time>
      </trkpt>
      <trkpt lat="45.75243" lon="4.63456">
        <ele>671.2</ele>
        <time>2021-09-27T14:27:40.000Z</time>
      </trkpt>
      <trkpt lat="45.75244" lon="4.63453">
        <ele>671.4</ele>
        <time>2021-09-27T14:27:41.000Z</time>
      </trkpt>
      <trkpt lat="45.75244" lon="4.63451">
        <ele>671.6</ele>
        <time>2021-09-27T14:27:42.000Z</time>
      </trkpt>
      <trkpt lat="45.75244" lon="4.63449">
        <ele>671.8</ele>
        <time>2021-09-27T14:27:43.000Z</time>
      </trkpt>
      <trkpt lat="45.75244" lon="4.63446">
        <ele>671.8</ele>
        <time>2021-09-27T14:27:44.000Z</time>
      </trkpt>
      <trkpt lat="45.75243" lon="4.63443">
        <ele>672</ele>
        <time>2021-09-27T14:27:45.000Z</time>
      </trkpt>
      <trkpt lat="45.75243" lon="4.63441">
        <ele>672.2</ele>
        <time>2021-09-27T14:27:46.000Z</time>
      </trkpt>
      <trkpt lat="45.75243" lon="4.63439">
        <ele>672.4</ele>
        <time>2021-09-27T14:27:47.000Z</time>
      </trkpt>
      <trkpt lat="45.75243" lon="4.63437">
        <ele>672.6</ele>
        <time>2021-09-27T14:27:48.000Z</time>
      </trkpt>
      <trkpt lat="45.75243" lon="4.63435">
        <ele>672.8</ele>
        <time>2021-09-27T14:27:49.000Z</time>
      </trkpt>
      <trkpt lat="45.75243" lon="4.63433">
        <ele>673</ele>
        <time>2021-09-27T14:27:50.000Z</time>
      </trkpt>
      <trkpt lat="45.75243" lon="4.63431">
        <ele>673.2</ele>
        <time>2021-09-27T14:27:51.000Z</time>
      </trkpt>
      <trkpt lat="45.75244" lon="4.63429">
        <ele>673.4</ele>
        <time>2021-09-27T14:27:52.000Z</time>
      </trkpt>
      <trkpt lat="45.75244" lon="4.63426">
        <ele>673.8</ele>
        <time>2021-09-27T14:27:53.000Z</time>
      </trkpt>
      <trkpt lat="45.75244" lon="4.63424">
        <ele>674</ele>
        <time>2021-09-27T14:27:54.000Z</time>
      </trkpt>
      <trkpt lat="45.75244" lon="4.63421">
        <ele>674.2</ele>
        <time>2021-09-27T14:27:55.000Z</time>
      </trkpt>
      <trkpt lat="45.75245" lon="4.63419">
        <ele>674.4</ele>
        <time>2021-09-27T14:27:56.000Z</time>
      </trkpt>
      <trkpt lat="45.75245" lon="4.63417">
        <ele>674.6</ele>
        <time>2021-09-27T14:27:57.000Z</time>
      </trkpt>
      <trkpt lat="45.75246" lon="4.63414">
        <ele>674.8</ele>
        <time>2021-09-27T14:27:58.000Z</time>
      </trkpt>
      <trkpt lat="45.75246" lon="4.63412">
        <ele>675</ele>
        <time>2021-09-27T14:27:59.000Z</time>
      </trkpt>
      <trkpt lat="45.75247" lon="4.6341">
        <ele>675.4</ele>
        <time>2021-09-27T14:28:00.000Z</time>
      </trkpt>
      <trkpt lat="45.75248" lon="4.63408">
        <ele>675.6</ele>
        <time>2021-09-27T14:28:01.000Z</time>
      </trkpt>
      <trkpt lat="45.75249" lon="4.63407">
        <ele>675.6</ele>
        <time>2021-09-27T14:28:02.000Z</time>
      </trkpt>
      <trkpt lat="45.7525" lon="4.63404">
        <ele>675.8</ele>
        <time>2021-09-27T14:28:03.000Z</time>
      </trkpt>
      <trkpt lat="45.75251" lon="4.63402">
        <ele>676.2</ele>
        <time>2021-09-27T14:28:04.000Z</time>
      </trkpt>
      <trkpt lat="45.75252" lon="4.634">
        <ele>676.2</ele>
        <time>2021-09-27T14:28:05.000Z</time>
      </trkpt>
      <trkpt lat="45.75253" lon="4.63398">
        <ele>676.4</ele>
        <time>2021-09-27T14:28:06.000Z</time>
      </trkpt>
      <trkpt lat="45.75254" lon="4.63395">
        <ele>676.4</ele>
        <time>2021-09-27T14:28:07.000Z</time>
      </trkpt>
      <trkpt lat="45.75255" lon="4.63393">
        <ele>676.6</ele>
        <time>2021-09-27T14:28:08.000Z</time>
      </trkpt>
      <trkpt lat="45.75257" lon="4.63391">
        <ele>676.8</ele>
        <time>2021-09-27T14:28:09.000Z</time>
      </trkpt>
      <trkpt lat="45.75258" lon="4.63389">
        <ele>676.8</ele>
        <time>2021-09-27T14:28:10.000Z</time>
      </trkpt>
      <trkpt lat="45.75259" lon="4.63387">
        <ele>677</ele>
        <time>2021-09-27T14:28:11.000Z</time>
      </trkpt>
      <trkpt lat="45.7526" lon="4.63385">
        <ele>677.2</ele>
        <time>2021-09-27T14:28:12.000Z</time>
      </trkpt>
      <trkpt lat="45.75262" lon="4.63384">
        <ele>677.2</ele>
        <time>2021-09-27T14:28:13.000Z</time>
      </trkpt>
      <trkpt lat="45.75263" lon="4.63382">
        <ele>677.4</ele>
        <time>2021-09-27T14:28:14.000Z</time>
      </trkpt>
      <trkpt lat="45.75264" lon="4.63379">
        <ele>677.6</ele>
        <time>2021-09-27T14:28:15.000Z</time>
      </trkpt>
      <trkpt lat="45.75265" lon="4.63377">
        <ele>677.6</ele>
        <time>2021-09-27T14:28:16.000Z</time>
      </trkpt>
      <trkpt lat="45.75266" lon="4.63374">
        <ele>677.8</ele>
        <time>2021-09-27T14:28:17.000Z</time>
      </trkpt>
      <trkpt lat="45.75267" lon="4.63372">
        <ele>677.8</ele>
        <time>2021-09-27T14:28:18.000Z</time>
      </trkpt>
      <trkpt lat="45.75268" lon="4.6337">
        <ele>677.8</ele>
        <time>2021-09-27T14:28:19.000Z</time>
      </trkpt>
      <trkpt lat="45.75269" lon="4.63368">
        <ele>677.8</ele>
        <time>2021-09-27T14:28:20.000Z</time>
      </trkpt>
      <trkpt lat="45.75269" lon="4.63365">
        <ele>678</ele>
        <time>2021-09-27T14:28:21.000Z</time>
      </trkpt>
      <trkpt lat="45.7527" lon="4.63363">
        <ele>678</ele>
        <time>2021-09-27T14:28:22.000Z</time>
      </trkpt>
      <trkpt lat="45.75271" lon="4.63361">
        <ele>678.2</ele>
        <time>2021-09-27T14:28:23.000Z</time>
      </trkpt>
      <trkpt lat="45.75272" lon="4.63359">
        <ele>678.4</ele>
        <time>2021-09-27T14:28:24.000Z</time>
      </trkpt>
      <trkpt lat="45.75273" lon="4.63356">
        <ele>678.4</ele>
        <time>2021-09-27T14:28:25.000Z</time>
      </trkpt>
      <trkpt lat="45.75275" lon="4.63354">
        <ele>678.6</ele>
        <time>2021-09-27T14:28:26.000Z</time>
      </trkpt>
      <trkpt lat="45.75276" lon="4.63352">
        <ele>678.6</ele>
        <time>2021-09-27T14:28:27.000Z</time>
      </trkpt>
      <trkpt lat="45.75277" lon="4.6335">
        <ele>678.8</ele>
        <time>2021-09-27T14:28:28.000Z</time>
      </trkpt>
      <trkpt lat="45.75278" lon="4.63347">
        <ele>678.8</ele>
        <time>2021-09-27T14:28:29.000Z</time>
      </trkpt>
      <trkpt lat="45.7528" lon="4.63345">
        <ele>678.8</ele>
        <time>2021-09-27T14:28:30.000Z</time>
      </trkpt>
      <trkpt lat="45.75281" lon="4.63343">
        <ele>679</ele>
        <time>2021-09-27T14:28:31.000Z</time>
      </trkpt>
      <trkpt lat="45.75282" lon="4.63341">
        <ele>679.2</ele>
        <time>2021-09-27T14:28:32.000Z</time>
      </trkpt>
      <trkpt lat="45.75283" lon="4.63338">
        <ele>679.4</ele>
        <time>2021-09-27T14:28:33.000Z</time>
      </trkpt>
      <trkpt lat="45.75285" lon="4.63336">
        <ele>679.6</ele>
        <time>2021-09-27T14:28:34.000Z</time>
      </trkpt>
      <trkpt lat="45.75286" lon="4.63333">
        <ele>679.8</ele>
        <time>2021-09-27T14:28:35.000Z</time>
      </trkpt>
      <trkpt lat="45.75287" lon="4.6333">
        <ele>680</ele>
        <time>2021-09-27T14:28:36.000Z</time>
      </trkpt>
      <trkpt lat="45.75288" lon="4.63327">
        <ele>680.2</ele>
        <time>2021-09-27T14:28:37.000Z</time>
      </trkpt>
      <trkpt lat="45.75289" lon="4.63324">
        <ele>680.2</ele>
        <time>2021-09-27T14:28:38.000Z</time>
      </trkpt>
      <trkpt lat="45.7529" lon="4.63321">
        <ele>680.4</ele>
        <time>2021-09-27T14:28:39.000Z</time>
      </trkpt>
      <trkpt lat="45.75291" lon="4.63318">
        <ele>680.6</ele>
        <time>2021-09-27T14:28:40.000Z</time>
      </trkpt>
      <trkpt lat="45.75292" lon="4.63316">
        <ele>680.6</ele>
        <time>2021-09-27T14:28:41.000Z</time>
      </trkpt>
      <trkpt lat="45.75293" lon="4.63313">
        <ele>680.8</ele>
        <time>2021-09-27T14:28:42.000Z</time>
      </trkpt>
      <trkpt lat="45.75295" lon="4.6331">
        <ele>680.8</ele>
        <time>2021-09-27T14:28:43.000Z</time>
      </trkpt>
      <trkpt lat="45.75296" lon="4.63307">
        <ele>681</ele>
        <time>2021-09-27T14:28:44.000Z</time>
      </trkpt>
      <trkpt lat="45.75298" lon="4.63305">
        <ele>681</ele>
        <time>2021-09-27T14:28:45.000Z</time>
      </trkpt>
      <trkpt lat="45.75299" lon="4.63302">
        <ele>681</ele>
        <time>2021-09-27T14:28:46.000Z</time>
      </trkpt>
      <trkpt lat="45.75301" lon="4.63299">
        <ele>681</ele>
        <time>2021-09-27T14:28:47.000Z</time>
      </trkpt>
      <trkpt lat="45.75302" lon="4.63296">
        <ele>681.2</ele>
        <time>2021-09-27T14:28:48.000Z</time>
      </trkpt>
      <trkpt lat="45.75304" lon="4.63294">
        <ele>681.2</ele>
        <time>2021-09-27T14:28:49.000Z</time>
      </trkpt>
      <trkpt lat="45.75305" lon="4.63291">
        <ele>681.4</ele>
        <time>2021-09-27T14:28:50.000Z</time>
      </trkpt>
      <trkpt lat="45.75306" lon="4.63287">
        <ele>681.4</ele>
        <time>2021-09-27T14:28:51.000Z</time>
      </trkpt>
      <trkpt lat="45.75308" lon="4.63285">
        <ele>681.4</ele>
        <time>2021-09-27T14:28:52.000Z</time>
      </trkpt>
      <trkpt lat="45.75309" lon="4.63282">
        <ele>681.6</ele>
        <time>2021-09-27T14:28:53.000Z</time>
      </trkpt>
      <trkpt lat="45.75311" lon="4.63279">
        <ele>681.6</ele>
        <time>2021-09-27T14:28:54.000Z</time>
      </trkpt>
      <trkpt lat="45.75312" lon="4.63276">
        <ele>681.6</ele>
        <time>2021-09-27T14:28:55.000Z</time>
      </trkpt>
      <trkpt lat="45.75314" lon="4.63274">
        <ele>681.8</ele>
        <time>2021-09-27T14:28:56.000Z</time>
      </trkpt>
      <trkpt lat="45.75315" lon="4.63271">
        <ele>681.8</ele>
        <time>2021-09-27T14:28:57.000Z</time>
      </trkpt>
      <trkpt lat="45.75316" lon="4.63268">
        <ele>681.8</ele>
        <time>2021-09-27T14:28:58.000Z</time>
      </trkpt>
      <trkpt lat="45.75317" lon="4.63266">
        <ele>682</ele>
        <time>2021-09-27T14:28:59.000Z</time>
      </trkpt>
      <trkpt lat="45.75318" lon="4.63264">
        <ele>682.2</ele>
        <time>2021-09-27T14:29:00.000Z</time>
      </trkpt>
      <trkpt lat="45.75319" lon="4.63262">
        <ele>682.4</ele>
        <time>2021-09-27T14:29:01.000Z</time>
      </trkpt>
      <trkpt lat="45.75321" lon="4.63259">
        <ele>682.6</ele>
        <time>2021-09-27T14:29:02.000Z</time>
      </trkpt>
      <trkpt lat="45.75322" lon="4.63257">
        <ele>682.6</ele>
        <time>2021-09-27T14:29:03.000Z</time>
      </trkpt>
      <trkpt lat="45.75323" lon="4.63255">
        <ele>682.6</ele>
        <time>2021-09-27T14:29:04.000Z</time>
      </trkpt>
      <trkpt lat="45.75327" lon="4.63246">
        <ele>683.2</ele>
        <time>2021-09-27T14:29:07.000Z</time>
      </trkpt>
      <trkpt lat="45.75328" lon="4.63244">
        <ele>683.6</ele>
        <time>2021-09-27T14:29:08.000Z</time>
      </trkpt>
      <trkpt lat="45.7533" lon="4.63241">
        <ele>683.8</ele>
        <time>2021-09-27T14:29:09.000Z</time>
      </trkpt>
      <trkpt lat="45.75331" lon="4.63239">
        <ele>684</ele>
        <time>2021-09-27T14:29:10.000Z</time>
      </trkpt>
      <trkpt lat="45.75331" lon="4.63236">
        <ele>684</ele>
        <time>2021-09-27T14:29:11.000Z</time>
      </trkpt>
      <trkpt lat="45.75333" lon="4.63234">
        <ele>684.2</ele>
        <time>2021-09-27T14:29:12.000Z</time>
      </trkpt>
      <trkpt lat="45.75334" lon="4.63231">
        <ele>684.4</ele>
        <time>2021-09-27T14:29:13.000Z</time>
      </trkpt>
      <trkpt lat="45.75335" lon="4.63229">
        <ele>684.4</ele>
        <time>2021-09-27T14:29:14.000Z</time>
      </trkpt>
      <trkpt lat="45.75337" lon="4.63227">
        <ele>684.8</ele>
        <time>2021-09-27T14:29:15.000Z</time>
      </trkpt>
      <trkpt lat="45.75338" lon="4.63225">
        <ele>685</ele>
        <time>2021-09-27T14:29:16.000Z</time>
      </trkpt>
      <trkpt lat="45.7534" lon="4.63222">
        <ele>685</ele>
        <time>2021-09-27T14:29:17.000Z</time>
      </trkpt>
      <trkpt lat="45.75341" lon="4.6322">
        <ele>685.2</ele>
        <time>2021-09-27T14:29:18.000Z</time>
      </trkpt>
      <trkpt lat="45.75343" lon="4.63218">
        <ele>685.2</ele>
        <time>2021-09-27T14:29:19.000Z</time>
      </trkpt>
      <trkpt lat="45.75345" lon="4.63215">
        <ele>685.4</ele>
        <time>2021-09-27T14:29:20.000Z</time>
      </trkpt>
      <trkpt lat="45.75346" lon="4.63213">
        <ele>685.4</ele>
        <time>2021-09-27T14:29:21.000Z</time>
      </trkpt>
      <trkpt lat="45.75347" lon="4.6321">
        <ele>685.6</ele>
        <time>2021-09-27T14:29:22.000Z</time>
      </trkpt>
      <trkpt lat="45.75349" lon="4.63208">
        <ele>685.8</ele>
        <time>2021-09-27T14:29:23.000Z</time>
      </trkpt>
      <trkpt lat="45.7535" lon="4.63205">
        <ele>686</ele>
        <time>2021-09-27T14:29:24.000Z</time>
      </trkpt>
      <trkpt lat="45.75352" lon="4.63202">
        <ele>686.2</ele>
        <time>2021-09-27T14:29:25.000Z</time>
      </trkpt>
      <trkpt lat="45.75353" lon="4.632">
        <ele>686.4</ele>
        <time>2021-09-27T14:29:26.000Z</time>
      </trkpt>
      <trkpt lat="45.75355" lon="4.63197">
        <ele>686.6</ele>
        <time>2021-09-27T14:29:27.000Z</time>
      </trkpt>
      <trkpt lat="45.75357" lon="4.63194">
        <ele>686.8</ele>
        <time>2021-09-27T14:29:28.000Z</time>
      </trkpt>
      <trkpt lat="45.75359" lon="4.63191">
        <ele>687</ele>
        <time>2021-09-27T14:29:29.000Z</time>
      </trkpt>
      <trkpt lat="45.75361" lon="4.63188">
        <ele>687.2</ele>
        <time>2021-09-27T14:29:30.000Z</time>
      </trkpt>
      <trkpt lat="45.75363" lon="4.63184">
        <ele>687.4</ele>
        <time>2021-09-27T14:29:31.000Z</time>
      </trkpt>
      <trkpt lat="45.75365" lon="4.63181">
        <ele>687.6</ele>
        <time>2021-09-27T14:29:32.000Z</time>
      </trkpt>
      <trkpt lat="45.75367" lon="4.63177">
        <ele>687.6</ele>
        <time>2021-09-27T14:29:33.000Z</time>
      </trkpt>
      <trkpt lat="45.75368" lon="4.63173">
        <ele>687.8</ele>
        <time>2021-09-27T14:29:34.000Z</time>
      </trkpt>
      <trkpt lat="45.75371" lon="4.63168">
        <ele>687.8</ele>
        <time>2021-09-27T14:29:35.000Z</time>
      </trkpt>
      <trkpt lat="45.75374" lon="4.63164">
        <ele>687.8</ele>
        <time>2021-09-27T14:29:36.000Z</time>
      </trkpt>
      <trkpt lat="45.75376" lon="4.6316">
        <ele>687.8</ele>
        <time>2021-09-27T14:29:37.000Z</time>
      </trkpt>
      <trkpt lat="45.75379" lon="4.63156">
        <ele>687.8</ele>
        <time>2021-09-27T14:29:38.000Z</time>
      </trkpt>
      <trkpt lat="45.75382" lon="4.63152">
        <ele>687.8</ele>
        <time>2021-09-27T14:29:39.000Z</time>
      </trkpt>
      <trkpt lat="45.75384" lon="4.63148">
        <ele>687.8</ele>
        <time>2021-09-27T14:29:40.000Z</time>
      </trkpt>
      <trkpt lat="45.75386" lon="4.63144">
        <ele>687.8</ele>
        <time>2021-09-27T14:29:41.000Z</time>
      </trkpt>
      <trkpt lat="45.75389" lon="4.63139">
        <ele>687.8</ele>
        <time>2021-09-27T14:29:42.000Z</time>
      </trkpt>
      <trkpt lat="45.75391" lon="4.63134">
        <ele>687.8</ele>
        <time>2021-09-27T14:29:43.000Z</time>
      </trkpt>
      <trkpt lat="45.75393" lon="4.63129">
        <ele>687.6</ele>
        <time>2021-09-27T14:29:44.000Z</time>
      </trkpt>
      <trkpt lat="45.75396" lon="4.63124">
        <ele>687.6</ele>
        <time>2021-09-27T14:29:45.000Z</time>
      </trkpt>
      <trkpt lat="45.75398" lon="4.6312">
        <ele>687.6</ele>
        <time>2021-09-27T14:29:46.000Z</time>
      </trkpt>
      <trkpt lat="45.75401" lon="4.63115">
        <ele>687.6</ele>
        <time>2021-09-27T14:29:47.000Z</time>
      </trkpt>
      <trkpt lat="45.75403" lon="4.6311">
        <ele>687.6</ele>
        <time>2021-09-27T14:29:48.000Z</time>
      </trkpt>
      <trkpt lat="45.75405" lon="4.63106">
        <ele>687.6</ele>
        <time>2021-09-27T14:29:49.000Z</time>
      </trkpt>
      <trkpt lat="45.75412" lon="4.63088">
        <ele>687.6</ele>
        <time>2021-09-27T14:29:53.000Z</time>
      </trkpt>
      <trkpt lat="45.75414" lon="4.63084">
        <ele>687.6</ele>
        <time>2021-09-27T14:29:54.000Z</time>
      </trkpt>
      <trkpt lat="45.75416" lon="4.6308">
        <ele>687.6</ele>
        <time>2021-09-27T14:29:55.000Z</time>
      </trkpt>
      <trkpt lat="45.75417" lon="4.63075">
        <ele>687.6</ele>
        <time>2021-09-27T14:29:56.000Z</time>
      </trkpt>
      <trkpt lat="45.75419" lon="4.63071">
        <ele>687.6</ele>
        <time>2021-09-27T14:29:57.000Z</time>
      </trkpt>
      <trkpt lat="45.75432" lon="4.63037">
        <ele>687.6</ele>
        <time>2021-09-27T14:30:04.000Z</time>
      </trkpt>
      <trkpt lat="45.75444" lon="4.62997">
        <ele>687.8</ele>
        <time>2021-09-27T14:30:12.000Z</time>
      </trkpt>
      <trkpt lat="45.75451" lon="4.62972">
        <ele>688.2</ele>
        <time>2021-09-27T14:30:17.000Z</time>
      </trkpt>
      <trkpt lat="45.75454" lon="4.62963">
        <ele>688.2</ele>
        <time>2021-09-27T14:30:19.000Z</time>
      </trkpt>
      <trkpt lat="45.75455" lon="4.6296">
        <ele>688.2</ele>
        <time>2021-09-27T14:30:20.000Z</time>
      </trkpt>
      <trkpt lat="45.75457" lon="4.62956">
        <ele>688.4</ele>
        <time>2021-09-27T14:30:21.000Z</time>
      </trkpt>
      <trkpt lat="45.7546" lon="4.62949">
        <ele>688.4</ele>
        <time>2021-09-27T14:30:23.000Z</time>
      </trkpt>
      <trkpt lat="45.7546" lon="4.62946">
        <ele>688.4</ele>
        <time>2021-09-27T14:30:24.000Z</time>
      </trkpt>
      <trkpt lat="45.75462" lon="4.62941">
        <ele>688.6</ele>
        <time>2021-09-27T14:30:25.000Z</time>
      </trkpt>
      <trkpt lat="45.75463" lon="4.62938">
        <ele>688.6</ele>
        <time>2021-09-27T14:30:26.000Z</time>
      </trkpt>
      <trkpt lat="45.75464" lon="4.62935">
        <ele>688.6</ele>
        <time>2021-09-27T14:30:27.000Z</time>
      </trkpt>
      <trkpt lat="45.75464" lon="4.62932">
        <ele>688.6</ele>
        <time>2021-09-27T14:30:28.000Z</time>
      </trkpt>
      <trkpt lat="45.75465" lon="4.62928">
        <ele>688.8</ele>
        <time>2021-09-27T14:30:29.000Z</time>
      </trkpt>
      <trkpt lat="45.75466" lon="4.62926">
        <ele>688.8</ele>
        <time>2021-09-27T14:30:30.000Z</time>
      </trkpt>
      <trkpt lat="45.75468" lon="4.62921">
        <ele>689</ele>
        <time>2021-09-27T14:30:31.000Z</time>
      </trkpt>
      <trkpt lat="45.75469" lon="4.62918">
        <ele>689</ele>
        <time>2021-09-27T14:30:32.000Z</time>
      </trkpt>
      <trkpt lat="45.7547" lon="4.62915">
        <ele>689.2</ele>
        <time>2021-09-27T14:30:33.000Z</time>
      </trkpt>
      <trkpt lat="45.75484" lon="4.62876">
        <ele>689.8</ele>
        <time>2021-09-27T14:30:44.000Z</time>
      </trkpt>
      <trkpt lat="45.75485" lon="4.62873">
        <ele>689.8</ele>
        <time>2021-09-27T14:30:45.000Z</time>
      </trkpt>
      <trkpt lat="45.75487" lon="4.62867">
        <ele>689.8</ele>
        <time>2021-09-27T14:30:47.000Z</time>
      </trkpt>
      <trkpt lat="45.75489" lon="4.62864">
        <ele>689.8</ele>
        <time>2021-09-27T14:30:48.000Z</time>
      </trkpt>
      <trkpt lat="45.7549" lon="4.62861">
        <ele>689.8</ele>
        <time>2021-09-27T14:30:49.000Z</time>
      </trkpt>
      <trkpt lat="45.75493" lon="4.62856">
        <ele>689.8</ele>
        <time>2021-09-27T14:30:51.000Z</time>
      </trkpt>
      <trkpt lat="45.75494" lon="4.62854">
        <ele>689.8</ele>
        <time>2021-09-27T14:30:52.000Z</time>
      </trkpt>
      <trkpt lat="45.75496" lon="4.62853">
        <ele>689.8</ele>
        <time>2021-09-27T14:30:53.000Z</time>
      </trkpt>
      <trkpt lat="45.755" lon="4.62853">
        <ele>690.8</ele>
        <time>2021-09-27T14:34:13.000Z</time>
      </trkpt>
      <trkpt lat="45.75502" lon="4.62852">
        <ele>690.8</ele>
        <time>2021-09-27T14:34:14.000Z</time>
      </trkpt>
      <trkpt lat="45.75504" lon="4.62851">
        <ele>690.8</ele>
        <time>2021-09-27T14:34:15.000Z</time>
      </trkpt>
      <trkpt lat="45.75516" lon="4.62846">
        <ele>690.8</ele>
        <time>2021-09-27T14:34:21.000Z</time>
      </trkpt>
      <trkpt lat="45.75529" lon="4.62841">
        <ele>691.4</ele>
        <time>2021-09-27T14:34:26.000Z</time>
      </trkpt>
      <trkpt lat="45.7555" lon="4.62836">
        <ele>691.4</ele>
        <time>2021-09-27T14:34:31.000Z</time>
      </trkpt>
      <trkpt lat="45.75554" lon="4.62834">
        <ele>691.4</ele>
        <time>2021-09-27T14:34:32.000Z</time>
      </trkpt>
      <trkpt lat="45.75557" lon="4.62834">
        <ele>691.4</ele>
        <time>2021-09-27T14:34:33.000Z</time>
      </trkpt>
      <trkpt lat="45.75561" lon="4.62833">
        <ele>691.2</ele>
        <time>2021-09-27T14:34:34.000Z</time>
      </trkpt>
      <trkpt lat="45.75569" lon="4.62832">
        <ele>691.2</ele>
        <time>2021-09-27T14:34:36.000Z</time>
      </trkpt>
      <trkpt lat="45.75572" lon="4.62831">
        <ele>691.2</ele>
        <time>2021-09-27T14:34:37.000Z</time>
      </trkpt>
      <trkpt lat="45.75575" lon="4.62831">
        <ele>691.2</ele>
        <time>2021-09-27T14:34:38.000Z</time>
      </trkpt>
      <trkpt lat="45.75578" lon="4.62831">
        <ele>691.2</ele>
        <time>2021-09-27T14:34:39.000Z</time>
      </trkpt>
      <trkpt lat="45.75581" lon="4.6283">
        <ele>691.2</ele>
        <time>2021-09-27T14:34:40.000Z</time>
      </trkpt>
      <trkpt lat="45.75583" lon="4.6283">
        <ele>691.2</ele>
        <time>2021-09-27T14:34:41.000Z</time>
      </trkpt>
      <trkpt lat="45.75586" lon="4.6283">
        <ele>691.2</ele>
        <time>2021-09-27T14:34:42.000Z</time>
      </trkpt>
      <trkpt lat="45.75589" lon="4.62832">
        <ele>691.2</ele>
        <time>2021-09-27T14:34:43.000Z</time>
      </trkpt>
      <trkpt lat="45.75591" lon="4.62833">
        <ele>691.4</ele>
        <time>2021-09-27T14:34:44.000Z</time>
      </trkpt>
      <trkpt lat="45.75594" lon="4.62833">
        <ele>691.4</ele>
        <time>2021-09-27T14:34:45.000Z</time>
      </trkpt>
      <trkpt lat="45.75596" lon="4.62834">
        <ele>691.4</ele>
        <time>2021-09-27T14:34:46.000Z</time>
      </trkpt>
      <trkpt lat="45.75598" lon="4.62834">
        <ele>691.6</ele>
        <time>2021-09-27T14:34:47.000Z</time>
      </trkpt>
      <trkpt lat="45.75599" lon="4.62834">
        <ele>691.6</ele>
        <time>2021-09-27T14:34:48.000Z</time>
      </trkpt>
      <trkpt lat="45.75601" lon="4.62834">
        <ele>691.8</ele>
        <time>2021-09-27T14:34:49.000Z</time>
      </trkpt>
      <trkpt lat="45.75603" lon="4.62835">
        <ele>692</ele>
        <time>2021-09-27T14:34:50.000Z</time>
      </trkpt>
      <trkpt lat="45.75605" lon="4.62836">
        <ele>692</ele>
        <time>2021-09-27T14:34:51.000Z</time>
      </trkpt>
      <trkpt lat="45.75607" lon="4.62838">
        <ele>692.4</ele>
        <time>2021-09-27T14:34:52.000Z</time>
      </trkpt>
      <trkpt lat="45.75609" lon="4.62839">
        <ele>692.8</ele>
        <time>2021-09-27T14:34:53.000Z</time>
      </trkpt>
      <trkpt lat="45.75611" lon="4.6284">
        <ele>693</ele>
        <time>2021-09-27T14:34:54.000Z</time>
      </trkpt>
      <trkpt lat="45.75613" lon="4.62842">
        <ele>693</ele>
        <time>2021-09-27T14:34:55.000Z</time>
      </trkpt>
      <trkpt lat="45.75615" lon="4.62843">
        <ele>693.4</ele>
        <time>2021-09-27T14:34:56.000Z</time>
      </trkpt>
      <trkpt lat="45.75617" lon="4.62844">
        <ele>693.6</ele>
        <time>2021-09-27T14:34:57.000Z</time>
      </trkpt>
      <trkpt lat="45.7562" lon="4.62846">
        <ele>694</ele>
        <time>2021-09-27T14:34:59.000Z</time>
      </trkpt>
      <trkpt lat="45.75622" lon="4.62848">
        <ele>694.2</ele>
        <time>2021-09-27T14:35:00.000Z</time>
      </trkpt>
      <trkpt lat="45.75625" lon="4.6285">
        <ele>694.4</ele>
        <time>2021-09-27T14:35:01.000Z</time>
      </trkpt>
      <trkpt lat="45.75627" lon="4.62851">
        <ele>694.6</ele>
        <time>2021-09-27T14:35:02.000Z</time>
      </trkpt>
      <trkpt lat="45.7563" lon="4.62853">
        <ele>694.8</ele>
        <time>2021-09-27T14:35:03.000Z</time>
      </trkpt>
      <trkpt lat="45.75632" lon="4.62854">
        <ele>694.8</ele>
        <time>2021-09-27T14:35:04.000Z</time>
      </trkpt>
      <trkpt lat="45.75634" lon="4.62856">
        <ele>695</ele>
        <time>2021-09-27T14:35:05.000Z</time>
      </trkpt>
      <trkpt lat="45.75637" lon="4.62858">
        <ele>695</ele>
        <time>2021-09-27T14:35:06.000Z</time>
      </trkpt>
      <trkpt lat="45.75642" lon="4.6286">
        <ele>695</ele>
        <time>2021-09-27T14:35:07.000Z</time>
      </trkpt>
      <trkpt lat="45.75646" lon="4.62864">
        <ele>695</ele>
        <time>2021-09-27T14:35:08.000Z</time>
      </trkpt>
      <trkpt lat="45.75649" lon="4.62865">
        <ele>695</ele>
        <time>2021-09-27T14:35:09.000Z</time>
      </trkpt>
      <trkpt lat="45.75653" lon="4.62868">
        <ele>695</ele>
        <time>2021-09-27T14:35:10.000Z</time>
      </trkpt>
      <trkpt lat="45.75656" lon="4.6287">
        <ele>695</ele>
        <time>2021-09-27T14:35:11.000Z</time>
      </trkpt>
      <trkpt lat="45.7566" lon="4.62873">
        <ele>695</ele>
        <time>2021-09-27T14:35:12.000Z</time>
      </trkpt>
      <trkpt lat="45.75664" lon="4.62877">
        <ele>695</ele>
        <time>2021-09-27T14:35:13.000Z</time>
      </trkpt>
      <trkpt lat="45.75668" lon="4.6288">
        <ele>694.8</ele>
        <time>2021-09-27T14:35:14.000Z</time>
      </trkpt>
      <trkpt lat="45.7567" lon="4.62882">
        <ele>694.8</ele>
        <time>2021-09-27T14:35:15.000Z</time>
      </trkpt>
      <trkpt lat="45.75674" lon="4.62884">
        <ele>694.8</ele>
        <time>2021-09-27T14:35:16.000Z</time>
      </trkpt>
      <trkpt lat="45.75676" lon="4.62886">
        <ele>694.8</ele>
        <time>2021-09-27T14:35:17.000Z</time>
      </trkpt>
      <trkpt lat="45.75679" lon="4.62887">
        <ele>694.8</ele>
        <time>2021-09-27T14:35:18.000Z</time>
      </trkpt>
      <trkpt lat="45.75682" lon="4.62889">
        <ele>694.8</ele>
        <time>2021-09-27T14:35:19.000Z</time>
      </trkpt>
      <trkpt lat="45.75686" lon="4.62892">
        <ele>694.8</ele>
        <time>2021-09-27T14:35:20.000Z</time>
      </trkpt>
      <trkpt lat="45.75688" lon="4.62893">
        <ele>695</ele>
        <time>2021-09-27T14:35:21.000Z</time>
      </trkpt>
      <trkpt lat="45.75695" lon="4.62898">
        <ele>695</ele>
        <time>2021-09-27T14:35:24.000Z</time>
      </trkpt>
      <trkpt lat="45.75697" lon="4.62899">
        <ele>695</ele>
        <time>2021-09-27T14:35:25.000Z</time>
      </trkpt>
      <trkpt lat="45.75698" lon="4.62899">
        <ele>695.2</ele>
        <time>2021-09-27T14:35:26.000Z</time>
      </trkpt>
      <trkpt lat="45.757" lon="4.62901">
        <ele>695.4</ele>
        <time>2021-09-27T14:35:27.000Z</time>
      </trkpt>
      <trkpt lat="45.75703" lon="4.62903">
        <ele>695.6</ele>
        <time>2021-09-27T14:35:28.000Z</time>
      </trkpt>
      <trkpt lat="45.75704" lon="4.62904">
        <ele>695.6</ele>
        <time>2021-09-27T14:35:29.000Z</time>
      </trkpt>
      <trkpt lat="45.75706" lon="4.62905">
        <ele>695.8</ele>
        <time>2021-09-27T14:35:30.000Z</time>
      </trkpt>
      <trkpt lat="45.75708" lon="4.62906">
        <ele>695.8</ele>
        <time>2021-09-27T14:35:31.000Z</time>
      </trkpt>
      <trkpt lat="45.75709" lon="4.62907">
        <ele>695.8</ele>
        <time>2021-09-27T14:35:32.000Z</time>
      </trkpt>
      <trkpt lat="45.75711" lon="4.62908">
        <ele>696</ele>
        <time>2021-09-27T14:35:33.000Z</time>
      </trkpt>
      <trkpt lat="45.75712" lon="4.62908">
        <ele>696.2</ele>
        <time>2021-09-27T14:35:34.000Z</time>
      </trkpt>
      <trkpt lat="45.75713" lon="4.62909">
        <ele>696.2</ele>
        <time>2021-09-27T14:35:35.000Z</time>
      </trkpt>
      <trkpt lat="45.75717" lon="4.62912">
        <ele>696.6</ele>
        <time>2021-09-27T14:35:37.000Z</time>
      </trkpt>
      <trkpt lat="45.75719" lon="4.62913">
        <ele>696.8</ele>
        <time>2021-09-27T14:35:38.000Z</time>
      </trkpt>
      <trkpt lat="45.75721" lon="4.62915">
        <ele>697</ele>
        <time>2021-09-27T14:35:40.000Z</time>
      </trkpt>
      <trkpt lat="45.75723" lon="4.62916">
        <ele>697.2</ele>
        <time>2021-09-27T14:35:41.000Z</time>
      </trkpt>
      <trkpt lat="45.75731" lon="4.62921">
        <ele>698</ele>
        <time>2021-09-27T14:35:45.000Z</time>
      </trkpt>
      <trkpt lat="45.75732" lon="4.62922">
        <ele>698.2</ele>
        <time>2021-09-27T14:35:46.000Z</time>
      </trkpt>
      <trkpt lat="45.75734" lon="4.62923">
        <ele>698.4</ele>
        <time>2021-09-27T14:35:47.000Z</time>
      </trkpt>
      <trkpt lat="45.75736" lon="4.62924">
        <ele>698.6</ele>
        <time>2021-09-27T14:35:48.000Z</time>
      </trkpt>
      <trkpt lat="45.75737" lon="4.62925">
        <ele>698.8</ele>
        <time>2021-09-27T14:35:49.000Z</time>
      </trkpt>
      <trkpt lat="45.75739" lon="4.62925">
        <ele>699</ele>
        <time>2021-09-27T14:35:50.000Z</time>
      </trkpt>
      <trkpt lat="45.75741" lon="4.62926">
        <ele>699.2</ele>
        <time>2021-09-27T14:35:51.000Z</time>
      </trkpt>
      <trkpt lat="45.75742" lon="4.62927">
        <ele>699.2</ele>
        <time>2021-09-27T14:35:52.000Z</time>
      </trkpt>
      <trkpt lat="45.75744" lon="4.62928">
        <ele>699.4</ele>
        <time>2021-09-27T14:35:53.000Z</time>
      </trkpt>
      <trkpt lat="45.75745" lon="4.62928">
        <ele>699.6</ele>
        <time>2021-09-27T14:35:54.000Z</time>
      </trkpt>
      <trkpt lat="45.75746" lon="4.62928">
        <ele>699.8</ele>
        <time>2021-09-27T14:35:55.000Z</time>
      </trkpt>
      <trkpt lat="45.75749" lon="4.6293">
        <ele>699.8</ele>
        <time>2021-09-27T14:35:56.000Z</time>
      </trkpt>
      <trkpt lat="45.75751" lon="4.62932">
        <ele>700.2</ele>
        <time>2021-09-27T14:35:57.000Z</time>
      </trkpt>
      <trkpt lat="45.75753" lon="4.62935">
        <ele>700.6</ele>
        <time>2021-09-27T14:35:58.000Z</time>
      </trkpt>
      <trkpt lat="45.75755" lon="4.62936">
        <ele>700.8</ele>
        <time>2021-09-27T14:35:59.000Z</time>
      </trkpt>
      <trkpt lat="45.75756" lon="4.62936">
        <ele>701</ele>
        <time>2021-09-27T14:36:00.000Z</time>
      </trkpt>
      <trkpt lat="45.75757" lon="4.62936">
        <ele>701.2</ele>
        <time>2021-09-27T14:36:01.000Z</time>
      </trkpt>
      <trkpt lat="45.75759" lon="4.62936">
        <ele>701.4</ele>
        <time>2021-09-27T14:36:02.000Z</time>
      </trkpt>
      <trkpt lat="45.75762" lon="4.62937">
        <ele>701.8</ele>
        <time>2021-09-27T14:36:03.000Z</time>
      </trkpt>
      <trkpt lat="45.75764" lon="4.62938">
        <ele>701.8</ele>
        <time>2021-09-27T14:36:04.000Z</time>
      </trkpt>
      <trkpt lat="45.75767" lon="4.62939">
        <ele>702</ele>
        <time>2021-09-27T14:36:05.000Z</time>
      </trkpt>
      <trkpt lat="45.75768" lon="4.62939">
        <ele>702.2</ele>
        <time>2021-09-27T14:36:06.000Z</time>
      </trkpt>
      <trkpt lat="45.75769" lon="4.62939">
        <ele>702.4</ele>
        <time>2021-09-27T14:36:07.000Z</time>
      </trkpt>
      <trkpt lat="45.7577" lon="4.62939">
        <ele>702.6</ele>
        <time>2021-09-27T14:36:08.000Z</time>
      </trkpt>
      <trkpt lat="45.75774" lon="4.62937">
        <ele>702.6</ele>
        <time>2021-09-27T14:36:09.000Z</time>
      </trkpt>
      <trkpt lat="45.75776" lon="4.62938">
        <ele>702.8</ele>
        <time>2021-09-27T14:36:10.000Z</time>
      </trkpt>
      <trkpt lat="45.75778" lon="4.62939">
        <ele>703</ele>
        <time>2021-09-27T14:36:11.000Z</time>
      </trkpt>
      <trkpt lat="45.7578" lon="4.62939">
        <ele>703</ele>
        <time>2021-09-27T14:36:12.000Z</time>
      </trkpt>
      <trkpt lat="45.75782" lon="4.62939">
        <ele>703.2</ele>
        <time>2021-09-27T14:36:13.000Z</time>
      </trkpt>
      <trkpt lat="45.75784" lon="4.6294">
        <ele>703.2</ele>
        <time>2021-09-27T14:36:14.000Z</time>
      </trkpt>
      <trkpt lat="45.75786" lon="4.6294">
        <ele>703.4</ele>
        <time>2021-09-27T14:36:15.000Z</time>
      </trkpt>
      <trkpt lat="45.75788" lon="4.62941">
        <ele>703.4</ele>
        <time>2021-09-27T14:36:16.000Z</time>
      </trkpt>
      <trkpt lat="45.75789" lon="4.62942">
        <ele>703.4</ele>
        <time>2021-09-27T14:36:17.000Z</time>
      </trkpt>
      <trkpt lat="45.75791" lon="4.62943">
        <ele>703.4</ele>
        <time>2021-09-27T14:36:18.000Z</time>
      </trkpt>
      <trkpt lat="45.75793" lon="4.62944">
        <ele>703.4</ele>
        <time>2021-09-27T14:36:19.000Z</time>
      </trkpt>
      <trkpt lat="45.75796" lon="4.62944">
        <ele>703.4</ele>
        <time>2021-09-27T14:36:20.000Z</time>
      </trkpt>
      <trkpt lat="45.75799" lon="4.62945">
        <ele>703.4</ele>
        <time>2021-09-27T14:36:21.000Z</time>
      </trkpt>
      <trkpt lat="45.75802" lon="4.62946">
        <ele>703.4</ele>
        <time>2021-09-27T14:36:22.000Z</time>
      </trkpt>
      <trkpt lat="45.75805" lon="4.62947">
        <ele>703.4</ele>
        <time>2021-09-27T14:36:23.000Z</time>
      </trkpt>
      <trkpt lat="45.75808" lon="4.62949">
        <ele>703.4</ele>
        <time>2021-09-27T14:36:24.000Z</time>
      </trkpt>
      <trkpt lat="45.75811" lon="4.6295">
        <ele>703.4</ele>
        <time>2021-09-27T14:36:25.000Z</time>
      </trkpt>
      <trkpt lat="45.75814" lon="4.62952">
        <ele>703.4</ele>
        <time>2021-09-27T14:36:26.000Z</time>
      </trkpt>
      <trkpt lat="45.75817" lon="4.62953">
        <ele>703.4</ele>
        <time>2021-09-27T14:36:27.000Z</time>
      </trkpt>
      <trkpt lat="45.75821" lon="4.62955">
        <ele>703.4</ele>
        <time>2021-09-27T14:36:28.000Z</time>
      </trkpt>
      <trkpt lat="45.75825" lon="4.62958">
        <ele>703.2</ele>
        <time>2021-09-27T14:36:29.000Z</time>
      </trkpt>
      <trkpt lat="45.75845" lon="4.62976">
        <ele>703</ele>
        <time>2021-09-27T14:36:33.000Z</time>
      </trkpt>
      <trkpt lat="45.75854" lon="4.62982">
        <ele>702.8</ele>
        <time>2021-09-27T14:36:35.000Z</time>
      </trkpt>
      <trkpt lat="45.75858" lon="4.62985">
        <ele>702.6</ele>
        <time>2021-09-27T14:36:36.000Z</time>
      </trkpt>
      <trkpt lat="45.75861" lon="4.62987">
        <ele>702.6</ele>
        <time>2021-09-27T14:36:37.000Z</time>
      </trkpt>
      <trkpt lat="45.75863" lon="4.62987">
        <ele>702.6</ele>
        <time>2021-09-27T14:36:38.000Z</time>
      </trkpt>
      <trkpt lat="45.75865" lon="4.62988">
        <ele>702.6</ele>
        <time>2021-09-27T14:36:39.000Z</time>
      </trkpt>
      <trkpt lat="45.75867" lon="4.6299">
        <ele>702.6</ele>
        <time>2021-09-27T14:36:40.000Z</time>
      </trkpt>
      <trkpt lat="45.75869" lon="4.62991">
        <ele>702.6</ele>
        <time>2021-09-27T14:36:41.000Z</time>
      </trkpt>
      <trkpt lat="45.75871" lon="4.62992">
        <ele>702.6</ele>
        <time>2021-09-27T14:36:42.000Z</time>
      </trkpt>
      <trkpt lat="45.75872" lon="4.62994">
        <ele>702.6</ele>
        <time>2021-09-27T14:36:43.000Z</time>
      </trkpt>
      <trkpt lat="45.75881" lon="4.63001">
        <ele>702.8</ele>
        <time>2021-09-27T14:36:47.000Z</time>
      </trkpt>
      <trkpt lat="45.75882" lon="4.63002">
        <ele>703</ele>
        <time>2021-09-27T14:36:48.000Z</time>
      </trkpt>
      <trkpt lat="45.75884" lon="4.63004">
        <ele>703.2</ele>
        <time>2021-09-27T14:36:49.000Z</time>
      </trkpt>
      <trkpt lat="45.75886" lon="4.63004">
        <ele>703.6</ele>
        <time>2021-09-27T14:36:50.000Z</time>
      </trkpt>
      <trkpt lat="45.75888" lon="4.63005">
        <ele>703.8</ele>
        <time>2021-09-27T14:36:51.000Z</time>
      </trkpt>
      <trkpt lat="45.75896" lon="4.6301">
        <ele>705</ele>
        <time>2021-09-27T14:36:56.000Z</time>
      </trkpt>
      <trkpt lat="45.75898" lon="4.63011">
        <ele>705.2</ele>
        <time>2021-09-27T14:36:57.000Z</time>
      </trkpt>
      <trkpt lat="45.75899" lon="4.63012">
        <ele>705.6</ele>
        <time>2021-09-27T14:36:58.000Z</time>
      </trkpt>
      <trkpt lat="45.759" lon="4.63013">
        <ele>705.6</ele>
        <time>2021-09-27T14:36:59.000Z</time>
      </trkpt>
      <trkpt lat="45.75901" lon="4.63014">
        <ele>705.8</ele>
        <time>2021-09-27T14:37:00.000Z</time>
      </trkpt>
      <trkpt lat="45.75903" lon="4.63016">
        <ele>706.2</ele>
        <time>2021-09-27T14:37:01.000Z</time>
      </trkpt>
      <trkpt lat="45.75904" lon="4.63016">
        <ele>706.4</ele>
        <time>2021-09-27T14:37:02.000Z</time>
      </trkpt>
      <trkpt lat="45.75905" lon="4.63017">
        <ele>706.6</ele>
        <time>2021-09-27T14:37:03.000Z</time>
      </trkpt>
      <trkpt lat="45.75907" lon="4.63018">
        <ele>706.8</ele>
        <time>2021-09-27T14:37:04.000Z</time>
      </trkpt>
      <trkpt lat="45.75909" lon="4.6302">
        <ele>707</ele>
        <time>2021-09-27T14:37:05.000Z</time>
      </trkpt>
      <trkpt lat="45.75911" lon="4.63021">
        <ele>707</ele>
        <time>2021-09-27T14:37:06.000Z</time>
      </trkpt>
      <trkpt lat="45.75912" lon="4.63022">
        <ele>707</ele>
        <time>2021-09-27T14:37:07.000Z</time>
      </trkpt>
      <trkpt lat="45.75914" lon="4.63023">
        <ele>707.2</ele>
        <time>2021-09-27T14:37:08.000Z</time>
      </trkpt>
      <trkpt lat="45.75915" lon="4.63024">
        <ele>707.6</ele>
        <time>2021-09-27T14:37:09.000Z</time>
      </trkpt>
      <trkpt lat="45.75917" lon="4.63026">
        <ele>707.8</ele>
        <time>2021-09-27T14:37:10.000Z</time>
      </trkpt>
      <trkpt lat="45.75919" lon="4.63028">
        <ele>708</ele>
        <time>2021-09-27T14:37:11.000Z</time>
      </trkpt>
      <trkpt lat="45.7592" lon="4.6303">
        <ele>708</ele>
        <time>2021-09-27T14:37:12.000Z</time>
      </trkpt>
      <trkpt lat="45.75922" lon="4.63031">
        <ele>708.2</ele>
        <time>2021-09-27T14:37:13.000Z</time>
      </trkpt>
      <trkpt lat="45.75924" lon="4.63033">
        <ele>708.2</ele>
        <time>2021-09-27T14:37:14.000Z</time>
      </trkpt>
      <trkpt lat="45.75928" lon="4.63035">
        <ele>708.2</ele>
        <time>2021-09-27T14:37:15.000Z</time>
      </trkpt>
      <trkpt lat="45.75931" lon="4.63037">
        <ele>708.4</ele>
        <time>2021-09-27T14:37:16.000Z</time>
      </trkpt>
      <trkpt lat="45.75934" lon="4.6304">
        <ele>708.4</ele>
        <time>2021-09-27T14:37:17.000Z</time>
      </trkpt>
      <trkpt lat="45.75937" lon="4.63043">
        <ele>708.6</ele>
        <time>2021-09-27T14:37:18.000Z</time>
      </trkpt>
      <trkpt lat="45.75942" lon="4.63047">
        <ele>708.6</ele>
        <time>2021-09-27T14:37:19.000Z</time>
      </trkpt>
      <trkpt lat="45.75946" lon="4.63051">
        <ele>708.6</ele>
        <time>2021-09-27T14:37:20.000Z</time>
      </trkpt>
      <trkpt lat="45.75949" lon="4.63055">
        <ele>708.6</ele>
        <time>2021-09-27T14:37:21.000Z</time>
      </trkpt>
      <trkpt lat="45.75953" lon="4.6306">
        <ele>708.6</ele>
        <time>2021-09-27T14:37:22.000Z</time>
      </trkpt>
      <trkpt lat="45.75959" lon="4.63066">
        <ele>708.6</ele>
        <time>2021-09-27T14:37:23.000Z</time>
      </trkpt>
      <trkpt lat="45.75964" lon="4.6307">
        <ele>708.6</ele>
        <time>2021-09-27T14:37:24.000Z</time>
      </trkpt>
      <trkpt lat="45.75968" lon="4.63075">
        <ele>708.6</ele>
        <time>2021-09-27T14:37:25.000Z</time>
      </trkpt>
      <trkpt lat="45.75973" lon="4.63079">
        <ele>708.6</ele>
        <time>2021-09-27T14:37:26.000Z</time>
      </trkpt>
      <trkpt lat="45.75978" lon="4.63084">
        <ele>708.6</ele>
        <time>2021-09-27T14:37:27.000Z</time>
      </trkpt>
      <trkpt lat="45.75986" lon="4.63088">
        <ele>708.4</ele>
        <time>2021-09-27T14:37:28.000Z</time>
      </trkpt>
      <trkpt lat="45.75993" lon="4.63091">
        <ele>708.4</ele>
        <time>2021-09-27T14:37:29.000Z</time>
      </trkpt>
      <trkpt lat="45.75999" lon="4.63093">
        <ele>708.4</ele>
        <time>2021-09-27T14:37:30.000Z</time>
      </trkpt>
      <trkpt lat="45.76004" lon="4.63096">
        <ele>708.2</ele>
        <time>2021-09-27T14:37:31.000Z</time>
      </trkpt>
      <trkpt lat="45.7601" lon="4.63096">
        <ele>708.2</ele>
        <time>2021-09-27T14:37:32.000Z</time>
      </trkpt>
      <trkpt lat="45.76024" lon="4.631">
        <ele>707</ele>
        <time>2021-09-27T14:37:34.000Z</time>
      </trkpt>
      <trkpt lat="45.7603" lon="4.63101">
        <ele>706.4</ele>
        <time>2021-09-27T14:37:35.000Z</time>
      </trkpt>
      <trkpt lat="45.76038" lon="4.63098">
        <ele>705.4</ele>
        <time>2021-09-27T14:37:36.000Z</time>
      </trkpt>
      <trkpt lat="45.76046" lon="4.63092">
        <ele>704.6</ele>
        <time>2021-09-27T14:37:37.000Z</time>
      </trkpt>
      <trkpt lat="45.76053" lon="4.63085">
        <ele>704</ele>
        <time>2021-09-27T14:37:38.000Z</time>
      </trkpt>
      <trkpt lat="45.7606" lon="4.63075">
        <ele>703.4</ele>
        <time>2021-09-27T14:37:39.000Z</time>
      </trkpt>
      <trkpt lat="45.76065" lon="4.63068">
        <ele>703</ele>
        <time>2021-09-27T14:37:40.000Z</time>
      </trkpt>
      <trkpt lat="45.76069" lon="4.6306">
        <ele>702.8</ele>
        <time>2021-09-27T14:37:41.000Z</time>
      </trkpt>
      <trkpt lat="45.76074" lon="4.6305">
        <ele>701.4</ele>
        <time>2021-09-27T14:37:42.000Z</time>
      </trkpt>
      <trkpt lat="45.76077" lon="4.6304">
        <ele>700.6</ele>
        <time>2021-09-27T14:37:43.000Z</time>
      </trkpt>
      <trkpt lat="45.76079" lon="4.6303">
        <ele>700.2</ele>
        <time>2021-09-27T14:37:44.000Z</time>
      </trkpt>
      <trkpt lat="45.76089" lon="4.63001">
        <ele>699</ele>
        <time>2021-09-27T14:37:47.000Z</time>
      </trkpt>
      <trkpt lat="45.76095" lon="4.6298">
        <ele>698.2</ele>
        <time>2021-09-27T14:37:49.000Z</time>
      </trkpt>
      <trkpt lat="45.76098" lon="4.62972">
        <ele>697.8</ele>
        <time>2021-09-27T14:37:50.000Z</time>
      </trkpt>
      <trkpt lat="45.761" lon="4.62962">
        <ele>697.4</ele>
        <time>2021-09-27T14:37:51.000Z</time>
      </trkpt>
      <trkpt lat="45.76103" lon="4.62943">
        <ele>697.2</ele>
        <time>2021-09-27T14:37:53.000Z</time>
      </trkpt>
      <trkpt lat="45.76103" lon="4.62935">
        <ele>697.2</ele>
        <time>2021-09-27T14:37:54.000Z</time>
      </trkpt>
      <trkpt lat="45.76104" lon="4.62927">
        <ele>697.2</ele>
        <time>2021-09-27T14:37:55.000Z</time>
      </trkpt>
      <trkpt lat="45.76104" lon="4.6292">
        <ele>697.2</ele>
        <time>2021-09-27T14:37:56.000Z</time>
      </trkpt>
      <trkpt lat="45.76105" lon="4.62913">
        <ele>697.2</ele>
        <time>2021-09-27T14:37:57.000Z</time>
      </trkpt>
      <trkpt lat="45.76106" lon="4.62908">
        <ele>697.2</ele>
        <time>2021-09-27T14:37:58.000Z</time>
      </trkpt>
      <trkpt lat="45.76108" lon="4.62904">
        <ele>697.2</ele>
        <time>2021-09-27T14:37:59.000Z</time>
      </trkpt>
      <trkpt lat="45.76109" lon="4.62902">
        <ele>697.2</ele>
        <time>2021-09-27T14:38:00.000Z</time>
      </trkpt>
      <trkpt lat="45.7611" lon="4.629">
        <ele>697.2</ele>
        <time>2021-09-27T14:38:01.000Z</time>
      </trkpt>
      <trkpt lat="45.76111" lon="4.62898">
        <ele>697.2</ele>
        <time>2021-09-27T14:38:02.000Z</time>
      </trkpt>
      <trkpt lat="45.76112" lon="4.62896">
        <ele>697.4</ele>
        <time>2021-09-27T14:38:03.000Z</time>
      </trkpt>
      <trkpt lat="45.76113" lon="4.62893">
        <ele>697.4</ele>
        <time>2021-09-27T14:38:04.000Z</time>
      </trkpt>
      <trkpt lat="45.76115" lon="4.62889">
        <ele>698.2</ele>
        <time>2021-09-27T14:38:06.000Z</time>
      </trkpt>
      <trkpt lat="45.76116" lon="4.62887">
        <ele>699</ele>
        <time>2021-09-27T14:38:07.000Z</time>
      </trkpt>
      <trkpt lat="45.76117" lon="4.62885">
        <ele>699.4</ele>
        <time>2021-09-27T14:38:08.000Z</time>
      </trkpt>
      <trkpt lat="45.76118" lon="4.62882">
        <ele>700</ele>
        <time>2021-09-27T14:38:09.000Z</time>
      </trkpt>
      <trkpt lat="45.76119" lon="4.6288">
        <ele>700.2</ele>
        <time>2021-09-27T14:38:10.000Z</time>
      </trkpt>
      <trkpt lat="45.7612" lon="4.62878">
        <ele>700.6</ele>
        <time>2021-09-27T14:38:11.000Z</time>
      </trkpt>
      <trkpt lat="45.76121" lon="4.62875">
        <ele>700.8</ele>
        <time>2021-09-27T14:38:12.000Z</time>
      </trkpt>
      <trkpt lat="45.76122" lon="4.62874">
        <ele>701</ele>
        <time>2021-09-27T14:38:13.000Z</time>
      </trkpt>
      <trkpt lat="45.76123" lon="4.62872">
        <ele>701.2</ele>
        <time>2021-09-27T14:38:14.000Z</time>
      </trkpt>
      <trkpt lat="45.76124" lon="4.6287">
        <ele>701.2</ele>
        <time>2021-09-27T14:38:15.000Z</time>
      </trkpt>
      <trkpt lat="45.76125" lon="4.62868">
        <ele>701.4</ele>
        <time>2021-09-27T14:38:16.000Z</time>
      </trkpt>
      <trkpt lat="45.76126" lon="4.62866">
        <ele>701.6</ele>
        <time>2021-09-27T14:38:17.000Z</time>
      </trkpt>
      <trkpt lat="45.76127" lon="4.62864">
        <ele>701.8</ele>
        <time>2021-09-27T14:38:18.000Z</time>
      </trkpt>
      <trkpt lat="45.76129" lon="4.62861">
        <ele>702</ele>
        <time>2021-09-27T14:38:19.000Z</time>
      </trkpt>
      <trkpt lat="45.7613" lon="4.62859">
        <ele>702.2</ele>
        <time>2021-09-27T14:38:20.000Z</time>
      </trkpt>
      <trkpt lat="45.76132" lon="4.62857">
        <ele>702.4</ele>
        <time>2021-09-27T14:38:21.000Z</time>
      </trkpt>
      <trkpt lat="45.76133" lon="4.62854">
        <ele>702.6</ele>
        <time>2021-09-27T14:38:22.000Z</time>
      </trkpt>
      <trkpt lat="45.76134" lon="4.62852">
        <ele>702.8</ele>
        <time>2021-09-27T14:38:23.000Z</time>
      </trkpt>
      <trkpt lat="45.76136" lon="4.6285">
        <ele>703</ele>
        <time>2021-09-27T14:38:24.000Z</time>
      </trkpt>
      <trkpt lat="45.76137" lon="4.62848">
        <ele>703.2</ele>
        <time>2021-09-27T14:38:25.000Z</time>
      </trkpt>
      <trkpt lat="45.76138" lon="4.62846">
        <ele>703.4</ele>
        <time>2021-09-27T14:38:26.000Z</time>
      </trkpt>
      <trkpt lat="45.7614" lon="4.62844">
        <ele>703.4</ele>
        <time>2021-09-27T14:38:27.000Z</time>
      </trkpt>
      <trkpt lat="45.76143" lon="4.62842">
        <ele>703.8</ele>
        <time>2021-09-27T14:38:28.000Z</time>
      </trkpt>
      <trkpt lat="45.76145" lon="4.6284">
        <ele>703.8</ele>
        <time>2021-09-27T14:38:29.000Z</time>
      </trkpt>
      <trkpt lat="45.76147" lon="4.62839">
        <ele>704</ele>
        <time>2021-09-27T14:38:30.000Z</time>
      </trkpt>
      <trkpt lat="45.76149" lon="4.62838">
        <ele>704.2</ele>
        <time>2021-09-27T14:38:31.000Z</time>
      </trkpt>
      <trkpt lat="45.76152" lon="4.62838">
        <ele>704.4</ele>
        <time>2021-09-27T14:38:32.000Z</time>
      </trkpt>
      <trkpt lat="45.76154" lon="4.62838">
        <ele>704.4</ele>
        <time>2021-09-27T14:38:33.000Z</time>
      </trkpt>
      <trkpt lat="45.76156" lon="4.62838">
        <ele>704.6</ele>
        <time>2021-09-27T14:38:34.000Z</time>
      </trkpt>
      <trkpt lat="45.76158" lon="4.62838">
        <ele>704.6</ele>
        <time>2021-09-27T14:38:35.000Z</time>
      </trkpt>
      <trkpt lat="45.7616" lon="4.62839">
        <ele>704.6</ele>
        <time>2021-09-27T14:38:36.000Z</time>
      </trkpt>
      <trkpt lat="45.76162" lon="4.6284">
        <ele>704.6</ele>
        <time>2021-09-27T14:38:37.000Z</time>
      </trkpt>
      <trkpt lat="45.76164" lon="4.62841">
        <ele>704.6</ele>
        <time>2021-09-27T14:38:38.000Z</time>
      </trkpt>
      <trkpt lat="45.76165" lon="4.62841">
        <ele>704.8</ele>
        <time>2021-09-27T14:38:39.000Z</time>
      </trkpt>
      <trkpt lat="45.76166" lon="4.62841">
        <ele>705</ele>
        <time>2021-09-27T14:38:40.000Z</time>
      </trkpt>
      <trkpt lat="45.76168" lon="4.62842">
        <ele>705.2</ele>
        <time>2021-09-27T14:38:41.000Z</time>
      </trkpt>
      <trkpt lat="45.76169" lon="4.62843">
        <ele>705.4</ele>
        <time>2021-09-27T14:38:42.000Z</time>
      </trkpt>
      <trkpt lat="45.7617" lon="4.62844">
        <ele>705.4</ele>
        <time>2021-09-27T14:38:43.000Z</time>
      </trkpt>
      <trkpt lat="45.76171" lon="4.62845">
        <ele>705.6</ele>
        <time>2021-09-27T14:38:44.000Z</time>
      </trkpt>
      <trkpt lat="45.76173" lon="4.62845">
        <ele>705.8</ele>
        <time>2021-09-27T14:38:45.000Z</time>
      </trkpt>
      <trkpt lat="45.76174" lon="4.62846">
        <ele>706.2</ele>
        <time>2021-09-27T14:38:46.000Z</time>
      </trkpt>
      <trkpt lat="45.76176" lon="4.62846">
        <ele>706.2</ele>
        <time>2021-09-27T14:38:47.000Z</time>
      </trkpt>
      <trkpt lat="45.76177" lon="4.62847">
        <ele>706.4</ele>
        <time>2021-09-27T14:38:48.000Z</time>
      </trkpt>
      <trkpt lat="45.76178" lon="4.62848">
        <ele>706.8</ele>
        <time>2021-09-27T14:38:49.000Z</time>
      </trkpt>
      <trkpt lat="45.76179" lon="4.62848">
        <ele>706.8</ele>
        <time>2021-09-27T14:38:50.000Z</time>
      </trkpt>
      <trkpt lat="45.7618" lon="4.62849">
        <ele>707.6</ele>
        <time>2021-09-27T14:38:52.000Z</time>
      </trkpt>
      <trkpt lat="45.76181" lon="4.6285">
        <ele>707.8</ele>
        <time>2021-09-27T14:38:53.000Z</time>
      </trkpt>
      <trkpt lat="45.76182" lon="4.62852">
        <ele>708</ele>
        <time>2021-09-27T14:38:54.000Z</time>
      </trkpt>
      <trkpt lat="45.76183" lon="4.62853">
        <ele>708.4</ele>
        <time>2021-09-27T14:38:55.000Z</time>
      </trkpt>
      <trkpt lat="45.76183" lon="4.62855">
        <ele>709</ele>
        <time>2021-09-27T14:38:56.000Z</time>
      </trkpt>
      <trkpt lat="45.76184" lon="4.62856">
        <ele>709.4</ele>
        <time>2021-09-27T14:38:57.000Z</time>
      </trkpt>
      <trkpt lat="45.76186" lon="4.62857">
        <ele>709.8</ele>
        <time>2021-09-27T14:38:58.000Z</time>
      </trkpt>
      <trkpt lat="45.76187" lon="4.62857">
        <ele>710</ele>
        <time>2021-09-27T14:38:59.000Z</time>
      </trkpt>
      <trkpt lat="45.76189" lon="4.62859">
        <ele>710.6</ele>
        <time>2021-09-27T14:39:35.000Z</time>
      </trkpt>
      <trkpt lat="45.76194" lon="4.62862">
        <ele>710.6</ele>
        <time>2021-09-27T14:39:37.000Z</time>
      </trkpt>
      <trkpt lat="45.76205" lon="4.62864">
        <ele>710.6</ele>
        <time>2021-09-27T14:39:40.000Z</time>
      </trkpt>
      <trkpt lat="45.76213" lon="4.62865">
        <ele>710.6</ele>
        <time>2021-09-27T14:39:42.000Z</time>
      </trkpt>
      <trkpt lat="45.76216" lon="4.62866">
        <ele>710.6</ele>
        <time>2021-09-27T14:39:43.000Z</time>
      </trkpt>
      <trkpt lat="45.76219" lon="4.62867">
        <ele>710.4</ele>
        <time>2021-09-27T14:39:44.000Z</time>
      </trkpt>
      <trkpt lat="45.76223" lon="4.62867">
        <ele>710.4</ele>
        <time>2021-09-27T14:39:45.000Z</time>
      </trkpt>
      <trkpt lat="45.76231" lon="4.62867">
        <ele>710.2</ele>
        <time>2021-09-27T14:39:47.000Z</time>
      </trkpt>
      <trkpt lat="45.76245" lon="4.62865">
        <ele>709.8</ele>
        <time>2021-09-27T14:39:50.000Z</time>
      </trkpt>
      <trkpt lat="45.76255" lon="4.62866">
        <ele>709.6</ele>
        <time>2021-09-27T14:39:52.000Z</time>
      </trkpt>
      <trkpt lat="45.76259" lon="4.62867">
        <ele>709.4</ele>
        <time>2021-09-27T14:39:53.000Z</time>
      </trkpt>
      <trkpt lat="45.76263" lon="4.62868">
        <ele>709.2</ele>
        <time>2021-09-27T14:39:54.000Z</time>
      </trkpt>
      <trkpt lat="45.76267" lon="4.62871">
        <ele>709.2</ele>
        <time>2021-09-27T14:39:55.000Z</time>
      </trkpt>
      <trkpt lat="45.76271" lon="4.62874">
        <ele>709</ele>
        <time>2021-09-27T14:39:56.000Z</time>
      </trkpt>
      <trkpt lat="45.76275" lon="4.62878">
        <ele>708.8</ele>
        <time>2021-09-27T14:39:57.000Z</time>
      </trkpt>
      <trkpt lat="45.76277" lon="4.6288">
        <ele>708.6</ele>
        <time>2021-09-27T14:39:58.000Z</time>
      </trkpt>
      <trkpt lat="45.76279" lon="4.62882">
        <ele>708.2</ele>
        <time>2021-09-27T14:39:59.000Z</time>
      </trkpt>
      <trkpt lat="45.76281" lon="4.62885">
        <ele>708.2</ele>
        <time>2021-09-27T14:40:00.000Z</time>
      </trkpt>
      <trkpt lat="45.76283" lon="4.62887">
        <ele>708</ele>
        <time>2021-09-27T14:40:01.000Z</time>
      </trkpt>
      <trkpt lat="45.76285" lon="4.62894">
        <ele>708</ele>
        <time>2021-09-27T14:40:04.000Z</time>
      </trkpt>
      <trkpt lat="45.76285" lon="4.62895">
        <ele>707.8</ele>
        <time>2021-09-27T14:40:05.000Z</time>
      </trkpt>
      <trkpt lat="45.76285" lon="4.62896">
        <ele>707.8</ele>
        <time>2021-09-27T14:40:06.000Z</time>
      </trkpt>
      <trkpt lat="45.76285" lon="4.62898">
        <ele>707.8</ele>
        <time>2021-09-27T14:40:07.000Z</time>
      </trkpt>
      <trkpt lat="45.76285" lon="4.629">
        <ele>707.8</ele>
        <time>2021-09-27T14:40:08.000Z</time>
      </trkpt>
      <trkpt lat="45.76285" lon="4.62902">
        <ele>707.8</ele>
        <time>2021-09-27T14:40:09.000Z</time>
      </trkpt>
      <trkpt lat="45.76286" lon="4.62903">
        <ele>707.8</ele>
        <time>2021-09-27T14:40:10.000Z</time>
      </trkpt>
      <trkpt lat="45.76287" lon="4.62905">
        <ele>707.8</ele>
        <time>2021-09-27T14:40:11.000Z</time>
      </trkpt>
      <trkpt lat="45.76287" lon="4.62906">
        <ele>707.8</ele>
        <time>2021-09-27T14:40:12.000Z</time>
      </trkpt>
      <trkpt lat="45.76283" lon="4.62907">
        <ele>707.6</ele>
        <time>2021-09-27T14:40:29.000Z</time>
      </trkpt>
      <trkpt lat="45.76281" lon="4.6291">
        <ele>707.6</ele>
        <time>2021-09-27T14:40:30.000Z</time>
      </trkpt>
      <trkpt lat="45.76279" lon="4.62922">
        <ele>707.4</ele>
        <time>2021-09-27T14:40:33.000Z</time>
      </trkpt>
      <trkpt lat="45.76277" lon="4.62926">
        <ele>707.4</ele>
        <time>2021-09-27T14:40:34.000Z</time>
      </trkpt>
      <trkpt lat="45.76273" lon="4.62938">
        <ele>707.4</ele>
        <time>2021-09-27T14:40:37.000Z</time>
      </trkpt>
      <trkpt lat="45.76269" lon="4.62951">
        <ele>707.2</ele>
        <time>2021-09-27T14:40:40.000Z</time>
      </trkpt>
      <trkpt lat="45.76264" lon="4.62966">
        <ele>707</ele>
        <time>2021-09-27T14:40:44.000Z</time>
      </trkpt>
      <trkpt lat="45.7626" lon="4.62977">
        <ele>706.8</ele>
        <time>2021-09-27T14:40:46.000Z</time>
      </trkpt>
      <trkpt lat="45.7626" lon="4.62983">
        <ele>706.6</ele>
        <time>2021-09-27T14:40:47.000Z</time>
      </trkpt>
      <trkpt lat="45.76261" lon="4.62989">
        <ele>706.6</ele>
        <time>2021-09-27T14:40:48.000Z</time>
      </trkpt>
      <trkpt lat="45.76263" lon="4.62993">
        <ele>706.4</ele>
        <time>2021-09-27T14:40:49.000Z</time>
      </trkpt>
      <trkpt lat="45.76264" lon="4.62997">
        <ele>706.4</ele>
        <time>2021-09-27T14:40:50.000Z</time>
      </trkpt>
      <trkpt lat="45.76266" lon="4.63">
        <ele>706.4</ele>
        <time>2021-09-27T14:40:51.000Z</time>
      </trkpt>
      <trkpt lat="45.76267" lon="4.63004">
        <ele>706.4</ele>
        <time>2021-09-27T14:40:52.000Z</time>
      </trkpt>
      <trkpt lat="45.76268" lon="4.63007">
        <ele>706.2</ele>
        <time>2021-09-27T14:40:53.000Z</time>
      </trkpt>
      <trkpt lat="45.7627" lon="4.6301">
        <ele>706.2</ele>
        <time>2021-09-27T14:40:54.000Z</time>
      </trkpt>
      <trkpt lat="45.76271" lon="4.63013">
        <ele>706.2</ele>
        <time>2021-09-27T14:40:55.000Z</time>
      </trkpt>
      <trkpt lat="45.76272" lon="4.63016">
        <ele>706.2</ele>
        <time>2021-09-27T14:40:56.000Z</time>
      </trkpt>
      <trkpt lat="45.76273" lon="4.63019">
        <ele>706.2</ele>
        <time>2021-09-27T14:40:57.000Z</time>
      </trkpt>
      <trkpt lat="45.76273" lon="4.63023">
        <ele>706.2</ele>
        <time>2021-09-27T14:40:58.000Z</time>
      </trkpt>
      <trkpt lat="45.76274" lon="4.63026">
        <ele>706.4</ele>
        <time>2021-09-27T14:40:59.000Z</time>
      </trkpt>
      <trkpt lat="45.76275" lon="4.63028">
        <ele>706.4</ele>
        <time>2021-09-27T14:41:00.000Z</time>
      </trkpt>
      <trkpt lat="45.76277" lon="4.6303">
        <ele>706.4</ele>
        <time>2021-09-27T14:41:01.000Z</time>
      </trkpt>
      <trkpt lat="45.76278" lon="4.63033">
        <ele>706.8</ele>
        <time>2021-09-27T14:41:02.000Z</time>
      </trkpt>
      <trkpt lat="45.76278" lon="4.63035">
        <ele>707.2</ele>
        <time>2021-09-27T14:41:03.000Z</time>
      </trkpt>
      <trkpt lat="45.76277" lon="4.63037">
        <ele>707.6</ele>
        <time>2021-09-27T14:41:04.000Z</time>
      </trkpt>
      <trkpt lat="45.76275" lon="4.63042">
        <ele>708</ele>
        <time>2021-09-27T14:41:06.000Z</time>
      </trkpt>
      <trkpt lat="45.76273" lon="4.63044">
        <ele>708</ele>
        <time>2021-09-27T14:41:07.000Z</time>
      </trkpt>
      <trkpt lat="45.76266" lon="4.63048">
        <ele>708.2</ele>
        <time>2021-09-27T14:41:10.000Z</time>
      </trkpt>
      <trkpt lat="45.76265" lon="4.6305">
        <ele>708.2</ele>
        <time>2021-09-27T14:41:11.000Z</time>
      </trkpt>
      <trkpt lat="45.76265" lon="4.63053">
        <ele>708.2</ele>
        <time>2021-09-27T14:41:12.000Z</time>
      </trkpt>
      <trkpt lat="45.76264" lon="4.63057">
        <ele>708.2</ele>
        <time>2021-09-27T14:41:13.000Z</time>
      </trkpt>
      <trkpt lat="45.76263" lon="4.63061">
        <ele>708.2</ele>
        <time>2021-09-27T14:41:14.000Z</time>
      </trkpt>
      <trkpt lat="45.76262" lon="4.63065">
        <ele>708.2</ele>
        <time>2021-09-27T14:41:15.000Z</time>
      </trkpt>
      <trkpt lat="45.76261" lon="4.63069">
        <ele>708</ele>
        <time>2021-09-27T14:41:16.000Z</time>
      </trkpt>
      <trkpt lat="45.76254" lon="4.63097">
        <ele>706.8</ele>
        <time>2021-09-27T14:41:21.000Z</time>
      </trkpt>
      <trkpt lat="45.76251" lon="4.63111">
        <ele>706.6</ele>
        <time>2021-09-27T14:41:23.000Z</time>
      </trkpt>
      <trkpt lat="45.76248" lon="4.63124">
        <ele>706.2</ele>
        <time>2021-09-27T14:41:25.000Z</time>
      </trkpt>
      <trkpt lat="45.76246" lon="4.6313">
        <ele>706</ele>
        <time>2021-09-27T14:41:26.000Z</time>
      </trkpt>
      <trkpt lat="45.76242" lon="4.63152">
        <ele>705.2</ele>
        <time>2021-09-27T14:41:29.000Z</time>
      </trkpt>
      <trkpt lat="45.76238" lon="4.63173">
        <ele>703.8</ele>
        <time>2021-09-27T14:41:32.000Z</time>
      </trkpt>
      <trkpt lat="45.76237" lon="4.6318">
        <ele>703.2</ele>
        <time>2021-09-27T14:41:33.000Z</time>
      </trkpt>
      <trkpt lat="45.76237" lon="4.63187">
        <ele>703</ele>
        <time>2021-09-27T14:41:34.000Z</time>
      </trkpt>
      <trkpt lat="45.76237" lon="4.63192">
        <ele>702.8</ele>
        <time>2021-09-27T14:41:35.000Z</time>
      </trkpt>
      <trkpt lat="45.76238" lon="4.63194">
        <ele>702.2</ele>
        <time>2021-09-27T14:41:36.000Z</time>
      </trkpt>
      <trkpt lat="45.76238" lon="4.63197">
        <ele>701.8</ele>
        <time>2021-09-27T14:41:37.000Z</time>
      </trkpt>
      <trkpt lat="45.76237" lon="4.63199">
        <ele>701.4</ele>
        <time>2021-09-27T14:41:38.000Z</time>
      </trkpt>
      <trkpt lat="45.76237" lon="4.63202">
        <ele>701</ele>
        <time>2021-09-27T14:41:39.000Z</time>
      </trkpt>
      <trkpt lat="45.76237" lon="4.63205">
        <ele>700.8</ele>
        <time>2021-09-27T14:41:40.000Z</time>
      </trkpt>
      <trkpt lat="45.76238" lon="4.63208">
        <ele>700.6</ele>
        <time>2021-09-27T14:41:41.000Z</time>
      </trkpt>
      <trkpt lat="45.76239" lon="4.63212">
        <ele>700.4</ele>
        <time>2021-09-27T14:41:42.000Z</time>
      </trkpt>
      <trkpt lat="45.7624" lon="4.63215">
        <ele>700.2</ele>
        <time>2021-09-27T14:41:43.000Z</time>
      </trkpt>
      <trkpt lat="45.7624" lon="4.63218">
        <ele>700.2</ele>
        <time>2021-09-27T14:41:44.000Z</time>
      </trkpt>
      <trkpt lat="45.76241" lon="4.63222">
        <ele>700.2</ele>
        <time>2021-09-27T14:41:45.000Z</time>
      </trkpt>
      <trkpt lat="45.76242" lon="4.63229">
        <ele>699.8</ele>
        <time>2021-09-27T14:41:47.000Z</time>
      </trkpt>
      <trkpt lat="45.76242" lon="4.63238">
        <ele>699.8</ele>
        <time>2021-09-27T14:41:49.000Z</time>
      </trkpt>
      <trkpt lat="45.76242" lon="4.63246">
        <ele>699.8</ele>
        <time>2021-09-27T14:41:51.000Z</time>
      </trkpt>
      <trkpt lat="45.76241" lon="4.63253">
        <ele>699.6</ele>
        <time>2021-09-27T14:41:53.000Z</time>
      </trkpt>
      <trkpt lat="45.76241" lon="4.63256">
        <ele>699.4</ele>
        <time>2021-09-27T14:41:54.000Z</time>
      </trkpt>
      <trkpt lat="45.76242" lon="4.63259">
        <ele>699.4</ele>
        <time>2021-09-27T14:41:55.000Z</time>
      </trkpt>
      <trkpt lat="45.76242" lon="4.63263">
        <ele>699.2</ele>
        <time>2021-09-27T14:41:56.000Z</time>
      </trkpt>
      <trkpt lat="45.76243" lon="4.63266">
        <ele>699</ele>
        <time>2021-09-27T14:41:57.000Z</time>
      </trkpt>
      <trkpt lat="45.76244" lon="4.63269">
        <ele>698.6</ele>
        <time>2021-09-27T14:41:58.000Z</time>
      </trkpt>
      <trkpt lat="45.76245" lon="4.63272">
        <ele>698.6</ele>
        <time>2021-09-27T14:41:59.000Z</time>
      </trkpt>
      <trkpt lat="45.76245" lon="4.63276">
        <ele>698.4</ele>
        <time>2021-09-27T14:42:00.000Z</time>
      </trkpt>
      <trkpt lat="45.76245" lon="4.63283">
        <ele>698</ele>
        <time>2021-09-27T14:42:02.000Z</time>
      </trkpt>
      <trkpt lat="45.76244" lon="4.63292">
        <ele>698</ele>
        <time>2021-09-27T14:42:04.000Z</time>
      </trkpt>
      <trkpt lat="45.76241" lon="4.63303">
        <ele>697.8</ele>
        <time>2021-09-27T14:42:06.000Z</time>
      </trkpt>
      <trkpt lat="45.76239" lon="4.63307">
        <ele>697.8</ele>
        <time>2021-09-27T14:42:07.000Z</time>
      </trkpt>
      <trkpt lat="45.76236" lon="4.63311">
        <ele>697.8</ele>
        <time>2021-09-27T14:42:08.000Z</time>
      </trkpt>
      <trkpt lat="45.76234" lon="4.63319">
        <ele>697.8</ele>
        <time>2021-09-27T14:42:10.000Z</time>
      </trkpt>
      <trkpt lat="45.76234" lon="4.63325">
        <ele>697.6</ele>
        <time>2021-09-27T14:42:11.000Z</time>
      </trkpt>
      <trkpt lat="45.76234" lon="4.63331">
        <ele>697.4</ele>
        <time>2021-09-27T14:42:12.000Z</time>
      </trkpt>
      <trkpt lat="45.76235" lon="4.63338">
        <ele>697</ele>
        <time>2021-09-27T14:42:13.000Z</time>
      </trkpt>
      <trkpt lat="45.76238" lon="4.63344">
        <ele>696.2</ele>
        <time>2021-09-27T14:42:14.000Z</time>
      </trkpt>
      <trkpt lat="45.76242" lon="4.63347">
        <ele>695.6</ele>
        <time>2021-09-27T14:42:15.000Z</time>
      </trkpt>
      <trkpt lat="45.76244" lon="4.6335">
        <ele>694.8</ele>
        <time>2021-09-27T14:42:16.000Z</time>
      </trkpt>
      <trkpt lat="45.76246" lon="4.63353">
        <ele>694.2</ele>
        <time>2021-09-27T14:42:17.000Z</time>
      </trkpt>
      <trkpt lat="45.76247" lon="4.63356">
        <ele>694</ele>
        <time>2021-09-27T14:42:18.000Z</time>
      </trkpt>
      <trkpt lat="45.76252" lon="4.6336">
        <ele>693.8</ele>
        <time>2021-09-27T14:42:20.000Z</time>
      </trkpt>
      <trkpt lat="45.76255" lon="4.63361">
        <ele>693.6</ele>
        <time>2021-09-27T14:42:21.000Z</time>
      </trkpt>
      <trkpt lat="45.76257" lon="4.63362">
        <ele>693.6</ele>
        <time>2021-09-27T14:42:22.000Z</time>
      </trkpt>
      <trkpt lat="45.76258" lon="4.63362">
        <ele>693.6</ele>
        <time>2021-09-27T14:42:23.000Z</time>
      </trkpt>
      <trkpt lat="45.7626" lon="4.63362">
        <ele>693.6</ele>
        <time>2021-09-27T14:42:24.000Z</time>
      </trkpt>
      <trkpt lat="45.76262" lon="4.63362">
        <ele>693.6</ele>
        <time>2021-09-27T14:42:25.000Z</time>
      </trkpt>
      <trkpt lat="45.76266" lon="4.63363">
        <ele>693.8</ele>
        <time>2021-09-27T14:42:27.000Z</time>
      </trkpt>
      <trkpt lat="45.76269" lon="4.63364">
        <ele>694</ele>
        <time>2021-09-27T14:42:28.000Z</time>
      </trkpt>
      <trkpt lat="45.76271" lon="4.63364">
        <ele>694.6</ele>
        <time>2021-09-27T14:42:29.000Z</time>
      </trkpt>
      <trkpt lat="45.76273" lon="4.63364">
        <ele>695</ele>
        <time>2021-09-27T14:42:30.000Z</time>
      </trkpt>
      <trkpt lat="45.76275" lon="4.63364">
        <ele>695</ele>
        <time>2021-09-27T14:42:31.000Z</time>
      </trkpt>
      <trkpt lat="45.76277" lon="4.63364">
        <ele>695.4</ele>
        <time>2021-09-27T14:42:32.000Z</time>
      </trkpt>
      <trkpt lat="45.76279" lon="4.63365">
        <ele>696</ele>
        <time>2021-09-27T14:42:33.000Z</time>
      </trkpt>
      <trkpt lat="45.76281" lon="4.63367">
        <ele>696.4</ele>
        <time>2021-09-27T14:42:34.000Z</time>
      </trkpt>
      <trkpt lat="45.76283" lon="4.63369">
        <ele>696.8</ele>
        <time>2021-09-27T14:42:35.000Z</time>
      </trkpt>
      <trkpt lat="45.76285" lon="4.63371">
        <ele>697.4</ele>
        <time>2021-09-27T14:42:36.000Z</time>
      </trkpt>
      <trkpt lat="45.76287" lon="4.63373">
        <ele>697.8</ele>
        <time>2021-09-27T14:42:37.000Z</time>
      </trkpt>
      <trkpt lat="45.76289" lon="4.63374">
        <ele>698.2</ele>
        <time>2021-09-27T14:42:38.000Z</time>
      </trkpt>
      <trkpt lat="45.7629" lon="4.63375">
        <ele>698.6</ele>
        <time>2021-09-27T14:42:39.000Z</time>
      </trkpt>
      <trkpt lat="45.76292" lon="4.63374">
        <ele>698.8</ele>
        <time>2021-09-27T14:42:40.000Z</time>
      </trkpt>
      <trkpt lat="45.76294" lon="4.63374">
        <ele>699.2</ele>
        <time>2021-09-27T14:42:41.000Z</time>
      </trkpt>
      <trkpt lat="45.76297" lon="4.63374">
        <ele>699.4</ele>
        <time>2021-09-27T14:42:42.000Z</time>
      </trkpt>
      <trkpt lat="45.76298" lon="4.63374">
        <ele>699.6</ele>
        <time>2021-09-27T14:42:43.000Z</time>
      </trkpt>
      <trkpt lat="45.763" lon="4.63372">
        <ele>699.8</ele>
        <time>2021-09-27T14:42:44.000Z</time>
      </trkpt>
      <trkpt lat="45.76301" lon="4.63371">
        <ele>700</ele>
        <time>2021-09-27T14:42:45.000Z</time>
      </trkpt>
      <trkpt lat="45.76302" lon="4.63369">
        <ele>700.2</ele>
        <time>2021-09-27T14:42:46.000Z</time>
      </trkpt>
      <trkpt lat="45.76304" lon="4.63368">
        <ele>700.4</ele>
        <time>2021-09-27T14:42:47.000Z</time>
      </trkpt>
      <trkpt lat="45.76305" lon="4.63367">
        <ele>700.8</ele>
        <time>2021-09-27T14:42:48.000Z</time>
      </trkpt>
      <trkpt lat="45.76307" lon="4.63367">
        <ele>701</ele>
        <time>2021-09-27T14:42:49.000Z</time>
      </trkpt>
      <trkpt lat="45.76309" lon="4.63366">
        <ele>701</ele>
        <time>2021-09-27T14:42:50.000Z</time>
      </trkpt>
      <trkpt lat="45.7631" lon="4.63366">
        <ele>701.2</ele>
        <time>2021-09-27T14:42:51.000Z</time>
      </trkpt>
      <trkpt lat="45.76311" lon="4.63367">
        <ele>701.4</ele>
        <time>2021-09-27T14:42:52.000Z</time>
      </trkpt>
      <trkpt lat="45.76312" lon="4.63366">
        <ele>701.6</ele>
        <time>2021-09-27T14:42:53.000Z</time>
      </trkpt>
      <trkpt lat="45.76314" lon="4.63365">
        <ele>701.6</ele>
        <time>2021-09-27T14:42:54.000Z</time>
      </trkpt>
      <trkpt lat="45.76316" lon="4.63363">
        <ele>702</ele>
        <time>2021-09-27T14:42:55.000Z</time>
      </trkpt>
      <trkpt lat="45.76317" lon="4.63361">
        <ele>702.2</ele>
        <time>2021-09-27T14:42:56.000Z</time>
      </trkpt>
      <trkpt lat="45.76319" lon="4.63359">
        <ele>702.6</ele>
        <time>2021-09-27T14:42:57.000Z</time>
      </trkpt>
      <trkpt lat="45.76321" lon="4.63358">
        <ele>702.8</ele>
        <time>2021-09-27T14:42:58.000Z</time>
      </trkpt>
      <trkpt lat="45.76322" lon="4.63357">
        <ele>703</ele>
        <time>2021-09-27T14:42:59.000Z</time>
      </trkpt>
      <trkpt lat="45.76323" lon="4.63356">
        <ele>703</ele>
        <time>2021-09-27T14:43:00.000Z</time>
      </trkpt>
      <trkpt lat="45.76325" lon="4.63355">
        <ele>703.2</ele>
        <time>2021-09-27T14:43:01.000Z</time>
      </trkpt>
      <trkpt lat="45.76326" lon="4.63353">
        <ele>703.4</ele>
        <time>2021-09-27T14:43:02.000Z</time>
      </trkpt>
      <trkpt lat="45.76327" lon="4.63352">
        <ele>703.6</ele>
        <time>2021-09-27T14:43:03.000Z</time>
      </trkpt>
      <trkpt lat="45.76329" lon="4.63351">
        <ele>703.6</ele>
        <time>2021-09-27T14:43:04.000Z</time>
      </trkpt>
      <trkpt lat="45.76331" lon="4.63349">
        <ele>703.8</ele>
        <time>2021-09-27T14:43:05.000Z</time>
      </trkpt>
      <trkpt lat="45.76332" lon="4.63347">
        <ele>704.2</ele>
        <time>2021-09-27T14:43:06.000Z</time>
      </trkpt>
      <trkpt lat="45.76334" lon="4.63346">
        <ele>704.2</ele>
        <time>2021-09-27T14:43:07.000Z</time>
      </trkpt>
      <trkpt lat="45.76335" lon="4.63344">
        <ele>704.4</ele>
        <time>2021-09-27T14:43:08.000Z</time>
      </trkpt>
      <trkpt lat="45.76337" lon="4.63342">
        <ele>704.4</ele>
        <time>2021-09-27T14:43:09.000Z</time>
      </trkpt>
      <trkpt lat="45.76338" lon="4.6334">
        <ele>704.6</ele>
        <time>2021-09-27T14:43:10.000Z</time>
      </trkpt>
      <trkpt lat="45.76339" lon="4.63337">
        <ele>704.6</ele>
        <time>2021-09-27T14:43:11.000Z</time>
      </trkpt>
      <trkpt lat="45.76341" lon="4.63333">
        <ele>704.8</ele>
        <time>2021-09-27T14:43:12.000Z</time>
      </trkpt>
      <trkpt lat="45.76343" lon="4.63331">
        <ele>704.8</ele>
        <time>2021-09-27T14:43:13.000Z</time>
      </trkpt>
      <trkpt lat="45.76344" lon="4.6333">
        <ele>704.8</ele>
        <time>2021-09-27T14:43:14.000Z</time>
      </trkpt>
      <trkpt lat="45.76346" lon="4.63328">
        <ele>705</ele>
        <time>2021-09-27T14:43:15.000Z</time>
      </trkpt>
      <trkpt lat="45.76347" lon="4.63326">
        <ele>705</ele>
        <time>2021-09-27T14:43:16.000Z</time>
      </trkpt>
      <trkpt lat="45.76347" lon="4.63325">
        <ele>705</ele>
        <time>2021-09-27T14:43:17.000Z</time>
      </trkpt>
      <trkpt lat="45.76349" lon="4.63324">
        <ele>705</ele>
        <time>2021-09-27T14:43:18.000Z</time>
      </trkpt>
      <trkpt lat="45.7635" lon="4.63322">
        <ele>705.2</ele>
        <time>2021-09-27T14:43:19.000Z</time>
      </trkpt>
      <trkpt lat="45.76351" lon="4.63321">
        <ele>705.4</ele>
        <time>2021-09-27T14:43:20.000Z</time>
      </trkpt>
      <trkpt lat="45.76352" lon="4.6332">
        <ele>705.4</ele>
        <time>2021-09-27T14:43:21.000Z</time>
      </trkpt>
      <trkpt lat="45.76354" lon="4.6332">
        <ele>705.8</ele>
        <time>2021-09-27T14:43:23.000Z</time>
      </trkpt>
      <trkpt lat="45.76355" lon="4.6332">
        <ele>706</ele>
        <time>2021-09-27T14:43:24.000Z</time>
      </trkpt>
      <trkpt lat="45.76356" lon="4.6332">
        <ele>706</ele>
        <time>2021-09-27T14:43:25.000Z</time>
      </trkpt>
      <trkpt lat="45.76358" lon="4.6332">
        <ele>706.2</ele>
        <time>2021-09-27T14:43:26.000Z</time>
      </trkpt>
      <trkpt lat="45.76359" lon="4.6332">
        <ele>706.2</ele>
        <time>2021-09-27T14:43:27.000Z</time>
      </trkpt>
      <trkpt lat="45.7636" lon="4.6332">
        <ele>706.4</ele>
        <time>2021-09-27T14:43:29.000Z</time>
      </trkpt>
      <trkpt lat="45.76361" lon="4.63319">
        <ele>706.4</ele>
        <time>2021-09-27T14:43:30.000Z</time>
      </trkpt>
      <trkpt lat="45.76362" lon="4.63318">
        <ele>706.6</ele>
        <time>2021-09-27T14:43:31.000Z</time>
      </trkpt>
      <trkpt lat="45.76364" lon="4.63317">
        <ele>706.6</ele>
        <time>2021-09-27T14:43:32.000Z</time>
      </trkpt>
      <trkpt lat="45.76365" lon="4.63316">
        <ele>706.6</ele>
        <time>2021-09-27T14:43:33.000Z</time>
      </trkpt>
      <trkpt lat="45.76366" lon="4.63315">
        <ele>706.6</ele>
        <time>2021-09-27T14:43:34.000Z</time>
      </trkpt>
      <trkpt lat="45.76368" lon="4.63314">
        <ele>706.6</ele>
        <time>2021-09-27T14:43:35.000Z</time>
      </trkpt>
      <trkpt lat="45.76369" lon="4.63313">
        <ele>706.6</ele>
        <time>2021-09-27T14:43:36.000Z</time>
      </trkpt>
      <trkpt lat="45.76371" lon="4.63313">
        <ele>706.6</ele>
        <time>2021-09-27T14:43:37.000Z</time>
      </trkpt>
      <trkpt lat="45.76372" lon="4.63312">
        <ele>706.6</ele>
        <time>2021-09-27T14:43:38.000Z</time>
      </trkpt>
      <trkpt lat="45.76382" lon="4.63303">
        <ele>706.6</ele>
        <time>2021-09-27T14:43:44.000Z</time>
      </trkpt>
      <trkpt lat="45.76385" lon="4.633">
        <ele>706.6</ele>
        <time>2021-09-27T14:43:46.000Z</time>
      </trkpt>
      <trkpt lat="45.76388" lon="4.63298">
        <ele>706.6</ele>
        <time>2021-09-27T14:43:48.000Z</time>
      </trkpt>
      <trkpt lat="45.76391" lon="4.63296">
        <ele>706.6</ele>
        <time>2021-09-27T14:43:50.000Z</time>
      </trkpt>
      <trkpt lat="45.76394" lon="4.63292">
        <ele>706.6</ele>
        <time>2021-09-27T14:43:51.000Z</time>
      </trkpt>
      <trkpt lat="45.76405" lon="4.63283">
        <ele>706.6</ele>
        <time>2021-09-27T14:43:55.000Z</time>
      </trkpt>
      <trkpt lat="45.76411" lon="4.63278">
        <ele>706.6</ele>
        <time>2021-09-27T14:43:57.000Z</time>
      </trkpt>
      <trkpt lat="45.76422" lon="4.63266">
        <ele>706.2</ele>
        <time>2021-09-27T14:44:02.000Z</time>
      </trkpt>
      <trkpt lat="45.76429" lon="4.63259">
        <ele>706.2</ele>
        <time>2021-09-27T14:44:04.000Z</time>
      </trkpt>
      <trkpt lat="45.76436" lon="4.63255">
        <ele>706.2</ele>
        <time>2021-09-27T14:44:06.000Z</time>
      </trkpt>
      <trkpt lat="45.76445" lon="4.6325">
        <ele>706</ele>
        <time>2021-09-27T14:44:08.000Z</time>
      </trkpt>
      <trkpt lat="45.76448" lon="4.63248">
        <ele>706</ele>
        <time>2021-09-27T14:44:09.000Z</time>
      </trkpt>
      <trkpt lat="45.76451" lon="4.63246">
        <ele>706</ele>
        <time>2021-09-27T14:44:10.000Z</time>
      </trkpt>
      <trkpt lat="45.76454" lon="4.63243">
        <ele>705.6</ele>
        <time>2021-09-27T14:44:11.000Z</time>
      </trkpt>
      <trkpt lat="45.76457" lon="4.6324">
        <ele>705.4</ele>
        <time>2021-09-27T14:44:12.000Z</time>
      </trkpt>
      <trkpt lat="45.7646" lon="4.63238">
        <ele>705</ele>
        <time>2021-09-27T14:44:13.000Z</time>
      </trkpt>
      <trkpt lat="45.76462" lon="4.63235">
        <ele>704.8</ele>
        <time>2021-09-27T14:44:14.000Z</time>
      </trkpt>
      <trkpt lat="45.76468" lon="4.6323">
        <ele>704.6</ele>
        <time>2021-09-27T14:44:16.000Z</time>
      </trkpt>
      <trkpt lat="45.7647" lon="4.63226">
        <ele>704.6</ele>
        <time>2021-09-27T14:44:17.000Z</time>
      </trkpt>
      <trkpt lat="45.7647" lon="4.63223">
        <ele>704.6</ele>
        <time>2021-09-27T14:44:18.000Z</time>
      </trkpt>
      <trkpt lat="45.76469" lon="4.63221">
        <ele>704.6</ele>
        <time>2021-09-27T14:44:19.000Z</time>
      </trkpt>
      <trkpt lat="45.76469" lon="4.63219">
        <ele>704.6</ele>
        <time>2021-09-27T14:44:20.000Z</time>
      </trkpt>
      <trkpt lat="45.76469" lon="4.63216">
        <ele>704.6</ele>
        <time>2021-09-27T14:44:21.000Z</time>
      </trkpt>
      <trkpt lat="45.76469" lon="4.63214">
        <ele>704.6</ele>
        <time>2021-09-27T14:44:22.000Z</time>
      </trkpt>
      <trkpt lat="45.76469" lon="4.63212">
        <ele>704.6</ele>
        <time>2021-09-27T14:44:23.000Z</time>
      </trkpt>
      <trkpt lat="45.76468" lon="4.63209">
        <ele>704.6</ele>
        <time>2021-09-27T14:44:24.000Z</time>
      </trkpt>
      <trkpt lat="45.76468" lon="4.63206">
        <ele>704.6</ele>
        <time>2021-09-27T14:44:25.000Z</time>
      </trkpt>
      <trkpt lat="45.76468" lon="4.63204">
        <ele>704.8</ele>
        <time>2021-09-27T14:44:26.000Z</time>
      </trkpt>
      <trkpt lat="45.76468" lon="4.63202">
        <ele>704.8</ele>
        <time>2021-09-27T14:44:27.000Z</time>
      </trkpt>
      <trkpt lat="45.76467" lon="4.63198">
        <ele>705</ele>
        <time>2021-09-27T14:44:28.000Z</time>
      </trkpt>
      <trkpt lat="45.76468" lon="4.63194">
        <ele>705.4</ele>
        <time>2021-09-27T14:44:29.000Z</time>
      </trkpt>
      <trkpt lat="45.7647" lon="4.63191">
        <ele>705.6</ele>
        <time>2021-09-27T14:44:30.000Z</time>
      </trkpt>
      <trkpt lat="45.76472" lon="4.63189">
        <ele>706</ele>
        <time>2021-09-27T14:44:31.000Z</time>
      </trkpt>
      <trkpt lat="45.76474" lon="4.63187">
        <ele>706.4</ele>
        <time>2021-09-27T14:44:32.000Z</time>
      </trkpt>
      <trkpt lat="45.76475" lon="4.63186">
        <ele>706.8</ele>
        <time>2021-09-27T14:44:33.000Z</time>
      </trkpt>
      <trkpt lat="45.76478" lon="4.63186">
        <ele>707</ele>
        <time>2021-09-27T14:44:34.000Z</time>
      </trkpt>
      <trkpt lat="45.76484" lon="4.63181">
        <ele>707</ele>
        <time>2021-09-27T14:44:35.000Z</time>
      </trkpt>
      <trkpt lat="45.76486" lon="4.63178">
        <ele>707.2</ele>
        <time>2021-09-27T14:44:36.000Z</time>
      </trkpt>
      <trkpt lat="45.76489" lon="4.63175">
        <ele>707.4</ele>
        <time>2021-09-27T14:44:37.000Z</time>
      </trkpt>
      <trkpt lat="45.76492" lon="4.63171">
        <ele>707.4</ele>
        <time>2021-09-27T14:44:38.000Z</time>
      </trkpt>
      <trkpt lat="45.76495" lon="4.63166">
        <ele>707.4</ele>
        <time>2021-09-27T14:44:39.000Z</time>
      </trkpt>
      <trkpt lat="45.76498" lon="4.6316">
        <ele>707.4</ele>
        <time>2021-09-27T14:44:40.000Z</time>
      </trkpt>
      <trkpt lat="45.76498" lon="4.63155">
        <ele>707.6</ele>
        <time>2021-09-27T14:44:42.000Z</time>
      </trkpt>
      <trkpt lat="45.76498" lon="4.63151">
        <ele>707.6</ele>
        <time>2021-09-27T14:44:43.000Z</time>
      </trkpt>
      <trkpt lat="45.76496" lon="4.63147">
        <ele>707.8</ele>
        <time>2021-09-27T14:44:44.000Z</time>
      </trkpt>
      <trkpt lat="45.76493" lon="4.63146">
        <ele>707.8</ele>
        <time>2021-09-27T14:44:45.000Z</time>
      </trkpt>
      <trkpt lat="45.7649" lon="4.63144">
        <ele>708</ele>
        <time>2021-09-27T14:44:46.000Z</time>
      </trkpt>
      <trkpt lat="45.76489" lon="4.63144">
        <ele>708.2</ele>
        <time>2021-09-27T14:44:47.000Z</time>
      </trkpt>
      <trkpt lat="45.76487" lon="4.63143">
        <ele>708.2</ele>
        <time>2021-09-27T14:44:49.000Z</time>
      </trkpt>
      <trkpt lat="45.76486" lon="4.63143">
        <ele>708.2</ele>
        <time>2021-09-27T14:44:50.000Z</time>
      </trkpt>
      <trkpt lat="45.76485" lon="4.63142">
        <ele>708.4</ele>
        <time>2021-09-27T14:44:51.000Z</time>
      </trkpt>
      <trkpt lat="45.76485" lon="4.63141">
        <ele>708.4</ele>
        <time>2021-09-27T14:44:52.000Z</time>
      </trkpt>
      <trkpt lat="45.76484" lon="4.63138">
        <ele>709</ele>
        <time>2021-09-27T14:44:55.000Z</time>
      </trkpt>
      <trkpt lat="45.76484" lon="4.63137">
        <ele>709.6</ele>
        <time>2021-09-27T14:44:56.000Z</time>
      </trkpt>
      <trkpt lat="45.76483" lon="4.63133">
        <ele>710.2</ele>
        <time>2021-09-27T14:44:58.000Z</time>
      </trkpt>
      <trkpt lat="45.76482" lon="4.63129">
        <ele>711</ele>
        <time>2021-09-27T14:45:00.000Z</time>
      </trkpt>
      <trkpt lat="45.7648" lon="4.63128">
        <ele>711.4</ele>
        <time>2021-09-27T14:45:01.000Z</time>
      </trkpt>
      <trkpt lat="45.76479" lon="4.63126">
        <ele>711.6</ele>
        <time>2021-09-27T14:45:02.000Z</time>
      </trkpt>
      <trkpt lat="45.76478" lon="4.63125">
        <ele>711.8</ele>
        <time>2021-09-27T14:45:03.000Z</time>
      </trkpt>
      <trkpt lat="45.76476" lon="4.63123">
        <ele>712.2</ele>
        <time>2021-09-27T14:45:04.000Z</time>
      </trkpt>
      <trkpt lat="45.76476" lon="4.6312">
        <ele>712.4</ele>
        <time>2021-09-27T14:45:05.000Z</time>
      </trkpt>
      <trkpt lat="45.76475" lon="4.63116">
        <ele>713</ele>
        <time>2021-09-27T14:45:07.000Z</time>
      </trkpt>
      <trkpt lat="45.76475" lon="4.63114">
        <ele>713.2</ele>
        <time>2021-09-27T14:45:08.000Z</time>
      </trkpt>
      <trkpt lat="45.76475" lon="4.6311">
        <ele>713.8</ele>
        <time>2021-09-27T14:45:10.000Z</time>
      </trkpt>
      <trkpt lat="45.76475" lon="4.63107">
        <ele>714.2</ele>
        <time>2021-09-27T14:45:11.000Z</time>
      </trkpt>
      <trkpt lat="45.76475" lon="4.63104">
        <ele>714.4</ele>
        <time>2021-09-27T14:45:12.000Z</time>
      </trkpt>
      <trkpt lat="45.76475" lon="4.63101">
        <ele>714.6</ele>
        <time>2021-09-27T14:45:13.000Z</time>
      </trkpt>
      <trkpt lat="45.76476" lon="4.63098">
        <ele>714.6</ele>
        <time>2021-09-27T14:45:14.000Z</time>
      </trkpt>
      <trkpt lat="45.76477" lon="4.63096">
        <ele>715</ele>
        <time>2021-09-27T14:45:15.000Z</time>
      </trkpt>
      <trkpt lat="45.76476" lon="4.63094">
        <ele>715.2</ele>
        <time>2021-09-27T14:45:16.000Z</time>
      </trkpt>
      <trkpt lat="45.76477" lon="4.63091">
        <ele>715.6</ele>
        <time>2021-09-27T14:45:18.000Z</time>
      </trkpt>
      <trkpt lat="45.76479" lon="4.63088">
        <ele>715.6</ele>
        <time>2021-09-27T14:45:19.000Z</time>
      </trkpt>
      <trkpt lat="45.76481" lon="4.63086">
        <ele>715.8</ele>
        <time>2021-09-27T14:45:20.000Z</time>
      </trkpt>
      <trkpt lat="45.76482" lon="4.63084">
        <ele>715.8</ele>
        <time>2021-09-27T14:45:21.000Z</time>
      </trkpt>
      <trkpt lat="45.76484" lon="4.63081">
        <ele>716</ele>
        <time>2021-09-27T14:45:22.000Z</time>
      </trkpt>
      <trkpt lat="45.76485" lon="4.63079">
        <ele>716</ele>
        <time>2021-09-27T14:45:23.000Z</time>
      </trkpt>
      <trkpt lat="45.76486" lon="4.63077">
        <ele>716.2</ele>
        <time>2021-09-27T14:45:24.000Z</time>
      </trkpt>
      <trkpt lat="45.76487" lon="4.63076">
        <ele>716.2</ele>
        <time>2021-09-27T14:45:25.000Z</time>
      </trkpt>
      <trkpt lat="45.76488" lon="4.63073">
        <ele>716.4</ele>
        <time>2021-09-27T14:45:27.000Z</time>
      </trkpt>
      <trkpt lat="45.76491" lon="4.63072">
        <ele>716.4</ele>
        <time>2021-09-27T14:45:29.000Z</time>
      </trkpt>
      <trkpt lat="45.76493" lon="4.63071">
        <ele>716.4</ele>
        <time>2021-09-27T14:45:31.000Z</time>
      </trkpt>
      <trkpt lat="45.76495" lon="4.63071">
        <ele>716.4</ele>
        <time>2021-09-27T14:45:32.000Z</time>
      </trkpt>
      <trkpt lat="45.76497" lon="4.63071">
        <ele>716.6</ele>
        <time>2021-09-27T14:45:34.000Z</time>
      </trkpt>
      <trkpt lat="45.76499" lon="4.63071">
        <ele>716.6</ele>
        <time>2021-09-27T14:45:36.000Z</time>
      </trkpt>
      <trkpt lat="45.765" lon="4.63071">
        <ele>716.6</ele>
        <time>2021-09-27T14:45:37.000Z</time>
      </trkpt>
      <trkpt lat="45.76505" lon="4.6307">
        <ele>716.6</ele>
        <time>2021-09-27T14:45:38.000Z</time>
      </trkpt>
      <trkpt lat="45.76507" lon="4.6307">
        <ele>716.8</ele>
        <time>2021-09-27T14:45:40.000Z</time>
      </trkpt>
      <trkpt lat="45.76511" lon="4.6307">
        <ele>716.8</ele>
        <time>2021-09-27T14:45:41.000Z</time>
      </trkpt>
      <trkpt lat="45.76519" lon="4.63071">
        <ele>716.8</ele>
        <time>2021-09-27T14:45:44.000Z</time>
      </trkpt>
      <trkpt lat="45.76521" lon="4.6307">
        <ele>716.8</ele>
        <time>2021-09-27T14:45:46.000Z</time>
      </trkpt>
      <trkpt lat="45.7653" lon="4.6307">
        <ele>716.8</ele>
        <time>2021-09-27T14:45:49.000Z</time>
      </trkpt>
      <trkpt lat="45.76533" lon="4.63069">
        <ele>716.8</ele>
        <time>2021-09-27T14:45:50.000Z</time>
      </trkpt>
      <trkpt lat="45.76536" lon="4.63067">
        <ele>716.8</ele>
        <time>2021-09-27T14:45:51.000Z</time>
      </trkpt>
      <trkpt lat="45.76538" lon="4.63065">
        <ele>716.8</ele>
        <time>2021-09-27T14:45:52.000Z</time>
      </trkpt>
      <trkpt lat="45.76541" lon="4.63064">
        <ele>716.8</ele>
        <time>2021-09-27T14:45:54.000Z</time>
      </trkpt>
      <trkpt lat="45.76544" lon="4.63063">
        <ele>716.8</ele>
        <time>2021-09-27T14:45:55.000Z</time>
      </trkpt>
      <trkpt lat="45.76546" lon="4.63061">
        <ele>717</ele>
        <time>2021-09-27T14:45:56.000Z</time>
      </trkpt>
      <trkpt lat="45.76548" lon="4.63059">
        <ele>717</ele>
        <time>2021-09-27T14:45:57.000Z</time>
      </trkpt>
      <trkpt lat="45.7655" lon="4.63058">
        <ele>717</ele>
        <time>2021-09-27T14:45:58.000Z</time>
      </trkpt>
      <trkpt lat="45.76552" lon="4.63057">
        <ele>717.2</ele>
        <time>2021-09-27T14:45:59.000Z</time>
      </trkpt>
      <trkpt lat="45.76554" lon="4.63056">
        <ele>717.2</ele>
        <time>2021-09-27T14:46:00.000Z</time>
      </trkpt>
      <trkpt lat="45.76556" lon="4.63055">
        <ele>717.2</ele>
        <time>2021-09-27T14:46:01.000Z</time>
      </trkpt>
      <trkpt lat="45.76558" lon="4.63054">
        <ele>717.4</ele>
        <time>2021-09-27T14:46:02.000Z</time>
      </trkpt>
      <trkpt lat="45.7656" lon="4.63054">
        <ele>717.6</ele>
        <time>2021-09-27T14:46:03.000Z</time>
      </trkpt>
      <trkpt lat="45.76563" lon="4.63054">
        <ele>717.6</ele>
        <time>2021-09-27T14:46:04.000Z</time>
      </trkpt>
      <trkpt lat="45.76566" lon="4.63053">
        <ele>717.8</ele>
        <time>2021-09-27T14:46:05.000Z</time>
      </trkpt>
      <trkpt lat="45.76569" lon="4.63052">
        <ele>718.2</ele>
        <time>2021-09-27T14:46:06.000Z</time>
      </trkpt>
      <trkpt lat="45.76571" lon="4.63053">
        <ele>718.6</ele>
        <time>2021-09-27T14:46:07.000Z</time>
      </trkpt>
      <trkpt lat="45.76574" lon="4.63056">
        <ele>718.8</ele>
        <time>2021-09-27T14:46:08.000Z</time>
      </trkpt>
      <trkpt lat="45.76576" lon="4.63058">
        <ele>719</ele>
        <time>2021-09-27T14:46:09.000Z</time>
      </trkpt>
      <trkpt lat="45.76578" lon="4.6306">
        <ele>719</ele>
        <time>2021-09-27T14:46:10.000Z</time>
      </trkpt>
      <trkpt lat="45.7658" lon="4.63063">
        <ele>719.2</ele>
        <time>2021-09-27T14:46:12.000Z</time>
      </trkpt>
      <trkpt lat="45.76582" lon="4.63062">
        <ele>719.2</ele>
        <time>2021-09-27T14:46:13.000Z</time>
      </trkpt>
      <trkpt lat="45.76583" lon="4.63062">
        <ele>719.2</ele>
        <time>2021-09-27T14:46:15.000Z</time>
      </trkpt>
      <trkpt lat="45.76587" lon="4.63063">
        <ele>718</ele>
        <time>2021-09-27T14:49:07.000Z</time>
      </trkpt>
      <trkpt lat="45.7659" lon="4.63064">
        <ele>718</ele>
        <time>2021-09-27T14:49:08.000Z</time>
      </trkpt>
      <trkpt lat="45.76592" lon="4.63064">
        <ele>717.8</ele>
        <time>2021-09-27T14:49:09.000Z</time>
      </trkpt>
      <trkpt lat="45.76594" lon="4.63064">
        <ele>717.8</ele>
        <time>2021-09-27T14:49:11.000Z</time>
      </trkpt>
      <trkpt lat="45.76601" lon="4.63067">
        <ele>716.4</ele>
        <time>2021-09-27T14:49:23.000Z</time>
      </trkpt>
      <trkpt lat="45.76603" lon="4.63068">
        <ele>716.4</ele>
        <time>2021-09-27T14:49:24.000Z</time>
      </trkpt>
      <trkpt lat="45.76605" lon="4.63068">
        <ele>716.4</ele>
        <time>2021-09-27T14:49:25.000Z</time>
      </trkpt>
      <trkpt lat="45.76607" lon="4.63068">
        <ele>716.4</ele>
        <time>2021-09-27T14:49:27.000Z</time>
      </trkpt>
      <trkpt lat="45.76611" lon="4.63071">
        <ele>716.2</ele>
        <time>2021-09-27T14:49:29.000Z</time>
      </trkpt>
      <trkpt lat="45.76613" lon="4.63072">
        <ele>716.2</ele>
        <time>2021-09-27T14:49:30.000Z</time>
      </trkpt>
      <trkpt lat="45.76615" lon="4.63073">
        <ele>716.2</ele>
        <time>2021-09-27T14:49:31.000Z</time>
      </trkpt>
      <trkpt lat="45.76623" lon="4.63078">
        <ele>715.6</ele>
        <time>2021-09-27T14:49:35.000Z</time>
      </trkpt>
      <trkpt lat="45.76633" lon="4.63085">
        <ele>715.4</ele>
        <time>2021-09-27T14:49:37.000Z</time>
      </trkpt>
      <trkpt lat="45.76638" lon="4.63087">
        <ele>715</ele>
        <time>2021-09-27T14:49:39.000Z</time>
      </trkpt>
      <trkpt lat="45.76648" lon="4.63092">
        <ele>714.6</ele>
        <time>2021-09-27T14:49:42.000Z</time>
      </trkpt>
      <trkpt lat="45.76654" lon="4.63095">
        <ele>714.2</ele>
        <time>2021-09-27T14:49:44.000Z</time>
      </trkpt>
      <trkpt lat="45.7666" lon="4.631">
        <ele>713.6</ele>
        <time>2021-09-27T14:49:47.000Z</time>
      </trkpt>
      <trkpt lat="45.76668" lon="4.63106">
        <ele>713.2</ele>
        <time>2021-09-27T14:49:50.000Z</time>
      </trkpt>
      <trkpt lat="45.76673" lon="4.6311">
        <ele>713.2</ele>
        <time>2021-09-27T14:49:51.000Z</time>
      </trkpt>
      <trkpt lat="45.76675" lon="4.63111">
        <ele>713.2</ele>
        <time>2021-09-27T14:49:52.000Z</time>
      </trkpt>
      <trkpt lat="45.76676" lon="4.63113">
        <ele>713.2</ele>
        <time>2021-09-27T14:49:53.000Z</time>
      </trkpt>
      <trkpt lat="45.76678" lon="4.63115">
        <ele>713.2</ele>
        <time>2021-09-27T14:49:55.000Z</time>
      </trkpt>
      <trkpt lat="45.76681" lon="4.63118">
        <ele>713.2</ele>
        <time>2021-09-27T14:49:56.000Z</time>
      </trkpt>
      <trkpt lat="45.76682" lon="4.63119">
        <ele>713.2</ele>
        <time>2021-09-27T14:49:57.000Z</time>
      </trkpt>
      <trkpt lat="45.76684" lon="4.6312">
        <ele>713.2</ele>
        <time>2021-09-27T14:49:58.000Z</time>
      </trkpt>
      <trkpt lat="45.76685" lon="4.63121">
        <ele>713.2</ele>
        <time>2021-09-27T14:49:59.000Z</time>
      </trkpt>
      <trkpt lat="45.76686" lon="4.63124">
        <ele>713.4</ele>
        <time>2021-09-27T14:50:01.000Z</time>
      </trkpt>
      <trkpt lat="45.76689" lon="4.63126">
        <ele>713.6</ele>
        <time>2021-09-27T14:50:03.000Z</time>
      </trkpt>
      <trkpt lat="45.7669" lon="4.63128">
        <ele>713.6</ele>
        <time>2021-09-27T14:50:04.000Z</time>
      </trkpt>
      <trkpt lat="45.76691" lon="4.63129">
        <ele>713.6</ele>
        <time>2021-09-27T14:50:05.000Z</time>
      </trkpt>
      <trkpt lat="45.76692" lon="4.6313">
        <ele>713.8</ele>
        <time>2021-09-27T14:50:06.000Z</time>
      </trkpt>
      <trkpt lat="45.76693" lon="4.63131">
        <ele>713.8</ele>
        <time>2021-09-27T14:50:07.000Z</time>
      </trkpt>
      <trkpt lat="45.76694" lon="4.63132">
        <ele>714</ele>
        <time>2021-09-27T14:50:08.000Z</time>
      </trkpt>
      <trkpt lat="45.76695" lon="4.63132">
        <ele>714</ele>
        <time>2021-09-27T14:50:09.000Z</time>
      </trkpt>
      <trkpt lat="45.76697" lon="4.63133">
        <ele>714</ele>
        <time>2021-09-27T14:50:10.000Z</time>
      </trkpt>
      <trkpt lat="45.76698" lon="4.63135">
        <ele>714</ele>
        <time>2021-09-27T14:50:11.000Z</time>
      </trkpt>
      <trkpt lat="45.76701" lon="4.63138">
        <ele>714.2</ele>
        <time>2021-09-27T14:50:13.000Z</time>
      </trkpt>
      <trkpt lat="45.76704" lon="4.63141">
        <ele>714.6</ele>
        <time>2021-09-27T14:50:16.000Z</time>
      </trkpt>
      <trkpt lat="45.76706" lon="4.63142">
        <ele>714.6</ele>
        <time>2021-09-27T14:50:17.000Z</time>
      </trkpt>
      <trkpt lat="45.76709" lon="4.63148">
        <ele>714.6</ele>
        <time>2021-09-27T14:50:20.000Z</time>
      </trkpt>
      <trkpt lat="45.76712" lon="4.63153">
        <ele>714.8</ele>
        <time>2021-09-27T14:50:22.000Z</time>
      </trkpt>
      <trkpt lat="45.76713" lon="4.63155">
        <ele>714.8</ele>
        <time>2021-09-27T14:50:23.000Z</time>
      </trkpt>
      <trkpt lat="45.76714" lon="4.63157">
        <ele>715</ele>
        <time>2021-09-27T14:50:24.000Z</time>
      </trkpt>
      <trkpt lat="45.76721" lon="4.63169">
        <ele>715.2</ele>
        <time>2021-09-27T14:50:29.000Z</time>
      </trkpt>
      <trkpt lat="45.76722" lon="4.63171">
        <ele>715.2</ele>
        <time>2021-09-27T14:50:30.000Z</time>
      </trkpt>
      <trkpt lat="45.7673" lon="4.63186">
        <ele>715.4</ele>
        <time>2021-09-27T14:50:35.000Z</time>
      </trkpt>
      <trkpt lat="45.76733" lon="4.6319">
        <ele>715.8</ele>
        <time>2021-09-27T14:50:38.000Z</time>
      </trkpt>
      <trkpt lat="45.76747" lon="4.63213">
        <ele>716</ele>
        <time>2021-09-27T14:50:44.000Z</time>
      </trkpt>
      <trkpt lat="45.76762" lon="4.63236">
        <ele>716</ele>
        <time>2021-09-27T14:50:50.000Z</time>
      </trkpt>
      <trkpt lat="45.76765" lon="4.63241">
        <ele>716</ele>
        <time>2021-09-27T14:50:51.000Z</time>
      </trkpt>
      <trkpt lat="45.76776" lon="4.6326">
        <ele>716</ele>
        <time>2021-09-27T14:50:54.000Z</time>
      </trkpt>
      <trkpt lat="45.76779" lon="4.63265">
        <ele>715.8</ele>
        <time>2021-09-27T14:50:55.000Z</time>
      </trkpt>
      <trkpt lat="45.76783" lon="4.6327">
        <ele>715.6</ele>
        <time>2021-09-27T14:50:56.000Z</time>
      </trkpt>
      <trkpt lat="45.76787" lon="4.63276">
        <ele>715.2</ele>
        <time>2021-09-27T14:50:57.000Z</time>
      </trkpt>
      <trkpt lat="45.7679" lon="4.63281">
        <ele>715</ele>
        <time>2021-09-27T14:50:58.000Z</time>
      </trkpt>
      <trkpt lat="45.76793" lon="4.63286">
        <ele>714.8</ele>
        <time>2021-09-27T14:50:59.000Z</time>
      </trkpt>
      <trkpt lat="45.76799" lon="4.63297">
        <ele>714.2</ele>
        <time>2021-09-27T14:51:00.000Z</time>
      </trkpt>
      <trkpt lat="45.76803" lon="4.63304">
        <ele>713.2</ele>
        <time>2021-09-27T14:51:01.000Z</time>
      </trkpt>
      <trkpt lat="45.76806" lon="4.6331">
        <ele>712.8</ele>
        <time>2021-09-27T14:51:02.000Z</time>
      </trkpt>
      <trkpt lat="45.76816" lon="4.63325">
        <ele>712.2</ele>
        <time>2021-09-27T14:51:05.000Z</time>
      </trkpt>
      <trkpt lat="45.76819" lon="4.63328">
        <ele>712</ele>
        <time>2021-09-27T14:51:06.000Z</time>
      </trkpt>
      <trkpt lat="45.76822" lon="4.63332">
        <ele>712</ele>
        <time>2021-09-27T14:51:07.000Z</time>
      </trkpt>
      <trkpt lat="45.76824" lon="4.63336">
        <ele>711.8</ele>
        <time>2021-09-27T14:51:08.000Z</time>
      </trkpt>
      <trkpt lat="45.76826" lon="4.63342">
        <ele>711.6</ele>
        <time>2021-09-27T14:51:09.000Z</time>
      </trkpt>
      <trkpt lat="45.76828" lon="4.63347">
        <ele>711.6</ele>
        <time>2021-09-27T14:51:10.000Z</time>
      </trkpt>
      <trkpt lat="45.76829" lon="4.63352">
        <ele>711.4</ele>
        <time>2021-09-27T14:51:11.000Z</time>
      </trkpt>
      <trkpt lat="45.76829" lon="4.63354">
        <ele>711.2</ele>
        <time>2021-09-27T14:51:13.000Z</time>
      </trkpt>
      <trkpt lat="45.76831" lon="4.63356">
        <ele>710</ele>
        <time>2021-09-27T14:51:36.000Z</time>
      </trkpt>
      <trkpt lat="45.76832" lon="4.63359">
        <ele>710</ele>
        <time>2021-09-27T14:51:37.000Z</time>
      </trkpt>
      <trkpt lat="45.76834" lon="4.63361">
        <ele>710</ele>
        <time>2021-09-27T14:51:38.000Z</time>
      </trkpt>
      <trkpt lat="45.76835" lon="4.63363">
        <ele>710</ele>
        <time>2021-09-27T14:51:39.000Z</time>
      </trkpt>
      <trkpt lat="45.76841" lon="4.63377">
        <ele>710</ele>
        <time>2021-09-27T14:51:42.000Z</time>
      </trkpt>
      <trkpt lat="45.76844" lon="4.63383">
        <ele>710</ele>
        <time>2021-09-27T14:51:43.000Z</time>
      </trkpt>
      <trkpt lat="45.76846" lon="4.63389">
        <ele>709.8</ele>
        <time>2021-09-27T14:51:44.000Z</time>
      </trkpt>
      <trkpt lat="45.76848" lon="4.63395">
        <ele>709.8</ele>
        <time>2021-09-27T14:51:45.000Z</time>
      </trkpt>
      <trkpt lat="45.76854" lon="4.63418">
        <ele>709.4</ele>
        <time>2021-09-27T14:51:48.000Z</time>
      </trkpt>
      <trkpt lat="45.76857" lon="4.63433">
        <ele>709</ele>
        <time>2021-09-27T14:51:50.000Z</time>
      </trkpt>
      <trkpt lat="45.76862" lon="4.63448">
        <ele>708.4</ele>
        <time>2021-09-27T14:51:52.000Z</time>
      </trkpt>
      <trkpt lat="45.76865" lon="4.63456">
        <ele>708.2</ele>
        <time>2021-09-27T14:51:53.000Z</time>
      </trkpt>
      <trkpt lat="45.76874" lon="4.63481">
        <ele>706.8</ele>
        <time>2021-09-27T14:51:57.000Z</time>
      </trkpt>
      <trkpt lat="45.76882" lon="4.63501">
        <ele>705.6</ele>
        <time>2021-09-27T14:52:00.000Z</time>
      </trkpt>
      <trkpt lat="45.76885" lon="4.63508">
        <ele>705.4</ele>
        <time>2021-09-27T14:52:01.000Z</time>
      </trkpt>
      <trkpt lat="45.76887" lon="4.63516">
        <ele>705.2</ele>
        <time>2021-09-27T14:52:02.000Z</time>
      </trkpt>
      <trkpt lat="45.7689" lon="4.63523">
        <ele>704.8</ele>
        <time>2021-09-27T14:52:03.000Z</time>
      </trkpt>
      <trkpt lat="45.76893" lon="4.63531">
        <ele>704.6</ele>
        <time>2021-09-27T14:52:04.000Z</time>
      </trkpt>
      <trkpt lat="45.76901" lon="4.63553">
        <ele>703.4</ele>
        <time>2021-09-27T14:52:08.000Z</time>
      </trkpt>
      <trkpt lat="45.76906" lon="4.63568">
        <ele>703.2</ele>
        <time>2021-09-27T14:52:09.000Z</time>
      </trkpt>
      <trkpt lat="45.76908" lon="4.63575">
        <ele>702.4</ele>
        <time>2021-09-27T14:52:11.000Z</time>
      </trkpt>
      <trkpt lat="45.76912" lon="4.63585">
        <ele>702.2</ele>
        <time>2021-09-27T14:52:12.000Z</time>
      </trkpt>
      <trkpt lat="45.76912" lon="4.63589">
        <ele>702</ele>
        <time>2021-09-27T14:52:13.000Z</time>
      </trkpt>
      <trkpt lat="45.76913" lon="4.63592">
        <ele>702</ele>
        <time>2021-09-27T14:52:14.000Z</time>
      </trkpt>
      <trkpt lat="45.76913" lon="4.63594">
        <ele>701.6</ele>
        <time>2021-09-27T14:52:15.000Z</time>
      </trkpt>
      <trkpt lat="45.76911" lon="4.63597">
        <ele>701.2</ele>
        <time>2021-09-27T14:52:17.000Z</time>
      </trkpt>
      <trkpt lat="45.76906" lon="4.63602">
        <ele>700.2</ele>
        <time>2021-09-27T14:52:33.000Z</time>
      </trkpt>
      <trkpt lat="45.76902" lon="4.63605">
        <ele>700</ele>
        <time>2021-09-27T14:52:35.000Z</time>
      </trkpt>
      <trkpt lat="45.76881" lon="4.63626">
        <ele>699.8</ele>
        <time>2021-09-27T14:52:40.000Z</time>
      </trkpt>
      <trkpt lat="45.76877" lon="4.63636">
        <ele>699.4</ele>
        <time>2021-09-27T14:52:41.000Z</time>
      </trkpt>
      <trkpt lat="45.76876" lon="4.63642">
        <ele>699.2</ele>
        <time>2021-09-27T14:52:42.000Z</time>
      </trkpt>
      <trkpt lat="45.76875" lon="4.63648">
        <ele>698.8</ele>
        <time>2021-09-27T14:52:43.000Z</time>
      </trkpt>
      <trkpt lat="45.76874" lon="4.63655">
        <ele>698</ele>
        <time>2021-09-27T14:52:44.000Z</time>
      </trkpt>
      <trkpt lat="45.76873" lon="4.63659">
        <ele>697.4</ele>
        <time>2021-09-27T14:52:45.000Z</time>
      </trkpt>
      <trkpt lat="45.76872" lon="4.63662">
        <ele>696.6</ele>
        <time>2021-09-27T14:52:46.000Z</time>
      </trkpt>
      <trkpt lat="45.7687" lon="4.63675">
        <ele>696</ele>
        <time>2021-09-27T14:52:47.000Z</time>
      </trkpt>
      <trkpt lat="45.76869" lon="4.6368">
        <ele>695.8</ele>
        <time>2021-09-27T14:52:48.000Z</time>
      </trkpt>
      <trkpt lat="45.76867" lon="4.6369">
        <ele>695.2</ele>
        <time>2021-09-27T14:52:49.000Z</time>
      </trkpt>
      <trkpt lat="45.76864" lon="4.63696">
        <ele>694.8</ele>
        <time>2021-09-27T14:52:50.000Z</time>
      </trkpt>
      <trkpt lat="45.76862" lon="4.63702">
        <ele>694.2</ele>
        <time>2021-09-27T14:52:51.000Z</time>
      </trkpt>
      <trkpt lat="45.76856" lon="4.63713">
        <ele>693.4</ele>
        <time>2021-09-27T14:52:52.000Z</time>
      </trkpt>
      <trkpt lat="45.76853" lon="4.63719">
        <ele>692.8</ele>
        <time>2021-09-27T14:52:53.000Z</time>
      </trkpt>
      <trkpt lat="45.76849" lon="4.63731">
        <ele>692.2</ele>
        <time>2021-09-27T14:52:54.000Z</time>
      </trkpt>
      <trkpt lat="45.76844" lon="4.63742">
        <ele>690.6</ele>
        <time>2021-09-27T14:52:56.000Z</time>
      </trkpt>
      <trkpt lat="45.76841" lon="4.63748">
        <ele>689.4</ele>
        <time>2021-09-27T14:52:57.000Z</time>
      </trkpt>
      <trkpt lat="45.76839" lon="4.63754">
        <ele>688.4</ele>
        <time>2021-09-27T14:52:58.000Z</time>
      </trkpt>
      <trkpt lat="45.76837" lon="4.63756">
        <ele>687.6</ele>
        <time>2021-09-27T14:52:59.000Z</time>
      </trkpt>
      <trkpt lat="45.76836" lon="4.63758">
        <ele>686.2</ele>
        <time>2021-09-27T14:53:01.000Z</time>
      </trkpt>
      <trkpt lat="45.76835" lon="4.63762">
        <ele>684.8</ele>
        <time>2021-09-27T14:53:02.000Z</time>
      </trkpt>
      <trkpt lat="45.76835" lon="4.63769">
        <ele>683.6</ele>
        <time>2021-09-27T14:53:03.000Z</time>
      </trkpt>
      <trkpt lat="45.76835" lon="4.6377">
        <ele>681</ele>
        <time>2021-09-27T14:53:05.000Z</time>
      </trkpt>
      <trkpt lat="45.76836" lon="4.63777">
        <ele>677.6</ele>
        <time>2021-09-27T14:53:16.000Z</time>
      </trkpt>
      <trkpt lat="45.76839" lon="4.63787">
        <ele>677.6</ele>
        <time>2021-09-27T14:53:18.000Z</time>
      </trkpt>
      <trkpt lat="45.7684" lon="4.6379">
        <ele>677.4</ele>
        <time>2021-09-27T14:53:19.000Z</time>
      </trkpt>
      <trkpt lat="45.7684" lon="4.63793">
        <ele>677.4</ele>
        <time>2021-09-27T14:53:20.000Z</time>
      </trkpt>
      <trkpt lat="45.76842" lon="4.6381">
        <ele>677.4</ele>
        <time>2021-09-27T14:53:21.000Z</time>
      </trkpt>
      <trkpt lat="45.76847" lon="4.63838">
        <ele>677</ele>
        <time>2021-09-27T14:53:25.000Z</time>
      </trkpt>
      <trkpt lat="45.76851" lon="4.63863">
        <ele>676.2</ele>
        <time>2021-09-27T14:53:27.000Z</time>
      </trkpt>
      <trkpt lat="45.76852" lon="4.6387">
        <ele>675.8</ele>
        <time>2021-09-27T14:53:28.000Z</time>
      </trkpt>
      <trkpt lat="45.76853" lon="4.63876">
        <ele>675.2</ele>
        <time>2021-09-27T14:53:29.000Z</time>
      </trkpt>
      <trkpt lat="45.76856" lon="4.6389">
        <ele>674.2</ele>
        <time>2021-09-27T14:53:30.000Z</time>
      </trkpt>
      <trkpt lat="45.76857" lon="4.63897">
        <ele>673.2</ele>
        <time>2021-09-27T14:53:31.000Z</time>
      </trkpt>
      <trkpt lat="45.76858" lon="4.63901">
        <ele>671</ele>
        <time>2021-09-27T14:53:33.000Z</time>
      </trkpt>
      <trkpt lat="45.76862" lon="4.63913">
        <ele>669.8</ele>
        <time>2021-09-27T14:53:34.000Z</time>
      </trkpt>
      <trkpt lat="45.76866" lon="4.6392">
        <ele>668.4</ele>
        <time>2021-09-27T14:53:35.000Z</time>
      </trkpt>
      <trkpt lat="45.76868" lon="4.63924">
        <ele>667</ele>
        <time>2021-09-27T14:53:36.000Z</time>
      </trkpt>
      <trkpt lat="45.76868" lon="4.63931">
        <ele>665.8</ele>
        <time>2021-09-27T14:53:37.000Z</time>
      </trkpt>
      <trkpt lat="45.76867" lon="4.63937">
        <ele>665.2</ele>
        <time>2021-09-27T14:53:38.000Z</time>
      </trkpt>
      <trkpt lat="45.76866" lon="4.63943">
        <ele>664</ele>
        <time>2021-09-27T14:53:39.000Z</time>
      </trkpt>
      <trkpt lat="45.76865" lon="4.63949">
        <ele>663.2</ele>
        <time>2021-09-27T14:53:40.000Z</time>
      </trkpt>
      <trkpt lat="45.76863" lon="4.63955">
        <ele>662.2</ele>
        <time>2021-09-27T14:53:41.000Z</time>
      </trkpt>
      <trkpt lat="45.76863" lon="4.63961">
        <ele>660.6</ele>
        <time>2021-09-27T14:53:43.000Z</time>
      </trkpt>
      <trkpt lat="45.76861" lon="4.63974">
        <ele>659.4</ele>
        <time>2021-09-27T14:53:44.000Z</time>
      </trkpt>
      <trkpt lat="45.76861" lon="4.63977">
        <ele>658.6</ele>
        <time>2021-09-27T14:53:45.000Z</time>
      </trkpt>
      <trkpt lat="45.7686" lon="4.63981">
        <ele>658</ele>
        <time>2021-09-27T14:53:46.000Z</time>
      </trkpt>
      <trkpt lat="45.7686" lon="4.64003">
        <ele>655.6</ele>
        <time>2021-09-27T14:53:49.000Z</time>
      </trkpt>
      <trkpt lat="45.7686" lon="4.64019">
        <ele>654.4</ele>
        <time>2021-09-27T14:53:50.000Z</time>
      </trkpt>
      <trkpt lat="45.7686" lon="4.64023">
        <ele>652.8</ele>
        <time>2021-09-27T14:53:51.000Z</time>
      </trkpt>
      <trkpt lat="45.7686" lon="4.64027">
        <ele>651.8</ele>
        <time>2021-09-27T14:53:52.000Z</time>
      </trkpt>
      <trkpt lat="45.7686" lon="4.64033">
        <ele>650.8</ele>
        <time>2021-09-27T14:53:53.000Z</time>
      </trkpt>
      <trkpt lat="45.7686" lon="4.64049">
        <ele>649.2</ele>
        <time>2021-09-27T14:53:54.000Z</time>
      </trkpt>
      <trkpt lat="45.7686" lon="4.64055">
        <ele>647</ele>
        <time>2021-09-27T14:53:55.000Z</time>
      </trkpt>
      <trkpt lat="45.76861" lon="4.64059">
        <ele>645.2</ele>
        <time>2021-09-27T14:53:56.000Z</time>
      </trkpt>
      <trkpt lat="45.76862" lon="4.64067">
        <ele>643.4</ele>
        <time>2021-09-27T14:53:57.000Z</time>
      </trkpt>
      <trkpt lat="45.76862" lon="4.64075">
        <ele>642</ele>
        <time>2021-09-27T14:53:58.000Z</time>
      </trkpt>
      <trkpt lat="45.76862" lon="4.64082">
        <ele>640.8</ele>
        <time>2021-09-27T14:53:59.000Z</time>
      </trkpt>
      <trkpt lat="45.76862" lon="4.64084">
        <ele>639.4</ele>
        <time>2021-09-27T14:54:00.000Z</time>
      </trkpt>
      <trkpt lat="45.76863" lon="4.64087">
        <ele>638.2</ele>
        <time>2021-09-27T14:54:01.000Z</time>
      </trkpt>
      <trkpt lat="45.76865" lon="4.64096">
        <ele>637.2</ele>
        <time>2021-09-27T14:54:02.000Z</time>
      </trkpt>
      <trkpt lat="45.76866" lon="4.641">
        <ele>636</ele>
        <time>2021-09-27T14:54:03.000Z</time>
      </trkpt>
      <trkpt lat="45.76866" lon="4.64104">
        <ele>635.2</ele>
        <time>2021-09-27T14:54:04.000Z</time>
      </trkpt>
      <trkpt lat="45.76866" lon="4.64108">
        <ele>634.4</ele>
        <time>2021-09-27T14:54:05.000Z</time>
      </trkpt>
      <trkpt lat="45.76866" lon="4.64111">
        <ele>633.2</ele>
        <time>2021-09-27T14:54:06.000Z</time>
      </trkpt>
      <trkpt lat="45.76867" lon="4.64114">
        <ele>632</ele>
        <time>2021-09-27T14:54:07.000Z</time>
      </trkpt>
      <trkpt lat="45.76868" lon="4.64118">
        <ele>631</ele>
        <time>2021-09-27T14:54:08.000Z</time>
      </trkpt>
      <trkpt lat="45.76868" lon="4.64122">
        <ele>629.8</ele>
        <time>2021-09-27T14:54:09.000Z</time>
      </trkpt>
      <trkpt lat="45.76869" lon="4.6414">
        <ele>628</ele>
        <time>2021-09-27T14:54:12.000Z</time>
      </trkpt>
      <trkpt lat="45.76869" lon="4.64143">
        <ele>627</ele>
        <time>2021-09-27T14:54:13.000Z</time>
      </trkpt>
      <trkpt lat="45.76868" lon="4.64147">
        <ele>626</ele>
        <time>2021-09-27T14:54:14.000Z</time>
      </trkpt>
      <trkpt lat="45.76868" lon="4.6416">
        <ele>625.4</ele>
        <time>2021-09-27T14:54:15.000Z</time>
      </trkpt>
      <trkpt lat="45.76868" lon="4.64165">
        <ele>624.2</ele>
        <time>2021-09-27T14:54:16.000Z</time>
      </trkpt>
      <trkpt lat="45.76869" lon="4.64168">
        <ele>623.4</ele>
        <time>2021-09-27T14:54:17.000Z</time>
      </trkpt>
      <trkpt lat="45.76869" lon="4.64171">
        <ele>622.8</ele>
        <time>2021-09-27T14:54:18.000Z</time>
      </trkpt>
      <trkpt lat="45.76875" lon="4.64183">
        <ele>612.2</ele>
        <time>2021-09-27T14:54:31.000Z</time>
      </trkpt>
      <trkpt lat="45.76877" lon="4.64187">
        <ele>612.2</ele>
        <time>2021-09-27T14:54:32.000Z</time>
      </trkpt>
      <trkpt lat="45.7688" lon="4.64189">
        <ele>612</ele>
        <time>2021-09-27T14:54:33.000Z</time>
      </trkpt>
      <trkpt lat="45.76883" lon="4.64192">
        <ele>612</ele>
        <time>2021-09-27T14:54:34.000Z</time>
      </trkpt>
      <trkpt lat="45.76887" lon="4.64195">
        <ele>612</ele>
        <time>2021-09-27T14:54:35.000Z</time>
      </trkpt>
      <trkpt lat="45.76904" lon="4.64211">
        <ele>611.4</ele>
        <time>2021-09-27T14:54:40.000Z</time>
      </trkpt>
      <trkpt lat="45.76914" lon="4.64219">
        <ele>610.8</ele>
        <time>2021-09-27T14:54:41.000Z</time>
      </trkpt>
      <trkpt lat="45.76916" lon="4.64221">
        <ele>609.6</ele>
        <time>2021-09-27T14:54:44.000Z</time>
      </trkpt>
      <trkpt lat="45.76919" lon="4.64223">
        <ele>607.8</ele>
        <time>2021-09-27T14:54:49.000Z</time>
      </trkpt>
      <trkpt lat="45.76921" lon="4.64225">
        <ele>607.6</ele>
        <time>2021-09-27T14:54:50.000Z</time>
      </trkpt>
      <trkpt lat="45.76926" lon="4.6423">
        <ele>607.6</ele>
        <time>2021-09-27T14:54:51.000Z</time>
      </trkpt>
      <trkpt lat="45.76931" lon="4.6424">
        <ele>607.4</ele>
        <time>2021-09-27T14:54:54.000Z</time>
      </trkpt>
      <trkpt lat="45.76931" lon="4.64243">
        <ele>607.4</ele>
        <time>2021-09-27T14:54:55.000Z</time>
      </trkpt>
      <trkpt lat="45.76931" lon="4.64245">
        <ele>607.4</ele>
        <time>2021-09-27T14:54:56.000Z</time>
      </trkpt>
      <trkpt lat="45.7693" lon="4.64247">
        <ele>607.4</ele>
        <time>2021-09-27T14:54:57.000Z</time>
      </trkpt>
      <trkpt lat="45.76928" lon="4.6425">
        <ele>607.4</ele>
        <time>2021-09-27T14:54:58.000Z</time>
      </trkpt>
      <trkpt lat="45.76923" lon="4.64253">
        <ele>607.2</ele>
        <time>2021-09-27T14:55:00.000Z</time>
      </trkpt>
      <trkpt lat="45.7692" lon="4.64252">
        <ele>607.2</ele>
        <time>2021-09-27T14:55:01.000Z</time>
      </trkpt>
      <trkpt lat="45.76913" lon="4.64253">
        <ele>607.2</ele>
        <time>2021-09-27T14:55:03.000Z</time>
      </trkpt>
      <trkpt lat="45.76909" lon="4.64253">
        <ele>607.2</ele>
        <time>2021-09-27T14:55:04.000Z</time>
      </trkpt>
      <trkpt lat="45.76904" lon="4.64255">
        <ele>606.6</ele>
        <time>2021-09-27T14:55:06.000Z</time>
      </trkpt>
      <trkpt lat="45.76903" lon="4.64257">
        <ele>605.6</ele>
        <time>2021-09-27T14:55:07.000Z</time>
      </trkpt>
      <trkpt lat="45.76901" lon="4.64258">
        <ele>604.4</ele>
        <time>2021-09-27T14:55:08.000Z</time>
      </trkpt>
      <trkpt lat="45.76899" lon="4.64261">
        <ele>603.6</ele>
        <time>2021-09-27T14:55:09.000Z</time>
      </trkpt>
      <trkpt lat="45.76897" lon="4.64264">
        <ele>602.6</ele>
        <time>2021-09-27T14:55:10.000Z</time>
      </trkpt>
      <trkpt lat="45.76894" lon="4.64268">
        <ele>601.8</ele>
        <time>2021-09-27T14:55:11.000Z</time>
      </trkpt>
      <trkpt lat="45.76891" lon="4.64271">
        <ele>600.6</ele>
        <time>2021-09-27T14:55:12.000Z</time>
      </trkpt>
      <trkpt lat="45.76883" lon="4.64276">
        <ele>599</ele>
        <time>2021-09-27T14:55:14.000Z</time>
      </trkpt>
      <trkpt lat="45.7688" lon="4.64277">
        <ele>598.6</ele>
        <time>2021-09-27T14:55:15.000Z</time>
      </trkpt>
      <trkpt lat="45.76877" lon="4.64279">
        <ele>597.8</ele>
        <time>2021-09-27T14:55:16.000Z</time>
      </trkpt>
      <trkpt lat="45.76874" lon="4.6428">
        <ele>597</ele>
        <time>2021-09-27T14:55:17.000Z</time>
      </trkpt>
      <trkpt lat="45.76871" lon="4.64281">
        <ele>595.8</ele>
        <time>2021-09-27T14:55:18.000Z</time>
      </trkpt>
      <trkpt lat="45.76869" lon="4.64282">
        <ele>594.2</ele>
        <time>2021-09-27T14:55:19.000Z</time>
      </trkpt>
      <trkpt lat="45.76868" lon="4.64284">
        <ele>593</ele>
        <time>2021-09-27T14:55:20.000Z</time>
      </trkpt>
      <trkpt lat="45.76861" lon="4.64289">
        <ele>587.6</ele>
        <time>2021-09-27T14:55:26.000Z</time>
      </trkpt>
      <trkpt lat="45.76859" lon="4.64293">
        <ele>587.4</ele>
        <time>2021-09-27T14:55:27.000Z</time>
      </trkpt>
      <trkpt lat="45.76857" lon="4.64297">
        <ele>587.2</ele>
        <time>2021-09-27T14:55:28.000Z</time>
      </trkpt>
      <trkpt lat="45.7685" lon="4.64308">
        <ele>586.6</ele>
        <time>2021-09-27T14:55:32.000Z</time>
      </trkpt>
      <trkpt lat="45.76847" lon="4.64318">
        <ele>586.6</ele>
        <time>2021-09-27T14:55:33.000Z</time>
      </trkpt>
      <trkpt lat="45.76845" lon="4.64326">
        <ele>585.4</ele>
        <time>2021-09-27T14:55:35.000Z</time>
      </trkpt>
      <trkpt lat="45.76845" lon="4.6433">
        <ele>585</ele>
        <time>2021-09-27T14:55:36.000Z</time>
      </trkpt>
      <trkpt lat="45.76845" lon="4.64334">
        <ele>584.6</ele>
        <time>2021-09-27T14:55:37.000Z</time>
      </trkpt>
      <trkpt lat="45.76844" lon="4.64339">
        <ele>584.2</ele>
        <time>2021-09-27T14:55:38.000Z</time>
      </trkpt>
      <trkpt lat="45.76844" lon="4.64345">
        <ele>584</ele>
        <time>2021-09-27T14:55:39.000Z</time>
      </trkpt>
      <trkpt lat="45.76843" lon="4.64349">
        <ele>584</ele>
        <time>2021-09-27T14:55:40.000Z</time>
      </trkpt>
      <trkpt lat="45.76841" lon="4.64354">
        <ele>583.8</ele>
        <time>2021-09-27T14:55:41.000Z</time>
      </trkpt>
      <trkpt lat="45.76839" lon="4.64358">
        <ele>583.6</ele>
        <time>2021-09-27T14:55:42.000Z</time>
      </trkpt>
      <trkpt lat="45.76837" lon="4.64363">
        <ele>583.2</ele>
        <time>2021-09-27T14:55:43.000Z</time>
      </trkpt>
      <trkpt lat="45.76835" lon="4.64369">
        <ele>583</ele>
        <time>2021-09-27T14:55:44.000Z</time>
      </trkpt>
      <trkpt lat="45.76832" lon="4.64373">
        <ele>583</ele>
        <time>2021-09-27T14:55:45.000Z</time>
      </trkpt>
      <trkpt lat="45.76829" lon="4.64383">
        <ele>582</ele>
        <time>2021-09-27T14:55:47.000Z</time>
      </trkpt>
      <trkpt lat="45.76828" lon="4.64388">
        <ele>581.4</ele>
        <time>2021-09-27T14:55:48.000Z</time>
      </trkpt>
      <trkpt lat="45.76828" lon="4.64391">
        <ele>580.6</ele>
        <time>2021-09-27T14:55:49.000Z</time>
      </trkpt>
      <trkpt lat="45.76826" lon="4.64397">
        <ele>580</ele>
        <time>2021-09-27T14:55:50.000Z</time>
      </trkpt>
      <trkpt lat="45.76825" lon="4.64401">
        <ele>579</ele>
        <time>2021-09-27T14:55:52.000Z</time>
      </trkpt>
      <trkpt lat="45.76819" lon="4.64407">
        <ele>578.6</ele>
        <time>2021-09-27T14:55:53.000Z</time>
      </trkpt>
      <trkpt lat="45.76816" lon="4.6441">
        <ele>578.2</ele>
        <time>2021-09-27T14:55:54.000Z</time>
      </trkpt>
      <trkpt lat="45.76809" lon="4.64414">
        <ele>577.6</ele>
        <time>2021-09-27T14:55:56.000Z</time>
      </trkpt>
      <trkpt lat="45.76808" lon="4.64417">
        <ele>577.4</ele>
        <time>2021-09-27T14:55:57.000Z</time>
      </trkpt>
      <trkpt lat="45.76808" lon="4.64421">
        <ele>576.6</ele>
        <time>2021-09-27T14:55:58.000Z</time>
      </trkpt>
      <trkpt lat="45.76809" lon="4.64425">
        <ele>575.8</ele>
        <time>2021-09-27T14:55:59.000Z</time>
      </trkpt>
      <trkpt lat="45.76807" lon="4.64428">
        <ele>575</ele>
        <time>2021-09-27T14:56:00.000Z</time>
      </trkpt>
      <trkpt lat="45.76806" lon="4.64432">
        <ele>574.6</ele>
        <time>2021-09-27T14:56:01.000Z</time>
      </trkpt>
      <trkpt lat="45.76804" lon="4.64436">
        <ele>574.2</ele>
        <time>2021-09-27T14:56:02.000Z</time>
      </trkpt>
      <trkpt lat="45.76802" lon="4.64441">
        <ele>573.6</ele>
        <time>2021-09-27T14:56:03.000Z</time>
      </trkpt>
      <trkpt lat="45.76802" lon="4.64446">
        <ele>573.4</ele>
        <time>2021-09-27T14:56:04.000Z</time>
      </trkpt>
      <trkpt lat="45.76804" lon="4.6445">
        <ele>573.2</ele>
        <time>2021-09-27T14:56:05.000Z</time>
      </trkpt>
      <trkpt lat="45.76805" lon="4.64455">
        <ele>573</ele>
        <time>2021-09-27T14:56:06.000Z</time>
      </trkpt>
      <trkpt lat="45.76805" lon="4.64461">
        <ele>572.2</ele>
        <time>2021-09-27T14:56:07.000Z</time>
      </trkpt>
      <trkpt lat="45.76807" lon="4.64467">
        <ele>571.4</ele>
        <time>2021-09-27T14:56:08.000Z</time>
      </trkpt>
      <trkpt lat="45.76808" lon="4.64473">
        <ele>570.8</ele>
        <time>2021-09-27T14:56:10.000Z</time>
      </trkpt>
      <trkpt lat="45.76812" lon="4.64481">
        <ele>569.8</ele>
        <time>2021-09-27T14:56:11.000Z</time>
      </trkpt>
      <trkpt lat="45.76813" lon="4.64486">
        <ele>568.6</ele>
        <time>2021-09-27T14:56:12.000Z</time>
      </trkpt>
      <trkpt lat="45.76816" lon="4.64497">
        <ele>566.8</ele>
        <time>2021-09-27T14:56:14.000Z</time>
      </trkpt>
      <trkpt lat="45.76817" lon="4.64503">
        <ele>565.8</ele>
        <time>2021-09-27T14:56:15.000Z</time>
      </trkpt>
      <trkpt lat="45.76819" lon="4.64509">
        <ele>564.6</ele>
        <time>2021-09-27T14:56:16.000Z</time>
      </trkpt>
      <trkpt lat="45.76822" lon="4.64514">
        <ele>563.4</ele>
        <time>2021-09-27T14:56:17.000Z</time>
      </trkpt>
      <trkpt lat="45.76826" lon="4.64519">
        <ele>562.4</ele>
        <time>2021-09-27T14:56:18.000Z</time>
      </trkpt>
      <trkpt lat="45.7683" lon="4.64524">
        <ele>561.2</ele>
        <time>2021-09-27T14:56:19.000Z</time>
      </trkpt>
      <trkpt lat="45.76836" lon="4.64529">
        <ele>560.4</ele>
        <time>2021-09-27T14:56:20.000Z</time>
      </trkpt>
      <trkpt lat="45.76841" lon="4.64532">
        <ele>559.8</ele>
        <time>2021-09-27T14:56:21.000Z</time>
      </trkpt>
      <trkpt lat="45.76851" lon="4.6454">
        <ele>558</ele>
        <time>2021-09-27T14:56:23.000Z</time>
      </trkpt>
      <trkpt lat="45.76856" lon="4.64545">
        <ele>556.8</ele>
        <time>2021-09-27T14:56:24.000Z</time>
      </trkpt>
      <trkpt lat="45.7686" lon="4.64548">
        <ele>555.6</ele>
        <time>2021-09-27T14:56:25.000Z</time>
      </trkpt>
      <trkpt lat="45.76862" lon="4.64552">
        <ele>554.4</ele>
        <time>2021-09-27T14:56:26.000Z</time>
      </trkpt>
      <trkpt lat="45.76863" lon="4.64558">
        <ele>553.2</ele>
        <time>2021-09-27T14:56:27.000Z</time>
      </trkpt>
      <trkpt lat="45.76864" lon="4.64564">
        <ele>552.6</ele>
        <time>2021-09-27T14:56:28.000Z</time>
      </trkpt>
      <trkpt lat="45.76866" lon="4.6457">
        <ele>551.8</ele>
        <time>2021-09-27T14:56:29.000Z</time>
      </trkpt>
      <trkpt lat="45.76867" lon="4.64577">
        <ele>551</ele>
        <time>2021-09-27T14:56:30.000Z</time>
      </trkpt>
      <trkpt lat="45.76868" lon="4.64579">
        <ele>550</ele>
        <time>2021-09-27T14:56:31.000Z</time>
      </trkpt>
      <trkpt lat="45.76868" lon="4.6458">
        <ele>550</ele>
        <time>2021-09-27T14:56:32.000Z</time>
      </trkpt>
      <trkpt lat="45.76867" lon="4.64582">
        <ele>549.4</ele>
        <time>2021-09-27T14:56:33.000Z</time>
      </trkpt>
      <trkpt lat="45.76867" lon="4.64583">
        <ele>548.4</ele>
        <time>2021-09-27T14:56:34.000Z</time>
      </trkpt>
      <trkpt lat="45.76867" lon="4.64584">
        <ele>547.6</ele>
        <time>2021-09-27T14:56:35.000Z</time>
      </trkpt>
      <trkpt lat="45.76866" lon="4.64586">
        <ele>546.6</ele>
        <time>2021-09-27T14:56:36.000Z</time>
      </trkpt>
      <trkpt lat="45.76866" lon="4.64587">
        <ele>545.2</ele>
        <time>2021-09-27T14:56:37.000Z</time>
      </trkpt>
      <trkpt lat="45.76865" lon="4.64589">
        <ele>543.6</ele>
        <time>2021-09-27T14:56:39.000Z</time>
      </trkpt>
      <trkpt lat="45.76862" lon="4.6459">
        <ele>543.2</ele>
        <time>2021-09-27T14:56:40.000Z</time>
      </trkpt>
      <trkpt lat="45.7686" lon="4.64592">
        <ele>543</ele>
        <time>2021-09-27T14:56:41.000Z</time>
      </trkpt>
      <trkpt lat="45.76859" lon="4.64594">
        <ele>543</ele>
        <time>2021-09-27T14:56:42.000Z</time>
      </trkpt>
      <trkpt lat="45.76858" lon="4.64595">
        <ele>543</ele>
        <time>2021-09-27T14:56:43.000Z</time>
      </trkpt>
      <trkpt lat="45.76858" lon="4.64597">
        <ele>542.8</ele>
        <time>2021-09-27T14:56:44.000Z</time>
      </trkpt>
      <trkpt lat="45.76857" lon="4.64599">
        <ele>542.2</ele>
        <time>2021-09-27T14:56:45.000Z</time>
      </trkpt>
      <trkpt lat="45.76856" lon="4.64602">
        <ele>541.2</ele>
        <time>2021-09-27T14:56:47.000Z</time>
      </trkpt>
      <trkpt lat="45.76853" lon="4.64607">
        <ele>540.4</ele>
        <time>2021-09-27T14:56:49.000Z</time>
      </trkpt>
      <trkpt lat="45.76848" lon="4.64609">
        <ele>540</ele>
        <time>2021-09-27T14:56:50.000Z</time>
      </trkpt>
      <trkpt lat="45.76846" lon="4.6461">
        <ele>539.6</ele>
        <time>2021-09-27T14:56:51.000Z</time>
      </trkpt>
      <trkpt lat="45.76844" lon="4.64612">
        <ele>539</ele>
        <time>2021-09-27T14:56:52.000Z</time>
      </trkpt>
      <trkpt lat="45.76843" lon="4.64616">
        <ele>538.4</ele>
        <time>2021-09-27T14:56:53.000Z</time>
      </trkpt>
      <trkpt lat="45.76842" lon="4.64622">
        <ele>536.4</ele>
        <time>2021-09-27T14:56:55.000Z</time>
      </trkpt>
      <trkpt lat="45.76843" lon="4.64631">
        <ele>536.4</ele>
        <time>2021-09-27T14:56:56.000Z</time>
      </trkpt>
      <trkpt lat="45.76843" lon="4.64637">
        <ele>535.8</ele>
        <time>2021-09-27T14:56:57.000Z</time>
      </trkpt>
      <trkpt lat="45.76844" lon="4.64641">
        <ele>534.2</ele>
        <time>2021-09-27T14:56:59.000Z</time>
      </trkpt>
      <trkpt lat="45.76844" lon="4.64648">
        <ele>533.4</ele>
        <time>2021-09-27T14:57:00.000Z</time>
      </trkpt>
      <trkpt lat="45.76845" lon="4.64651">
        <ele>532.4</ele>
        <time>2021-09-27T14:57:01.000Z</time>
      </trkpt>
      <trkpt lat="45.76845" lon="4.64653">
        <ele>531.6</ele>
        <time>2021-09-27T14:57:02.000Z</time>
      </trkpt>
      <trkpt lat="45.76844" lon="4.64656">
        <ele>531</ele>
        <time>2021-09-27T14:57:04.000Z</time>
      </trkpt>
      <trkpt lat="45.76845" lon="4.64668">
        <ele>531</ele>
        <time>2021-09-27T14:57:06.000Z</time>
      </trkpt>
      <trkpt lat="45.76844" lon="4.64672">
        <ele>530.8</ele>
        <time>2021-09-27T14:57:07.000Z</time>
      </trkpt>
      <trkpt lat="45.76843" lon="4.64676">
        <ele>530.6</ele>
        <time>2021-09-27T14:57:08.000Z</time>
      </trkpt>
      <trkpt lat="45.7684" lon="4.64679">
        <ele>530.6</ele>
        <time>2021-09-27T14:57:09.000Z</time>
      </trkpt>
      <trkpt lat="45.76838" lon="4.64681">
        <ele>530.6</ele>
        <time>2021-09-27T14:57:10.000Z</time>
      </trkpt>
      <trkpt lat="45.76836" lon="4.64682">
        <ele>530.4</ele>
        <time>2021-09-27T14:57:11.000Z</time>
      </trkpt>
      <trkpt lat="45.76832" lon="4.64684">
        <ele>530.4</ele>
        <time>2021-09-27T14:57:12.000Z</time>
      </trkpt>
      <trkpt lat="45.7683" lon="4.64685">
        <ele>530.2</ele>
        <time>2021-09-27T14:57:14.000Z</time>
      </trkpt>
      <trkpt lat="45.76827" lon="4.6469">
        <ele>530.2</ele>
        <time>2021-09-27T14:57:15.000Z</time>
      </trkpt>
      <trkpt lat="45.76827" lon="4.64696">
        <ele>530.2</ele>
        <time>2021-09-27T14:57:16.000Z</time>
      </trkpt>
      <trkpt lat="45.76827" lon="4.64703">
        <ele>529.8</ele>
        <time>2021-09-27T14:57:17.000Z</time>
      </trkpt>
      <trkpt lat="45.76829" lon="4.64714">
        <ele>529.4</ele>
        <time>2021-09-27T14:57:19.000Z</time>
      </trkpt>
      <trkpt lat="45.76829" lon="4.64717">
        <ele>528.8</ele>
        <time>2021-09-27T14:57:20.000Z</time>
      </trkpt>
      <trkpt lat="45.76829" lon="4.64721">
        <ele>528</ele>
        <time>2021-09-27T14:57:21.000Z</time>
      </trkpt>
      <trkpt lat="45.76828" lon="4.64725">
        <ele>527</ele>
        <time>2021-09-27T14:57:22.000Z</time>
      </trkpt>
      <trkpt lat="45.76827" lon="4.64728">
        <ele>526.4</ele>
        <time>2021-09-27T14:57:23.000Z</time>
      </trkpt>
      <trkpt lat="45.76826" lon="4.64732">
        <ele>525.8</ele>
        <time>2021-09-27T14:57:24.000Z</time>
      </trkpt>
      <trkpt lat="45.76825" lon="4.64734">
        <ele>524.8</ele>
        <time>2021-09-27T14:57:25.000Z</time>
      </trkpt>
      <trkpt lat="45.76824" lon="4.64736">
        <ele>524.4</ele>
        <time>2021-09-27T14:57:26.000Z</time>
      </trkpt>
      <trkpt lat="45.76823" lon="4.64739">
        <ele>524</ele>
        <time>2021-09-27T14:57:27.000Z</time>
      </trkpt>
      <trkpt lat="45.76823" lon="4.64743">
        <ele>523.8</ele>
        <time>2021-09-27T14:57:28.000Z</time>
      </trkpt>
      <trkpt lat="45.76824" lon="4.64747">
        <ele>523.6</ele>
        <time>2021-09-27T14:57:29.000Z</time>
      </trkpt>
      <trkpt lat="45.76824" lon="4.64752">
        <ele>523.6</ele>
        <time>2021-09-27T14:57:30.000Z</time>
      </trkpt>
      <trkpt lat="45.76824" lon="4.64756">
        <ele>523.4</ele>
        <time>2021-09-27T14:57:31.000Z</time>
      </trkpt>
      <trkpt lat="45.76824" lon="4.64759">
        <ele>522.8</ele>
        <time>2021-09-27T14:57:32.000Z</time>
      </trkpt>
      <trkpt lat="45.76823" lon="4.6476">
        <ele>522</ele>
        <time>2021-09-27T14:57:33.000Z</time>
      </trkpt>
      <trkpt lat="45.7682" lon="4.64763">
        <ele>520.4</ele>
        <time>2021-09-27T14:57:35.000Z</time>
      </trkpt>
      <trkpt lat="45.76813" lon="4.64762">
        <ele>518</ele>
        <time>2021-09-27T14:57:38.000Z</time>
      </trkpt>
      <trkpt lat="45.7681" lon="4.64762">
        <ele>517.4</ele>
        <time>2021-09-27T14:57:39.000Z</time>
      </trkpt>
      <trkpt lat="45.76807" lon="4.64763">
        <ele>517</ele>
        <time>2021-09-27T14:57:40.000Z</time>
      </trkpt>
      <trkpt lat="45.76796" lon="4.64767">
        <ele>515.2</ele>
        <time>2021-09-27T14:57:44.000Z</time>
      </trkpt>
      <trkpt lat="45.76793" lon="4.64772">
        <ele>513.2</ele>
        <time>2021-09-27T14:57:46.000Z</time>
      </trkpt>
      <trkpt lat="45.76792" lon="4.64778">
        <ele>511.8</ele>
        <time>2021-09-27T14:57:48.000Z</time>
      </trkpt>
      <trkpt lat="45.76793" lon="4.64782">
        <ele>510.4</ele>
        <time>2021-09-27T14:57:49.000Z</time>
      </trkpt>
      <trkpt lat="45.76792" lon="4.64785">
        <ele>509.4</ele>
        <time>2021-09-27T14:57:50.000Z</time>
      </trkpt>
      <trkpt lat="45.76792" lon="4.64789">
        <ele>508</ele>
        <time>2021-09-27T14:57:51.000Z</time>
      </trkpt>
      <trkpt lat="45.7679" lon="4.64793">
        <ele>507.2</ele>
        <time>2021-09-27T14:57:52.000Z</time>
      </trkpt>
      <trkpt lat="45.7679" lon="4.64798">
        <ele>506.2</ele>
        <time>2021-09-27T14:57:53.000Z</time>
      </trkpt>
      <trkpt lat="45.76792" lon="4.64809">
        <ele>504.6</ele>
        <time>2021-09-27T14:57:55.000Z</time>
      </trkpt>
      <trkpt lat="45.76792" lon="4.64814">
        <ele>504.2</ele>
        <time>2021-09-27T14:57:56.000Z</time>
      </trkpt>
      <trkpt lat="45.76793" lon="4.64818">
        <ele>503.8</ele>
        <time>2021-09-27T14:57:57.000Z</time>
      </trkpt>
      <trkpt lat="45.76794" lon="4.64822">
        <ele>503.4</ele>
        <time>2021-09-27T14:57:58.000Z</time>
      </trkpt>
      <trkpt lat="45.76795" lon="4.64825">
        <ele>502.8</ele>
        <time>2021-09-27T14:57:59.000Z</time>
      </trkpt>
      <trkpt lat="45.76795" lon="4.64829">
        <ele>502.6</ele>
        <time>2021-09-27T14:58:00.000Z</time>
      </trkpt>
      <trkpt lat="45.76796" lon="4.64833">
        <ele>502.4</ele>
        <time>2021-09-27T14:58:01.000Z</time>
      </trkpt>
      <trkpt lat="45.76798" lon="4.64843">
        <ele>502.2</ele>
        <time>2021-09-27T14:58:04.000Z</time>
      </trkpt>
      <trkpt lat="45.76798" lon="4.64847">
        <ele>502.2</ele>
        <time>2021-09-27T14:58:05.000Z</time>
      </trkpt>
      <trkpt lat="45.76799" lon="4.6485">
        <ele>502.2</ele>
        <time>2021-09-27T14:58:06.000Z</time>
      </trkpt>
      <trkpt lat="45.768" lon="4.64853">
        <ele>502.2</ele>
        <time>2021-09-27T14:58:07.000Z</time>
      </trkpt>
      <trkpt lat="45.768" lon="4.64856">
        <ele>502.2</ele>
        <time>2021-09-27T14:58:08.000Z</time>
      </trkpt>
      <trkpt lat="45.76801" lon="4.6486">
        <ele>502.2</ele>
        <time>2021-09-27T14:58:09.000Z</time>
      </trkpt>
      <trkpt lat="45.76801" lon="4.64863">
        <ele>502.2</ele>
        <time>2021-09-27T14:58:10.000Z</time>
      </trkpt>
      <trkpt lat="45.76804" lon="4.64873">
        <ele>502.8</ele>
        <time>2021-09-27T14:58:13.000Z</time>
      </trkpt>
      <trkpt lat="45.76805" lon="4.64876">
        <ele>503.2</ele>
        <time>2021-09-27T14:58:15.000Z</time>
      </trkpt>
      <trkpt lat="45.76813" lon="4.64888">
        <ele>503.6</ele>
        <time>2021-09-27T14:58:19.000Z</time>
      </trkpt>
      <trkpt lat="45.76814" lon="4.6489">
        <ele>503.6</ele>
        <time>2021-09-27T14:58:20.000Z</time>
      </trkpt>
      <trkpt lat="45.76815" lon="4.64893">
        <ele>503.8</ele>
        <time>2021-09-27T14:58:21.000Z</time>
      </trkpt>
      <trkpt lat="45.76813" lon="4.64896">
        <ele>503.8</ele>
        <time>2021-09-27T14:58:22.000Z</time>
      </trkpt>
      <trkpt lat="45.76812" lon="4.64899">
        <ele>503.8</ele>
        <time>2021-09-27T14:58:23.000Z</time>
      </trkpt>
      <trkpt lat="45.7681" lon="4.64902">
        <ele>503.8</ele>
        <time>2021-09-27T14:58:24.000Z</time>
      </trkpt>
      <trkpt lat="45.76809" lon="4.64906">
        <ele>503.8</ele>
        <time>2021-09-27T14:58:25.000Z</time>
      </trkpt>
      <trkpt lat="45.76806" lon="4.64911">
        <ele>503.8</ele>
        <time>2021-09-27T14:58:26.000Z</time>
      </trkpt>
      <trkpt lat="45.76803" lon="4.64916">
        <ele>503.8</ele>
        <time>2021-09-27T14:58:27.000Z</time>
      </trkpt>
      <trkpt lat="45.768" lon="4.64919">
        <ele>503.8</ele>
        <time>2021-09-27T14:58:28.000Z</time>
      </trkpt>
      <trkpt lat="45.76794" lon="4.64925">
        <ele>503.8</ele>
        <time>2021-09-27T14:58:30.000Z</time>
      </trkpt>
      <trkpt lat="45.76792" lon="4.64926">
        <ele>503.8</ele>
        <time>2021-09-27T14:58:31.000Z</time>
      </trkpt>
      <trkpt lat="45.76791" lon="4.64929">
        <ele>503.6</ele>
        <time>2021-09-27T14:58:32.000Z</time>
      </trkpt>
      <trkpt lat="45.76791" lon="4.64933">
        <ele>503.2</ele>
        <time>2021-09-27T14:58:33.000Z</time>
      </trkpt>
      <trkpt lat="45.76791" lon="4.64937">
        <ele>502.4</ele>
        <time>2021-09-27T14:58:34.000Z</time>
      </trkpt>
      <trkpt lat="45.7679" lon="4.64941">
        <ele>501.2</ele>
        <time>2021-09-27T14:58:35.000Z</time>
      </trkpt>
      <trkpt lat="45.76788" lon="4.64949">
        <ele>500.2</ele>
        <time>2021-09-27T14:58:37.000Z</time>
      </trkpt>
      <trkpt lat="45.76786" lon="4.64952">
        <ele>499.2</ele>
        <time>2021-09-27T14:58:38.000Z</time>
      </trkpt>
      <trkpt lat="45.76786" lon="4.64953">
        <ele>498.6</ele>
        <time>2021-09-27T14:58:39.000Z</time>
      </trkpt>
      <trkpt lat="45.76785" lon="4.64955">
        <ele>498.2</ele>
        <time>2021-09-27T14:58:40.000Z</time>
      </trkpt>
      <trkpt lat="45.76784" lon="4.64957">
        <ele>497.8</ele>
        <time>2021-09-27T14:58:41.000Z</time>
      </trkpt>
      <trkpt lat="45.76783" lon="4.64959">
        <ele>497.2</ele>
        <time>2021-09-27T14:58:42.000Z</time>
      </trkpt>
      <trkpt lat="45.76777" lon="4.64964">
        <ele>496.4</ele>
        <time>2021-09-27T14:58:44.000Z</time>
      </trkpt>
      <trkpt lat="45.76775" lon="4.64968">
        <ele>496</ele>
        <time>2021-09-27T14:58:45.000Z</time>
      </trkpt>
      <trkpt lat="45.76769" lon="4.64977">
        <ele>495.2</ele>
        <time>2021-09-27T14:58:48.000Z</time>
      </trkpt>
      <trkpt lat="45.76767" lon="4.64979">
        <ele>495.2</ele>
        <time>2021-09-27T14:58:49.000Z</time>
      </trkpt>
      <trkpt lat="45.76765" lon="4.64982">
        <ele>495</ele>
        <time>2021-09-27T14:58:50.000Z</time>
      </trkpt>
      <trkpt lat="45.76759" lon="4.64987">
        <ele>494.4</ele>
        <time>2021-09-27T14:58:53.000Z</time>
      </trkpt>
      <trkpt lat="45.76757" lon="4.6499">
        <ele>494</ele>
        <time>2021-09-27T14:58:54.000Z</time>
      </trkpt>
      <trkpt lat="45.76755" lon="4.64994">
        <ele>493.4</ele>
        <time>2021-09-27T14:58:55.000Z</time>
      </trkpt>
      <trkpt lat="45.76752" lon="4.64997">
        <ele>493.2</ele>
        <time>2021-09-27T14:58:56.000Z</time>
      </trkpt>
      <trkpt lat="45.7675" lon="4.65">
        <ele>492.8</ele>
        <time>2021-09-27T14:58:57.000Z</time>
      </trkpt>
      <trkpt lat="45.76748" lon="4.65003">
        <ele>491.8</ele>
        <time>2021-09-27T14:58:59.000Z</time>
      </trkpt>
      <trkpt lat="45.76746" lon="4.65007">
        <ele>491.2</ele>
        <time>2021-09-27T14:59:00.000Z</time>
      </trkpt>
      <trkpt lat="45.76742" lon="4.65012">
        <ele>490.6</ele>
        <time>2021-09-27T14:59:01.000Z</time>
      </trkpt>
      <trkpt lat="45.76733" lon="4.65018">
        <ele>488.6</ele>
        <time>2021-09-27T14:59:04.000Z</time>
      </trkpt>
      <trkpt lat="45.76731" lon="4.65021">
        <ele>487.4</ele>
        <time>2021-09-27T14:59:05.000Z</time>
      </trkpt>
      <trkpt lat="45.76725" lon="4.65028">
        <ele>485.4</ele>
        <time>2021-09-27T14:59:07.000Z</time>
      </trkpt>
      <trkpt lat="45.76723" lon="4.65031">
        <ele>484</ele>
        <time>2021-09-27T14:59:08.000Z</time>
      </trkpt>
      <trkpt lat="45.76718" lon="4.65043">
        <ele>482.4</ele>
        <time>2021-09-27T14:59:10.000Z</time>
      </trkpt>
      <trkpt lat="45.76716" lon="4.65048">
        <ele>481.6</ele>
        <time>2021-09-27T14:59:11.000Z</time>
      </trkpt>
      <trkpt lat="45.76714" lon="4.65051">
        <ele>480.8</ele>
        <time>2021-09-27T14:59:12.000Z</time>
      </trkpt>
      <trkpt lat="45.76712" lon="4.65055">
        <ele>480</ele>
        <time>2021-09-27T14:59:13.000Z</time>
      </trkpt>
      <trkpt lat="45.76711" lon="4.65058">
        <ele>478.8</ele>
        <time>2021-09-27T14:59:14.000Z</time>
      </trkpt>
      <trkpt lat="45.76711" lon="4.65061">
        <ele>478.2</ele>
        <time>2021-09-27T14:59:15.000Z</time>
      </trkpt>
      <trkpt lat="45.76711" lon="4.65064">
        <ele>478</ele>
        <time>2021-09-27T14:59:16.000Z</time>
      </trkpt>
      <trkpt lat="45.7671" lon="4.65066">
        <ele>478</ele>
        <time>2021-09-27T14:59:17.000Z</time>
      </trkpt>
      <trkpt lat="45.7671" lon="4.65068">
        <ele>477.8</ele>
        <time>2021-09-27T14:59:18.000Z</time>
      </trkpt>
      <trkpt lat="45.7671" lon="4.6507">
        <ele>477.8</ele>
        <time>2021-09-27T14:59:19.000Z</time>
      </trkpt>
      <trkpt lat="45.7671" lon="4.65073">
        <ele>477.8</ele>
        <time>2021-09-27T14:59:20.000Z</time>
      </trkpt>
      <trkpt lat="45.76709" lon="4.65075">
        <ele>477.8</ele>
        <time>2021-09-27T14:59:21.000Z</time>
      </trkpt>
      <trkpt lat="45.76708" lon="4.65079">
        <ele>477.8</ele>
        <time>2021-09-27T14:59:23.000Z</time>
      </trkpt>
      <trkpt lat="45.76708" lon="4.65081">
        <ele>477.8</ele>
        <time>2021-09-27T14:59:24.000Z</time>
      </trkpt>
      <trkpt lat="45.76708" lon="4.65083">
        <ele>477.8</ele>
        <time>2021-09-27T14:59:25.000Z</time>
      </trkpt>
      <trkpt lat="45.76707" lon="4.65085">
        <ele>477.8</ele>
        <time>2021-09-27T14:59:26.000Z</time>
      </trkpt>
      <trkpt lat="45.76707" lon="4.65086">
        <ele>477.8</ele>
        <time>2021-09-27T14:59:27.000Z</time>
      </trkpt>
      <trkpt lat="45.76707" lon="4.65088">
        <ele>478</ele>
        <time>2021-09-27T14:59:28.000Z</time>
      </trkpt>
      <trkpt lat="45.76706" lon="4.6509">
        <ele>478.2</ele>
        <time>2021-09-27T14:59:29.000Z</time>
      </trkpt>
      <trkpt lat="45.76706" lon="4.65092">
        <ele>478.4</ele>
        <time>2021-09-27T14:59:30.000Z</time>
      </trkpt>
      <trkpt lat="45.76705" lon="4.65094">
        <ele>478.4</ele>
        <time>2021-09-27T14:59:31.000Z</time>
      </trkpt>
      <trkpt lat="45.76704" lon="4.65096">
        <ele>478.6</ele>
        <time>2021-09-27T14:59:32.000Z</time>
      </trkpt>
      <trkpt lat="45.76703" lon="4.65098">
        <ele>478.8</ele>
        <time>2021-09-27T14:59:33.000Z</time>
      </trkpt>
      <trkpt lat="45.76702" lon="4.651">
        <ele>479</ele>
        <time>2021-09-27T14:59:34.000Z</time>
      </trkpt>
      <trkpt lat="45.76702" lon="4.65102">
        <ele>479.2</ele>
        <time>2021-09-27T14:59:35.000Z</time>
      </trkpt>
      <trkpt lat="45.767" lon="4.65105">
        <ele>479.8</ele>
        <time>2021-09-27T14:59:37.000Z</time>
      </trkpt>
      <trkpt lat="45.767" lon="4.65107">
        <ele>480</ele>
        <time>2021-09-27T14:59:38.000Z</time>
      </trkpt>
      <trkpt lat="45.76698" lon="4.65111">
        <ele>480.2</ele>
        <time>2021-09-27T14:59:40.000Z</time>
      </trkpt>
      <trkpt lat="45.76695" lon="4.65119">
        <ele>481</ele>
        <time>2021-09-27T14:59:44.000Z</time>
      </trkpt>
      <trkpt lat="45.76695" lon="4.65122">
        <ele>481.2</ele>
        <time>2021-09-27T14:59:45.000Z</time>
      </trkpt>
      <trkpt lat="45.76696" lon="4.65124">
        <ele>481.2</ele>
        <time>2021-09-27T14:59:46.000Z</time>
      </trkpt>
      <trkpt lat="45.76696" lon="4.65127">
        <ele>481.4</ele>
        <time>2021-09-27T14:59:47.000Z</time>
      </trkpt>
      <trkpt lat="45.76697" lon="4.6513">
        <ele>481.4</ele>
        <time>2021-09-27T14:59:48.000Z</time>
      </trkpt>
      <trkpt lat="45.76698" lon="4.65132">
        <ele>481.4</ele>
        <time>2021-09-27T14:59:49.000Z</time>
      </trkpt>
      <trkpt lat="45.76704" lon="4.65143">
        <ele>481.4</ele>
        <time>2021-09-27T14:59:56.000Z</time>
      </trkpt>
      <trkpt lat="45.76707" lon="4.65148">
        <ele>481.4</ele>
        <time>2021-09-27T14:59:57.000Z</time>
      </trkpt>
      <trkpt lat="45.76715" lon="4.65163">
        <ele>481.4</ele>
        <time>2021-09-27T15:00:04.000Z</time>
      </trkpt>
      <trkpt lat="45.76717" lon="4.65165">
        <ele>481.4</ele>
        <time>2021-09-27T15:00:05.000Z</time>
      </trkpt>
      <trkpt lat="45.76719" lon="4.65166">
        <ele>481.2</ele>
        <time>2021-09-27T15:00:06.000Z</time>
      </trkpt>
      <trkpt lat="45.76721" lon="4.65167">
        <ele>481.4</ele>
        <time>2021-09-27T15:00:07.000Z</time>
      </trkpt>
      <trkpt lat="45.76723" lon="4.65167">
        <ele>481.4</ele>
        <time>2021-09-27T15:00:08.000Z</time>
      </trkpt>
      <trkpt lat="45.76727" lon="4.65167">
        <ele>481.4</ele>
        <time>2021-09-27T15:00:11.000Z</time>
      </trkpt>
      <trkpt lat="45.76732" lon="4.65168">
        <ele>481.4</ele>
        <time>2021-09-27T15:00:13.000Z</time>
      </trkpt>
      <trkpt lat="45.76733" lon="4.65168">
        <ele>481.4</ele>
        <time>2021-09-27T15:00:14.000Z</time>
      </trkpt>
      <trkpt lat="45.76734" lon="4.6517">
        <ele>481.4</ele>
        <time>2021-09-27T15:00:15.000Z</time>
      </trkpt>
      <trkpt lat="45.76734" lon="4.65172">
        <ele>481.4</ele>
        <time>2021-09-27T15:00:16.000Z</time>
      </trkpt>
      <trkpt lat="45.76734" lon="4.65173">
        <ele>481.4</ele>
        <time>2021-09-27T15:00:17.000Z</time>
      </trkpt>
    </trkseg>
  </trk>
</gpx>